<?xml version="1.0" encoding="UTF-8" standalone="no" ?>
<gpx xmlns="http://www.topografix.com/GPX/1/1" xmlns:xsi="http://www.w3.org/2001/XMLSchema-instance" xsi:schemaLocation="http://www.topografix.com/GPX/1/1 http://www.topografix.com/GPX/1/1/gpx.xsd" version="1.1" creator="VisuGPX - https://www.visugpx.com">
  <metadata>
    <name>Parcours en sens inverse</name>
    <desc><![CDATA[Parcours déjà fait mais en sens inverse]]></desc>
  </metadata>
  <trk>
    <name><![CDATA[Sortie à vélo matinale]]></name>
    <trkseg>
      <trkpt lat="45.63754" lon="4.38731">
        <ele>605</ele>
        <time>2017-03-19T07:34:29Z</time>
      </trkpt>
      <trkpt lat="45.63754" lon="4.38785">
        <ele>607.9</ele>
        <time>2017-03-19T07:35:25Z</time>
      </trkpt>
      <trkpt lat="45.63751" lon="4.38788">
        <ele>608</ele>
        <time>2017-03-19T07:35:27Z</time>
      </trkpt>
      <trkpt lat="45.63748" lon="4.38791">
        <ele>608.2</ele>
        <time>2017-03-19T07:35:29Z</time>
      </trkpt>
      <trkpt lat="45.63746" lon="4.38794">
        <ele>608.5</ele>
        <time>2017-03-19T07:35:30Z</time>
      </trkpt>
      <trkpt lat="45.63744" lon="4.38798">
        <ele>608.7</ele>
        <time>2017-03-19T07:35:31Z</time>
      </trkpt>
      <trkpt lat="45.63742" lon="4.38802">
        <ele>608.9</ele>
        <time>2017-03-19T07:35:32Z</time>
      </trkpt>
      <trkpt lat="45.6374" lon="4.38806">
        <ele>608.9</ele>
        <time>2017-03-19T07:35:33Z</time>
      </trkpt>
      <trkpt lat="45.63739" lon="4.38809">
        <ele>609</ele>
        <time>2017-03-19T07:35:34Z</time>
      </trkpt>
      <trkpt lat="45.63737" lon="4.38813">
        <ele>609</ele>
        <time>2017-03-19T07:35:35Z</time>
      </trkpt>
      <trkpt lat="45.63735" lon="4.38819">
        <ele>609</ele>
        <time>2017-03-19T07:35:37Z</time>
      </trkpt>
      <trkpt lat="45.63732" lon="4.38821">
        <ele>609</ele>
        <time>2017-03-19T07:35:39Z</time>
      </trkpt>
      <trkpt lat="45.63727" lon="4.38822">
        <ele>609</ele>
        <time>2017-03-19T07:35:41Z</time>
      </trkpt>
      <trkpt lat="45.63722" lon="4.38821">
        <ele>609</ele>
        <time>2017-03-19T07:35:43Z</time>
      </trkpt>
      <trkpt lat="45.63719" lon="4.38822">
        <ele>609</ele>
        <time>2017-03-19T07:36:16Z</time>
      </trkpt>
      <trkpt lat="45.63714" lon="4.38824">
        <ele>609</ele>
        <time>2017-03-19T07:36:18Z</time>
      </trkpt>
      <trkpt lat="45.63709" lon="4.38827">
        <ele>608.9</ele>
        <time>2017-03-19T07:36:20Z</time>
      </trkpt>
      <trkpt lat="45.63705" lon="4.38829">
        <ele>608.9</ele>
        <time>2017-03-19T07:36:21Z</time>
      </trkpt>
      <trkpt lat="45.63701" lon="4.38831">
        <ele>608.9</ele>
        <time>2017-03-19T07:36:22Z</time>
      </trkpt>
      <trkpt lat="45.63697" lon="4.38833">
        <ele>608.9</ele>
        <time>2017-03-19T07:36:23Z</time>
      </trkpt>
      <trkpt lat="45.63692" lon="4.38832">
        <ele>608.9</ele>
        <time>2017-03-19T07:36:24Z</time>
      </trkpt>
      <trkpt lat="45.63686" lon="4.38824">
        <ele>609</ele>
        <time>2017-03-19T07:36:26Z</time>
      </trkpt>
      <trkpt lat="45.63683" lon="4.38815">
        <ele>609</ele>
        <time>2017-03-19T07:36:27Z</time>
      </trkpt>
      <trkpt lat="45.6368" lon="4.38809">
        <ele>609</ele>
        <time>2017-03-19T07:36:28Z</time>
      </trkpt>
      <trkpt lat="45.63675" lon="4.38804">
        <ele>609</ele>
        <time>2017-03-19T07:36:29Z</time>
      </trkpt>
      <trkpt lat="45.6367" lon="4.38801">
        <ele>609.1</ele>
        <time>2017-03-19T07:36:30Z</time>
      </trkpt>
      <trkpt lat="45.63665" lon="4.38803">
        <ele>610</ele>
        <time>2017-03-19T07:36:31Z</time>
      </trkpt>
      <trkpt lat="45.63658" lon="4.38805">
        <ele>610</ele>
        <time>2017-03-19T07:36:32Z</time>
      </trkpt>
      <trkpt lat="45.63653" lon="4.38804">
        <ele>609.9</ele>
        <time>2017-03-19T07:36:33Z</time>
      </trkpt>
      <trkpt lat="45.63647" lon="4.38802">
        <ele>609.8</ele>
        <time>2017-03-19T07:36:34Z</time>
      </trkpt>
      <trkpt lat="45.63642" lon="4.38799">
        <ele>609.7</ele>
        <time>2017-03-19T07:36:35Z</time>
      </trkpt>
      <trkpt lat="45.63637" lon="4.38795">
        <ele>609.5</ele>
        <time>2017-03-19T07:36:36Z</time>
      </trkpt>
      <trkpt lat="45.63632" lon="4.3879">
        <ele>609.4</ele>
        <time>2017-03-19T07:36:37Z</time>
      </trkpt>
      <trkpt lat="45.63628" lon="4.38786">
        <ele>609.3</ele>
        <time>2017-03-19T07:36:38Z</time>
      </trkpt>
      <trkpt lat="45.63622" lon="4.38782">
        <ele>609.1</ele>
        <time>2017-03-19T07:36:39Z</time>
      </trkpt>
      <trkpt lat="45.63617" lon="4.38777">
        <ele>609</ele>
        <time>2017-03-19T07:36:40Z</time>
      </trkpt>
      <trkpt lat="45.63612" lon="4.38772">
        <ele>608.9</ele>
        <time>2017-03-19T07:36:41Z</time>
      </trkpt>
      <trkpt lat="45.63608" lon="4.38766">
        <ele>608.7</ele>
        <time>2017-03-19T07:36:42Z</time>
      </trkpt>
      <trkpt lat="45.63603" lon="4.38762">
        <ele>608.6</ele>
        <time>2017-03-19T07:36:43Z</time>
      </trkpt>
      <trkpt lat="45.63598" lon="4.38757">
        <ele>608.5</ele>
        <time>2017-03-19T07:36:44Z</time>
      </trkpt>
      <trkpt lat="45.63594" lon="4.38751">
        <ele>608.4</ele>
        <time>2017-03-19T07:36:45Z</time>
      </trkpt>
      <trkpt lat="45.6359" lon="4.38745">
        <ele>608.3</ele>
        <time>2017-03-19T07:36:46Z</time>
      </trkpt>
      <trkpt lat="45.63584" lon="4.38741">
        <ele>608.1</ele>
        <time>2017-03-19T07:36:47Z</time>
      </trkpt>
      <trkpt lat="45.63579" lon="4.38737">
        <ele>608</ele>
        <time>2017-03-19T07:36:48Z</time>
      </trkpt>
      <trkpt lat="45.63574" lon="4.38732">
        <ele>607.9</ele>
        <time>2017-03-19T07:36:49Z</time>
      </trkpt>
      <trkpt lat="45.63571" lon="4.38726">
        <ele>607.8</ele>
        <time>2017-03-19T07:36:50Z</time>
      </trkpt>
      <trkpt lat="45.63566" lon="4.38722">
        <ele>607.6</ele>
        <time>2017-03-19T07:36:51Z</time>
      </trkpt>
      <trkpt lat="45.63562" lon="4.38719">
        <ele>607.5</ele>
        <time>2017-03-19T07:36:52Z</time>
      </trkpt>
      <trkpt lat="45.63557" lon="4.38717">
        <ele>607.4</ele>
        <time>2017-03-19T07:36:53Z</time>
      </trkpt>
      <trkpt lat="45.63552" lon="4.38717">
        <ele>607.3</ele>
        <time>2017-03-19T07:36:54Z</time>
      </trkpt>
      <trkpt lat="45.6355" lon="4.3872">
        <ele>607</ele>
        <time>2017-03-19T07:36:55Z</time>
      </trkpt>
      <trkpt lat="45.63547" lon="4.38727">
        <ele>607</ele>
        <time>2017-03-19T07:36:56Z</time>
      </trkpt>
      <trkpt lat="45.63547" lon="4.38733">
        <ele>607</ele>
        <time>2017-03-19T07:36:57Z</time>
      </trkpt>
      <trkpt lat="45.63547" lon="4.38739">
        <ele>607</ele>
        <time>2017-03-19T07:36:58Z</time>
      </trkpt>
      <trkpt lat="45.63547" lon="4.38745">
        <ele>607</ele>
        <time>2017-03-19T07:36:59Z</time>
      </trkpt>
      <trkpt lat="45.63548" lon="4.38751">
        <ele>607</ele>
        <time>2017-03-19T07:37:00Z</time>
      </trkpt>
      <trkpt lat="45.63547" lon="4.38758">
        <ele>607</ele>
        <time>2017-03-19T07:37:01Z</time>
      </trkpt>
      <trkpt lat="45.63547" lon="4.38763">
        <ele>607</ele>
        <time>2017-03-19T07:37:02Z</time>
      </trkpt>
      <trkpt lat="45.63547" lon="4.38771">
        <ele>607</ele>
        <time>2017-03-19T07:37:03Z</time>
      </trkpt>
      <trkpt lat="45.63546" lon="4.38777">
        <ele>607</ele>
        <time>2017-03-19T07:37:04Z</time>
      </trkpt>
      <trkpt lat="45.63546" lon="4.38783">
        <ele>607</ele>
        <time>2017-03-19T07:37:05Z</time>
      </trkpt>
      <trkpt lat="45.63546" lon="4.3879">
        <ele>607</ele>
        <time>2017-03-19T07:37:06Z</time>
      </trkpt>
      <trkpt lat="45.63546" lon="4.38796">
        <ele>607</ele>
        <time>2017-03-19T07:37:07Z</time>
      </trkpt>
      <trkpt lat="45.63546" lon="4.38802">
        <ele>607</ele>
        <time>2017-03-19T07:37:08Z</time>
      </trkpt>
      <trkpt lat="45.63546" lon="4.38808">
        <ele>607</ele>
        <time>2017-03-19T07:37:09Z</time>
      </trkpt>
      <trkpt lat="45.63545" lon="4.38814">
        <ele>607</ele>
        <time>2017-03-19T07:37:10Z</time>
      </trkpt>
      <trkpt lat="45.63545" lon="4.38821">
        <ele>607</ele>
        <time>2017-03-19T07:37:11Z</time>
      </trkpt>
      <trkpt lat="45.63544" lon="4.38827">
        <ele>607</ele>
        <time>2017-03-19T07:37:12Z</time>
      </trkpt>
      <trkpt lat="45.63543" lon="4.38834">
        <ele>607</ele>
        <time>2017-03-19T07:37:13Z</time>
      </trkpt>
      <trkpt lat="45.63543" lon="4.3884">
        <ele>607</ele>
        <time>2017-03-19T07:37:14Z</time>
      </trkpt>
      <trkpt lat="45.63542" lon="4.38848">
        <ele>607</ele>
        <time>2017-03-19T07:37:15Z</time>
      </trkpt>
      <trkpt lat="45.63542" lon="4.38855">
        <ele>607</ele>
        <time>2017-03-19T07:37:16Z</time>
      </trkpt>
      <trkpt lat="45.6354" lon="4.38862">
        <ele>607</ele>
        <time>2017-03-19T07:37:17Z</time>
      </trkpt>
      <trkpt lat="45.63538" lon="4.38869">
        <ele>607</ele>
        <time>2017-03-19T07:37:18Z</time>
      </trkpt>
      <trkpt lat="45.63537" lon="4.38876">
        <ele>607</ele>
        <time>2017-03-19T07:37:19Z</time>
      </trkpt>
      <trkpt lat="45.63535" lon="4.38885">
        <ele>607</ele>
        <time>2017-03-19T07:37:20Z</time>
      </trkpt>
      <trkpt lat="45.63533" lon="4.38892">
        <ele>607</ele>
        <time>2017-03-19T07:37:21Z</time>
      </trkpt>
      <trkpt lat="45.6353" lon="4.38901">
        <ele>607</ele>
        <time>2017-03-19T07:37:22Z</time>
      </trkpt>
      <trkpt lat="45.63528" lon="4.38909">
        <ele>607.4</ele>
        <time>2017-03-19T07:37:23Z</time>
      </trkpt>
      <trkpt lat="45.63527" lon="4.38917">
        <ele>608.3</ele>
        <time>2017-03-19T07:37:24Z</time>
      </trkpt>
      <trkpt lat="45.63525" lon="4.38925">
        <ele>609.2</ele>
        <time>2017-03-19T07:37:25Z</time>
      </trkpt>
      <trkpt lat="45.63524" lon="4.38933">
        <ele>610</ele>
        <time>2017-03-19T07:37:26Z</time>
      </trkpt>
      <trkpt lat="45.63523" lon="4.38941">
        <ele>610.8</ele>
        <time>2017-03-19T07:37:27Z</time>
      </trkpt>
      <trkpt lat="45.63522" lon="4.3895">
        <ele>611.6</ele>
        <time>2017-03-19T07:37:28Z</time>
      </trkpt>
      <trkpt lat="45.63521" lon="4.38959">
        <ele>611.9</ele>
        <time>2017-03-19T07:37:29Z</time>
      </trkpt>
      <trkpt lat="45.63521" lon="4.38968">
        <ele>611.9</ele>
        <time>2017-03-19T07:37:30Z</time>
      </trkpt>
      <trkpt lat="45.63521" lon="4.38977">
        <ele>611.8</ele>
        <time>2017-03-19T07:37:31Z</time>
      </trkpt>
      <trkpt lat="45.6352" lon="4.38986">
        <ele>611.7</ele>
        <time>2017-03-19T07:37:32Z</time>
      </trkpt>
      <trkpt lat="45.6352" lon="4.38995">
        <ele>611.6</ele>
        <time>2017-03-19T07:37:33Z</time>
      </trkpt>
      <trkpt lat="45.6352" lon="4.39004">
        <ele>611.5</ele>
        <time>2017-03-19T07:37:34Z</time>
      </trkpt>
      <trkpt lat="45.6352" lon="4.39012">
        <ele>611.4</ele>
        <time>2017-03-19T07:37:35Z</time>
      </trkpt>
      <trkpt lat="45.63519" lon="4.39021">
        <ele>611.3</ele>
        <time>2017-03-19T07:37:36Z</time>
      </trkpt>
      <trkpt lat="45.63519" lon="4.39029">
        <ele>611.2</ele>
        <time>2017-03-19T07:37:37Z</time>
      </trkpt>
      <trkpt lat="45.63518" lon="4.39038">
        <ele>611.1</ele>
        <time>2017-03-19T07:37:38Z</time>
      </trkpt>
      <trkpt lat="45.63517" lon="4.39047">
        <ele>611</ele>
        <time>2017-03-19T07:37:39Z</time>
      </trkpt>
      <trkpt lat="45.63516" lon="4.39055">
        <ele>610.9</ele>
        <time>2017-03-19T07:37:40Z</time>
      </trkpt>
      <trkpt lat="45.63516" lon="4.39064">
        <ele>610.8</ele>
        <time>2017-03-19T07:37:41Z</time>
      </trkpt>
      <trkpt lat="45.63516" lon="4.39073">
        <ele>610.7</ele>
        <time>2017-03-19T07:37:42Z</time>
      </trkpt>
      <trkpt lat="45.63514" lon="4.39082">
        <ele>610.6</ele>
        <time>2017-03-19T07:37:43Z</time>
      </trkpt>
      <trkpt lat="45.63513" lon="4.3909">
        <ele>610.6</ele>
        <time>2017-03-19T07:37:44Z</time>
      </trkpt>
      <trkpt lat="45.63513" lon="4.39099">
        <ele>610.5</ele>
        <time>2017-03-19T07:37:45Z</time>
      </trkpt>
      <trkpt lat="45.63513" lon="4.39109">
        <ele>610.4</ele>
        <time>2017-03-19T07:37:46Z</time>
      </trkpt>
      <trkpt lat="45.63512" lon="4.39119">
        <ele>610.2</ele>
        <time>2017-03-19T07:37:47Z</time>
      </trkpt>
      <trkpt lat="45.63512" lon="4.39129">
        <ele>610.1</ele>
        <time>2017-03-19T07:37:48Z</time>
      </trkpt>
      <trkpt lat="45.63511" lon="4.39137">
        <ele>610</ele>
        <time>2017-03-19T07:37:49Z</time>
      </trkpt>
      <trkpt lat="45.63509" lon="4.39145">
        <ele>609.8</ele>
        <time>2017-03-19T07:37:50Z</time>
      </trkpt>
      <trkpt lat="45.63508" lon="4.39151">
        <ele>609.4</ele>
        <time>2017-03-19T07:37:51Z</time>
      </trkpt>
      <trkpt lat="45.63507" lon="4.3916">
        <ele>608.9</ele>
        <time>2017-03-19T07:37:52Z</time>
      </trkpt>
      <trkpt lat="45.63506" lon="4.39169">
        <ele>608.4</ele>
        <time>2017-03-19T07:37:53Z</time>
      </trkpt>
      <trkpt lat="45.63505" lon="4.39179">
        <ele>607.7</ele>
        <time>2017-03-19T07:37:54Z</time>
      </trkpt>
      <trkpt lat="45.63505" lon="4.3919">
        <ele>607.2</ele>
        <time>2017-03-19T07:37:55Z</time>
      </trkpt>
      <trkpt lat="45.63503" lon="4.39198">
        <ele>606.6</ele>
        <time>2017-03-19T07:37:56Z</time>
      </trkpt>
      <trkpt lat="45.63501" lon="4.39208">
        <ele>606</ele>
        <time>2017-03-19T07:37:57Z</time>
      </trkpt>
      <trkpt lat="45.635" lon="4.39216">
        <ele>605.4</ele>
        <time>2017-03-19T07:37:58Z</time>
      </trkpt>
      <trkpt lat="45.63498" lon="4.39224">
        <ele>604.9</ele>
        <time>2017-03-19T07:37:59Z</time>
      </trkpt>
      <trkpt lat="45.63497" lon="4.39231">
        <ele>604.4</ele>
        <time>2017-03-19T07:38:00Z</time>
      </trkpt>
      <trkpt lat="45.63496" lon="4.39239">
        <ele>603.9</ele>
        <time>2017-03-19T07:38:01Z</time>
      </trkpt>
      <trkpt lat="45.63496" lon="4.39247">
        <ele>603.3</ele>
        <time>2017-03-19T07:38:02Z</time>
      </trkpt>
      <trkpt lat="45.63495" lon="4.39256">
        <ele>603.1</ele>
        <time>2017-03-19T07:38:03Z</time>
      </trkpt>
      <trkpt lat="45.63495" lon="4.39264">
        <ele>603.3</ele>
        <time>2017-03-19T07:38:04Z</time>
      </trkpt>
      <trkpt lat="45.63494" lon="4.39272">
        <ele>603.6</ele>
        <time>2017-03-19T07:38:05Z</time>
      </trkpt>
      <trkpt lat="45.63493" lon="4.39281">
        <ele>603.8</ele>
        <time>2017-03-19T07:38:06Z</time>
      </trkpt>
      <trkpt lat="45.63492" lon="4.39289">
        <ele>604.2</ele>
        <time>2017-03-19T07:38:07Z</time>
      </trkpt>
      <trkpt lat="45.6349" lon="4.39297">
        <ele>604.6</ele>
        <time>2017-03-19T07:38:08Z</time>
      </trkpt>
      <trkpt lat="45.63489" lon="4.39305">
        <ele>604.9</ele>
        <time>2017-03-19T07:38:09Z</time>
      </trkpt>
      <trkpt lat="45.63487" lon="4.39313">
        <ele>605.1</ele>
        <time>2017-03-19T07:38:10Z</time>
      </trkpt>
      <trkpt lat="45.63486" lon="4.39321">
        <ele>605.4</ele>
        <time>2017-03-19T07:38:11Z</time>
      </trkpt>
      <trkpt lat="45.63484" lon="4.39329">
        <ele>605.7</ele>
        <time>2017-03-19T07:38:12Z</time>
      </trkpt>
      <trkpt lat="45.63483" lon="4.39337">
        <ele>605.9</ele>
        <time>2017-03-19T07:38:13Z</time>
      </trkpt>
      <trkpt lat="45.63481" lon="4.39345">
        <ele>606.2</ele>
        <time>2017-03-19T07:38:14Z</time>
      </trkpt>
      <trkpt lat="45.63481" lon="4.39353">
        <ele>606.4</ele>
        <time>2017-03-19T07:38:15Z</time>
      </trkpt>
      <trkpt lat="45.6348" lon="4.3936">
        <ele>606.6</ele>
        <time>2017-03-19T07:38:16Z</time>
      </trkpt>
      <trkpt lat="45.63479" lon="4.39367">
        <ele>606.8</ele>
        <time>2017-03-19T07:38:17Z</time>
      </trkpt>
      <trkpt lat="45.63478" lon="4.39376">
        <ele>607.1</ele>
        <time>2017-03-19T07:38:18Z</time>
      </trkpt>
      <trkpt lat="45.63476" lon="4.39384">
        <ele>607.3</ele>
        <time>2017-03-19T07:38:19Z</time>
      </trkpt>
      <trkpt lat="45.63475" lon="4.39392">
        <ele>607.6</ele>
        <time>2017-03-19T07:38:20Z</time>
      </trkpt>
      <trkpt lat="45.63474" lon="4.394">
        <ele>607.8</ele>
        <time>2017-03-19T07:38:21Z</time>
      </trkpt>
      <trkpt lat="45.63473" lon="4.39407">
        <ele>608</ele>
        <time>2017-03-19T07:38:22Z</time>
      </trkpt>
      <trkpt lat="45.63472" lon="4.39415">
        <ele>608.2</ele>
        <time>2017-03-19T07:38:23Z</time>
      </trkpt>
      <trkpt lat="45.6347" lon="4.39422">
        <ele>608.4</ele>
        <time>2017-03-19T07:38:24Z</time>
      </trkpt>
      <trkpt lat="45.63469" lon="4.39429">
        <ele>608.5</ele>
        <time>2017-03-19T07:38:25Z</time>
      </trkpt>
      <trkpt lat="45.63467" lon="4.39436">
        <ele>608.7</ele>
        <time>2017-03-19T07:38:26Z</time>
      </trkpt>
      <trkpt lat="45.63465" lon="4.39442">
        <ele>608.9</ele>
        <time>2017-03-19T07:38:27Z</time>
      </trkpt>
      <trkpt lat="45.63464" lon="4.39447">
        <ele>609</ele>
        <time>2017-03-19T07:38:28Z</time>
      </trkpt>
      <trkpt lat="45.63461" lon="4.39453">
        <ele>609.1</ele>
        <time>2017-03-19T07:38:29Z</time>
      </trkpt>
      <trkpt lat="45.6346" lon="4.39458">
        <ele>609.2</ele>
        <time>2017-03-19T07:38:30Z</time>
      </trkpt>
      <trkpt lat="45.63459" lon="4.39465">
        <ele>609.3</ele>
        <time>2017-03-19T07:38:31Z</time>
      </trkpt>
      <trkpt lat="45.63459" lon="4.39471">
        <ele>609.3</ele>
        <time>2017-03-19T07:38:32Z</time>
      </trkpt>
      <trkpt lat="45.63457" lon="4.39477">
        <ele>609.4</ele>
        <time>2017-03-19T07:38:33Z</time>
      </trkpt>
      <trkpt lat="45.63456" lon="4.39484">
        <ele>609.5</ele>
        <time>2017-03-19T07:38:34Z</time>
      </trkpt>
      <trkpt lat="45.63455" lon="4.3949">
        <ele>609.6</ele>
        <time>2017-03-19T07:38:35Z</time>
      </trkpt>
      <trkpt lat="45.63454" lon="4.39496">
        <ele>609.7</ele>
        <time>2017-03-19T07:38:36Z</time>
      </trkpt>
      <trkpt lat="45.63453" lon="4.39502">
        <ele>609.7</ele>
        <time>2017-03-19T07:38:37Z</time>
      </trkpt>
      <trkpt lat="45.63452" lon="4.39509">
        <ele>609.8</ele>
        <time>2017-03-19T07:38:38Z</time>
      </trkpt>
      <trkpt lat="45.63451" lon="4.39515">
        <ele>609.8</ele>
        <time>2017-03-19T07:38:39Z</time>
      </trkpt>
      <trkpt lat="45.63451" lon="4.39522">
        <ele>609.8</ele>
        <time>2017-03-19T07:38:40Z</time>
      </trkpt>
      <trkpt lat="45.6345" lon="4.39528">
        <ele>609.9</ele>
        <time>2017-03-19T07:38:41Z</time>
      </trkpt>
      <trkpt lat="45.63448" lon="4.39535">
        <ele>609.9</ele>
        <time>2017-03-19T07:38:42Z</time>
      </trkpt>
      <trkpt lat="45.63448" lon="4.39541">
        <ele>610</ele>
        <time>2017-03-19T07:38:43Z</time>
      </trkpt>
      <trkpt lat="45.63448" lon="4.39547">
        <ele>610</ele>
        <time>2017-03-19T07:38:44Z</time>
      </trkpt>
      <trkpt lat="45.63448" lon="4.39553">
        <ele>610.1</ele>
        <time>2017-03-19T07:38:45Z</time>
      </trkpt>
      <trkpt lat="45.63448" lon="4.3956">
        <ele>610.1</ele>
        <time>2017-03-19T07:38:46Z</time>
      </trkpt>
      <trkpt lat="45.63448" lon="4.39567">
        <ele>610.2</ele>
        <time>2017-03-19T07:38:47Z</time>
      </trkpt>
      <trkpt lat="45.63448" lon="4.39574">
        <ele>610.2</ele>
        <time>2017-03-19T07:38:48Z</time>
      </trkpt>
      <trkpt lat="45.63448" lon="4.3958">
        <ele>610.2</ele>
        <time>2017-03-19T07:38:49Z</time>
      </trkpt>
      <trkpt lat="45.63447" lon="4.39586">
        <ele>610.3</ele>
        <time>2017-03-19T07:38:50Z</time>
      </trkpt>
      <trkpt lat="45.63448" lon="4.39592">
        <ele>610.3</ele>
        <time>2017-03-19T07:38:51Z</time>
      </trkpt>
      <trkpt lat="45.63449" lon="4.39598">
        <ele>610.4</ele>
        <time>2017-03-19T07:38:52Z</time>
      </trkpt>
      <trkpt lat="45.63449" lon="4.39603">
        <ele>610.4</ele>
        <time>2017-03-19T07:38:53Z</time>
      </trkpt>
      <trkpt lat="45.63448" lon="4.39609">
        <ele>610.5</ele>
        <time>2017-03-19T07:38:54Z</time>
      </trkpt>
      <trkpt lat="45.63448" lon="4.39614">
        <ele>610.6</ele>
        <time>2017-03-19T07:38:55Z</time>
      </trkpt>
      <trkpt lat="45.63449" lon="4.3962">
        <ele>610.6</ele>
        <time>2017-03-19T07:38:56Z</time>
      </trkpt>
      <trkpt lat="45.63449" lon="4.39626">
        <ele>610.7</ele>
        <time>2017-03-19T07:38:57Z</time>
      </trkpt>
      <trkpt lat="45.63449" lon="4.39632">
        <ele>610.8</ele>
        <time>2017-03-19T07:38:58Z</time>
      </trkpt>
      <trkpt lat="45.63449" lon="4.39638">
        <ele>610.8</ele>
        <time>2017-03-19T07:38:59Z</time>
      </trkpt>
      <trkpt lat="45.63448" lon="4.39643">
        <ele>610.9</ele>
        <time>2017-03-19T07:39:00Z</time>
      </trkpt>
      <trkpt lat="45.63444" lon="4.39647">
        <ele>610.9</ele>
        <time>2017-03-19T07:39:01Z</time>
      </trkpt>
      <trkpt lat="45.63439" lon="4.3965">
        <ele>611</ele>
        <time>2017-03-19T07:39:02Z</time>
      </trkpt>
      <trkpt lat="45.63434" lon="4.39652">
        <ele>610.6</ele>
        <time>2017-03-19T07:39:03Z</time>
      </trkpt>
      <trkpt lat="45.63428" lon="4.39653">
        <ele>610.1</ele>
        <time>2017-03-19T07:39:04Z</time>
      </trkpt>
      <trkpt lat="45.63422" lon="4.39655">
        <ele>609.4</ele>
        <time>2017-03-19T07:39:05Z</time>
      </trkpt>
      <trkpt lat="45.63417" lon="4.39658">
        <ele>608.8</ele>
        <time>2017-03-19T07:39:06Z</time>
      </trkpt>
      <trkpt lat="45.63409" lon="4.3966">
        <ele>608.1</ele>
        <time>2017-03-19T07:39:07Z</time>
      </trkpt>
      <trkpt lat="45.63402" lon="4.39663">
        <ele>607.3</ele>
        <time>2017-03-19T07:39:08Z</time>
      </trkpt>
      <trkpt lat="45.63395" lon="4.39664">
        <ele>606.2</ele>
        <time>2017-03-19T07:39:09Z</time>
      </trkpt>
      <trkpt lat="45.63388" lon="4.39665">
        <ele>605.4</ele>
        <time>2017-03-19T07:39:10Z</time>
      </trkpt>
      <trkpt lat="45.6338" lon="4.39666">
        <ele>605</ele>
        <time>2017-03-19T07:39:11Z</time>
      </trkpt>
      <trkpt lat="45.63373" lon="4.39668">
        <ele>604.7</ele>
        <time>2017-03-19T07:39:12Z</time>
      </trkpt>
      <trkpt lat="45.63364" lon="4.39669">
        <ele>603.7</ele>
        <time>2017-03-19T07:39:13Z</time>
      </trkpt>
      <trkpt lat="45.63356" lon="4.39669">
        <ele>602.5</ele>
        <time>2017-03-19T07:39:14Z</time>
      </trkpt>
      <trkpt lat="45.63347" lon="4.39671">
        <ele>601.1</ele>
        <time>2017-03-19T07:39:15Z</time>
      </trkpt>
      <trkpt lat="45.63338" lon="4.3967">
        <ele>599.4</ele>
        <time>2017-03-19T07:39:16Z</time>
      </trkpt>
      <trkpt lat="45.63327" lon="4.39671">
        <ele>598.2</ele>
        <time>2017-03-19T07:39:17Z</time>
      </trkpt>
      <trkpt lat="45.63318" lon="4.39673">
        <ele>596.9</ele>
        <time>2017-03-19T07:39:18Z</time>
      </trkpt>
      <trkpt lat="45.63307" lon="4.39675">
        <ele>595.8</ele>
        <time>2017-03-19T07:39:19Z</time>
      </trkpt>
      <trkpt lat="45.63297" lon="4.39678">
        <ele>595</ele>
        <time>2017-03-19T07:39:20Z</time>
      </trkpt>
      <trkpt lat="45.63287" lon="4.39683">
        <ele>594.7</ele>
        <time>2017-03-19T07:39:21Z</time>
      </trkpt>
      <trkpt lat="45.63278" lon="4.39689">
        <ele>594</ele>
        <time>2017-03-19T07:39:22Z</time>
      </trkpt>
      <trkpt lat="45.63268" lon="4.39697">
        <ele>592.8</ele>
        <time>2017-03-19T07:39:23Z</time>
      </trkpt>
      <trkpt lat="45.63259" lon="4.39705">
        <ele>591.7</ele>
        <time>2017-03-19T07:39:24Z</time>
      </trkpt>
      <trkpt lat="45.63249" lon="4.3971">
        <ele>590.8</ele>
        <time>2017-03-19T07:39:25Z</time>
      </trkpt>
      <trkpt lat="45.63239" lon="4.39713">
        <ele>590.2</ele>
        <time>2017-03-19T07:39:26Z</time>
      </trkpt>
      <trkpt lat="45.63228" lon="4.39714">
        <ele>589.2</ele>
        <time>2017-03-19T07:39:27Z</time>
      </trkpt>
      <trkpt lat="45.63216" lon="4.39714">
        <ele>587.5</ele>
        <time>2017-03-19T07:39:28Z</time>
      </trkpt>
      <trkpt lat="45.63204" lon="4.39715">
        <ele>585</ele>
        <time>2017-03-19T07:39:29Z</time>
      </trkpt>
      <trkpt lat="45.63192" lon="4.39716">
        <ele>584.3</ele>
        <time>2017-03-19T07:39:30Z</time>
      </trkpt>
      <trkpt lat="45.6318" lon="4.39717">
        <ele>582.6</ele>
        <time>2017-03-19T07:39:31Z</time>
      </trkpt>
      <trkpt lat="45.63169" lon="4.3972">
        <ele>581.1</ele>
        <time>2017-03-19T07:39:32Z</time>
      </trkpt>
      <trkpt lat="45.63159" lon="4.39724">
        <ele>580.2</ele>
        <time>2017-03-19T07:39:33Z</time>
      </trkpt>
      <trkpt lat="45.6315" lon="4.39733">
        <ele>579.2</ele>
        <time>2017-03-19T07:39:34Z</time>
      </trkpt>
      <trkpt lat="45.63144" lon="4.39744">
        <ele>577.9</ele>
        <time>2017-03-19T07:39:35Z</time>
      </trkpt>
      <trkpt lat="45.63139" lon="4.39756">
        <ele>577.2</ele>
        <time>2017-03-19T07:39:36Z</time>
      </trkpt>
      <trkpt lat="45.63135" lon="4.39769">
        <ele>577.2</ele>
        <time>2017-03-19T07:39:37Z</time>
      </trkpt>
      <trkpt lat="45.6313" lon="4.39781">
        <ele>577.1</ele>
        <time>2017-03-19T07:39:38Z</time>
      </trkpt>
      <trkpt lat="45.63125" lon="4.39793">
        <ele>576.5</ele>
        <time>2017-03-19T07:39:39Z</time>
      </trkpt>
      <trkpt lat="45.63119" lon="4.39805">
        <ele>574.7</ele>
        <time>2017-03-19T07:39:40Z</time>
      </trkpt>
      <trkpt lat="45.63111" lon="4.39816">
        <ele>573.3</ele>
        <time>2017-03-19T07:39:41Z</time>
      </trkpt>
      <trkpt lat="45.63102" lon="4.39825">
        <ele>572.2</ele>
        <time>2017-03-19T07:39:42Z</time>
      </trkpt>
      <trkpt lat="45.63095" lon="4.39835">
        <ele>570.3</ele>
        <time>2017-03-19T07:39:43Z</time>
      </trkpt>
      <trkpt lat="45.63087" lon="4.39845">
        <ele>568.8</ele>
        <time>2017-03-19T07:39:44Z</time>
      </trkpt>
      <trkpt lat="45.63079" lon="4.39855">
        <ele>567.3</ele>
        <time>2017-03-19T07:39:45Z</time>
      </trkpt>
      <trkpt lat="45.63071" lon="4.39864">
        <ele>565.9</ele>
        <time>2017-03-19T07:39:46Z</time>
      </trkpt>
      <trkpt lat="45.63063" lon="4.39876">
        <ele>564.7</ele>
        <time>2017-03-19T07:39:47Z</time>
      </trkpt>
      <trkpt lat="45.63054" lon="4.39885">
        <ele>564.3</ele>
        <time>2017-03-19T07:39:48Z</time>
      </trkpt>
      <trkpt lat="45.63047" lon="4.39895">
        <ele>564</ele>
        <time>2017-03-19T07:39:49Z</time>
      </trkpt>
      <trkpt lat="45.63039" lon="4.39906">
        <ele>563.7</ele>
        <time>2017-03-19T07:39:50Z</time>
      </trkpt>
      <trkpt lat="45.63031" lon="4.39917">
        <ele>563.5</ele>
        <time>2017-03-19T07:39:51Z</time>
      </trkpt>
      <trkpt lat="45.63023" lon="4.39927">
        <ele>563.1</ele>
        <time>2017-03-19T07:39:52Z</time>
      </trkpt>
      <trkpt lat="45.63015" lon="4.39936">
        <ele>562.9</ele>
        <time>2017-03-19T07:39:53Z</time>
      </trkpt>
      <trkpt lat="45.63008" lon="4.39945">
        <ele>562.8</ele>
        <time>2017-03-19T07:39:54Z</time>
      </trkpt>
      <trkpt lat="45.63" lon="4.39953">
        <ele>562.5</ele>
        <time>2017-03-19T07:39:55Z</time>
      </trkpt>
      <trkpt lat="45.62993" lon="4.3996">
        <ele>562</ele>
        <time>2017-03-19T07:39:56Z</time>
      </trkpt>
      <trkpt lat="45.62987" lon="4.39968">
        <ele>561.2</ele>
        <time>2017-03-19T07:39:57Z</time>
      </trkpt>
      <trkpt lat="45.62981" lon="4.39977">
        <ele>560.4</ele>
        <time>2017-03-19T07:39:58Z</time>
      </trkpt>
      <trkpt lat="45.62974" lon="4.39986">
        <ele>559.8</ele>
        <time>2017-03-19T07:39:59Z</time>
      </trkpt>
      <trkpt lat="45.62967" lon="4.39993">
        <ele>559.5</ele>
        <time>2017-03-19T07:40:00Z</time>
      </trkpt>
      <trkpt lat="45.62959" lon="4.40001">
        <ele>558.8</ele>
        <time>2017-03-19T07:40:01Z</time>
      </trkpt>
      <trkpt lat="45.62953" lon="4.40007">
        <ele>558.1</ele>
        <time>2017-03-19T07:40:02Z</time>
      </trkpt>
      <trkpt lat="45.62947" lon="4.40014">
        <ele>557.3</ele>
        <time>2017-03-19T07:40:03Z</time>
      </trkpt>
      <trkpt lat="45.6294" lon="4.40022">
        <ele>556.5</ele>
        <time>2017-03-19T07:40:04Z</time>
      </trkpt>
      <trkpt lat="45.62933" lon="4.40028">
        <ele>556</ele>
        <time>2017-03-19T07:40:05Z</time>
      </trkpt>
      <trkpt lat="45.62928" lon="4.40035">
        <ele>556</ele>
        <time>2017-03-19T07:40:06Z</time>
      </trkpt>
      <trkpt lat="45.62924" lon="4.40041">
        <ele>555.4</ele>
        <time>2017-03-19T07:40:07Z</time>
      </trkpt>
      <trkpt lat="45.62919" lon="4.40047">
        <ele>554.9</ele>
        <time>2017-03-19T07:40:08Z</time>
      </trkpt>
      <trkpt lat="45.62914" lon="4.40051">
        <ele>554.6</ele>
        <time>2017-03-19T07:40:09Z</time>
      </trkpt>
      <trkpt lat="45.6291" lon="4.40057">
        <ele>554.3</ele>
        <time>2017-03-19T07:40:10Z</time>
      </trkpt>
      <trkpt lat="45.62905" lon="4.40063">
        <ele>553.9</ele>
        <time>2017-03-19T07:40:11Z</time>
      </trkpt>
      <trkpt lat="45.629" lon="4.40068">
        <ele>553.6</ele>
        <time>2017-03-19T07:40:12Z</time>
      </trkpt>
      <trkpt lat="45.62896" lon="4.40072">
        <ele>552.9</ele>
        <time>2017-03-19T07:40:13Z</time>
      </trkpt>
      <trkpt lat="45.62891" lon="4.40076">
        <ele>552.1</ele>
        <time>2017-03-19T07:40:14Z</time>
      </trkpt>
      <trkpt lat="45.62887" lon="4.40081">
        <ele>551.3</ele>
        <time>2017-03-19T07:40:15Z</time>
      </trkpt>
      <trkpt lat="45.62883" lon="4.40085">
        <ele>550.8</ele>
        <time>2017-03-19T07:40:16Z</time>
      </trkpt>
      <trkpt lat="45.62877" lon="4.4009">
        <ele>550.1</ele>
        <time>2017-03-19T07:40:17Z</time>
      </trkpt>
      <trkpt lat="45.62873" lon="4.40093">
        <ele>549.6</ele>
        <time>2017-03-19T07:40:18Z</time>
      </trkpt>
      <trkpt lat="45.6287" lon="4.40095">
        <ele>549.3</ele>
        <time>2017-03-19T07:40:19Z</time>
      </trkpt>
      <trkpt lat="45.62868" lon="4.40097">
        <ele>549.2</ele>
        <time>2017-03-19T07:40:20Z</time>
      </trkpt>
      <trkpt lat="45.62863" lon="4.40099">
        <ele>548.9</ele>
        <time>2017-03-19T07:40:22Z</time>
      </trkpt>
      <trkpt lat="45.62859" lon="4.40101">
        <ele>548.7</ele>
        <time>2017-03-19T07:40:24Z</time>
      </trkpt>
      <trkpt lat="45.62856" lon="4.40102">
        <ele>548.6</ele>
        <time>2017-03-19T07:40:26Z</time>
      </trkpt>
      <trkpt lat="45.62853" lon="4.40105">
        <ele>548.4</ele>
        <time>2017-03-19T07:40:28Z</time>
      </trkpt>
      <trkpt lat="45.62848" lon="4.40107">
        <ele>548.2</ele>
        <time>2017-03-19T07:40:30Z</time>
      </trkpt>
      <trkpt lat="45.62845" lon="4.4011">
        <ele>548.1</ele>
        <time>2017-03-19T07:40:32Z</time>
      </trkpt>
      <trkpt lat="45.62841" lon="4.40111">
        <ele>548</ele>
        <time>2017-03-19T07:40:34Z</time>
      </trkpt>
      <trkpt lat="45.62838" lon="4.40113">
        <ele>547.9</ele>
        <time>2017-03-19T07:40:36Z</time>
      </trkpt>
      <trkpt lat="45.62835" lon="4.40114">
        <ele>547.9</ele>
        <time>2017-03-19T07:40:38Z</time>
      </trkpt>
      <trkpt lat="45.62831" lon="4.40116">
        <ele>547.7</ele>
        <time>2017-03-19T07:40:40Z</time>
      </trkpt>
      <trkpt lat="45.62826" lon="4.40118">
        <ele>547.5</ele>
        <time>2017-03-19T07:40:42Z</time>
      </trkpt>
      <trkpt lat="45.62823" lon="4.4012">
        <ele>547.3</ele>
        <time>2017-03-19T07:40:43Z</time>
      </trkpt>
      <trkpt lat="45.6282" lon="4.40123">
        <ele>547</ele>
        <time>2017-03-19T07:40:44Z</time>
      </trkpt>
      <trkpt lat="45.62817" lon="4.40127">
        <ele>547</ele>
        <time>2017-03-19T07:40:45Z</time>
      </trkpt>
      <trkpt lat="45.62815" lon="4.40131">
        <ele>546.9</ele>
        <time>2017-03-19T07:40:46Z</time>
      </trkpt>
      <trkpt lat="45.62814" lon="4.40135">
        <ele>546.9</ele>
        <time>2017-03-19T07:40:47Z</time>
      </trkpt>
      <trkpt lat="45.62812" lon="4.4014">
        <ele>546.8</ele>
        <time>2017-03-19T07:40:48Z</time>
      </trkpt>
      <trkpt lat="45.62811" lon="4.40144">
        <ele>546.7</ele>
        <time>2017-03-19T07:40:49Z</time>
      </trkpt>
      <trkpt lat="45.62809" lon="4.40149">
        <ele>546.6</ele>
        <time>2017-03-19T07:40:50Z</time>
      </trkpt>
      <trkpt lat="45.62808" lon="4.40154">
        <ele>546.3</ele>
        <time>2017-03-19T07:40:51Z</time>
      </trkpt>
      <trkpt lat="45.62806" lon="4.40159">
        <ele>546.1</ele>
        <time>2017-03-19T07:40:52Z</time>
      </trkpt>
      <trkpt lat="45.62805" lon="4.40164">
        <ele>545.9</ele>
        <time>2017-03-19T07:40:53Z</time>
      </trkpt>
      <trkpt lat="45.62803" lon="4.40169">
        <ele>545.6</ele>
        <time>2017-03-19T07:40:54Z</time>
      </trkpt>
      <trkpt lat="45.628" lon="4.40174">
        <ele>545.3</ele>
        <time>2017-03-19T07:40:55Z</time>
      </trkpt>
      <trkpt lat="45.62798" lon="4.4018">
        <ele>545</ele>
        <time>2017-03-19T07:40:56Z</time>
      </trkpt>
      <trkpt lat="45.62796" lon="4.40185">
        <ele>544.7</ele>
        <time>2017-03-19T07:40:57Z</time>
      </trkpt>
      <trkpt lat="45.62792" lon="4.4019">
        <ele>544.2</ele>
        <time>2017-03-19T07:40:58Z</time>
      </trkpt>
      <trkpt lat="45.6279" lon="4.40197">
        <ele>543.8</ele>
        <time>2017-03-19T07:40:59Z</time>
      </trkpt>
      <trkpt lat="45.62789" lon="4.40204">
        <ele>543.3</ele>
        <time>2017-03-19T07:41:00Z</time>
      </trkpt>
      <trkpt lat="45.62786" lon="4.40211">
        <ele>542.8</ele>
        <time>2017-03-19T07:41:01Z</time>
      </trkpt>
      <trkpt lat="45.62784" lon="4.40219">
        <ele>542.4</ele>
        <time>2017-03-19T07:41:02Z</time>
      </trkpt>
      <trkpt lat="45.62782" lon="4.40225">
        <ele>542.1</ele>
        <time>2017-03-19T07:41:03Z</time>
      </trkpt>
      <trkpt lat="45.62782" lon="4.40232">
        <ele>541.8</ele>
        <time>2017-03-19T07:41:04Z</time>
      </trkpt>
      <trkpt lat="45.62781" lon="4.40238">
        <ele>541.5</ele>
        <time>2017-03-19T07:41:05Z</time>
      </trkpt>
      <trkpt lat="45.62778" lon="4.40244">
        <ele>541.2</ele>
        <time>2017-03-19T07:41:06Z</time>
      </trkpt>
      <trkpt lat="45.62775" lon="4.40251">
        <ele>540.7</ele>
        <time>2017-03-19T07:41:07Z</time>
      </trkpt>
      <trkpt lat="45.62772" lon="4.40257">
        <ele>540.3</ele>
        <time>2017-03-19T07:41:08Z</time>
      </trkpt>
      <trkpt lat="45.62771" lon="4.40264">
        <ele>540</ele>
        <time>2017-03-19T07:41:09Z</time>
      </trkpt>
      <trkpt lat="45.62767" lon="4.4027">
        <ele>539.9</ele>
        <time>2017-03-19T07:41:10Z</time>
      </trkpt>
      <trkpt lat="45.62765" lon="4.40277">
        <ele>539.9</ele>
        <time>2017-03-19T07:41:11Z</time>
      </trkpt>
      <trkpt lat="45.62762" lon="4.40283">
        <ele>540</ele>
        <time>2017-03-19T07:41:12Z</time>
      </trkpt>
      <trkpt lat="45.62761" lon="4.40289">
        <ele>540.1</ele>
        <time>2017-03-19T07:41:13Z</time>
      </trkpt>
      <trkpt lat="45.62758" lon="4.40295">
        <ele>540.3</ele>
        <time>2017-03-19T07:41:14Z</time>
      </trkpt>
      <trkpt lat="45.62756" lon="4.40301">
        <ele>540.5</ele>
        <time>2017-03-19T07:41:15Z</time>
      </trkpt>
      <trkpt lat="45.62755" lon="4.40307">
        <ele>540.7</ele>
        <time>2017-03-19T07:41:16Z</time>
      </trkpt>
      <trkpt lat="45.62753" lon="4.40313">
        <ele>540.7</ele>
        <time>2017-03-19T07:41:17Z</time>
      </trkpt>
      <trkpt lat="45.62751" lon="4.40319">
        <ele>540.7</ele>
        <time>2017-03-19T07:41:18Z</time>
      </trkpt>
      <trkpt lat="45.62749" lon="4.40324">
        <ele>540.5</ele>
        <time>2017-03-19T07:41:19Z</time>
      </trkpt>
      <trkpt lat="45.62748" lon="4.4033">
        <ele>540.1</ele>
        <time>2017-03-19T07:41:20Z</time>
      </trkpt>
      <trkpt lat="45.62746" lon="4.40336">
        <ele>539.8</ele>
        <time>2017-03-19T07:41:21Z</time>
      </trkpt>
      <trkpt lat="45.62745" lon="4.40342">
        <ele>539.3</ele>
        <time>2017-03-19T07:41:22Z</time>
      </trkpt>
      <trkpt lat="45.62743" lon="4.40348">
        <ele>538.8</ele>
        <time>2017-03-19T07:41:23Z</time>
      </trkpt>
      <trkpt lat="45.62742" lon="4.40353">
        <ele>538.3</ele>
        <time>2017-03-19T07:41:24Z</time>
      </trkpt>
      <trkpt lat="45.6274" lon="4.40359">
        <ele>537.9</ele>
        <time>2017-03-19T07:41:25Z</time>
      </trkpt>
      <trkpt lat="45.62739" lon="4.40365">
        <ele>537.6</ele>
        <time>2017-03-19T07:41:26Z</time>
      </trkpt>
      <trkpt lat="45.62737" lon="4.40371">
        <ele>537.2</ele>
        <time>2017-03-19T07:41:27Z</time>
      </trkpt>
      <trkpt lat="45.62736" lon="4.40376">
        <ele>536.7</ele>
        <time>2017-03-19T07:41:28Z</time>
      </trkpt>
      <trkpt lat="45.62734" lon="4.40381">
        <ele>536.5</ele>
        <time>2017-03-19T07:41:29Z</time>
      </trkpt>
      <trkpt lat="45.62734" lon="4.40387">
        <ele>536.3</ele>
        <time>2017-03-19T07:41:30Z</time>
      </trkpt>
      <trkpt lat="45.62733" lon="4.40392">
        <ele>536.2</ele>
        <time>2017-03-19T07:41:31Z</time>
      </trkpt>
      <trkpt lat="45.62732" lon="4.40398">
        <ele>536.1</ele>
        <time>2017-03-19T07:41:32Z</time>
      </trkpt>
      <trkpt lat="45.62731" lon="4.40403">
        <ele>536.1</ele>
        <time>2017-03-19T07:41:33Z</time>
      </trkpt>
      <trkpt lat="45.62729" lon="4.40408">
        <ele>536.1</ele>
        <time>2017-03-19T07:41:34Z</time>
      </trkpt>
      <trkpt lat="45.62728" lon="4.40414">
        <ele>536.2</ele>
        <time>2017-03-19T07:41:35Z</time>
      </trkpt>
      <trkpt lat="45.62727" lon="4.40419">
        <ele>536.3</ele>
        <time>2017-03-19T07:41:36Z</time>
      </trkpt>
      <trkpt lat="45.62726" lon="4.40425">
        <ele>536.5</ele>
        <time>2017-03-19T07:41:37Z</time>
      </trkpt>
      <trkpt lat="45.62725" lon="4.4043">
        <ele>536.8</ele>
        <time>2017-03-19T07:41:38Z</time>
      </trkpt>
      <trkpt lat="45.62724" lon="4.40436">
        <ele>537</ele>
        <time>2017-03-19T07:41:39Z</time>
      </trkpt>
      <trkpt lat="45.62723" lon="4.40442">
        <ele>537.1</ele>
        <time>2017-03-19T07:41:40Z</time>
      </trkpt>
      <trkpt lat="45.62722" lon="4.40447">
        <ele>537.2</ele>
        <time>2017-03-19T07:41:41Z</time>
      </trkpt>
      <trkpt lat="45.6272" lon="4.40453">
        <ele>537.3</ele>
        <time>2017-03-19T07:41:42Z</time>
      </trkpt>
      <trkpt lat="45.62719" lon="4.4046">
        <ele>537.2</ele>
        <time>2017-03-19T07:41:43Z</time>
      </trkpt>
      <trkpt lat="45.62718" lon="4.40467">
        <ele>537.1</ele>
        <time>2017-03-19T07:41:44Z</time>
      </trkpt>
      <trkpt lat="45.62715" lon="4.40474">
        <ele>537</ele>
        <time>2017-03-19T07:41:45Z</time>
      </trkpt>
      <trkpt lat="45.62714" lon="4.40481">
        <ele>536.8</ele>
        <time>2017-03-19T07:41:46Z</time>
      </trkpt>
      <trkpt lat="45.62711" lon="4.40488">
        <ele>536.5</ele>
        <time>2017-03-19T07:41:47Z</time>
      </trkpt>
      <trkpt lat="45.6271" lon="4.40496">
        <ele>535.9</ele>
        <time>2017-03-19T07:41:48Z</time>
      </trkpt>
      <trkpt lat="45.62709" lon="4.40505">
        <ele>535.4</ele>
        <time>2017-03-19T07:41:49Z</time>
      </trkpt>
      <trkpt lat="45.62708" lon="4.40514">
        <ele>534.7</ele>
        <time>2017-03-19T07:41:50Z</time>
      </trkpt>
      <trkpt lat="45.62707" lon="4.40524">
        <ele>534.2</ele>
        <time>2017-03-19T07:41:51Z</time>
      </trkpt>
      <trkpt lat="45.62706" lon="4.40534">
        <ele>533.6</ele>
        <time>2017-03-19T07:41:52Z</time>
      </trkpt>
      <trkpt lat="45.62705" lon="4.40544">
        <ele>533.2</ele>
        <time>2017-03-19T07:41:53Z</time>
      </trkpt>
      <trkpt lat="45.62706" lon="4.40554">
        <ele>533</ele>
        <time>2017-03-19T07:41:54Z</time>
      </trkpt>
      <trkpt lat="45.62708" lon="4.40563">
        <ele>533.1</ele>
        <time>2017-03-19T07:41:55Z</time>
      </trkpt>
      <trkpt lat="45.6271" lon="4.40573">
        <ele>533.4</ele>
        <time>2017-03-19T07:41:56Z</time>
      </trkpt>
      <trkpt lat="45.62711" lon="4.40582">
        <ele>533.6</ele>
        <time>2017-03-19T07:41:57Z</time>
      </trkpt>
      <trkpt lat="45.62711" lon="4.40591">
        <ele>533.9</ele>
        <time>2017-03-19T07:41:58Z</time>
      </trkpt>
      <trkpt lat="45.62711" lon="4.40597">
        <ele>534</ele>
        <time>2017-03-19T07:41:59Z</time>
      </trkpt>
      <trkpt lat="45.6271" lon="4.40603">
        <ele>534</ele>
        <time>2017-03-19T07:42:00Z</time>
      </trkpt>
      <trkpt lat="45.62708" lon="4.40608">
        <ele>534</ele>
        <time>2017-03-19T07:42:01Z</time>
      </trkpt>
      <trkpt lat="45.62705" lon="4.40615">
        <ele>534</ele>
        <time>2017-03-19T07:42:02Z</time>
      </trkpt>
      <trkpt lat="45.62702" lon="4.40619">
        <ele>534</ele>
        <time>2017-03-19T07:42:03Z</time>
      </trkpt>
      <trkpt lat="45.62699" lon="4.40623">
        <ele>534</ele>
        <time>2017-03-19T07:42:04Z</time>
      </trkpt>
      <trkpt lat="45.62698" lon="4.40626">
        <ele>534</ele>
        <time>2017-03-19T07:42:05Z</time>
      </trkpt>
      <trkpt lat="45.62695" lon="4.40629">
        <ele>534.2</ele>
        <time>2017-03-19T07:42:06Z</time>
      </trkpt>
      <trkpt lat="45.62692" lon="4.40632">
        <ele>534.3</ele>
        <time>2017-03-19T07:42:07Z</time>
      </trkpt>
      <trkpt lat="45.62689" lon="4.40636">
        <ele>534.5</ele>
        <time>2017-03-19T07:42:08Z</time>
      </trkpt>
      <trkpt lat="45.62686" lon="4.4064">
        <ele>534.8</ele>
        <time>2017-03-19T07:42:09Z</time>
      </trkpt>
      <trkpt lat="45.62683" lon="4.40643">
        <ele>535</ele>
        <time>2017-03-19T07:42:10Z</time>
      </trkpt>
      <trkpt lat="45.6268" lon="4.40647">
        <ele>535.1</ele>
        <time>2017-03-19T07:42:11Z</time>
      </trkpt>
      <trkpt lat="45.62677" lon="4.4065">
        <ele>535.3</ele>
        <time>2017-03-19T07:42:12Z</time>
      </trkpt>
      <trkpt lat="45.62674" lon="4.40654">
        <ele>535.7</ele>
        <time>2017-03-19T07:42:13Z</time>
      </trkpt>
      <trkpt lat="45.62671" lon="4.40657">
        <ele>536.1</ele>
        <time>2017-03-19T07:42:14Z</time>
      </trkpt>
      <trkpt lat="45.62669" lon="4.4066">
        <ele>536.5</ele>
        <time>2017-03-19T07:42:15Z</time>
      </trkpt>
      <trkpt lat="45.62666" lon="4.40663">
        <ele>537</ele>
        <time>2017-03-19T07:42:16Z</time>
      </trkpt>
      <trkpt lat="45.62664" lon="4.40666">
        <ele>537.5</ele>
        <time>2017-03-19T07:42:17Z</time>
      </trkpt>
      <trkpt lat="45.62662" lon="4.4067">
        <ele>538</ele>
        <time>2017-03-19T07:42:18Z</time>
      </trkpt>
      <trkpt lat="45.62659" lon="4.40674">
        <ele>538.5</ele>
        <time>2017-03-19T07:42:19Z</time>
      </trkpt>
      <trkpt lat="45.62658" lon="4.40677">
        <ele>538.9</ele>
        <time>2017-03-19T07:42:20Z</time>
      </trkpt>
      <trkpt lat="45.62656" lon="4.4068">
        <ele>539.4</ele>
        <time>2017-03-19T07:42:21Z</time>
      </trkpt>
      <trkpt lat="45.62654" lon="4.40684">
        <ele>540.1</ele>
        <time>2017-03-19T07:42:22Z</time>
      </trkpt>
      <trkpt lat="45.62651" lon="4.40689">
        <ele>540.7</ele>
        <time>2017-03-19T07:42:23Z</time>
      </trkpt>
      <trkpt lat="45.62649" lon="4.40692">
        <ele>541.3</ele>
        <time>2017-03-19T07:42:24Z</time>
      </trkpt>
      <trkpt lat="45.62646" lon="4.40695">
        <ele>541.9</ele>
        <time>2017-03-19T07:42:25Z</time>
      </trkpt>
      <trkpt lat="45.62644" lon="4.40698">
        <ele>542.3</ele>
        <time>2017-03-19T07:42:26Z</time>
      </trkpt>
      <trkpt lat="45.62642" lon="4.40701">
        <ele>542.7</ele>
        <time>2017-03-19T07:42:27Z</time>
      </trkpt>
      <trkpt lat="45.62639" lon="4.40705">
        <ele>543.1</ele>
        <time>2017-03-19T07:42:28Z</time>
      </trkpt>
      <trkpt lat="45.62637" lon="4.40708">
        <ele>543.4</ele>
        <time>2017-03-19T07:42:29Z</time>
      </trkpt>
      <trkpt lat="45.62634" lon="4.40712">
        <ele>543.8</ele>
        <time>2017-03-19T07:42:30Z</time>
      </trkpt>
      <trkpt lat="45.62632" lon="4.40716">
        <ele>544.2</ele>
        <time>2017-03-19T07:42:31Z</time>
      </trkpt>
      <trkpt lat="45.62629" lon="4.40722">
        <ele>544.9</ele>
        <time>2017-03-19T07:42:33Z</time>
      </trkpt>
      <trkpt lat="45.62627" lon="4.40725">
        <ele>544.8</ele>
        <time>2017-03-19T07:42:34Z</time>
      </trkpt>
      <trkpt lat="45.62625" lon="4.40729">
        <ele>544.8</ele>
        <time>2017-03-19T07:42:35Z</time>
      </trkpt>
      <trkpt lat="45.62623" lon="4.40733">
        <ele>544.7</ele>
        <time>2017-03-19T07:42:36Z</time>
      </trkpt>
      <trkpt lat="45.62621" lon="4.40736">
        <ele>544.8</ele>
        <time>2017-03-19T07:42:37Z</time>
      </trkpt>
      <trkpt lat="45.62619" lon="4.4074">
        <ele>544.8</ele>
        <time>2017-03-19T07:42:38Z</time>
      </trkpt>
      <trkpt lat="45.62618" lon="4.40744">
        <ele>544.7</ele>
        <time>2017-03-19T07:42:39Z</time>
      </trkpt>
      <trkpt lat="45.62616" lon="4.40748">
        <ele>544.6</ele>
        <time>2017-03-19T07:42:40Z</time>
      </trkpt>
      <trkpt lat="45.62616" lon="4.40752">
        <ele>544.5</ele>
        <time>2017-03-19T07:42:41Z</time>
      </trkpt>
      <trkpt lat="45.62614" lon="4.40756">
        <ele>544.3</ele>
        <time>2017-03-19T07:42:42Z</time>
      </trkpt>
      <trkpt lat="45.62613" lon="4.40761">
        <ele>544</ele>
        <time>2017-03-19T07:42:43Z</time>
      </trkpt>
      <trkpt lat="45.62611" lon="4.40765">
        <ele>543.7</ele>
        <time>2017-03-19T07:42:44Z</time>
      </trkpt>
      <trkpt lat="45.6261" lon="4.40769">
        <ele>543.5</ele>
        <time>2017-03-19T07:42:45Z</time>
      </trkpt>
      <trkpt lat="45.62609" lon="4.40774">
        <ele>543.2</ele>
        <time>2017-03-19T07:42:46Z</time>
      </trkpt>
      <trkpt lat="45.62607" lon="4.40779">
        <ele>543</ele>
        <time>2017-03-19T07:42:47Z</time>
      </trkpt>
      <trkpt lat="45.62606" lon="4.40784">
        <ele>542.9</ele>
        <time>2017-03-19T07:42:48Z</time>
      </trkpt>
      <trkpt lat="45.62604" lon="4.40789">
        <ele>542.9</ele>
        <time>2017-03-19T07:42:49Z</time>
      </trkpt>
      <trkpt lat="45.62603" lon="4.40793">
        <ele>543.1</ele>
        <time>2017-03-19T07:42:50Z</time>
      </trkpt>
      <trkpt lat="45.62602" lon="4.40798">
        <ele>543.2</ele>
        <time>2017-03-19T07:42:51Z</time>
      </trkpt>
      <trkpt lat="45.626" lon="4.40803">
        <ele>543.4</ele>
        <time>2017-03-19T07:42:52Z</time>
      </trkpt>
      <trkpt lat="45.626" lon="4.40807">
        <ele>543.5</ele>
        <time>2017-03-19T07:42:53Z</time>
      </trkpt>
      <trkpt lat="45.62599" lon="4.40812">
        <ele>543.7</ele>
        <time>2017-03-19T07:42:54Z</time>
      </trkpt>
      <trkpt lat="45.62598" lon="4.40817">
        <ele>544</ele>
        <time>2017-03-19T07:42:55Z</time>
      </trkpt>
      <trkpt lat="45.62596" lon="4.40822">
        <ele>544.2</ele>
        <time>2017-03-19T07:42:56Z</time>
      </trkpt>
      <trkpt lat="45.62595" lon="4.40827">
        <ele>544.4</ele>
        <time>2017-03-19T07:42:57Z</time>
      </trkpt>
      <trkpt lat="45.62594" lon="4.40833">
        <ele>544.5</ele>
        <time>2017-03-19T07:42:58Z</time>
      </trkpt>
      <trkpt lat="45.62592" lon="4.40839">
        <ele>544.6</ele>
        <time>2017-03-19T07:42:59Z</time>
      </trkpt>
      <trkpt lat="45.62591" lon="4.40844">
        <ele>544.7</ele>
        <time>2017-03-19T07:43:00Z</time>
      </trkpt>
      <trkpt lat="45.6259" lon="4.40849">
        <ele>544.7</ele>
        <time>2017-03-19T07:43:01Z</time>
      </trkpt>
      <trkpt lat="45.62589" lon="4.40854">
        <ele>544.6</ele>
        <time>2017-03-19T07:43:02Z</time>
      </trkpt>
      <trkpt lat="45.62587" lon="4.40859">
        <ele>544.5</ele>
        <time>2017-03-19T07:43:03Z</time>
      </trkpt>
      <trkpt lat="45.62585" lon="4.40864">
        <ele>544.5</ele>
        <time>2017-03-19T07:43:04Z</time>
      </trkpt>
      <trkpt lat="45.62584" lon="4.40868">
        <ele>544.5</ele>
        <time>2017-03-19T07:43:05Z</time>
      </trkpt>
      <trkpt lat="45.62582" lon="4.40872">
        <ele>544.6</ele>
        <time>2017-03-19T07:43:06Z</time>
      </trkpt>
      <trkpt lat="45.62581" lon="4.40877">
        <ele>544.7</ele>
        <time>2017-03-19T07:43:07Z</time>
      </trkpt>
      <trkpt lat="45.6258" lon="4.40883">
        <ele>544.8</ele>
        <time>2017-03-19T07:43:08Z</time>
      </trkpt>
      <trkpt lat="45.6258" lon="4.40888">
        <ele>545.1</ele>
        <time>2017-03-19T07:43:09Z</time>
      </trkpt>
      <trkpt lat="45.62579" lon="4.40893">
        <ele>545.3</ele>
        <time>2017-03-19T07:43:10Z</time>
      </trkpt>
      <trkpt lat="45.62578" lon="4.40898">
        <ele>545.6</ele>
        <time>2017-03-19T07:43:11Z</time>
      </trkpt>
      <trkpt lat="45.62577" lon="4.40902">
        <ele>546</ele>
        <time>2017-03-19T07:43:12Z</time>
      </trkpt>
      <trkpt lat="45.62576" lon="4.40906">
        <ele>546.3</ele>
        <time>2017-03-19T07:43:13Z</time>
      </trkpt>
      <trkpt lat="45.62575" lon="4.40909">
        <ele>546.5</ele>
        <time>2017-03-19T07:43:14Z</time>
      </trkpt>
      <trkpt lat="45.62573" lon="4.40913">
        <ele>546.8</ele>
        <time>2017-03-19T07:43:15Z</time>
      </trkpt>
      <trkpt lat="45.62572" lon="4.40917">
        <ele>547.1</ele>
        <time>2017-03-19T07:43:16Z</time>
      </trkpt>
      <trkpt lat="45.62571" lon="4.40921">
        <ele>547.3</ele>
        <time>2017-03-19T07:43:17Z</time>
      </trkpt>
      <trkpt lat="45.6257" lon="4.40925">
        <ele>547.5</ele>
        <time>2017-03-19T07:43:18Z</time>
      </trkpt>
      <trkpt lat="45.62569" lon="4.40932">
        <ele>548</ele>
        <time>2017-03-19T07:43:20Z</time>
      </trkpt>
      <trkpt lat="45.62569" lon="4.40939">
        <ele>548.5</ele>
        <time>2017-03-19T07:43:22Z</time>
      </trkpt>
      <trkpt lat="45.62568" lon="4.40943">
        <ele>548.8</ele>
        <time>2017-03-19T07:43:23Z</time>
      </trkpt>
      <trkpt lat="45.62567" lon="4.4095">
        <ele>549</ele>
        <time>2017-03-19T07:43:25Z</time>
      </trkpt>
      <trkpt lat="45.62566" lon="4.40956">
        <ele>549.6</ele>
        <time>2017-03-19T07:43:27Z</time>
      </trkpt>
      <trkpt lat="45.62563" lon="4.40962">
        <ele>549.8</ele>
        <time>2017-03-19T07:43:29Z</time>
      </trkpt>
      <trkpt lat="45.62561" lon="4.40966">
        <ele>550.1</ele>
        <time>2017-03-19T07:43:30Z</time>
      </trkpt>
      <trkpt lat="45.6256" lon="4.40969">
        <ele>550.3</ele>
        <time>2017-03-19T07:43:31Z</time>
      </trkpt>
      <trkpt lat="45.62557" lon="4.40976">
        <ele>550.5</ele>
        <time>2017-03-19T07:43:33Z</time>
      </trkpt>
      <trkpt lat="45.62555" lon="4.40981">
        <ele>550.7</ele>
        <time>2017-03-19T07:43:35Z</time>
      </trkpt>
      <trkpt lat="45.62553" lon="4.40988">
        <ele>551</ele>
        <time>2017-03-19T07:43:37Z</time>
      </trkpt>
      <trkpt lat="45.62551" lon="4.40994">
        <ele>551.1</ele>
        <time>2017-03-19T07:43:39Z</time>
      </trkpt>
      <trkpt lat="45.6255" lon="4.40997">
        <ele>551.3</ele>
        <time>2017-03-19T07:43:41Z</time>
      </trkpt>
      <trkpt lat="45.62548" lon="4.41001">
        <ele>551.4</ele>
        <time>2017-03-19T07:43:44Z</time>
      </trkpt>
      <trkpt lat="45.62548" lon="4.41007">
        <ele>551.6</ele>
        <time>2017-03-19T07:43:46Z</time>
      </trkpt>
      <trkpt lat="45.62547" lon="4.41014">
        <ele>551.9</ele>
        <time>2017-03-19T07:43:48Z</time>
      </trkpt>
      <trkpt lat="45.62546" lon="4.41018">
        <ele>552</ele>
        <time>2017-03-19T07:43:49Z</time>
      </trkpt>
      <trkpt lat="45.62545" lon="4.41021">
        <ele>552.1</ele>
        <time>2017-03-19T07:43:50Z</time>
      </trkpt>
      <trkpt lat="45.62543" lon="4.41025">
        <ele>552.2</ele>
        <time>2017-03-19T07:43:51Z</time>
      </trkpt>
      <trkpt lat="45.62542" lon="4.41029">
        <ele>552.4</ele>
        <time>2017-03-19T07:43:52Z</time>
      </trkpt>
      <trkpt lat="45.62541" lon="4.41034">
        <ele>552.5</ele>
        <time>2017-03-19T07:43:53Z</time>
      </trkpt>
      <trkpt lat="45.6254" lon="4.41038">
        <ele>552.6</ele>
        <time>2017-03-19T07:43:54Z</time>
      </trkpt>
      <trkpt lat="45.62539" lon="4.41043">
        <ele>552.8</ele>
        <time>2017-03-19T07:43:55Z</time>
      </trkpt>
      <trkpt lat="45.62538" lon="4.41048">
        <ele>552.9</ele>
        <time>2017-03-19T07:43:56Z</time>
      </trkpt>
      <trkpt lat="45.62537" lon="4.41052">
        <ele>553</ele>
        <time>2017-03-19T07:43:57Z</time>
      </trkpt>
      <trkpt lat="45.62536" lon="4.41057">
        <ele>553.1</ele>
        <time>2017-03-19T07:43:58Z</time>
      </trkpt>
      <trkpt lat="45.62535" lon="4.41062">
        <ele>553.2</ele>
        <time>2017-03-19T07:43:59Z</time>
      </trkpt>
      <trkpt lat="45.62533" lon="4.41066">
        <ele>553.3</ele>
        <time>2017-03-19T07:44:00Z</time>
      </trkpt>
      <trkpt lat="45.62532" lon="4.41071">
        <ele>553.4</ele>
        <time>2017-03-19T07:44:01Z</time>
      </trkpt>
      <trkpt lat="45.6253" lon="4.41076">
        <ele>553.6</ele>
        <time>2017-03-19T07:44:02Z</time>
      </trkpt>
      <trkpt lat="45.62528" lon="4.4108">
        <ele>553.7</ele>
        <time>2017-03-19T07:44:03Z</time>
      </trkpt>
      <trkpt lat="45.62527" lon="4.41085">
        <ele>553.9</ele>
        <time>2017-03-19T07:44:04Z</time>
      </trkpt>
      <trkpt lat="45.62525" lon="4.41089">
        <ele>554</ele>
        <time>2017-03-19T07:44:05Z</time>
      </trkpt>
      <trkpt lat="45.62524" lon="4.41094">
        <ele>554.1</ele>
        <time>2017-03-19T07:44:06Z</time>
      </trkpt>
      <trkpt lat="45.62522" lon="4.41099">
        <ele>554.2</ele>
        <time>2017-03-19T07:44:07Z</time>
      </trkpt>
      <trkpt lat="45.6252" lon="4.41103">
        <ele>554.1</ele>
        <time>2017-03-19T07:44:08Z</time>
      </trkpt>
      <trkpt lat="45.62519" lon="4.41108">
        <ele>554.1</ele>
        <time>2017-03-19T07:44:09Z</time>
      </trkpt>
      <trkpt lat="45.62517" lon="4.41112">
        <ele>554.1</ele>
        <time>2017-03-19T07:44:10Z</time>
      </trkpt>
      <trkpt lat="45.62515" lon="4.41116">
        <ele>554</ele>
        <time>2017-03-19T07:44:11Z</time>
      </trkpt>
      <trkpt lat="45.62513" lon="4.4112">
        <ele>554</ele>
        <time>2017-03-19T07:44:12Z</time>
      </trkpt>
      <trkpt lat="45.62511" lon="4.41123">
        <ele>554.1</ele>
        <time>2017-03-19T07:44:13Z</time>
      </trkpt>
      <trkpt lat="45.62509" lon="4.41128">
        <ele>554.2</ele>
        <time>2017-03-19T07:44:15Z</time>
      </trkpt>
      <trkpt lat="45.62507" lon="4.41134">
        <ele>554.4</ele>
        <time>2017-03-19T07:44:17Z</time>
      </trkpt>
      <trkpt lat="45.62504" lon="4.4114">
        <ele>554.6</ele>
        <time>2017-03-19T07:44:19Z</time>
      </trkpt>
      <trkpt lat="45.62502" lon="4.41143">
        <ele>554.6</ele>
        <time>2017-03-19T07:44:20Z</time>
      </trkpt>
      <trkpt lat="45.62499" lon="4.41146">
        <ele>554.7</ele>
        <time>2017-03-19T07:44:21Z</time>
      </trkpt>
      <trkpt lat="45.62498" lon="4.41149">
        <ele>554.8</ele>
        <time>2017-03-19T07:44:22Z</time>
      </trkpt>
      <trkpt lat="45.62496" lon="4.41152">
        <ele>554.9</ele>
        <time>2017-03-19T07:44:23Z</time>
      </trkpt>
      <trkpt lat="45.62494" lon="4.41156">
        <ele>555.1</ele>
        <time>2017-03-19T07:44:24Z</time>
      </trkpt>
      <trkpt lat="45.62492" lon="4.41159">
        <ele>555.2</ele>
        <time>2017-03-19T07:44:25Z</time>
      </trkpt>
      <trkpt lat="45.6249" lon="4.41162">
        <ele>555.4</ele>
        <time>2017-03-19T07:44:26Z</time>
      </trkpt>
      <trkpt lat="45.62487" lon="4.41163">
        <ele>555.5</ele>
        <time>2017-03-19T07:44:27Z</time>
      </trkpt>
      <trkpt lat="45.62483" lon="4.4116">
        <ele>555.7</ele>
        <time>2017-03-19T07:44:28Z</time>
      </trkpt>
      <trkpt lat="45.6248" lon="4.41156">
        <ele>555.6</ele>
        <time>2017-03-19T07:44:29Z</time>
      </trkpt>
      <trkpt lat="45.62478" lon="4.41146">
        <ele>555.3</ele>
        <time>2017-03-19T07:44:30Z</time>
      </trkpt>
      <trkpt lat="45.62475" lon="4.41141">
        <ele>555.2</ele>
        <time>2017-03-19T07:44:31Z</time>
      </trkpt>
      <trkpt lat="45.62472" lon="4.41134">
        <ele>554.9</ele>
        <time>2017-03-19T07:44:32Z</time>
      </trkpt>
      <trkpt lat="45.62469" lon="4.41129">
        <ele>554.9</ele>
        <time>2017-03-19T07:44:33Z</time>
      </trkpt>
      <trkpt lat="45.62465" lon="4.41123">
        <ele>554.8</ele>
        <time>2017-03-19T07:44:34Z</time>
      </trkpt>
      <trkpt lat="45.62461" lon="4.41117">
        <ele>554.6</ele>
        <time>2017-03-19T07:44:35Z</time>
      </trkpt>
      <trkpt lat="45.62459" lon="4.4111">
        <ele>554.3</ele>
        <time>2017-03-19T07:44:36Z</time>
      </trkpt>
      <trkpt lat="45.62455" lon="4.41103">
        <ele>554.1</ele>
        <time>2017-03-19T07:44:37Z</time>
      </trkpt>
      <trkpt lat="45.62453" lon="4.41096">
        <ele>553.8</ele>
        <time>2017-03-19T07:44:38Z</time>
      </trkpt>
      <trkpt lat="45.62451" lon="4.41089">
        <ele>553.7</ele>
        <time>2017-03-19T07:44:39Z</time>
      </trkpt>
      <trkpt lat="45.62449" lon="4.41082">
        <ele>553.7</ele>
        <time>2017-03-19T07:44:40Z</time>
      </trkpt>
      <trkpt lat="45.62446" lon="4.41075">
        <ele>553.8</ele>
        <time>2017-03-19T07:44:41Z</time>
      </trkpt>
      <trkpt lat="45.62443" lon="4.41068">
        <ele>554</ele>
        <time>2017-03-19T07:44:42Z</time>
      </trkpt>
      <trkpt lat="45.62439" lon="4.41061">
        <ele>554.2</ele>
        <time>2017-03-19T07:44:43Z</time>
      </trkpt>
      <trkpt lat="45.62436" lon="4.41054">
        <ele>554.4</ele>
        <time>2017-03-19T07:44:44Z</time>
      </trkpt>
      <trkpt lat="45.62433" lon="4.41047">
        <ele>554.3</ele>
        <time>2017-03-19T07:44:45Z</time>
      </trkpt>
      <trkpt lat="45.6243" lon="4.4104">
        <ele>554</ele>
        <time>2017-03-19T07:44:46Z</time>
      </trkpt>
      <trkpt lat="45.62427" lon="4.41033">
        <ele>553.8</ele>
        <time>2017-03-19T07:44:47Z</time>
      </trkpt>
      <trkpt lat="45.62423" lon="4.41025">
        <ele>553.5</ele>
        <time>2017-03-19T07:44:48Z</time>
      </trkpt>
      <trkpt lat="45.62419" lon="4.41017">
        <ele>553.1</ele>
        <time>2017-03-19T07:44:49Z</time>
      </trkpt>
      <trkpt lat="45.62415" lon="4.41011">
        <ele>552.6</ele>
        <time>2017-03-19T07:44:50Z</time>
      </trkpt>
      <trkpt lat="45.62411" lon="4.41004">
        <ele>552.4</ele>
        <time>2017-03-19T07:44:51Z</time>
      </trkpt>
      <trkpt lat="45.62408" lon="4.40998">
        <ele>552.3</ele>
        <time>2017-03-19T07:44:52Z</time>
      </trkpt>
      <trkpt lat="45.62404" lon="4.4099">
        <ele>552.3</ele>
        <time>2017-03-19T07:44:53Z</time>
      </trkpt>
      <trkpt lat="45.62399" lon="4.40983">
        <ele>552.2</ele>
        <time>2017-03-19T07:44:54Z</time>
      </trkpt>
      <trkpt lat="45.62395" lon="4.40975">
        <ele>552.1</ele>
        <time>2017-03-19T07:44:55Z</time>
      </trkpt>
      <trkpt lat="45.62391" lon="4.40968">
        <ele>552</ele>
        <time>2017-03-19T07:44:56Z</time>
      </trkpt>
      <trkpt lat="45.62386" lon="4.40962">
        <ele>552</ele>
        <time>2017-03-19T07:44:57Z</time>
      </trkpt>
      <trkpt lat="45.62381" lon="4.40954">
        <ele>551.8</ele>
        <time>2017-03-19T07:44:58Z</time>
      </trkpt>
      <trkpt lat="45.62376" lon="4.40947">
        <ele>551.8</ele>
        <time>2017-03-19T07:44:59Z</time>
      </trkpt>
      <trkpt lat="45.62371" lon="4.40939">
        <ele>551.5</ele>
        <time>2017-03-19T07:45:00Z</time>
      </trkpt>
      <trkpt lat="45.62367" lon="4.40932">
        <ele>550.7</ele>
        <time>2017-03-19T07:45:01Z</time>
      </trkpt>
      <trkpt lat="45.62363" lon="4.40924">
        <ele>549.9</ele>
        <time>2017-03-19T07:45:02Z</time>
      </trkpt>
      <trkpt lat="45.62359" lon="4.40916">
        <ele>549.4</ele>
        <time>2017-03-19T07:45:03Z</time>
      </trkpt>
      <trkpt lat="45.62355" lon="4.40909">
        <ele>549.1</ele>
        <time>2017-03-19T07:45:04Z</time>
      </trkpt>
      <trkpt lat="45.62351" lon="4.40902">
        <ele>549.1</ele>
        <time>2017-03-19T07:45:05Z</time>
      </trkpt>
      <trkpt lat="45.62348" lon="4.40895">
        <ele>549</ele>
        <time>2017-03-19T07:45:06Z</time>
      </trkpt>
      <trkpt lat="45.62344" lon="4.40889">
        <ele>549</ele>
        <time>2017-03-19T07:45:07Z</time>
      </trkpt>
      <trkpt lat="45.62341" lon="4.40883">
        <ele>548.9</ele>
        <time>2017-03-19T07:45:08Z</time>
      </trkpt>
      <trkpt lat="45.62338" lon="4.40877">
        <ele>548.9</ele>
        <time>2017-03-19T07:45:09Z</time>
      </trkpt>
      <trkpt lat="45.62334" lon="4.4087">
        <ele>549</ele>
        <time>2017-03-19T07:45:10Z</time>
      </trkpt>
      <trkpt lat="45.6233" lon="4.40864">
        <ele>549.2</ele>
        <time>2017-03-19T07:45:11Z</time>
      </trkpt>
      <trkpt lat="45.62325" lon="4.40857">
        <ele>549.4</ele>
        <time>2017-03-19T07:45:12Z</time>
      </trkpt>
      <trkpt lat="45.62322" lon="4.4085">
        <ele>549.7</ele>
        <time>2017-03-19T07:45:13Z</time>
      </trkpt>
      <trkpt lat="45.62318" lon="4.40844">
        <ele>550.1</ele>
        <time>2017-03-19T07:45:14Z</time>
      </trkpt>
      <trkpt lat="45.62314" lon="4.40837">
        <ele>550.3</ele>
        <time>2017-03-19T07:45:15Z</time>
      </trkpt>
      <trkpt lat="45.6231" lon="4.40831">
        <ele>550.3</ele>
        <time>2017-03-19T07:45:16Z</time>
      </trkpt>
      <trkpt lat="45.62306" lon="4.40824">
        <ele>550.3</ele>
        <time>2017-03-19T07:45:17Z</time>
      </trkpt>
      <trkpt lat="45.62302" lon="4.40818">
        <ele>550</ele>
        <time>2017-03-19T07:45:18Z</time>
      </trkpt>
      <trkpt lat="45.62299" lon="4.40812">
        <ele>550</ele>
        <time>2017-03-19T07:45:19Z</time>
      </trkpt>
      <trkpt lat="45.62296" lon="4.40806">
        <ele>550.1</ele>
        <time>2017-03-19T07:45:20Z</time>
      </trkpt>
      <trkpt lat="45.62292" lon="4.408">
        <ele>550.2</ele>
        <time>2017-03-19T07:45:21Z</time>
      </trkpt>
      <trkpt lat="45.62288" lon="4.40794">
        <ele>550.2</ele>
        <time>2017-03-19T07:45:22Z</time>
      </trkpt>
      <trkpt lat="45.62284" lon="4.40787">
        <ele>549.7</ele>
        <time>2017-03-19T07:45:23Z</time>
      </trkpt>
      <trkpt lat="45.62281" lon="4.40781">
        <ele>549.5</ele>
        <time>2017-03-19T07:45:24Z</time>
      </trkpt>
      <trkpt lat="45.62278" lon="4.40774">
        <ele>548.9</ele>
        <time>2017-03-19T07:45:25Z</time>
      </trkpt>
      <trkpt lat="45.62274" lon="4.40769">
        <ele>548.8</ele>
        <time>2017-03-19T07:45:26Z</time>
      </trkpt>
      <trkpt lat="45.6227" lon="4.40763">
        <ele>548.8</ele>
        <time>2017-03-19T07:45:27Z</time>
      </trkpt>
      <trkpt lat="45.62267" lon="4.40758">
        <ele>548.7</ele>
        <time>2017-03-19T07:45:28Z</time>
      </trkpt>
      <trkpt lat="45.62264" lon="4.40753">
        <ele>548.7</ele>
        <time>2017-03-19T07:45:29Z</time>
      </trkpt>
      <trkpt lat="45.62261" lon="4.40749">
        <ele>548.6</ele>
        <time>2017-03-19T07:45:30Z</time>
      </trkpt>
      <trkpt lat="45.62258" lon="4.40744">
        <ele>548.5</ele>
        <time>2017-03-19T07:45:31Z</time>
      </trkpt>
      <trkpt lat="45.62257" lon="4.40737">
        <ele>548.5</ele>
        <time>2017-03-19T07:45:32Z</time>
      </trkpt>
      <trkpt lat="45.62258" lon="4.40728">
        <ele>548.5</ele>
        <time>2017-03-19T07:45:33Z</time>
      </trkpt>
      <trkpt lat="45.62256" lon="4.40722">
        <ele>548.5</ele>
        <time>2017-03-19T07:45:34Z</time>
      </trkpt>
      <trkpt lat="45.62255" lon="4.40717">
        <ele>548.5</ele>
        <time>2017-03-19T07:45:35Z</time>
      </trkpt>
      <trkpt lat="45.62253" lon="4.4071">
        <ele>548.4</ele>
        <time>2017-03-19T07:45:36Z</time>
      </trkpt>
      <trkpt lat="45.62252" lon="4.40704">
        <ele>548.4</ele>
        <time>2017-03-19T07:45:37Z</time>
      </trkpt>
      <trkpt lat="45.62251" lon="4.40696">
        <ele>548.4</ele>
        <time>2017-03-19T07:45:38Z</time>
      </trkpt>
      <trkpt lat="45.62249" lon="4.40688">
        <ele>548.3</ele>
        <time>2017-03-19T07:45:39Z</time>
      </trkpt>
      <trkpt lat="45.62249" lon="4.4068">
        <ele>548.2</ele>
        <time>2017-03-19T07:45:40Z</time>
      </trkpt>
      <trkpt lat="45.62247" lon="4.40673">
        <ele>548.1</ele>
        <time>2017-03-19T07:45:41Z</time>
      </trkpt>
      <trkpt lat="45.62246" lon="4.40665">
        <ele>548</ele>
        <time>2017-03-19T07:45:42Z</time>
      </trkpt>
      <trkpt lat="45.62244" lon="4.40657">
        <ele>547.8</ele>
        <time>2017-03-19T07:45:43Z</time>
      </trkpt>
      <trkpt lat="45.62242" lon="4.40649">
        <ele>547.7</ele>
        <time>2017-03-19T07:45:44Z</time>
      </trkpt>
      <trkpt lat="45.62241" lon="4.40642">
        <ele>547.5</ele>
        <time>2017-03-19T07:45:45Z</time>
      </trkpt>
      <trkpt lat="45.62239" lon="4.40634">
        <ele>547.3</ele>
        <time>2017-03-19T07:45:46Z</time>
      </trkpt>
      <trkpt lat="45.62238" lon="4.40626">
        <ele>547.1</ele>
        <time>2017-03-19T07:45:47Z</time>
      </trkpt>
      <trkpt lat="45.62237" lon="4.40618">
        <ele>546.9</ele>
        <time>2017-03-19T07:45:48Z</time>
      </trkpt>
      <trkpt lat="45.62235" lon="4.40611">
        <ele>546.8</ele>
        <time>2017-03-19T07:45:49Z</time>
      </trkpt>
      <trkpt lat="45.62234" lon="4.40602">
        <ele>546.6</ele>
        <time>2017-03-19T07:45:50Z</time>
      </trkpt>
      <trkpt lat="45.62231" lon="4.40594">
        <ele>546.4</ele>
        <time>2017-03-19T07:45:51Z</time>
      </trkpt>
      <trkpt lat="45.62228" lon="4.40587">
        <ele>546.1</ele>
        <time>2017-03-19T07:45:52Z</time>
      </trkpt>
      <trkpt lat="45.62226" lon="4.4058">
        <ele>545.7</ele>
        <time>2017-03-19T07:45:53Z</time>
      </trkpt>
      <trkpt lat="45.62223" lon="4.40573">
        <ele>545.3</ele>
        <time>2017-03-19T07:45:54Z</time>
      </trkpt>
      <trkpt lat="45.62219" lon="4.40566">
        <ele>544.7</ele>
        <time>2017-03-19T07:45:55Z</time>
      </trkpt>
      <trkpt lat="45.62215" lon="4.4056">
        <ele>544</ele>
        <time>2017-03-19T07:45:56Z</time>
      </trkpt>
      <trkpt lat="45.62212" lon="4.40555">
        <ele>543.5</ele>
        <time>2017-03-19T07:45:57Z</time>
      </trkpt>
      <trkpt lat="45.62209" lon="4.40553">
        <ele>543.1</ele>
        <time>2017-03-19T07:45:58Z</time>
      </trkpt>
      <trkpt lat="45.62205" lon="4.40552">
        <ele>542.6</ele>
        <time>2017-03-19T07:46:15Z</time>
      </trkpt>
      <trkpt lat="45.62202" lon="4.40547">
        <ele>542.2</ele>
        <time>2017-03-19T07:46:17Z</time>
      </trkpt>
      <trkpt lat="45.62199" lon="4.40544">
        <ele>542</ele>
        <time>2017-03-19T07:46:18Z</time>
      </trkpt>
      <trkpt lat="45.62197" lon="4.4054">
        <ele>541.8</ele>
        <time>2017-03-19T07:46:19Z</time>
      </trkpt>
      <trkpt lat="45.62194" lon="4.40535">
        <ele>541.6</ele>
        <time>2017-03-19T07:46:20Z</time>
      </trkpt>
      <trkpt lat="45.62191" lon="4.4053">
        <ele>541.3</ele>
        <time>2017-03-19T07:46:21Z</time>
      </trkpt>
      <trkpt lat="45.62187" lon="4.40525">
        <ele>541</ele>
        <time>2017-03-19T07:46:22Z</time>
      </trkpt>
      <trkpt lat="45.62183" lon="4.4052">
        <ele>540.8</ele>
        <time>2017-03-19T07:46:23Z</time>
      </trkpt>
      <trkpt lat="45.62179" lon="4.40514">
        <ele>540.5</ele>
        <time>2017-03-19T07:46:24Z</time>
      </trkpt>
      <trkpt lat="45.62176" lon="4.40508">
        <ele>540.3</ele>
        <time>2017-03-19T07:46:25Z</time>
      </trkpt>
      <trkpt lat="45.62173" lon="4.40501">
        <ele>540.1</ele>
        <time>2017-03-19T07:46:26Z</time>
      </trkpt>
      <trkpt lat="45.62169" lon="4.40494">
        <ele>539.9</ele>
        <time>2017-03-19T07:46:27Z</time>
      </trkpt>
      <trkpt lat="45.62165" lon="4.40487">
        <ele>539.7</ele>
        <time>2017-03-19T07:46:28Z</time>
      </trkpt>
      <trkpt lat="45.62162" lon="4.4048">
        <ele>539.5</ele>
        <time>2017-03-19T07:46:29Z</time>
      </trkpt>
      <trkpt lat="45.62159" lon="4.40474">
        <ele>539.4</ele>
        <time>2017-03-19T07:46:30Z</time>
      </trkpt>
      <trkpt lat="45.62155" lon="4.40468">
        <ele>539.2</ele>
        <time>2017-03-19T07:46:31Z</time>
      </trkpt>
      <trkpt lat="45.62153" lon="4.40462">
        <ele>539.2</ele>
        <time>2017-03-19T07:46:32Z</time>
      </trkpt>
      <trkpt lat="45.6215" lon="4.40456">
        <ele>539.1</ele>
        <time>2017-03-19T07:46:33Z</time>
      </trkpt>
      <trkpt lat="45.62147" lon="4.4045">
        <ele>539</ele>
        <time>2017-03-19T07:46:34Z</time>
      </trkpt>
      <trkpt lat="45.62144" lon="4.40445">
        <ele>538.9</ele>
        <time>2017-03-19T07:46:35Z</time>
      </trkpt>
      <trkpt lat="45.62141" lon="4.40439">
        <ele>538.8</ele>
        <time>2017-03-19T07:46:36Z</time>
      </trkpt>
      <trkpt lat="45.6214" lon="4.40435">
        <ele>538.8</ele>
        <time>2017-03-19T07:46:37Z</time>
      </trkpt>
      <trkpt lat="45.62138" lon="4.40432">
        <ele>538.7</ele>
        <time>2017-03-19T07:46:38Z</time>
      </trkpt>
      <trkpt lat="45.62134" lon="4.40431">
        <ele>538.7</ele>
        <time>2017-03-19T07:46:40Z</time>
      </trkpt>
      <trkpt lat="45.62135" lon="4.40435">
        <ele>538.7</ele>
        <time>2017-03-19T07:46:42Z</time>
      </trkpt>
      <trkpt lat="45.62138" lon="4.4044">
        <ele>538.8</ele>
        <time>2017-03-19T07:46:44Z</time>
      </trkpt>
      <trkpt lat="45.62141" lon="4.40444">
        <ele>538.9</ele>
        <time>2017-03-19T07:46:45Z</time>
      </trkpt>
      <trkpt lat="45.62144" lon="4.40449">
        <ele>538.9</ele>
        <time>2017-03-19T07:46:46Z</time>
      </trkpt>
      <trkpt lat="45.62147" lon="4.40454">
        <ele>539</ele>
        <time>2017-03-19T07:46:47Z</time>
      </trkpt>
      <trkpt lat="45.6215" lon="4.4046">
        <ele>539.1</ele>
        <time>2017-03-19T07:46:48Z</time>
      </trkpt>
      <trkpt lat="45.62153" lon="4.40467">
        <ele>539.2</ele>
        <time>2017-03-19T07:46:49Z</time>
      </trkpt>
      <trkpt lat="45.62157" lon="4.40473">
        <ele>539.4</ele>
        <time>2017-03-19T07:46:50Z</time>
      </trkpt>
      <trkpt lat="45.62161" lon="4.40481">
        <ele>539.5</ele>
        <time>2017-03-19T07:46:51Z</time>
      </trkpt>
      <trkpt lat="45.62163" lon="4.40486">
        <ele>539.7</ele>
        <time>2017-03-19T07:46:52Z</time>
      </trkpt>
      <trkpt lat="45.62167" lon="4.40493">
        <ele>539.9</ele>
        <time>2017-03-19T07:46:53Z</time>
      </trkpt>
      <trkpt lat="45.62171" lon="4.405">
        <ele>540.1</ele>
        <time>2017-03-19T07:46:54Z</time>
      </trkpt>
      <trkpt lat="45.62175" lon="4.40506">
        <ele>540.3</ele>
        <time>2017-03-19T07:46:55Z</time>
      </trkpt>
      <trkpt lat="45.62178" lon="4.40513">
        <ele>540.5</ele>
        <time>2017-03-19T07:46:56Z</time>
      </trkpt>
      <trkpt lat="45.62181" lon="4.4052">
        <ele>540.8</ele>
        <time>2017-03-19T07:46:57Z</time>
      </trkpt>
      <trkpt lat="45.62185" lon="4.40525">
        <ele>541.1</ele>
        <time>2017-03-19T07:46:58Z</time>
      </trkpt>
      <trkpt lat="45.6219" lon="4.40531">
        <ele>541.4</ele>
        <time>2017-03-19T07:46:59Z</time>
      </trkpt>
      <trkpt lat="45.62193" lon="4.40536">
        <ele>541.7</ele>
        <time>2017-03-19T07:47:00Z</time>
      </trkpt>
      <trkpt lat="45.62196" lon="4.40542">
        <ele>541.9</ele>
        <time>2017-03-19T07:47:01Z</time>
      </trkpt>
      <trkpt lat="45.622" lon="4.40546">
        <ele>542.2</ele>
        <time>2017-03-19T07:47:02Z</time>
      </trkpt>
      <trkpt lat="45.62204" lon="4.40551">
        <ele>542.8</ele>
        <time>2017-03-19T07:47:03Z</time>
      </trkpt>
      <trkpt lat="45.62206" lon="4.40555">
        <ele>543.2</ele>
        <time>2017-03-19T07:47:04Z</time>
      </trkpt>
      <trkpt lat="45.62208" lon="4.40558">
        <ele>543.6</ele>
        <time>2017-03-19T07:47:05Z</time>
      </trkpt>
      <trkpt lat="45.62211" lon="4.4056">
        <ele>544</ele>
        <time>2017-03-19T07:47:06Z</time>
      </trkpt>
      <trkpt lat="45.62213" lon="4.40557">
        <ele>543.5</ele>
        <time>2017-03-19T07:47:08Z</time>
      </trkpt>
      <trkpt lat="45.62214" lon="4.40552">
        <ele>543.1</ele>
        <time>2017-03-19T07:47:09Z</time>
      </trkpt>
      <trkpt lat="45.62214" lon="4.40548">
        <ele>542.7</ele>
        <time>2017-03-19T07:47:10Z</time>
      </trkpt>
      <trkpt lat="45.62215" lon="4.40541">
        <ele>541.6</ele>
        <time>2017-03-19T07:47:11Z</time>
      </trkpt>
      <trkpt lat="45.62215" lon="4.40533">
        <ele>540.6</ele>
        <time>2017-03-19T07:47:12Z</time>
      </trkpt>
      <trkpt lat="45.62215" lon="4.40525">
        <ele>539.7</ele>
        <time>2017-03-19T07:47:13Z</time>
      </trkpt>
      <trkpt lat="45.62214" lon="4.40517">
        <ele>538.7</ele>
        <time>2017-03-19T07:47:14Z</time>
      </trkpt>
      <trkpt lat="45.62214" lon="4.4051">
        <ele>538.2</ele>
        <time>2017-03-19T07:47:15Z</time>
      </trkpt>
      <trkpt lat="45.62212" lon="4.40503">
        <ele>537.7</ele>
        <time>2017-03-19T07:47:16Z</time>
      </trkpt>
      <trkpt lat="45.62212" lon="4.40499">
        <ele>537.4</ele>
        <time>2017-03-19T07:47:17Z</time>
      </trkpt>
      <trkpt lat="45.6221" lon="4.40492">
        <ele>537.4</ele>
        <time>2017-03-19T07:47:18Z</time>
      </trkpt>
      <trkpt lat="45.62207" lon="4.40486">
        <ele>537.2</ele>
        <time>2017-03-19T07:47:19Z</time>
      </trkpt>
      <trkpt lat="45.62205" lon="4.40479">
        <ele>537.3</ele>
        <time>2017-03-19T07:47:20Z</time>
      </trkpt>
      <trkpt lat="45.62204" lon="4.40472">
        <ele>537.3</ele>
        <time>2017-03-19T07:47:21Z</time>
      </trkpt>
      <trkpt lat="45.62204" lon="4.40465">
        <ele>537.5</ele>
        <time>2017-03-19T07:47:22Z</time>
      </trkpt>
      <trkpt lat="45.62203" lon="4.40458">
        <ele>537.6</ele>
        <time>2017-03-19T07:47:23Z</time>
      </trkpt>
      <trkpt lat="45.62203" lon="4.40453">
        <ele>537.9</ele>
        <time>2017-03-19T07:47:24Z</time>
      </trkpt>
      <trkpt lat="45.62202" lon="4.40445">
        <ele>538.5</ele>
        <time>2017-03-19T07:47:25Z</time>
      </trkpt>
      <trkpt lat="45.62201" lon="4.4044">
        <ele>538.8</ele>
        <time>2017-03-19T07:47:26Z</time>
      </trkpt>
      <trkpt lat="45.622" lon="4.40434">
        <ele>538.8</ele>
        <time>2017-03-19T07:47:27Z</time>
      </trkpt>
      <trkpt lat="45.62198" lon="4.40429">
        <ele>539.1</ele>
        <time>2017-03-19T07:47:28Z</time>
      </trkpt>
      <trkpt lat="45.62197" lon="4.40424">
        <ele>539</ele>
        <time>2017-03-19T07:47:29Z</time>
      </trkpt>
      <trkpt lat="45.62197" lon="4.40417">
        <ele>538.6</ele>
        <time>2017-03-19T07:47:30Z</time>
      </trkpt>
      <trkpt lat="45.62197" lon="4.4041">
        <ele>538.3</ele>
        <time>2017-03-19T07:47:31Z</time>
      </trkpt>
      <trkpt lat="45.62197" lon="4.40406">
        <ele>537.6</ele>
        <time>2017-03-19T07:47:32Z</time>
      </trkpt>
      <trkpt lat="45.62197" lon="4.40401">
        <ele>537.2</ele>
        <time>2017-03-19T07:47:33Z</time>
      </trkpt>
      <trkpt lat="45.62196" lon="4.40396">
        <ele>536.8</ele>
        <time>2017-03-19T07:47:34Z</time>
      </trkpt>
      <trkpt lat="45.62196" lon="4.40391">
        <ele>536.8</ele>
        <time>2017-03-19T07:47:35Z</time>
      </trkpt>
      <trkpt lat="45.62195" lon="4.40385">
        <ele>536.5</ele>
        <time>2017-03-19T07:47:36Z</time>
      </trkpt>
      <trkpt lat="45.62195" lon="4.40379">
        <ele>536.1</ele>
        <time>2017-03-19T07:47:37Z</time>
      </trkpt>
      <trkpt lat="45.62195" lon="4.40374">
        <ele>535.9</ele>
        <time>2017-03-19T07:47:38Z</time>
      </trkpt>
      <trkpt lat="45.62194" lon="4.40368">
        <ele>535.7</ele>
        <time>2017-03-19T07:47:39Z</time>
      </trkpt>
      <trkpt lat="45.62193" lon="4.40363">
        <ele>535.9</ele>
        <time>2017-03-19T07:47:40Z</time>
      </trkpt>
      <trkpt lat="45.62192" lon="4.40357">
        <ele>535.7</ele>
        <time>2017-03-19T07:47:41Z</time>
      </trkpt>
      <trkpt lat="45.62192" lon="4.40352">
        <ele>535.6</ele>
        <time>2017-03-19T07:47:42Z</time>
      </trkpt>
      <trkpt lat="45.62191" lon="4.40347">
        <ele>535.4</ele>
        <time>2017-03-19T07:47:43Z</time>
      </trkpt>
      <trkpt lat="45.6219" lon="4.4034">
        <ele>535.2</ele>
        <time>2017-03-19T07:47:44Z</time>
      </trkpt>
      <trkpt lat="45.62189" lon="4.40334">
        <ele>535</ele>
        <time>2017-03-19T07:47:45Z</time>
      </trkpt>
      <trkpt lat="45.62189" lon="4.40327">
        <ele>534.3</ele>
        <time>2017-03-19T07:47:46Z</time>
      </trkpt>
      <trkpt lat="45.62188" lon="4.40321">
        <ele>533.9</ele>
        <time>2017-03-19T07:47:47Z</time>
      </trkpt>
      <trkpt lat="45.62188" lon="4.40315">
        <ele>533.1</ele>
        <time>2017-03-19T07:47:48Z</time>
      </trkpt>
      <trkpt lat="45.62188" lon="4.40308">
        <ele>532.7</ele>
        <time>2017-03-19T07:47:49Z</time>
      </trkpt>
      <trkpt lat="45.62189" lon="4.40301">
        <ele>532.3</ele>
        <time>2017-03-19T07:47:50Z</time>
      </trkpt>
      <trkpt lat="45.62189" lon="4.40291">
        <ele>531.9</ele>
        <time>2017-03-19T07:47:51Z</time>
      </trkpt>
      <trkpt lat="45.62189" lon="4.40285">
        <ele>531.6</ele>
        <time>2017-03-19T07:47:52Z</time>
      </trkpt>
      <trkpt lat="45.6219" lon="4.40278">
        <ele>531.3</ele>
        <time>2017-03-19T07:47:53Z</time>
      </trkpt>
      <trkpt lat="45.6219" lon="4.40273">
        <ele>530.6</ele>
        <time>2017-03-19T07:47:54Z</time>
      </trkpt>
      <trkpt lat="45.62189" lon="4.40266">
        <ele>530.1</ele>
        <time>2017-03-19T07:47:55Z</time>
      </trkpt>
      <trkpt lat="45.62188" lon="4.40257">
        <ele>529.3</ele>
        <time>2017-03-19T07:47:56Z</time>
      </trkpt>
      <trkpt lat="45.62187" lon="4.40252">
        <ele>529.2</ele>
        <time>2017-03-19T07:47:57Z</time>
      </trkpt>
      <trkpt lat="45.62186" lon="4.40244">
        <ele>529</ele>
        <time>2017-03-19T07:47:58Z</time>
      </trkpt>
      <trkpt lat="45.62186" lon="4.40237">
        <ele>529.2</ele>
        <time>2017-03-19T07:47:59Z</time>
      </trkpt>
      <trkpt lat="45.62186" lon="4.4023">
        <ele>529.4</ele>
        <time>2017-03-19T07:48:00Z</time>
      </trkpt>
      <trkpt lat="45.62186" lon="4.40223">
        <ele>529.7</ele>
        <time>2017-03-19T07:48:01Z</time>
      </trkpt>
      <trkpt lat="45.62186" lon="4.40216">
        <ele>529.9</ele>
        <time>2017-03-19T07:48:02Z</time>
      </trkpt>
      <trkpt lat="45.62184" lon="4.4021">
        <ele>529.9</ele>
        <time>2017-03-19T07:48:03Z</time>
      </trkpt>
      <trkpt lat="45.62184" lon="4.40203">
        <ele>529.7</ele>
        <time>2017-03-19T07:48:04Z</time>
      </trkpt>
      <trkpt lat="45.62183" lon="4.40197">
        <ele>529.4</ele>
        <time>2017-03-19T07:48:05Z</time>
      </trkpt>
      <trkpt lat="45.62183" lon="4.4019">
        <ele>529.3</ele>
        <time>2017-03-19T07:48:06Z</time>
      </trkpt>
      <trkpt lat="45.62182" lon="4.40182">
        <ele>529.1</ele>
        <time>2017-03-19T07:48:07Z</time>
      </trkpt>
      <trkpt lat="45.62181" lon="4.40174">
        <ele>528.9</ele>
        <time>2017-03-19T07:48:08Z</time>
      </trkpt>
      <trkpt lat="45.62181" lon="4.40167">
        <ele>528.9</ele>
        <time>2017-03-19T07:48:09Z</time>
      </trkpt>
      <trkpt lat="45.62181" lon="4.40158">
        <ele>528.8</ele>
        <time>2017-03-19T07:48:10Z</time>
      </trkpt>
      <trkpt lat="45.6218" lon="4.4015">
        <ele>528.8</ele>
        <time>2017-03-19T07:48:11Z</time>
      </trkpt>
      <trkpt lat="45.62181" lon="4.40141">
        <ele>528.7</ele>
        <time>2017-03-19T07:48:12Z</time>
      </trkpt>
      <trkpt lat="45.62181" lon="4.40132">
        <ele>528.7</ele>
        <time>2017-03-19T07:48:13Z</time>
      </trkpt>
      <trkpt lat="45.6218" lon="4.40122">
        <ele>528.6</ele>
        <time>2017-03-19T07:48:14Z</time>
      </trkpt>
      <trkpt lat="45.6218" lon="4.40111">
        <ele>528.5</ele>
        <time>2017-03-19T07:48:15Z</time>
      </trkpt>
      <trkpt lat="45.62177" lon="4.40097">
        <ele>528.2</ele>
        <time>2017-03-19T07:48:16Z</time>
      </trkpt>
      <trkpt lat="45.62179" lon="4.40085">
        <ele>528</ele>
        <time>2017-03-19T07:48:17Z</time>
      </trkpt>
      <trkpt lat="45.62183" lon="4.40072">
        <ele>527.7</ele>
        <time>2017-03-19T07:48:18Z</time>
      </trkpt>
      <trkpt lat="45.62187" lon="4.4006">
        <ele>527.3</ele>
        <time>2017-03-19T07:48:19Z</time>
      </trkpt>
      <trkpt lat="45.62192" lon="4.40047">
        <ele>527</ele>
        <time>2017-03-19T07:48:20Z</time>
      </trkpt>
      <trkpt lat="45.62197" lon="4.40034">
        <ele>526.5</ele>
        <time>2017-03-19T07:48:21Z</time>
      </trkpt>
      <trkpt lat="45.62203" lon="4.40022">
        <ele>526.1</ele>
        <time>2017-03-19T07:48:22Z</time>
      </trkpt>
      <trkpt lat="45.62207" lon="4.40011">
        <ele>525.6</ele>
        <time>2017-03-19T07:48:23Z</time>
      </trkpt>
      <trkpt lat="45.62211" lon="4.39999">
        <ele>525.1</ele>
        <time>2017-03-19T07:48:24Z</time>
      </trkpt>
      <trkpt lat="45.62213" lon="4.39988">
        <ele>524.6</ele>
        <time>2017-03-19T07:48:25Z</time>
      </trkpt>
      <trkpt lat="45.62217" lon="4.39977">
        <ele>524</ele>
        <time>2017-03-19T07:48:26Z</time>
      </trkpt>
      <trkpt lat="45.62217" lon="4.39966">
        <ele>523.4</ele>
        <time>2017-03-19T07:48:27Z</time>
      </trkpt>
      <trkpt lat="45.62217" lon="4.39955">
        <ele>523.2</ele>
        <time>2017-03-19T07:48:28Z</time>
      </trkpt>
      <trkpt lat="45.62217" lon="4.39943">
        <ele>524.7</ele>
        <time>2017-03-19T07:48:29Z</time>
      </trkpt>
      <trkpt lat="45.62216" lon="4.39936">
        <ele>525.6</ele>
        <time>2017-03-19T07:48:30Z</time>
      </trkpt>
      <trkpt lat="45.62213" lon="4.39927">
        <ele>526.5</ele>
        <time>2017-03-19T07:48:31Z</time>
      </trkpt>
      <trkpt lat="45.62212" lon="4.39919">
        <ele>527.2</ele>
        <time>2017-03-19T07:48:32Z</time>
      </trkpt>
      <trkpt lat="45.6221" lon="4.39912">
        <ele>527.8</ele>
        <time>2017-03-19T07:48:33Z</time>
      </trkpt>
      <trkpt lat="45.62207" lon="4.39906">
        <ele>528.3</ele>
        <time>2017-03-19T07:48:34Z</time>
      </trkpt>
      <trkpt lat="45.62204" lon="4.399">
        <ele>528.7</ele>
        <time>2017-03-19T07:48:35Z</time>
      </trkpt>
      <trkpt lat="45.62204" lon="4.39891">
        <ele>529.2</ele>
        <time>2017-03-19T07:48:36Z</time>
      </trkpt>
      <trkpt lat="45.62203" lon="4.39886">
        <ele>529.6</ele>
        <time>2017-03-19T07:48:37Z</time>
      </trkpt>
      <trkpt lat="45.62202" lon="4.39879">
        <ele>530</ele>
        <time>2017-03-19T07:48:38Z</time>
      </trkpt>
      <trkpt lat="45.62202" lon="4.39873">
        <ele>530.4</ele>
        <time>2017-03-19T07:48:39Z</time>
      </trkpt>
      <trkpt lat="45.62202" lon="4.39866">
        <ele>530.7</ele>
        <time>2017-03-19T07:48:40Z</time>
      </trkpt>
      <trkpt lat="45.62201" lon="4.39861">
        <ele>531</ele>
        <time>2017-03-19T07:48:41Z</time>
      </trkpt>
      <trkpt lat="45.62201" lon="4.39857">
        <ele>531.3</ele>
        <time>2017-03-19T07:48:42Z</time>
      </trkpt>
      <trkpt lat="45.62201" lon="4.39851">
        <ele>531.6</ele>
        <time>2017-03-19T07:48:43Z</time>
      </trkpt>
      <trkpt lat="45.62199" lon="4.39844">
        <ele>532</ele>
        <time>2017-03-19T07:48:44Z</time>
      </trkpt>
      <trkpt lat="45.62199" lon="4.39839">
        <ele>532.3</ele>
        <time>2017-03-19T07:48:45Z</time>
      </trkpt>
      <trkpt lat="45.622" lon="4.39835">
        <ele>532.5</ele>
        <time>2017-03-19T07:48:46Z</time>
      </trkpt>
      <trkpt lat="45.62199" lon="4.39828">
        <ele>532.9</ele>
        <time>2017-03-19T07:48:47Z</time>
      </trkpt>
      <trkpt lat="45.62198" lon="4.39822">
        <ele>533.2</ele>
        <time>2017-03-19T07:48:48Z</time>
      </trkpt>
      <trkpt lat="45.62198" lon="4.39816">
        <ele>533.5</ele>
        <time>2017-03-19T07:48:49Z</time>
      </trkpt>
      <trkpt lat="45.62197" lon="4.3981">
        <ele>533.8</ele>
        <time>2017-03-19T07:48:50Z</time>
      </trkpt>
      <trkpt lat="45.62196" lon="4.39804">
        <ele>534.1</ele>
        <time>2017-03-19T07:48:51Z</time>
      </trkpt>
      <trkpt lat="45.62196" lon="4.39798">
        <ele>534.4</ele>
        <time>2017-03-19T07:48:52Z</time>
      </trkpt>
      <trkpt lat="45.62195" lon="4.39792">
        <ele>534.6</ele>
        <time>2017-03-19T07:48:53Z</time>
      </trkpt>
      <trkpt lat="45.62194" lon="4.39786">
        <ele>534.9</ele>
        <time>2017-03-19T07:48:54Z</time>
      </trkpt>
      <trkpt lat="45.62194" lon="4.3978">
        <ele>535.1</ele>
        <time>2017-03-19T07:48:55Z</time>
      </trkpt>
      <trkpt lat="45.62193" lon="4.39775">
        <ele>535.3</ele>
        <time>2017-03-19T07:48:56Z</time>
      </trkpt>
      <trkpt lat="45.62193" lon="4.39769">
        <ele>535.5</ele>
        <time>2017-03-19T07:48:57Z</time>
      </trkpt>
      <trkpt lat="45.62192" lon="4.39763">
        <ele>535.7</ele>
        <time>2017-03-19T07:48:58Z</time>
      </trkpt>
      <trkpt lat="45.62192" lon="4.39758">
        <ele>535.9</ele>
        <time>2017-03-19T07:48:59Z</time>
      </trkpt>
      <trkpt lat="45.62191" lon="4.39752">
        <ele>536.1</ele>
        <time>2017-03-19T07:49:00Z</time>
      </trkpt>
      <trkpt lat="45.62191" lon="4.39747">
        <ele>536.3</ele>
        <time>2017-03-19T07:49:01Z</time>
      </trkpt>
      <trkpt lat="45.62191" lon="4.39741">
        <ele>536.5</ele>
        <time>2017-03-19T07:49:02Z</time>
      </trkpt>
      <trkpt lat="45.62192" lon="4.39735">
        <ele>536.7</ele>
        <time>2017-03-19T07:49:03Z</time>
      </trkpt>
      <trkpt lat="45.62193" lon="4.3973">
        <ele>536.8</ele>
        <time>2017-03-19T07:49:04Z</time>
      </trkpt>
      <trkpt lat="45.62193" lon="4.39724">
        <ele>537</ele>
        <time>2017-03-19T07:49:05Z</time>
      </trkpt>
      <trkpt lat="45.62194" lon="4.39719">
        <ele>537.2</ele>
        <time>2017-03-19T07:49:06Z</time>
      </trkpt>
      <trkpt lat="45.62194" lon="4.39713">
        <ele>537.4</ele>
        <time>2017-03-19T07:49:07Z</time>
      </trkpt>
      <trkpt lat="45.62195" lon="4.39707">
        <ele>537.6</ele>
        <time>2017-03-19T07:49:08Z</time>
      </trkpt>
      <trkpt lat="45.62196" lon="4.39702">
        <ele>537.8</ele>
        <time>2017-03-19T07:49:09Z</time>
      </trkpt>
      <trkpt lat="45.62197" lon="4.39696">
        <ele>538</ele>
        <time>2017-03-19T07:49:10Z</time>
      </trkpt>
      <trkpt lat="45.62198" lon="4.39692">
        <ele>538.2</ele>
        <time>2017-03-19T07:49:11Z</time>
      </trkpt>
      <trkpt lat="45.62199" lon="4.39687">
        <ele>538.4</ele>
        <time>2017-03-19T07:49:12Z</time>
      </trkpt>
      <trkpt lat="45.622" lon="4.39682">
        <ele>538.5</ele>
        <time>2017-03-19T07:49:13Z</time>
      </trkpt>
      <trkpt lat="45.62201" lon="4.39677">
        <ele>538.7</ele>
        <time>2017-03-19T07:49:14Z</time>
      </trkpt>
      <trkpt lat="45.62201" lon="4.39672">
        <ele>538.9</ele>
        <time>2017-03-19T07:49:15Z</time>
      </trkpt>
      <trkpt lat="45.62201" lon="4.39667">
        <ele>539.1</ele>
        <time>2017-03-19T07:49:16Z</time>
      </trkpt>
      <trkpt lat="45.62201" lon="4.39662">
        <ele>539.2</ele>
        <time>2017-03-19T07:49:17Z</time>
      </trkpt>
      <trkpt lat="45.62201" lon="4.39657">
        <ele>539.3</ele>
        <time>2017-03-19T07:49:18Z</time>
      </trkpt>
      <trkpt lat="45.622" lon="4.39652">
        <ele>539.5</ele>
        <time>2017-03-19T07:49:19Z</time>
      </trkpt>
      <trkpt lat="45.62199" lon="4.39648">
        <ele>539.6</ele>
        <time>2017-03-19T07:49:20Z</time>
      </trkpt>
      <trkpt lat="45.62198" lon="4.39643">
        <ele>539.7</ele>
        <time>2017-03-19T07:49:21Z</time>
      </trkpt>
      <trkpt lat="45.62196" lon="4.39639">
        <ele>539.9</ele>
        <time>2017-03-19T07:49:22Z</time>
      </trkpt>
      <trkpt lat="45.62194" lon="4.39634">
        <ele>540.1</ele>
        <time>2017-03-19T07:49:23Z</time>
      </trkpt>
      <trkpt lat="45.62192" lon="4.39629">
        <ele>540.3</ele>
        <time>2017-03-19T07:49:24Z</time>
      </trkpt>
      <trkpt lat="45.6219" lon="4.39625">
        <ele>540.6</ele>
        <time>2017-03-19T07:49:25Z</time>
      </trkpt>
      <trkpt lat="45.62188" lon="4.3962">
        <ele>540.9</ele>
        <time>2017-03-19T07:49:26Z</time>
      </trkpt>
      <trkpt lat="45.62188" lon="4.39615">
        <ele>541.3</ele>
        <time>2017-03-19T07:49:27Z</time>
      </trkpt>
      <trkpt lat="45.62187" lon="4.3961">
        <ele>541.6</ele>
        <time>2017-03-19T07:49:28Z</time>
      </trkpt>
      <trkpt lat="45.62187" lon="4.39606">
        <ele>541.9</ele>
        <time>2017-03-19T07:49:29Z</time>
      </trkpt>
      <trkpt lat="45.62187" lon="4.39601">
        <ele>542.2</ele>
        <time>2017-03-19T07:49:30Z</time>
      </trkpt>
      <trkpt lat="45.62186" lon="4.39597">
        <ele>542.6</ele>
        <time>2017-03-19T07:49:31Z</time>
      </trkpt>
      <trkpt lat="45.62186" lon="4.39593">
        <ele>542.9</ele>
        <time>2017-03-19T07:49:32Z</time>
      </trkpt>
      <trkpt lat="45.62187" lon="4.39589">
        <ele>543.2</ele>
        <time>2017-03-19T07:49:33Z</time>
      </trkpt>
      <trkpt lat="45.62187" lon="4.39585">
        <ele>543.5</ele>
        <time>2017-03-19T07:49:34Z</time>
      </trkpt>
      <trkpt lat="45.62187" lon="4.39577">
        <ele>544.2</ele>
        <time>2017-03-19T07:49:36Z</time>
      </trkpt>
      <trkpt lat="45.62187" lon="4.3957">
        <ele>545</ele>
        <time>2017-03-19T07:49:38Z</time>
      </trkpt>
      <trkpt lat="45.62187" lon="4.39563">
        <ele>545.8</ele>
        <time>2017-03-19T07:49:40Z</time>
      </trkpt>
      <trkpt lat="45.62187" lon="4.39556">
        <ele>546.6</ele>
        <time>2017-03-19T07:49:42Z</time>
      </trkpt>
      <trkpt lat="45.62187" lon="4.39548">
        <ele>547.3</ele>
        <time>2017-03-19T07:49:44Z</time>
      </trkpt>
      <trkpt lat="45.62187" lon="4.39544">
        <ele>547.6</ele>
        <time>2017-03-19T07:49:45Z</time>
      </trkpt>
      <trkpt lat="45.62187" lon="4.39539">
        <ele>547.9</ele>
        <time>2017-03-19T07:49:46Z</time>
      </trkpt>
      <trkpt lat="45.62187" lon="4.39535">
        <ele>548.2</ele>
        <time>2017-03-19T07:49:47Z</time>
      </trkpt>
      <trkpt lat="45.62188" lon="4.39531">
        <ele>548.4</ele>
        <time>2017-03-19T07:49:48Z</time>
      </trkpt>
      <trkpt lat="45.62188" lon="4.39527">
        <ele>548.6</ele>
        <time>2017-03-19T07:49:49Z</time>
      </trkpt>
      <trkpt lat="45.62188" lon="4.39523">
        <ele>548.8</ele>
        <time>2017-03-19T07:49:50Z</time>
      </trkpt>
      <trkpt lat="45.62188" lon="4.39518">
        <ele>549</ele>
        <time>2017-03-19T07:49:51Z</time>
      </trkpt>
      <trkpt lat="45.62188" lon="4.39514">
        <ele>549.2</ele>
        <time>2017-03-19T07:49:52Z</time>
      </trkpt>
      <trkpt lat="45.62188" lon="4.39509">
        <ele>549.4</ele>
        <time>2017-03-19T07:49:53Z</time>
      </trkpt>
      <trkpt lat="45.62189" lon="4.39505">
        <ele>549.6</ele>
        <time>2017-03-19T07:49:54Z</time>
      </trkpt>
      <trkpt lat="45.62189" lon="4.395">
        <ele>549.7</ele>
        <time>2017-03-19T07:49:55Z</time>
      </trkpt>
      <trkpt lat="45.62189" lon="4.39495">
        <ele>549.9</ele>
        <time>2017-03-19T07:49:56Z</time>
      </trkpt>
      <trkpt lat="45.62189" lon="4.3949">
        <ele>550.1</ele>
        <time>2017-03-19T07:49:57Z</time>
      </trkpt>
      <trkpt lat="45.62189" lon="4.39486">
        <ele>550.3</ele>
        <time>2017-03-19T07:49:58Z</time>
      </trkpt>
      <trkpt lat="45.62189" lon="4.39481">
        <ele>550.5</ele>
        <time>2017-03-19T07:49:59Z</time>
      </trkpt>
      <trkpt lat="45.62189" lon="4.39476">
        <ele>550.6</ele>
        <time>2017-03-19T07:50:00Z</time>
      </trkpt>
      <trkpt lat="45.62189" lon="4.39472">
        <ele>550.8</ele>
        <time>2017-03-19T07:50:01Z</time>
      </trkpt>
      <trkpt lat="45.62189" lon="4.39467">
        <ele>551</ele>
        <time>2017-03-19T07:50:02Z</time>
      </trkpt>
      <trkpt lat="45.62189" lon="4.39462">
        <ele>551.2</ele>
        <time>2017-03-19T07:50:03Z</time>
      </trkpt>
      <trkpt lat="45.62189" lon="4.39457">
        <ele>551.4</ele>
        <time>2017-03-19T07:50:04Z</time>
      </trkpt>
      <trkpt lat="45.62188" lon="4.39453">
        <ele>551.5</ele>
        <time>2017-03-19T07:50:05Z</time>
      </trkpt>
      <trkpt lat="45.62187" lon="4.39449">
        <ele>551.7</ele>
        <time>2017-03-19T07:50:06Z</time>
      </trkpt>
      <trkpt lat="45.62186" lon="4.39446">
        <ele>551.8</ele>
        <time>2017-03-19T07:50:07Z</time>
      </trkpt>
      <trkpt lat="45.62184" lon="4.39442">
        <ele>552</ele>
        <time>2017-03-19T07:50:08Z</time>
      </trkpt>
      <trkpt lat="45.62183" lon="4.39438">
        <ele>552.1</ele>
        <time>2017-03-19T07:50:09Z</time>
      </trkpt>
      <trkpt lat="45.6218" lon="4.39434">
        <ele>552.3</ele>
        <time>2017-03-19T07:50:10Z</time>
      </trkpt>
      <trkpt lat="45.62178" lon="4.39429">
        <ele>552.5</ele>
        <time>2017-03-19T07:50:11Z</time>
      </trkpt>
      <trkpt lat="45.62175" lon="4.39424">
        <ele>552.7</ele>
        <time>2017-03-19T07:50:12Z</time>
      </trkpt>
      <trkpt lat="45.62173" lon="4.39418">
        <ele>552.9</ele>
        <time>2017-03-19T07:50:13Z</time>
      </trkpt>
      <trkpt lat="45.62171" lon="4.39412">
        <ele>553.1</ele>
        <time>2017-03-19T07:50:14Z</time>
      </trkpt>
      <trkpt lat="45.62168" lon="4.39405">
        <ele>552.5</ele>
        <time>2017-03-19T07:50:15Z</time>
      </trkpt>
      <trkpt lat="45.62164" lon="4.39397">
        <ele>552</ele>
        <time>2017-03-19T07:50:16Z</time>
      </trkpt>
      <trkpt lat="45.6216" lon="4.3939">
        <ele>550.9</ele>
        <time>2017-03-19T07:50:17Z</time>
      </trkpt>
      <trkpt lat="45.62156" lon="4.39383">
        <ele>550.1</ele>
        <time>2017-03-19T07:50:18Z</time>
      </trkpt>
      <trkpt lat="45.62154" lon="4.39376">
        <ele>549.5</ele>
        <time>2017-03-19T07:50:19Z</time>
      </trkpt>
      <trkpt lat="45.62152" lon="4.39369">
        <ele>548.9</ele>
        <time>2017-03-19T07:50:20Z</time>
      </trkpt>
      <trkpt lat="45.62148" lon="4.39362">
        <ele>548.1</ele>
        <time>2017-03-19T07:50:21Z</time>
      </trkpt>
      <trkpt lat="45.62146" lon="4.39356">
        <ele>547.4</ele>
        <time>2017-03-19T07:50:22Z</time>
      </trkpt>
      <trkpt lat="45.62143" lon="4.39348">
        <ele>546.6</ele>
        <time>2017-03-19T07:50:23Z</time>
      </trkpt>
      <trkpt lat="45.62139" lon="4.39338">
        <ele>546</ele>
        <time>2017-03-19T07:50:24Z</time>
      </trkpt>
      <trkpt lat="45.62134" lon="4.39331">
        <ele>545.7</ele>
        <time>2017-03-19T07:50:25Z</time>
      </trkpt>
      <trkpt lat="45.62132" lon="4.39323">
        <ele>545.6</ele>
        <time>2017-03-19T07:50:26Z</time>
      </trkpt>
      <trkpt lat="45.62128" lon="4.39317">
        <ele>545.5</ele>
        <time>2017-03-19T07:50:27Z</time>
      </trkpt>
      <trkpt lat="45.62125" lon="4.3931">
        <ele>545.6</ele>
        <time>2017-03-19T07:50:28Z</time>
      </trkpt>
      <trkpt lat="45.62124" lon="4.39301">
        <ele>545.7</ele>
        <time>2017-03-19T07:50:29Z</time>
      </trkpt>
      <trkpt lat="45.62122" lon="4.39296">
        <ele>545.7</ele>
        <time>2017-03-19T07:50:30Z</time>
      </trkpt>
      <trkpt lat="45.6212" lon="4.39289">
        <ele>546</ele>
        <time>2017-03-19T07:50:31Z</time>
      </trkpt>
      <trkpt lat="45.62118" lon="4.39282">
        <ele>546</ele>
        <time>2017-03-19T07:50:32Z</time>
      </trkpt>
      <trkpt lat="45.62113" lon="4.39275">
        <ele>546</ele>
        <time>2017-03-19T07:50:33Z</time>
      </trkpt>
      <trkpt lat="45.6211" lon="4.3927">
        <ele>545.8</ele>
        <time>2017-03-19T07:50:34Z</time>
      </trkpt>
      <trkpt lat="45.62104" lon="4.39265">
        <ele>545.4</ele>
        <time>2017-03-19T07:50:35Z</time>
      </trkpt>
      <trkpt lat="45.62103" lon="4.3926">
        <ele>545.1</ele>
        <time>2017-03-19T07:50:36Z</time>
      </trkpt>
      <trkpt lat="45.62101" lon="4.39253">
        <ele>545</ele>
        <time>2017-03-19T07:50:38Z</time>
      </trkpt>
      <trkpt lat="45.62096" lon="4.39248">
        <ele>544.6</ele>
        <time>2017-03-19T07:50:39Z</time>
      </trkpt>
      <trkpt lat="45.62095" lon="4.39241">
        <ele>544.7</ele>
        <time>2017-03-19T07:50:40Z</time>
      </trkpt>
      <trkpt lat="45.62093" lon="4.39234">
        <ele>544.3</ele>
        <time>2017-03-19T07:50:41Z</time>
      </trkpt>
      <trkpt lat="45.62092" lon="4.39228">
        <ele>544.3</ele>
        <time>2017-03-19T07:50:42Z</time>
      </trkpt>
      <trkpt lat="45.6209" lon="4.39221">
        <ele>543.9</ele>
        <time>2017-03-19T07:50:43Z</time>
      </trkpt>
      <trkpt lat="45.62088" lon="4.39216">
        <ele>544</ele>
        <time>2017-03-19T07:50:44Z</time>
      </trkpt>
      <trkpt lat="45.62087" lon="4.3921">
        <ele>543.6</ele>
        <time>2017-03-19T07:50:45Z</time>
      </trkpt>
      <trkpt lat="45.62087" lon="4.39204">
        <ele>543.7</ele>
        <time>2017-03-19T07:50:46Z</time>
      </trkpt>
      <trkpt lat="45.62086" lon="4.39199">
        <ele>543.9</ele>
        <time>2017-03-19T07:50:47Z</time>
      </trkpt>
      <trkpt lat="45.62086" lon="4.39191">
        <ele>543.9</ele>
        <time>2017-03-19T07:50:48Z</time>
      </trkpt>
      <trkpt lat="45.62085" lon="4.39184">
        <ele>543.6</ele>
        <time>2017-03-19T07:50:49Z</time>
      </trkpt>
      <trkpt lat="45.62084" lon="4.39179">
        <ele>543.5</ele>
        <time>2017-03-19T07:50:50Z</time>
      </trkpt>
      <trkpt lat="45.62083" lon="4.39173">
        <ele>543.4</ele>
        <time>2017-03-19T07:50:51Z</time>
      </trkpt>
      <trkpt lat="45.6208" lon="4.39167">
        <ele>543.1</ele>
        <time>2017-03-19T07:50:52Z</time>
      </trkpt>
      <trkpt lat="45.6208" lon="4.39162">
        <ele>542.9</ele>
        <time>2017-03-19T07:50:53Z</time>
      </trkpt>
      <trkpt lat="45.62079" lon="4.39157">
        <ele>542.7</ele>
        <time>2017-03-19T07:50:54Z</time>
      </trkpt>
      <trkpt lat="45.62078" lon="4.39153">
        <ele>542.5</ele>
        <time>2017-03-19T07:50:55Z</time>
      </trkpt>
      <trkpt lat="45.62077" lon="4.39149">
        <ele>542.4</ele>
        <time>2017-03-19T07:50:56Z</time>
      </trkpt>
      <trkpt lat="45.62076" lon="4.39144">
        <ele>542.4</ele>
        <time>2017-03-19T07:50:57Z</time>
      </trkpt>
      <trkpt lat="45.62074" lon="4.39139">
        <ele>542.4</ele>
        <time>2017-03-19T07:50:58Z</time>
      </trkpt>
      <trkpt lat="45.62073" lon="4.39134">
        <ele>542.5</ele>
        <time>2017-03-19T07:50:59Z</time>
      </trkpt>
      <trkpt lat="45.62073" lon="4.39129">
        <ele>542.7</ele>
        <time>2017-03-19T07:51:00Z</time>
      </trkpt>
      <trkpt lat="45.62072" lon="4.39125">
        <ele>543</ele>
        <time>2017-03-19T07:51:01Z</time>
      </trkpt>
      <trkpt lat="45.62069" lon="4.39121">
        <ele>543.3</ele>
        <time>2017-03-19T07:51:03Z</time>
      </trkpt>
      <trkpt lat="45.62064" lon="4.39121">
        <ele>543.3</ele>
        <time>2017-03-19T07:51:05Z</time>
      </trkpt>
      <trkpt lat="45.62061" lon="4.39122">
        <ele>543.2</ele>
        <time>2017-03-19T07:51:06Z</time>
      </trkpt>
      <trkpt lat="45.62057" lon="4.39123">
        <ele>542.7</ele>
        <time>2017-03-19T07:51:07Z</time>
      </trkpt>
      <trkpt lat="45.62054" lon="4.39124">
        <ele>542.7</ele>
        <time>2017-03-19T07:51:08Z</time>
      </trkpt>
      <trkpt lat="45.6205" lon="4.39126">
        <ele>542.6</ele>
        <time>2017-03-19T07:51:09Z</time>
      </trkpt>
      <trkpt lat="45.62047" lon="4.39127">
        <ele>542.4</ele>
        <time>2017-03-19T07:51:10Z</time>
      </trkpt>
      <trkpt lat="45.62043" lon="4.39128">
        <ele>541.9</ele>
        <time>2017-03-19T07:51:11Z</time>
      </trkpt>
      <trkpt lat="45.62039" lon="4.39129">
        <ele>541.6</ele>
        <time>2017-03-19T07:51:12Z</time>
      </trkpt>
      <trkpt lat="45.62036" lon="4.3913">
        <ele>541.3</ele>
        <time>2017-03-19T07:51:13Z</time>
      </trkpt>
      <trkpt lat="45.62032" lon="4.39132">
        <ele>540.8</ele>
        <time>2017-03-19T07:51:14Z</time>
      </trkpt>
      <trkpt lat="45.62029" lon="4.39133">
        <ele>540.5</ele>
        <time>2017-03-19T07:51:15Z</time>
      </trkpt>
      <trkpt lat="45.62025" lon="4.39134">
        <ele>539.9</ele>
        <time>2017-03-19T07:51:16Z</time>
      </trkpt>
      <trkpt lat="45.62021" lon="4.39135">
        <ele>539.5</ele>
        <time>2017-03-19T07:51:17Z</time>
      </trkpt>
      <trkpt lat="45.62017" lon="4.39136">
        <ele>538.8</ele>
        <time>2017-03-19T07:51:18Z</time>
      </trkpt>
      <trkpt lat="45.62013" lon="4.39138">
        <ele>538</ele>
        <time>2017-03-19T07:51:19Z</time>
      </trkpt>
      <trkpt lat="45.62007" lon="4.39138">
        <ele>537.1</ele>
        <time>2017-03-19T07:51:20Z</time>
      </trkpt>
      <trkpt lat="45.62001" lon="4.39137">
        <ele>536.7</ele>
        <time>2017-03-19T07:51:21Z</time>
      </trkpt>
      <trkpt lat="45.61996" lon="4.39132">
        <ele>536.1</ele>
        <time>2017-03-19T07:51:22Z</time>
      </trkpt>
      <trkpt lat="45.61993" lon="4.39125">
        <ele>536</ele>
        <time>2017-03-19T07:51:23Z</time>
      </trkpt>
      <trkpt lat="45.61992" lon="4.39117">
        <ele>536</ele>
        <time>2017-03-19T07:51:24Z</time>
      </trkpt>
      <trkpt lat="45.61992" lon="4.39109">
        <ele>536.6</ele>
        <time>2017-03-19T07:51:25Z</time>
      </trkpt>
      <trkpt lat="45.61992" lon="4.39101">
        <ele>536.4</ele>
        <time>2017-03-19T07:51:26Z</time>
      </trkpt>
      <trkpt lat="45.61992" lon="4.39094">
        <ele>536.5</ele>
        <time>2017-03-19T07:51:27Z</time>
      </trkpt>
      <trkpt lat="45.61992" lon="4.39087">
        <ele>537</ele>
        <time>2017-03-19T07:51:28Z</time>
      </trkpt>
      <trkpt lat="45.61992" lon="4.3908">
        <ele>536.6</ele>
        <time>2017-03-19T07:51:29Z</time>
      </trkpt>
      <trkpt lat="45.61992" lon="4.39073">
        <ele>536.5</ele>
        <time>2017-03-19T07:51:30Z</time>
      </trkpt>
      <trkpt lat="45.61992" lon="4.39066">
        <ele>536.3</ele>
        <time>2017-03-19T07:51:31Z</time>
      </trkpt>
      <trkpt lat="45.61992" lon="4.39059">
        <ele>536</ele>
        <time>2017-03-19T07:51:32Z</time>
      </trkpt>
      <trkpt lat="45.61991" lon="4.39051">
        <ele>535.5</ele>
        <time>2017-03-19T07:51:33Z</time>
      </trkpt>
      <trkpt lat="45.61992" lon="4.39044">
        <ele>534.7</ele>
        <time>2017-03-19T07:51:34Z</time>
      </trkpt>
      <trkpt lat="45.61992" lon="4.39037">
        <ele>534.3</ele>
        <time>2017-03-19T07:51:35Z</time>
      </trkpt>
      <trkpt lat="45.61993" lon="4.39031">
        <ele>534</ele>
        <time>2017-03-19T07:51:36Z</time>
      </trkpt>
      <trkpt lat="45.61995" lon="4.39023">
        <ele>533.3</ele>
        <time>2017-03-19T07:51:37Z</time>
      </trkpt>
      <trkpt lat="45.61996" lon="4.39016">
        <ele>533.4</ele>
        <time>2017-03-19T07:51:38Z</time>
      </trkpt>
      <trkpt lat="45.61996" lon="4.39008">
        <ele>532.8</ele>
        <time>2017-03-19T07:51:39Z</time>
      </trkpt>
      <trkpt lat="45.61997" lon="4.39001">
        <ele>532.2</ele>
        <time>2017-03-19T07:51:40Z</time>
      </trkpt>
      <trkpt lat="45.61998" lon="4.38993">
        <ele>531.7</ele>
        <time>2017-03-19T07:51:41Z</time>
      </trkpt>
      <trkpt lat="45.62" lon="4.38986">
        <ele>531.7</ele>
        <time>2017-03-19T07:51:42Z</time>
      </trkpt>
      <trkpt lat="45.62" lon="4.38978">
        <ele>531.3</ele>
        <time>2017-03-19T07:51:43Z</time>
      </trkpt>
      <trkpt lat="45.62002" lon="4.38971">
        <ele>531.5</ele>
        <time>2017-03-19T07:51:44Z</time>
      </trkpt>
      <trkpt lat="45.62004" lon="4.38961">
        <ele>531.5</ele>
        <time>2017-03-19T07:51:45Z</time>
      </trkpt>
      <trkpt lat="45.62004" lon="4.38953">
        <ele>531.8</ele>
        <time>2017-03-19T07:51:46Z</time>
      </trkpt>
      <trkpt lat="45.62005" lon="4.38945">
        <ele>531.6</ele>
        <time>2017-03-19T07:51:47Z</time>
      </trkpt>
      <trkpt lat="45.62007" lon="4.38936">
        <ele>531.6</ele>
        <time>2017-03-19T07:51:48Z</time>
      </trkpt>
      <trkpt lat="45.62009" lon="4.38928">
        <ele>532.3</ele>
        <time>2017-03-19T07:51:49Z</time>
      </trkpt>
      <trkpt lat="45.62011" lon="4.3892">
        <ele>533.1</ele>
        <time>2017-03-19T07:51:50Z</time>
      </trkpt>
      <trkpt lat="45.62015" lon="4.38913">
        <ele>533.8</ele>
        <time>2017-03-19T07:51:51Z</time>
      </trkpt>
      <trkpt lat="45.62018" lon="4.38906">
        <ele>534.7</ele>
        <time>2017-03-19T07:51:52Z</time>
      </trkpt>
      <trkpt lat="45.62022" lon="4.38901">
        <ele>535.5</ele>
        <time>2017-03-19T07:51:53Z</time>
      </trkpt>
      <trkpt lat="45.62026" lon="4.38896">
        <ele>536.4</ele>
        <time>2017-03-19T07:51:54Z</time>
      </trkpt>
      <trkpt lat="45.6203" lon="4.3889">
        <ele>537.3</ele>
        <time>2017-03-19T07:51:55Z</time>
      </trkpt>
      <trkpt lat="45.62036" lon="4.38886">
        <ele>538.1</ele>
        <time>2017-03-19T07:51:56Z</time>
      </trkpt>
      <trkpt lat="45.62039" lon="4.38883">
        <ele>538.7</ele>
        <time>2017-03-19T07:51:57Z</time>
      </trkpt>
      <trkpt lat="45.62043" lon="4.3888">
        <ele>539</ele>
        <time>2017-03-19T07:51:58Z</time>
      </trkpt>
      <trkpt lat="45.62048" lon="4.38877">
        <ele>539</ele>
        <time>2017-03-19T07:51:59Z</time>
      </trkpt>
      <trkpt lat="45.62052" lon="4.38874">
        <ele>539</ele>
        <time>2017-03-19T07:52:00Z</time>
      </trkpt>
      <trkpt lat="45.62054" lon="4.3887">
        <ele>539</ele>
        <time>2017-03-19T07:52:01Z</time>
      </trkpt>
      <trkpt lat="45.62056" lon="4.38864">
        <ele>539</ele>
        <time>2017-03-19T07:52:02Z</time>
      </trkpt>
      <trkpt lat="45.62056" lon="4.38857">
        <ele>539</ele>
        <time>2017-03-19T07:52:03Z</time>
      </trkpt>
      <trkpt lat="45.62056" lon="4.3885">
        <ele>539.1</ele>
        <time>2017-03-19T07:52:04Z</time>
      </trkpt>
      <trkpt lat="45.62055" lon="4.38843">
        <ele>539.2</ele>
        <time>2017-03-19T07:52:05Z</time>
      </trkpt>
      <trkpt lat="45.62053" lon="4.38837">
        <ele>539.3</ele>
        <time>2017-03-19T07:52:06Z</time>
      </trkpt>
      <trkpt lat="45.62053" lon="4.38832">
        <ele>539.5</ele>
        <time>2017-03-19T07:52:07Z</time>
      </trkpt>
      <trkpt lat="45.62053" lon="4.38826">
        <ele>539.9</ele>
        <time>2017-03-19T07:52:08Z</time>
      </trkpt>
      <trkpt lat="45.62053" lon="4.3882">
        <ele>540.2</ele>
        <time>2017-03-19T07:52:09Z</time>
      </trkpt>
      <trkpt lat="45.62052" lon="4.38815">
        <ele>540.4</ele>
        <time>2017-03-19T07:52:10Z</time>
      </trkpt>
      <trkpt lat="45.62051" lon="4.3881">
        <ele>540.7</ele>
        <time>2017-03-19T07:52:11Z</time>
      </trkpt>
      <trkpt lat="45.62049" lon="4.38806">
        <ele>540.9</ele>
        <time>2017-03-19T07:52:12Z</time>
      </trkpt>
      <trkpt lat="45.62048" lon="4.38802">
        <ele>541.1</ele>
        <time>2017-03-19T07:52:13Z</time>
      </trkpt>
      <trkpt lat="45.62046" lon="4.38794">
        <ele>541.4</ele>
        <time>2017-03-19T07:52:15Z</time>
      </trkpt>
      <trkpt lat="45.62042" lon="4.3879">
        <ele>541.6</ele>
        <time>2017-03-19T07:52:16Z</time>
      </trkpt>
      <trkpt lat="45.62039" lon="4.38784">
        <ele>541.5</ele>
        <time>2017-03-19T07:52:17Z</time>
      </trkpt>
      <trkpt lat="45.62037" lon="4.3878">
        <ele>541.3</ele>
        <time>2017-03-19T07:52:18Z</time>
      </trkpt>
      <trkpt lat="45.62035" lon="4.38775">
        <ele>541.1</ele>
        <time>2017-03-19T07:52:19Z</time>
      </trkpt>
      <trkpt lat="45.62033" lon="4.3877">
        <ele>541</ele>
        <time>2017-03-19T07:52:20Z</time>
      </trkpt>
      <trkpt lat="45.62031" lon="4.38765">
        <ele>540.9</ele>
        <time>2017-03-19T07:52:21Z</time>
      </trkpt>
      <trkpt lat="45.62029" lon="4.38759">
        <ele>540.9</ele>
        <time>2017-03-19T07:52:22Z</time>
      </trkpt>
      <trkpt lat="45.62028" lon="4.38754">
        <ele>540.8</ele>
        <time>2017-03-19T07:52:23Z</time>
      </trkpt>
      <trkpt lat="45.62026" lon="4.38749">
        <ele>540.7</ele>
        <time>2017-03-19T07:52:24Z</time>
      </trkpt>
      <trkpt lat="45.62024" lon="4.38743">
        <ele>540.7</ele>
        <time>2017-03-19T07:52:25Z</time>
      </trkpt>
      <trkpt lat="45.62023" lon="4.38737">
        <ele>540.6</ele>
        <time>2017-03-19T07:52:26Z</time>
      </trkpt>
      <trkpt lat="45.62021" lon="4.38731">
        <ele>540.5</ele>
        <time>2017-03-19T07:52:27Z</time>
      </trkpt>
      <trkpt lat="45.62019" lon="4.38725">
        <ele>540.4</ele>
        <time>2017-03-19T07:52:28Z</time>
      </trkpt>
      <trkpt lat="45.62017" lon="4.3872">
        <ele>540.2</ele>
        <time>2017-03-19T07:52:29Z</time>
      </trkpt>
      <trkpt lat="45.62015" lon="4.38715">
        <ele>540.1</ele>
        <time>2017-03-19T07:52:30Z</time>
      </trkpt>
      <trkpt lat="45.62012" lon="4.38711">
        <ele>539.9</ele>
        <time>2017-03-19T07:52:31Z</time>
      </trkpt>
      <trkpt lat="45.62008" lon="4.38709">
        <ele>539.8</ele>
        <time>2017-03-19T07:52:32Z</time>
      </trkpt>
      <trkpt lat="45.62003" lon="4.38706">
        <ele>539.7</ele>
        <time>2017-03-19T07:52:33Z</time>
      </trkpt>
      <trkpt lat="45.61999" lon="4.38705">
        <ele>539.5</ele>
        <time>2017-03-19T07:52:34Z</time>
      </trkpt>
      <trkpt lat="45.61995" lon="4.38704">
        <ele>539.4</ele>
        <time>2017-03-19T07:52:35Z</time>
      </trkpt>
      <trkpt lat="45.61991" lon="4.38701">
        <ele>539.2</ele>
        <time>2017-03-19T07:52:36Z</time>
      </trkpt>
      <trkpt lat="45.61988" lon="4.38697">
        <ele>539</ele>
        <time>2017-03-19T07:52:37Z</time>
      </trkpt>
      <trkpt lat="45.61984" lon="4.38694">
        <ele>538.8</ele>
        <time>2017-03-19T07:52:38Z</time>
      </trkpt>
      <trkpt lat="45.6198" lon="4.38692">
        <ele>538.4</ele>
        <time>2017-03-19T07:52:39Z</time>
      </trkpt>
      <trkpt lat="45.61976" lon="4.38689">
        <ele>538.1</ele>
        <time>2017-03-19T07:52:40Z</time>
      </trkpt>
      <trkpt lat="45.61971" lon="4.38686">
        <ele>537.6</ele>
        <time>2017-03-19T07:52:41Z</time>
      </trkpt>
      <trkpt lat="45.61966" lon="4.38683">
        <ele>537.2</ele>
        <time>2017-03-19T07:52:42Z</time>
      </trkpt>
      <trkpt lat="45.61961" lon="4.38679">
        <ele>536.6</ele>
        <time>2017-03-19T07:52:43Z</time>
      </trkpt>
      <trkpt lat="45.61956" lon="4.38675">
        <ele>536</ele>
        <time>2017-03-19T07:52:44Z</time>
      </trkpt>
      <trkpt lat="45.6195" lon="4.38672">
        <ele>535.6</ele>
        <time>2017-03-19T07:52:45Z</time>
      </trkpt>
      <trkpt lat="45.61946" lon="4.3867">
        <ele>535.2</ele>
        <time>2017-03-19T07:52:46Z</time>
      </trkpt>
      <trkpt lat="45.61941" lon="4.38668">
        <ele>535</ele>
        <time>2017-03-19T07:52:47Z</time>
      </trkpt>
      <trkpt lat="45.61936" lon="4.38666">
        <ele>534.7</ele>
        <time>2017-03-19T07:52:48Z</time>
      </trkpt>
      <trkpt lat="45.61931" lon="4.38665">
        <ele>534.4</ele>
        <time>2017-03-19T07:52:49Z</time>
      </trkpt>
      <trkpt lat="45.61927" lon="4.38662">
        <ele>534.3</ele>
        <time>2017-03-19T07:52:50Z</time>
      </trkpt>
      <trkpt lat="45.61923" lon="4.3866">
        <ele>533.9</ele>
        <time>2017-03-19T07:52:51Z</time>
      </trkpt>
      <trkpt lat="45.61918" lon="4.38658">
        <ele>533.7</ele>
        <time>2017-03-19T07:52:52Z</time>
      </trkpt>
      <trkpt lat="45.61913" lon="4.38656">
        <ele>533.2</ele>
        <time>2017-03-19T07:52:53Z</time>
      </trkpt>
      <trkpt lat="45.61907" lon="4.38653">
        <ele>532.5</ele>
        <time>2017-03-19T07:52:54Z</time>
      </trkpt>
      <trkpt lat="45.61901" lon="4.38649">
        <ele>531.4</ele>
        <time>2017-03-19T07:52:55Z</time>
      </trkpt>
      <trkpt lat="45.61895" lon="4.38644">
        <ele>530.1</ele>
        <time>2017-03-19T07:52:56Z</time>
      </trkpt>
      <trkpt lat="45.61888" lon="4.38638">
        <ele>529</ele>
        <time>2017-03-19T07:52:57Z</time>
      </trkpt>
      <trkpt lat="45.61882" lon="4.3863">
        <ele>527.8</ele>
        <time>2017-03-19T07:52:58Z</time>
      </trkpt>
      <trkpt lat="45.61876" lon="4.38621">
        <ele>526.8</ele>
        <time>2017-03-19T07:52:59Z</time>
      </trkpt>
      <trkpt lat="45.6187" lon="4.38611">
        <ele>525.4</ele>
        <time>2017-03-19T07:53:00Z</time>
      </trkpt>
      <trkpt lat="45.61863" lon="4.38601">
        <ele>523.4</ele>
        <time>2017-03-19T07:53:01Z</time>
      </trkpt>
      <trkpt lat="45.61857" lon="4.38593">
        <ele>521.1</ele>
        <time>2017-03-19T07:53:02Z</time>
      </trkpt>
      <trkpt lat="45.61851" lon="4.38584">
        <ele>520.2</ele>
        <time>2017-03-19T07:53:03Z</time>
      </trkpt>
      <trkpt lat="45.61845" lon="4.38578">
        <ele>518.9</ele>
        <time>2017-03-19T07:53:04Z</time>
      </trkpt>
      <trkpt lat="45.61838" lon="4.38574">
        <ele>518.3</ele>
        <time>2017-03-19T07:53:05Z</time>
      </trkpt>
      <trkpt lat="45.6183" lon="4.38572">
        <ele>517.8</ele>
        <time>2017-03-19T07:53:06Z</time>
      </trkpt>
      <trkpt lat="45.6182" lon="4.38571">
        <ele>516.8</ele>
        <time>2017-03-19T07:53:07Z</time>
      </trkpt>
      <trkpt lat="45.61812" lon="4.3857">
        <ele>516.1</ele>
        <time>2017-03-19T07:53:08Z</time>
      </trkpt>
      <trkpt lat="45.61804" lon="4.3857">
        <ele>515.1</ele>
        <time>2017-03-19T07:53:09Z</time>
      </trkpt>
      <trkpt lat="45.61795" lon="4.38571">
        <ele>513.7</ele>
        <time>2017-03-19T07:53:10Z</time>
      </trkpt>
      <trkpt lat="45.61785" lon="4.38571">
        <ele>512</ele>
        <time>2017-03-19T07:53:11Z</time>
      </trkpt>
      <trkpt lat="45.61776" lon="4.38572">
        <ele>510.5</ele>
        <time>2017-03-19T07:53:12Z</time>
      </trkpt>
      <trkpt lat="45.61767" lon="4.3857">
        <ele>509.3</ele>
        <time>2017-03-19T07:53:13Z</time>
      </trkpt>
      <trkpt lat="45.61758" lon="4.38569">
        <ele>507.9</ele>
        <time>2017-03-19T07:53:14Z</time>
      </trkpt>
      <trkpt lat="45.6175" lon="4.38569">
        <ele>507.3</ele>
        <time>2017-03-19T07:53:15Z</time>
      </trkpt>
      <trkpt lat="45.61744" lon="4.38569">
        <ele>507</ele>
        <time>2017-03-19T07:53:16Z</time>
      </trkpt>
      <trkpt lat="45.6174" lon="4.38569">
        <ele>507.4</ele>
        <time>2017-03-19T07:53:17Z</time>
      </trkpt>
      <trkpt lat="45.61737" lon="4.3857">
        <ele>507.9</ele>
        <time>2017-03-19T07:53:18Z</time>
      </trkpt>
      <trkpt lat="45.61735" lon="4.38567">
        <ele>508.4</ele>
        <time>2017-03-19T07:53:19Z</time>
      </trkpt>
      <trkpt lat="45.61732" lon="4.38564">
        <ele>508.9</ele>
        <time>2017-03-19T07:53:20Z</time>
      </trkpt>
      <trkpt lat="45.61731" lon="4.3856">
        <ele>509.4</ele>
        <time>2017-03-19T07:53:21Z</time>
      </trkpt>
      <trkpt lat="45.61731" lon="4.38555">
        <ele>509.9</ele>
        <time>2017-03-19T07:53:22Z</time>
      </trkpt>
      <trkpt lat="45.6173" lon="4.3855">
        <ele>510.3</ele>
        <time>2017-03-19T07:53:23Z</time>
      </trkpt>
      <trkpt lat="45.61731" lon="4.38544">
        <ele>510.8</ele>
        <time>2017-03-19T07:53:24Z</time>
      </trkpt>
      <trkpt lat="45.61732" lon="4.38537">
        <ele>511.2</ele>
        <time>2017-03-19T07:53:25Z</time>
      </trkpt>
      <trkpt lat="45.61733" lon="4.38531">
        <ele>511.5</ele>
        <time>2017-03-19T07:53:26Z</time>
      </trkpt>
      <trkpt lat="45.61735" lon="4.38524">
        <ele>511.7</ele>
        <time>2017-03-19T07:53:27Z</time>
      </trkpt>
      <trkpt lat="45.61735" lon="4.38518">
        <ele>511.9</ele>
        <time>2017-03-19T07:53:28Z</time>
      </trkpt>
      <trkpt lat="45.61737" lon="4.38512">
        <ele>512.1</ele>
        <time>2017-03-19T07:53:29Z</time>
      </trkpt>
      <trkpt lat="45.6174" lon="4.38506">
        <ele>512.3</ele>
        <time>2017-03-19T07:53:30Z</time>
      </trkpt>
      <trkpt lat="45.61742" lon="4.38501">
        <ele>512.4</ele>
        <time>2017-03-19T07:53:31Z</time>
      </trkpt>
      <trkpt lat="45.61744" lon="4.38495">
        <ele>512.5</ele>
        <time>2017-03-19T07:53:32Z</time>
      </trkpt>
      <trkpt lat="45.61747" lon="4.3849">
        <ele>512.5</ele>
        <time>2017-03-19T07:53:33Z</time>
      </trkpt>
      <trkpt lat="45.6175" lon="4.38485">
        <ele>512.6</ele>
        <time>2017-03-19T07:53:34Z</time>
      </trkpt>
      <trkpt lat="45.61752" lon="4.3848">
        <ele>512.6</ele>
        <time>2017-03-19T07:53:35Z</time>
      </trkpt>
      <trkpt lat="45.61755" lon="4.38474">
        <ele>512.7</ele>
        <time>2017-03-19T07:53:36Z</time>
      </trkpt>
      <trkpt lat="45.61758" lon="4.38468">
        <ele>513</ele>
        <time>2017-03-19T07:53:37Z</time>
      </trkpt>
      <trkpt lat="45.61761" lon="4.38462">
        <ele>513.3</ele>
        <time>2017-03-19T07:53:38Z</time>
      </trkpt>
      <trkpt lat="45.61764" lon="4.38457">
        <ele>513.5</ele>
        <time>2017-03-19T07:53:39Z</time>
      </trkpt>
      <trkpt lat="45.61767" lon="4.38452">
        <ele>513.6</ele>
        <time>2017-03-19T07:53:40Z</time>
      </trkpt>
      <trkpt lat="45.61769" lon="4.38447">
        <ele>513.4</ele>
        <time>2017-03-19T07:53:41Z</time>
      </trkpt>
      <trkpt lat="45.61771" lon="4.38441">
        <ele>513.3</ele>
        <time>2017-03-19T07:53:42Z</time>
      </trkpt>
      <trkpt lat="45.61774" lon="4.38436">
        <ele>513.1</ele>
        <time>2017-03-19T07:53:43Z</time>
      </trkpt>
      <trkpt lat="45.61776" lon="4.38431">
        <ele>513.1</ele>
        <time>2017-03-19T07:53:44Z</time>
      </trkpt>
      <trkpt lat="45.61778" lon="4.38425">
        <ele>513.2</ele>
        <time>2017-03-19T07:53:45Z</time>
      </trkpt>
      <trkpt lat="45.6178" lon="4.38418">
        <ele>513.4</ele>
        <time>2017-03-19T07:53:46Z</time>
      </trkpt>
      <trkpt lat="45.61782" lon="4.38412">
        <ele>513.6</ele>
        <time>2017-03-19T07:53:47Z</time>
      </trkpt>
      <trkpt lat="45.61784" lon="4.38405">
        <ele>513.8</ele>
        <time>2017-03-19T07:53:48Z</time>
      </trkpt>
      <trkpt lat="45.61785" lon="4.38399">
        <ele>514</ele>
        <time>2017-03-19T07:53:49Z</time>
      </trkpt>
      <trkpt lat="45.61787" lon="4.38393">
        <ele>514.2</ele>
        <time>2017-03-19T07:53:50Z</time>
      </trkpt>
      <trkpt lat="45.61788" lon="4.38387">
        <ele>514.3</ele>
        <time>2017-03-19T07:53:51Z</time>
      </trkpt>
      <trkpt lat="45.61789" lon="4.38381">
        <ele>514.3</ele>
        <time>2017-03-19T07:53:52Z</time>
      </trkpt>
      <trkpt lat="45.61792" lon="4.38375">
        <ele>514.2</ele>
        <time>2017-03-19T07:53:53Z</time>
      </trkpt>
      <trkpt lat="45.61794" lon="4.3837">
        <ele>514.2</ele>
        <time>2017-03-19T07:53:54Z</time>
      </trkpt>
      <trkpt lat="45.61795" lon="4.38365">
        <ele>514.1</ele>
        <time>2017-03-19T07:53:55Z</time>
      </trkpt>
      <trkpt lat="45.61797" lon="4.38358">
        <ele>514.1</ele>
        <time>2017-03-19T07:53:56Z</time>
      </trkpt>
      <trkpt lat="45.61798" lon="4.38353">
        <ele>514</ele>
        <time>2017-03-19T07:53:57Z</time>
      </trkpt>
      <trkpt lat="45.61801" lon="4.38347">
        <ele>514</ele>
        <time>2017-03-19T07:53:58Z</time>
      </trkpt>
      <trkpt lat="45.61803" lon="4.38341">
        <ele>513.9</ele>
        <time>2017-03-19T07:53:59Z</time>
      </trkpt>
      <trkpt lat="45.61805" lon="4.38336">
        <ele>513.8</ele>
        <time>2017-03-19T07:54:00Z</time>
      </trkpt>
      <trkpt lat="45.61806" lon="4.3833">
        <ele>513.8</ele>
        <time>2017-03-19T07:54:01Z</time>
      </trkpt>
      <trkpt lat="45.61808" lon="4.38325">
        <ele>513.5</ele>
        <time>2017-03-19T07:54:02Z</time>
      </trkpt>
      <trkpt lat="45.61811" lon="4.38318">
        <ele>513.3</ele>
        <time>2017-03-19T07:54:03Z</time>
      </trkpt>
      <trkpt lat="45.61813" lon="4.38311">
        <ele>513.1</ele>
        <time>2017-03-19T07:54:04Z</time>
      </trkpt>
      <trkpt lat="45.61814" lon="4.38305">
        <ele>512.7</ele>
        <time>2017-03-19T07:54:05Z</time>
      </trkpt>
      <trkpt lat="45.61816" lon="4.38298">
        <ele>512.3</ele>
        <time>2017-03-19T07:54:06Z</time>
      </trkpt>
      <trkpt lat="45.61817" lon="4.38291">
        <ele>512</ele>
        <time>2017-03-19T07:54:07Z</time>
      </trkpt>
      <trkpt lat="45.61819" lon="4.38284">
        <ele>511.6</ele>
        <time>2017-03-19T07:54:08Z</time>
      </trkpt>
      <trkpt lat="45.61822" lon="4.38276">
        <ele>511.2</ele>
        <time>2017-03-19T07:54:09Z</time>
      </trkpt>
      <trkpt lat="45.61824" lon="4.38268">
        <ele>511</ele>
        <time>2017-03-19T07:54:10Z</time>
      </trkpt>
      <trkpt lat="45.61826" lon="4.38259">
        <ele>510.6</ele>
        <time>2017-03-19T07:54:11Z</time>
      </trkpt>
      <trkpt lat="45.61828" lon="4.38248">
        <ele>510</ele>
        <time>2017-03-19T07:54:12Z</time>
      </trkpt>
      <trkpt lat="45.6183" lon="4.38237">
        <ele>509.2</ele>
        <time>2017-03-19T07:54:13Z</time>
      </trkpt>
      <trkpt lat="45.61832" lon="4.38227">
        <ele>508.6</ele>
        <time>2017-03-19T07:54:14Z</time>
      </trkpt>
      <trkpt lat="45.61833" lon="4.38217">
        <ele>508.3</ele>
        <time>2017-03-19T07:54:15Z</time>
      </trkpt>
      <trkpt lat="45.61835" lon="4.38208">
        <ele>508</ele>
        <time>2017-03-19T07:54:16Z</time>
      </trkpt>
      <trkpt lat="45.61837" lon="4.38198">
        <ele>507.9</ele>
        <time>2017-03-19T07:54:17Z</time>
      </trkpt>
      <trkpt lat="45.61839" lon="4.3819">
        <ele>508</ele>
        <time>2017-03-19T07:54:18Z</time>
      </trkpt>
      <trkpt lat="45.61842" lon="4.38182">
        <ele>508.2</ele>
        <time>2017-03-19T07:54:19Z</time>
      </trkpt>
      <trkpt lat="45.61845" lon="4.38176">
        <ele>508.7</ele>
        <time>2017-03-19T07:54:20Z</time>
      </trkpt>
      <trkpt lat="45.61849" lon="4.3817">
        <ele>509.2</ele>
        <time>2017-03-19T07:54:21Z</time>
      </trkpt>
      <trkpt lat="45.61853" lon="4.38165">
        <ele>509.5</ele>
        <time>2017-03-19T07:54:22Z</time>
      </trkpt>
      <trkpt lat="45.61857" lon="4.38159">
        <ele>509.9</ele>
        <time>2017-03-19T07:54:23Z</time>
      </trkpt>
      <trkpt lat="45.6186" lon="4.38153">
        <ele>510.1</ele>
        <time>2017-03-19T07:54:24Z</time>
      </trkpt>
      <trkpt lat="45.61864" lon="4.38147">
        <ele>510.3</ele>
        <time>2017-03-19T07:54:25Z</time>
      </trkpt>
      <trkpt lat="45.61868" lon="4.38142">
        <ele>510.5</ele>
        <time>2017-03-19T07:54:26Z</time>
      </trkpt>
      <trkpt lat="45.61871" lon="4.38137">
        <ele>510.7</ele>
        <time>2017-03-19T07:54:27Z</time>
      </trkpt>
      <trkpt lat="45.61875" lon="4.38131">
        <ele>511.1</ele>
        <time>2017-03-19T07:54:28Z</time>
      </trkpt>
      <trkpt lat="45.61878" lon="4.38125">
        <ele>511.4</ele>
        <time>2017-03-19T07:54:29Z</time>
      </trkpt>
      <trkpt lat="45.61883" lon="4.3812">
        <ele>511.9</ele>
        <time>2017-03-19T07:54:30Z</time>
      </trkpt>
      <trkpt lat="45.61887" lon="4.38114">
        <ele>512.4</ele>
        <time>2017-03-19T07:54:31Z</time>
      </trkpt>
      <trkpt lat="45.61891" lon="4.38109">
        <ele>512.8</ele>
        <time>2017-03-19T07:54:32Z</time>
      </trkpt>
      <trkpt lat="45.61894" lon="4.38104">
        <ele>513</ele>
        <time>2017-03-19T07:54:33Z</time>
      </trkpt>
      <trkpt lat="45.61898" lon="4.38099">
        <ele>513.2</ele>
        <time>2017-03-19T07:54:34Z</time>
      </trkpt>
      <trkpt lat="45.61902" lon="4.38094">
        <ele>513.2</ele>
        <time>2017-03-19T07:54:35Z</time>
      </trkpt>
      <trkpt lat="45.61905" lon="4.38089">
        <ele>513</ele>
        <time>2017-03-19T07:54:36Z</time>
      </trkpt>
      <trkpt lat="45.61908" lon="4.38084">
        <ele>513</ele>
        <time>2017-03-19T07:54:37Z</time>
      </trkpt>
      <trkpt lat="45.61911" lon="4.38078">
        <ele>512.9</ele>
        <time>2017-03-19T07:54:38Z</time>
      </trkpt>
      <trkpt lat="45.61914" lon="4.38071">
        <ele>512.8</ele>
        <time>2017-03-19T07:54:39Z</time>
      </trkpt>
      <trkpt lat="45.61917" lon="4.38065">
        <ele>512.8</ele>
        <time>2017-03-19T07:54:40Z</time>
      </trkpt>
      <trkpt lat="45.61919" lon="4.38059">
        <ele>512.8</ele>
        <time>2017-03-19T07:54:41Z</time>
      </trkpt>
      <trkpt lat="45.61921" lon="4.38052">
        <ele>512.8</ele>
        <time>2017-03-19T07:54:42Z</time>
      </trkpt>
      <trkpt lat="45.61923" lon="4.38045">
        <ele>512.6</ele>
        <time>2017-03-19T07:54:43Z</time>
      </trkpt>
      <trkpt lat="45.61924" lon="4.38038">
        <ele>512.4</ele>
        <time>2017-03-19T07:54:44Z</time>
      </trkpt>
      <trkpt lat="45.61926" lon="4.38031">
        <ele>512</ele>
        <time>2017-03-19T07:54:45Z</time>
      </trkpt>
      <trkpt lat="45.61927" lon="4.38024">
        <ele>511.6</ele>
        <time>2017-03-19T07:54:46Z</time>
      </trkpt>
      <trkpt lat="45.61929" lon="4.38018">
        <ele>511.1</ele>
        <time>2017-03-19T07:54:47Z</time>
      </trkpt>
      <trkpt lat="45.61931" lon="4.38011">
        <ele>510.9</ele>
        <time>2017-03-19T07:54:48Z</time>
      </trkpt>
      <trkpt lat="45.61933" lon="4.38004">
        <ele>510.7</ele>
        <time>2017-03-19T07:54:49Z</time>
      </trkpt>
      <trkpt lat="45.61935" lon="4.37997">
        <ele>510.6</ele>
        <time>2017-03-19T07:54:50Z</time>
      </trkpt>
      <trkpt lat="45.61936" lon="4.37989">
        <ele>510.5</ele>
        <time>2017-03-19T07:54:51Z</time>
      </trkpt>
      <trkpt lat="45.61938" lon="4.37982">
        <ele>510.4</ele>
        <time>2017-03-19T07:54:52Z</time>
      </trkpt>
      <trkpt lat="45.61941" lon="4.37974">
        <ele>510.3</ele>
        <time>2017-03-19T07:54:53Z</time>
      </trkpt>
      <trkpt lat="45.61943" lon="4.37967">
        <ele>510.2</ele>
        <time>2017-03-19T07:54:54Z</time>
      </trkpt>
      <trkpt lat="45.61944" lon="4.37959">
        <ele>509.9</ele>
        <time>2017-03-19T07:54:55Z</time>
      </trkpt>
      <trkpt lat="45.61946" lon="4.37951">
        <ele>509.7</ele>
        <time>2017-03-19T07:54:56Z</time>
      </trkpt>
      <trkpt lat="45.61948" lon="4.37942">
        <ele>509.6</ele>
        <time>2017-03-19T07:54:57Z</time>
      </trkpt>
      <trkpt lat="45.6195" lon="4.37934">
        <ele>509.7</ele>
        <time>2017-03-19T07:54:58Z</time>
      </trkpt>
      <trkpt lat="45.61952" lon="4.37927">
        <ele>509.6</ele>
        <time>2017-03-19T07:54:59Z</time>
      </trkpt>
      <trkpt lat="45.61953" lon="4.37921">
        <ele>509.4</ele>
        <time>2017-03-19T07:55:00Z</time>
      </trkpt>
      <trkpt lat="45.61955" lon="4.37916">
        <ele>509.3</ele>
        <time>2017-03-19T07:55:01Z</time>
      </trkpt>
      <trkpt lat="45.61957" lon="4.37911">
        <ele>509.2</ele>
        <time>2017-03-19T07:55:02Z</time>
      </trkpt>
      <trkpt lat="45.61959" lon="4.37906">
        <ele>509</ele>
        <time>2017-03-19T07:55:03Z</time>
      </trkpt>
      <trkpt lat="45.6196" lon="4.37902">
        <ele>508.9</ele>
        <time>2017-03-19T07:55:04Z</time>
      </trkpt>
      <trkpt lat="45.61961" lon="4.37898">
        <ele>508.7</ele>
        <time>2017-03-19T07:55:05Z</time>
      </trkpt>
      <trkpt lat="45.61962" lon="4.37894">
        <ele>508.3</ele>
        <time>2017-03-19T07:55:06Z</time>
      </trkpt>
      <trkpt lat="45.6196" lon="4.37889">
        <ele>508</ele>
        <time>2017-03-19T07:55:07Z</time>
      </trkpt>
      <trkpt lat="45.61957" lon="4.37886">
        <ele>508</ele>
        <time>2017-03-19T07:55:08Z</time>
      </trkpt>
      <trkpt lat="45.61953" lon="4.37882">
        <ele>507.9</ele>
        <time>2017-03-19T07:55:09Z</time>
      </trkpt>
      <trkpt lat="45.61949" lon="4.3788">
        <ele>507.8</ele>
        <time>2017-03-19T07:55:10Z</time>
      </trkpt>
      <trkpt lat="45.61944" lon="4.37877">
        <ele>507.7</ele>
        <time>2017-03-19T07:55:11Z</time>
      </trkpt>
      <trkpt lat="45.61939" lon="4.37875">
        <ele>507.7</ele>
        <time>2017-03-19T07:55:12Z</time>
      </trkpt>
      <trkpt lat="45.61934" lon="4.37873">
        <ele>507.6</ele>
        <time>2017-03-19T07:55:13Z</time>
      </trkpt>
      <trkpt lat="45.61929" lon="4.37871">
        <ele>507.5</ele>
        <time>2017-03-19T07:55:14Z</time>
      </trkpt>
      <trkpt lat="45.61923" lon="4.37868">
        <ele>507.4</ele>
        <time>2017-03-19T07:55:15Z</time>
      </trkpt>
      <trkpt lat="45.61919" lon="4.37866">
        <ele>507.3</ele>
        <time>2017-03-19T07:55:16Z</time>
      </trkpt>
      <trkpt lat="45.61913" lon="4.37863">
        <ele>507.3</ele>
        <time>2017-03-19T07:55:17Z</time>
      </trkpt>
      <trkpt lat="45.61908" lon="4.37861">
        <ele>507.2</ele>
        <time>2017-03-19T07:55:18Z</time>
      </trkpt>
      <trkpt lat="45.61903" lon="4.37858">
        <ele>507.1</ele>
        <time>2017-03-19T07:55:19Z</time>
      </trkpt>
      <trkpt lat="45.61898" lon="4.37855">
        <ele>507.1</ele>
        <time>2017-03-19T07:55:20Z</time>
      </trkpt>
      <trkpt lat="45.61893" lon="4.37851">
        <ele>507.1</ele>
        <time>2017-03-19T07:55:21Z</time>
      </trkpt>
      <trkpt lat="45.61888" lon="4.37847">
        <ele>507</ele>
        <time>2017-03-19T07:55:22Z</time>
      </trkpt>
      <trkpt lat="45.61883" lon="4.37843">
        <ele>507</ele>
        <time>2017-03-19T07:55:23Z</time>
      </trkpt>
      <trkpt lat="45.61878" lon="4.37838">
        <ele>507</ele>
        <time>2017-03-19T07:55:24Z</time>
      </trkpt>
      <trkpt lat="45.61874" lon="4.37833">
        <ele>506.9</ele>
        <time>2017-03-19T07:55:25Z</time>
      </trkpt>
      <trkpt lat="45.6187" lon="4.37827">
        <ele>506.8</ele>
        <time>2017-03-19T07:55:26Z</time>
      </trkpt>
      <trkpt lat="45.61866" lon="4.37821">
        <ele>506.7</ele>
        <time>2017-03-19T07:55:27Z</time>
      </trkpt>
      <trkpt lat="45.61863" lon="4.37815">
        <ele>506.6</ele>
        <time>2017-03-19T07:55:28Z</time>
      </trkpt>
      <trkpt lat="45.61859" lon="4.37808">
        <ele>506.5</ele>
        <time>2017-03-19T07:55:29Z</time>
      </trkpt>
      <trkpt lat="45.61856" lon="4.37801">
        <ele>506.4</ele>
        <time>2017-03-19T07:55:30Z</time>
      </trkpt>
      <trkpt lat="45.61854" lon="4.37794">
        <ele>506.3</ele>
        <time>2017-03-19T07:55:31Z</time>
      </trkpt>
      <trkpt lat="45.61851" lon="4.37786">
        <ele>506.2</ele>
        <time>2017-03-19T07:55:32Z</time>
      </trkpt>
      <trkpt lat="45.61848" lon="4.37779">
        <ele>506</ele>
        <time>2017-03-19T07:55:33Z</time>
      </trkpt>
      <trkpt lat="45.61845" lon="4.37772">
        <ele>505.9</ele>
        <time>2017-03-19T07:55:34Z</time>
      </trkpt>
      <trkpt lat="45.61843" lon="4.37764">
        <ele>505.8</ele>
        <time>2017-03-19T07:55:35Z</time>
      </trkpt>
      <trkpt lat="45.6184" lon="4.37758">
        <ele>505.6</ele>
        <time>2017-03-19T07:55:36Z</time>
      </trkpt>
      <trkpt lat="45.61838" lon="4.37751">
        <ele>505.5</ele>
        <time>2017-03-19T07:55:37Z</time>
      </trkpt>
      <trkpt lat="45.61836" lon="4.37743">
        <ele>505.3</ele>
        <time>2017-03-19T07:55:38Z</time>
      </trkpt>
      <trkpt lat="45.61835" lon="4.37738">
        <ele>505.1</ele>
        <time>2017-03-19T07:55:39Z</time>
      </trkpt>
      <trkpt lat="45.61833" lon="4.3773">
        <ele>504.9</ele>
        <time>2017-03-19T07:55:40Z</time>
      </trkpt>
      <trkpt lat="45.61831" lon="4.37723">
        <ele>504.6</ele>
        <time>2017-03-19T07:55:41Z</time>
      </trkpt>
      <trkpt lat="45.61829" lon="4.37716">
        <ele>504.4</ele>
        <time>2017-03-19T07:55:42Z</time>
      </trkpt>
      <trkpt lat="45.61827" lon="4.3771">
        <ele>504.1</ele>
        <time>2017-03-19T07:55:43Z</time>
      </trkpt>
      <trkpt lat="45.61826" lon="4.37703">
        <ele>503.8</ele>
        <time>2017-03-19T07:55:44Z</time>
      </trkpt>
      <trkpt lat="45.61824" lon="4.37697">
        <ele>503.5</ele>
        <time>2017-03-19T07:55:45Z</time>
      </trkpt>
      <trkpt lat="45.61822" lon="4.37689">
        <ele>503.2</ele>
        <time>2017-03-19T07:55:46Z</time>
      </trkpt>
      <trkpt lat="45.6182" lon="4.37682">
        <ele>502.8</ele>
        <time>2017-03-19T07:55:47Z</time>
      </trkpt>
      <trkpt lat="45.61818" lon="4.37675">
        <ele>502.5</ele>
        <time>2017-03-19T07:55:48Z</time>
      </trkpt>
      <trkpt lat="45.61816" lon="4.37668">
        <ele>502.1</ele>
        <time>2017-03-19T07:55:49Z</time>
      </trkpt>
      <trkpt lat="45.61814" lon="4.37662">
        <ele>501.8</ele>
        <time>2017-03-19T07:55:50Z</time>
      </trkpt>
      <trkpt lat="45.61812" lon="4.37655">
        <ele>501.4</ele>
        <time>2017-03-19T07:55:51Z</time>
      </trkpt>
      <trkpt lat="45.61811" lon="4.37648">
        <ele>501</ele>
        <time>2017-03-19T07:55:52Z</time>
      </trkpt>
      <trkpt lat="45.61809" lon="4.37641">
        <ele>500.7</ele>
        <time>2017-03-19T07:55:53Z</time>
      </trkpt>
      <trkpt lat="45.61808" lon="4.37634">
        <ele>500.3</ele>
        <time>2017-03-19T07:55:54Z</time>
      </trkpt>
      <trkpt lat="45.61807" lon="4.37625">
        <ele>499.8</ele>
        <time>2017-03-19T07:55:55Z</time>
      </trkpt>
      <trkpt lat="45.61806" lon="4.37616">
        <ele>499.3</ele>
        <time>2017-03-19T07:55:56Z</time>
      </trkpt>
      <trkpt lat="45.61805" lon="4.37608">
        <ele>498.9</ele>
        <time>2017-03-19T07:55:57Z</time>
      </trkpt>
      <trkpt lat="45.61804" lon="4.376">
        <ele>498.5</ele>
        <time>2017-03-19T07:55:58Z</time>
      </trkpt>
      <trkpt lat="45.61803" lon="4.37592">
        <ele>498.1</ele>
        <time>2017-03-19T07:55:59Z</time>
      </trkpt>
      <trkpt lat="45.61803" lon="4.37584">
        <ele>497.7</ele>
        <time>2017-03-19T07:56:00Z</time>
      </trkpt>
      <trkpt lat="45.61802" lon="4.37575">
        <ele>497.2</ele>
        <time>2017-03-19T07:56:01Z</time>
      </trkpt>
      <trkpt lat="45.618" lon="4.37567">
        <ele>496.8</ele>
        <time>2017-03-19T07:56:02Z</time>
      </trkpt>
      <trkpt lat="45.61799" lon="4.37559">
        <ele>496.4</ele>
        <time>2017-03-19T07:56:03Z</time>
      </trkpt>
      <trkpt lat="45.61796" lon="4.37549">
        <ele>495.8</ele>
        <time>2017-03-19T07:56:04Z</time>
      </trkpt>
      <trkpt lat="45.61795" lon="4.3754">
        <ele>495.3</ele>
        <time>2017-03-19T07:56:05Z</time>
      </trkpt>
      <trkpt lat="45.61793" lon="4.37532">
        <ele>494.8</ele>
        <time>2017-03-19T07:56:06Z</time>
      </trkpt>
      <trkpt lat="45.61792" lon="4.37521">
        <ele>494.3</ele>
        <time>2017-03-19T07:56:07Z</time>
      </trkpt>
      <trkpt lat="45.61794" lon="4.37512">
        <ele>493.4</ele>
        <time>2017-03-19T07:56:08Z</time>
      </trkpt>
      <trkpt lat="45.61796" lon="4.37504">
        <ele>493.4</ele>
        <time>2017-03-19T07:56:09Z</time>
      </trkpt>
      <trkpt lat="45.61801" lon="4.37498">
        <ele>493.1</ele>
        <time>2017-03-19T07:56:10Z</time>
      </trkpt>
      <trkpt lat="45.61806" lon="4.37494">
        <ele>492.8</ele>
        <time>2017-03-19T07:56:11Z</time>
      </trkpt>
      <trkpt lat="45.61812" lon="4.37488">
        <ele>492.4</ele>
        <time>2017-03-19T07:56:12Z</time>
      </trkpt>
      <trkpt lat="45.61818" lon="4.37486">
        <ele>491.8</ele>
        <time>2017-03-19T07:56:13Z</time>
      </trkpt>
      <trkpt lat="45.61823" lon="4.37482">
        <ele>491.3</ele>
        <time>2017-03-19T07:56:14Z</time>
      </trkpt>
      <trkpt lat="45.61828" lon="4.3748">
        <ele>490.8</ele>
        <time>2017-03-19T07:56:15Z</time>
      </trkpt>
      <trkpt lat="45.61833" lon="4.37477">
        <ele>490.5</ele>
        <time>2017-03-19T07:56:16Z</time>
      </trkpt>
      <trkpt lat="45.61838" lon="4.37475">
        <ele>490.3</ele>
        <time>2017-03-19T07:56:17Z</time>
      </trkpt>
      <trkpt lat="45.61843" lon="4.37473">
        <ele>490.1</ele>
        <time>2017-03-19T07:56:18Z</time>
      </trkpt>
      <trkpt lat="45.61849" lon="4.37472">
        <ele>490.2</ele>
        <time>2017-03-19T07:56:19Z</time>
      </trkpt>
      <trkpt lat="45.61857" lon="4.37471">
        <ele>490.2</ele>
        <time>2017-03-19T07:56:20Z</time>
      </trkpt>
      <trkpt lat="45.61863" lon="4.37469">
        <ele>490.1</ele>
        <time>2017-03-19T07:56:21Z</time>
      </trkpt>
      <trkpt lat="45.6187" lon="4.3747">
        <ele>490</ele>
        <time>2017-03-19T07:56:22Z</time>
      </trkpt>
      <trkpt lat="45.61877" lon="4.3747">
        <ele>489.7</ele>
        <time>2017-03-19T07:56:23Z</time>
      </trkpt>
      <trkpt lat="45.61884" lon="4.37471">
        <ele>489.3</ele>
        <time>2017-03-19T07:56:24Z</time>
      </trkpt>
      <trkpt lat="45.61891" lon="4.37472">
        <ele>489</ele>
        <time>2017-03-19T07:56:25Z</time>
      </trkpt>
      <trkpt lat="45.61898" lon="4.37474">
        <ele>488.5</ele>
        <time>2017-03-19T07:56:26Z</time>
      </trkpt>
      <trkpt lat="45.61906" lon="4.37477">
        <ele>488.3</ele>
        <time>2017-03-19T07:56:27Z</time>
      </trkpt>
      <trkpt lat="45.61913" lon="4.37483">
        <ele>488</ele>
        <time>2017-03-19T07:56:28Z</time>
      </trkpt>
      <trkpt lat="45.61921" lon="4.37492">
        <ele>487.4</ele>
        <time>2017-03-19T07:56:29Z</time>
      </trkpt>
      <trkpt lat="45.61929" lon="4.37499">
        <ele>486.6</ele>
        <time>2017-03-19T07:56:30Z</time>
      </trkpt>
      <trkpt lat="45.61937" lon="4.37503">
        <ele>486.3</ele>
        <time>2017-03-19T07:56:31Z</time>
      </trkpt>
      <trkpt lat="45.61944" lon="4.37506">
        <ele>486.5</ele>
        <time>2017-03-19T07:56:32Z</time>
      </trkpt>
      <trkpt lat="45.61952" lon="4.37507">
        <ele>487</ele>
        <time>2017-03-19T07:56:33Z</time>
      </trkpt>
      <trkpt lat="45.61959" lon="4.37507">
        <ele>487.7</ele>
        <time>2017-03-19T07:56:34Z</time>
      </trkpt>
      <trkpt lat="45.61965" lon="4.37507">
        <ele>488.3</ele>
        <time>2017-03-19T07:56:35Z</time>
      </trkpt>
      <trkpt lat="45.6197" lon="4.37505">
        <ele>488.8</ele>
        <time>2017-03-19T07:56:36Z</time>
      </trkpt>
      <trkpt lat="45.61973" lon="4.37502">
        <ele>488.7</ele>
        <time>2017-03-19T07:56:37Z</time>
      </trkpt>
      <trkpt lat="45.61975" lon="4.37499">
        <ele>488.7</ele>
        <time>2017-03-19T07:56:38Z</time>
      </trkpt>
      <trkpt lat="45.61978" lon="4.37496">
        <ele>488.6</ele>
        <time>2017-03-19T07:56:39Z</time>
      </trkpt>
      <trkpt lat="45.6198" lon="4.37493">
        <ele>488.4</ele>
        <time>2017-03-19T07:56:40Z</time>
      </trkpt>
      <trkpt lat="45.61983" lon="4.3749">
        <ele>488.2</ele>
        <time>2017-03-19T07:56:41Z</time>
      </trkpt>
      <trkpt lat="45.61985" lon="4.37487">
        <ele>488</ele>
        <time>2017-03-19T07:56:42Z</time>
      </trkpt>
      <trkpt lat="45.61988" lon="4.37484">
        <ele>488</ele>
        <time>2017-03-19T07:56:44Z</time>
      </trkpt>
      <trkpt lat="45.61989" lon="4.37481">
        <ele>488</ele>
        <time>2017-03-19T07:56:46Z</time>
      </trkpt>
      <trkpt lat="45.61994" lon="4.37481">
        <ele>488</ele>
        <time>2017-03-19T07:56:48Z</time>
      </trkpt>
      <trkpt lat="45.61997" lon="4.37482">
        <ele>488</ele>
        <time>2017-03-19T07:56:49Z</time>
      </trkpt>
      <trkpt lat="45.62" lon="4.37483">
        <ele>488.1</ele>
        <time>2017-03-19T07:56:50Z</time>
      </trkpt>
      <trkpt lat="45.62003" lon="4.37484">
        <ele>488.2</ele>
        <time>2017-03-19T07:56:51Z</time>
      </trkpt>
      <trkpt lat="45.62007" lon="4.37486">
        <ele>488.4</ele>
        <time>2017-03-19T07:56:52Z</time>
      </trkpt>
      <trkpt lat="45.6201" lon="4.37488">
        <ele>488.7</ele>
        <time>2017-03-19T07:56:53Z</time>
      </trkpt>
      <trkpt lat="45.62014" lon="4.37491">
        <ele>489</ele>
        <time>2017-03-19T07:56:54Z</time>
      </trkpt>
      <trkpt lat="45.62017" lon="4.37494">
        <ele>489.3</ele>
        <time>2017-03-19T07:56:55Z</time>
      </trkpt>
      <trkpt lat="45.62021" lon="4.37496">
        <ele>489.6</ele>
        <time>2017-03-19T07:56:56Z</time>
      </trkpt>
      <trkpt lat="45.62025" lon="4.37498">
        <ele>490</ele>
        <time>2017-03-19T07:56:57Z</time>
      </trkpt>
      <trkpt lat="45.6203" lon="4.37501">
        <ele>490.3</ele>
        <time>2017-03-19T07:56:58Z</time>
      </trkpt>
      <trkpt lat="45.62035" lon="4.37503">
        <ele>490.5</ele>
        <time>2017-03-19T07:56:59Z</time>
      </trkpt>
      <trkpt lat="45.62039" lon="4.37506">
        <ele>490.7</ele>
        <time>2017-03-19T07:57:00Z</time>
      </trkpt>
      <trkpt lat="45.62042" lon="4.37508">
        <ele>490.9</ele>
        <time>2017-03-19T07:57:01Z</time>
      </trkpt>
      <trkpt lat="45.62046" lon="4.3751">
        <ele>491.3</ele>
        <time>2017-03-19T07:57:02Z</time>
      </trkpt>
      <trkpt lat="45.62051" lon="4.37512">
        <ele>491.5</ele>
        <time>2017-03-19T07:57:03Z</time>
      </trkpt>
      <trkpt lat="45.62056" lon="4.37513">
        <ele>491.6</ele>
        <time>2017-03-19T07:57:04Z</time>
      </trkpt>
      <trkpt lat="45.6206" lon="4.37513">
        <ele>491.7</ele>
        <time>2017-03-19T07:57:05Z</time>
      </trkpt>
      <trkpt lat="45.62064" lon="4.37512">
        <ele>491.8</ele>
        <time>2017-03-19T07:57:06Z</time>
      </trkpt>
      <trkpt lat="45.62068" lon="4.37511">
        <ele>491.7</ele>
        <time>2017-03-19T07:57:07Z</time>
      </trkpt>
      <trkpt lat="45.62073" lon="4.3751">
        <ele>491.7</ele>
        <time>2017-03-19T07:57:08Z</time>
      </trkpt>
      <trkpt lat="45.62079" lon="4.37507">
        <ele>491.8</ele>
        <time>2017-03-19T07:57:09Z</time>
      </trkpt>
      <trkpt lat="45.62084" lon="4.37503">
        <ele>491.8</ele>
        <time>2017-03-19T07:57:10Z</time>
      </trkpt>
      <trkpt lat="45.62089" lon="4.37501">
        <ele>491.7</ele>
        <time>2017-03-19T07:57:11Z</time>
      </trkpt>
      <trkpt lat="45.62093" lon="4.37499">
        <ele>491.7</ele>
        <time>2017-03-19T07:57:12Z</time>
      </trkpt>
      <trkpt lat="45.62098" lon="4.37497">
        <ele>491.7</ele>
        <time>2017-03-19T07:57:13Z</time>
      </trkpt>
      <trkpt lat="45.62102" lon="4.37495">
        <ele>491.9</ele>
        <time>2017-03-19T07:57:14Z</time>
      </trkpt>
      <trkpt lat="45.62106" lon="4.37494">
        <ele>492.2</ele>
        <time>2017-03-19T07:57:15Z</time>
      </trkpt>
      <trkpt lat="45.62111" lon="4.37493">
        <ele>492.4</ele>
        <time>2017-03-19T07:57:16Z</time>
      </trkpt>
      <trkpt lat="45.62116" lon="4.37492">
        <ele>492.7</ele>
        <time>2017-03-19T07:57:17Z</time>
      </trkpt>
      <trkpt lat="45.62121" lon="4.37491">
        <ele>493.1</ele>
        <time>2017-03-19T07:57:18Z</time>
      </trkpt>
      <trkpt lat="45.62126" lon="4.37489">
        <ele>493.7</ele>
        <time>2017-03-19T07:57:19Z</time>
      </trkpt>
      <trkpt lat="45.62131" lon="4.37489">
        <ele>494.4</ele>
        <time>2017-03-19T07:57:20Z</time>
      </trkpt>
      <trkpt lat="45.62136" lon="4.37487">
        <ele>494.9</ele>
        <time>2017-03-19T07:57:21Z</time>
      </trkpt>
      <trkpt lat="45.62141" lon="4.37487">
        <ele>495.4</ele>
        <time>2017-03-19T07:57:22Z</time>
      </trkpt>
      <trkpt lat="45.62146" lon="4.37487">
        <ele>495.7</ele>
        <time>2017-03-19T07:57:23Z</time>
      </trkpt>
      <trkpt lat="45.62151" lon="4.37487">
        <ele>496.3</ele>
        <time>2017-03-19T07:57:24Z</time>
      </trkpt>
      <trkpt lat="45.62154" lon="4.37486">
        <ele>496.6</ele>
        <time>2017-03-19T07:57:25Z</time>
      </trkpt>
      <trkpt lat="45.62159" lon="4.37486">
        <ele>496.9</ele>
        <time>2017-03-19T07:57:26Z</time>
      </trkpt>
      <trkpt lat="45.62162" lon="4.37486">
        <ele>497.2</ele>
        <time>2017-03-19T07:57:27Z</time>
      </trkpt>
      <trkpt lat="45.62166" lon="4.37487">
        <ele>497.5</ele>
        <time>2017-03-19T07:57:28Z</time>
      </trkpt>
      <trkpt lat="45.62171" lon="4.37487">
        <ele>498</ele>
        <time>2017-03-19T07:57:29Z</time>
      </trkpt>
      <trkpt lat="45.62174" lon="4.37486">
        <ele>498.3</ele>
        <time>2017-03-19T07:57:30Z</time>
      </trkpt>
      <trkpt lat="45.62177" lon="4.37487">
        <ele>498.9</ele>
        <time>2017-03-19T07:57:31Z</time>
      </trkpt>
      <trkpt lat="45.62181" lon="4.37487">
        <ele>499.4</ele>
        <time>2017-03-19T07:57:32Z</time>
      </trkpt>
      <trkpt lat="45.62184" lon="4.37488">
        <ele>499.7</ele>
        <time>2017-03-19T07:57:33Z</time>
      </trkpt>
      <trkpt lat="45.62187" lon="4.37488">
        <ele>500</ele>
        <time>2017-03-19T07:57:34Z</time>
      </trkpt>
      <trkpt lat="45.62192" lon="4.37488">
        <ele>500.4</ele>
        <time>2017-03-19T07:57:36Z</time>
      </trkpt>
      <trkpt lat="45.62195" lon="4.37488">
        <ele>500.5</ele>
        <time>2017-03-19T07:57:37Z</time>
      </trkpt>
      <trkpt lat="45.62198" lon="4.37487">
        <ele>500.5</ele>
        <time>2017-03-19T07:57:38Z</time>
      </trkpt>
      <trkpt lat="45.62201" lon="4.37485">
        <ele>500.5</ele>
        <time>2017-03-19T07:57:39Z</time>
      </trkpt>
      <trkpt lat="45.62205" lon="4.37481">
        <ele>500.4</ele>
        <time>2017-03-19T07:57:40Z</time>
      </trkpt>
      <trkpt lat="45.62208" lon="4.37476">
        <ele>500.2</ele>
        <time>2017-03-19T07:57:41Z</time>
      </trkpt>
      <trkpt lat="45.62211" lon="4.37471">
        <ele>499.9</ele>
        <time>2017-03-19T07:57:42Z</time>
      </trkpt>
      <trkpt lat="45.62215" lon="4.37464">
        <ele>499.7</ele>
        <time>2017-03-19T07:57:43Z</time>
      </trkpt>
      <trkpt lat="45.62219" lon="4.37459">
        <ele>499.5</ele>
        <time>2017-03-19T07:57:44Z</time>
      </trkpt>
      <trkpt lat="45.62223" lon="4.37455">
        <ele>499.5</ele>
        <time>2017-03-19T07:57:45Z</time>
      </trkpt>
      <trkpt lat="45.62228" lon="4.37452">
        <ele>499.7</ele>
        <time>2017-03-19T07:57:46Z</time>
      </trkpt>
      <trkpt lat="45.62234" lon="4.37447">
        <ele>499.7</ele>
        <time>2017-03-19T07:57:47Z</time>
      </trkpt>
      <trkpt lat="45.6224" lon="4.37443">
        <ele>499.7</ele>
        <time>2017-03-19T07:57:48Z</time>
      </trkpt>
      <trkpt lat="45.62245" lon="4.37439">
        <ele>499.5</ele>
        <time>2017-03-19T07:57:49Z</time>
      </trkpt>
      <trkpt lat="45.62252" lon="4.37434">
        <ele>499.2</ele>
        <time>2017-03-19T07:57:50Z</time>
      </trkpt>
      <trkpt lat="45.62259" lon="4.37428">
        <ele>498.7</ele>
        <time>2017-03-19T07:57:51Z</time>
      </trkpt>
      <trkpt lat="45.62265" lon="4.3742">
        <ele>498.1</ele>
        <time>2017-03-19T07:57:52Z</time>
      </trkpt>
      <trkpt lat="45.62271" lon="4.37412">
        <ele>497.1</ele>
        <time>2017-03-19T07:57:53Z</time>
      </trkpt>
      <trkpt lat="45.62277" lon="4.37401">
        <ele>496.6</ele>
        <time>2017-03-19T07:57:54Z</time>
      </trkpt>
      <trkpt lat="45.6228" lon="4.37391">
        <ele>496.3</ele>
        <time>2017-03-19T07:57:55Z</time>
      </trkpt>
      <trkpt lat="45.62282" lon="4.37379">
        <ele>496.1</ele>
        <time>2017-03-19T07:57:56Z</time>
      </trkpt>
      <trkpt lat="45.62285" lon="4.37367">
        <ele>496</ele>
        <time>2017-03-19T07:57:57Z</time>
      </trkpt>
      <trkpt lat="45.62286" lon="4.37355">
        <ele>496</ele>
        <time>2017-03-19T07:57:58Z</time>
      </trkpt>
      <trkpt lat="45.62287" lon="4.37345">
        <ele>496</ele>
        <time>2017-03-19T07:57:59Z</time>
      </trkpt>
      <trkpt lat="45.62286" lon="4.37335">
        <ele>496</ele>
        <time>2017-03-19T07:58:00Z</time>
      </trkpt>
      <trkpt lat="45.62286" lon="4.37325">
        <ele>496</ele>
        <time>2017-03-19T07:58:01Z</time>
      </trkpt>
      <trkpt lat="45.62286" lon="4.37317">
        <ele>496</ele>
        <time>2017-03-19T07:58:02Z</time>
      </trkpt>
      <trkpt lat="45.62285" lon="4.37309">
        <ele>496</ele>
        <time>2017-03-19T07:58:03Z</time>
      </trkpt>
      <trkpt lat="45.62284" lon="4.373">
        <ele>496.1</ele>
        <time>2017-03-19T07:58:04Z</time>
      </trkpt>
      <trkpt lat="45.62284" lon="4.37291">
        <ele>496.2</ele>
        <time>2017-03-19T07:58:05Z</time>
      </trkpt>
      <trkpt lat="45.62284" lon="4.37284">
        <ele>496.3</ele>
        <time>2017-03-19T07:58:06Z</time>
      </trkpt>
      <trkpt lat="45.62284" lon="4.37274">
        <ele>496.4</ele>
        <time>2017-03-19T07:58:07Z</time>
      </trkpt>
      <trkpt lat="45.62285" lon="4.37266">
        <ele>496.5</ele>
        <time>2017-03-19T07:58:08Z</time>
      </trkpt>
      <trkpt lat="45.62286" lon="4.37256">
        <ele>496.7</ele>
        <time>2017-03-19T07:58:09Z</time>
      </trkpt>
      <trkpt lat="45.62286" lon="4.37249">
        <ele>496.8</ele>
        <time>2017-03-19T07:58:10Z</time>
      </trkpt>
      <trkpt lat="45.62287" lon="4.37241">
        <ele>496.9</ele>
        <time>2017-03-19T07:58:11Z</time>
      </trkpt>
      <trkpt lat="45.62288" lon="4.37233">
        <ele>496.9</ele>
        <time>2017-03-19T07:58:12Z</time>
      </trkpt>
      <trkpt lat="45.62289" lon="4.37226">
        <ele>497</ele>
        <time>2017-03-19T07:58:13Z</time>
      </trkpt>
      <trkpt lat="45.62291" lon="4.37219">
        <ele>497</ele>
        <time>2017-03-19T07:58:14Z</time>
      </trkpt>
      <trkpt lat="45.62292" lon="4.37211">
        <ele>496.9</ele>
        <time>2017-03-19T07:58:15Z</time>
      </trkpt>
      <trkpt lat="45.62293" lon="4.37205">
        <ele>496.7</ele>
        <time>2017-03-19T07:58:16Z</time>
      </trkpt>
      <trkpt lat="45.62294" lon="4.37199">
        <ele>496.5</ele>
        <time>2017-03-19T07:58:17Z</time>
      </trkpt>
      <trkpt lat="45.62294" lon="4.37194">
        <ele>496.3</ele>
        <time>2017-03-19T07:58:18Z</time>
      </trkpt>
      <trkpt lat="45.62294" lon="4.37189">
        <ele>496</ele>
        <time>2017-03-19T07:58:19Z</time>
      </trkpt>
      <trkpt lat="45.62294" lon="4.37183">
        <ele>495.7</ele>
        <time>2017-03-19T07:58:20Z</time>
      </trkpt>
      <trkpt lat="45.62295" lon="4.37177">
        <ele>495.2</ele>
        <time>2017-03-19T07:58:21Z</time>
      </trkpt>
      <trkpt lat="45.62295" lon="4.37172">
        <ele>494.7</ele>
        <time>2017-03-19T07:58:22Z</time>
      </trkpt>
      <trkpt lat="45.62295" lon="4.37164">
        <ele>494</ele>
        <time>2017-03-19T07:58:23Z</time>
      </trkpt>
      <trkpt lat="45.62295" lon="4.37156">
        <ele>493.2</ele>
        <time>2017-03-19T07:58:24Z</time>
      </trkpt>
      <trkpt lat="45.62295" lon="4.37148">
        <ele>493</ele>
        <time>2017-03-19T07:58:25Z</time>
      </trkpt>
      <trkpt lat="45.62295" lon="4.37139">
        <ele>493</ele>
        <time>2017-03-19T07:58:26Z</time>
      </trkpt>
      <trkpt lat="45.62295" lon="4.3713">
        <ele>493.1</ele>
        <time>2017-03-19T07:58:27Z</time>
      </trkpt>
      <trkpt lat="45.62293" lon="4.37121">
        <ele>493.1</ele>
        <time>2017-03-19T07:58:28Z</time>
      </trkpt>
      <trkpt lat="45.62292" lon="4.37111">
        <ele>493.1</ele>
        <time>2017-03-19T07:58:29Z</time>
      </trkpt>
      <trkpt lat="45.62292" lon="4.37102">
        <ele>493.2</ele>
        <time>2017-03-19T07:58:30Z</time>
      </trkpt>
      <trkpt lat="45.62291" lon="4.37091">
        <ele>493.2</ele>
        <time>2017-03-19T07:58:31Z</time>
      </trkpt>
      <trkpt lat="45.6229" lon="4.37081">
        <ele>493.3</ele>
        <time>2017-03-19T07:58:32Z</time>
      </trkpt>
      <trkpt lat="45.62289" lon="4.37071">
        <ele>493.2</ele>
        <time>2017-03-19T07:58:33Z</time>
      </trkpt>
      <trkpt lat="45.62289" lon="4.37061">
        <ele>493.2</ele>
        <time>2017-03-19T07:58:34Z</time>
      </trkpt>
      <trkpt lat="45.62289" lon="4.37052">
        <ele>493.2</ele>
        <time>2017-03-19T07:58:35Z</time>
      </trkpt>
      <trkpt lat="45.62288" lon="4.37043">
        <ele>493</ele>
        <time>2017-03-19T07:58:36Z</time>
      </trkpt>
      <trkpt lat="45.62287" lon="4.37033">
        <ele>492.8</ele>
        <time>2017-03-19T07:58:37Z</time>
      </trkpt>
      <trkpt lat="45.62286" lon="4.37023">
        <ele>492.4</ele>
        <time>2017-03-19T07:58:38Z</time>
      </trkpt>
      <trkpt lat="45.62285" lon="4.37013">
        <ele>491.9</ele>
        <time>2017-03-19T07:58:39Z</time>
      </trkpt>
      <trkpt lat="45.62282" lon="4.37002">
        <ele>491.5</ele>
        <time>2017-03-19T07:58:40Z</time>
      </trkpt>
      <trkpt lat="45.62281" lon="4.3699">
        <ele>491.2</ele>
        <time>2017-03-19T07:58:41Z</time>
      </trkpt>
      <trkpt lat="45.62279" lon="4.36978">
        <ele>491</ele>
        <time>2017-03-19T07:58:42Z</time>
      </trkpt>
      <trkpt lat="45.62277" lon="4.36966">
        <ele>490.9</ele>
        <time>2017-03-19T07:58:43Z</time>
      </trkpt>
      <trkpt lat="45.62275" lon="4.36954">
        <ele>490.9</ele>
        <time>2017-03-19T07:58:44Z</time>
      </trkpt>
      <trkpt lat="45.62274" lon="4.36945">
        <ele>491</ele>
        <time>2017-03-19T07:58:45Z</time>
      </trkpt>
      <trkpt lat="45.62273" lon="4.36935">
        <ele>490.9</ele>
        <time>2017-03-19T07:58:46Z</time>
      </trkpt>
      <trkpt lat="45.62271" lon="4.36925">
        <ele>490.7</ele>
        <time>2017-03-19T07:58:47Z</time>
      </trkpt>
      <trkpt lat="45.62269" lon="4.36915">
        <ele>490.4</ele>
        <time>2017-03-19T07:58:48Z</time>
      </trkpt>
      <trkpt lat="45.62267" lon="4.36904">
        <ele>490.1</ele>
        <time>2017-03-19T07:58:49Z</time>
      </trkpt>
      <trkpt lat="45.62265" lon="4.36894">
        <ele>489.8</ele>
        <time>2017-03-19T07:58:50Z</time>
      </trkpt>
      <trkpt lat="45.62263" lon="4.36883">
        <ele>489.4</ele>
        <time>2017-03-19T07:58:51Z</time>
      </trkpt>
      <trkpt lat="45.62262" lon="4.36871">
        <ele>489.2</ele>
        <time>2017-03-19T07:58:52Z</time>
      </trkpt>
      <trkpt lat="45.62261" lon="4.3686">
        <ele>489.1</ele>
        <time>2017-03-19T07:58:53Z</time>
      </trkpt>
      <trkpt lat="45.6226" lon="4.36849">
        <ele>489.1</ele>
        <time>2017-03-19T07:58:54Z</time>
      </trkpt>
      <trkpt lat="45.62259" lon="4.36837">
        <ele>489.3</ele>
        <time>2017-03-19T07:58:55Z</time>
      </trkpt>
      <trkpt lat="45.62258" lon="4.36826">
        <ele>489.5</ele>
        <time>2017-03-19T07:58:56Z</time>
      </trkpt>
      <trkpt lat="45.62258" lon="4.36813">
        <ele>490</ele>
        <time>2017-03-19T07:58:57Z</time>
      </trkpt>
      <trkpt lat="45.62257" lon="4.36802">
        <ele>490.4</ele>
        <time>2017-03-19T07:58:58Z</time>
      </trkpt>
      <trkpt lat="45.62256" lon="4.3679">
        <ele>490.9</ele>
        <time>2017-03-19T07:58:59Z</time>
      </trkpt>
      <trkpt lat="45.62255" lon="4.3678">
        <ele>491.4</ele>
        <time>2017-03-19T07:59:00Z</time>
      </trkpt>
      <trkpt lat="45.62255" lon="4.3677">
        <ele>491.9</ele>
        <time>2017-03-19T07:59:01Z</time>
      </trkpt>
      <trkpt lat="45.62255" lon="4.36762">
        <ele>492.3</ele>
        <time>2017-03-19T07:59:02Z</time>
      </trkpt>
      <trkpt lat="45.62253" lon="4.36756">
        <ele>492.6</ele>
        <time>2017-03-19T07:59:03Z</time>
      </trkpt>
      <trkpt lat="45.62254" lon="4.36749">
        <ele>492.9</ele>
        <time>2017-03-19T07:59:04Z</time>
      </trkpt>
      <trkpt lat="45.62254" lon="4.36743">
        <ele>493.3</ele>
        <time>2017-03-19T07:59:05Z</time>
      </trkpt>
      <trkpt lat="45.62253" lon="4.36736">
        <ele>493.7</ele>
        <time>2017-03-19T07:59:06Z</time>
      </trkpt>
      <trkpt lat="45.62253" lon="4.36729">
        <ele>494.2</ele>
        <time>2017-03-19T07:59:07Z</time>
      </trkpt>
      <trkpt lat="45.62253" lon="4.36722">
        <ele>494.6</ele>
        <time>2017-03-19T07:59:08Z</time>
      </trkpt>
      <trkpt lat="45.62254" lon="4.36715">
        <ele>495.1</ele>
        <time>2017-03-19T07:59:09Z</time>
      </trkpt>
      <trkpt lat="45.62254" lon="4.36708">
        <ele>495.5</ele>
        <time>2017-03-19T07:59:10Z</time>
      </trkpt>
      <trkpt lat="45.62256" lon="4.36701">
        <ele>496</ele>
        <time>2017-03-19T07:59:11Z</time>
      </trkpt>
      <trkpt lat="45.62256" lon="4.36694">
        <ele>496.4</ele>
        <time>2017-03-19T07:59:12Z</time>
      </trkpt>
      <trkpt lat="45.62257" lon="4.36687">
        <ele>496.9</ele>
        <time>2017-03-19T07:59:13Z</time>
      </trkpt>
      <trkpt lat="45.62257" lon="4.36681">
        <ele>497.3</ele>
        <time>2017-03-19T07:59:14Z</time>
      </trkpt>
      <trkpt lat="45.62257" lon="4.36674">
        <ele>497.7</ele>
        <time>2017-03-19T07:59:15Z</time>
      </trkpt>
      <trkpt lat="45.62257" lon="4.36669">
        <ele>498</ele>
        <time>2017-03-19T07:59:16Z</time>
      </trkpt>
      <trkpt lat="45.62258" lon="4.36663">
        <ele>498.4</ele>
        <time>2017-03-19T07:59:17Z</time>
      </trkpt>
      <trkpt lat="45.62259" lon="4.36657">
        <ele>498.8</ele>
        <time>2017-03-19T07:59:18Z</time>
      </trkpt>
      <trkpt lat="45.62259" lon="4.36652">
        <ele>499.1</ele>
        <time>2017-03-19T07:59:19Z</time>
      </trkpt>
      <trkpt lat="45.6226" lon="4.36648">
        <ele>499.4</ele>
        <time>2017-03-19T07:59:20Z</time>
      </trkpt>
      <trkpt lat="45.6226" lon="4.36642">
        <ele>499.7</ele>
        <time>2017-03-19T07:59:21Z</time>
      </trkpt>
      <trkpt lat="45.6226" lon="4.36636">
        <ele>500</ele>
        <time>2017-03-19T07:59:22Z</time>
      </trkpt>
      <trkpt lat="45.6226" lon="4.36631">
        <ele>500.3</ele>
        <time>2017-03-19T07:59:23Z</time>
      </trkpt>
      <trkpt lat="45.6226" lon="4.36626">
        <ele>500.6</ele>
        <time>2017-03-19T07:59:24Z</time>
      </trkpt>
      <trkpt lat="45.62261" lon="4.36621">
        <ele>500.9</ele>
        <time>2017-03-19T07:59:25Z</time>
      </trkpt>
      <trkpt lat="45.62261" lon="4.36616">
        <ele>501.1</ele>
        <time>2017-03-19T07:59:26Z</time>
      </trkpt>
      <trkpt lat="45.62261" lon="4.3661">
        <ele>501.4</ele>
        <time>2017-03-19T07:59:27Z</time>
      </trkpt>
      <trkpt lat="45.62262" lon="4.36605">
        <ele>501.7</ele>
        <time>2017-03-19T07:59:28Z</time>
      </trkpt>
      <trkpt lat="45.62261" lon="4.36599">
        <ele>502</ele>
        <time>2017-03-19T07:59:29Z</time>
      </trkpt>
      <trkpt lat="45.62262" lon="4.36594">
        <ele>502.2</ele>
        <time>2017-03-19T07:59:30Z</time>
      </trkpt>
      <trkpt lat="45.62261" lon="4.36589">
        <ele>502.5</ele>
        <time>2017-03-19T07:59:31Z</time>
      </trkpt>
      <trkpt lat="45.62262" lon="4.36584">
        <ele>502.7</ele>
        <time>2017-03-19T07:59:32Z</time>
      </trkpt>
      <trkpt lat="45.62261" lon="4.36578">
        <ele>503</ele>
        <time>2017-03-19T07:59:33Z</time>
      </trkpt>
      <trkpt lat="45.62261" lon="4.36573">
        <ele>503.2</ele>
        <time>2017-03-19T07:59:34Z</time>
      </trkpt>
      <trkpt lat="45.62261" lon="4.36567">
        <ele>503.6</ele>
        <time>2017-03-19T07:59:35Z</time>
      </trkpt>
      <trkpt lat="45.62261" lon="4.36562">
        <ele>503.9</ele>
        <time>2017-03-19T07:59:36Z</time>
      </trkpt>
      <trkpt lat="45.6226" lon="4.36557">
        <ele>504.3</ele>
        <time>2017-03-19T07:59:37Z</time>
      </trkpt>
      <trkpt lat="45.6226" lon="4.36552">
        <ele>504.6</ele>
        <time>2017-03-19T07:59:38Z</time>
      </trkpt>
      <trkpt lat="45.6226" lon="4.36546">
        <ele>505</ele>
        <time>2017-03-19T07:59:39Z</time>
      </trkpt>
      <trkpt lat="45.62259" lon="4.36541">
        <ele>505.3</ele>
        <time>2017-03-19T07:59:40Z</time>
      </trkpt>
      <trkpt lat="45.62259" lon="4.36536">
        <ele>505.6</ele>
        <time>2017-03-19T07:59:41Z</time>
      </trkpt>
      <trkpt lat="45.62258" lon="4.36531">
        <ele>505.9</ele>
        <time>2017-03-19T07:59:42Z</time>
      </trkpt>
      <trkpt lat="45.62258" lon="4.36527">
        <ele>506.1</ele>
        <time>2017-03-19T07:59:43Z</time>
      </trkpt>
      <trkpt lat="45.62258" lon="4.36522">
        <ele>506.4</ele>
        <time>2017-03-19T07:59:44Z</time>
      </trkpt>
      <trkpt lat="45.62257" lon="4.36517">
        <ele>506.7</ele>
        <time>2017-03-19T07:59:45Z</time>
      </trkpt>
      <trkpt lat="45.62256" lon="4.36512">
        <ele>507</ele>
        <time>2017-03-19T07:59:46Z</time>
      </trkpt>
      <trkpt lat="45.62255" lon="4.36507">
        <ele>507.3</ele>
        <time>2017-03-19T07:59:47Z</time>
      </trkpt>
      <trkpt lat="45.62254" lon="4.36501">
        <ele>507.7</ele>
        <time>2017-03-19T07:59:48Z</time>
      </trkpt>
      <trkpt lat="45.62253" lon="4.36496">
        <ele>508.1</ele>
        <time>2017-03-19T07:59:49Z</time>
      </trkpt>
      <trkpt lat="45.62252" lon="4.3649">
        <ele>508.4</ele>
        <time>2017-03-19T07:59:50Z</time>
      </trkpt>
      <trkpt lat="45.62252" lon="4.36485">
        <ele>508.8</ele>
        <time>2017-03-19T07:59:51Z</time>
      </trkpt>
      <trkpt lat="45.62251" lon="4.36479">
        <ele>509.2</ele>
        <time>2017-03-19T07:59:52Z</time>
      </trkpt>
      <trkpt lat="45.62251" lon="4.36474">
        <ele>509.6</ele>
        <time>2017-03-19T07:59:53Z</time>
      </trkpt>
      <trkpt lat="45.62251" lon="4.36469">
        <ele>510</ele>
        <time>2017-03-19T07:59:54Z</time>
      </trkpt>
      <trkpt lat="45.62251" lon="4.36464">
        <ele>510.3</ele>
        <time>2017-03-19T07:59:55Z</time>
      </trkpt>
      <trkpt lat="45.62251" lon="4.36459">
        <ele>510.7</ele>
        <time>2017-03-19T07:59:56Z</time>
      </trkpt>
      <trkpt lat="45.62251" lon="4.36455">
        <ele>511.1</ele>
        <time>2017-03-19T07:59:57Z</time>
      </trkpt>
      <trkpt lat="45.62251" lon="4.3645">
        <ele>511.4</ele>
        <time>2017-03-19T07:59:58Z</time>
      </trkpt>
      <trkpt lat="45.62252" lon="4.36445">
        <ele>511.8</ele>
        <time>2017-03-19T07:59:59Z</time>
      </trkpt>
      <trkpt lat="45.62252" lon="4.36441">
        <ele>512.2</ele>
        <time>2017-03-19T08:00:00Z</time>
      </trkpt>
      <trkpt lat="45.62252" lon="4.36436">
        <ele>512.6</ele>
        <time>2017-03-19T08:00:01Z</time>
      </trkpt>
      <trkpt lat="45.62252" lon="4.36432">
        <ele>513</ele>
        <time>2017-03-19T08:00:02Z</time>
      </trkpt>
      <trkpt lat="45.62252" lon="4.36427">
        <ele>513.4</ele>
        <time>2017-03-19T08:00:03Z</time>
      </trkpt>
      <trkpt lat="45.62253" lon="4.36422">
        <ele>513.8</ele>
        <time>2017-03-19T08:00:04Z</time>
      </trkpt>
      <trkpt lat="45.62253" lon="4.36417">
        <ele>514.2</ele>
        <time>2017-03-19T08:00:05Z</time>
      </trkpt>
      <trkpt lat="45.62253" lon="4.36413">
        <ele>514.6</ele>
        <time>2017-03-19T08:00:06Z</time>
      </trkpt>
      <trkpt lat="45.62253" lon="4.36409">
        <ele>515</ele>
        <time>2017-03-19T08:00:07Z</time>
      </trkpt>
      <trkpt lat="45.62253" lon="4.36404">
        <ele>515.4</ele>
        <time>2017-03-19T08:00:08Z</time>
      </trkpt>
      <trkpt lat="45.62254" lon="4.364">
        <ele>515.8</ele>
        <time>2017-03-19T08:00:09Z</time>
      </trkpt>
      <trkpt lat="45.62254" lon="4.36395">
        <ele>516.2</ele>
        <time>2017-03-19T08:00:10Z</time>
      </trkpt>
      <trkpt lat="45.62255" lon="4.36391">
        <ele>516.6</ele>
        <time>2017-03-19T08:00:11Z</time>
      </trkpt>
      <trkpt lat="45.62255" lon="4.36386">
        <ele>516.9</ele>
        <time>2017-03-19T08:00:12Z</time>
      </trkpt>
      <trkpt lat="45.62255" lon="4.36382">
        <ele>517.1</ele>
        <time>2017-03-19T08:00:13Z</time>
      </trkpt>
      <trkpt lat="45.62255" lon="4.36378">
        <ele>517.2</ele>
        <time>2017-03-19T08:00:14Z</time>
      </trkpt>
      <trkpt lat="45.62255" lon="4.36374">
        <ele>517.2</ele>
        <time>2017-03-19T08:00:15Z</time>
      </trkpt>
      <trkpt lat="45.62256" lon="4.3637">
        <ele>517.3</ele>
        <time>2017-03-19T08:00:16Z</time>
      </trkpt>
      <trkpt lat="45.62255" lon="4.36366">
        <ele>517.4</ele>
        <time>2017-03-19T08:00:17Z</time>
      </trkpt>
      <trkpt lat="45.62255" lon="4.36362">
        <ele>517.4</ele>
        <time>2017-03-19T08:00:18Z</time>
      </trkpt>
      <trkpt lat="45.62255" lon="4.36357">
        <ele>517.4</ele>
        <time>2017-03-19T08:00:19Z</time>
      </trkpt>
      <trkpt lat="45.62255" lon="4.36353">
        <ele>517.5</ele>
        <time>2017-03-19T08:00:20Z</time>
      </trkpt>
      <trkpt lat="45.62255" lon="4.36348">
        <ele>517.5</ele>
        <time>2017-03-19T08:00:21Z</time>
      </trkpt>
      <trkpt lat="45.62255" lon="4.36342">
        <ele>517.5</ele>
        <time>2017-03-19T08:00:22Z</time>
      </trkpt>
      <trkpt lat="45.62255" lon="4.36338">
        <ele>517.6</ele>
        <time>2017-03-19T08:00:23Z</time>
      </trkpt>
      <trkpt lat="45.62255" lon="4.36333">
        <ele>517.7</ele>
        <time>2017-03-19T08:00:24Z</time>
      </trkpt>
      <trkpt lat="45.62255" lon="4.36328">
        <ele>517.8</ele>
        <time>2017-03-19T08:00:25Z</time>
      </trkpt>
      <trkpt lat="45.62256" lon="4.36323">
        <ele>517.9</ele>
        <time>2017-03-19T08:00:26Z</time>
      </trkpt>
      <trkpt lat="45.62256" lon="4.36318">
        <ele>518</ele>
        <time>2017-03-19T08:00:27Z</time>
      </trkpt>
      <trkpt lat="45.62257" lon="4.36313">
        <ele>518.1</ele>
        <time>2017-03-19T08:00:28Z</time>
      </trkpt>
      <trkpt lat="45.62257" lon="4.36308">
        <ele>518.2</ele>
        <time>2017-03-19T08:00:29Z</time>
      </trkpt>
      <trkpt lat="45.62258" lon="4.36303">
        <ele>518.2</ele>
        <time>2017-03-19T08:00:30Z</time>
      </trkpt>
      <trkpt lat="45.62258" lon="4.36299">
        <ele>518.3</ele>
        <time>2017-03-19T08:00:31Z</time>
      </trkpt>
      <trkpt lat="45.62259" lon="4.36294">
        <ele>518.4</ele>
        <time>2017-03-19T08:00:32Z</time>
      </trkpt>
      <trkpt lat="45.62259" lon="4.3629">
        <ele>518.4</ele>
        <time>2017-03-19T08:00:33Z</time>
      </trkpt>
      <trkpt lat="45.62259" lon="4.36285">
        <ele>518.5</ele>
        <time>2017-03-19T08:00:34Z</time>
      </trkpt>
      <trkpt lat="45.6226" lon="4.3628">
        <ele>518.6</ele>
        <time>2017-03-19T08:00:35Z</time>
      </trkpt>
      <trkpt lat="45.6226" lon="4.36276">
        <ele>518.6</ele>
        <time>2017-03-19T08:00:36Z</time>
      </trkpt>
      <trkpt lat="45.62261" lon="4.36271">
        <ele>518.7</ele>
        <time>2017-03-19T08:00:37Z</time>
      </trkpt>
      <trkpt lat="45.62262" lon="4.36267">
        <ele>518.8</ele>
        <time>2017-03-19T08:00:38Z</time>
      </trkpt>
      <trkpt lat="45.62262" lon="4.36262">
        <ele>518.8</ele>
        <time>2017-03-19T08:00:39Z</time>
      </trkpt>
      <trkpt lat="45.62262" lon="4.36257">
        <ele>519</ele>
        <time>2017-03-19T08:00:40Z</time>
      </trkpt>
      <trkpt lat="45.62263" lon="4.36252">
        <ele>519.1</ele>
        <time>2017-03-19T08:00:41Z</time>
      </trkpt>
      <trkpt lat="45.62263" lon="4.36247">
        <ele>519.3</ele>
        <time>2017-03-19T08:00:42Z</time>
      </trkpt>
      <trkpt lat="45.62264" lon="4.36243">
        <ele>519.4</ele>
        <time>2017-03-19T08:00:43Z</time>
      </trkpt>
      <trkpt lat="45.62264" lon="4.36238">
        <ele>519.5</ele>
        <time>2017-03-19T08:00:44Z</time>
      </trkpt>
      <trkpt lat="45.62265" lon="4.36233">
        <ele>519.6</ele>
        <time>2017-03-19T08:00:45Z</time>
      </trkpt>
      <trkpt lat="45.62265" lon="4.36228">
        <ele>519.7</ele>
        <time>2017-03-19T08:00:46Z</time>
      </trkpt>
      <trkpt lat="45.62266" lon="4.36224">
        <ele>519.8</ele>
        <time>2017-03-19T08:00:47Z</time>
      </trkpt>
      <trkpt lat="45.62266" lon="4.36219">
        <ele>519.9</ele>
        <time>2017-03-19T08:00:48Z</time>
      </trkpt>
      <trkpt lat="45.62267" lon="4.36214">
        <ele>520</ele>
        <time>2017-03-19T08:00:49Z</time>
      </trkpt>
      <trkpt lat="45.62267" lon="4.3621">
        <ele>520</ele>
        <time>2017-03-19T08:00:50Z</time>
      </trkpt>
      <trkpt lat="45.62268" lon="4.36205">
        <ele>520.1</ele>
        <time>2017-03-19T08:00:51Z</time>
      </trkpt>
      <trkpt lat="45.62268" lon="4.362">
        <ele>520.2</ele>
        <time>2017-03-19T08:00:52Z</time>
      </trkpt>
      <trkpt lat="45.62268" lon="4.36195">
        <ele>520.3</ele>
        <time>2017-03-19T08:00:53Z</time>
      </trkpt>
      <trkpt lat="45.62269" lon="4.3619">
        <ele>520.4</ele>
        <time>2017-03-19T08:00:54Z</time>
      </trkpt>
      <trkpt lat="45.62269" lon="4.36185">
        <ele>520.5</ele>
        <time>2017-03-19T08:00:55Z</time>
      </trkpt>
      <trkpt lat="45.6227" lon="4.36179">
        <ele>520.7</ele>
        <time>2017-03-19T08:00:56Z</time>
      </trkpt>
      <trkpt lat="45.6227" lon="4.36174">
        <ele>521</ele>
        <time>2017-03-19T08:00:57Z</time>
      </trkpt>
      <trkpt lat="45.62271" lon="4.36168">
        <ele>521.3</ele>
        <time>2017-03-19T08:00:58Z</time>
      </trkpt>
      <trkpt lat="45.62271" lon="4.36162">
        <ele>521.7</ele>
        <time>2017-03-19T08:00:59Z</time>
      </trkpt>
      <trkpt lat="45.62272" lon="4.36157">
        <ele>522.1</ele>
        <time>2017-03-19T08:01:00Z</time>
      </trkpt>
      <trkpt lat="45.62272" lon="4.36152">
        <ele>522.3</ele>
        <time>2017-03-19T08:01:01Z</time>
      </trkpt>
      <trkpt lat="45.62272" lon="4.36146">
        <ele>522.5</ele>
        <time>2017-03-19T08:01:02Z</time>
      </trkpt>
      <trkpt lat="45.62272" lon="4.36141">
        <ele>522.7</ele>
        <time>2017-03-19T08:01:03Z</time>
      </trkpt>
      <trkpt lat="45.62272" lon="4.36136">
        <ele>522.9</ele>
        <time>2017-03-19T08:01:04Z</time>
      </trkpt>
      <trkpt lat="45.62272" lon="4.36131">
        <ele>523.1</ele>
        <time>2017-03-19T08:01:05Z</time>
      </trkpt>
      <trkpt lat="45.62272" lon="4.36126">
        <ele>523.2</ele>
        <time>2017-03-19T08:01:06Z</time>
      </trkpt>
      <trkpt lat="45.62272" lon="4.36121">
        <ele>523.4</ele>
        <time>2017-03-19T08:01:07Z</time>
      </trkpt>
      <trkpt lat="45.62271" lon="4.36116">
        <ele>523.6</ele>
        <time>2017-03-19T08:01:08Z</time>
      </trkpt>
      <trkpt lat="45.62271" lon="4.3611">
        <ele>523.8</ele>
        <time>2017-03-19T08:01:09Z</time>
      </trkpt>
      <trkpt lat="45.6227" lon="4.36105">
        <ele>524</ele>
        <time>2017-03-19T08:01:10Z</time>
      </trkpt>
      <trkpt lat="45.6227" lon="4.361">
        <ele>524.2</ele>
        <time>2017-03-19T08:01:11Z</time>
      </trkpt>
      <trkpt lat="45.6227" lon="4.36095">
        <ele>524.4</ele>
        <time>2017-03-19T08:01:12Z</time>
      </trkpt>
      <trkpt lat="45.62269" lon="4.3609">
        <ele>524.6</ele>
        <time>2017-03-19T08:01:13Z</time>
      </trkpt>
      <trkpt lat="45.62269" lon="4.36085">
        <ele>524.8</ele>
        <time>2017-03-19T08:01:14Z</time>
      </trkpt>
      <trkpt lat="45.62268" lon="4.3608">
        <ele>525.1</ele>
        <time>2017-03-19T08:01:15Z</time>
      </trkpt>
      <trkpt lat="45.62267" lon="4.36075">
        <ele>525.3</ele>
        <time>2017-03-19T08:01:16Z</time>
      </trkpt>
      <trkpt lat="45.62265" lon="4.3607">
        <ele>525.5</ele>
        <time>2017-03-19T08:01:17Z</time>
      </trkpt>
      <trkpt lat="45.62263" lon="4.36065">
        <ele>525.7</ele>
        <time>2017-03-19T08:01:18Z</time>
      </trkpt>
      <trkpt lat="45.62262" lon="4.36061">
        <ele>526</ele>
        <time>2017-03-19T08:01:19Z</time>
      </trkpt>
      <trkpt lat="45.6226" lon="4.36057">
        <ele>526.2</ele>
        <time>2017-03-19T08:01:20Z</time>
      </trkpt>
      <trkpt lat="45.62257" lon="4.36053">
        <ele>526.4</ele>
        <time>2017-03-19T08:01:21Z</time>
      </trkpt>
      <trkpt lat="45.62254" lon="4.3605">
        <ele>527</ele>
        <time>2017-03-19T08:01:22Z</time>
      </trkpt>
      <trkpt lat="45.62251" lon="4.36047">
        <ele>527.6</ele>
        <time>2017-03-19T08:01:23Z</time>
      </trkpt>
      <trkpt lat="45.62247" lon="4.36044">
        <ele>527.9</ele>
        <time>2017-03-19T08:01:24Z</time>
      </trkpt>
      <trkpt lat="45.62244" lon="4.36042">
        <ele>528.3</ele>
        <time>2017-03-19T08:01:25Z</time>
      </trkpt>
      <trkpt lat="45.62241" lon="4.36039">
        <ele>528.7</ele>
        <time>2017-03-19T08:01:26Z</time>
      </trkpt>
      <trkpt lat="45.62239" lon="4.36035">
        <ele>529.3</ele>
        <time>2017-03-19T08:01:27Z</time>
      </trkpt>
      <trkpt lat="45.62237" lon="4.36032">
        <ele>529.7</ele>
        <time>2017-03-19T08:01:28Z</time>
      </trkpt>
      <trkpt lat="45.62234" lon="4.36027">
        <ele>530.2</ele>
        <time>2017-03-19T08:01:30Z</time>
      </trkpt>
      <trkpt lat="45.62232" lon="4.36022">
        <ele>530.6</ele>
        <time>2017-03-19T08:01:32Z</time>
      </trkpt>
      <trkpt lat="45.6223" lon="4.36019">
        <ele>531</ele>
        <time>2017-03-19T08:01:33Z</time>
      </trkpt>
      <trkpt lat="45.62229" lon="4.36016">
        <ele>531.4</ele>
        <time>2017-03-19T08:01:34Z</time>
      </trkpt>
      <trkpt lat="45.62226" lon="4.36009">
        <ele>532.2</ele>
        <time>2017-03-19T08:01:36Z</time>
      </trkpt>
      <trkpt lat="45.62225" lon="4.36006">
        <ele>532.8</ele>
        <time>2017-03-19T08:01:37Z</time>
      </trkpt>
      <trkpt lat="45.62223" lon="4.36003">
        <ele>533.3</ele>
        <time>2017-03-19T08:01:38Z</time>
      </trkpt>
      <trkpt lat="45.62221" lon="4.35996">
        <ele>534.1</ele>
        <time>2017-03-19T08:01:40Z</time>
      </trkpt>
      <trkpt lat="45.62218" lon="4.35991">
        <ele>534.8</ele>
        <time>2017-03-19T08:01:42Z</time>
      </trkpt>
      <trkpt lat="45.62216" lon="4.35987">
        <ele>535.4</ele>
        <time>2017-03-19T08:01:44Z</time>
      </trkpt>
      <trkpt lat="45.62214" lon="4.35982">
        <ele>535.9</ele>
        <time>2017-03-19T08:01:46Z</time>
      </trkpt>
      <trkpt lat="45.62212" lon="4.35978">
        <ele>536.3</ele>
        <time>2017-03-19T08:01:48Z</time>
      </trkpt>
      <trkpt lat="45.6221" lon="4.35974">
        <ele>536.7</ele>
        <time>2017-03-19T08:01:50Z</time>
      </trkpt>
      <trkpt lat="45.62207" lon="4.35969">
        <ele>537.2</ele>
        <time>2017-03-19T08:01:52Z</time>
      </trkpt>
      <trkpt lat="45.62205" lon="4.35964">
        <ele>537.6</ele>
        <time>2017-03-19T08:01:54Z</time>
      </trkpt>
      <trkpt lat="45.62202" lon="4.35959">
        <ele>538</ele>
        <time>2017-03-19T08:01:56Z</time>
      </trkpt>
      <trkpt lat="45.622" lon="4.35954">
        <ele>538.2</ele>
        <time>2017-03-19T08:01:58Z</time>
      </trkpt>
      <trkpt lat="45.62198" lon="4.35949">
        <ele>538.5</ele>
        <time>2017-03-19T08:02:00Z</time>
      </trkpt>
      <trkpt lat="45.62195" lon="4.35944">
        <ele>538.8</ele>
        <time>2017-03-19T08:02:02Z</time>
      </trkpt>
      <trkpt lat="45.62193" lon="4.35939">
        <ele>539</ele>
        <time>2017-03-19T08:02:04Z</time>
      </trkpt>
      <trkpt lat="45.6219" lon="4.35935">
        <ele>539.3</ele>
        <time>2017-03-19T08:02:06Z</time>
      </trkpt>
      <trkpt lat="45.62188" lon="4.35931">
        <ele>539.5</ele>
        <time>2017-03-19T08:02:08Z</time>
      </trkpt>
      <trkpt lat="45.62186" lon="4.35927">
        <ele>539.6</ele>
        <time>2017-03-19T08:02:10Z</time>
      </trkpt>
      <trkpt lat="45.62185" lon="4.35921">
        <ele>539.7</ele>
        <time>2017-03-19T08:02:12Z</time>
      </trkpt>
      <trkpt lat="45.62184" lon="4.35916">
        <ele>540</ele>
        <time>2017-03-19T08:02:14Z</time>
      </trkpt>
      <trkpt lat="45.62183" lon="4.3591">
        <ele>540.2</ele>
        <time>2017-03-19T08:02:16Z</time>
      </trkpt>
      <trkpt lat="45.62182" lon="4.35905">
        <ele>540.4</ele>
        <time>2017-03-19T08:02:18Z</time>
      </trkpt>
      <trkpt lat="45.6218" lon="4.359">
        <ele>540.5</ele>
        <time>2017-03-19T08:02:20Z</time>
      </trkpt>
      <trkpt lat="45.62178" lon="4.35895">
        <ele>540.8</ele>
        <time>2017-03-19T08:02:22Z</time>
      </trkpt>
      <trkpt lat="45.62176" lon="4.3589">
        <ele>541</ele>
        <time>2017-03-19T08:02:24Z</time>
      </trkpt>
      <trkpt lat="45.62174" lon="4.35885">
        <ele>541.1</ele>
        <time>2017-03-19T08:02:26Z</time>
      </trkpt>
      <trkpt lat="45.62172" lon="4.35879">
        <ele>541.2</ele>
        <time>2017-03-19T08:02:28Z</time>
      </trkpt>
      <trkpt lat="45.6217" lon="4.35874">
        <ele>541.4</ele>
        <time>2017-03-19T08:02:30Z</time>
      </trkpt>
      <trkpt lat="45.62168" lon="4.35869">
        <ele>541.7</ele>
        <time>2017-03-19T08:02:32Z</time>
      </trkpt>
      <trkpt lat="45.62166" lon="4.35864">
        <ele>541.8</ele>
        <time>2017-03-19T08:02:34Z</time>
      </trkpt>
      <trkpt lat="45.62164" lon="4.35858">
        <ele>541.9</ele>
        <time>2017-03-19T08:02:36Z</time>
      </trkpt>
      <trkpt lat="45.62163" lon="4.35852">
        <ele>542</ele>
        <time>2017-03-19T08:02:38Z</time>
      </trkpt>
      <trkpt lat="45.62161" lon="4.35845">
        <ele>542.3</ele>
        <time>2017-03-19T08:02:40Z</time>
      </trkpt>
      <trkpt lat="45.62159" lon="4.35838">
        <ele>542.6</ele>
        <time>2017-03-19T08:02:42Z</time>
      </trkpt>
      <trkpt lat="45.62159" lon="4.35831">
        <ele>542.9</ele>
        <time>2017-03-19T08:02:44Z</time>
      </trkpt>
      <trkpt lat="45.62158" lon="4.35827">
        <ele>543</ele>
        <time>2017-03-19T08:02:45Z</time>
      </trkpt>
      <trkpt lat="45.62157" lon="4.35823">
        <ele>543.1</ele>
        <time>2017-03-19T08:02:46Z</time>
      </trkpt>
      <trkpt lat="45.62156" lon="4.35819">
        <ele>543.3</ele>
        <time>2017-03-19T08:02:47Z</time>
      </trkpt>
      <trkpt lat="45.62155" lon="4.35816">
        <ele>543.4</ele>
        <time>2017-03-19T08:02:48Z</time>
      </trkpt>
      <trkpt lat="45.62153" lon="4.35808">
        <ele>543.6</ele>
        <time>2017-03-19T08:02:50Z</time>
      </trkpt>
      <trkpt lat="45.62151" lon="4.35804">
        <ele>543.7</ele>
        <time>2017-03-19T08:02:51Z</time>
      </trkpt>
      <trkpt lat="45.6215" lon="4.35799">
        <ele>543.9</ele>
        <time>2017-03-19T08:02:52Z</time>
      </trkpt>
      <trkpt lat="45.62148" lon="4.35794">
        <ele>543.8</ele>
        <time>2017-03-19T08:02:53Z</time>
      </trkpt>
      <trkpt lat="45.62146" lon="4.3579">
        <ele>543.8</ele>
        <time>2017-03-19T08:02:54Z</time>
      </trkpt>
      <trkpt lat="45.62144" lon="4.35786">
        <ele>543.7</ele>
        <time>2017-03-19T08:02:55Z</time>
      </trkpt>
      <trkpt lat="45.62142" lon="4.35782">
        <ele>543.6</ele>
        <time>2017-03-19T08:02:56Z</time>
      </trkpt>
      <trkpt lat="45.6214" lon="4.35778">
        <ele>543.5</ele>
        <time>2017-03-19T08:02:57Z</time>
      </trkpt>
      <trkpt lat="45.62138" lon="4.35774">
        <ele>543.4</ele>
        <time>2017-03-19T08:02:58Z</time>
      </trkpt>
      <trkpt lat="45.62135" lon="4.35769">
        <ele>543.2</ele>
        <time>2017-03-19T08:02:59Z</time>
      </trkpt>
      <trkpt lat="45.62133" lon="4.35765">
        <ele>542.9</ele>
        <time>2017-03-19T08:03:00Z</time>
      </trkpt>
      <trkpt lat="45.6213" lon="4.3576">
        <ele>542.6</ele>
        <time>2017-03-19T08:03:01Z</time>
      </trkpt>
      <trkpt lat="45.62127" lon="4.35756">
        <ele>542.3</ele>
        <time>2017-03-19T08:03:02Z</time>
      </trkpt>
      <trkpt lat="45.62124" lon="4.35751">
        <ele>542</ele>
        <time>2017-03-19T08:03:03Z</time>
      </trkpt>
      <trkpt lat="45.62121" lon="4.35746">
        <ele>541.8</ele>
        <time>2017-03-19T08:03:04Z</time>
      </trkpt>
      <trkpt lat="45.62118" lon="4.35741">
        <ele>541.6</ele>
        <time>2017-03-19T08:03:05Z</time>
      </trkpt>
      <trkpt lat="45.62115" lon="4.35737">
        <ele>541.5</ele>
        <time>2017-03-19T08:03:06Z</time>
      </trkpt>
      <trkpt lat="45.62112" lon="4.35732">
        <ele>541.3</ele>
        <time>2017-03-19T08:03:07Z</time>
      </trkpt>
      <trkpt lat="45.6211" lon="4.35728">
        <ele>541.1</ele>
        <time>2017-03-19T08:03:08Z</time>
      </trkpt>
      <trkpt lat="45.62107" lon="4.35724">
        <ele>541</ele>
        <time>2017-03-19T08:03:09Z</time>
      </trkpt>
      <trkpt lat="45.62104" lon="4.3572">
        <ele>540.9</ele>
        <time>2017-03-19T08:03:10Z</time>
      </trkpt>
      <trkpt lat="45.62101" lon="4.35716">
        <ele>540.7</ele>
        <time>2017-03-19T08:03:11Z</time>
      </trkpt>
      <trkpt lat="45.62098" lon="4.35711">
        <ele>540.6</ele>
        <time>2017-03-19T08:03:12Z</time>
      </trkpt>
      <trkpt lat="45.62096" lon="4.35707">
        <ele>540.2</ele>
        <time>2017-03-19T08:03:13Z</time>
      </trkpt>
      <trkpt lat="45.62093" lon="4.35703">
        <ele>540</ele>
        <time>2017-03-19T08:03:14Z</time>
      </trkpt>
      <trkpt lat="45.6209" lon="4.357">
        <ele>539.8</ele>
        <time>2017-03-19T08:03:15Z</time>
      </trkpt>
      <trkpt lat="45.62088" lon="4.35696">
        <ele>539.7</ele>
        <time>2017-03-19T08:03:16Z</time>
      </trkpt>
      <trkpt lat="45.62085" lon="4.35692">
        <ele>539.5</ele>
        <time>2017-03-19T08:03:17Z</time>
      </trkpt>
      <trkpt lat="45.62082" lon="4.35689">
        <ele>539.3</ele>
        <time>2017-03-19T08:03:18Z</time>
      </trkpt>
      <trkpt lat="45.62079" lon="4.35687">
        <ele>539.2</ele>
        <time>2017-03-19T08:03:19Z</time>
      </trkpt>
      <trkpt lat="45.62075" lon="4.35686">
        <ele>539.1</ele>
        <time>2017-03-19T08:03:20Z</time>
      </trkpt>
      <trkpt lat="45.62072" lon="4.35688">
        <ele>539</ele>
        <time>2017-03-19T08:03:21Z</time>
      </trkpt>
      <trkpt lat="45.62069" lon="4.35692">
        <ele>539.1</ele>
        <time>2017-03-19T08:03:22Z</time>
      </trkpt>
      <trkpt lat="45.62067" lon="4.35697">
        <ele>539.2</ele>
        <time>2017-03-19T08:03:23Z</time>
      </trkpt>
      <trkpt lat="45.62064" lon="4.35702">
        <ele>539.4</ele>
        <time>2017-03-19T08:03:24Z</time>
      </trkpt>
      <trkpt lat="45.62062" lon="4.35707">
        <ele>539.6</ele>
        <time>2017-03-19T08:03:25Z</time>
      </trkpt>
      <trkpt lat="45.62059" lon="4.35712">
        <ele>539.7</ele>
        <time>2017-03-19T08:03:26Z</time>
      </trkpt>
      <trkpt lat="45.62056" lon="4.35716">
        <ele>539.7</ele>
        <time>2017-03-19T08:03:27Z</time>
      </trkpt>
      <trkpt lat="45.62053" lon="4.35721">
        <ele>539.6</ele>
        <time>2017-03-19T08:03:28Z</time>
      </trkpt>
      <trkpt lat="45.6205" lon="4.35726">
        <ele>539.4</ele>
        <time>2017-03-19T08:03:29Z</time>
      </trkpt>
      <trkpt lat="45.62047" lon="4.35731">
        <ele>539.2</ele>
        <time>2017-03-19T08:03:30Z</time>
      </trkpt>
      <trkpt lat="45.62045" lon="4.35736">
        <ele>538.8</ele>
        <time>2017-03-19T08:03:31Z</time>
      </trkpt>
      <trkpt lat="45.62042" lon="4.3574">
        <ele>538.6</ele>
        <time>2017-03-19T08:03:32Z</time>
      </trkpt>
      <trkpt lat="45.62039" lon="4.35746">
        <ele>538.3</ele>
        <time>2017-03-19T08:03:33Z</time>
      </trkpt>
      <trkpt lat="45.62036" lon="4.35751">
        <ele>538.1</ele>
        <time>2017-03-19T08:03:34Z</time>
      </trkpt>
      <trkpt lat="45.62033" lon="4.35756">
        <ele>537.8</ele>
        <time>2017-03-19T08:03:35Z</time>
      </trkpt>
      <trkpt lat="45.62031" lon="4.35761">
        <ele>537.6</ele>
        <time>2017-03-19T08:03:36Z</time>
      </trkpt>
      <trkpt lat="45.62027" lon="4.35766">
        <ele>537.4</ele>
        <time>2017-03-19T08:03:37Z</time>
      </trkpt>
      <trkpt lat="45.62024" lon="4.35771">
        <ele>537.2</ele>
        <time>2017-03-19T08:03:38Z</time>
      </trkpt>
      <trkpt lat="45.62021" lon="4.35776">
        <ele>537</ele>
        <time>2017-03-19T08:03:39Z</time>
      </trkpt>
      <trkpt lat="45.62019" lon="4.35782">
        <ele>536.7</ele>
        <time>2017-03-19T08:03:40Z</time>
      </trkpt>
      <trkpt lat="45.62017" lon="4.35787">
        <ele>536.4</ele>
        <time>2017-03-19T08:03:41Z</time>
      </trkpt>
      <trkpt lat="45.62014" lon="4.35792">
        <ele>536.2</ele>
        <time>2017-03-19T08:03:42Z</time>
      </trkpt>
      <trkpt lat="45.62012" lon="4.35797">
        <ele>536</ele>
        <time>2017-03-19T08:03:43Z</time>
      </trkpt>
      <trkpt lat="45.6201" lon="4.35802">
        <ele>535.9</ele>
        <time>2017-03-19T08:03:44Z</time>
      </trkpt>
      <trkpt lat="45.62008" lon="4.35806">
        <ele>535.8</ele>
        <time>2017-03-19T08:03:45Z</time>
      </trkpt>
      <trkpt lat="45.62005" lon="4.35811">
        <ele>535.7</ele>
        <time>2017-03-19T08:03:46Z</time>
      </trkpt>
      <trkpt lat="45.62003" lon="4.35815">
        <ele>535.6</ele>
        <time>2017-03-19T08:03:47Z</time>
      </trkpt>
      <trkpt lat="45.62001" lon="4.35819">
        <ele>535.5</ele>
        <time>2017-03-19T08:03:48Z</time>
      </trkpt>
      <trkpt lat="45.61999" lon="4.35823">
        <ele>535.5</ele>
        <time>2017-03-19T08:03:49Z</time>
      </trkpt>
      <trkpt lat="45.61997" lon="4.35827">
        <ele>535.6</ele>
        <time>2017-03-19T08:03:50Z</time>
      </trkpt>
      <trkpt lat="45.61996" lon="4.35831">
        <ele>535.6</ele>
        <time>2017-03-19T08:03:51Z</time>
      </trkpt>
      <trkpt lat="45.61993" lon="4.35835">
        <ele>535.7</ele>
        <time>2017-03-19T08:03:52Z</time>
      </trkpt>
      <trkpt lat="45.61991" lon="4.35839">
        <ele>535.8</ele>
        <time>2017-03-19T08:03:53Z</time>
      </trkpt>
      <trkpt lat="45.61988" lon="4.35843">
        <ele>535.9</ele>
        <time>2017-03-19T08:03:54Z</time>
      </trkpt>
      <trkpt lat="45.61985" lon="4.35848">
        <ele>536</ele>
        <time>2017-03-19T08:03:55Z</time>
      </trkpt>
      <trkpt lat="45.61983" lon="4.35853">
        <ele>536</ele>
        <time>2017-03-19T08:03:56Z</time>
      </trkpt>
      <trkpt lat="45.61981" lon="4.35859">
        <ele>535.8</ele>
        <time>2017-03-19T08:03:57Z</time>
      </trkpt>
      <trkpt lat="45.61979" lon="4.35865">
        <ele>535.7</ele>
        <time>2017-03-19T08:03:58Z</time>
      </trkpt>
      <trkpt lat="45.61977" lon="4.3587">
        <ele>535.7</ele>
        <time>2017-03-19T08:03:59Z</time>
      </trkpt>
      <trkpt lat="45.61976" lon="4.35876">
        <ele>535.6</ele>
        <time>2017-03-19T08:04:00Z</time>
      </trkpt>
      <trkpt lat="45.61974" lon="4.35881">
        <ele>535.7</ele>
        <time>2017-03-19T08:04:01Z</time>
      </trkpt>
      <trkpt lat="45.61973" lon="4.35887">
        <ele>535.9</ele>
        <time>2017-03-19T08:04:02Z</time>
      </trkpt>
      <trkpt lat="45.61972" lon="4.35892">
        <ele>536.2</ele>
        <time>2017-03-19T08:04:03Z</time>
      </trkpt>
      <trkpt lat="45.61971" lon="4.35898">
        <ele>536.4</ele>
        <time>2017-03-19T08:04:04Z</time>
      </trkpt>
      <trkpt lat="45.6197" lon="4.35904">
        <ele>536.6</ele>
        <time>2017-03-19T08:04:05Z</time>
      </trkpt>
      <trkpt lat="45.61969" lon="4.35911">
        <ele>536.9</ele>
        <time>2017-03-19T08:04:06Z</time>
      </trkpt>
      <trkpt lat="45.61968" lon="4.35917">
        <ele>537.1</ele>
        <time>2017-03-19T08:04:07Z</time>
      </trkpt>
      <trkpt lat="45.61967" lon="4.35923">
        <ele>537.3</ele>
        <time>2017-03-19T08:04:08Z</time>
      </trkpt>
      <trkpt lat="45.61967" lon="4.3593">
        <ele>537.3</ele>
        <time>2017-03-19T08:04:09Z</time>
      </trkpt>
      <trkpt lat="45.61967" lon="4.35938">
        <ele>537.2</ele>
        <time>2017-03-19T08:04:10Z</time>
      </trkpt>
      <trkpt lat="45.61966" lon="4.35944">
        <ele>537</ele>
        <time>2017-03-19T08:04:11Z</time>
      </trkpt>
      <trkpt lat="45.61965" lon="4.35953">
        <ele>536.8</ele>
        <time>2017-03-19T08:04:12Z</time>
      </trkpt>
      <trkpt lat="45.61965" lon="4.35961">
        <ele>536.6</ele>
        <time>2017-03-19T08:04:13Z</time>
      </trkpt>
      <trkpt lat="45.61964" lon="4.35971">
        <ele>536.5</ele>
        <time>2017-03-19T08:04:14Z</time>
      </trkpt>
      <trkpt lat="45.61964" lon="4.3598">
        <ele>536.5</ele>
        <time>2017-03-19T08:04:15Z</time>
      </trkpt>
      <trkpt lat="45.61964" lon="4.35988">
        <ele>536.3</ele>
        <time>2017-03-19T08:04:16Z</time>
      </trkpt>
      <trkpt lat="45.61963" lon="4.35994">
        <ele>536.2</ele>
        <time>2017-03-19T08:04:17Z</time>
      </trkpt>
      <trkpt lat="45.6196" lon="4.36">
        <ele>536.1</ele>
        <time>2017-03-19T08:04:18Z</time>
      </trkpt>
      <trkpt lat="45.61957" lon="4.36006">
        <ele>535.9</ele>
        <time>2017-03-19T08:04:19Z</time>
      </trkpt>
      <trkpt lat="45.61953" lon="4.36012">
        <ele>535.3</ele>
        <time>2017-03-19T08:04:20Z</time>
      </trkpt>
      <trkpt lat="45.61949" lon="4.36018">
        <ele>534.6</ele>
        <time>2017-03-19T08:04:21Z</time>
      </trkpt>
      <trkpt lat="45.61945" lon="4.36025">
        <ele>534.1</ele>
        <time>2017-03-19T08:04:22Z</time>
      </trkpt>
      <trkpt lat="45.61941" lon="4.36032">
        <ele>533.8</ele>
        <time>2017-03-19T08:04:23Z</time>
      </trkpt>
      <trkpt lat="45.61936" lon="4.36041">
        <ele>533.1</ele>
        <time>2017-03-19T08:04:24Z</time>
      </trkpt>
      <trkpt lat="45.61932" lon="4.36048">
        <ele>532.4</ele>
        <time>2017-03-19T08:04:25Z</time>
      </trkpt>
      <trkpt lat="45.61926" lon="4.36056">
        <ele>531.6</ele>
        <time>2017-03-19T08:04:26Z</time>
      </trkpt>
      <trkpt lat="45.6192" lon="4.36063">
        <ele>531</ele>
        <time>2017-03-19T08:04:27Z</time>
      </trkpt>
      <trkpt lat="45.61915" lon="4.3607">
        <ele>530</ele>
        <time>2017-03-19T08:04:28Z</time>
      </trkpt>
      <trkpt lat="45.6191" lon="4.36076">
        <ele>529.3</ele>
        <time>2017-03-19T08:04:29Z</time>
      </trkpt>
      <trkpt lat="45.61905" lon="4.36083">
        <ele>529.2</ele>
        <time>2017-03-19T08:04:30Z</time>
      </trkpt>
      <trkpt lat="45.619" lon="4.36087">
        <ele>529.2</ele>
        <time>2017-03-19T08:04:31Z</time>
      </trkpt>
      <trkpt lat="45.61894" lon="4.36093">
        <ele>529.3</ele>
        <time>2017-03-19T08:04:32Z</time>
      </trkpt>
      <trkpt lat="45.6189" lon="4.36098">
        <ele>529.3</ele>
        <time>2017-03-19T08:04:33Z</time>
      </trkpt>
      <trkpt lat="45.61885" lon="4.36103">
        <ele>529.3</ele>
        <time>2017-03-19T08:04:34Z</time>
      </trkpt>
      <trkpt lat="45.6188" lon="4.36108">
        <ele>529.2</ele>
        <time>2017-03-19T08:04:35Z</time>
      </trkpt>
      <trkpt lat="45.61874" lon="4.36113">
        <ele>529</ele>
        <time>2017-03-19T08:04:36Z</time>
      </trkpt>
      <trkpt lat="45.61869" lon="4.36119">
        <ele>528.8</ele>
        <time>2017-03-19T08:04:37Z</time>
      </trkpt>
      <trkpt lat="45.61863" lon="4.36124">
        <ele>528.6</ele>
        <time>2017-03-19T08:04:38Z</time>
      </trkpt>
      <trkpt lat="45.61858" lon="4.36129">
        <ele>528.4</ele>
        <time>2017-03-19T08:04:39Z</time>
      </trkpt>
      <trkpt lat="45.61853" lon="4.36134">
        <ele>528.3</ele>
        <time>2017-03-19T08:04:40Z</time>
      </trkpt>
      <trkpt lat="45.61848" lon="4.36139">
        <ele>528.3</ele>
        <time>2017-03-19T08:04:41Z</time>
      </trkpt>
      <trkpt lat="45.61843" lon="4.36145">
        <ele>528.6</ele>
        <time>2017-03-19T08:04:42Z</time>
      </trkpt>
      <trkpt lat="45.61839" lon="4.36151">
        <ele>528.8</ele>
        <time>2017-03-19T08:04:43Z</time>
      </trkpt>
      <trkpt lat="45.61834" lon="4.36156">
        <ele>529.1</ele>
        <time>2017-03-19T08:04:44Z</time>
      </trkpt>
      <trkpt lat="45.6183" lon="4.36162">
        <ele>529.9</ele>
        <time>2017-03-19T08:04:45Z</time>
      </trkpt>
      <trkpt lat="45.61825" lon="4.36167">
        <ele>530.4</ele>
        <time>2017-03-19T08:04:46Z</time>
      </trkpt>
      <trkpt lat="45.61821" lon="4.36174">
        <ele>531.4</ele>
        <time>2017-03-19T08:04:47Z</time>
      </trkpt>
      <trkpt lat="45.61818" lon="4.3618">
        <ele>532.5</ele>
        <time>2017-03-19T08:04:48Z</time>
      </trkpt>
      <trkpt lat="45.61814" lon="4.36186">
        <ele>533.9</ele>
        <time>2017-03-19T08:04:49Z</time>
      </trkpt>
      <trkpt lat="45.6181" lon="4.36192">
        <ele>535.4</ele>
        <time>2017-03-19T08:04:50Z</time>
      </trkpt>
      <trkpt lat="45.61806" lon="4.36196">
        <ele>536.2</ele>
        <time>2017-03-19T08:04:51Z</time>
      </trkpt>
      <trkpt lat="45.61801" lon="4.36201">
        <ele>536.6</ele>
        <time>2017-03-19T08:04:52Z</time>
      </trkpt>
      <trkpt lat="45.61796" lon="4.36204">
        <ele>536.5</ele>
        <time>2017-03-19T08:04:53Z</time>
      </trkpt>
      <trkpt lat="45.6179" lon="4.36208">
        <ele>536.6</ele>
        <time>2017-03-19T08:04:54Z</time>
      </trkpt>
      <trkpt lat="45.61784" lon="4.36211">
        <ele>536.6</ele>
        <time>2017-03-19T08:04:55Z</time>
      </trkpt>
      <trkpt lat="45.61779" lon="4.36212">
        <ele>536.3</ele>
        <time>2017-03-19T08:04:56Z</time>
      </trkpt>
      <trkpt lat="45.61774" lon="4.36213">
        <ele>535.4</ele>
        <time>2017-03-19T08:04:57Z</time>
      </trkpt>
      <trkpt lat="45.61769" lon="4.36214">
        <ele>535</ele>
        <time>2017-03-19T08:04:58Z</time>
      </trkpt>
      <trkpt lat="45.61764" lon="4.36214">
        <ele>534.5</ele>
        <time>2017-03-19T08:04:59Z</time>
      </trkpt>
      <trkpt lat="45.6176" lon="4.36214">
        <ele>533.8</ele>
        <time>2017-03-19T08:05:00Z</time>
      </trkpt>
      <trkpt lat="45.61756" lon="4.36212">
        <ele>533.4</ele>
        <time>2017-03-19T08:05:01Z</time>
      </trkpt>
      <trkpt lat="45.61753" lon="4.3621">
        <ele>533.3</ele>
        <time>2017-03-19T08:05:02Z</time>
      </trkpt>
      <trkpt lat="45.61749" lon="4.36207">
        <ele>533.1</ele>
        <time>2017-03-19T08:05:03Z</time>
      </trkpt>
      <trkpt lat="45.61747" lon="4.36202">
        <ele>532.8</ele>
        <time>2017-03-19T08:05:04Z</time>
      </trkpt>
      <trkpt lat="45.61745" lon="4.36195">
        <ele>532.1</ele>
        <time>2017-03-19T08:05:05Z</time>
      </trkpt>
      <trkpt lat="45.61746" lon="4.36189">
        <ele>531.6</ele>
        <time>2017-03-19T08:05:06Z</time>
      </trkpt>
      <trkpt lat="45.61746" lon="4.36184">
        <ele>531</ele>
        <time>2017-03-19T08:05:07Z</time>
      </trkpt>
      <trkpt lat="45.61745" lon="4.36177">
        <ele>529.6</ele>
        <time>2017-03-19T08:05:08Z</time>
      </trkpt>
      <trkpt lat="45.61746" lon="4.36172">
        <ele>529.1</ele>
        <time>2017-03-19T08:05:09Z</time>
      </trkpt>
      <trkpt lat="45.61744" lon="4.36168">
        <ele>528.7</ele>
        <time>2017-03-19T08:05:11Z</time>
      </trkpt>
      <trkpt lat="45.61742" lon="4.36164">
        <ele>528.7</ele>
        <time>2017-03-19T08:05:12Z</time>
      </trkpt>
      <trkpt lat="45.61739" lon="4.3616">
        <ele>528.8</ele>
        <time>2017-03-19T08:05:13Z</time>
      </trkpt>
      <trkpt lat="45.61736" lon="4.36156">
        <ele>529</ele>
        <time>2017-03-19T08:05:14Z</time>
      </trkpt>
      <trkpt lat="45.61733" lon="4.36153">
        <ele>529.2</ele>
        <time>2017-03-19T08:05:15Z</time>
      </trkpt>
      <trkpt lat="45.61729" lon="4.36148">
        <ele>529.2</ele>
        <time>2017-03-19T08:05:16Z</time>
      </trkpt>
      <trkpt lat="45.61726" lon="4.36145">
        <ele>529.7</ele>
        <time>2017-03-19T08:05:17Z</time>
      </trkpt>
      <trkpt lat="45.61721" lon="4.36142">
        <ele>530.2</ele>
        <time>2017-03-19T08:05:18Z</time>
      </trkpt>
      <trkpt lat="45.61717" lon="4.36139">
        <ele>530.2</ele>
        <time>2017-03-19T08:05:19Z</time>
      </trkpt>
      <trkpt lat="45.61712" lon="4.36136">
        <ele>530.7</ele>
        <time>2017-03-19T08:05:20Z</time>
      </trkpt>
      <trkpt lat="45.61708" lon="4.36133">
        <ele>531.2</ele>
        <time>2017-03-19T08:05:21Z</time>
      </trkpt>
      <trkpt lat="45.61702" lon="4.36131">
        <ele>531.5</ele>
        <time>2017-03-19T08:05:22Z</time>
      </trkpt>
      <trkpt lat="45.61698" lon="4.36129">
        <ele>532.3</ele>
        <time>2017-03-19T08:05:23Z</time>
      </trkpt>
      <trkpt lat="45.61693" lon="4.36127">
        <ele>532.6</ele>
        <time>2017-03-19T08:05:24Z</time>
      </trkpt>
      <trkpt lat="45.61689" lon="4.36126">
        <ele>532.4</ele>
        <time>2017-03-19T08:05:25Z</time>
      </trkpt>
      <trkpt lat="45.61684" lon="4.36124">
        <ele>532.5</ele>
        <time>2017-03-19T08:05:26Z</time>
      </trkpt>
      <trkpt lat="45.61679" lon="4.36122">
        <ele>532</ele>
        <time>2017-03-19T08:05:27Z</time>
      </trkpt>
      <trkpt lat="45.61675" lon="4.36121">
        <ele>532</ele>
        <time>2017-03-19T08:05:28Z</time>
      </trkpt>
      <trkpt lat="45.6167" lon="4.36119">
        <ele>531.8</ele>
        <time>2017-03-19T08:05:29Z</time>
      </trkpt>
      <trkpt lat="45.61666" lon="4.36119">
        <ele>531.4</ele>
        <time>2017-03-19T08:05:30Z</time>
      </trkpt>
      <trkpt lat="45.61662" lon="4.36116">
        <ele>531.3</ele>
        <time>2017-03-19T08:05:31Z</time>
      </trkpt>
      <trkpt lat="45.61657" lon="4.36113">
        <ele>530.7</ele>
        <time>2017-03-19T08:05:32Z</time>
      </trkpt>
      <trkpt lat="45.61653" lon="4.3611">
        <ele>530</ele>
        <time>2017-03-19T08:05:33Z</time>
      </trkpt>
      <trkpt lat="45.61648" lon="4.36105">
        <ele>529.3</ele>
        <time>2017-03-19T08:05:34Z</time>
      </trkpt>
      <trkpt lat="45.61645" lon="4.361">
        <ele>528.6</ele>
        <time>2017-03-19T08:05:35Z</time>
      </trkpt>
      <trkpt lat="45.61644" lon="4.36095">
        <ele>528.1</ele>
        <time>2017-03-19T08:05:36Z</time>
      </trkpt>
      <trkpt lat="45.61643" lon="4.3609">
        <ele>527.2</ele>
        <time>2017-03-19T08:05:38Z</time>
      </trkpt>
      <trkpt lat="45.61644" lon="4.36086">
        <ele>527.2</ele>
        <time>2017-03-19T08:05:40Z</time>
      </trkpt>
      <trkpt lat="45.61649" lon="4.36081">
        <ele>527.2</ele>
        <time>2017-03-19T08:05:42Z</time>
      </trkpt>
      <trkpt lat="45.61653" lon="4.36076">
        <ele>527.4</ele>
        <time>2017-03-19T08:05:44Z</time>
      </trkpt>
      <trkpt lat="45.61656" lon="4.36074">
        <ele>527.2</ele>
        <time>2017-03-19T08:05:45Z</time>
      </trkpt>
      <trkpt lat="45.61659" lon="4.36071">
        <ele>526.8</ele>
        <time>2017-03-19T08:05:46Z</time>
      </trkpt>
      <trkpt lat="45.61662" lon="4.36068">
        <ele>526.9</ele>
        <time>2017-03-19T08:05:47Z</time>
      </trkpt>
      <trkpt lat="45.61666" lon="4.36064">
        <ele>526.3</ele>
        <time>2017-03-19T08:05:48Z</time>
      </trkpt>
      <trkpt lat="45.61669" lon="4.3606">
        <ele>525.8</ele>
        <time>2017-03-19T08:05:49Z</time>
      </trkpt>
      <trkpt lat="45.61673" lon="4.36053">
        <ele>524.7</ele>
        <time>2017-03-19T08:05:50Z</time>
      </trkpt>
      <trkpt lat="45.6168" lon="4.36049">
        <ele>523.6</ele>
        <time>2017-03-19T08:05:51Z</time>
      </trkpt>
      <trkpt lat="45.61686" lon="4.36043">
        <ele>522.8</ele>
        <time>2017-03-19T08:05:52Z</time>
      </trkpt>
      <trkpt lat="45.61691" lon="4.36036">
        <ele>521.3</ele>
        <time>2017-03-19T08:05:53Z</time>
      </trkpt>
      <trkpt lat="45.61697" lon="4.36028">
        <ele>520.3</ele>
        <time>2017-03-19T08:05:54Z</time>
      </trkpt>
      <trkpt lat="45.61702" lon="4.36022">
        <ele>519.8</ele>
        <time>2017-03-19T08:05:55Z</time>
      </trkpt>
      <trkpt lat="45.61706" lon="4.36011">
        <ele>518.7</ele>
        <time>2017-03-19T08:05:56Z</time>
      </trkpt>
      <trkpt lat="45.6171" lon="4.36002">
        <ele>518.2</ele>
        <time>2017-03-19T08:05:57Z</time>
      </trkpt>
      <trkpt lat="45.61713" lon="4.35992">
        <ele>517.4</ele>
        <time>2017-03-19T08:05:58Z</time>
      </trkpt>
      <trkpt lat="45.61714" lon="4.35983">
        <ele>516.2</ele>
        <time>2017-03-19T08:05:59Z</time>
      </trkpt>
      <trkpt lat="45.61717" lon="4.35974">
        <ele>515.5</ele>
        <time>2017-03-19T08:06:00Z</time>
      </trkpt>
      <trkpt lat="45.61719" lon="4.35964">
        <ele>515.3</ele>
        <time>2017-03-19T08:06:01Z</time>
      </trkpt>
      <trkpt lat="45.6172" lon="4.35955">
        <ele>515.4</ele>
        <time>2017-03-19T08:06:02Z</time>
      </trkpt>
      <trkpt lat="45.6172" lon="4.35948">
        <ele>515.5</ele>
        <time>2017-03-19T08:06:03Z</time>
      </trkpt>
      <trkpt lat="45.61719" lon="4.3594">
        <ele>515.6</ele>
        <time>2017-03-19T08:06:04Z</time>
      </trkpt>
      <trkpt lat="45.61718" lon="4.35932">
        <ele>515.1</ele>
        <time>2017-03-19T08:06:05Z</time>
      </trkpt>
      <trkpt lat="45.61717" lon="4.35925">
        <ele>515</ele>
        <time>2017-03-19T08:06:06Z</time>
      </trkpt>
      <trkpt lat="45.61717" lon="4.35921">
        <ele>515.1</ele>
        <time>2017-03-19T08:06:07Z</time>
      </trkpt>
      <trkpt lat="45.61715" lon="4.35916">
        <ele>514.7</ele>
        <time>2017-03-19T08:06:08Z</time>
      </trkpt>
      <trkpt lat="45.61715" lon="4.35912">
        <ele>514.9</ele>
        <time>2017-03-19T08:06:09Z</time>
      </trkpt>
      <trkpt lat="45.61714" lon="4.35908">
        <ele>515.1</ele>
        <time>2017-03-19T08:06:10Z</time>
      </trkpt>
      <trkpt lat="45.61713" lon="4.35902">
        <ele>515.4</ele>
        <time>2017-03-19T08:06:11Z</time>
      </trkpt>
      <trkpt lat="45.61713" lon="4.35895">
        <ele>516.1</ele>
        <time>2017-03-19T08:06:12Z</time>
      </trkpt>
      <trkpt lat="45.61712" lon="4.3589">
        <ele>516</ele>
        <time>2017-03-19T08:06:13Z</time>
      </trkpt>
      <trkpt lat="45.61711" lon="4.35884">
        <ele>516.4</ele>
        <time>2017-03-19T08:06:14Z</time>
      </trkpt>
      <trkpt lat="45.6171" lon="4.35877">
        <ele>516.5</ele>
        <time>2017-03-19T08:06:15Z</time>
      </trkpt>
      <trkpt lat="45.61709" lon="4.3587">
        <ele>516.9</ele>
        <time>2017-03-19T08:06:16Z</time>
      </trkpt>
      <trkpt lat="45.61708" lon="4.35866">
        <ele>517.2</ele>
        <time>2017-03-19T08:06:17Z</time>
      </trkpt>
      <trkpt lat="45.61707" lon="4.35862">
        <ele>517.5</ele>
        <time>2017-03-19T08:06:18Z</time>
      </trkpt>
      <trkpt lat="45.61707" lon="4.35857">
        <ele>517.1</ele>
        <time>2017-03-19T08:06:19Z</time>
      </trkpt>
      <trkpt lat="45.61706" lon="4.35851">
        <ele>517.5</ele>
        <time>2017-03-19T08:06:20Z</time>
      </trkpt>
      <trkpt lat="45.61703" lon="4.35842">
        <ele>517.2</ele>
        <time>2017-03-19T08:06:22Z</time>
      </trkpt>
      <trkpt lat="45.61702" lon="4.35837">
        <ele>517.2</ele>
        <time>2017-03-19T08:06:23Z</time>
      </trkpt>
      <trkpt lat="45.61701" lon="4.35829">
        <ele>517.2</ele>
        <time>2017-03-19T08:06:24Z</time>
      </trkpt>
      <trkpt lat="45.61699" lon="4.35824">
        <ele>516.8</ele>
        <time>2017-03-19T08:06:25Z</time>
      </trkpt>
      <trkpt lat="45.61698" lon="4.35817">
        <ele>516.6</ele>
        <time>2017-03-19T08:06:26Z</time>
      </trkpt>
      <trkpt lat="45.61696" lon="4.35812">
        <ele>516.6</ele>
        <time>2017-03-19T08:06:27Z</time>
      </trkpt>
      <trkpt lat="45.61694" lon="4.35807">
        <ele>516.3</ele>
        <time>2017-03-19T08:06:28Z</time>
      </trkpt>
      <trkpt lat="45.61692" lon="4.35802">
        <ele>516</ele>
        <time>2017-03-19T08:06:29Z</time>
      </trkpt>
      <trkpt lat="45.61689" lon="4.35796">
        <ele>515.9</ele>
        <time>2017-03-19T08:06:31Z</time>
      </trkpt>
      <trkpt lat="45.61686" lon="4.35793">
        <ele>515.9</ele>
        <time>2017-03-19T08:06:32Z</time>
      </trkpt>
      <trkpt lat="45.61684" lon="4.35789">
        <ele>515.8</ele>
        <time>2017-03-19T08:06:33Z</time>
      </trkpt>
      <trkpt lat="45.61681" lon="4.35785">
        <ele>515.8</ele>
        <time>2017-03-19T08:06:34Z</time>
      </trkpt>
      <trkpt lat="45.61678" lon="4.3578">
        <ele>515.8</ele>
        <time>2017-03-19T08:06:35Z</time>
      </trkpt>
      <trkpt lat="45.61674" lon="4.35775">
        <ele>515.9</ele>
        <time>2017-03-19T08:06:36Z</time>
      </trkpt>
      <trkpt lat="45.61671" lon="4.35771">
        <ele>516.4</ele>
        <time>2017-03-19T08:06:37Z</time>
      </trkpt>
      <trkpt lat="45.61667" lon="4.35767">
        <ele>516.4</ele>
        <time>2017-03-19T08:06:38Z</time>
      </trkpt>
      <trkpt lat="45.61664" lon="4.35763">
        <ele>516.9</ele>
        <time>2017-03-19T08:06:39Z</time>
      </trkpt>
      <trkpt lat="45.6166" lon="4.3576">
        <ele>517.5</ele>
        <time>2017-03-19T08:06:40Z</time>
      </trkpt>
      <trkpt lat="45.61657" lon="4.35757">
        <ele>518.2</ele>
        <time>2017-03-19T08:06:41Z</time>
      </trkpt>
      <trkpt lat="45.61654" lon="4.35754">
        <ele>518.8</ele>
        <time>2017-03-19T08:06:42Z</time>
      </trkpt>
      <trkpt lat="45.6165" lon="4.3575">
        <ele>519</ele>
        <time>2017-03-19T08:06:43Z</time>
      </trkpt>
      <trkpt lat="45.61646" lon="4.35747">
        <ele>519.8</ele>
        <time>2017-03-19T08:06:44Z</time>
      </trkpt>
      <trkpt lat="45.61642" lon="4.35743">
        <ele>520.5</ele>
        <time>2017-03-19T08:06:45Z</time>
      </trkpt>
      <trkpt lat="45.61637" lon="4.35741">
        <ele>521.4</ele>
        <time>2017-03-19T08:06:46Z</time>
      </trkpt>
      <trkpt lat="45.61633" lon="4.35739">
        <ele>521.5</ele>
        <time>2017-03-19T08:06:47Z</time>
      </trkpt>
      <trkpt lat="45.61629" lon="4.35737">
        <ele>521.6</ele>
        <time>2017-03-19T08:06:48Z</time>
      </trkpt>
      <trkpt lat="45.61625" lon="4.35736">
        <ele>522</ele>
        <time>2017-03-19T08:06:49Z</time>
      </trkpt>
      <trkpt lat="45.61623" lon="4.35735">
        <ele>521.9</ele>
        <time>2017-03-19T08:06:50Z</time>
      </trkpt>
      <trkpt lat="45.61618" lon="4.35733">
        <ele>521.8</ele>
        <time>2017-03-19T08:06:52Z</time>
      </trkpt>
      <trkpt lat="45.61615" lon="4.35732">
        <ele>522</ele>
        <time>2017-03-19T08:06:53Z</time>
      </trkpt>
      <trkpt lat="45.61612" lon="4.3573">
        <ele>521.9</ele>
        <time>2017-03-19T08:06:54Z</time>
      </trkpt>
      <trkpt lat="45.61609" lon="4.35728">
        <ele>521.8</ele>
        <time>2017-03-19T08:06:55Z</time>
      </trkpt>
      <trkpt lat="45.61603" lon="4.35726">
        <ele>521.7</ele>
        <time>2017-03-19T08:07:01Z</time>
      </trkpt>
      <trkpt lat="45.61604" lon="4.3573">
        <ele>521.5</ele>
        <time>2017-03-19T08:07:29Z</time>
      </trkpt>
      <trkpt lat="45.61607" lon="4.35734">
        <ele>521.5</ele>
        <time>2017-03-19T08:07:31Z</time>
      </trkpt>
      <trkpt lat="45.61609" lon="4.35736">
        <ele>521.7</ele>
        <time>2017-03-19T08:07:32Z</time>
      </trkpt>
      <trkpt lat="45.61611" lon="4.35739">
        <ele>521.5</ele>
        <time>2017-03-19T08:07:33Z</time>
      </trkpt>
      <trkpt lat="45.61614" lon="4.35741">
        <ele>521.5</ele>
        <time>2017-03-19T08:07:34Z</time>
      </trkpt>
      <trkpt lat="45.61616" lon="4.35743">
        <ele>521.2</ele>
        <time>2017-03-19T08:07:35Z</time>
      </trkpt>
      <trkpt lat="45.6162" lon="4.35744">
        <ele>521.4</ele>
        <time>2017-03-19T08:07:36Z</time>
      </trkpt>
      <trkpt lat="45.61624" lon="4.35747">
        <ele>521.1</ele>
        <time>2017-03-19T08:07:37Z</time>
      </trkpt>
      <trkpt lat="45.61628" lon="4.3575">
        <ele>520.6</ele>
        <time>2017-03-19T08:07:38Z</time>
      </trkpt>
      <trkpt lat="45.61633" lon="4.35754">
        <ele>519.8</ele>
        <time>2017-03-19T08:07:39Z</time>
      </trkpt>
      <trkpt lat="45.61641" lon="4.35758">
        <ele>519.4</ele>
        <time>2017-03-19T08:07:40Z</time>
      </trkpt>
      <trkpt lat="45.61645" lon="4.35763">
        <ele>517.8</ele>
        <time>2017-03-19T08:07:41Z</time>
      </trkpt>
      <trkpt lat="45.6165" lon="4.35766">
        <ele>517.8</ele>
        <time>2017-03-19T08:07:42Z</time>
      </trkpt>
      <trkpt lat="45.61653" lon="4.35769">
        <ele>517.1</ele>
        <time>2017-03-19T08:07:43Z</time>
      </trkpt>
      <trkpt lat="45.61656" lon="4.35772">
        <ele>516.6</ele>
        <time>2017-03-19T08:07:44Z</time>
      </trkpt>
      <trkpt lat="45.61659" lon="4.35775">
        <ele>516.8</ele>
        <time>2017-03-19T08:07:45Z</time>
      </trkpt>
      <trkpt lat="45.61665" lon="4.3578">
        <ele>516.3</ele>
        <time>2017-03-19T08:07:47Z</time>
      </trkpt>
      <trkpt lat="45.6167" lon="4.35784">
        <ele>516.2</ele>
        <time>2017-03-19T08:07:48Z</time>
      </trkpt>
      <trkpt lat="45.61673" lon="4.35788">
        <ele>516.3</ele>
        <time>2017-03-19T08:07:49Z</time>
      </trkpt>
      <trkpt lat="45.61676" lon="4.35792">
        <ele>516.3</ele>
        <time>2017-03-19T08:07:50Z</time>
      </trkpt>
      <trkpt lat="45.61679" lon="4.35796">
        <ele>516.3</ele>
        <time>2017-03-19T08:07:51Z</time>
      </trkpt>
      <trkpt lat="45.61681" lon="4.358">
        <ele>516.5</ele>
        <time>2017-03-19T08:07:52Z</time>
      </trkpt>
      <trkpt lat="45.61683" lon="4.35805">
        <ele>516.8</ele>
        <time>2017-03-19T08:07:53Z</time>
      </trkpt>
      <trkpt lat="45.61686" lon="4.3581">
        <ele>516.8</ele>
        <time>2017-03-19T08:07:54Z</time>
      </trkpt>
      <trkpt lat="45.61689" lon="4.35815">
        <ele>517.2</ele>
        <time>2017-03-19T08:07:55Z</time>
      </trkpt>
      <trkpt lat="45.61691" lon="4.35819">
        <ele>517.5</ele>
        <time>2017-03-19T08:07:56Z</time>
      </trkpt>
      <trkpt lat="45.61693" lon="4.35823">
        <ele>517.8</ele>
        <time>2017-03-19T08:07:57Z</time>
      </trkpt>
      <trkpt lat="45.61696" lon="4.35827">
        <ele>518.1</ele>
        <time>2017-03-19T08:07:58Z</time>
      </trkpt>
      <trkpt lat="45.61697" lon="4.35831">
        <ele>518.2</ele>
        <time>2017-03-19T08:07:59Z</time>
      </trkpt>
      <trkpt lat="45.61699" lon="4.35835">
        <ele>518.5</ele>
        <time>2017-03-19T08:08:00Z</time>
      </trkpt>
      <trkpt lat="45.617" lon="4.35839">
        <ele>518.6</ele>
        <time>2017-03-19T08:08:01Z</time>
      </trkpt>
      <trkpt lat="45.61702" lon="4.35846">
        <ele>518.9</ele>
        <time>2017-03-19T08:08:03Z</time>
      </trkpt>
      <trkpt lat="45.61709" lon="4.35846">
        <ele>519.9</ele>
        <time>2017-03-19T08:08:27Z</time>
      </trkpt>
      <trkpt lat="45.61708" lon="4.3584">
        <ele>519.9</ele>
        <time>2017-03-19T08:08:29Z</time>
      </trkpt>
      <trkpt lat="45.61707" lon="4.35834">
        <ele>519.4</ele>
        <time>2017-03-19T08:08:30Z</time>
      </trkpt>
      <trkpt lat="45.61705" lon="4.35828">
        <ele>519.4</ele>
        <time>2017-03-19T08:08:31Z</time>
      </trkpt>
      <trkpt lat="45.61703" lon="4.35822">
        <ele>519</ele>
        <time>2017-03-19T08:08:32Z</time>
      </trkpt>
      <trkpt lat="45.617" lon="4.35817">
        <ele>518.7</ele>
        <time>2017-03-19T08:08:33Z</time>
      </trkpt>
      <trkpt lat="45.61695" lon="4.3581">
        <ele>518.2</ele>
        <time>2017-03-19T08:08:34Z</time>
      </trkpt>
      <trkpt lat="45.61693" lon="4.35806">
        <ele>518.2</ele>
        <time>2017-03-19T08:08:35Z</time>
      </trkpt>
      <trkpt lat="45.6169" lon="4.35802">
        <ele>517.9</ele>
        <time>2017-03-19T08:08:36Z</time>
      </trkpt>
      <trkpt lat="45.61687" lon="4.35797">
        <ele>517.8</ele>
        <time>2017-03-19T08:08:37Z</time>
      </trkpt>
      <trkpt lat="45.61684" lon="4.35793">
        <ele>517.5</ele>
        <time>2017-03-19T08:08:38Z</time>
      </trkpt>
      <trkpt lat="45.61681" lon="4.35788">
        <ele>517.4</ele>
        <time>2017-03-19T08:08:39Z</time>
      </trkpt>
      <trkpt lat="45.61678" lon="4.35786">
        <ele>517.4</ele>
        <time>2017-03-19T08:08:40Z</time>
      </trkpt>
      <trkpt lat="45.61676" lon="4.35784">
        <ele>517.3</ele>
        <time>2017-03-19T08:08:41Z</time>
      </trkpt>
      <trkpt lat="45.61673" lon="4.3578">
        <ele>517.4</ele>
        <time>2017-03-19T08:08:42Z</time>
      </trkpt>
      <trkpt lat="45.6167" lon="4.35776">
        <ele>517.6</ele>
        <time>2017-03-19T08:08:43Z</time>
      </trkpt>
      <trkpt lat="45.61667" lon="4.35771">
        <ele>517.9</ele>
        <time>2017-03-19T08:08:44Z</time>
      </trkpt>
      <trkpt lat="45.61664" lon="4.35767">
        <ele>518.3</ele>
        <time>2017-03-19T08:08:45Z</time>
      </trkpt>
      <trkpt lat="45.61662" lon="4.35763">
        <ele>518.8</ele>
        <time>2017-03-19T08:08:46Z</time>
      </trkpt>
      <trkpt lat="45.61659" lon="4.3576">
        <ele>519.4</ele>
        <time>2017-03-19T08:08:47Z</time>
      </trkpt>
      <trkpt lat="45.61657" lon="4.35756">
        <ele>520.1</ele>
        <time>2017-03-19T08:08:48Z</time>
      </trkpt>
      <trkpt lat="45.61654" lon="4.35753">
        <ele>520.7</ele>
        <time>2017-03-19T08:08:49Z</time>
      </trkpt>
      <trkpt lat="45.61651" lon="4.35751">
        <ele>520.9</ele>
        <time>2017-03-19T08:08:50Z</time>
      </trkpt>
      <trkpt lat="45.61648" lon="4.35749">
        <ele>521.6</ele>
        <time>2017-03-19T08:08:51Z</time>
      </trkpt>
      <trkpt lat="45.61645" lon="4.35747">
        <ele>521.7</ele>
        <time>2017-03-19T08:08:52Z</time>
      </trkpt>
      <trkpt lat="45.61641" lon="4.35744">
        <ele>522.5</ele>
        <time>2017-03-19T08:08:53Z</time>
      </trkpt>
      <trkpt lat="45.61638" lon="4.35742">
        <ele>522.7</ele>
        <time>2017-03-19T08:08:54Z</time>
      </trkpt>
      <trkpt lat="45.61635" lon="4.35741">
        <ele>522.8</ele>
        <time>2017-03-19T08:08:55Z</time>
      </trkpt>
      <trkpt lat="45.61632" lon="4.3574">
        <ele>523.5</ele>
        <time>2017-03-19T08:08:56Z</time>
      </trkpt>
      <trkpt lat="45.61628" lon="4.35738">
        <ele>523.6</ele>
        <time>2017-03-19T08:08:57Z</time>
      </trkpt>
      <trkpt lat="45.61624" lon="4.35737">
        <ele>523.5</ele>
        <time>2017-03-19T08:08:58Z</time>
      </trkpt>
      <trkpt lat="45.6162" lon="4.35735">
        <ele>523.9</ele>
        <time>2017-03-19T08:08:59Z</time>
      </trkpt>
      <trkpt lat="45.61616" lon="4.35734">
        <ele>523.7</ele>
        <time>2017-03-19T08:09:00Z</time>
      </trkpt>
      <trkpt lat="45.61613" lon="4.35733">
        <ele>523.6</ele>
        <time>2017-03-19T08:09:01Z</time>
      </trkpt>
      <trkpt lat="45.6161" lon="4.35732">
        <ele>523.7</ele>
        <time>2017-03-19T08:09:02Z</time>
      </trkpt>
      <trkpt lat="45.61607" lon="4.35728">
        <ele>523.6</ele>
        <time>2017-03-19T08:09:04Z</time>
      </trkpt>
      <trkpt lat="45.61603" lon="4.35722">
        <ele>523.7</ele>
        <time>2017-03-19T08:09:06Z</time>
      </trkpt>
      <trkpt lat="45.61602" lon="4.35719">
        <ele>523.7</ele>
        <time>2017-03-19T08:09:07Z</time>
      </trkpt>
      <trkpt lat="45.61599" lon="4.35715">
        <ele>523.7</ele>
        <time>2017-03-19T08:09:08Z</time>
      </trkpt>
      <trkpt lat="45.61589" lon="4.3571">
        <ele>523.3</ele>
        <time>2017-03-19T08:09:09Z</time>
      </trkpt>
      <trkpt lat="45.61582" lon="4.35707">
        <ele>522.9</ele>
        <time>2017-03-19T08:09:10Z</time>
      </trkpt>
      <trkpt lat="45.61574" lon="4.35704">
        <ele>522.1</ele>
        <time>2017-03-19T08:09:11Z</time>
      </trkpt>
      <trkpt lat="45.61567" lon="4.357">
        <ele>521.2</ele>
        <time>2017-03-19T08:09:12Z</time>
      </trkpt>
      <trkpt lat="45.61561" lon="4.35697">
        <ele>520.2</ele>
        <time>2017-03-19T08:09:13Z</time>
      </trkpt>
      <trkpt lat="45.61555" lon="4.35693">
        <ele>519.3</ele>
        <time>2017-03-19T08:09:14Z</time>
      </trkpt>
      <trkpt lat="45.6155" lon="4.35689">
        <ele>518.7</ele>
        <time>2017-03-19T08:09:15Z</time>
      </trkpt>
      <trkpt lat="45.61546" lon="4.35684">
        <ele>518.4</ele>
        <time>2017-03-19T08:09:16Z</time>
      </trkpt>
      <trkpt lat="45.6154" lon="4.35679">
        <ele>517.7</ele>
        <time>2017-03-19T08:09:17Z</time>
      </trkpt>
      <trkpt lat="45.61535" lon="4.35676">
        <ele>516.9</ele>
        <time>2017-03-19T08:09:18Z</time>
      </trkpt>
      <trkpt lat="45.61531" lon="4.35671">
        <ele>516.7</ele>
        <time>2017-03-19T08:09:19Z</time>
      </trkpt>
      <trkpt lat="45.61533" lon="4.35666">
        <ele>517.4</ele>
        <time>2017-03-19T08:09:20Z</time>
      </trkpt>
      <trkpt lat="45.61529" lon="4.35661">
        <ele>517</ele>
        <time>2017-03-19T08:09:21Z</time>
      </trkpt>
      <trkpt lat="45.61525" lon="4.35656">
        <ele>517.2</ele>
        <time>2017-03-19T08:09:22Z</time>
      </trkpt>
      <trkpt lat="45.61523" lon="4.35651">
        <ele>517.5</ele>
        <time>2017-03-19T08:09:23Z</time>
      </trkpt>
      <trkpt lat="45.6152" lon="4.35647">
        <ele>517.8</ele>
        <time>2017-03-19T08:09:24Z</time>
      </trkpt>
      <trkpt lat="45.61516" lon="4.35642">
        <ele>518</ele>
        <time>2017-03-19T08:09:25Z</time>
      </trkpt>
      <trkpt lat="45.61511" lon="4.35638">
        <ele>517.7</ele>
        <time>2017-03-19T08:09:26Z</time>
      </trkpt>
      <trkpt lat="45.61506" lon="4.35633">
        <ele>517.9</ele>
        <time>2017-03-19T08:09:27Z</time>
      </trkpt>
      <trkpt lat="45.61503" lon="4.35628">
        <ele>518</ele>
        <time>2017-03-19T08:09:28Z</time>
      </trkpt>
      <trkpt lat="45.61499" lon="4.35624">
        <ele>517.8</ele>
        <time>2017-03-19T08:09:29Z</time>
      </trkpt>
      <trkpt lat="45.61497" lon="4.35619">
        <ele>518</ele>
        <time>2017-03-19T08:09:30Z</time>
      </trkpt>
      <trkpt lat="45.61494" lon="4.35612">
        <ele>518.3</ele>
        <time>2017-03-19T08:09:31Z</time>
      </trkpt>
      <trkpt lat="45.61492" lon="4.35608">
        <ele>518.7</ele>
        <time>2017-03-19T08:09:32Z</time>
      </trkpt>
      <trkpt lat="45.6149" lon="4.35603">
        <ele>519</ele>
        <time>2017-03-19T08:09:33Z</time>
      </trkpt>
      <trkpt lat="45.61489" lon="4.35598">
        <ele>519.4</ele>
        <time>2017-03-19T08:09:34Z</time>
      </trkpt>
      <trkpt lat="45.61486" lon="4.35594">
        <ele>519.7</ele>
        <time>2017-03-19T08:09:35Z</time>
      </trkpt>
      <trkpt lat="45.61483" lon="4.3559">
        <ele>519.9</ele>
        <time>2017-03-19T08:09:36Z</time>
      </trkpt>
      <trkpt lat="45.61481" lon="4.35587">
        <ele>519.9</ele>
        <time>2017-03-19T08:09:37Z</time>
      </trkpt>
      <trkpt lat="45.61477" lon="4.35584">
        <ele>520.1</ele>
        <time>2017-03-19T08:09:38Z</time>
      </trkpt>
      <trkpt lat="45.61475" lon="4.35581">
        <ele>520.2</ele>
        <time>2017-03-19T08:09:39Z</time>
      </trkpt>
      <trkpt lat="45.61469" lon="4.35578">
        <ele>520</ele>
        <time>2017-03-19T08:09:40Z</time>
      </trkpt>
      <trkpt lat="45.61467" lon="4.35574">
        <ele>520</ele>
        <time>2017-03-19T08:09:41Z</time>
      </trkpt>
      <trkpt lat="45.61466" lon="4.3557">
        <ele>519.8</ele>
        <time>2017-03-19T08:09:42Z</time>
      </trkpt>
      <trkpt lat="45.61464" lon="4.35565">
        <ele>519.6</ele>
        <time>2017-03-19T08:09:43Z</time>
      </trkpt>
      <trkpt lat="45.61461" lon="4.35561">
        <ele>519.5</ele>
        <time>2017-03-19T08:09:44Z</time>
      </trkpt>
      <trkpt lat="45.61459" lon="4.35558">
        <ele>519.2</ele>
        <time>2017-03-19T08:09:45Z</time>
      </trkpt>
      <trkpt lat="45.61456" lon="4.35555">
        <ele>518.9</ele>
        <time>2017-03-19T08:09:46Z</time>
      </trkpt>
      <trkpt lat="45.61448" lon="4.35549">
        <ele>518.2</ele>
        <time>2017-03-19T08:09:47Z</time>
      </trkpt>
      <trkpt lat="45.61442" lon="4.35544">
        <ele>517.8</ele>
        <time>2017-03-19T08:09:48Z</time>
      </trkpt>
      <trkpt lat="45.61438" lon="4.3554">
        <ele>517.5</ele>
        <time>2017-03-19T08:09:49Z</time>
      </trkpt>
      <trkpt lat="45.61434" lon="4.35533">
        <ele>516.6</ele>
        <time>2017-03-19T08:09:50Z</time>
      </trkpt>
      <trkpt lat="45.61431" lon="4.3553">
        <ele>516.5</ele>
        <time>2017-03-19T08:09:51Z</time>
      </trkpt>
      <trkpt lat="45.61428" lon="4.35524">
        <ele>516.1</ele>
        <time>2017-03-19T08:09:52Z</time>
      </trkpt>
      <trkpt lat="45.61424" lon="4.35516">
        <ele>515.3</ele>
        <time>2017-03-19T08:09:53Z</time>
      </trkpt>
      <trkpt lat="45.61421" lon="4.35509">
        <ele>514.8</ele>
        <time>2017-03-19T08:09:54Z</time>
      </trkpt>
      <trkpt lat="45.61421" lon="4.35501">
        <ele>514.8</ele>
        <time>2017-03-19T08:09:55Z</time>
      </trkpt>
      <trkpt lat="45.61418" lon="4.35497">
        <ele>514.5</ele>
        <time>2017-03-19T08:09:57Z</time>
      </trkpt>
      <trkpt lat="45.61415" lon="4.35499">
        <ele>514.4</ele>
        <time>2017-03-19T08:09:58Z</time>
      </trkpt>
      <trkpt lat="45.61414" lon="4.35506">
        <ele>514.5</ele>
        <time>2017-03-19T08:10:00Z</time>
      </trkpt>
      <trkpt lat="45.61412" lon="4.35513">
        <ele>514.5</ele>
        <time>2017-03-19T08:10:01Z</time>
      </trkpt>
      <trkpt lat="45.61411" lon="4.3552">
        <ele>514.9</ele>
        <time>2017-03-19T08:10:02Z</time>
      </trkpt>
      <trkpt lat="45.6141" lon="4.35529">
        <ele>515.1</ele>
        <time>2017-03-19T08:10:03Z</time>
      </trkpt>
      <trkpt lat="45.61407" lon="4.35537">
        <ele>515.5</ele>
        <time>2017-03-19T08:10:04Z</time>
      </trkpt>
      <trkpt lat="45.61405" lon="4.35542">
        <ele>515.3</ele>
        <time>2017-03-19T08:10:05Z</time>
      </trkpt>
      <trkpt lat="45.61401" lon="4.35545">
        <ele>515</ele>
        <time>2017-03-19T08:10:06Z</time>
      </trkpt>
      <trkpt lat="45.61397" lon="4.35545">
        <ele>514.1</ele>
        <time>2017-03-19T08:10:07Z</time>
      </trkpt>
      <trkpt lat="45.61391" lon="4.35544">
        <ele>513.1</ele>
        <time>2017-03-19T08:10:08Z</time>
      </trkpt>
      <trkpt lat="45.61385" lon="4.35542">
        <ele>512.2</ele>
        <time>2017-03-19T08:10:09Z</time>
      </trkpt>
      <trkpt lat="45.61378" lon="4.3554">
        <ele>511</ele>
        <time>2017-03-19T08:10:10Z</time>
      </trkpt>
      <trkpt lat="45.6137" lon="4.35537">
        <ele>508.8</ele>
        <time>2017-03-19T08:10:11Z</time>
      </trkpt>
      <trkpt lat="45.61362" lon="4.35535">
        <ele>507.4</ele>
        <time>2017-03-19T08:10:12Z</time>
      </trkpt>
      <trkpt lat="45.61352" lon="4.35531">
        <ele>504.6</ele>
        <time>2017-03-19T08:10:13Z</time>
      </trkpt>
      <trkpt lat="45.61342" lon="4.35528">
        <ele>502.1</ele>
        <time>2017-03-19T08:10:14Z</time>
      </trkpt>
      <trkpt lat="45.61333" lon="4.35526">
        <ele>499.8</ele>
        <time>2017-03-19T08:10:15Z</time>
      </trkpt>
      <trkpt lat="45.61322" lon="4.35524">
        <ele>497.1</ele>
        <time>2017-03-19T08:10:16Z</time>
      </trkpt>
      <trkpt lat="45.61314" lon="4.35521">
        <ele>495.6</ele>
        <time>2017-03-19T08:10:17Z</time>
      </trkpt>
      <trkpt lat="45.61309" lon="4.35519">
        <ele>494.5</ele>
        <time>2017-03-19T08:10:18Z</time>
      </trkpt>
      <trkpt lat="45.61305" lon="4.35519">
        <ele>494.1</ele>
        <time>2017-03-19T08:10:19Z</time>
      </trkpt>
      <trkpt lat="45.61301" lon="4.35523">
        <ele>493.2</ele>
        <time>2017-03-19T08:10:20Z</time>
      </trkpt>
      <trkpt lat="45.61298" lon="4.35529">
        <ele>492.7</ele>
        <time>2017-03-19T08:10:21Z</time>
      </trkpt>
      <trkpt lat="45.61295" lon="4.35537">
        <ele>492.1</ele>
        <time>2017-03-19T08:10:22Z</time>
      </trkpt>
      <trkpt lat="45.61292" lon="4.35546">
        <ele>491.2</ele>
        <time>2017-03-19T08:10:23Z</time>
      </trkpt>
      <trkpt lat="45.61288" lon="4.35555">
        <ele>490.1</ele>
        <time>2017-03-19T08:10:24Z</time>
      </trkpt>
      <trkpt lat="45.61284" lon="4.35567">
        <ele>488.2</ele>
        <time>2017-03-19T08:10:25Z</time>
      </trkpt>
      <trkpt lat="45.6128" lon="4.35576">
        <ele>486.3</ele>
        <time>2017-03-19T08:10:26Z</time>
      </trkpt>
      <trkpt lat="45.61274" lon="4.35584">
        <ele>484.7</ele>
        <time>2017-03-19T08:10:27Z</time>
      </trkpt>
      <trkpt lat="45.61267" lon="4.35591">
        <ele>483.4</ele>
        <time>2017-03-19T08:10:28Z</time>
      </trkpt>
      <trkpt lat="45.6126" lon="4.35596">
        <ele>482.3</ele>
        <time>2017-03-19T08:10:29Z</time>
      </trkpt>
      <trkpt lat="45.61251" lon="4.356">
        <ele>481.8</ele>
        <time>2017-03-19T08:10:30Z</time>
      </trkpt>
      <trkpt lat="45.61242" lon="4.35605">
        <ele>481.4</ele>
        <time>2017-03-19T08:10:31Z</time>
      </trkpt>
      <trkpt lat="45.61233" lon="4.35609">
        <ele>481.4</ele>
        <time>2017-03-19T08:10:32Z</time>
      </trkpt>
      <trkpt lat="45.61224" lon="4.35614">
        <ele>481.5</ele>
        <time>2017-03-19T08:10:33Z</time>
      </trkpt>
      <trkpt lat="45.61214" lon="4.3562">
        <ele>481.7</ele>
        <time>2017-03-19T08:10:34Z</time>
      </trkpt>
      <trkpt lat="45.61205" lon="4.35624">
        <ele>481.5</ele>
        <time>2017-03-19T08:10:35Z</time>
      </trkpt>
      <trkpt lat="45.61195" lon="4.35629">
        <ele>481</ele>
        <time>2017-03-19T08:10:36Z</time>
      </trkpt>
      <trkpt lat="45.61185" lon="4.35634">
        <ele>479.7</ele>
        <time>2017-03-19T08:10:37Z</time>
      </trkpt>
      <trkpt lat="45.61175" lon="4.35639">
        <ele>477.5</ele>
        <time>2017-03-19T08:10:38Z</time>
      </trkpt>
      <trkpt lat="45.61164" lon="4.35643">
        <ele>476.3</ele>
        <time>2017-03-19T08:10:39Z</time>
      </trkpt>
      <trkpt lat="45.61153" lon="4.35649">
        <ele>475.4</ele>
        <time>2017-03-19T08:10:40Z</time>
      </trkpt>
      <trkpt lat="45.61144" lon="4.35653">
        <ele>475</ele>
        <time>2017-03-19T08:10:41Z</time>
      </trkpt>
      <trkpt lat="45.61134" lon="4.35657">
        <ele>474.7</ele>
        <time>2017-03-19T08:10:42Z</time>
      </trkpt>
      <trkpt lat="45.61124" lon="4.35659">
        <ele>473.6</ele>
        <time>2017-03-19T08:10:43Z</time>
      </trkpt>
      <trkpt lat="45.61113" lon="4.3566">
        <ele>472.3</ele>
        <time>2017-03-19T08:10:44Z</time>
      </trkpt>
      <trkpt lat="45.61103" lon="4.35663">
        <ele>469.6</ele>
        <time>2017-03-19T08:10:45Z</time>
      </trkpt>
      <trkpt lat="45.61093" lon="4.35663">
        <ele>467.1</ele>
        <time>2017-03-19T08:10:46Z</time>
      </trkpt>
      <trkpt lat="45.61083" lon="4.35663">
        <ele>464.8</ele>
        <time>2017-03-19T08:10:47Z</time>
      </trkpt>
      <trkpt lat="45.61072" lon="4.35662">
        <ele>462.5</ele>
        <time>2017-03-19T08:10:48Z</time>
      </trkpt>
      <trkpt lat="45.61062" lon="4.3566">
        <ele>461.4</ele>
        <time>2017-03-19T08:10:49Z</time>
      </trkpt>
      <trkpt lat="45.61055" lon="4.35659">
        <ele>461.1</ele>
        <time>2017-03-19T08:10:50Z</time>
      </trkpt>
      <trkpt lat="45.61049" lon="4.35657">
        <ele>460.9</ele>
        <time>2017-03-19T08:10:51Z</time>
      </trkpt>
      <trkpt lat="45.61044" lon="4.35655">
        <ele>460.6</ele>
        <time>2017-03-19T08:10:52Z</time>
      </trkpt>
      <trkpt lat="45.6104" lon="4.35655">
        <ele>460.3</ele>
        <time>2017-03-19T08:10:53Z</time>
      </trkpt>
      <trkpt lat="45.61037" lon="4.35654">
        <ele>460</ele>
        <time>2017-03-19T08:10:54Z</time>
      </trkpt>
      <trkpt lat="45.61034" lon="4.35652">
        <ele>459.8</ele>
        <time>2017-03-19T08:10:56Z</time>
      </trkpt>
      <trkpt lat="45.61027" lon="4.3565">
        <ele>458.9</ele>
        <time>2017-03-19T08:10:58Z</time>
      </trkpt>
      <trkpt lat="45.61023" lon="4.35649">
        <ele>458.5</ele>
        <time>2017-03-19T08:10:59Z</time>
      </trkpt>
      <trkpt lat="45.61018" lon="4.35649">
        <ele>457.6</ele>
        <time>2017-03-19T08:11:00Z</time>
      </trkpt>
      <trkpt lat="45.61013" lon="4.35649">
        <ele>456.5</ele>
        <time>2017-03-19T08:11:01Z</time>
      </trkpt>
      <trkpt lat="45.61007" lon="4.35651">
        <ele>456.2</ele>
        <time>2017-03-19T08:11:02Z</time>
      </trkpt>
      <trkpt lat="45.61001" lon="4.35654">
        <ele>455.4</ele>
        <time>2017-03-19T08:11:03Z</time>
      </trkpt>
      <trkpt lat="45.60995" lon="4.35656">
        <ele>455.2</ele>
        <time>2017-03-19T08:11:04Z</time>
      </trkpt>
      <trkpt lat="45.60989" lon="4.35658">
        <ele>454.3</ele>
        <time>2017-03-19T08:11:05Z</time>
      </trkpt>
      <trkpt lat="45.60981" lon="4.3566">
        <ele>453.7</ele>
        <time>2017-03-19T08:11:06Z</time>
      </trkpt>
      <trkpt lat="45.60973" lon="4.35663">
        <ele>452.1</ele>
        <time>2017-03-19T08:11:07Z</time>
      </trkpt>
      <trkpt lat="45.60967" lon="4.35667">
        <ele>451.3</ele>
        <time>2017-03-19T08:11:08Z</time>
      </trkpt>
      <trkpt lat="45.60964" lon="4.35672">
        <ele>451</ele>
        <time>2017-03-19T08:11:09Z</time>
      </trkpt>
      <trkpt lat="45.6096" lon="4.35677">
        <ele>450.8</ele>
        <time>2017-03-19T08:11:10Z</time>
      </trkpt>
      <trkpt lat="45.60956" lon="4.35685">
        <ele>449.4</ele>
        <time>2017-03-19T08:11:11Z</time>
      </trkpt>
      <trkpt lat="45.60955" lon="4.35695">
        <ele>449.5</ele>
        <time>2017-03-19T08:11:12Z</time>
      </trkpt>
      <trkpt lat="45.60953" lon="4.35706">
        <ele>448.5</ele>
        <time>2017-03-19T08:11:13Z</time>
      </trkpt>
      <trkpt lat="45.60951" lon="4.35715">
        <ele>447.8</ele>
        <time>2017-03-19T08:11:14Z</time>
      </trkpt>
      <trkpt lat="45.60948" lon="4.35724">
        <ele>446.3</ele>
        <time>2017-03-19T08:11:15Z</time>
      </trkpt>
      <trkpt lat="45.60945" lon="4.35731">
        <ele>445.1</ele>
        <time>2017-03-19T08:11:16Z</time>
      </trkpt>
      <trkpt lat="45.60939" lon="4.35732">
        <ele>444</ele>
        <time>2017-03-19T08:11:17Z</time>
      </trkpt>
      <trkpt lat="45.60933" lon="4.3573">
        <ele>443</ele>
        <time>2017-03-19T08:11:18Z</time>
      </trkpt>
      <trkpt lat="45.60927" lon="4.35726">
        <ele>442.3</ele>
        <time>2017-03-19T08:11:19Z</time>
      </trkpt>
      <trkpt lat="45.6092" lon="4.35719">
        <ele>441.3</ele>
        <time>2017-03-19T08:11:20Z</time>
      </trkpt>
      <trkpt lat="45.60914" lon="4.3571">
        <ele>440.9</ele>
        <time>2017-03-19T08:11:21Z</time>
      </trkpt>
      <trkpt lat="45.60909" lon="4.35702">
        <ele>440.8</ele>
        <time>2017-03-19T08:11:22Z</time>
      </trkpt>
      <trkpt lat="45.609" lon="4.35694">
        <ele>439.3</ele>
        <time>2017-03-19T08:11:23Z</time>
      </trkpt>
      <trkpt lat="45.60894" lon="4.35683">
        <ele>437.8</ele>
        <time>2017-03-19T08:11:24Z</time>
      </trkpt>
      <trkpt lat="45.60888" lon="4.35673">
        <ele>435.7</ele>
        <time>2017-03-19T08:11:25Z</time>
      </trkpt>
      <trkpt lat="45.60882" lon="4.35659">
        <ele>432.7</ele>
        <time>2017-03-19T08:11:26Z</time>
      </trkpt>
      <trkpt lat="45.60881" lon="4.35643">
        <ele>431.4</ele>
        <time>2017-03-19T08:11:27Z</time>
      </trkpt>
      <trkpt lat="45.60878" lon="4.35629">
        <ele>430.7</ele>
        <time>2017-03-19T08:11:28Z</time>
      </trkpt>
      <trkpt lat="45.60877" lon="4.35617">
        <ele>430.8</ele>
        <time>2017-03-19T08:11:29Z</time>
      </trkpt>
      <trkpt lat="45.60874" lon="4.35603">
        <ele>430.8</ele>
        <time>2017-03-19T08:11:30Z</time>
      </trkpt>
      <trkpt lat="45.60872" lon="4.3559">
        <ele>430.6</ele>
        <time>2017-03-19T08:11:31Z</time>
      </trkpt>
      <trkpt lat="45.60869" lon="4.35576">
        <ele>430.3</ele>
        <time>2017-03-19T08:11:32Z</time>
      </trkpt>
      <trkpt lat="45.60867" lon="4.35562">
        <ele>430.9</ele>
        <time>2017-03-19T08:11:33Z</time>
      </trkpt>
      <trkpt lat="45.60865" lon="4.35548">
        <ele>431.2</ele>
        <time>2017-03-19T08:11:34Z</time>
      </trkpt>
      <trkpt lat="45.60864" lon="4.35536">
        <ele>431.6</ele>
        <time>2017-03-19T08:11:35Z</time>
      </trkpt>
      <trkpt lat="45.60863" lon="4.3552">
        <ele>431.8</ele>
        <time>2017-03-19T08:11:36Z</time>
      </trkpt>
      <trkpt lat="45.60861" lon="4.35508">
        <ele>432.4</ele>
        <time>2017-03-19T08:11:37Z</time>
      </trkpt>
      <trkpt lat="45.60861" lon="4.35499">
        <ele>432.4</ele>
        <time>2017-03-19T08:11:38Z</time>
      </trkpt>
      <trkpt lat="45.60862" lon="4.35491">
        <ele>432</ele>
        <time>2017-03-19T08:11:39Z</time>
      </trkpt>
      <trkpt lat="45.60863" lon="4.35485">
        <ele>432</ele>
        <time>2017-03-19T08:11:40Z</time>
      </trkpt>
      <trkpt lat="45.60865" lon="4.35477">
        <ele>432</ele>
        <time>2017-03-19T08:11:41Z</time>
      </trkpt>
      <trkpt lat="45.60866" lon="4.3547">
        <ele>432</ele>
        <time>2017-03-19T08:11:42Z</time>
      </trkpt>
      <trkpt lat="45.60866" lon="4.35462">
        <ele>432</ele>
        <time>2017-03-19T08:11:43Z</time>
      </trkpt>
      <trkpt lat="45.60865" lon="4.35457">
        <ele>432</ele>
        <time>2017-03-19T08:11:44Z</time>
      </trkpt>
      <trkpt lat="45.60863" lon="4.35452">
        <ele>432</ele>
        <time>2017-03-19T08:11:45Z</time>
      </trkpt>
      <trkpt lat="45.60861" lon="4.35449">
        <ele>432</ele>
        <time>2017-03-19T08:11:46Z</time>
      </trkpt>
      <trkpt lat="45.60856" lon="4.35439">
        <ele>431.6</ele>
        <time>2017-03-19T08:11:47Z</time>
      </trkpt>
      <trkpt lat="45.60854" lon="4.35436">
        <ele>431.3</ele>
        <time>2017-03-19T08:11:48Z</time>
      </trkpt>
      <trkpt lat="45.60854" lon="4.35432">
        <ele>430.9</ele>
        <time>2017-03-19T08:11:49Z</time>
      </trkpt>
      <trkpt lat="45.60854" lon="4.35428">
        <ele>430.6</ele>
        <time>2017-03-19T08:11:50Z</time>
      </trkpt>
      <trkpt lat="45.60854" lon="4.35423">
        <ele>430.2</ele>
        <time>2017-03-19T08:11:51Z</time>
      </trkpt>
      <trkpt lat="45.60853" lon="4.35418">
        <ele>429.9</ele>
        <time>2017-03-19T08:11:52Z</time>
      </trkpt>
      <trkpt lat="45.60853" lon="4.35414">
        <ele>429.5</ele>
        <time>2017-03-19T08:11:53Z</time>
      </trkpt>
      <trkpt lat="45.60852" lon="4.35409">
        <ele>429.2</ele>
        <time>2017-03-19T08:11:54Z</time>
      </trkpt>
      <trkpt lat="45.60851" lon="4.35403">
        <ele>428.8</ele>
        <time>2017-03-19T08:11:55Z</time>
      </trkpt>
      <trkpt lat="45.60851" lon="4.35398">
        <ele>428.4</ele>
        <time>2017-03-19T08:11:56Z</time>
      </trkpt>
      <trkpt lat="45.60851" lon="4.35393">
        <ele>428</ele>
        <time>2017-03-19T08:11:57Z</time>
      </trkpt>
      <trkpt lat="45.60851" lon="4.35388">
        <ele>427.5</ele>
        <time>2017-03-19T08:11:58Z</time>
      </trkpt>
      <trkpt lat="45.60851" lon="4.35382">
        <ele>426.8</ele>
        <time>2017-03-19T08:11:59Z</time>
      </trkpt>
      <trkpt lat="45.60852" lon="4.35377">
        <ele>426.1</ele>
        <time>2017-03-19T08:12:00Z</time>
      </trkpt>
      <trkpt lat="45.60852" lon="4.35372">
        <ele>425.8</ele>
        <time>2017-03-19T08:12:01Z</time>
      </trkpt>
      <trkpt lat="45.60851" lon="4.35368">
        <ele>425.5</ele>
        <time>2017-03-19T08:12:02Z</time>
      </trkpt>
      <trkpt lat="45.60849" lon="4.35364">
        <ele>425.2</ele>
        <time>2017-03-19T08:12:03Z</time>
      </trkpt>
      <trkpt lat="45.60848" lon="4.35359">
        <ele>424.8</ele>
        <time>2017-03-19T08:12:04Z</time>
      </trkpt>
      <trkpt lat="45.60846" lon="4.35354">
        <ele>424.5</ele>
        <time>2017-03-19T08:12:05Z</time>
      </trkpt>
      <trkpt lat="45.60845" lon="4.3535">
        <ele>424.2</ele>
        <time>2017-03-19T08:12:06Z</time>
      </trkpt>
      <trkpt lat="45.60844" lon="4.35345">
        <ele>423.9</ele>
        <time>2017-03-19T08:12:07Z</time>
      </trkpt>
      <trkpt lat="45.60843" lon="4.3534">
        <ele>423.6</ele>
        <time>2017-03-19T08:12:08Z</time>
      </trkpt>
      <trkpt lat="45.60841" lon="4.35334">
        <ele>423.3</ele>
        <time>2017-03-19T08:12:09Z</time>
      </trkpt>
      <trkpt lat="45.60841" lon="4.35328">
        <ele>422.8</ele>
        <time>2017-03-19T08:12:10Z</time>
      </trkpt>
      <trkpt lat="45.6084" lon="4.35322">
        <ele>422.4</ele>
        <time>2017-03-19T08:12:11Z</time>
      </trkpt>
      <trkpt lat="45.60839" lon="4.35315">
        <ele>421.9</ele>
        <time>2017-03-19T08:12:12Z</time>
      </trkpt>
      <trkpt lat="45.60838" lon="4.35308">
        <ele>421.5</ele>
        <time>2017-03-19T08:12:13Z</time>
      </trkpt>
      <trkpt lat="45.60838" lon="4.35302">
        <ele>421.1</ele>
        <time>2017-03-19T08:12:14Z</time>
      </trkpt>
      <trkpt lat="45.60837" lon="4.35296">
        <ele>420.8</ele>
        <time>2017-03-19T08:12:15Z</time>
      </trkpt>
      <trkpt lat="45.60837" lon="4.35289">
        <ele>420.4</ele>
        <time>2017-03-19T08:12:16Z</time>
      </trkpt>
      <trkpt lat="45.60837" lon="4.35282">
        <ele>420.1</ele>
        <time>2017-03-19T08:12:17Z</time>
      </trkpt>
      <trkpt lat="45.60837" lon="4.35276">
        <ele>419.9</ele>
        <time>2017-03-19T08:12:18Z</time>
      </trkpt>
      <trkpt lat="45.60837" lon="4.35271">
        <ele>419.7</ele>
        <time>2017-03-19T08:12:19Z</time>
      </trkpt>
      <trkpt lat="45.60836" lon="4.35265">
        <ele>419.5</ele>
        <time>2017-03-19T08:12:20Z</time>
      </trkpt>
      <trkpt lat="45.60835" lon="4.35259">
        <ele>419.4</ele>
        <time>2017-03-19T08:12:21Z</time>
      </trkpt>
      <trkpt lat="45.60832" lon="4.35251">
        <ele>419.2</ele>
        <time>2017-03-19T08:12:22Z</time>
      </trkpt>
      <trkpt lat="45.6083" lon="4.35245">
        <ele>419.1</ele>
        <time>2017-03-19T08:12:23Z</time>
      </trkpt>
      <trkpt lat="45.60829" lon="4.35239">
        <ele>419</ele>
        <time>2017-03-19T08:12:24Z</time>
      </trkpt>
      <trkpt lat="45.6083" lon="4.35231">
        <ele>418.9</ele>
        <time>2017-03-19T08:12:25Z</time>
      </trkpt>
      <trkpt lat="45.60828" lon="4.35226">
        <ele>418.9</ele>
        <time>2017-03-19T08:12:26Z</time>
      </trkpt>
      <trkpt lat="45.60826" lon="4.35222">
        <ele>418.8</ele>
        <time>2017-03-19T08:12:27Z</time>
      </trkpt>
      <trkpt lat="45.60823" lon="4.35216">
        <ele>418.8</ele>
        <time>2017-03-19T08:12:28Z</time>
      </trkpt>
      <trkpt lat="45.60822" lon="4.35211">
        <ele>418.8</ele>
        <time>2017-03-19T08:12:29Z</time>
      </trkpt>
      <trkpt lat="45.60819" lon="4.35208">
        <ele>418.8</ele>
        <time>2017-03-19T08:12:30Z</time>
      </trkpt>
      <trkpt lat="45.60817" lon="4.35202">
        <ele>418.8</ele>
        <time>2017-03-19T08:12:31Z</time>
      </trkpt>
      <trkpt lat="45.60815" lon="4.35198">
        <ele>418.7</ele>
        <time>2017-03-19T08:12:32Z</time>
      </trkpt>
      <trkpt lat="45.60813" lon="4.35194">
        <ele>418.7</ele>
        <time>2017-03-19T08:12:33Z</time>
      </trkpt>
      <trkpt lat="45.60811" lon="4.35191">
        <ele>418.7</ele>
        <time>2017-03-19T08:12:34Z</time>
      </trkpt>
      <trkpt lat="45.60807" lon="4.35186">
        <ele>418.7</ele>
        <time>2017-03-19T08:12:36Z</time>
      </trkpt>
      <trkpt lat="45.60803" lon="4.35182">
        <ele>418.7</ele>
        <time>2017-03-19T08:12:38Z</time>
      </trkpt>
      <trkpt lat="45.60799" lon="4.35178">
        <ele>418.6</ele>
        <time>2017-03-19T08:12:40Z</time>
      </trkpt>
      <trkpt lat="45.60796" lon="4.35175">
        <ele>418.6</ele>
        <time>2017-03-19T08:12:42Z</time>
      </trkpt>
      <trkpt lat="45.60793" lon="4.35171">
        <ele>418.7</ele>
        <time>2017-03-19T08:12:44Z</time>
      </trkpt>
      <trkpt lat="45.6079" lon="4.35169">
        <ele>418.7</ele>
        <time>2017-03-19T08:12:46Z</time>
      </trkpt>
      <trkpt lat="45.60786" lon="4.35168">
        <ele>418.7</ele>
        <time>2017-03-19T08:12:49Z</time>
      </trkpt>
      <trkpt lat="45.60782" lon="4.3517">
        <ele>418.8</ele>
        <time>2017-03-19T08:12:51Z</time>
      </trkpt>
      <trkpt lat="45.60779" lon="4.35174">
        <ele>418.9</ele>
        <time>2017-03-19T08:12:53Z</time>
      </trkpt>
      <trkpt lat="45.60777" lon="4.35177">
        <ele>419</ele>
        <time>2017-03-19T08:12:55Z</time>
      </trkpt>
      <trkpt lat="45.60775" lon="4.35182">
        <ele>419</ele>
        <time>2017-03-19T08:12:57Z</time>
      </trkpt>
      <trkpt lat="45.60773" lon="4.35186">
        <ele>419</ele>
        <time>2017-03-19T08:13:00Z</time>
      </trkpt>
      <trkpt lat="45.60771" lon="4.35189">
        <ele>419.3</ele>
        <time>2017-03-19T08:13:02Z</time>
      </trkpt>
      <trkpt lat="45.60768" lon="4.35193">
        <ele>419.8</ele>
        <time>2017-03-19T08:13:04Z</time>
      </trkpt>
      <trkpt lat="45.60766" lon="4.35197">
        <ele>420.4</ele>
        <time>2017-03-19T08:13:06Z</time>
      </trkpt>
      <trkpt lat="45.60763" lon="4.35202">
        <ele>421</ele>
        <time>2017-03-19T08:13:08Z</time>
      </trkpt>
      <trkpt lat="45.6076" lon="4.35206">
        <ele>421.7</ele>
        <time>2017-03-19T08:13:10Z</time>
      </trkpt>
      <trkpt lat="45.60757" lon="4.3521">
        <ele>422.3</ele>
        <time>2017-03-19T08:13:12Z</time>
      </trkpt>
      <trkpt lat="45.60754" lon="4.35215">
        <ele>422.8</ele>
        <time>2017-03-19T08:13:14Z</time>
      </trkpt>
      <trkpt lat="45.60751" lon="4.35218">
        <ele>423.2</ele>
        <time>2017-03-19T08:13:16Z</time>
      </trkpt>
      <trkpt lat="45.60749" lon="4.35222">
        <ele>423.5</ele>
        <time>2017-03-19T08:13:18Z</time>
      </trkpt>
      <trkpt lat="45.60747" lon="4.35227">
        <ele>423.7</ele>
        <time>2017-03-19T08:13:20Z</time>
      </trkpt>
      <trkpt lat="45.60744" lon="4.35232">
        <ele>424.1</ele>
        <time>2017-03-19T08:13:22Z</time>
      </trkpt>
      <trkpt lat="45.60742" lon="4.35237">
        <ele>424.7</ele>
        <time>2017-03-19T08:13:24Z</time>
      </trkpt>
      <trkpt lat="45.6074" lon="4.35242">
        <ele>425.2</ele>
        <time>2017-03-19T08:13:26Z</time>
      </trkpt>
      <trkpt lat="45.60738" lon="4.35248">
        <ele>425.4</ele>
        <time>2017-03-19T08:13:28Z</time>
      </trkpt>
      <trkpt lat="45.60736" lon="4.35254">
        <ele>425.9</ele>
        <time>2017-03-19T08:13:30Z</time>
      </trkpt>
      <trkpt lat="45.60733" lon="4.35259">
        <ele>426.8</ele>
        <time>2017-03-19T08:13:32Z</time>
      </trkpt>
      <trkpt lat="45.60731" lon="4.35264">
        <ele>427.8</ele>
        <time>2017-03-19T08:13:34Z</time>
      </trkpt>
      <trkpt lat="45.60729" lon="4.35269">
        <ele>429.2</ele>
        <time>2017-03-19T08:13:36Z</time>
      </trkpt>
      <trkpt lat="45.60727" lon="4.35275">
        <ele>430.6</ele>
        <time>2017-03-19T08:13:38Z</time>
      </trkpt>
      <trkpt lat="45.60726" lon="4.3528">
        <ele>431.2</ele>
        <time>2017-03-19T08:13:40Z</time>
      </trkpt>
      <trkpt lat="45.60724" lon="4.35286">
        <ele>431.7</ele>
        <time>2017-03-19T08:13:42Z</time>
      </trkpt>
      <trkpt lat="45.60722" lon="4.35292">
        <ele>432.3</ele>
        <time>2017-03-19T08:13:44Z</time>
      </trkpt>
      <trkpt lat="45.60721" lon="4.35298">
        <ele>432.8</ele>
        <time>2017-03-19T08:13:46Z</time>
      </trkpt>
      <trkpt lat="45.60719" lon="4.35304">
        <ele>433.5</ele>
        <time>2017-03-19T08:13:48Z</time>
      </trkpt>
      <trkpt lat="45.60718" lon="4.35309">
        <ele>434.1</ele>
        <time>2017-03-19T08:13:50Z</time>
      </trkpt>
      <trkpt lat="45.60716" lon="4.35314">
        <ele>434.5</ele>
        <time>2017-03-19T08:13:52Z</time>
      </trkpt>
      <trkpt lat="45.60715" lon="4.35319">
        <ele>434.7</ele>
        <time>2017-03-19T08:13:54Z</time>
      </trkpt>
      <trkpt lat="45.60712" lon="4.35324">
        <ele>435.1</ele>
        <time>2017-03-19T08:13:56Z</time>
      </trkpt>
      <trkpt lat="45.60709" lon="4.35328">
        <ele>435.7</ele>
        <time>2017-03-19T08:13:58Z</time>
      </trkpt>
      <trkpt lat="45.60707" lon="4.35333">
        <ele>436.3</ele>
        <time>2017-03-19T08:14:00Z</time>
      </trkpt>
      <trkpt lat="45.60705" lon="4.35338">
        <ele>437.2</ele>
        <time>2017-03-19T08:14:02Z</time>
      </trkpt>
      <trkpt lat="45.60703" lon="4.35344">
        <ele>438.2</ele>
        <time>2017-03-19T08:14:04Z</time>
      </trkpt>
      <trkpt lat="45.60701" lon="4.3535">
        <ele>439.1</ele>
        <time>2017-03-19T08:14:06Z</time>
      </trkpt>
      <trkpt lat="45.60699" lon="4.35355">
        <ele>439.8</ele>
        <time>2017-03-19T08:14:08Z</time>
      </trkpt>
      <trkpt lat="45.60697" lon="4.3536">
        <ele>440.6</ele>
        <time>2017-03-19T08:14:10Z</time>
      </trkpt>
      <trkpt lat="45.60696" lon="4.35365">
        <ele>441.3</ele>
        <time>2017-03-19T08:14:12Z</time>
      </trkpt>
      <trkpt lat="45.60694" lon="4.3537">
        <ele>442.2</ele>
        <time>2017-03-19T08:14:14Z</time>
      </trkpt>
      <trkpt lat="45.60691" lon="4.35376">
        <ele>443.7</ele>
        <time>2017-03-19T08:14:16Z</time>
      </trkpt>
      <trkpt lat="45.60689" lon="4.35382">
        <ele>445</ele>
        <time>2017-03-19T08:14:18Z</time>
      </trkpt>
      <trkpt lat="45.60686" lon="4.35388">
        <ele>445.9</ele>
        <time>2017-03-19T08:14:20Z</time>
      </trkpt>
      <trkpt lat="45.60683" lon="4.35394">
        <ele>446.7</ele>
        <time>2017-03-19T08:14:22Z</time>
      </trkpt>
      <trkpt lat="45.60681" lon="4.354">
        <ele>447.3</ele>
        <time>2017-03-19T08:14:24Z</time>
      </trkpt>
      <trkpt lat="45.60679" lon="4.35407">
        <ele>448.3</ele>
        <time>2017-03-19T08:14:26Z</time>
      </trkpt>
      <trkpt lat="45.60677" lon="4.35413">
        <ele>449.4</ele>
        <time>2017-03-19T08:14:28Z</time>
      </trkpt>
      <trkpt lat="45.60676" lon="4.35419">
        <ele>449.9</ele>
        <time>2017-03-19T08:14:30Z</time>
      </trkpt>
      <trkpt lat="45.60675" lon="4.35426">
        <ele>449.9</ele>
        <time>2017-03-19T08:14:32Z</time>
      </trkpt>
      <trkpt lat="45.60674" lon="4.35432">
        <ele>450.1</ele>
        <time>2017-03-19T08:14:34Z</time>
      </trkpt>
      <trkpt lat="45.60673" lon="4.35437">
        <ele>450.2</ele>
        <time>2017-03-19T08:14:36Z</time>
      </trkpt>
      <trkpt lat="45.60672" lon="4.35443">
        <ele>450.4</ele>
        <time>2017-03-19T08:14:38Z</time>
      </trkpt>
      <trkpt lat="45.60671" lon="4.35448">
        <ele>450.7</ele>
        <time>2017-03-19T08:14:40Z</time>
      </trkpt>
      <trkpt lat="45.60669" lon="4.35453">
        <ele>451.1</ele>
        <time>2017-03-19T08:14:42Z</time>
      </trkpt>
      <trkpt lat="45.60667" lon="4.35458">
        <ele>451</ele>
        <time>2017-03-19T08:14:44Z</time>
      </trkpt>
      <trkpt lat="45.60665" lon="4.35463">
        <ele>451</ele>
        <time>2017-03-19T08:14:46Z</time>
      </trkpt>
      <trkpt lat="45.60663" lon="4.35469">
        <ele>451</ele>
        <time>2017-03-19T08:14:48Z</time>
      </trkpt>
      <trkpt lat="45.6066" lon="4.35473">
        <ele>451.1</ele>
        <time>2017-03-19T08:14:50Z</time>
      </trkpt>
      <trkpt lat="45.60658" lon="4.35478">
        <ele>451.2</ele>
        <time>2017-03-19T08:14:52Z</time>
      </trkpt>
      <trkpt lat="45.60655" lon="4.35483">
        <ele>451.2</ele>
        <time>2017-03-19T08:14:54Z</time>
      </trkpt>
      <trkpt lat="45.60653" lon="4.35488">
        <ele>451.2</ele>
        <time>2017-03-19T08:14:56Z</time>
      </trkpt>
      <trkpt lat="45.60651" lon="4.35492">
        <ele>451.3</ele>
        <time>2017-03-19T08:14:58Z</time>
      </trkpt>
      <trkpt lat="45.60648" lon="4.35496">
        <ele>451.5</ele>
        <time>2017-03-19T08:15:00Z</time>
      </trkpt>
      <trkpt lat="45.60645" lon="4.35499">
        <ele>451.7</ele>
        <time>2017-03-19T08:15:02Z</time>
      </trkpt>
      <trkpt lat="45.60641" lon="4.35502">
        <ele>452</ele>
        <time>2017-03-19T08:15:04Z</time>
      </trkpt>
      <trkpt lat="45.60638" lon="4.35504">
        <ele>452.3</ele>
        <time>2017-03-19T08:15:06Z</time>
      </trkpt>
      <trkpt lat="45.60634" lon="4.35508">
        <ele>452.7</ele>
        <time>2017-03-19T08:15:08Z</time>
      </trkpt>
      <trkpt lat="45.60631" lon="4.3551">
        <ele>453.2</ele>
        <time>2017-03-19T08:15:10Z</time>
      </trkpt>
      <trkpt lat="45.60628" lon="4.35512">
        <ele>453.7</ele>
        <time>2017-03-19T08:15:12Z</time>
      </trkpt>
      <trkpt lat="45.60625" lon="4.35513">
        <ele>454.3</ele>
        <time>2017-03-19T08:15:14Z</time>
      </trkpt>
      <trkpt lat="45.60621" lon="4.35512">
        <ele>455.1</ele>
        <time>2017-03-19T08:15:16Z</time>
      </trkpt>
      <trkpt lat="45.60619" lon="4.3551">
        <ele>455.7</ele>
        <time>2017-03-19T08:15:17Z</time>
      </trkpt>
      <trkpt lat="45.60616" lon="4.35508">
        <ele>456.6</ele>
        <time>2017-03-19T08:15:18Z</time>
      </trkpt>
      <trkpt lat="45.60612" lon="4.35506">
        <ele>457.8</ele>
        <time>2017-03-19T08:15:19Z</time>
      </trkpt>
      <trkpt lat="45.60608" lon="4.35504">
        <ele>456.8</ele>
        <time>2017-03-19T08:15:20Z</time>
      </trkpt>
      <trkpt lat="45.60602" lon="4.35502">
        <ele>456.8</ele>
        <time>2017-03-19T08:15:21Z</time>
      </trkpt>
      <trkpt lat="45.60596" lon="4.35498">
        <ele>455.7</ele>
        <time>2017-03-19T08:15:22Z</time>
      </trkpt>
      <trkpt lat="45.6059" lon="4.35494">
        <ele>454.3</ele>
        <time>2017-03-19T08:15:23Z</time>
      </trkpt>
      <trkpt lat="45.60584" lon="4.35489">
        <ele>452.6</ele>
        <time>2017-03-19T08:15:24Z</time>
      </trkpt>
      <trkpt lat="45.60579" lon="4.35482">
        <ele>449.1</ele>
        <time>2017-03-19T08:15:25Z</time>
      </trkpt>
      <trkpt lat="45.60573" lon="4.35474">
        <ele>446.3</ele>
        <time>2017-03-19T08:15:26Z</time>
      </trkpt>
      <trkpt lat="45.60567" lon="4.35465">
        <ele>444.3</ele>
        <time>2017-03-19T08:15:27Z</time>
      </trkpt>
      <trkpt lat="45.6056" lon="4.35457">
        <ele>443.3</ele>
        <time>2017-03-19T08:15:28Z</time>
      </trkpt>
      <trkpt lat="45.60553" lon="4.35448">
        <ele>442.5</ele>
        <time>2017-03-19T08:15:29Z</time>
      </trkpt>
      <trkpt lat="45.60547" lon="4.3544">
        <ele>442.7</ele>
        <time>2017-03-19T08:15:30Z</time>
      </trkpt>
      <trkpt lat="45.60541" lon="4.35433">
        <ele>444.3</ele>
        <time>2017-03-19T08:15:31Z</time>
      </trkpt>
      <trkpt lat="45.60536" lon="4.35427">
        <ele>446.3</ele>
        <time>2017-03-19T08:15:32Z</time>
      </trkpt>
      <trkpt lat="45.60532" lon="4.35422">
        <ele>447.4</ele>
        <time>2017-03-19T08:15:33Z</time>
      </trkpt>
      <trkpt lat="45.60531" lon="4.35418">
        <ele>447</ele>
        <time>2017-03-19T08:15:34Z</time>
      </trkpt>
      <trkpt lat="45.60528" lon="4.35415">
        <ele>448.2</ele>
        <time>2017-03-19T08:15:35Z</time>
      </trkpt>
      <trkpt lat="45.60525" lon="4.35413">
        <ele>449.6</ele>
        <time>2017-03-19T08:15:36Z</time>
      </trkpt>
      <trkpt lat="45.60523" lon="4.35411">
        <ele>451</ele>
        <time>2017-03-19T08:15:37Z</time>
      </trkpt>
      <trkpt lat="45.60521" lon="4.35405">
        <ele>452.2</ele>
        <time>2017-03-19T08:15:39Z</time>
      </trkpt>
      <trkpt lat="45.60516" lon="4.35401">
        <ele>453.6</ele>
        <time>2017-03-19T08:15:41Z</time>
      </trkpt>
      <trkpt lat="45.60513" lon="4.35397">
        <ele>455.2</ele>
        <time>2017-03-19T08:15:44Z</time>
      </trkpt>
      <trkpt lat="45.60509" lon="4.35394">
        <ele>458.5</ele>
        <time>2017-03-19T08:15:47Z</time>
      </trkpt>
      <trkpt lat="45.60506" lon="4.35392">
        <ele>458.2</ele>
        <time>2017-03-19T08:15:49Z</time>
      </trkpt>
      <trkpt lat="45.60503" lon="4.35388">
        <ele>460.8</ele>
        <time>2017-03-19T08:15:51Z</time>
      </trkpt>
      <trkpt lat="45.605" lon="4.35385">
        <ele>461.8</ele>
        <time>2017-03-19T08:15:53Z</time>
      </trkpt>
      <trkpt lat="45.60497" lon="4.35382">
        <ele>461.2</ele>
        <time>2017-03-19T08:15:55Z</time>
      </trkpt>
      <trkpt lat="45.60496" lon="4.35378">
        <ele>461.7</ele>
        <time>2017-03-19T08:15:57Z</time>
      </trkpt>
      <trkpt lat="45.60495" lon="4.35373">
        <ele>461</ele>
        <time>2017-03-19T08:15:59Z</time>
      </trkpt>
      <trkpt lat="45.60494" lon="4.3537">
        <ele>461.2</ele>
        <time>2017-03-19T08:16:01Z</time>
      </trkpt>
      <trkpt lat="45.60492" lon="4.35366">
        <ele>460.5</ele>
        <time>2017-03-19T08:16:03Z</time>
      </trkpt>
      <trkpt lat="45.60489" lon="4.35363">
        <ele>460.8</ele>
        <time>2017-03-19T08:16:05Z</time>
      </trkpt>
      <trkpt lat="45.60487" lon="4.3536">
        <ele>461.3</ele>
        <time>2017-03-19T08:16:07Z</time>
      </trkpt>
      <trkpt lat="45.60485" lon="4.35356">
        <ele>461.5</ele>
        <time>2017-03-19T08:16:09Z</time>
      </trkpt>
      <trkpt lat="45.60483" lon="4.35351">
        <ele>461</ele>
        <time>2017-03-19T08:16:11Z</time>
      </trkpt>
      <trkpt lat="45.60481" lon="4.35345">
        <ele>460.7</ele>
        <time>2017-03-19T08:16:13Z</time>
      </trkpt>
      <trkpt lat="45.60479" lon="4.35341">
        <ele>460.4</ele>
        <time>2017-03-19T08:16:15Z</time>
      </trkpt>
      <trkpt lat="45.60476" lon="4.35336">
        <ele>460</ele>
        <time>2017-03-19T08:16:17Z</time>
      </trkpt>
      <trkpt lat="45.60473" lon="4.35331">
        <ele>459.6</ele>
        <time>2017-03-19T08:16:19Z</time>
      </trkpt>
      <trkpt lat="45.6047" lon="4.35328">
        <ele>459.2</ele>
        <time>2017-03-19T08:16:21Z</time>
      </trkpt>
      <trkpt lat="45.60466" lon="4.35326">
        <ele>458.9</ele>
        <time>2017-03-19T08:16:23Z</time>
      </trkpt>
      <trkpt lat="45.60463" lon="4.35324">
        <ele>458.5</ele>
        <time>2017-03-19T08:16:25Z</time>
      </trkpt>
      <trkpt lat="45.60459" lon="4.35323">
        <ele>458.2</ele>
        <time>2017-03-19T08:16:27Z</time>
      </trkpt>
      <trkpt lat="45.60456" lon="4.35322">
        <ele>457.9</ele>
        <time>2017-03-19T08:16:29Z</time>
      </trkpt>
      <trkpt lat="45.60453" lon="4.3532">
        <ele>457.6</ele>
        <time>2017-03-19T08:16:31Z</time>
      </trkpt>
      <trkpt lat="45.60449" lon="4.35319">
        <ele>457.3</ele>
        <time>2017-03-19T08:16:33Z</time>
      </trkpt>
      <trkpt lat="45.60445" lon="4.35318">
        <ele>457</ele>
        <time>2017-03-19T08:16:35Z</time>
      </trkpt>
      <trkpt lat="45.60441" lon="4.35318">
        <ele>456.7</ele>
        <time>2017-03-19T08:16:37Z</time>
      </trkpt>
      <trkpt lat="45.60437" lon="4.35317">
        <ele>456.3</ele>
        <time>2017-03-19T08:16:39Z</time>
      </trkpt>
      <trkpt lat="45.60433" lon="4.35317">
        <ele>456</ele>
        <time>2017-03-19T08:16:41Z</time>
      </trkpt>
      <trkpt lat="45.60429" lon="4.35316">
        <ele>455.6</ele>
        <time>2017-03-19T08:16:43Z</time>
      </trkpt>
      <trkpt lat="45.60423" lon="4.35315">
        <ele>455</ele>
        <time>2017-03-19T08:16:45Z</time>
      </trkpt>
      <trkpt lat="45.6042" lon="4.35315">
        <ele>454.7</ele>
        <time>2017-03-19T08:16:46Z</time>
      </trkpt>
      <trkpt lat="45.60417" lon="4.35315">
        <ele>454.3</ele>
        <time>2017-03-19T08:16:47Z</time>
      </trkpt>
      <trkpt lat="45.60413" lon="4.35314">
        <ele>453.9</ele>
        <time>2017-03-19T08:16:48Z</time>
      </trkpt>
      <trkpt lat="45.60409" lon="4.35314">
        <ele>453.4</ele>
        <time>2017-03-19T08:16:49Z</time>
      </trkpt>
      <trkpt lat="45.60405" lon="4.35314">
        <ele>452.9</ele>
        <time>2017-03-19T08:16:50Z</time>
      </trkpt>
      <trkpt lat="45.60401" lon="4.35314">
        <ele>452.4</ele>
        <time>2017-03-19T08:16:51Z</time>
      </trkpt>
      <trkpt lat="45.60398" lon="4.35313">
        <ele>452.1</ele>
        <time>2017-03-19T08:16:52Z</time>
      </trkpt>
      <trkpt lat="45.60393" lon="4.35315">
        <ele>451.2</ele>
        <time>2017-03-19T08:16:54Z</time>
      </trkpt>
      <trkpt lat="45.6039" lon="4.3532">
        <ele>450</ele>
        <time>2017-03-19T08:16:56Z</time>
      </trkpt>
      <trkpt lat="45.60389" lon="4.35325">
        <ele>450</ele>
        <time>2017-03-19T08:16:58Z</time>
      </trkpt>
      <trkpt lat="45.60389" lon="4.3533">
        <ele>450.3</ele>
        <time>2017-03-19T08:17:00Z</time>
      </trkpt>
      <trkpt lat="45.60388" lon="4.35336">
        <ele>450.7</ele>
        <time>2017-03-19T08:17:02Z</time>
      </trkpt>
      <trkpt lat="45.60387" lon="4.35341">
        <ele>451.3</ele>
        <time>2017-03-19T08:17:04Z</time>
      </trkpt>
      <trkpt lat="45.60387" lon="4.35346">
        <ele>452.3</ele>
        <time>2017-03-19T08:17:06Z</time>
      </trkpt>
      <trkpt lat="45.60386" lon="4.35352">
        <ele>453.3</ele>
        <time>2017-03-19T08:17:08Z</time>
      </trkpt>
      <trkpt lat="45.60385" lon="4.35357">
        <ele>454.1</ele>
        <time>2017-03-19T08:17:10Z</time>
      </trkpt>
      <trkpt lat="45.60382" lon="4.35363">
        <ele>455.5</ele>
        <time>2017-03-19T08:17:12Z</time>
      </trkpt>
      <trkpt lat="45.6038" lon="4.35368">
        <ele>456.7</ele>
        <time>2017-03-19T08:17:14Z</time>
      </trkpt>
      <trkpt lat="45.60378" lon="4.35374">
        <ele>457.8</ele>
        <time>2017-03-19T08:17:16Z</time>
      </trkpt>
      <trkpt lat="45.60376" lon="4.35379">
        <ele>458.8</ele>
        <time>2017-03-19T08:17:18Z</time>
      </trkpt>
      <trkpt lat="45.60374" lon="4.35385">
        <ele>459.8</ele>
        <time>2017-03-19T08:17:20Z</time>
      </trkpt>
      <trkpt lat="45.60372" lon="4.3539">
        <ele>460.9</ele>
        <time>2017-03-19T08:17:22Z</time>
      </trkpt>
      <trkpt lat="45.60369" lon="4.35395">
        <ele>461.8</ele>
        <time>2017-03-19T08:17:24Z</time>
      </trkpt>
      <trkpt lat="45.60367" lon="4.35399">
        <ele>462.5</ele>
        <time>2017-03-19T08:17:26Z</time>
      </trkpt>
      <trkpt lat="45.60365" lon="4.35404">
        <ele>463.1</ele>
        <time>2017-03-19T08:17:28Z</time>
      </trkpt>
      <trkpt lat="45.60363" lon="4.35408">
        <ele>463.6</ele>
        <time>2017-03-19T08:17:30Z</time>
      </trkpt>
      <trkpt lat="45.60361" lon="4.35412">
        <ele>464.2</ele>
        <time>2017-03-19T08:17:32Z</time>
      </trkpt>
      <trkpt lat="45.60359" lon="4.35416">
        <ele>465.1</ele>
        <time>2017-03-19T08:17:34Z</time>
      </trkpt>
      <trkpt lat="45.60356" lon="4.3542">
        <ele>465.9</ele>
        <time>2017-03-19T08:17:36Z</time>
      </trkpt>
      <trkpt lat="45.60354" lon="4.35424">
        <ele>466.4</ele>
        <time>2017-03-19T08:17:38Z</time>
      </trkpt>
      <trkpt lat="45.60351" lon="4.35428">
        <ele>466.7</ele>
        <time>2017-03-19T08:17:40Z</time>
      </trkpt>
      <trkpt lat="45.60349" lon="4.35432">
        <ele>467</ele>
        <time>2017-03-19T08:17:42Z</time>
      </trkpt>
      <trkpt lat="45.60346" lon="4.35436">
        <ele>467.4</ele>
        <time>2017-03-19T08:17:44Z</time>
      </trkpt>
      <trkpt lat="45.60343" lon="4.35441">
        <ele>467.9</ele>
        <time>2017-03-19T08:17:46Z</time>
      </trkpt>
      <trkpt lat="45.6034" lon="4.35445">
        <ele>468.4</ele>
        <time>2017-03-19T08:17:48Z</time>
      </trkpt>
      <trkpt lat="45.60337" lon="4.35449">
        <ele>468.8</ele>
        <time>2017-03-19T08:17:50Z</time>
      </trkpt>
      <trkpt lat="45.60334" lon="4.35453">
        <ele>469.1</ele>
        <time>2017-03-19T08:17:52Z</time>
      </trkpt>
      <trkpt lat="45.60332" lon="4.35457">
        <ele>469.5</ele>
        <time>2017-03-19T08:17:54Z</time>
      </trkpt>
      <trkpt lat="45.6033" lon="4.35461">
        <ele>469.7</ele>
        <time>2017-03-19T08:17:56Z</time>
      </trkpt>
      <trkpt lat="45.60328" lon="4.35466">
        <ele>470.1</ele>
        <time>2017-03-19T08:17:58Z</time>
      </trkpt>
      <trkpt lat="45.60326" lon="4.35472">
        <ele>470.6</ele>
        <time>2017-03-19T08:18:00Z</time>
      </trkpt>
      <trkpt lat="45.60324" lon="4.35478">
        <ele>471.3</ele>
        <time>2017-03-19T08:18:02Z</time>
      </trkpt>
      <trkpt lat="45.60323" lon="4.35484">
        <ele>471.6</ele>
        <time>2017-03-19T08:18:04Z</time>
      </trkpt>
      <trkpt lat="45.60322" lon="4.3549">
        <ele>471.8</ele>
        <time>2017-03-19T08:18:06Z</time>
      </trkpt>
      <trkpt lat="45.60322" lon="4.35494">
        <ele>472</ele>
        <time>2017-03-19T08:18:08Z</time>
      </trkpt>
      <trkpt lat="45.60321" lon="4.35499">
        <ele>472.2</ele>
        <time>2017-03-19T08:18:10Z</time>
      </trkpt>
      <trkpt lat="45.6032" lon="4.35505">
        <ele>472.4</ele>
        <time>2017-03-19T08:18:12Z</time>
      </trkpt>
      <trkpt lat="45.60319" lon="4.3551">
        <ele>472.7</ele>
        <time>2017-03-19T08:18:14Z</time>
      </trkpt>
      <trkpt lat="45.60318" lon="4.35516">
        <ele>473.5</ele>
        <time>2017-03-19T08:18:16Z</time>
      </trkpt>
      <trkpt lat="45.60317" lon="4.35523">
        <ele>474.2</ele>
        <time>2017-03-19T08:18:18Z</time>
      </trkpt>
      <trkpt lat="45.60317" lon="4.3553">
        <ele>474.7</ele>
        <time>2017-03-19T08:18:20Z</time>
      </trkpt>
      <trkpt lat="45.60317" lon="4.35536">
        <ele>475.2</ele>
        <time>2017-03-19T08:18:22Z</time>
      </trkpt>
      <trkpt lat="45.60317" lon="4.35542">
        <ele>475.6</ele>
        <time>2017-03-19T08:18:24Z</time>
      </trkpt>
      <trkpt lat="45.60317" lon="4.35548">
        <ele>476.1</ele>
        <time>2017-03-19T08:18:26Z</time>
      </trkpt>
      <trkpt lat="45.60316" lon="4.35554">
        <ele>476.6</ele>
        <time>2017-03-19T08:18:28Z</time>
      </trkpt>
      <trkpt lat="45.60316" lon="4.35562">
        <ele>477.4</ele>
        <time>2017-03-19T08:18:30Z</time>
      </trkpt>
      <trkpt lat="45.60316" lon="4.35566">
        <ele>478</ele>
        <time>2017-03-19T08:18:31Z</time>
      </trkpt>
      <trkpt lat="45.60316" lon="4.3557">
        <ele>478.5</ele>
        <time>2017-03-19T08:18:32Z</time>
      </trkpt>
      <trkpt lat="45.60316" lon="4.35578">
        <ele>479.3</ele>
        <time>2017-03-19T08:18:34Z</time>
      </trkpt>
      <trkpt lat="45.60316" lon="4.35584">
        <ele>480</ele>
        <time>2017-03-19T08:18:36Z</time>
      </trkpt>
      <trkpt lat="45.60316" lon="4.35591">
        <ele>480.7</ele>
        <time>2017-03-19T08:18:38Z</time>
      </trkpt>
      <trkpt lat="45.60315" lon="4.35598">
        <ele>481</ele>
        <time>2017-03-19T08:18:40Z</time>
      </trkpt>
      <trkpt lat="45.60315" lon="4.35605">
        <ele>481</ele>
        <time>2017-03-19T08:18:42Z</time>
      </trkpt>
      <trkpt lat="45.60314" lon="4.35612">
        <ele>481.6</ele>
        <time>2017-03-19T08:18:44Z</time>
      </trkpt>
      <trkpt lat="45.60314" lon="4.35619">
        <ele>482.4</ele>
        <time>2017-03-19T08:18:46Z</time>
      </trkpt>
      <trkpt lat="45.60314" lon="4.35623">
        <ele>482.7</ele>
        <time>2017-03-19T08:18:47Z</time>
      </trkpt>
      <trkpt lat="45.60314" lon="4.3563">
        <ele>483.4</ele>
        <time>2017-03-19T08:18:49Z</time>
      </trkpt>
      <trkpt lat="45.60314" lon="4.35637">
        <ele>483.8</ele>
        <time>2017-03-19T08:18:51Z</time>
      </trkpt>
      <trkpt lat="45.60314" lon="4.35645">
        <ele>484.2</ele>
        <time>2017-03-19T08:18:53Z</time>
      </trkpt>
      <trkpt lat="45.60313" lon="4.35649">
        <ele>484.4</ele>
        <time>2017-03-19T08:18:54Z</time>
      </trkpt>
      <trkpt lat="45.60313" lon="4.35652">
        <ele>484.5</ele>
        <time>2017-03-19T08:18:55Z</time>
      </trkpt>
      <trkpt lat="45.60312" lon="4.35659">
        <ele>484.5</ele>
        <time>2017-03-19T08:18:57Z</time>
      </trkpt>
      <trkpt lat="45.60311" lon="4.35664">
        <ele>484.4</ele>
        <time>2017-03-19T08:18:58Z</time>
      </trkpt>
      <trkpt lat="45.6031" lon="4.35668">
        <ele>484.5</ele>
        <time>2017-03-19T08:18:59Z</time>
      </trkpt>
      <trkpt lat="45.60309" lon="4.35675">
        <ele>484.8</ele>
        <time>2017-03-19T08:19:01Z</time>
      </trkpt>
      <trkpt lat="45.60309" lon="4.35679">
        <ele>485</ele>
        <time>2017-03-19T08:19:02Z</time>
      </trkpt>
      <trkpt lat="45.60308" lon="4.35683">
        <ele>485.4</ele>
        <time>2017-03-19T08:19:03Z</time>
      </trkpt>
      <trkpt lat="45.60306" lon="4.35687">
        <ele>485.7</ele>
        <time>2017-03-19T08:19:04Z</time>
      </trkpt>
      <trkpt lat="45.60305" lon="4.35691">
        <ele>485.9</ele>
        <time>2017-03-19T08:19:05Z</time>
      </trkpt>
      <trkpt lat="45.60304" lon="4.35697">
        <ele>486.4</ele>
        <time>2017-03-19T08:19:07Z</time>
      </trkpt>
      <trkpt lat="45.60302" lon="4.35703">
        <ele>487</ele>
        <time>2017-03-19T08:19:09Z</time>
      </trkpt>
      <trkpt lat="45.60302" lon="4.35707">
        <ele>487.6</ele>
        <time>2017-03-19T08:19:11Z</time>
      </trkpt>
      <trkpt lat="45.60301" lon="4.35712">
        <ele>488.2</ele>
        <time>2017-03-19T08:19:13Z</time>
      </trkpt>
      <trkpt lat="45.603" lon="4.35716">
        <ele>488.6</ele>
        <time>2017-03-19T08:19:15Z</time>
      </trkpt>
      <trkpt lat="45.60298" lon="4.35721">
        <ele>489</ele>
        <time>2017-03-19T08:19:17Z</time>
      </trkpt>
      <trkpt lat="45.60296" lon="4.35725">
        <ele>489.5</ele>
        <time>2017-03-19T08:19:19Z</time>
      </trkpt>
      <trkpt lat="45.60294" lon="4.3573">
        <ele>490.2</ele>
        <time>2017-03-19T08:19:21Z</time>
      </trkpt>
      <trkpt lat="45.60292" lon="4.35735">
        <ele>490.7</ele>
        <time>2017-03-19T08:19:23Z</time>
      </trkpt>
      <trkpt lat="45.60291" lon="4.35741">
        <ele>491.1</ele>
        <time>2017-03-19T08:19:25Z</time>
      </trkpt>
      <trkpt lat="45.60289" lon="4.35746">
        <ele>491.5</ele>
        <time>2017-03-19T08:19:27Z</time>
      </trkpt>
      <trkpt lat="45.60287" lon="4.35751">
        <ele>491.8</ele>
        <time>2017-03-19T08:19:29Z</time>
      </trkpt>
      <trkpt lat="45.60286" lon="4.35756">
        <ele>492.2</ele>
        <time>2017-03-19T08:19:31Z</time>
      </trkpt>
      <trkpt lat="45.60285" lon="4.35762">
        <ele>492.8</ele>
        <time>2017-03-19T08:19:33Z</time>
      </trkpt>
      <trkpt lat="45.60284" lon="4.35767">
        <ele>493.1</ele>
        <time>2017-03-19T08:19:35Z</time>
      </trkpt>
      <trkpt lat="45.60282" lon="4.35773">
        <ele>493.3</ele>
        <time>2017-03-19T08:19:37Z</time>
      </trkpt>
      <trkpt lat="45.60281" lon="4.35778">
        <ele>493.6</ele>
        <time>2017-03-19T08:19:39Z</time>
      </trkpt>
      <trkpt lat="45.60279" lon="4.35783">
        <ele>493.8</ele>
        <time>2017-03-19T08:19:41Z</time>
      </trkpt>
      <trkpt lat="45.60278" lon="4.35789">
        <ele>494.3</ele>
        <time>2017-03-19T08:19:43Z</time>
      </trkpt>
      <trkpt lat="45.60277" lon="4.35796">
        <ele>495.2</ele>
        <time>2017-03-19T08:19:45Z</time>
      </trkpt>
      <trkpt lat="45.60276" lon="4.358">
        <ele>495.5</ele>
        <time>2017-03-19T08:19:46Z</time>
      </trkpt>
      <trkpt lat="45.60275" lon="4.35804">
        <ele>495.7</ele>
        <time>2017-03-19T08:19:47Z</time>
      </trkpt>
      <trkpt lat="45.60275" lon="4.35808">
        <ele>495.8</ele>
        <time>2017-03-19T08:19:48Z</time>
      </trkpt>
      <trkpt lat="45.60274" lon="4.35813">
        <ele>496.3</ele>
        <time>2017-03-19T08:19:49Z</time>
      </trkpt>
      <trkpt lat="45.60274" lon="4.35817">
        <ele>496.8</ele>
        <time>2017-03-19T08:19:50Z</time>
      </trkpt>
      <trkpt lat="45.60274" lon="4.35822">
        <ele>497.3</ele>
        <time>2017-03-19T08:19:51Z</time>
      </trkpt>
      <trkpt lat="45.60274" lon="4.35826">
        <ele>497.9</ele>
        <time>2017-03-19T08:19:52Z</time>
      </trkpt>
      <trkpt lat="45.60273" lon="4.3583">
        <ele>498.5</ele>
        <time>2017-03-19T08:19:53Z</time>
      </trkpt>
      <trkpt lat="45.60273" lon="4.35834">
        <ele>499</ele>
        <time>2017-03-19T08:19:54Z</time>
      </trkpt>
      <trkpt lat="45.60272" lon="4.35839">
        <ele>499</ele>
        <time>2017-03-19T08:19:55Z</time>
      </trkpt>
      <trkpt lat="45.60271" lon="4.35843">
        <ele>499.1</ele>
        <time>2017-03-19T08:19:56Z</time>
      </trkpt>
      <trkpt lat="45.60271" lon="4.35848">
        <ele>499.6</ele>
        <time>2017-03-19T08:19:57Z</time>
      </trkpt>
      <trkpt lat="45.6027" lon="4.35852">
        <ele>500</ele>
        <time>2017-03-19T08:19:58Z</time>
      </trkpt>
      <trkpt lat="45.60269" lon="4.35856">
        <ele>500.2</ele>
        <time>2017-03-19T08:19:59Z</time>
      </trkpt>
      <trkpt lat="45.60268" lon="4.35861">
        <ele>500.3</ele>
        <time>2017-03-19T08:20:00Z</time>
      </trkpt>
      <trkpt lat="45.60268" lon="4.35865">
        <ele>500.4</ele>
        <time>2017-03-19T08:20:01Z</time>
      </trkpt>
      <trkpt lat="45.60268" lon="4.35869">
        <ele>500.7</ele>
        <time>2017-03-19T08:20:02Z</time>
      </trkpt>
      <trkpt lat="45.60267" lon="4.35873">
        <ele>501.1</ele>
        <time>2017-03-19T08:20:03Z</time>
      </trkpt>
      <trkpt lat="45.60267" lon="4.35878">
        <ele>501.4</ele>
        <time>2017-03-19T08:20:04Z</time>
      </trkpt>
      <trkpt lat="45.60266" lon="4.35882">
        <ele>501.8</ele>
        <time>2017-03-19T08:20:05Z</time>
      </trkpt>
      <trkpt lat="45.60265" lon="4.35886">
        <ele>502</ele>
        <time>2017-03-19T08:20:06Z</time>
      </trkpt>
      <trkpt lat="45.60264" lon="4.35891">
        <ele>502</ele>
        <time>2017-03-19T08:20:07Z</time>
      </trkpt>
      <trkpt lat="45.60263" lon="4.35895">
        <ele>502</ele>
        <time>2017-03-19T08:20:08Z</time>
      </trkpt>
      <trkpt lat="45.60262" lon="4.359">
        <ele>502.2</ele>
        <time>2017-03-19T08:20:09Z</time>
      </trkpt>
      <trkpt lat="45.60262" lon="4.35904">
        <ele>502.5</ele>
        <time>2017-03-19T08:20:10Z</time>
      </trkpt>
      <trkpt lat="45.60261" lon="4.35909">
        <ele>502.8</ele>
        <time>2017-03-19T08:20:11Z</time>
      </trkpt>
      <trkpt lat="45.6026" lon="4.35914">
        <ele>502.9</ele>
        <time>2017-03-19T08:20:12Z</time>
      </trkpt>
      <trkpt lat="45.60259" lon="4.35919">
        <ele>503.1</ele>
        <time>2017-03-19T08:20:13Z</time>
      </trkpt>
      <trkpt lat="45.60258" lon="4.35924">
        <ele>503.4</ele>
        <time>2017-03-19T08:20:14Z</time>
      </trkpt>
      <trkpt lat="45.60256" lon="4.35929">
        <ele>503.6</ele>
        <time>2017-03-19T08:20:15Z</time>
      </trkpt>
      <trkpt lat="45.60255" lon="4.35935">
        <ele>503.9</ele>
        <time>2017-03-19T08:20:16Z</time>
      </trkpt>
      <trkpt lat="45.60254" lon="4.3594">
        <ele>504.1</ele>
        <time>2017-03-19T08:20:17Z</time>
      </trkpt>
      <trkpt lat="45.60252" lon="4.35946">
        <ele>504.3</ele>
        <time>2017-03-19T08:20:18Z</time>
      </trkpt>
      <trkpt lat="45.60249" lon="4.35951">
        <ele>504.6</ele>
        <time>2017-03-19T08:20:19Z</time>
      </trkpt>
      <trkpt lat="45.60247" lon="4.35957">
        <ele>504.7</ele>
        <time>2017-03-19T08:20:20Z</time>
      </trkpt>
      <trkpt lat="45.60246" lon="4.35961">
        <ele>504.9</ele>
        <time>2017-03-19T08:20:21Z</time>
      </trkpt>
      <trkpt lat="45.60244" lon="4.35967">
        <ele>505.2</ele>
        <time>2017-03-19T08:20:22Z</time>
      </trkpt>
      <trkpt lat="45.60242" lon="4.35972">
        <ele>505.8</ele>
        <time>2017-03-19T08:20:23Z</time>
      </trkpt>
      <trkpt lat="45.6024" lon="4.35977">
        <ele>506.5</ele>
        <time>2017-03-19T08:20:24Z</time>
      </trkpt>
      <trkpt lat="45.60237" lon="4.35982">
        <ele>507.2</ele>
        <time>2017-03-19T08:20:25Z</time>
      </trkpt>
      <trkpt lat="45.60235" lon="4.35986">
        <ele>507.9</ele>
        <time>2017-03-19T08:20:26Z</time>
      </trkpt>
      <trkpt lat="45.60232" lon="4.3599">
        <ele>509</ele>
        <time>2017-03-19T08:20:27Z</time>
      </trkpt>
      <trkpt lat="45.60229" lon="4.35995">
        <ele>510</ele>
        <time>2017-03-19T08:20:28Z</time>
      </trkpt>
      <trkpt lat="45.60226" lon="4.35999">
        <ele>510.9</ele>
        <time>2017-03-19T08:20:29Z</time>
      </trkpt>
      <trkpt lat="45.60223" lon="4.36002">
        <ele>511.5</ele>
        <time>2017-03-19T08:20:30Z</time>
      </trkpt>
      <trkpt lat="45.60221" lon="4.36006">
        <ele>512</ele>
        <time>2017-03-19T08:20:31Z</time>
      </trkpt>
      <trkpt lat="45.60218" lon="4.36009">
        <ele>512.5</ele>
        <time>2017-03-19T08:20:32Z</time>
      </trkpt>
      <trkpt lat="45.60215" lon="4.36012">
        <ele>512.8</ele>
        <time>2017-03-19T08:20:33Z</time>
      </trkpt>
      <trkpt lat="45.60212" lon="4.36015">
        <ele>513.2</ele>
        <time>2017-03-19T08:20:34Z</time>
      </trkpt>
      <trkpt lat="45.60209" lon="4.36018">
        <ele>513.6</ele>
        <time>2017-03-19T08:20:35Z</time>
      </trkpt>
      <trkpt lat="45.60206" lon="4.36021">
        <ele>514</ele>
        <time>2017-03-19T08:20:36Z</time>
      </trkpt>
      <trkpt lat="45.60203" lon="4.36024">
        <ele>514</ele>
        <time>2017-03-19T08:20:37Z</time>
      </trkpt>
      <trkpt lat="45.602" lon="4.36027">
        <ele>514.1</ele>
        <time>2017-03-19T08:20:38Z</time>
      </trkpt>
      <trkpt lat="45.60196" lon="4.3603">
        <ele>514.3</ele>
        <time>2017-03-19T08:20:39Z</time>
      </trkpt>
      <trkpt lat="45.60192" lon="4.36033">
        <ele>514.6</ele>
        <time>2017-03-19T08:20:40Z</time>
      </trkpt>
      <trkpt lat="45.60189" lon="4.36036">
        <ele>514.9</ele>
        <time>2017-03-19T08:20:41Z</time>
      </trkpt>
      <trkpt lat="45.60185" lon="4.36038">
        <ele>515.1</ele>
        <time>2017-03-19T08:20:42Z</time>
      </trkpt>
      <trkpt lat="45.60182" lon="4.36042">
        <ele>515.3</ele>
        <time>2017-03-19T08:20:43Z</time>
      </trkpt>
      <trkpt lat="45.60179" lon="4.36045">
        <ele>515.7</ele>
        <time>2017-03-19T08:20:44Z</time>
      </trkpt>
      <trkpt lat="45.60176" lon="4.36047">
        <ele>516.1</ele>
        <time>2017-03-19T08:20:45Z</time>
      </trkpt>
      <trkpt lat="45.60173" lon="4.3605">
        <ele>516.5</ele>
        <time>2017-03-19T08:20:46Z</time>
      </trkpt>
      <trkpt lat="45.6017" lon="4.36053">
        <ele>516.9</ele>
        <time>2017-03-19T08:20:47Z</time>
      </trkpt>
      <trkpt lat="45.60166" lon="4.36056">
        <ele>517.3</ele>
        <time>2017-03-19T08:20:48Z</time>
      </trkpt>
      <trkpt lat="45.60163" lon="4.36058">
        <ele>517.8</ele>
        <time>2017-03-19T08:20:49Z</time>
      </trkpt>
      <trkpt lat="45.6016" lon="4.3606">
        <ele>518.4</ele>
        <time>2017-03-19T08:20:50Z</time>
      </trkpt>
      <trkpt lat="45.60156" lon="4.36061">
        <ele>518.9</ele>
        <time>2017-03-19T08:20:51Z</time>
      </trkpt>
      <trkpt lat="45.60153" lon="4.36062">
        <ele>519.3</ele>
        <time>2017-03-19T08:20:52Z</time>
      </trkpt>
      <trkpt lat="45.60151" lon="4.36063">
        <ele>519.7</ele>
        <time>2017-03-19T08:20:53Z</time>
      </trkpt>
      <trkpt lat="45.60148" lon="4.36063">
        <ele>520.1</ele>
        <time>2017-03-19T08:20:54Z</time>
      </trkpt>
      <trkpt lat="45.60145" lon="4.36063">
        <ele>520.4</ele>
        <time>2017-03-19T08:20:55Z</time>
      </trkpt>
      <trkpt lat="45.60142" lon="4.36063">
        <ele>520.8</ele>
        <time>2017-03-19T08:20:56Z</time>
      </trkpt>
      <trkpt lat="45.60139" lon="4.36064">
        <ele>521.1</ele>
        <time>2017-03-19T08:20:57Z</time>
      </trkpt>
      <trkpt lat="45.60136" lon="4.36064">
        <ele>521.4</ele>
        <time>2017-03-19T08:20:58Z</time>
      </trkpt>
      <trkpt lat="45.60133" lon="4.36064">
        <ele>521.6</ele>
        <time>2017-03-19T08:20:59Z</time>
      </trkpt>
      <trkpt lat="45.6013" lon="4.36064">
        <ele>521.8</ele>
        <time>2017-03-19T08:21:00Z</time>
      </trkpt>
      <trkpt lat="45.60126" lon="4.36064">
        <ele>521.9</ele>
        <time>2017-03-19T08:21:01Z</time>
      </trkpt>
      <trkpt lat="45.60123" lon="4.36063">
        <ele>522</ele>
        <time>2017-03-19T08:21:02Z</time>
      </trkpt>
      <trkpt lat="45.6012" lon="4.36063">
        <ele>522.1</ele>
        <time>2017-03-19T08:21:03Z</time>
      </trkpt>
      <trkpt lat="45.60117" lon="4.36063">
        <ele>522</ele>
        <time>2017-03-19T08:21:04Z</time>
      </trkpt>
      <trkpt lat="45.60113" lon="4.36062">
        <ele>521.9</ele>
        <time>2017-03-19T08:21:05Z</time>
      </trkpt>
      <trkpt lat="45.6011" lon="4.36061">
        <ele>522</ele>
        <time>2017-03-19T08:21:06Z</time>
      </trkpt>
      <trkpt lat="45.60107" lon="4.36059">
        <ele>522</ele>
        <time>2017-03-19T08:21:07Z</time>
      </trkpt>
      <trkpt lat="45.60104" lon="4.36058">
        <ele>522.1</ele>
        <time>2017-03-19T08:21:08Z</time>
      </trkpt>
      <trkpt lat="45.60101" lon="4.36057">
        <ele>522.1</ele>
        <time>2017-03-19T08:21:09Z</time>
      </trkpt>
      <trkpt lat="45.60098" lon="4.36055">
        <ele>522</ele>
        <time>2017-03-19T08:21:10Z</time>
      </trkpt>
      <trkpt lat="45.60095" lon="4.36054">
        <ele>522.1</ele>
        <time>2017-03-19T08:21:11Z</time>
      </trkpt>
      <trkpt lat="45.60092" lon="4.36053">
        <ele>522.2</ele>
        <time>2017-03-19T08:21:12Z</time>
      </trkpt>
      <trkpt lat="45.60089" lon="4.36051">
        <ele>522.3</ele>
        <time>2017-03-19T08:21:13Z</time>
      </trkpt>
      <trkpt lat="45.60086" lon="4.3605">
        <ele>522.4</ele>
        <time>2017-03-19T08:21:14Z</time>
      </trkpt>
      <trkpt lat="45.60083" lon="4.36048">
        <ele>522.6</ele>
        <time>2017-03-19T08:21:15Z</time>
      </trkpt>
      <trkpt lat="45.6008" lon="4.36047">
        <ele>523</ele>
        <time>2017-03-19T08:21:16Z</time>
      </trkpt>
      <trkpt lat="45.60077" lon="4.36045">
        <ele>523.5</ele>
        <time>2017-03-19T08:21:17Z</time>
      </trkpt>
      <trkpt lat="45.60074" lon="4.36044">
        <ele>524.1</ele>
        <time>2017-03-19T08:21:18Z</time>
      </trkpt>
      <trkpt lat="45.60071" lon="4.36043">
        <ele>524.6</ele>
        <time>2017-03-19T08:21:19Z</time>
      </trkpt>
      <trkpt lat="45.60068" lon="4.36042">
        <ele>525.4</ele>
        <time>2017-03-19T08:21:20Z</time>
      </trkpt>
      <trkpt lat="45.60065" lon="4.36041">
        <ele>526</ele>
        <time>2017-03-19T08:21:21Z</time>
      </trkpt>
      <trkpt lat="45.60061" lon="4.36041">
        <ele>526</ele>
        <time>2017-03-19T08:21:22Z</time>
      </trkpt>
      <trkpt lat="45.60058" lon="4.36041">
        <ele>526</ele>
        <time>2017-03-19T08:21:23Z</time>
      </trkpt>
      <trkpt lat="45.60055" lon="4.36041">
        <ele>526</ele>
        <time>2017-03-19T08:21:24Z</time>
      </trkpt>
      <trkpt lat="45.60052" lon="4.36041">
        <ele>526</ele>
        <time>2017-03-19T08:21:25Z</time>
      </trkpt>
      <trkpt lat="45.60049" lon="4.36041">
        <ele>526</ele>
        <time>2017-03-19T08:21:26Z</time>
      </trkpt>
      <trkpt lat="45.60046" lon="4.3604">
        <ele>526.1</ele>
        <time>2017-03-19T08:21:27Z</time>
      </trkpt>
      <trkpt lat="45.60043" lon="4.3604">
        <ele>526.5</ele>
        <time>2017-03-19T08:21:28Z</time>
      </trkpt>
      <trkpt lat="45.6004" lon="4.3604">
        <ele>526.8</ele>
        <time>2017-03-19T08:21:29Z</time>
      </trkpt>
      <trkpt lat="45.60037" lon="4.36039">
        <ele>527.1</ele>
        <time>2017-03-19T08:21:30Z</time>
      </trkpt>
      <trkpt lat="45.60034" lon="4.36039">
        <ele>527.4</ele>
        <time>2017-03-19T08:21:31Z</time>
      </trkpt>
      <trkpt lat="45.60031" lon="4.36039">
        <ele>527.7</ele>
        <time>2017-03-19T08:21:32Z</time>
      </trkpt>
      <trkpt lat="45.60028" lon="4.36038">
        <ele>528</ele>
        <time>2017-03-19T08:21:33Z</time>
      </trkpt>
      <trkpt lat="45.60025" lon="4.36039">
        <ele>528.2</ele>
        <time>2017-03-19T08:21:34Z</time>
      </trkpt>
      <trkpt lat="45.60022" lon="4.3604">
        <ele>528.5</ele>
        <time>2017-03-19T08:21:35Z</time>
      </trkpt>
      <trkpt lat="45.60019" lon="4.3604">
        <ele>528.7</ele>
        <time>2017-03-19T08:21:36Z</time>
      </trkpt>
      <trkpt lat="45.60016" lon="4.36041">
        <ele>529</ele>
        <time>2017-03-19T08:21:37Z</time>
      </trkpt>
      <trkpt lat="45.60013" lon="4.36042">
        <ele>529.2</ele>
        <time>2017-03-19T08:21:38Z</time>
      </trkpt>
      <trkpt lat="45.6001" lon="4.36043">
        <ele>529.4</ele>
        <time>2017-03-19T08:21:39Z</time>
      </trkpt>
      <trkpt lat="45.60008" lon="4.36043">
        <ele>529.5</ele>
        <time>2017-03-19T08:21:40Z</time>
      </trkpt>
      <trkpt lat="45.60005" lon="4.36044">
        <ele>529.7</ele>
        <time>2017-03-19T08:21:41Z</time>
      </trkpt>
      <trkpt lat="45.60001" lon="4.36046">
        <ele>529.9</ele>
        <time>2017-03-19T08:21:43Z</time>
      </trkpt>
      <trkpt lat="45.59996" lon="4.36047">
        <ele>530.1</ele>
        <time>2017-03-19T08:21:45Z</time>
      </trkpt>
      <trkpt lat="45.59991" lon="4.3605">
        <ele>530.3</ele>
        <time>2017-03-19T08:21:47Z</time>
      </trkpt>
      <trkpt lat="45.59988" lon="4.36051">
        <ele>530.4</ele>
        <time>2017-03-19T08:21:48Z</time>
      </trkpt>
      <trkpt lat="45.59983" lon="4.36054">
        <ele>530.5</ele>
        <time>2017-03-19T08:21:50Z</time>
      </trkpt>
      <trkpt lat="45.59981" lon="4.36056">
        <ele>530.6</ele>
        <time>2017-03-19T08:21:51Z</time>
      </trkpt>
      <trkpt lat="45.59978" lon="4.36057">
        <ele>530.6</ele>
        <time>2017-03-19T08:21:52Z</time>
      </trkpt>
      <trkpt lat="45.59975" lon="4.36058">
        <ele>530.7</ele>
        <time>2017-03-19T08:21:53Z</time>
      </trkpt>
      <trkpt lat="45.5997" lon="4.36061">
        <ele>530.9</ele>
        <time>2017-03-19T08:21:55Z</time>
      </trkpt>
      <trkpt lat="45.59967" lon="4.36062">
        <ele>531</ele>
        <time>2017-03-19T08:21:56Z</time>
      </trkpt>
      <trkpt lat="45.59964" lon="4.36063">
        <ele>531</ele>
        <time>2017-03-19T08:21:57Z</time>
      </trkpt>
      <trkpt lat="45.59961" lon="4.36065">
        <ele>531</ele>
        <time>2017-03-19T08:21:58Z</time>
      </trkpt>
      <trkpt lat="45.59958" lon="4.36067">
        <ele>531.2</ele>
        <time>2017-03-19T08:21:59Z</time>
      </trkpt>
      <trkpt lat="45.59956" lon="4.36068">
        <ele>531.4</ele>
        <time>2017-03-19T08:22:00Z</time>
      </trkpt>
      <trkpt lat="45.59953" lon="4.36069">
        <ele>531.6</ele>
        <time>2017-03-19T08:22:01Z</time>
      </trkpt>
      <trkpt lat="45.5995" lon="4.3607">
        <ele>531.8</ele>
        <time>2017-03-19T08:22:02Z</time>
      </trkpt>
      <trkpt lat="45.59947" lon="4.36071">
        <ele>532</ele>
        <time>2017-03-19T08:22:03Z</time>
      </trkpt>
      <trkpt lat="45.59945" lon="4.36073">
        <ele>532.1</ele>
        <time>2017-03-19T08:22:04Z</time>
      </trkpt>
      <trkpt lat="45.5994" lon="4.36075">
        <ele>532.3</ele>
        <time>2017-03-19T08:22:06Z</time>
      </trkpt>
      <trkpt lat="45.59937" lon="4.36076">
        <ele>532.4</ele>
        <time>2017-03-19T08:22:07Z</time>
      </trkpt>
      <trkpt lat="45.59934" lon="4.36077">
        <ele>532.5</ele>
        <time>2017-03-19T08:22:08Z</time>
      </trkpt>
      <trkpt lat="45.59931" lon="4.36078">
        <ele>532.7</ele>
        <time>2017-03-19T08:22:09Z</time>
      </trkpt>
      <trkpt lat="45.59929" lon="4.36079">
        <ele>533</ele>
        <time>2017-03-19T08:22:10Z</time>
      </trkpt>
      <trkpt lat="45.59926" lon="4.36079">
        <ele>533.4</ele>
        <time>2017-03-19T08:22:11Z</time>
      </trkpt>
      <trkpt lat="45.59922" lon="4.3608">
        <ele>533.7</ele>
        <time>2017-03-19T08:22:12Z</time>
      </trkpt>
      <trkpt lat="45.59919" lon="4.3608">
        <ele>534</ele>
        <time>2017-03-19T08:22:13Z</time>
      </trkpt>
      <trkpt lat="45.59915" lon="4.3608">
        <ele>534.4</ele>
        <time>2017-03-19T08:22:14Z</time>
      </trkpt>
      <trkpt lat="45.59911" lon="4.36081">
        <ele>534.8</ele>
        <time>2017-03-19T08:22:15Z</time>
      </trkpt>
      <trkpt lat="45.59908" lon="4.36082">
        <ele>535</ele>
        <time>2017-03-19T08:22:16Z</time>
      </trkpt>
      <trkpt lat="45.59904" lon="4.36083">
        <ele>535</ele>
        <time>2017-03-19T08:22:17Z</time>
      </trkpt>
      <trkpt lat="45.599" lon="4.36085">
        <ele>535.4</ele>
        <time>2017-03-19T08:22:18Z</time>
      </trkpt>
      <trkpt lat="45.59895" lon="4.36086">
        <ele>535.9</ele>
        <time>2017-03-19T08:22:19Z</time>
      </trkpt>
      <trkpt lat="45.59891" lon="4.36087">
        <ele>536.3</ele>
        <time>2017-03-19T08:22:20Z</time>
      </trkpt>
      <trkpt lat="45.59888" lon="4.36088">
        <ele>536.6</ele>
        <time>2017-03-19T08:22:21Z</time>
      </trkpt>
      <trkpt lat="45.59884" lon="4.36089">
        <ele>536.8</ele>
        <time>2017-03-19T08:22:22Z</time>
      </trkpt>
      <trkpt lat="45.5988" lon="4.36089">
        <ele>536.9</ele>
        <time>2017-03-19T08:22:23Z</time>
      </trkpt>
      <trkpt lat="45.59876" lon="4.36089">
        <ele>537.1</ele>
        <time>2017-03-19T08:22:24Z</time>
      </trkpt>
      <trkpt lat="45.59872" lon="4.36089">
        <ele>537.4</ele>
        <time>2017-03-19T08:22:25Z</time>
      </trkpt>
      <trkpt lat="45.59868" lon="4.36089">
        <ele>537.6</ele>
        <time>2017-03-19T08:22:26Z</time>
      </trkpt>
      <trkpt lat="45.59863" lon="4.36088">
        <ele>537.7</ele>
        <time>2017-03-19T08:22:27Z</time>
      </trkpt>
      <trkpt lat="45.59859" lon="4.36088">
        <ele>537.9</ele>
        <time>2017-03-19T08:22:28Z</time>
      </trkpt>
      <trkpt lat="45.59854" lon="4.36087">
        <ele>537.9</ele>
        <time>2017-03-19T08:22:29Z</time>
      </trkpt>
      <trkpt lat="45.5985" lon="4.36087">
        <ele>538</ele>
        <time>2017-03-19T08:22:30Z</time>
      </trkpt>
      <trkpt lat="45.59846" lon="4.36086">
        <ele>538.2</ele>
        <time>2017-03-19T08:22:31Z</time>
      </trkpt>
      <trkpt lat="45.59841" lon="4.36086">
        <ele>538.2</ele>
        <time>2017-03-19T08:22:32Z</time>
      </trkpt>
      <trkpt lat="45.59836" lon="4.36085">
        <ele>538.3</ele>
        <time>2017-03-19T08:22:33Z</time>
      </trkpt>
      <trkpt lat="45.59831" lon="4.36086">
        <ele>538.3</ele>
        <time>2017-03-19T08:22:34Z</time>
      </trkpt>
      <trkpt lat="45.59827" lon="4.36086">
        <ele>538.4</ele>
        <time>2017-03-19T08:22:35Z</time>
      </trkpt>
      <trkpt lat="45.59822" lon="4.36087">
        <ele>538.6</ele>
        <time>2017-03-19T08:22:36Z</time>
      </trkpt>
      <trkpt lat="45.59817" lon="4.36089">
        <ele>538.7</ele>
        <time>2017-03-19T08:22:37Z</time>
      </trkpt>
      <trkpt lat="45.59812" lon="4.3609">
        <ele>538.9</ele>
        <time>2017-03-19T08:22:38Z</time>
      </trkpt>
      <trkpt lat="45.59808" lon="4.3609">
        <ele>539</ele>
        <time>2017-03-19T08:22:39Z</time>
      </trkpt>
      <trkpt lat="45.59803" lon="4.36092">
        <ele>539</ele>
        <time>2017-03-19T08:22:40Z</time>
      </trkpt>
      <trkpt lat="45.59798" lon="4.36093">
        <ele>538.9</ele>
        <time>2017-03-19T08:22:41Z</time>
      </trkpt>
      <trkpt lat="45.59793" lon="4.36094">
        <ele>538.8</ele>
        <time>2017-03-19T08:22:42Z</time>
      </trkpt>
      <trkpt lat="45.59788" lon="4.36095">
        <ele>538.8</ele>
        <time>2017-03-19T08:22:43Z</time>
      </trkpt>
      <trkpt lat="45.59783" lon="4.36096">
        <ele>538.7</ele>
        <time>2017-03-19T08:22:44Z</time>
      </trkpt>
      <trkpt lat="45.59779" lon="4.36097">
        <ele>538.5</ele>
        <time>2017-03-19T08:22:45Z</time>
      </trkpt>
      <trkpt lat="45.59775" lon="4.36098">
        <ele>538.4</ele>
        <time>2017-03-19T08:22:46Z</time>
      </trkpt>
      <trkpt lat="45.59771" lon="4.36099">
        <ele>538.6</ele>
        <time>2017-03-19T08:22:47Z</time>
      </trkpt>
      <trkpt lat="45.59768" lon="4.36102">
        <ele>538.8</ele>
        <time>2017-03-19T08:22:48Z</time>
      </trkpt>
      <trkpt lat="45.59765" lon="4.36103">
        <ele>538.9</ele>
        <time>2017-03-19T08:22:49Z</time>
      </trkpt>
      <trkpt lat="45.59762" lon="4.36103">
        <ele>538.8</ele>
        <time>2017-03-19T08:22:50Z</time>
      </trkpt>
      <trkpt lat="45.59759" lon="4.36102">
        <ele>538.8</ele>
        <time>2017-03-19T08:22:51Z</time>
      </trkpt>
      <trkpt lat="45.59756" lon="4.36104">
        <ele>538.9</ele>
        <time>2017-03-19T08:22:52Z</time>
      </trkpt>
      <trkpt lat="45.59754" lon="4.36107">
        <ele>539.3</ele>
        <time>2017-03-19T08:22:53Z</time>
      </trkpt>
      <trkpt lat="45.59752" lon="4.3611">
        <ele>539.6</ele>
        <time>2017-03-19T08:22:54Z</time>
      </trkpt>
      <trkpt lat="45.59749" lon="4.36113">
        <ele>540.1</ele>
        <time>2017-03-19T08:22:55Z</time>
      </trkpt>
      <trkpt lat="45.59748" lon="4.36117">
        <ele>540.6</ele>
        <time>2017-03-19T08:22:56Z</time>
      </trkpt>
      <trkpt lat="45.59746" lon="4.3612">
        <ele>541</ele>
        <time>2017-03-19T08:22:57Z</time>
      </trkpt>
      <trkpt lat="45.59745" lon="4.36127">
        <ele>541.5</ele>
        <time>2017-03-19T08:22:59Z</time>
      </trkpt>
      <trkpt lat="45.59746" lon="4.36131">
        <ele>541.7</ele>
        <time>2017-03-19T08:23:00Z</time>
      </trkpt>
      <trkpt lat="45.59746" lon="4.36135">
        <ele>542</ele>
        <time>2017-03-19T08:23:01Z</time>
      </trkpt>
      <trkpt lat="45.59746" lon="4.36139">
        <ele>542.3</ele>
        <time>2017-03-19T08:23:02Z</time>
      </trkpt>
      <trkpt lat="45.59746" lon="4.36143">
        <ele>542.5</ele>
        <time>2017-03-19T08:23:03Z</time>
      </trkpt>
      <trkpt lat="45.59746" lon="4.36147">
        <ele>542.8</ele>
        <time>2017-03-19T08:23:04Z</time>
      </trkpt>
      <trkpt lat="45.59745" lon="4.36152">
        <ele>543.1</ele>
        <time>2017-03-19T08:23:05Z</time>
      </trkpt>
      <trkpt lat="45.59744" lon="4.36157">
        <ele>543.5</ele>
        <time>2017-03-19T08:23:06Z</time>
      </trkpt>
      <trkpt lat="45.59744" lon="4.36161">
        <ele>543.8</ele>
        <time>2017-03-19T08:23:07Z</time>
      </trkpt>
      <trkpt lat="45.59744" lon="4.36166">
        <ele>544.1</ele>
        <time>2017-03-19T08:23:08Z</time>
      </trkpt>
      <trkpt lat="45.59743" lon="4.3617">
        <ele>544.4</ele>
        <time>2017-03-19T08:23:10Z</time>
      </trkpt>
      <trkpt lat="45.59738" lon="4.36173">
        <ele>545</ele>
        <time>2017-03-19T08:23:12Z</time>
      </trkpt>
      <trkpt lat="45.59734" lon="4.36174">
        <ele>545.3</ele>
        <time>2017-03-19T08:23:13Z</time>
      </trkpt>
      <trkpt lat="45.5973" lon="4.36174">
        <ele>545</ele>
        <time>2017-03-19T08:23:14Z</time>
      </trkpt>
      <trkpt lat="45.59727" lon="4.36173">
        <ele>544.8</ele>
        <time>2017-03-19T08:23:15Z</time>
      </trkpt>
      <trkpt lat="45.59723" lon="4.3617">
        <ele>544.6</ele>
        <time>2017-03-19T08:23:16Z</time>
      </trkpt>
      <trkpt lat="45.59719" lon="4.36167">
        <ele>544.4</ele>
        <time>2017-03-19T08:23:17Z</time>
      </trkpt>
      <trkpt lat="45.59715" lon="4.36163">
        <ele>544.1</ele>
        <time>2017-03-19T08:23:18Z</time>
      </trkpt>
      <trkpt lat="45.59712" lon="4.3616">
        <ele>543.9</ele>
        <time>2017-03-19T08:23:19Z</time>
      </trkpt>
      <trkpt lat="45.59708" lon="4.36157">
        <ele>543.7</ele>
        <time>2017-03-19T08:23:20Z</time>
      </trkpt>
      <trkpt lat="45.59704" lon="4.36154">
        <ele>543.4</ele>
        <time>2017-03-19T08:23:21Z</time>
      </trkpt>
      <trkpt lat="45.597" lon="4.36151">
        <ele>543.2</ele>
        <time>2017-03-19T08:23:22Z</time>
      </trkpt>
      <trkpt lat="45.59696" lon="4.3615">
        <ele>543</ele>
        <time>2017-03-19T08:23:23Z</time>
      </trkpt>
      <trkpt lat="45.59692" lon="4.36157">
        <ele>542.6</ele>
        <time>2017-03-19T08:23:24Z</time>
      </trkpt>
      <trkpt lat="45.59688" lon="4.36164">
        <ele>542</ele>
        <time>2017-03-19T08:23:25Z</time>
      </trkpt>
      <trkpt lat="45.59685" lon="4.36168">
        <ele>541.8</ele>
        <time>2017-03-19T08:23:26Z</time>
      </trkpt>
      <trkpt lat="45.59681" lon="4.36172">
        <ele>541.7</ele>
        <time>2017-03-19T08:23:27Z</time>
      </trkpt>
      <trkpt lat="45.59677" lon="4.36175">
        <ele>541.6</ele>
        <time>2017-03-19T08:23:28Z</time>
      </trkpt>
      <trkpt lat="45.59673" lon="4.36179">
        <ele>541.4</ele>
        <time>2017-03-19T08:23:29Z</time>
      </trkpt>
      <trkpt lat="45.5967" lon="4.36185">
        <ele>541.3</ele>
        <time>2017-03-19T08:23:30Z</time>
      </trkpt>
      <trkpt lat="45.59667" lon="4.36189">
        <ele>541.1</ele>
        <time>2017-03-19T08:23:31Z</time>
      </trkpt>
      <trkpt lat="45.59665" lon="4.36191">
        <ele>541.1</ele>
        <time>2017-03-19T08:23:32Z</time>
      </trkpt>
      <trkpt lat="45.59663" lon="4.36193">
        <ele>541</ele>
        <time>2017-03-19T08:23:33Z</time>
      </trkpt>
      <trkpt lat="45.5966" lon="4.362">
        <ele>540.8</ele>
        <time>2017-03-19T08:23:35Z</time>
      </trkpt>
      <trkpt lat="45.59657" lon="4.36204">
        <ele>540.7</ele>
        <time>2017-03-19T08:23:36Z</time>
      </trkpt>
      <trkpt lat="45.59654" lon="4.36207">
        <ele>540.6</ele>
        <time>2017-03-19T08:23:37Z</time>
      </trkpt>
      <trkpt lat="45.5965" lon="4.36211">
        <ele>540.4</ele>
        <time>2017-03-19T08:23:39Z</time>
      </trkpt>
      <trkpt lat="45.59645" lon="4.36213">
        <ele>540.3</ele>
        <time>2017-03-19T08:23:41Z</time>
      </trkpt>
      <trkpt lat="45.59642" lon="4.36213">
        <ele>540.2</ele>
        <time>2017-03-19T08:23:42Z</time>
      </trkpt>
      <trkpt lat="45.59637" lon="4.36211">
        <ele>540</ele>
        <time>2017-03-19T08:23:44Z</time>
      </trkpt>
      <trkpt lat="45.59634" lon="4.3621">
        <ele>540</ele>
        <time>2017-03-19T08:23:45Z</time>
      </trkpt>
      <trkpt lat="45.5963" lon="4.36209">
        <ele>540.1</ele>
        <time>2017-03-19T08:23:46Z</time>
      </trkpt>
      <trkpt lat="45.59627" lon="4.36209">
        <ele>540.1</ele>
        <time>2017-03-19T08:23:47Z</time>
      </trkpt>
      <trkpt lat="45.59622" lon="4.36209">
        <ele>540.1</ele>
        <time>2017-03-19T08:23:48Z</time>
      </trkpt>
      <trkpt lat="45.59617" lon="4.3621">
        <ele>540.1</ele>
        <time>2017-03-19T08:23:49Z</time>
      </trkpt>
      <trkpt lat="45.59612" lon="4.36213">
        <ele>540.3</ele>
        <time>2017-03-19T08:23:50Z</time>
      </trkpt>
      <trkpt lat="45.59607" lon="4.36215">
        <ele>540.4</ele>
        <time>2017-03-19T08:23:51Z</time>
      </trkpt>
      <trkpt lat="45.59603" lon="4.36217">
        <ele>540.4</ele>
        <time>2017-03-19T08:23:52Z</time>
      </trkpt>
      <trkpt lat="45.59598" lon="4.3622">
        <ele>540.5</ele>
        <time>2017-03-19T08:23:53Z</time>
      </trkpt>
      <trkpt lat="45.59594" lon="4.36222">
        <ele>540.6</ele>
        <time>2017-03-19T08:23:54Z</time>
      </trkpt>
      <trkpt lat="45.59589" lon="4.36224">
        <ele>540.6</ele>
        <time>2017-03-19T08:23:55Z</time>
      </trkpt>
      <trkpt lat="45.59585" lon="4.36227">
        <ele>540.7</ele>
        <time>2017-03-19T08:23:56Z</time>
      </trkpt>
      <trkpt lat="45.59582" lon="4.36228">
        <ele>540.8</ele>
        <time>2017-03-19T08:23:57Z</time>
      </trkpt>
      <trkpt lat="45.59579" lon="4.36232">
        <ele>540.8</ele>
        <time>2017-03-19T08:23:59Z</time>
      </trkpt>
      <trkpt lat="45.59581" lon="4.36231">
        <ele>540.8</ele>
        <time>2017-03-19T08:24:00Z</time>
      </trkpt>
      <trkpt lat="45.59584" lon="4.3623">
        <ele>540.7</ele>
        <time>2017-03-19T08:24:01Z</time>
      </trkpt>
      <trkpt lat="45.59588" lon="4.36225">
        <ele>540.7</ele>
        <time>2017-03-19T08:24:02Z</time>
      </trkpt>
      <trkpt lat="45.59592" lon="4.36222">
        <ele>540.6</ele>
        <time>2017-03-19T08:24:03Z</time>
      </trkpt>
      <trkpt lat="45.59597" lon="4.36219">
        <ele>540.5</ele>
        <time>2017-03-19T08:24:04Z</time>
      </trkpt>
      <trkpt lat="45.59602" lon="4.36216">
        <ele>540.4</ele>
        <time>2017-03-19T08:24:05Z</time>
      </trkpt>
      <trkpt lat="45.59608" lon="4.36214">
        <ele>540.3</ele>
        <time>2017-03-19T08:24:06Z</time>
      </trkpt>
      <trkpt lat="45.59614" lon="4.36211">
        <ele>540.2</ele>
        <time>2017-03-19T08:24:07Z</time>
      </trkpt>
      <trkpt lat="45.59619" lon="4.36209">
        <ele>540.1</ele>
        <time>2017-03-19T08:24:08Z</time>
      </trkpt>
      <trkpt lat="45.59625" lon="4.36209">
        <ele>540.1</ele>
        <time>2017-03-19T08:24:09Z</time>
      </trkpt>
      <trkpt lat="45.59631" lon="4.36212">
        <ele>540.1</ele>
        <time>2017-03-19T08:24:10Z</time>
      </trkpt>
      <trkpt lat="45.59635" lon="4.36216">
        <ele>540</ele>
        <time>2017-03-19T08:24:11Z</time>
      </trkpt>
      <trkpt lat="45.59639" lon="4.36222">
        <ele>540.1</ele>
        <time>2017-03-19T08:24:12Z</time>
      </trkpt>
      <trkpt lat="45.59642" lon="4.36229">
        <ele>540.5</ele>
        <time>2017-03-19T08:24:13Z</time>
      </trkpt>
      <trkpt lat="45.59645" lon="4.36235">
        <ele>540.8</ele>
        <time>2017-03-19T08:24:14Z</time>
      </trkpt>
      <trkpt lat="45.59647" lon="4.36241">
        <ele>541.1</ele>
        <time>2017-03-19T08:24:15Z</time>
      </trkpt>
      <trkpt lat="45.59648" lon="4.36248">
        <ele>541.4</ele>
        <time>2017-03-19T08:24:16Z</time>
      </trkpt>
      <trkpt lat="45.59649" lon="4.36253">
        <ele>541.6</ele>
        <time>2017-03-19T08:24:17Z</time>
      </trkpt>
      <trkpt lat="45.5965" lon="4.3626">
        <ele>541.8</ele>
        <time>2017-03-19T08:24:18Z</time>
      </trkpt>
      <trkpt lat="45.59651" lon="4.36266">
        <ele>542.1</ele>
        <time>2017-03-19T08:24:19Z</time>
      </trkpt>
      <trkpt lat="45.59651" lon="4.36271">
        <ele>542.2</ele>
        <time>2017-03-19T08:24:20Z</time>
      </trkpt>
      <trkpt lat="45.59652" lon="4.36277">
        <ele>542.5</ele>
        <time>2017-03-19T08:24:21Z</time>
      </trkpt>
      <trkpt lat="45.59653" lon="4.36283">
        <ele>542.7</ele>
        <time>2017-03-19T08:24:22Z</time>
      </trkpt>
      <trkpt lat="45.59654" lon="4.36289">
        <ele>542.9</ele>
        <time>2017-03-19T08:24:23Z</time>
      </trkpt>
      <trkpt lat="45.59655" lon="4.36293">
        <ele>543.1</ele>
        <time>2017-03-19T08:24:24Z</time>
      </trkpt>
      <trkpt lat="45.59655" lon="4.36299">
        <ele>543.3</ele>
        <time>2017-03-19T08:24:25Z</time>
      </trkpt>
      <trkpt lat="45.59655" lon="4.36305">
        <ele>543.5</ele>
        <time>2017-03-19T08:24:26Z</time>
      </trkpt>
      <trkpt lat="45.59654" lon="4.36311">
        <ele>543.7</ele>
        <time>2017-03-19T08:24:27Z</time>
      </trkpt>
      <trkpt lat="45.59652" lon="4.36316">
        <ele>543.8</ele>
        <time>2017-03-19T08:24:28Z</time>
      </trkpt>
      <trkpt lat="45.59649" lon="4.36322">
        <ele>544</ele>
        <time>2017-03-19T08:24:29Z</time>
      </trkpt>
      <trkpt lat="45.59646" lon="4.36327">
        <ele>544.1</ele>
        <time>2017-03-19T08:24:30Z</time>
      </trkpt>
      <trkpt lat="45.59643" lon="4.36331">
        <ele>544.2</ele>
        <time>2017-03-19T08:24:31Z</time>
      </trkpt>
      <trkpt lat="45.59639" lon="4.36335">
        <ele>544.3</ele>
        <time>2017-03-19T08:24:32Z</time>
      </trkpt>
      <trkpt lat="45.59636" lon="4.36339">
        <ele>544.3</ele>
        <time>2017-03-19T08:24:33Z</time>
      </trkpt>
      <trkpt lat="45.59632" lon="4.36344">
        <ele>544.4</ele>
        <time>2017-03-19T08:24:34Z</time>
      </trkpt>
      <trkpt lat="45.59629" lon="4.36347">
        <ele>544.4</ele>
        <time>2017-03-19T08:24:35Z</time>
      </trkpt>
      <trkpt lat="45.59625" lon="4.36351">
        <ele>544.5</ele>
        <time>2017-03-19T08:24:36Z</time>
      </trkpt>
      <trkpt lat="45.59621" lon="4.36353">
        <ele>544.5</ele>
        <time>2017-03-19T08:24:37Z</time>
      </trkpt>
      <trkpt lat="45.59617" lon="4.36355">
        <ele>544.6</ele>
        <time>2017-03-19T08:24:38Z</time>
      </trkpt>
      <trkpt lat="45.59614" lon="4.36359">
        <ele>544.6</ele>
        <time>2017-03-19T08:24:39Z</time>
      </trkpt>
      <trkpt lat="45.5961" lon="4.36362">
        <ele>544.7</ele>
        <time>2017-03-19T08:24:40Z</time>
      </trkpt>
      <trkpt lat="45.59607" lon="4.36366">
        <ele>544.7</ele>
        <time>2017-03-19T08:24:41Z</time>
      </trkpt>
      <trkpt lat="45.59602" lon="4.3637">
        <ele>544.8</ele>
        <time>2017-03-19T08:24:42Z</time>
      </trkpt>
      <trkpt lat="45.59598" lon="4.36372">
        <ele>544.9</ele>
        <time>2017-03-19T08:24:43Z</time>
      </trkpt>
      <trkpt lat="45.59593" lon="4.36377">
        <ele>544.9</ele>
        <time>2017-03-19T08:24:44Z</time>
      </trkpt>
      <trkpt lat="45.59588" lon="4.36382">
        <ele>545</ele>
        <time>2017-03-19T08:24:45Z</time>
      </trkpt>
      <trkpt lat="45.59584" lon="4.36387">
        <ele>545.1</ele>
        <time>2017-03-19T08:24:46Z</time>
      </trkpt>
      <trkpt lat="45.5958" lon="4.36392">
        <ele>545.2</ele>
        <time>2017-03-19T08:24:47Z</time>
      </trkpt>
      <trkpt lat="45.59576" lon="4.36398">
        <ele>545.3</ele>
        <time>2017-03-19T08:24:48Z</time>
      </trkpt>
      <trkpt lat="45.59573" lon="4.36404">
        <ele>545.4</ele>
        <time>2017-03-19T08:24:49Z</time>
      </trkpt>
      <trkpt lat="45.5957" lon="4.3641">
        <ele>545.5</ele>
        <time>2017-03-19T08:24:50Z</time>
      </trkpt>
      <trkpt lat="45.59567" lon="4.36415">
        <ele>545.7</ele>
        <time>2017-03-19T08:24:51Z</time>
      </trkpt>
      <trkpt lat="45.59564" lon="4.36422">
        <ele>545.8</ele>
        <time>2017-03-19T08:24:52Z</time>
      </trkpt>
      <trkpt lat="45.59561" lon="4.36429">
        <ele>545.9</ele>
        <time>2017-03-19T08:24:53Z</time>
      </trkpt>
      <trkpt lat="45.59559" lon="4.36438">
        <ele>546</ele>
        <time>2017-03-19T08:24:54Z</time>
      </trkpt>
      <trkpt lat="45.59557" lon="4.36445">
        <ele>546</ele>
        <time>2017-03-19T08:24:55Z</time>
      </trkpt>
      <trkpt lat="45.59554" lon="4.36452">
        <ele>546.1</ele>
        <time>2017-03-19T08:24:56Z</time>
      </trkpt>
      <trkpt lat="45.59551" lon="4.36459">
        <ele>546.2</ele>
        <time>2017-03-19T08:24:57Z</time>
      </trkpt>
      <trkpt lat="45.59549" lon="4.36464">
        <ele>546.3</ele>
        <time>2017-03-19T08:24:58Z</time>
      </trkpt>
      <trkpt lat="45.59547" lon="4.36468">
        <ele>546.3</ele>
        <time>2017-03-19T08:24:59Z</time>
      </trkpt>
      <trkpt lat="45.59545" lon="4.36473">
        <ele>546.4</ele>
        <time>2017-03-19T08:25:00Z</time>
      </trkpt>
      <trkpt lat="45.59543" lon="4.36477">
        <ele>546.5</ele>
        <time>2017-03-19T08:25:01Z</time>
      </trkpt>
      <trkpt lat="45.5954" lon="4.36483">
        <ele>546.5</ele>
        <time>2017-03-19T08:25:02Z</time>
      </trkpt>
      <trkpt lat="45.59537" lon="4.36488">
        <ele>546.6</ele>
        <time>2017-03-19T08:25:03Z</time>
      </trkpt>
      <trkpt lat="45.59534" lon="4.36492">
        <ele>546.7</ele>
        <time>2017-03-19T08:25:04Z</time>
      </trkpt>
      <trkpt lat="45.59532" lon="4.36496">
        <ele>546.7</ele>
        <time>2017-03-19T08:25:05Z</time>
      </trkpt>
      <trkpt lat="45.5953" lon="4.36499">
        <ele>546.8</ele>
        <time>2017-03-19T08:25:06Z</time>
      </trkpt>
      <trkpt lat="45.59528" lon="4.36503">
        <ele>546.8</ele>
        <time>2017-03-19T08:25:07Z</time>
      </trkpt>
      <trkpt lat="45.59528" lon="4.36509">
        <ele>546.9</ele>
        <time>2017-03-19T08:25:08Z</time>
      </trkpt>
      <trkpt lat="45.59528" lon="4.36514">
        <ele>547.2</ele>
        <time>2017-03-19T08:25:09Z</time>
      </trkpt>
      <trkpt lat="45.59528" lon="4.3652">
        <ele>547.5</ele>
        <time>2017-03-19T08:25:10Z</time>
      </trkpt>
      <trkpt lat="45.59527" lon="4.36525">
        <ele>547.8</ele>
        <time>2017-03-19T08:25:11Z</time>
      </trkpt>
      <trkpt lat="45.59527" lon="4.36531">
        <ele>548</ele>
        <time>2017-03-19T08:25:12Z</time>
      </trkpt>
      <trkpt lat="45.59527" lon="4.36537">
        <ele>548.3</ele>
        <time>2017-03-19T08:25:13Z</time>
      </trkpt>
      <trkpt lat="45.59527" lon="4.36543">
        <ele>548.5</ele>
        <time>2017-03-19T08:25:14Z</time>
      </trkpt>
      <trkpt lat="45.59528" lon="4.3655">
        <ele>548.7</ele>
        <time>2017-03-19T08:25:15Z</time>
      </trkpt>
      <trkpt lat="45.59528" lon="4.36558">
        <ele>548.9</ele>
        <time>2017-03-19T08:25:16Z</time>
      </trkpt>
      <trkpt lat="45.59528" lon="4.36565">
        <ele>549</ele>
        <time>2017-03-19T08:25:17Z</time>
      </trkpt>
      <trkpt lat="45.59528" lon="4.36571">
        <ele>549</ele>
        <time>2017-03-19T08:25:18Z</time>
      </trkpt>
      <trkpt lat="45.59527" lon="4.36577">
        <ele>549</ele>
        <time>2017-03-19T08:25:19Z</time>
      </trkpt>
      <trkpt lat="45.59527" lon="4.36585">
        <ele>549.1</ele>
        <time>2017-03-19T08:25:20Z</time>
      </trkpt>
      <trkpt lat="45.59526" lon="4.36592">
        <ele>549.3</ele>
        <time>2017-03-19T08:25:21Z</time>
      </trkpt>
      <trkpt lat="45.59525" lon="4.36598">
        <ele>549.5</ele>
        <time>2017-03-19T08:25:22Z</time>
      </trkpt>
      <trkpt lat="45.59524" lon="4.36605">
        <ele>549.9</ele>
        <time>2017-03-19T08:25:23Z</time>
      </trkpt>
      <trkpt lat="45.59523" lon="4.36611">
        <ele>550.1</ele>
        <time>2017-03-19T08:25:24Z</time>
      </trkpt>
      <trkpt lat="45.59521" lon="4.36616">
        <ele>550.1</ele>
        <time>2017-03-19T08:25:25Z</time>
      </trkpt>
      <trkpt lat="45.5952" lon="4.36621">
        <ele>550.2</ele>
        <time>2017-03-19T08:25:26Z</time>
      </trkpt>
      <trkpt lat="45.59518" lon="4.36628">
        <ele>550.2</ele>
        <time>2017-03-19T08:25:27Z</time>
      </trkpt>
      <trkpt lat="45.59516" lon="4.36635">
        <ele>550.1</ele>
        <time>2017-03-19T08:25:28Z</time>
      </trkpt>
      <trkpt lat="45.59514" lon="4.36642">
        <ele>550</ele>
        <time>2017-03-19T08:25:29Z</time>
      </trkpt>
      <trkpt lat="45.59512" lon="4.36649">
        <ele>549.9</ele>
        <time>2017-03-19T08:25:30Z</time>
      </trkpt>
      <trkpt lat="45.5951" lon="4.36657">
        <ele>549.7</ele>
        <time>2017-03-19T08:25:31Z</time>
      </trkpt>
      <trkpt lat="45.59508" lon="4.36665">
        <ele>549.8</ele>
        <time>2017-03-19T08:25:32Z</time>
      </trkpt>
      <trkpt lat="45.59504" lon="4.36675">
        <ele>549.8</ele>
        <time>2017-03-19T08:25:33Z</time>
      </trkpt>
      <trkpt lat="45.59501" lon="4.36684">
        <ele>549.9</ele>
        <time>2017-03-19T08:25:34Z</time>
      </trkpt>
      <trkpt lat="45.595" lon="4.36693">
        <ele>550</ele>
        <time>2017-03-19T08:25:35Z</time>
      </trkpt>
      <trkpt lat="45.59497" lon="4.36701">
        <ele>549.8</ele>
        <time>2017-03-19T08:25:36Z</time>
      </trkpt>
      <trkpt lat="45.59495" lon="4.36709">
        <ele>549.6</ele>
        <time>2017-03-19T08:25:37Z</time>
      </trkpt>
      <trkpt lat="45.59492" lon="4.36717">
        <ele>549.3</ele>
        <time>2017-03-19T08:25:38Z</time>
      </trkpt>
      <trkpt lat="45.59489" lon="4.36724">
        <ele>549.2</ele>
        <time>2017-03-19T08:25:39Z</time>
      </trkpt>
      <trkpt lat="45.59487" lon="4.36732">
        <ele>549.2</ele>
        <time>2017-03-19T08:25:40Z</time>
      </trkpt>
      <trkpt lat="45.59485" lon="4.3674">
        <ele>549.1</ele>
        <time>2017-03-19T08:25:41Z</time>
      </trkpt>
      <trkpt lat="45.59483" lon="4.36747">
        <ele>549</ele>
        <time>2017-03-19T08:25:42Z</time>
      </trkpt>
      <trkpt lat="45.59481" lon="4.36756">
        <ele>548.9</ele>
        <time>2017-03-19T08:25:43Z</time>
      </trkpt>
      <trkpt lat="45.59479" lon="4.36762">
        <ele>548.7</ele>
        <time>2017-03-19T08:25:44Z</time>
      </trkpt>
      <trkpt lat="45.59477" lon="4.36769">
        <ele>548.6</ele>
        <time>2017-03-19T08:25:45Z</time>
      </trkpt>
      <trkpt lat="45.59475" lon="4.36775">
        <ele>548.6</ele>
        <time>2017-03-19T08:25:46Z</time>
      </trkpt>
      <trkpt lat="45.59474" lon="4.36782">
        <ele>548.7</ele>
        <time>2017-03-19T08:25:47Z</time>
      </trkpt>
      <trkpt lat="45.59474" lon="4.3679">
        <ele>548.9</ele>
        <time>2017-03-19T08:25:49Z</time>
      </trkpt>
      <trkpt lat="45.59471" lon="4.36795">
        <ele>549.2</ele>
        <time>2017-03-19T08:25:50Z</time>
      </trkpt>
      <trkpt lat="45.5947" lon="4.368">
        <ele>549.5</ele>
        <time>2017-03-19T08:25:51Z</time>
      </trkpt>
      <trkpt lat="45.59469" lon="4.36805">
        <ele>549.7</ele>
        <time>2017-03-19T08:25:52Z</time>
      </trkpt>
      <trkpt lat="45.59467" lon="4.3681">
        <ele>549.9</ele>
        <time>2017-03-19T08:25:53Z</time>
      </trkpt>
      <trkpt lat="45.59466" lon="4.36815">
        <ele>550</ele>
        <time>2017-03-19T08:25:54Z</time>
      </trkpt>
      <trkpt lat="45.59465" lon="4.36819">
        <ele>550</ele>
        <time>2017-03-19T08:25:55Z</time>
      </trkpt>
      <trkpt lat="45.59463" lon="4.36825">
        <ele>550</ele>
        <time>2017-03-19T08:25:56Z</time>
      </trkpt>
      <trkpt lat="45.59461" lon="4.3683">
        <ele>549.9</ele>
        <time>2017-03-19T08:25:57Z</time>
      </trkpt>
      <trkpt lat="45.59459" lon="4.36835">
        <ele>549.9</ele>
        <time>2017-03-19T08:25:58Z</time>
      </trkpt>
      <trkpt lat="45.59458" lon="4.3684">
        <ele>549.9</ele>
        <time>2017-03-19T08:25:59Z</time>
      </trkpt>
      <trkpt lat="45.59456" lon="4.36845">
        <ele>549.9</ele>
        <time>2017-03-19T08:26:00Z</time>
      </trkpt>
      <trkpt lat="45.59455" lon="4.3685">
        <ele>550</ele>
        <time>2017-03-19T08:26:01Z</time>
      </trkpt>
      <trkpt lat="45.59453" lon="4.36854">
        <ele>550.1</ele>
        <time>2017-03-19T08:26:02Z</time>
      </trkpt>
      <trkpt lat="45.59451" lon="4.36859">
        <ele>550.2</ele>
        <time>2017-03-19T08:26:03Z</time>
      </trkpt>
      <trkpt lat="45.59449" lon="4.36863">
        <ele>550.4</ele>
        <time>2017-03-19T08:26:04Z</time>
      </trkpt>
      <trkpt lat="45.59447" lon="4.36867">
        <ele>550.5</ele>
        <time>2017-03-19T08:26:05Z</time>
      </trkpt>
      <trkpt lat="45.59446" lon="4.3687">
        <ele>550.6</ele>
        <time>2017-03-19T08:26:06Z</time>
      </trkpt>
      <trkpt lat="45.59444" lon="4.36874">
        <ele>550.7</ele>
        <time>2017-03-19T08:26:07Z</time>
      </trkpt>
      <trkpt lat="45.59441" lon="4.36877">
        <ele>550.8</ele>
        <time>2017-03-19T08:26:08Z</time>
      </trkpt>
      <trkpt lat="45.59439" lon="4.3688">
        <ele>550.9</ele>
        <time>2017-03-19T08:26:09Z</time>
      </trkpt>
      <trkpt lat="45.59437" lon="4.36884">
        <ele>550.9</ele>
        <time>2017-03-19T08:26:10Z</time>
      </trkpt>
      <trkpt lat="45.59436" lon="4.36887">
        <ele>551</ele>
        <time>2017-03-19T08:26:11Z</time>
      </trkpt>
      <trkpt lat="45.59434" lon="4.3689">
        <ele>551.2</ele>
        <time>2017-03-19T08:26:12Z</time>
      </trkpt>
      <trkpt lat="45.59432" lon="4.36896">
        <ele>551.6</ele>
        <time>2017-03-19T08:26:14Z</time>
      </trkpt>
      <trkpt lat="45.59429" lon="4.36901">
        <ele>552.2</ele>
        <time>2017-03-19T08:26:16Z</time>
      </trkpt>
      <trkpt lat="45.59427" lon="4.36906">
        <ele>552.6</ele>
        <time>2017-03-19T08:26:18Z</time>
      </trkpt>
      <trkpt lat="45.59425" lon="4.36912">
        <ele>553</ele>
        <time>2017-03-19T08:26:20Z</time>
      </trkpt>
      <trkpt lat="45.59422" lon="4.36918">
        <ele>553.5</ele>
        <time>2017-03-19T08:26:22Z</time>
      </trkpt>
      <trkpt lat="45.5942" lon="4.36921">
        <ele>553.7</ele>
        <time>2017-03-19T08:26:23Z</time>
      </trkpt>
      <trkpt lat="45.59418" lon="4.36925">
        <ele>553.9</ele>
        <time>2017-03-19T08:26:24Z</time>
      </trkpt>
      <trkpt lat="45.59416" lon="4.36929">
        <ele>553.9</ele>
        <time>2017-03-19T08:26:25Z</time>
      </trkpt>
      <trkpt lat="45.59412" lon="4.36933">
        <ele>553.7</ele>
        <time>2017-03-19T08:26:26Z</time>
      </trkpt>
      <trkpt lat="45.59409" lon="4.36937">
        <ele>553.5</ele>
        <time>2017-03-19T08:26:27Z</time>
      </trkpt>
      <trkpt lat="45.59407" lon="4.36942">
        <ele>553.1</ele>
        <time>2017-03-19T08:26:28Z</time>
      </trkpt>
      <trkpt lat="45.59404" lon="4.36947">
        <ele>552.6</ele>
        <time>2017-03-19T08:26:29Z</time>
      </trkpt>
      <trkpt lat="45.594" lon="4.36952">
        <ele>551.9</ele>
        <time>2017-03-19T08:26:30Z</time>
      </trkpt>
      <trkpt lat="45.59395" lon="4.36958">
        <ele>551.3</ele>
        <time>2017-03-19T08:26:31Z</time>
      </trkpt>
      <trkpt lat="45.59391" lon="4.36964">
        <ele>550.9</ele>
        <time>2017-03-19T08:26:32Z</time>
      </trkpt>
      <trkpt lat="45.59388" lon="4.3697">
        <ele>550.5</ele>
        <time>2017-03-19T08:26:33Z</time>
      </trkpt>
      <trkpt lat="45.59384" lon="4.36976">
        <ele>550.2</ele>
        <time>2017-03-19T08:26:34Z</time>
      </trkpt>
      <trkpt lat="45.59384" lon="4.36982">
        <ele>550.2</ele>
        <time>2017-03-19T08:26:35Z</time>
      </trkpt>
      <trkpt lat="45.5938" lon="4.36988">
        <ele>550.2</ele>
        <time>2017-03-19T08:26:36Z</time>
      </trkpt>
      <trkpt lat="45.59375" lon="4.36994">
        <ele>550.4</ele>
        <time>2017-03-19T08:26:37Z</time>
      </trkpt>
      <trkpt lat="45.5937" lon="4.36999">
        <ele>550.7</ele>
        <time>2017-03-19T08:26:38Z</time>
      </trkpt>
      <trkpt lat="45.59365" lon="4.37003">
        <ele>550.8</ele>
        <time>2017-03-19T08:26:39Z</time>
      </trkpt>
      <trkpt lat="45.59357" lon="4.37007">
        <ele>550.8</ele>
        <time>2017-03-19T08:26:40Z</time>
      </trkpt>
      <trkpt lat="45.59353" lon="4.37009">
        <ele>550.8</ele>
        <time>2017-03-19T08:26:41Z</time>
      </trkpt>
      <trkpt lat="45.59348" lon="4.37012">
        <ele>550.7</ele>
        <time>2017-03-19T08:26:42Z</time>
      </trkpt>
      <trkpt lat="45.59344" lon="4.37014">
        <ele>550.8</ele>
        <time>2017-03-19T08:26:43Z</time>
      </trkpt>
      <trkpt lat="45.5934" lon="4.37017">
        <ele>550.8</ele>
        <time>2017-03-19T08:26:44Z</time>
      </trkpt>
      <trkpt lat="45.59337" lon="4.37021">
        <ele>551.1</ele>
        <time>2017-03-19T08:26:45Z</time>
      </trkpt>
      <trkpt lat="45.59335" lon="4.37026">
        <ele>551.3</ele>
        <time>2017-03-19T08:26:46Z</time>
      </trkpt>
      <trkpt lat="45.59333" lon="4.37031">
        <ele>551.6</ele>
        <time>2017-03-19T08:26:47Z</time>
      </trkpt>
      <trkpt lat="45.59331" lon="4.37036">
        <ele>551.8</ele>
        <time>2017-03-19T08:26:48Z</time>
      </trkpt>
      <trkpt lat="45.5933" lon="4.37041">
        <ele>552</ele>
        <time>2017-03-19T08:26:49Z</time>
      </trkpt>
      <trkpt lat="45.59327" lon="4.37047">
        <ele>552.2</ele>
        <time>2017-03-19T08:26:50Z</time>
      </trkpt>
      <trkpt lat="45.59325" lon="4.37052">
        <ele>552.4</ele>
        <time>2017-03-19T08:26:51Z</time>
      </trkpt>
      <trkpt lat="45.59323" lon="4.37057">
        <ele>552.4</ele>
        <time>2017-03-19T08:26:52Z</time>
      </trkpt>
      <trkpt lat="45.59321" lon="4.37063">
        <ele>552.2</ele>
        <time>2017-03-19T08:26:53Z</time>
      </trkpt>
      <trkpt lat="45.59318" lon="4.37067">
        <ele>552</ele>
        <time>2017-03-19T08:26:54Z</time>
      </trkpt>
      <trkpt lat="45.59313" lon="4.37072">
        <ele>552.2</ele>
        <time>2017-03-19T08:26:55Z</time>
      </trkpt>
      <trkpt lat="45.59309" lon="4.37074">
        <ele>552.3</ele>
        <time>2017-03-19T08:26:56Z</time>
      </trkpt>
      <trkpt lat="45.59305" lon="4.37076">
        <ele>552.3</ele>
        <time>2017-03-19T08:26:57Z</time>
      </trkpt>
      <trkpt lat="45.59302" lon="4.37079">
        <ele>552.7</ele>
        <time>2017-03-19T08:26:58Z</time>
      </trkpt>
      <trkpt lat="45.59299" lon="4.37082">
        <ele>552.8</ele>
        <time>2017-03-19T08:26:59Z</time>
      </trkpt>
      <trkpt lat="45.59294" lon="4.37083">
        <ele>553</ele>
        <time>2017-03-19T08:27:00Z</time>
      </trkpt>
      <trkpt lat="45.59292" lon="4.37086">
        <ele>553.1</ele>
        <time>2017-03-19T08:27:01Z</time>
      </trkpt>
      <trkpt lat="45.59288" lon="4.37089">
        <ele>553.1</ele>
        <time>2017-03-19T08:27:02Z</time>
      </trkpt>
      <trkpt lat="45.59284" lon="4.37091">
        <ele>553.2</ele>
        <time>2017-03-19T08:27:03Z</time>
      </trkpt>
      <trkpt lat="45.5928" lon="4.37093">
        <ele>553.2</ele>
        <time>2017-03-19T08:27:04Z</time>
      </trkpt>
      <trkpt lat="45.59276" lon="4.37096">
        <ele>553.3</ele>
        <time>2017-03-19T08:27:05Z</time>
      </trkpt>
      <trkpt lat="45.59271" lon="4.37097">
        <ele>553.4</ele>
        <time>2017-03-19T08:27:06Z</time>
      </trkpt>
      <trkpt lat="45.59266" lon="4.37097">
        <ele>553.5</ele>
        <time>2017-03-19T08:27:07Z</time>
      </trkpt>
      <trkpt lat="45.59261" lon="4.37098">
        <ele>553.6</ele>
        <time>2017-03-19T08:27:08Z</time>
      </trkpt>
      <trkpt lat="45.59256" lon="4.37098">
        <ele>553.6</ele>
        <time>2017-03-19T08:27:09Z</time>
      </trkpt>
      <trkpt lat="45.59252" lon="4.37098">
        <ele>553.7</ele>
        <time>2017-03-19T08:27:10Z</time>
      </trkpt>
      <trkpt lat="45.59247" lon="4.37099">
        <ele>553.7</ele>
        <time>2017-03-19T08:27:11Z</time>
      </trkpt>
      <trkpt lat="45.59244" lon="4.37098">
        <ele>553.8</ele>
        <time>2017-03-19T08:27:12Z</time>
      </trkpt>
      <trkpt lat="45.5924" lon="4.37099">
        <ele>553.8</ele>
        <time>2017-03-19T08:27:13Z</time>
      </trkpt>
      <trkpt lat="45.59237" lon="4.371">
        <ele>553.9</ele>
        <time>2017-03-19T08:27:14Z</time>
      </trkpt>
      <trkpt lat="45.59235" lon="4.37104">
        <ele>553.9</ele>
        <time>2017-03-19T08:27:15Z</time>
      </trkpt>
      <trkpt lat="45.59233" lon="4.37108">
        <ele>553.9</ele>
        <time>2017-03-19T08:27:16Z</time>
      </trkpt>
      <trkpt lat="45.59232" lon="4.37114">
        <ele>554</ele>
        <time>2017-03-19T08:27:17Z</time>
      </trkpt>
      <trkpt lat="45.59232" lon="4.37118">
        <ele>554</ele>
        <time>2017-03-19T08:27:18Z</time>
      </trkpt>
      <trkpt lat="45.59231" lon="4.37123">
        <ele>554</ele>
        <time>2017-03-19T08:27:19Z</time>
      </trkpt>
      <trkpt lat="45.59231" lon="4.37127">
        <ele>554</ele>
        <time>2017-03-19T08:27:20Z</time>
      </trkpt>
      <trkpt lat="45.5923" lon="4.37132">
        <ele>554</ele>
        <time>2017-03-19T08:27:21Z</time>
      </trkpt>
      <trkpt lat="45.59229" lon="4.37136">
        <ele>554</ele>
        <time>2017-03-19T08:27:22Z</time>
      </trkpt>
      <trkpt lat="45.59228" lon="4.3714">
        <ele>554</ele>
        <time>2017-03-19T08:27:23Z</time>
      </trkpt>
      <trkpt lat="45.59228" lon="4.37145">
        <ele>554</ele>
        <time>2017-03-19T08:27:24Z</time>
      </trkpt>
      <trkpt lat="45.59226" lon="4.3715">
        <ele>554</ele>
        <time>2017-03-19T08:27:25Z</time>
      </trkpt>
      <trkpt lat="45.59225" lon="4.37155">
        <ele>554</ele>
        <time>2017-03-19T08:27:26Z</time>
      </trkpt>
      <trkpt lat="45.59224" lon="4.3716">
        <ele>554</ele>
        <time>2017-03-19T08:27:27Z</time>
      </trkpt>
      <trkpt lat="45.59222" lon="4.37166">
        <ele>554</ele>
        <time>2017-03-19T08:27:28Z</time>
      </trkpt>
      <trkpt lat="45.5922" lon="4.37171">
        <ele>554</ele>
        <time>2017-03-19T08:27:29Z</time>
      </trkpt>
      <trkpt lat="45.59218" lon="4.37177">
        <ele>553.9</ele>
        <time>2017-03-19T08:27:30Z</time>
      </trkpt>
      <trkpt lat="45.59215" lon="4.37182">
        <ele>553.9</ele>
        <time>2017-03-19T08:27:31Z</time>
      </trkpt>
      <trkpt lat="45.59213" lon="4.37188">
        <ele>553.9</ele>
        <time>2017-03-19T08:27:32Z</time>
      </trkpt>
      <trkpt lat="45.59211" lon="4.37193">
        <ele>553.9</ele>
        <time>2017-03-19T08:27:33Z</time>
      </trkpt>
      <trkpt lat="45.5921" lon="4.37199">
        <ele>553.9</ele>
        <time>2017-03-19T08:27:34Z</time>
      </trkpt>
      <trkpt lat="45.59208" lon="4.37205">
        <ele>553.8</ele>
        <time>2017-03-19T08:27:35Z</time>
      </trkpt>
      <trkpt lat="45.59207" lon="4.37211">
        <ele>553.8</ele>
        <time>2017-03-19T08:27:36Z</time>
      </trkpt>
      <trkpt lat="45.59206" lon="4.37217">
        <ele>553.7</ele>
        <time>2017-03-19T08:27:37Z</time>
      </trkpt>
      <trkpt lat="45.59207" lon="4.37223">
        <ele>553.6</ele>
        <time>2017-03-19T08:27:38Z</time>
      </trkpt>
      <trkpt lat="45.59206" lon="4.37229">
        <ele>553.5</ele>
        <time>2017-03-19T08:27:39Z</time>
      </trkpt>
      <trkpt lat="45.59206" lon="4.37233">
        <ele>553.4</ele>
        <time>2017-03-19T08:27:40Z</time>
      </trkpt>
      <trkpt lat="45.59206" lon="4.37239">
        <ele>553.4</ele>
        <time>2017-03-19T08:27:41Z</time>
      </trkpt>
      <trkpt lat="45.59206" lon="4.37245">
        <ele>553.3</ele>
        <time>2017-03-19T08:27:42Z</time>
      </trkpt>
      <trkpt lat="45.59206" lon="4.37251">
        <ele>553.2</ele>
        <time>2017-03-19T08:27:43Z</time>
      </trkpt>
      <trkpt lat="45.59207" lon="4.37258">
        <ele>553.1</ele>
        <time>2017-03-19T08:27:44Z</time>
      </trkpt>
      <trkpt lat="45.59206" lon="4.37264">
        <ele>553</ele>
        <time>2017-03-19T08:27:45Z</time>
      </trkpt>
      <trkpt lat="45.59207" lon="4.37273">
        <ele>553</ele>
        <time>2017-03-19T08:27:46Z</time>
      </trkpt>
      <trkpt lat="45.59205" lon="4.37278">
        <ele>553</ele>
        <time>2017-03-19T08:27:47Z</time>
      </trkpt>
      <trkpt lat="45.59203" lon="4.37285">
        <ele>553</ele>
        <time>2017-03-19T08:27:48Z</time>
      </trkpt>
      <trkpt lat="45.59203" lon="4.37291">
        <ele>553</ele>
        <time>2017-03-19T08:27:49Z</time>
      </trkpt>
      <trkpt lat="45.59202" lon="4.37296">
        <ele>553</ele>
        <time>2017-03-19T08:27:50Z</time>
      </trkpt>
      <trkpt lat="45.59201" lon="4.37301">
        <ele>553</ele>
        <time>2017-03-19T08:27:51Z</time>
      </trkpt>
      <trkpt lat="45.592" lon="4.37306">
        <ele>553</ele>
        <time>2017-03-19T08:27:52Z</time>
      </trkpt>
      <trkpt lat="45.592" lon="4.37311">
        <ele>553</ele>
        <time>2017-03-19T08:27:53Z</time>
      </trkpt>
      <trkpt lat="45.59198" lon="4.37317">
        <ele>553</ele>
        <time>2017-03-19T08:27:54Z</time>
      </trkpt>
      <trkpt lat="45.59197" lon="4.37323">
        <ele>553</ele>
        <time>2017-03-19T08:27:55Z</time>
      </trkpt>
      <trkpt lat="45.59195" lon="4.37328">
        <ele>553</ele>
        <time>2017-03-19T08:27:56Z</time>
      </trkpt>
      <trkpt lat="45.59192" lon="4.37334">
        <ele>553</ele>
        <time>2017-03-19T08:27:57Z</time>
      </trkpt>
      <trkpt lat="45.5919" lon="4.3734">
        <ele>553</ele>
        <time>2017-03-19T08:27:58Z</time>
      </trkpt>
      <trkpt lat="45.59188" lon="4.37347">
        <ele>553</ele>
        <time>2017-03-19T08:27:59Z</time>
      </trkpt>
      <trkpt lat="45.59186" lon="4.37352">
        <ele>553</ele>
        <time>2017-03-19T08:28:00Z</time>
      </trkpt>
      <trkpt lat="45.59183" lon="4.37359">
        <ele>553</ele>
        <time>2017-03-19T08:28:01Z</time>
      </trkpt>
      <trkpt lat="45.59181" lon="4.37366">
        <ele>553</ele>
        <time>2017-03-19T08:28:02Z</time>
      </trkpt>
      <trkpt lat="45.59178" lon="4.37372">
        <ele>553</ele>
        <time>2017-03-19T08:28:03Z</time>
      </trkpt>
      <trkpt lat="45.59175" lon="4.37377">
        <ele>553</ele>
        <time>2017-03-19T08:28:04Z</time>
      </trkpt>
      <trkpt lat="45.59173" lon="4.37383">
        <ele>553</ele>
        <time>2017-03-19T08:28:05Z</time>
      </trkpt>
      <trkpt lat="45.59171" lon="4.37389">
        <ele>553</ele>
        <time>2017-03-19T08:28:06Z</time>
      </trkpt>
      <trkpt lat="45.59169" lon="4.37396">
        <ele>552.9</ele>
        <time>2017-03-19T08:28:07Z</time>
      </trkpt>
      <trkpt lat="45.59166" lon="4.37402">
        <ele>552.9</ele>
        <time>2017-03-19T08:28:08Z</time>
      </trkpt>
      <trkpt lat="45.59163" lon="4.37409">
        <ele>552.8</ele>
        <time>2017-03-19T08:28:09Z</time>
      </trkpt>
      <trkpt lat="45.5916" lon="4.37415">
        <ele>552.8</ele>
        <time>2017-03-19T08:28:10Z</time>
      </trkpt>
      <trkpt lat="45.59158" lon="4.37422">
        <ele>552.7</ele>
        <time>2017-03-19T08:28:11Z</time>
      </trkpt>
      <trkpt lat="45.59154" lon="4.37427">
        <ele>552.7</ele>
        <time>2017-03-19T08:28:12Z</time>
      </trkpt>
      <trkpt lat="45.59151" lon="4.37433">
        <ele>552.5</ele>
        <time>2017-03-19T08:28:13Z</time>
      </trkpt>
      <trkpt lat="45.59146" lon="4.37441">
        <ele>552.2</ele>
        <time>2017-03-19T08:28:14Z</time>
      </trkpt>
      <trkpt lat="45.59142" lon="4.37449">
        <ele>552</ele>
        <time>2017-03-19T08:28:15Z</time>
      </trkpt>
      <trkpt lat="45.59137" lon="4.37455">
        <ele>551.8</ele>
        <time>2017-03-19T08:28:16Z</time>
      </trkpt>
      <trkpt lat="45.59132" lon="4.37461">
        <ele>551.6</ele>
        <time>2017-03-19T08:28:17Z</time>
      </trkpt>
      <trkpt lat="45.59127" lon="4.37465">
        <ele>551.4</ele>
        <time>2017-03-19T08:28:18Z</time>
      </trkpt>
      <trkpt lat="45.59122" lon="4.3747">
        <ele>551.1</ele>
        <time>2017-03-19T08:28:19Z</time>
      </trkpt>
      <trkpt lat="45.59115" lon="4.37475">
        <ele>550.3</ele>
        <time>2017-03-19T08:28:20Z</time>
      </trkpt>
      <trkpt lat="45.59108" lon="4.37481">
        <ele>549.3</ele>
        <time>2017-03-19T08:28:21Z</time>
      </trkpt>
      <trkpt lat="45.59101" lon="4.37489">
        <ele>548.2</ele>
        <time>2017-03-19T08:28:22Z</time>
      </trkpt>
      <trkpt lat="45.59094" lon="4.37496">
        <ele>547.1</ele>
        <time>2017-03-19T08:28:23Z</time>
      </trkpt>
      <trkpt lat="45.59085" lon="4.37503">
        <ele>546.1</ele>
        <time>2017-03-19T08:28:24Z</time>
      </trkpt>
      <trkpt lat="45.59077" lon="4.37513">
        <ele>545.4</ele>
        <time>2017-03-19T08:28:25Z</time>
      </trkpt>
      <trkpt lat="45.59071" lon="4.37522">
        <ele>545</ele>
        <time>2017-03-19T08:28:26Z</time>
      </trkpt>
      <trkpt lat="45.59064" lon="4.3753">
        <ele>544.7</ele>
        <time>2017-03-19T08:28:27Z</time>
      </trkpt>
      <trkpt lat="45.59056" lon="4.37539">
        <ele>544.3</ele>
        <time>2017-03-19T08:28:28Z</time>
      </trkpt>
      <trkpt lat="45.59049" lon="4.37546">
        <ele>544</ele>
        <time>2017-03-19T08:28:29Z</time>
      </trkpt>
      <trkpt lat="45.59042" lon="4.37553">
        <ele>543.4</ele>
        <time>2017-03-19T08:28:30Z</time>
      </trkpt>
      <trkpt lat="45.59035" lon="4.37561">
        <ele>542.6</ele>
        <time>2017-03-19T08:28:31Z</time>
      </trkpt>
      <trkpt lat="45.59027" lon="4.37568">
        <ele>541.9</ele>
        <time>2017-03-19T08:28:32Z</time>
      </trkpt>
      <trkpt lat="45.59021" lon="4.37575">
        <ele>541.2</ele>
        <time>2017-03-19T08:28:33Z</time>
      </trkpt>
      <trkpt lat="45.59013" lon="4.37581">
        <ele>540.6</ele>
        <time>2017-03-19T08:28:34Z</time>
      </trkpt>
      <trkpt lat="45.59006" lon="4.37589">
        <ele>540</ele>
        <time>2017-03-19T08:28:35Z</time>
      </trkpt>
      <trkpt lat="45.59" lon="4.37598">
        <ele>539.3</ele>
        <time>2017-03-19T08:28:36Z</time>
      </trkpt>
      <trkpt lat="45.58994" lon="4.37607">
        <ele>538.7</ele>
        <time>2017-03-19T08:28:37Z</time>
      </trkpt>
      <trkpt lat="45.58988" lon="4.37616">
        <ele>538</ele>
        <time>2017-03-19T08:28:38Z</time>
      </trkpt>
      <trkpt lat="45.58982" lon="4.37625">
        <ele>537.6</ele>
        <time>2017-03-19T08:28:39Z</time>
      </trkpt>
      <trkpt lat="45.58977" lon="4.37634">
        <ele>537.2</ele>
        <time>2017-03-19T08:28:40Z</time>
      </trkpt>
      <trkpt lat="45.58971" lon="4.37643">
        <ele>536.8</ele>
        <time>2017-03-19T08:28:41Z</time>
      </trkpt>
      <trkpt lat="45.58965" lon="4.37653">
        <ele>536.3</ele>
        <time>2017-03-19T08:28:42Z</time>
      </trkpt>
      <trkpt lat="45.5896" lon="4.37661">
        <ele>536</ele>
        <time>2017-03-19T08:28:43Z</time>
      </trkpt>
      <trkpt lat="45.58954" lon="4.37669">
        <ele>535.6</ele>
        <time>2017-03-19T08:28:44Z</time>
      </trkpt>
      <trkpt lat="45.58948" lon="4.37679">
        <ele>535.3</ele>
        <time>2017-03-19T08:28:45Z</time>
      </trkpt>
      <trkpt lat="45.58944" lon="4.37689">
        <ele>535</ele>
        <time>2017-03-19T08:28:46Z</time>
      </trkpt>
      <trkpt lat="45.58938" lon="4.37697">
        <ele>534.7</ele>
        <time>2017-03-19T08:28:47Z</time>
      </trkpt>
      <trkpt lat="45.58932" lon="4.37705">
        <ele>534.4</ele>
        <time>2017-03-19T08:28:48Z</time>
      </trkpt>
      <trkpt lat="45.58926" lon="4.37714">
        <ele>533.9</ele>
        <time>2017-03-19T08:28:49Z</time>
      </trkpt>
      <trkpt lat="45.5892" lon="4.37724">
        <ele>533.5</ele>
        <time>2017-03-19T08:28:50Z</time>
      </trkpt>
      <trkpt lat="45.58914" lon="4.37734">
        <ele>532.9</ele>
        <time>2017-03-19T08:28:51Z</time>
      </trkpt>
      <trkpt lat="45.58908" lon="4.37744">
        <ele>532.2</ele>
        <time>2017-03-19T08:28:52Z</time>
      </trkpt>
      <trkpt lat="45.58902" lon="4.37754">
        <ele>531.5</ele>
        <time>2017-03-19T08:28:53Z</time>
      </trkpt>
      <trkpt lat="45.58896" lon="4.37763">
        <ele>530.9</ele>
        <time>2017-03-19T08:28:54Z</time>
      </trkpt>
      <trkpt lat="45.58889" lon="4.3777">
        <ele>530.5</ele>
        <time>2017-03-19T08:28:55Z</time>
      </trkpt>
      <trkpt lat="45.58883" lon="4.37776">
        <ele>530.3</ele>
        <time>2017-03-19T08:28:56Z</time>
      </trkpt>
      <trkpt lat="45.58878" lon="4.37782">
        <ele>530.1</ele>
        <time>2017-03-19T08:28:57Z</time>
      </trkpt>
      <trkpt lat="45.58873" lon="4.37788">
        <ele>529.9</ele>
        <time>2017-03-19T08:28:58Z</time>
      </trkpt>
      <trkpt lat="45.58868" lon="4.37795">
        <ele>529.7</ele>
        <time>2017-03-19T08:28:59Z</time>
      </trkpt>
      <trkpt lat="45.58865" lon="4.37803">
        <ele>529.7</ele>
        <time>2017-03-19T08:29:00Z</time>
      </trkpt>
      <trkpt lat="45.58862" lon="4.37809">
        <ele>529.7</ele>
        <time>2017-03-19T08:29:01Z</time>
      </trkpt>
      <trkpt lat="45.58859" lon="4.37814">
        <ele>529.8</ele>
        <time>2017-03-19T08:29:02Z</time>
      </trkpt>
      <trkpt lat="45.58856" lon="4.3782">
        <ele>529.9</ele>
        <time>2017-03-19T08:29:03Z</time>
      </trkpt>
      <trkpt lat="45.58853" lon="4.37823">
        <ele>530</ele>
        <time>2017-03-19T08:29:04Z</time>
      </trkpt>
      <trkpt lat="45.58848" lon="4.37824">
        <ele>530.3</ele>
        <time>2017-03-19T08:29:05Z</time>
      </trkpt>
      <trkpt lat="45.58844" lon="4.37824">
        <ele>530.5</ele>
        <time>2017-03-19T08:29:06Z</time>
      </trkpt>
      <trkpt lat="45.5884" lon="4.37826">
        <ele>530.7</ele>
        <time>2017-03-19T08:29:07Z</time>
      </trkpt>
      <trkpt lat="45.58836" lon="4.37826">
        <ele>530.9</ele>
        <time>2017-03-19T08:29:08Z</time>
      </trkpt>
      <trkpt lat="45.58833" lon="4.37825">
        <ele>531.2</ele>
        <time>2017-03-19T08:29:09Z</time>
      </trkpt>
      <trkpt lat="45.58829" lon="4.37826">
        <ele>531.5</ele>
        <time>2017-03-19T08:29:10Z</time>
      </trkpt>
      <trkpt lat="45.58826" lon="4.37825">
        <ele>531.9</ele>
        <time>2017-03-19T08:29:11Z</time>
      </trkpt>
      <trkpt lat="45.58823" lon="4.37825">
        <ele>532.2</ele>
        <time>2017-03-19T08:29:12Z</time>
      </trkpt>
      <trkpt lat="45.5882" lon="4.37825">
        <ele>532.6</ele>
        <time>2017-03-19T08:29:13Z</time>
      </trkpt>
      <trkpt lat="45.58816" lon="4.37825">
        <ele>533.1</ele>
        <time>2017-03-19T08:29:15Z</time>
      </trkpt>
      <trkpt lat="45.58813" lon="4.37825">
        <ele>533.4</ele>
        <time>2017-03-19T08:29:17Z</time>
      </trkpt>
      <trkpt lat="45.58809" lon="4.37828">
        <ele>533.8</ele>
        <time>2017-03-19T08:29:19Z</time>
      </trkpt>
      <trkpt lat="45.5881" lon="4.37835">
        <ele>534.3</ele>
        <time>2017-03-19T08:29:21Z</time>
      </trkpt>
      <trkpt lat="45.58811" lon="4.37839">
        <ele>534.2</ele>
        <time>2017-03-19T08:29:22Z</time>
      </trkpt>
      <trkpt lat="45.58813" lon="4.37843">
        <ele>534.1</ele>
        <time>2017-03-19T08:29:23Z</time>
      </trkpt>
      <trkpt lat="45.58813" lon="4.3785">
        <ele>533.9</ele>
        <time>2017-03-19T08:29:25Z</time>
      </trkpt>
      <trkpt lat="45.58812" lon="4.37856">
        <ele>533.7</ele>
        <time>2017-03-19T08:29:27Z</time>
      </trkpt>
      <trkpt lat="45.58809" lon="4.37861">
        <ele>534.3</ele>
        <time>2017-03-19T08:29:29Z</time>
      </trkpt>
      <trkpt lat="45.58804" lon="4.37864">
        <ele>534.8</ele>
        <time>2017-03-19T08:29:31Z</time>
      </trkpt>
      <trkpt lat="45.58799" lon="4.37866">
        <ele>535.8</ele>
        <time>2017-03-19T08:29:33Z</time>
      </trkpt>
      <trkpt lat="45.58795" lon="4.37869">
        <ele>536.4</ele>
        <time>2017-03-19T08:29:35Z</time>
      </trkpt>
      <trkpt lat="45.58791" lon="4.37873">
        <ele>537.7</ele>
        <time>2017-03-19T08:29:37Z</time>
      </trkpt>
      <trkpt lat="45.58787" lon="4.37876">
        <ele>538.6</ele>
        <time>2017-03-19T08:29:39Z</time>
      </trkpt>
      <trkpt lat="45.58783" lon="4.37879">
        <ele>539.4</ele>
        <time>2017-03-19T08:29:41Z</time>
      </trkpt>
      <trkpt lat="45.5878" lon="4.37883">
        <ele>540.2</ele>
        <time>2017-03-19T08:29:43Z</time>
      </trkpt>
      <trkpt lat="45.58777" lon="4.37886">
        <ele>540.9</ele>
        <time>2017-03-19T08:29:45Z</time>
      </trkpt>
      <trkpt lat="45.58774" lon="4.37891">
        <ele>541.5</ele>
        <time>2017-03-19T08:29:47Z</time>
      </trkpt>
      <trkpt lat="45.58771" lon="4.37896">
        <ele>542</ele>
        <time>2017-03-19T08:29:49Z</time>
      </trkpt>
      <trkpt lat="45.58768" lon="4.379">
        <ele>542.5</ele>
        <time>2017-03-19T08:29:51Z</time>
      </trkpt>
      <trkpt lat="45.58765" lon="4.37904">
        <ele>543.1</ele>
        <time>2017-03-19T08:29:53Z</time>
      </trkpt>
      <trkpt lat="45.58762" lon="4.37908">
        <ele>543.5</ele>
        <time>2017-03-19T08:29:55Z</time>
      </trkpt>
      <trkpt lat="45.5876" lon="4.37911">
        <ele>543.9</ele>
        <time>2017-03-19T08:29:57Z</time>
      </trkpt>
      <trkpt lat="45.58758" lon="4.37915">
        <ele>544.2</ele>
        <time>2017-03-19T08:30:00Z</time>
      </trkpt>
      <trkpt lat="45.58755" lon="4.37916">
        <ele>544.7</ele>
        <time>2017-03-19T08:30:02Z</time>
      </trkpt>
      <trkpt lat="45.58752" lon="4.37917">
        <ele>545</ele>
        <time>2017-03-19T08:30:03Z</time>
      </trkpt>
      <trkpt lat="45.58748" lon="4.37919">
        <ele>545.5</ele>
        <time>2017-03-19T08:30:05Z</time>
      </trkpt>
      <trkpt lat="45.58743" lon="4.37921">
        <ele>546.3</ele>
        <time>2017-03-19T08:30:07Z</time>
      </trkpt>
      <trkpt lat="45.58739" lon="4.37921">
        <ele>546.7</ele>
        <time>2017-03-19T08:30:09Z</time>
      </trkpt>
      <trkpt lat="45.58735" lon="4.37921">
        <ele>547.1</ele>
        <time>2017-03-19T08:30:11Z</time>
      </trkpt>
      <trkpt lat="45.58731" lon="4.37921">
        <ele>547.5</ele>
        <time>2017-03-19T08:30:13Z</time>
      </trkpt>
      <trkpt lat="45.58728" lon="4.37922">
        <ele>547.8</ele>
        <time>2017-03-19T08:30:15Z</time>
      </trkpt>
      <trkpt lat="45.58725" lon="4.37922">
        <ele>548</ele>
        <time>2017-03-19T08:30:17Z</time>
      </trkpt>
      <trkpt lat="45.5872" lon="4.37923">
        <ele>548.1</ele>
        <time>2017-03-19T08:30:19Z</time>
      </trkpt>
      <trkpt lat="45.58716" lon="4.37924">
        <ele>548.4</ele>
        <time>2017-03-19T08:30:21Z</time>
      </trkpt>
      <trkpt lat="45.58711" lon="4.37925">
        <ele>548.6</ele>
        <time>2017-03-19T08:30:23Z</time>
      </trkpt>
      <trkpt lat="45.58707" lon="4.37925">
        <ele>549.1</ele>
        <time>2017-03-19T08:30:25Z</time>
      </trkpt>
      <trkpt lat="45.58704" lon="4.37924">
        <ele>549.4</ele>
        <time>2017-03-19T08:30:27Z</time>
      </trkpt>
      <trkpt lat="45.587" lon="4.37923">
        <ele>549.7</ele>
        <time>2017-03-19T08:30:29Z</time>
      </trkpt>
      <trkpt lat="45.58695" lon="4.37922">
        <ele>549.9</ele>
        <time>2017-03-19T08:30:31Z</time>
      </trkpt>
      <trkpt lat="45.58691" lon="4.37922">
        <ele>550.5</ele>
        <time>2017-03-19T08:30:33Z</time>
      </trkpt>
      <trkpt lat="45.58686" lon="4.37921">
        <ele>551.4</ele>
        <time>2017-03-19T08:30:35Z</time>
      </trkpt>
      <trkpt lat="45.58682" lon="4.37919">
        <ele>552.3</ele>
        <time>2017-03-19T08:30:37Z</time>
      </trkpt>
      <trkpt lat="45.58679" lon="4.37917">
        <ele>553.2</ele>
        <time>2017-03-19T08:30:39Z</time>
      </trkpt>
      <trkpt lat="45.58676" lon="4.37914">
        <ele>553.8</ele>
        <time>2017-03-19T08:30:41Z</time>
      </trkpt>
      <trkpt lat="45.58671" lon="4.37912">
        <ele>555.2</ele>
        <time>2017-03-19T08:30:43Z</time>
      </trkpt>
      <trkpt lat="45.58667" lon="4.37911">
        <ele>555.6</ele>
        <time>2017-03-19T08:30:45Z</time>
      </trkpt>
      <trkpt lat="45.58663" lon="4.37909">
        <ele>556</ele>
        <time>2017-03-19T08:30:47Z</time>
      </trkpt>
      <trkpt lat="45.5866" lon="4.37905">
        <ele>556.9</ele>
        <time>2017-03-19T08:30:49Z</time>
      </trkpt>
      <trkpt lat="45.58656" lon="4.37902">
        <ele>558</ele>
        <time>2017-03-19T08:30:51Z</time>
      </trkpt>
      <trkpt lat="45.58652" lon="4.379">
        <ele>558.3</ele>
        <time>2017-03-19T08:30:53Z</time>
      </trkpt>
      <trkpt lat="45.58648" lon="4.37898">
        <ele>559</ele>
        <time>2017-03-19T08:30:55Z</time>
      </trkpt>
      <trkpt lat="45.58644" lon="4.37895">
        <ele>559.4</ele>
        <time>2017-03-19T08:30:57Z</time>
      </trkpt>
      <trkpt lat="45.5864" lon="4.37893">
        <ele>559.9</ele>
        <time>2017-03-19T08:30:59Z</time>
      </trkpt>
      <trkpt lat="45.58637" lon="4.3789">
        <ele>560.4</ele>
        <time>2017-03-19T08:31:01Z</time>
      </trkpt>
      <trkpt lat="45.58634" lon="4.37887">
        <ele>560.6</ele>
        <time>2017-03-19T08:31:03Z</time>
      </trkpt>
      <trkpt lat="45.5863" lon="4.37884">
        <ele>561.2</ele>
        <time>2017-03-19T08:31:05Z</time>
      </trkpt>
      <trkpt lat="45.58627" lon="4.37882">
        <ele>561.8</ele>
        <time>2017-03-19T08:31:07Z</time>
      </trkpt>
      <trkpt lat="45.58624" lon="4.37879">
        <ele>562.2</ele>
        <time>2017-03-19T08:31:09Z</time>
      </trkpt>
      <trkpt lat="45.58621" lon="4.37877">
        <ele>562.8</ele>
        <time>2017-03-19T08:31:11Z</time>
      </trkpt>
      <trkpt lat="45.58618" lon="4.37875">
        <ele>563.2</ele>
        <time>2017-03-19T08:31:13Z</time>
      </trkpt>
      <trkpt lat="45.58615" lon="4.37874">
        <ele>563.6</ele>
        <time>2017-03-19T08:31:15Z</time>
      </trkpt>
      <trkpt lat="45.58612" lon="4.37872">
        <ele>564.2</ele>
        <time>2017-03-19T08:31:17Z</time>
      </trkpt>
      <trkpt lat="45.58608" lon="4.3787">
        <ele>564.5</ele>
        <time>2017-03-19T08:31:19Z</time>
      </trkpt>
      <trkpt lat="45.58605" lon="4.37868">
        <ele>565.3</ele>
        <time>2017-03-19T08:31:21Z</time>
      </trkpt>
      <trkpt lat="45.58602" lon="4.37866">
        <ele>565.7</ele>
        <time>2017-03-19T08:31:23Z</time>
      </trkpt>
      <trkpt lat="45.58598" lon="4.37864">
        <ele>566.2</ele>
        <time>2017-03-19T08:31:25Z</time>
      </trkpt>
      <trkpt lat="45.58595" lon="4.37863">
        <ele>566.6</ele>
        <time>2017-03-19T08:31:27Z</time>
      </trkpt>
      <trkpt lat="45.58592" lon="4.37862">
        <ele>566.9</ele>
        <time>2017-03-19T08:31:29Z</time>
      </trkpt>
      <trkpt lat="45.58588" lon="4.37861">
        <ele>567.2</ele>
        <time>2017-03-19T08:31:32Z</time>
      </trkpt>
      <trkpt lat="45.58584" lon="4.37862">
        <ele>567.7</ele>
        <time>2017-03-19T08:31:34Z</time>
      </trkpt>
      <trkpt lat="45.5858" lon="4.37862">
        <ele>568</ele>
        <time>2017-03-19T08:31:36Z</time>
      </trkpt>
      <trkpt lat="45.58576" lon="4.37862">
        <ele>568.2</ele>
        <time>2017-03-19T08:31:38Z</time>
      </trkpt>
      <trkpt lat="45.58571" lon="4.37862">
        <ele>568.8</ele>
        <time>2017-03-19T08:31:40Z</time>
      </trkpt>
      <trkpt lat="45.58567" lon="4.37862">
        <ele>569</ele>
        <time>2017-03-19T08:31:42Z</time>
      </trkpt>
      <trkpt lat="45.58562" lon="4.37863">
        <ele>569.5</ele>
        <time>2017-03-19T08:31:44Z</time>
      </trkpt>
      <trkpt lat="45.58558" lon="4.37864">
        <ele>569.7</ele>
        <time>2017-03-19T08:31:46Z</time>
      </trkpt>
      <trkpt lat="45.58555" lon="4.37866">
        <ele>569.5</ele>
        <time>2017-03-19T08:31:48Z</time>
      </trkpt>
      <trkpt lat="45.58551" lon="4.37866">
        <ele>569.7</ele>
        <time>2017-03-19T08:31:50Z</time>
      </trkpt>
      <trkpt lat="45.58548" lon="4.37865">
        <ele>570.4</ele>
        <time>2017-03-19T08:31:52Z</time>
      </trkpt>
      <trkpt lat="45.58545" lon="4.37866">
        <ele>570.2</ele>
        <time>2017-03-19T08:31:54Z</time>
      </trkpt>
      <trkpt lat="45.58541" lon="4.37867">
        <ele>570.5</ele>
        <time>2017-03-19T08:31:56Z</time>
      </trkpt>
      <trkpt lat="45.58537" lon="4.37868">
        <ele>570.7</ele>
        <time>2017-03-19T08:31:58Z</time>
      </trkpt>
      <trkpt lat="45.58533" lon="4.37869">
        <ele>571</ele>
        <time>2017-03-19T08:32:00Z</time>
      </trkpt>
      <trkpt lat="45.5853" lon="4.37869">
        <ele>571.5</ele>
        <time>2017-03-19T08:32:02Z</time>
      </trkpt>
      <trkpt lat="45.58526" lon="4.3787">
        <ele>571.8</ele>
        <time>2017-03-19T08:32:04Z</time>
      </trkpt>
      <trkpt lat="45.58523" lon="4.3787">
        <ele>571.7</ele>
        <time>2017-03-19T08:32:06Z</time>
      </trkpt>
      <trkpt lat="45.5852" lon="4.3787">
        <ele>572.1</ele>
        <time>2017-03-19T08:32:08Z</time>
      </trkpt>
      <trkpt lat="45.58517" lon="4.3787">
        <ele>572.6</ele>
        <time>2017-03-19T08:32:10Z</time>
      </trkpt>
      <trkpt lat="45.58513" lon="4.37871">
        <ele>573.1</ele>
        <time>2017-03-19T08:32:12Z</time>
      </trkpt>
      <trkpt lat="45.58509" lon="4.37871">
        <ele>574.2</ele>
        <time>2017-03-19T08:32:14Z</time>
      </trkpt>
      <trkpt lat="45.58506" lon="4.37872">
        <ele>574.8</ele>
        <time>2017-03-19T08:32:16Z</time>
      </trkpt>
      <trkpt lat="45.58501" lon="4.37873">
        <ele>575.3</ele>
        <time>2017-03-19T08:32:18Z</time>
      </trkpt>
      <trkpt lat="45.58497" lon="4.37874">
        <ele>576.1</ele>
        <time>2017-03-19T08:32:20Z</time>
      </trkpt>
      <trkpt lat="45.58493" lon="4.37875">
        <ele>576.7</ele>
        <time>2017-03-19T08:32:22Z</time>
      </trkpt>
      <trkpt lat="45.58489" lon="4.37875">
        <ele>577.4</ele>
        <time>2017-03-19T08:32:24Z</time>
      </trkpt>
      <trkpt lat="45.58485" lon="4.37875">
        <ele>578.7</ele>
        <time>2017-03-19T08:32:26Z</time>
      </trkpt>
      <trkpt lat="45.58482" lon="4.37875">
        <ele>579.4</ele>
        <time>2017-03-19T08:32:28Z</time>
      </trkpt>
      <trkpt lat="45.58479" lon="4.37876">
        <ele>580.1</ele>
        <time>2017-03-19T08:32:30Z</time>
      </trkpt>
      <trkpt lat="45.58475" lon="4.37877">
        <ele>580.1</ele>
        <time>2017-03-19T08:32:33Z</time>
      </trkpt>
      <trkpt lat="45.58471" lon="4.37879">
        <ele>580</ele>
        <time>2017-03-19T08:32:35Z</time>
      </trkpt>
      <trkpt lat="45.58468" lon="4.37881">
        <ele>580</ele>
        <time>2017-03-19T08:32:37Z</time>
      </trkpt>
      <trkpt lat="45.58464" lon="4.37882">
        <ele>580</ele>
        <time>2017-03-19T08:32:39Z</time>
      </trkpt>
      <trkpt lat="45.5846" lon="4.37884">
        <ele>580</ele>
        <time>2017-03-19T08:32:42Z</time>
      </trkpt>
      <trkpt lat="45.58457" lon="4.37885">
        <ele>580</ele>
        <time>2017-03-19T08:32:44Z</time>
      </trkpt>
      <trkpt lat="45.58454" lon="4.37885">
        <ele>580</ele>
        <time>2017-03-19T08:32:46Z</time>
      </trkpt>
      <trkpt lat="45.58451" lon="4.37886">
        <ele>580.6</ele>
        <time>2017-03-19T08:32:48Z</time>
      </trkpt>
      <trkpt lat="45.58448" lon="4.37887">
        <ele>581.1</ele>
        <time>2017-03-19T08:32:50Z</time>
      </trkpt>
      <trkpt lat="45.58445" lon="4.37888">
        <ele>581.6</ele>
        <time>2017-03-19T08:32:52Z</time>
      </trkpt>
      <trkpt lat="45.58441" lon="4.37888">
        <ele>582.1</ele>
        <time>2017-03-19T08:32:54Z</time>
      </trkpt>
      <trkpt lat="45.58438" lon="4.37888">
        <ele>582.6</ele>
        <time>2017-03-19T08:32:56Z</time>
      </trkpt>
      <trkpt lat="45.58434" lon="4.37887">
        <ele>583.1</ele>
        <time>2017-03-19T08:32:58Z</time>
      </trkpt>
      <trkpt lat="45.58431" lon="4.37887">
        <ele>583.6</ele>
        <time>2017-03-19T08:33:00Z</time>
      </trkpt>
      <trkpt lat="45.58428" lon="4.37887">
        <ele>584.8</ele>
        <time>2017-03-19T08:33:02Z</time>
      </trkpt>
      <trkpt lat="45.58424" lon="4.37887">
        <ele>585.3</ele>
        <time>2017-03-19T08:33:04Z</time>
      </trkpt>
      <trkpt lat="45.58421" lon="4.37888">
        <ele>585.8</ele>
        <time>2017-03-19T08:33:06Z</time>
      </trkpt>
      <trkpt lat="45.58418" lon="4.37889">
        <ele>586.3</ele>
        <time>2017-03-19T08:33:08Z</time>
      </trkpt>
      <trkpt lat="45.58414" lon="4.37889">
        <ele>586.8</ele>
        <time>2017-03-19T08:33:10Z</time>
      </trkpt>
      <trkpt lat="45.5841" lon="4.37891">
        <ele>587.4</ele>
        <time>2017-03-19T08:33:12Z</time>
      </trkpt>
      <trkpt lat="45.58407" lon="4.37894">
        <ele>588.6</ele>
        <time>2017-03-19T08:33:14Z</time>
      </trkpt>
      <trkpt lat="45.58403" lon="4.37898">
        <ele>589.2</ele>
        <time>2017-03-19T08:33:16Z</time>
      </trkpt>
      <trkpt lat="45.58399" lon="4.37904">
        <ele>589.6</ele>
        <time>2017-03-19T08:33:18Z</time>
      </trkpt>
      <trkpt lat="45.58397" lon="4.37907">
        <ele>590.3</ele>
        <time>2017-03-19T08:33:19Z</time>
      </trkpt>
      <trkpt lat="45.58395" lon="4.3791">
        <ele>590.8</ele>
        <time>2017-03-19T08:33:20Z</time>
      </trkpt>
      <trkpt lat="45.58392" lon="4.37912">
        <ele>590.7</ele>
        <time>2017-03-19T08:33:21Z</time>
      </trkpt>
      <trkpt lat="45.5839" lon="4.37916">
        <ele>591.1</ele>
        <time>2017-03-19T08:33:22Z</time>
      </trkpt>
      <trkpt lat="45.58388" lon="4.37919">
        <ele>591.3</ele>
        <time>2017-03-19T08:33:23Z</time>
      </trkpt>
      <trkpt lat="45.58387" lon="4.37923">
        <ele>591</ele>
        <time>2017-03-19T08:33:24Z</time>
      </trkpt>
      <trkpt lat="45.58385" lon="4.37926">
        <ele>591</ele>
        <time>2017-03-19T08:33:25Z</time>
      </trkpt>
      <trkpt lat="45.58383" lon="4.3793">
        <ele>591.5</ele>
        <time>2017-03-19T08:33:26Z</time>
      </trkpt>
      <trkpt lat="45.58381" lon="4.37933">
        <ele>591.1</ele>
        <time>2017-03-19T08:33:27Z</time>
      </trkpt>
      <trkpt lat="45.5838" lon="4.37936">
        <ele>591.2</ele>
        <time>2017-03-19T08:33:28Z</time>
      </trkpt>
      <trkpt lat="45.58378" lon="4.37939">
        <ele>590.9</ele>
        <time>2017-03-19T08:33:29Z</time>
      </trkpt>
      <trkpt lat="45.58377" lon="4.37943">
        <ele>591.2</ele>
        <time>2017-03-19T08:33:30Z</time>
      </trkpt>
      <trkpt lat="45.58374" lon="4.37949">
        <ele>591.6</ele>
        <time>2017-03-19T08:33:32Z</time>
      </trkpt>
      <trkpt lat="45.58372" lon="4.37953">
        <ele>591.4</ele>
        <time>2017-03-19T08:33:33Z</time>
      </trkpt>
      <trkpt lat="45.5837" lon="4.37958">
        <ele>591.7</ele>
        <time>2017-03-19T08:33:35Z</time>
      </trkpt>
      <trkpt lat="45.58368" lon="4.37962">
        <ele>591.5</ele>
        <time>2017-03-19T08:33:37Z</time>
      </trkpt>
      <trkpt lat="45.58366" lon="4.37967">
        <ele>591.7</ele>
        <time>2017-03-19T08:33:39Z</time>
      </trkpt>
      <trkpt lat="45.58364" lon="4.37971">
        <ele>591.8</ele>
        <time>2017-03-19T08:33:41Z</time>
      </trkpt>
      <trkpt lat="45.58361" lon="4.37975">
        <ele>591.8</ele>
        <time>2017-03-19T08:33:43Z</time>
      </trkpt>
      <trkpt lat="45.58358" lon="4.3798">
        <ele>591.9</ele>
        <time>2017-03-19T08:33:45Z</time>
      </trkpt>
      <trkpt lat="45.58355" lon="4.37985">
        <ele>592.1</ele>
        <time>2017-03-19T08:33:47Z</time>
      </trkpt>
      <trkpt lat="45.58352" lon="4.37989">
        <ele>592.2</ele>
        <time>2017-03-19T08:33:49Z</time>
      </trkpt>
      <trkpt lat="45.58348" lon="4.37994">
        <ele>592.5</ele>
        <time>2017-03-19T08:33:51Z</time>
      </trkpt>
      <trkpt lat="45.58344" lon="4.37997">
        <ele>592.7</ele>
        <time>2017-03-19T08:33:53Z</time>
      </trkpt>
      <trkpt lat="45.5834" lon="4.38001">
        <ele>593.3</ele>
        <time>2017-03-19T08:33:55Z</time>
      </trkpt>
      <trkpt lat="45.58338" lon="4.38004">
        <ele>593.7</ele>
        <time>2017-03-19T08:33:57Z</time>
      </trkpt>
      <trkpt lat="45.58334" lon="4.38007">
        <ele>594.2</ele>
        <time>2017-03-19T08:33:59Z</time>
      </trkpt>
      <trkpt lat="45.58331" lon="4.38011">
        <ele>594.4</ele>
        <time>2017-03-19T08:34:01Z</time>
      </trkpt>
      <trkpt lat="45.58327" lon="4.38015">
        <ele>595.1</ele>
        <time>2017-03-19T08:34:03Z</time>
      </trkpt>
      <trkpt lat="45.58323" lon="4.38019">
        <ele>595.7</ele>
        <time>2017-03-19T08:34:05Z</time>
      </trkpt>
      <trkpt lat="45.58319" lon="4.38022">
        <ele>596.8</ele>
        <time>2017-03-19T08:34:07Z</time>
      </trkpt>
      <trkpt lat="45.58316" lon="4.38026">
        <ele>597.4</ele>
        <time>2017-03-19T08:34:09Z</time>
      </trkpt>
      <trkpt lat="45.58312" lon="4.3803">
        <ele>598</ele>
        <time>2017-03-19T08:34:11Z</time>
      </trkpt>
      <trkpt lat="45.58308" lon="4.38035">
        <ele>598.4</ele>
        <time>2017-03-19T08:34:13Z</time>
      </trkpt>
      <trkpt lat="45.58305" lon="4.3804">
        <ele>599.1</ele>
        <time>2017-03-19T08:34:15Z</time>
      </trkpt>
      <trkpt lat="45.58301" lon="4.38045">
        <ele>599.5</ele>
        <time>2017-03-19T08:34:17Z</time>
      </trkpt>
      <trkpt lat="45.58297" lon="4.38048">
        <ele>600</ele>
        <time>2017-03-19T08:34:19Z</time>
      </trkpt>
      <trkpt lat="45.58294" lon="4.38052">
        <ele>600.4</ele>
        <time>2017-03-19T08:34:21Z</time>
      </trkpt>
      <trkpt lat="45.5829" lon="4.38056">
        <ele>600.7</ele>
        <time>2017-03-19T08:34:23Z</time>
      </trkpt>
      <trkpt lat="45.58286" lon="4.38061">
        <ele>601.1</ele>
        <time>2017-03-19T08:34:25Z</time>
      </trkpt>
      <trkpt lat="45.58282" lon="4.38065">
        <ele>601.1</ele>
        <time>2017-03-19T08:34:27Z</time>
      </trkpt>
      <trkpt lat="45.58278" lon="4.38069">
        <ele>601</ele>
        <time>2017-03-19T08:34:29Z</time>
      </trkpt>
      <trkpt lat="45.58274" lon="4.38074">
        <ele>600.6</ele>
        <time>2017-03-19T08:34:31Z</time>
      </trkpt>
      <trkpt lat="45.58271" lon="4.38077">
        <ele>600.3</ele>
        <time>2017-03-19T08:34:32Z</time>
      </trkpt>
      <trkpt lat="45.58269" lon="4.38079">
        <ele>600.3</ele>
        <time>2017-03-19T08:34:33Z</time>
      </trkpt>
      <trkpt lat="45.58266" lon="4.38082">
        <ele>600.1</ele>
        <time>2017-03-19T08:34:34Z</time>
      </trkpt>
      <trkpt lat="45.58263" lon="4.38085">
        <ele>599.9</ele>
        <time>2017-03-19T08:34:35Z</time>
      </trkpt>
      <trkpt lat="45.58261" lon="4.38088">
        <ele>599.9</ele>
        <time>2017-03-19T08:34:36Z</time>
      </trkpt>
      <trkpt lat="45.58258" lon="4.3809">
        <ele>599.8</ele>
        <time>2017-03-19T08:34:37Z</time>
      </trkpt>
      <trkpt lat="45.58255" lon="4.38093">
        <ele>599.7</ele>
        <time>2017-03-19T08:34:38Z</time>
      </trkpt>
      <trkpt lat="45.58252" lon="4.38096">
        <ele>599.7</ele>
        <time>2017-03-19T08:34:39Z</time>
      </trkpt>
      <trkpt lat="45.58249" lon="4.38098">
        <ele>599.5</ele>
        <time>2017-03-19T08:34:40Z</time>
      </trkpt>
      <trkpt lat="45.58246" lon="4.381">
        <ele>599.5</ele>
        <time>2017-03-19T08:34:41Z</time>
      </trkpt>
      <trkpt lat="45.58243" lon="4.38102">
        <ele>599.2</ele>
        <time>2017-03-19T08:34:42Z</time>
      </trkpt>
      <trkpt lat="45.5824" lon="4.38104">
        <ele>599.2</ele>
        <time>2017-03-19T08:34:43Z</time>
      </trkpt>
      <trkpt lat="45.58237" lon="4.38105">
        <ele>599.2</ele>
        <time>2017-03-19T08:34:44Z</time>
      </trkpt>
      <trkpt lat="45.58234" lon="4.38106">
        <ele>599</ele>
        <time>2017-03-19T08:34:45Z</time>
      </trkpt>
      <trkpt lat="45.58231" lon="4.38107">
        <ele>599</ele>
        <time>2017-03-19T08:34:46Z</time>
      </trkpt>
      <trkpt lat="45.58229" lon="4.38108">
        <ele>599</ele>
        <time>2017-03-19T08:34:47Z</time>
      </trkpt>
      <trkpt lat="45.58225" lon="4.38111">
        <ele>598.8</ele>
        <time>2017-03-19T08:34:48Z</time>
      </trkpt>
      <trkpt lat="45.58221" lon="4.38114">
        <ele>598.8</ele>
        <time>2017-03-19T08:34:49Z</time>
      </trkpt>
      <trkpt lat="45.58215" lon="4.38118">
        <ele>598.9</ele>
        <time>2017-03-19T08:34:50Z</time>
      </trkpt>
      <trkpt lat="45.58211" lon="4.3812">
        <ele>599.4</ele>
        <time>2017-03-19T08:34:51Z</time>
      </trkpt>
      <trkpt lat="45.58205" lon="4.38122">
        <ele>599.8</ele>
        <time>2017-03-19T08:34:52Z</time>
      </trkpt>
      <trkpt lat="45.58201" lon="4.38127">
        <ele>600.5</ele>
        <time>2017-03-19T08:34:53Z</time>
      </trkpt>
      <trkpt lat="45.58198" lon="4.38136">
        <ele>602.3</ele>
        <time>2017-03-19T08:34:54Z</time>
      </trkpt>
      <trkpt lat="45.58198" lon="4.38144">
        <ele>602.6</ele>
        <time>2017-03-19T08:34:55Z</time>
      </trkpt>
      <trkpt lat="45.58198" lon="4.38152">
        <ele>603.2</ele>
        <time>2017-03-19T08:34:56Z</time>
      </trkpt>
      <trkpt lat="45.58199" lon="4.38156">
        <ele>603.5</ele>
        <time>2017-03-19T08:34:57Z</time>
      </trkpt>
      <trkpt lat="45.58201" lon="4.38161">
        <ele>603.3</ele>
        <time>2017-03-19T08:34:59Z</time>
      </trkpt>
      <trkpt lat="45.58203" lon="4.38164">
        <ele>603.5</ele>
        <time>2017-03-19T08:35:00Z</time>
      </trkpt>
      <trkpt lat="45.58206" lon="4.38168">
        <ele>602.9</ele>
        <time>2017-03-19T08:35:02Z</time>
      </trkpt>
      <trkpt lat="45.58208" lon="4.38174">
        <ele>603.2</ele>
        <time>2017-03-19T08:35:04Z</time>
      </trkpt>
      <trkpt lat="45.5821" lon="4.38178">
        <ele>603</ele>
        <time>2017-03-19T08:35:05Z</time>
      </trkpt>
      <trkpt lat="45.58211" lon="4.38182">
        <ele>603.4</ele>
        <time>2017-03-19T08:35:07Z</time>
      </trkpt>
      <trkpt lat="45.58213" lon="4.38185">
        <ele>603.3</ele>
        <time>2017-03-19T08:35:11Z</time>
      </trkpt>
      <trkpt lat="45.58215" lon="4.3819">
        <ele>603.1</ele>
        <time>2017-03-19T08:35:13Z</time>
      </trkpt>
      <trkpt lat="45.58217" lon="4.38194">
        <ele>603.3</ele>
        <time>2017-03-19T08:35:15Z</time>
      </trkpt>
      <trkpt lat="45.5822" lon="4.38199">
        <ele>603</ele>
        <time>2017-03-19T08:35:16Z</time>
      </trkpt>
      <trkpt lat="45.58222" lon="4.38205">
        <ele>602.6</ele>
        <time>2017-03-19T08:35:17Z</time>
      </trkpt>
      <trkpt lat="45.58228" lon="4.38215">
        <ele>601.4</ele>
        <time>2017-03-19T08:35:18Z</time>
      </trkpt>
      <trkpt lat="45.58229" lon="4.38222">
        <ele>601.1</ele>
        <time>2017-03-19T08:35:19Z</time>
      </trkpt>
      <trkpt lat="45.58232" lon="4.3823">
        <ele>600.4</ele>
        <time>2017-03-19T08:35:20Z</time>
      </trkpt>
      <trkpt lat="45.58233" lon="4.38238">
        <ele>599.8</ele>
        <time>2017-03-19T08:35:21Z</time>
      </trkpt>
      <trkpt lat="45.58235" lon="4.38243">
        <ele>599.9</ele>
        <time>2017-03-19T08:35:22Z</time>
      </trkpt>
      <trkpt lat="45.58239" lon="4.38249">
        <ele>599.5</ele>
        <time>2017-03-19T08:35:23Z</time>
      </trkpt>
      <trkpt lat="45.5824" lon="4.38256">
        <ele>599.5</ele>
        <time>2017-03-19T08:35:24Z</time>
      </trkpt>
      <trkpt lat="45.58242" lon="4.38261">
        <ele>599.4</ele>
        <time>2017-03-19T08:35:25Z</time>
      </trkpt>
      <trkpt lat="45.58246" lon="4.38268">
        <ele>599.4</ele>
        <time>2017-03-19T08:35:26Z</time>
      </trkpt>
      <trkpt lat="45.58249" lon="4.38277">
        <ele>599.9</ele>
        <time>2017-03-19T08:35:27Z</time>
      </trkpt>
      <trkpt lat="45.58252" lon="4.38281">
        <ele>600</ele>
        <time>2017-03-19T08:35:28Z</time>
      </trkpt>
      <trkpt lat="45.58253" lon="4.38285">
        <ele>600.3</ele>
        <time>2017-03-19T08:35:29Z</time>
      </trkpt>
      <trkpt lat="45.58251" lon="4.38289">
        <ele>601.1</ele>
        <time>2017-03-19T08:35:30Z</time>
      </trkpt>
      <trkpt lat="45.58254" lon="4.38293">
        <ele>600.8</ele>
        <time>2017-03-19T08:35:31Z</time>
      </trkpt>
      <trkpt lat="45.58257" lon="4.38298">
        <ele>600.9</ele>
        <time>2017-03-19T08:35:32Z</time>
      </trkpt>
      <trkpt lat="45.58257" lon="4.38303">
        <ele>601.7</ele>
        <time>2017-03-19T08:35:33Z</time>
      </trkpt>
      <trkpt lat="45.58259" lon="4.38308">
        <ele>602.1</ele>
        <time>2017-03-19T08:35:34Z</time>
      </trkpt>
      <trkpt lat="45.58262" lon="4.38312">
        <ele>602.1</ele>
        <time>2017-03-19T08:35:35Z</time>
      </trkpt>
      <trkpt lat="45.58265" lon="4.38316">
        <ele>602</ele>
        <time>2017-03-19T08:35:36Z</time>
      </trkpt>
      <trkpt lat="45.58268" lon="4.38319">
        <ele>601.4</ele>
        <time>2017-03-19T08:35:37Z</time>
      </trkpt>
      <trkpt lat="45.5827" lon="4.38322">
        <ele>601.3</ele>
        <time>2017-03-19T08:35:38Z</time>
      </trkpt>
      <trkpt lat="45.58272" lon="4.38324">
        <ele>601.2</ele>
        <time>2017-03-19T08:35:39Z</time>
      </trkpt>
      <trkpt lat="45.58274" lon="4.38329">
        <ele>601.1</ele>
        <time>2017-03-19T08:35:41Z</time>
      </trkpt>
      <trkpt lat="45.58276" lon="4.38335">
        <ele>601.1</ele>
        <time>2017-03-19T08:35:43Z</time>
      </trkpt>
      <trkpt lat="45.58277" lon="4.38339">
        <ele>601.4</ele>
        <time>2017-03-19T08:35:44Z</time>
      </trkpt>
      <trkpt lat="45.58278" lon="4.38344">
        <ele>601.8</ele>
        <time>2017-03-19T08:35:45Z</time>
      </trkpt>
      <trkpt lat="45.58279" lon="4.38349">
        <ele>601.4</ele>
        <time>2017-03-19T08:35:46Z</time>
      </trkpt>
      <trkpt lat="45.5828" lon="4.38353">
        <ele>601.6</ele>
        <time>2017-03-19T08:35:47Z</time>
      </trkpt>
      <trkpt lat="45.58281" lon="4.38357">
        <ele>601.9</ele>
        <time>2017-03-19T08:35:48Z</time>
      </trkpt>
      <trkpt lat="45.58282" lon="4.38361">
        <ele>601.3</ele>
        <time>2017-03-19T08:35:49Z</time>
      </trkpt>
      <trkpt lat="45.58283" lon="4.38365">
        <ele>601.5</ele>
        <time>2017-03-19T08:35:50Z</time>
      </trkpt>
      <trkpt lat="45.58284" lon="4.38369">
        <ele>601</ele>
        <time>2017-03-19T08:35:51Z</time>
      </trkpt>
      <trkpt lat="45.58285" lon="4.38373">
        <ele>601.3</ele>
        <time>2017-03-19T08:35:52Z</time>
      </trkpt>
      <trkpt lat="45.58287" lon="4.38379">
        <ele>601.6</ele>
        <time>2017-03-19T08:35:54Z</time>
      </trkpt>
      <trkpt lat="45.58288" lon="4.38385">
        <ele>601</ele>
        <time>2017-03-19T08:35:56Z</time>
      </trkpt>
      <trkpt lat="45.58288" lon="4.38389">
        <ele>601.3</ele>
        <time>2017-03-19T08:35:58Z</time>
      </trkpt>
      <trkpt lat="45.58289" lon="4.38394">
        <ele>601.7</ele>
        <time>2017-03-19T08:36:00Z</time>
      </trkpt>
      <trkpt lat="45.58289" lon="4.38398">
        <ele>601.8</ele>
        <time>2017-03-19T08:36:02Z</time>
      </trkpt>
      <trkpt lat="45.5829" lon="4.38402">
        <ele>601.9</ele>
        <time>2017-03-19T08:36:04Z</time>
      </trkpt>
      <trkpt lat="45.58292" lon="4.38406">
        <ele>601.1</ele>
        <time>2017-03-19T08:36:07Z</time>
      </trkpt>
      <trkpt lat="45.58291" lon="4.38411">
        <ele>601.3</ele>
        <time>2017-03-19T08:36:10Z</time>
      </trkpt>
      <trkpt lat="45.58291" lon="4.38416">
        <ele>601.3</ele>
        <time>2017-03-19T08:36:13Z</time>
      </trkpt>
      <trkpt lat="45.58289" lon="4.38421">
        <ele>602.2</ele>
        <time>2017-03-19T08:36:16Z</time>
      </trkpt>
      <trkpt lat="45.58288" lon="4.38427">
        <ele>602.3</ele>
        <time>2017-03-19T08:36:18Z</time>
      </trkpt>
      <trkpt lat="45.58287" lon="4.38434">
        <ele>603.2</ele>
        <time>2017-03-19T08:36:20Z</time>
      </trkpt>
      <trkpt lat="45.58285" lon="4.3844">
        <ele>603.2</ele>
        <time>2017-03-19T08:36:22Z</time>
      </trkpt>
      <trkpt lat="45.58283" lon="4.38445">
        <ele>603.9</ele>
        <time>2017-03-19T08:36:24Z</time>
      </trkpt>
      <trkpt lat="45.58283" lon="4.38449">
        <ele>603.8</ele>
        <time>2017-03-19T08:36:25Z</time>
      </trkpt>
      <trkpt lat="45.58284" lon="4.38455">
        <ele>603.7</ele>
        <time>2017-03-19T08:36:26Z</time>
      </trkpt>
      <trkpt lat="45.58285" lon="4.3846">
        <ele>602.7</ele>
        <time>2017-03-19T08:36:27Z</time>
      </trkpt>
      <trkpt lat="45.58285" lon="4.38465">
        <ele>602.6</ele>
        <time>2017-03-19T08:36:28Z</time>
      </trkpt>
      <trkpt lat="45.58285" lon="4.38469">
        <ele>602.5</ele>
        <time>2017-03-19T08:36:29Z</time>
      </trkpt>
      <trkpt lat="45.58285" lon="4.38475">
        <ele>602.3</ele>
        <time>2017-03-19T08:36:30Z</time>
      </trkpt>
      <trkpt lat="45.58285" lon="4.38481">
        <ele>602.2</ele>
        <time>2017-03-19T08:36:31Z</time>
      </trkpt>
      <trkpt lat="45.58284" lon="4.38488">
        <ele>602.2</ele>
        <time>2017-03-19T08:36:32Z</time>
      </trkpt>
      <trkpt lat="45.58284" lon="4.38495">
        <ele>602.6</ele>
        <time>2017-03-19T08:36:33Z</time>
      </trkpt>
      <trkpt lat="45.58283" lon="4.38501">
        <ele>602.5</ele>
        <time>2017-03-19T08:36:34Z</time>
      </trkpt>
      <trkpt lat="45.58282" lon="4.38506">
        <ele>602.4</ele>
        <time>2017-03-19T08:36:35Z</time>
      </trkpt>
      <trkpt lat="45.58281" lon="4.3851">
        <ele>602.4</ele>
        <time>2017-03-19T08:36:36Z</time>
      </trkpt>
      <trkpt lat="45.5828" lon="4.38514">
        <ele>602.5</ele>
        <time>2017-03-19T08:36:37Z</time>
      </trkpt>
      <trkpt lat="45.58277" lon="4.3852">
        <ele>602.7</ele>
        <time>2017-03-19T08:36:39Z</time>
      </trkpt>
      <trkpt lat="45.58275" lon="4.38524">
        <ele>602.9</ele>
        <time>2017-03-19T08:36:40Z</time>
      </trkpt>
      <trkpt lat="45.58274" lon="4.38528">
        <ele>603</ele>
        <time>2017-03-19T08:36:41Z</time>
      </trkpt>
      <trkpt lat="45.58273" lon="4.38534">
        <ele>603.2</ele>
        <time>2017-03-19T08:36:43Z</time>
      </trkpt>
      <trkpt lat="45.58271" lon="4.38537">
        <ele>603.5</ele>
        <time>2017-03-19T08:36:45Z</time>
      </trkpt>
      <trkpt lat="45.58268" lon="4.38541">
        <ele>603.8</ele>
        <time>2017-03-19T08:36:47Z</time>
      </trkpt>
      <trkpt lat="45.58266" lon="4.38546">
        <ele>604</ele>
        <time>2017-03-19T08:36:49Z</time>
      </trkpt>
      <trkpt lat="45.58264" lon="4.38553">
        <ele>604.2</ele>
        <time>2017-03-19T08:36:51Z</time>
      </trkpt>
      <trkpt lat="45.58262" lon="4.38558">
        <ele>604.3</ele>
        <time>2017-03-19T08:36:52Z</time>
      </trkpt>
      <trkpt lat="45.5826" lon="4.38564">
        <ele>604.3</ele>
        <time>2017-03-19T08:36:53Z</time>
      </trkpt>
      <trkpt lat="45.58258" lon="4.38571">
        <ele>604.1</ele>
        <time>2017-03-19T08:36:54Z</time>
      </trkpt>
      <trkpt lat="45.58256" lon="4.38577">
        <ele>603.9</ele>
        <time>2017-03-19T08:36:55Z</time>
      </trkpt>
      <trkpt lat="45.58255" lon="4.38582">
        <ele>603.4</ele>
        <time>2017-03-19T08:36:56Z</time>
      </trkpt>
      <trkpt lat="45.58253" lon="4.38587">
        <ele>603.2</ele>
        <time>2017-03-19T08:36:57Z</time>
      </trkpt>
      <trkpt lat="45.58252" lon="4.38594">
        <ele>602.9</ele>
        <time>2017-03-19T08:36:58Z</time>
      </trkpt>
      <trkpt lat="45.5825" lon="4.38602">
        <ele>602.4</ele>
        <time>2017-03-19T08:36:59Z</time>
      </trkpt>
      <trkpt lat="45.58249" lon="4.38609">
        <ele>601.6</ele>
        <time>2017-03-19T08:37:00Z</time>
      </trkpt>
      <trkpt lat="45.58249" lon="4.38617">
        <ele>600.7</ele>
        <time>2017-03-19T08:37:01Z</time>
      </trkpt>
      <trkpt lat="45.58248" lon="4.38624">
        <ele>600.1</ele>
        <time>2017-03-19T08:37:02Z</time>
      </trkpt>
      <trkpt lat="45.58251" lon="4.38643">
        <ele>598.1</ele>
        <time>2017-03-19T08:37:03Z</time>
      </trkpt>
      <trkpt lat="45.58251" lon="4.38653">
        <ele>597.8</ele>
        <time>2017-03-19T08:37:04Z</time>
      </trkpt>
      <trkpt lat="45.58251" lon="4.3866">
        <ele>597.4</ele>
        <time>2017-03-19T08:37:05Z</time>
      </trkpt>
      <trkpt lat="45.58253" lon="4.38673">
        <ele>596.8</ele>
        <time>2017-03-19T08:37:06Z</time>
      </trkpt>
      <trkpt lat="45.58255" lon="4.38681">
        <ele>596</ele>
        <time>2017-03-19T08:37:07Z</time>
      </trkpt>
      <trkpt lat="45.58257" lon="4.38683">
        <ele>595.9</ele>
        <time>2017-03-19T08:37:08Z</time>
      </trkpt>
      <trkpt lat="45.58259" lon="4.38687">
        <ele>595.5</ele>
        <time>2017-03-19T08:37:09Z</time>
      </trkpt>
      <trkpt lat="45.58261" lon="4.38693">
        <ele>595</ele>
        <time>2017-03-19T08:37:11Z</time>
      </trkpt>
      <trkpt lat="45.58265" lon="4.38695">
        <ele>594.5</ele>
        <time>2017-03-19T08:37:13Z</time>
      </trkpt>
      <trkpt lat="45.58266" lon="4.38699">
        <ele>594.1</ele>
        <time>2017-03-19T08:37:15Z</time>
      </trkpt>
      <trkpt lat="45.58268" lon="4.38703">
        <ele>593.9</ele>
        <time>2017-03-19T08:37:16Z</time>
      </trkpt>
      <trkpt lat="45.5827" lon="4.38707">
        <ele>593.7</ele>
        <time>2017-03-19T08:37:18Z</time>
      </trkpt>
      <trkpt lat="45.58273" lon="4.38707">
        <ele>593.7</ele>
        <time>2017-03-19T08:37:21Z</time>
      </trkpt>
      <trkpt lat="45.58277" lon="4.38708">
        <ele>593.7</ele>
        <time>2017-03-19T08:37:23Z</time>
      </trkpt>
      <trkpt lat="45.58281" lon="4.38709">
        <ele>593.8</ele>
        <time>2017-03-19T08:37:25Z</time>
      </trkpt>
      <trkpt lat="45.58286" lon="4.38711">
        <ele>594</ele>
        <time>2017-03-19T08:37:27Z</time>
      </trkpt>
      <trkpt lat="45.5829" lon="4.38713">
        <ele>594.1</ele>
        <time>2017-03-19T08:37:29Z</time>
      </trkpt>
      <trkpt lat="45.58295" lon="4.38716">
        <ele>594.2</ele>
        <time>2017-03-19T08:37:31Z</time>
      </trkpt>
      <trkpt lat="45.58299" lon="4.38721">
        <ele>594.3</ele>
        <time>2017-03-19T08:37:33Z</time>
      </trkpt>
      <trkpt lat="45.58303" lon="4.38726">
        <ele>594.1</ele>
        <time>2017-03-19T08:37:35Z</time>
      </trkpt>
      <trkpt lat="45.58306" lon="4.38729">
        <ele>594</ele>
        <time>2017-03-19T08:37:36Z</time>
      </trkpt>
      <trkpt lat="45.58308" lon="4.38732">
        <ele>593.7</ele>
        <time>2017-03-19T08:37:37Z</time>
      </trkpt>
      <trkpt lat="45.58313" lon="4.38737">
        <ele>593.7</ele>
        <time>2017-03-19T08:37:39Z</time>
      </trkpt>
      <trkpt lat="45.58315" lon="4.38739">
        <ele>593.4</ele>
        <time>2017-03-19T08:37:40Z</time>
      </trkpt>
      <trkpt lat="45.58317" lon="4.38742">
        <ele>593.3</ele>
        <time>2017-03-19T08:37:41Z</time>
      </trkpt>
      <trkpt lat="45.58319" lon="4.38745">
        <ele>593.3</ele>
        <time>2017-03-19T08:37:42Z</time>
      </trkpt>
      <trkpt lat="45.58321" lon="4.38748">
        <ele>593.3</ele>
        <time>2017-03-19T08:37:43Z</time>
      </trkpt>
      <trkpt lat="45.58324" lon="4.38752">
        <ele>593.3</ele>
        <time>2017-03-19T08:37:44Z</time>
      </trkpt>
      <trkpt lat="45.58326" lon="4.38756">
        <ele>593.7</ele>
        <time>2017-03-19T08:37:45Z</time>
      </trkpt>
      <trkpt lat="45.58327" lon="4.38759">
        <ele>593.9</ele>
        <time>2017-03-19T08:37:46Z</time>
      </trkpt>
      <trkpt lat="45.5833" lon="4.38761">
        <ele>593.8</ele>
        <time>2017-03-19T08:37:47Z</time>
      </trkpt>
      <trkpt lat="45.58332" lon="4.38764">
        <ele>594.1</ele>
        <time>2017-03-19T08:37:48Z</time>
      </trkpt>
      <trkpt lat="45.58335" lon="4.38766">
        <ele>594</ele>
        <time>2017-03-19T08:37:49Z</time>
      </trkpt>
      <trkpt lat="45.58338" lon="4.38768">
        <ele>594.5</ele>
        <time>2017-03-19T08:37:50Z</time>
      </trkpt>
      <trkpt lat="45.5834" lon="4.38771">
        <ele>594.9</ele>
        <time>2017-03-19T08:37:51Z</time>
      </trkpt>
      <trkpt lat="45.58342" lon="4.38775">
        <ele>594.8</ele>
        <time>2017-03-19T08:37:52Z</time>
      </trkpt>
      <trkpt lat="45.58344" lon="4.3878">
        <ele>595.3</ele>
        <time>2017-03-19T08:37:54Z</time>
      </trkpt>
      <trkpt lat="45.58345" lon="4.38785">
        <ele>595.6</ele>
        <time>2017-03-19T08:37:56Z</time>
      </trkpt>
      <trkpt lat="45.58347" lon="4.3879">
        <ele>595.6</ele>
        <time>2017-03-19T08:37:58Z</time>
      </trkpt>
      <trkpt lat="45.58349" lon="4.38795">
        <ele>595.8</ele>
        <time>2017-03-19T08:38:00Z</time>
      </trkpt>
      <trkpt lat="45.5835" lon="4.38799">
        <ele>595.7</ele>
        <time>2017-03-19T08:38:02Z</time>
      </trkpt>
      <trkpt lat="45.58352" lon="4.38805">
        <ele>595.7</ele>
        <time>2017-03-19T08:38:04Z</time>
      </trkpt>
      <trkpt lat="45.58354" lon="4.38809">
        <ele>595.5</ele>
        <time>2017-03-19T08:38:06Z</time>
      </trkpt>
      <trkpt lat="45.58357" lon="4.38813">
        <ele>595.5</ele>
        <time>2017-03-19T08:38:08Z</time>
      </trkpt>
      <trkpt lat="45.58359" lon="4.38817">
        <ele>595.5</ele>
        <time>2017-03-19T08:38:10Z</time>
      </trkpt>
      <trkpt lat="45.58361" lon="4.3882">
        <ele>595.6</ele>
        <time>2017-03-19T08:38:13Z</time>
      </trkpt>
      <trkpt lat="45.58357" lon="4.38819">
        <ele>595.7</ele>
        <time>2017-03-19T08:38:19Z</time>
      </trkpt>
      <trkpt lat="45.58354" lon="4.38816">
        <ele>595.6</ele>
        <time>2017-03-19T08:38:21Z</time>
      </trkpt>
      <trkpt lat="45.58352" lon="4.38811">
        <ele>595.7</ele>
        <time>2017-03-19T08:38:23Z</time>
      </trkpt>
      <trkpt lat="45.58348" lon="4.38805">
        <ele>595.7</ele>
        <time>2017-03-19T08:38:25Z</time>
      </trkpt>
      <trkpt lat="45.58346" lon="4.38799">
        <ele>595.9</ele>
        <time>2017-03-19T08:38:27Z</time>
      </trkpt>
      <trkpt lat="45.58344" lon="4.38795">
        <ele>595.9</ele>
        <time>2017-03-19T08:38:30Z</time>
      </trkpt>
      <trkpt lat="45.58341" lon="4.3879">
        <ele>595.8</ele>
        <time>2017-03-19T08:38:32Z</time>
      </trkpt>
      <trkpt lat="45.58338" lon="4.38786">
        <ele>595.5</ele>
        <time>2017-03-19T08:38:34Z</time>
      </trkpt>
      <trkpt lat="45.58335" lon="4.38782">
        <ele>595.2</ele>
        <time>2017-03-19T08:38:36Z</time>
      </trkpt>
      <trkpt lat="45.58332" lon="4.38778">
        <ele>594.9</ele>
        <time>2017-03-19T08:38:38Z</time>
      </trkpt>
      <trkpt lat="45.58328" lon="4.38772">
        <ele>594.7</ele>
        <time>2017-03-19T08:38:40Z</time>
      </trkpt>
      <trkpt lat="45.58326" lon="4.38769">
        <ele>594.3</ele>
        <time>2017-03-19T08:38:41Z</time>
      </trkpt>
      <trkpt lat="45.58324" lon="4.38766">
        <ele>593.8</ele>
        <time>2017-03-19T08:38:42Z</time>
      </trkpt>
      <trkpt lat="45.58321" lon="4.38763">
        <ele>593.9</ele>
        <time>2017-03-19T08:38:43Z</time>
      </trkpt>
      <trkpt lat="45.58319" lon="4.3876">
        <ele>593.6</ele>
        <time>2017-03-19T08:38:44Z</time>
      </trkpt>
      <trkpt lat="45.58316" lon="4.38756">
        <ele>593.4</ele>
        <time>2017-03-19T08:38:46Z</time>
      </trkpt>
      <trkpt lat="45.58312" lon="4.38751">
        <ele>593.4</ele>
        <time>2017-03-19T08:38:48Z</time>
      </trkpt>
      <trkpt lat="45.5831" lon="4.38746">
        <ele>593.4</ele>
        <time>2017-03-19T08:38:50Z</time>
      </trkpt>
      <trkpt lat="45.58308" lon="4.38743">
        <ele>593.2</ele>
        <time>2017-03-19T08:38:51Z</time>
      </trkpt>
      <trkpt lat="45.58309" lon="4.38736">
        <ele>592.8</ele>
        <time>2017-03-19T08:38:53Z</time>
      </trkpt>
      <trkpt lat="45.58313" lon="4.38731">
        <ele>592.3</ele>
        <time>2017-03-19T08:38:55Z</time>
      </trkpt>
      <trkpt lat="45.58334" lon="4.38718">
        <ele>589.5</ele>
        <time>2017-03-19T08:38:57Z</time>
      </trkpt>
      <trkpt lat="45.5834" lon="4.38716">
        <ele>589.1</ele>
        <time>2017-03-19T08:38:58Z</time>
      </trkpt>
      <trkpt lat="45.58348" lon="4.38713">
        <ele>588.4</ele>
        <time>2017-03-19T08:38:59Z</time>
      </trkpt>
      <trkpt lat="45.58357" lon="4.38708">
        <ele>587.8</ele>
        <time>2017-03-19T08:39:00Z</time>
      </trkpt>
      <trkpt lat="45.58366" lon="4.38704">
        <ele>587.1</ele>
        <time>2017-03-19T08:39:01Z</time>
      </trkpt>
      <trkpt lat="45.58376" lon="4.38699">
        <ele>586.4</ele>
        <time>2017-03-19T08:39:02Z</time>
      </trkpt>
      <trkpt lat="45.58386" lon="4.38693">
        <ele>585.4</ele>
        <time>2017-03-19T08:39:03Z</time>
      </trkpt>
      <trkpt lat="45.58394" lon="4.38688">
        <ele>584.8</ele>
        <time>2017-03-19T08:39:04Z</time>
      </trkpt>
      <trkpt lat="45.58402" lon="4.38684">
        <ele>583.5</ele>
        <time>2017-03-19T08:39:05Z</time>
      </trkpt>
      <trkpt lat="45.5841" lon="4.38678">
        <ele>582.4</ele>
        <time>2017-03-19T08:39:06Z</time>
      </trkpt>
      <trkpt lat="45.58418" lon="4.38672">
        <ele>580.7</ele>
        <time>2017-03-19T08:39:07Z</time>
      </trkpt>
      <trkpt lat="45.58426" lon="4.38667">
        <ele>579.5</ele>
        <time>2017-03-19T08:39:08Z</time>
      </trkpt>
      <trkpt lat="45.58433" lon="4.38665">
        <ele>579.1</ele>
        <time>2017-03-19T08:39:09Z</time>
      </trkpt>
      <trkpt lat="45.5844" lon="4.38664">
        <ele>578.4</ele>
        <time>2017-03-19T08:39:10Z</time>
      </trkpt>
      <trkpt lat="45.58445" lon="4.38666">
        <ele>578.2</ele>
        <time>2017-03-19T08:39:11Z</time>
      </trkpt>
      <trkpt lat="45.58453" lon="4.38668">
        <ele>577.9</ele>
        <time>2017-03-19T08:39:12Z</time>
      </trkpt>
      <trkpt lat="45.58462" lon="4.38665">
        <ele>576.4</ele>
        <time>2017-03-19T08:39:13Z</time>
      </trkpt>
      <trkpt lat="45.58471" lon="4.38662">
        <ele>574.9</ele>
        <time>2017-03-19T08:39:14Z</time>
      </trkpt>
      <trkpt lat="45.58477" lon="4.38655">
        <ele>573.8</ele>
        <time>2017-03-19T08:39:15Z</time>
      </trkpt>
      <trkpt lat="45.58482" lon="4.38649">
        <ele>572.8</ele>
        <time>2017-03-19T08:39:16Z</time>
      </trkpt>
      <trkpt lat="45.58485" lon="4.38641">
        <ele>571.5</ele>
        <time>2017-03-19T08:39:17Z</time>
      </trkpt>
      <trkpt lat="45.58489" lon="4.38636">
        <ele>570.9</ele>
        <time>2017-03-19T08:39:18Z</time>
      </trkpt>
      <trkpt lat="45.58495" lon="4.38628">
        <ele>569.6</ele>
        <time>2017-03-19T08:39:19Z</time>
      </trkpt>
      <trkpt lat="45.58499" lon="4.38618">
        <ele>568.6</ele>
        <time>2017-03-19T08:39:20Z</time>
      </trkpt>
      <trkpt lat="45.58503" lon="4.38606">
        <ele>567.8</ele>
        <time>2017-03-19T08:39:21Z</time>
      </trkpt>
      <trkpt lat="45.58511" lon="4.386">
        <ele>567.8</ele>
        <time>2017-03-19T08:39:22Z</time>
      </trkpt>
      <trkpt lat="45.58515" lon="4.38589">
        <ele>568</ele>
        <time>2017-03-19T08:39:23Z</time>
      </trkpt>
      <trkpt lat="45.58521" lon="4.38583">
        <ele>568.2</ele>
        <time>2017-03-19T08:39:24Z</time>
      </trkpt>
      <trkpt lat="45.58527" lon="4.38576">
        <ele>568.6</ele>
        <time>2017-03-19T08:39:25Z</time>
      </trkpt>
      <trkpt lat="45.58534" lon="4.38568">
        <ele>569.2</ele>
        <time>2017-03-19T08:39:26Z</time>
      </trkpt>
      <trkpt lat="45.5854" lon="4.38562">
        <ele>569.5</ele>
        <time>2017-03-19T08:39:27Z</time>
      </trkpt>
      <trkpt lat="45.58544" lon="4.38553">
        <ele>569.4</ele>
        <time>2017-03-19T08:39:28Z</time>
      </trkpt>
      <trkpt lat="45.5855" lon="4.38547">
        <ele>569.4</ele>
        <time>2017-03-19T08:39:29Z</time>
      </trkpt>
      <trkpt lat="45.58557" lon="4.38541">
        <ele>569.4</ele>
        <time>2017-03-19T08:39:30Z</time>
      </trkpt>
      <trkpt lat="45.58562" lon="4.38536">
        <ele>569.3</ele>
        <time>2017-03-19T08:39:31Z</time>
      </trkpt>
      <trkpt lat="45.58567" lon="4.38528">
        <ele>569.1</ele>
        <time>2017-03-19T08:39:32Z</time>
      </trkpt>
      <trkpt lat="45.58573" lon="4.3852">
        <ele>568.8</ele>
        <time>2017-03-19T08:39:33Z</time>
      </trkpt>
      <trkpt lat="45.58579" lon="4.38512">
        <ele>568.3</ele>
        <time>2017-03-19T08:39:34Z</time>
      </trkpt>
      <trkpt lat="45.58584" lon="4.38504">
        <ele>567.8</ele>
        <time>2017-03-19T08:39:35Z</time>
      </trkpt>
      <trkpt lat="45.58587" lon="4.38497">
        <ele>567.4</ele>
        <time>2017-03-19T08:39:36Z</time>
      </trkpt>
      <trkpt lat="45.5859" lon="4.3849">
        <ele>566.6</ele>
        <time>2017-03-19T08:39:37Z</time>
      </trkpt>
      <trkpt lat="45.58595" lon="4.38481">
        <ele>564.7</ele>
        <time>2017-03-19T08:39:38Z</time>
      </trkpt>
      <trkpt lat="45.58598" lon="4.38471">
        <ele>563.2</ele>
        <time>2017-03-19T08:39:39Z</time>
      </trkpt>
      <trkpt lat="45.58601" lon="4.3846">
        <ele>561.2</ele>
        <time>2017-03-19T08:39:40Z</time>
      </trkpt>
      <trkpt lat="45.58603" lon="4.3845">
        <ele>559.8</ele>
        <time>2017-03-19T08:39:41Z</time>
      </trkpt>
      <trkpt lat="45.58605" lon="4.38437">
        <ele>558.2</ele>
        <time>2017-03-19T08:39:42Z</time>
      </trkpt>
      <trkpt lat="45.58606" lon="4.38425">
        <ele>556.1</ele>
        <time>2017-03-19T08:39:43Z</time>
      </trkpt>
      <trkpt lat="45.58605" lon="4.38414">
        <ele>554.3</ele>
        <time>2017-03-19T08:39:44Z</time>
      </trkpt>
      <trkpt lat="45.58605" lon="4.38402">
        <ele>552.8</ele>
        <time>2017-03-19T08:39:45Z</time>
      </trkpt>
      <trkpt lat="45.58605" lon="4.38389">
        <ele>550.9</ele>
        <time>2017-03-19T08:39:46Z</time>
      </trkpt>
      <trkpt lat="45.58605" lon="4.38379">
        <ele>550.1</ele>
        <time>2017-03-19T08:39:47Z</time>
      </trkpt>
      <trkpt lat="45.58604" lon="4.38369">
        <ele>549.7</ele>
        <time>2017-03-19T08:39:48Z</time>
      </trkpt>
      <trkpt lat="45.58604" lon="4.38357">
        <ele>548.3</ele>
        <time>2017-03-19T08:39:49Z</time>
      </trkpt>
      <trkpt lat="45.58603" lon="4.38349">
        <ele>546.6</ele>
        <time>2017-03-19T08:39:50Z</time>
      </trkpt>
      <trkpt lat="45.58601" lon="4.38344">
        <ele>545.9</ele>
        <time>2017-03-19T08:39:51Z</time>
      </trkpt>
      <trkpt lat="45.58601" lon="4.38338">
        <ele>545</ele>
        <time>2017-03-19T08:39:52Z</time>
      </trkpt>
      <trkpt lat="45.58601" lon="4.38334">
        <ele>544.3</ele>
        <time>2017-03-19T08:39:53Z</time>
      </trkpt>
      <trkpt lat="45.58608" lon="4.38326">
        <ele>542.7</ele>
        <time>2017-03-19T08:39:55Z</time>
      </trkpt>
      <trkpt lat="45.58612" lon="4.38322">
        <ele>541.8</ele>
        <time>2017-03-19T08:39:56Z</time>
      </trkpt>
      <trkpt lat="45.58618" lon="4.38321">
        <ele>541.1</ele>
        <time>2017-03-19T08:39:58Z</time>
      </trkpt>
      <trkpt lat="45.5862" lon="4.3832">
        <ele>540</ele>
        <time>2017-03-19T08:39:59Z</time>
      </trkpt>
      <trkpt lat="45.58624" lon="4.38321">
        <ele>540.1</ele>
        <time>2017-03-19T08:40:01Z</time>
      </trkpt>
      <trkpt lat="45.58627" lon="4.38324">
        <ele>539.5</ele>
        <time>2017-03-19T08:40:03Z</time>
      </trkpt>
      <trkpt lat="45.58629" lon="4.38325">
        <ele>539.7</ele>
        <time>2017-03-19T08:40:09Z</time>
      </trkpt>
      <trkpt lat="45.58632" lon="4.38328">
        <ele>539.7</ele>
        <time>2017-03-19T08:40:20Z</time>
      </trkpt>
      <trkpt lat="45.58635" lon="4.38329">
        <ele>539.8</ele>
        <time>2017-03-19T08:40:30Z</time>
      </trkpt>
      <trkpt lat="45.58637" lon="4.38332">
        <ele>539.1</ele>
        <time>2017-03-19T08:40:33Z</time>
      </trkpt>
      <trkpt lat="45.5864" lon="4.38334">
        <ele>539</ele>
        <time>2017-03-19T08:40:39Z</time>
      </trkpt>
      <trkpt lat="45.58643" lon="4.38338">
        <ele>538.8</ele>
        <time>2017-03-19T08:40:43Z</time>
      </trkpt>
      <trkpt lat="45.58645" lon="4.38341">
        <ele>537.8</ele>
        <time>2017-03-19T08:40:46Z</time>
      </trkpt>
      <trkpt lat="45.5865" lon="4.38337">
        <ele>536.3</ele>
        <time>2017-03-19T08:40:48Z</time>
      </trkpt>
      <trkpt lat="45.58652" lon="4.38334">
        <ele>535.3</ele>
        <time>2017-03-19T08:40:49Z</time>
      </trkpt>
      <trkpt lat="45.58655" lon="4.38332">
        <ele>533.9</ele>
        <time>2017-03-19T08:40:51Z</time>
      </trkpt>
      <trkpt lat="45.58657" lon="4.38329">
        <ele>533</ele>
        <time>2017-03-19T08:40:55Z</time>
      </trkpt>
      <trkpt lat="45.58661" lon="4.38328">
        <ele>532</ele>
        <time>2017-03-19T08:41:01Z</time>
      </trkpt>
      <trkpt lat="45.58664" lon="4.38326">
        <ele>532.3</ele>
        <time>2017-03-19T08:41:05Z</time>
      </trkpt>
      <trkpt lat="45.58667" lon="4.38324">
        <ele>532.6</ele>
        <time>2017-03-19T08:41:09Z</time>
      </trkpt>
      <trkpt lat="45.5867" lon="4.38322">
        <ele>532.8</ele>
        <time>2017-03-19T08:41:13Z</time>
      </trkpt>
      <trkpt lat="45.58673" lon="4.3832">
        <ele>533.1</ele>
        <time>2017-03-19T08:41:17Z</time>
      </trkpt>
      <trkpt lat="45.58675" lon="4.38318">
        <ele>533.4</ele>
        <time>2017-03-19T08:41:20Z</time>
      </trkpt>
      <trkpt lat="45.58677" lon="4.38315">
        <ele>533.7</ele>
        <time>2017-03-19T08:41:25Z</time>
      </trkpt>
      <trkpt lat="45.58682" lon="4.38315">
        <ele>534.1</ele>
        <time>2017-03-19T08:47:05Z</time>
      </trkpt>
      <trkpt lat="45.58687" lon="4.38315">
        <ele>534.6</ele>
        <time>2017-03-19T08:47:07Z</time>
      </trkpt>
      <trkpt lat="45.5869" lon="4.38315">
        <ele>534.9</ele>
        <time>2017-03-19T08:47:08Z</time>
      </trkpt>
      <trkpt lat="45.58695" lon="4.38314">
        <ele>535.5</ele>
        <time>2017-03-19T08:47:10Z</time>
      </trkpt>
      <trkpt lat="45.58697" lon="4.38314">
        <ele>535.8</ele>
        <time>2017-03-19T08:47:11Z</time>
      </trkpt>
      <trkpt lat="45.587" lon="4.38315">
        <ele>536.6</ele>
        <time>2017-03-19T08:47:12Z</time>
      </trkpt>
      <trkpt lat="45.58703" lon="4.38316">
        <ele>537</ele>
        <time>2017-03-19T08:47:13Z</time>
      </trkpt>
      <trkpt lat="45.58706" lon="4.38317">
        <ele>537.3</ele>
        <time>2017-03-19T08:47:14Z</time>
      </trkpt>
      <trkpt lat="45.5871" lon="4.38318">
        <ele>537.7</ele>
        <time>2017-03-19T08:47:15Z</time>
      </trkpt>
      <trkpt lat="45.58714" lon="4.38318">
        <ele>538.1</ele>
        <time>2017-03-19T08:47:16Z</time>
      </trkpt>
      <trkpt lat="45.58719" lon="4.38319">
        <ele>538.5</ele>
        <time>2017-03-19T08:47:17Z</time>
      </trkpt>
      <trkpt lat="45.58722" lon="4.3832">
        <ele>538.8</ele>
        <time>2017-03-19T08:47:18Z</time>
      </trkpt>
      <trkpt lat="45.58726" lon="4.38323">
        <ele>539.4</ele>
        <time>2017-03-19T08:47:20Z</time>
      </trkpt>
      <trkpt lat="45.58732" lon="4.38325">
        <ele>540</ele>
        <time>2017-03-19T08:47:22Z</time>
      </trkpt>
      <trkpt lat="45.58734" lon="4.38325">
        <ele>540.3</ele>
        <time>2017-03-19T08:47:24Z</time>
      </trkpt>
      <trkpt lat="45.58738" lon="4.38326">
        <ele>540.7</ele>
        <time>2017-03-19T08:47:27Z</time>
      </trkpt>
      <trkpt lat="45.58741" lon="4.38329">
        <ele>541.2</ele>
        <time>2017-03-19T08:47:29Z</time>
      </trkpt>
      <trkpt lat="45.58745" lon="4.38332">
        <ele>541.7</ele>
        <time>2017-03-19T08:47:31Z</time>
      </trkpt>
      <trkpt lat="45.58748" lon="4.38334">
        <ele>542.1</ele>
        <time>2017-03-19T08:47:33Z</time>
      </trkpt>
      <trkpt lat="45.58752" lon="4.38335">
        <ele>542.4</ele>
        <time>2017-03-19T08:47:36Z</time>
      </trkpt>
      <trkpt lat="45.58755" lon="4.38335">
        <ele>542.7</ele>
        <time>2017-03-19T08:47:38Z</time>
      </trkpt>
      <trkpt lat="45.5876" lon="4.38335">
        <ele>543</ele>
        <time>2017-03-19T08:47:41Z</time>
      </trkpt>
      <trkpt lat="45.58764" lon="4.38335">
        <ele>543.6</ele>
        <time>2017-03-19T08:47:43Z</time>
      </trkpt>
      <trkpt lat="45.58767" lon="4.38337">
        <ele>543.9</ele>
        <time>2017-03-19T08:47:45Z</time>
      </trkpt>
      <trkpt lat="45.5877" lon="4.38338">
        <ele>544.2</ele>
        <time>2017-03-19T08:47:47Z</time>
      </trkpt>
      <trkpt lat="45.58773" lon="4.38339">
        <ele>544.4</ele>
        <time>2017-03-19T08:47:49Z</time>
      </trkpt>
      <trkpt lat="45.58776" lon="4.3834">
        <ele>544.7</ele>
        <time>2017-03-19T08:47:51Z</time>
      </trkpt>
      <trkpt lat="45.58779" lon="4.3834">
        <ele>545</ele>
        <time>2017-03-19T08:47:53Z</time>
      </trkpt>
      <trkpt lat="45.58783" lon="4.3834">
        <ele>545.4</ele>
        <time>2017-03-19T08:47:56Z</time>
      </trkpt>
      <trkpt lat="45.58786" lon="4.3834">
        <ele>545.8</ele>
        <time>2017-03-19T08:47:58Z</time>
      </trkpt>
      <trkpt lat="45.58789" lon="4.38341">
        <ele>546.3</ele>
        <time>2017-03-19T08:48:00Z</time>
      </trkpt>
      <trkpt lat="45.58794" lon="4.3834">
        <ele>546.7</ele>
        <time>2017-03-19T08:48:02Z</time>
      </trkpt>
      <trkpt lat="45.58798" lon="4.38338">
        <ele>547.3</ele>
        <time>2017-03-19T08:48:06Z</time>
      </trkpt>
      <trkpt lat="45.58802" lon="4.38337">
        <ele>547.8</ele>
        <time>2017-03-19T08:48:08Z</time>
      </trkpt>
      <trkpt lat="45.58806" lon="4.38336">
        <ele>548.3</ele>
        <time>2017-03-19T08:48:10Z</time>
      </trkpt>
      <trkpt lat="45.5881" lon="4.38334">
        <ele>548.8</ele>
        <time>2017-03-19T08:48:12Z</time>
      </trkpt>
      <trkpt lat="45.58813" lon="4.38331">
        <ele>549.2</ele>
        <time>2017-03-19T08:48:14Z</time>
      </trkpt>
      <trkpt lat="45.58816" lon="4.38329">
        <ele>549.7</ele>
        <time>2017-03-19T08:48:16Z</time>
      </trkpt>
      <trkpt lat="45.5882" lon="4.38327">
        <ele>550.1</ele>
        <time>2017-03-19T08:48:18Z</time>
      </trkpt>
      <trkpt lat="45.58823" lon="4.38325">
        <ele>550.5</ele>
        <time>2017-03-19T08:48:20Z</time>
      </trkpt>
      <trkpt lat="45.58827" lon="4.38323">
        <ele>550.8</ele>
        <time>2017-03-19T08:48:22Z</time>
      </trkpt>
      <trkpt lat="45.58831" lon="4.38322">
        <ele>551.2</ele>
        <time>2017-03-19T08:48:24Z</time>
      </trkpt>
      <trkpt lat="45.58834" lon="4.3832">
        <ele>551.4</ele>
        <time>2017-03-19T08:48:26Z</time>
      </trkpt>
      <trkpt lat="45.58836" lon="4.38318">
        <ele>551.8</ele>
        <time>2017-03-19T08:48:28Z</time>
      </trkpt>
      <trkpt lat="45.58839" lon="4.38316">
        <ele>552.1</ele>
        <time>2017-03-19T08:48:30Z</time>
      </trkpt>
      <trkpt lat="45.58842" lon="4.38313">
        <ele>552.5</ele>
        <time>2017-03-19T08:48:32Z</time>
      </trkpt>
      <trkpt lat="45.58846" lon="4.38311">
        <ele>553.1</ele>
        <time>2017-03-19T08:48:34Z</time>
      </trkpt>
      <trkpt lat="45.58851" lon="4.38309">
        <ele>553.7</ele>
        <time>2017-03-19T08:48:36Z</time>
      </trkpt>
      <trkpt lat="45.58855" lon="4.38307">
        <ele>554.1</ele>
        <time>2017-03-19T08:48:38Z</time>
      </trkpt>
      <trkpt lat="45.58859" lon="4.38305">
        <ele>554.5</ele>
        <time>2017-03-19T08:48:40Z</time>
      </trkpt>
      <trkpt lat="45.58863" lon="4.38304">
        <ele>554.9</ele>
        <time>2017-03-19T08:48:42Z</time>
      </trkpt>
      <trkpt lat="45.58866" lon="4.38301">
        <ele>555.2</ele>
        <time>2017-03-19T08:48:44Z</time>
      </trkpt>
      <trkpt lat="45.58869" lon="4.38297">
        <ele>555.5</ele>
        <time>2017-03-19T08:48:47Z</time>
      </trkpt>
      <trkpt lat="45.58872" lon="4.38295">
        <ele>555.7</ele>
        <time>2017-03-19T08:48:49Z</time>
      </trkpt>
      <trkpt lat="45.58875" lon="4.38293">
        <ele>555.9</ele>
        <time>2017-03-19T08:48:51Z</time>
      </trkpt>
      <trkpt lat="45.58877" lon="4.38291">
        <ele>556.1</ele>
        <time>2017-03-19T08:48:53Z</time>
      </trkpt>
      <trkpt lat="45.58881" lon="4.38288">
        <ele>556.3</ele>
        <time>2017-03-19T08:48:55Z</time>
      </trkpt>
      <trkpt lat="45.58883" lon="4.38286">
        <ele>556.5</ele>
        <time>2017-03-19T08:48:57Z</time>
      </trkpt>
      <trkpt lat="45.58887" lon="4.38282">
        <ele>556.8</ele>
        <time>2017-03-19T08:49:00Z</time>
      </trkpt>
      <trkpt lat="45.5889" lon="4.38279">
        <ele>556.9</ele>
        <time>2017-03-19T08:49:02Z</time>
      </trkpt>
      <trkpt lat="45.58893" lon="4.38276">
        <ele>557.1</ele>
        <time>2017-03-19T08:49:04Z</time>
      </trkpt>
      <trkpt lat="45.58896" lon="4.38272">
        <ele>557.2</ele>
        <time>2017-03-19T08:49:06Z</time>
      </trkpt>
      <trkpt lat="45.589" lon="4.3827">
        <ele>557.3</ele>
        <time>2017-03-19T08:49:08Z</time>
      </trkpt>
      <trkpt lat="45.58904" lon="4.38267">
        <ele>557.5</ele>
        <time>2017-03-19T08:49:10Z</time>
      </trkpt>
      <trkpt lat="45.58908" lon="4.38263">
        <ele>557.6</ele>
        <time>2017-03-19T08:49:12Z</time>
      </trkpt>
      <trkpt lat="45.58912" lon="4.38259">
        <ele>557.7</ele>
        <time>2017-03-19T08:49:14Z</time>
      </trkpt>
      <trkpt lat="45.58917" lon="4.38255">
        <ele>557.8</ele>
        <time>2017-03-19T08:49:16Z</time>
      </trkpt>
      <trkpt lat="45.58919" lon="4.38253">
        <ele>557.9</ele>
        <time>2017-03-19T08:49:17Z</time>
      </trkpt>
      <trkpt lat="45.58923" lon="4.38249">
        <ele>558</ele>
        <time>2017-03-19T08:49:19Z</time>
      </trkpt>
      <trkpt lat="45.58928" lon="4.38245">
        <ele>558</ele>
        <time>2017-03-19T08:49:21Z</time>
      </trkpt>
      <trkpt lat="45.58932" lon="4.38243">
        <ele>558</ele>
        <time>2017-03-19T08:49:23Z</time>
      </trkpt>
      <trkpt lat="45.58935" lon="4.38242">
        <ele>558</ele>
        <time>2017-03-19T08:49:24Z</time>
      </trkpt>
      <trkpt lat="45.58938" lon="4.38241">
        <ele>558</ele>
        <time>2017-03-19T08:49:25Z</time>
      </trkpt>
      <trkpt lat="45.58942" lon="4.38239">
        <ele>558</ele>
        <time>2017-03-19T08:49:27Z</time>
      </trkpt>
      <trkpt lat="45.58947" lon="4.38237">
        <ele>558.2</ele>
        <time>2017-03-19T08:49:29Z</time>
      </trkpt>
      <trkpt lat="45.5895" lon="4.38236">
        <ele>558.4</ele>
        <time>2017-03-19T08:49:30Z</time>
      </trkpt>
      <trkpt lat="45.58954" lon="4.3824">
        <ele>558.8</ele>
        <time>2017-03-19T08:49:32Z</time>
      </trkpt>
      <trkpt lat="45.58956" lon="4.38244">
        <ele>559</ele>
        <time>2017-03-19T08:49:33Z</time>
      </trkpt>
      <trkpt lat="45.58959" lon="4.38249">
        <ele>559.4</ele>
        <time>2017-03-19T08:49:35Z</time>
      </trkpt>
      <trkpt lat="45.58962" lon="4.38255">
        <ele>559.8</ele>
        <time>2017-03-19T08:49:37Z</time>
      </trkpt>
      <trkpt lat="45.58964" lon="4.38258">
        <ele>560</ele>
        <time>2017-03-19T08:49:38Z</time>
      </trkpt>
      <trkpt lat="45.58966" lon="4.38261">
        <ele>560.2</ele>
        <time>2017-03-19T08:49:39Z</time>
      </trkpt>
      <trkpt lat="45.58968" lon="4.38265">
        <ele>560.4</ele>
        <time>2017-03-19T08:49:40Z</time>
      </trkpt>
      <trkpt lat="45.5897" lon="4.38268">
        <ele>560.7</ele>
        <time>2017-03-19T08:49:41Z</time>
      </trkpt>
      <trkpt lat="45.58973" lon="4.38272">
        <ele>560.9</ele>
        <time>2017-03-19T08:49:42Z</time>
      </trkpt>
      <trkpt lat="45.58975" lon="4.38276">
        <ele>561.1</ele>
        <time>2017-03-19T08:49:43Z</time>
      </trkpt>
      <trkpt lat="45.58977" lon="4.3828">
        <ele>561.4</ele>
        <time>2017-03-19T08:49:44Z</time>
      </trkpt>
      <trkpt lat="45.5898" lon="4.38284">
        <ele>561.6</ele>
        <time>2017-03-19T08:49:45Z</time>
      </trkpt>
      <trkpt lat="45.58982" lon="4.38288">
        <ele>561.8</ele>
        <time>2017-03-19T08:49:46Z</time>
      </trkpt>
      <trkpt lat="45.58985" lon="4.38291">
        <ele>562.1</ele>
        <time>2017-03-19T08:49:47Z</time>
      </trkpt>
      <trkpt lat="45.58988" lon="4.38295">
        <ele>562.3</ele>
        <time>2017-03-19T08:49:48Z</time>
      </trkpt>
      <trkpt lat="45.5899" lon="4.38299">
        <ele>562.5</ele>
        <time>2017-03-19T08:49:49Z</time>
      </trkpt>
      <trkpt lat="45.58992" lon="4.38302">
        <ele>562.7</ele>
        <time>2017-03-19T08:49:50Z</time>
      </trkpt>
      <trkpt lat="45.58995" lon="4.38306">
        <ele>562.8</ele>
        <time>2017-03-19T08:49:51Z</time>
      </trkpt>
      <trkpt lat="45.58997" lon="4.38309">
        <ele>563</ele>
        <time>2017-03-19T08:49:52Z</time>
      </trkpt>
      <trkpt lat="45.59" lon="4.38313">
        <ele>563.2</ele>
        <time>2017-03-19T08:49:53Z</time>
      </trkpt>
      <trkpt lat="45.59002" lon="4.38317">
        <ele>563.4</ele>
        <time>2017-03-19T08:49:54Z</time>
      </trkpt>
      <trkpt lat="45.59005" lon="4.38321">
        <ele>563.5</ele>
        <time>2017-03-19T08:49:55Z</time>
      </trkpt>
      <trkpt lat="45.59007" lon="4.38324">
        <ele>563.7</ele>
        <time>2017-03-19T08:49:56Z</time>
      </trkpt>
      <trkpt lat="45.5901" lon="4.38328">
        <ele>563.8</ele>
        <time>2017-03-19T08:49:57Z</time>
      </trkpt>
      <trkpt lat="45.59012" lon="4.38332">
        <ele>564</ele>
        <time>2017-03-19T08:49:58Z</time>
      </trkpt>
      <trkpt lat="45.59015" lon="4.38336">
        <ele>564.1</ele>
        <time>2017-03-19T08:49:59Z</time>
      </trkpt>
      <trkpt lat="45.59017" lon="4.3834">
        <ele>564.2</ele>
        <time>2017-03-19T08:50:00Z</time>
      </trkpt>
      <trkpt lat="45.5902" lon="4.38344">
        <ele>564.4</ele>
        <time>2017-03-19T08:50:01Z</time>
      </trkpt>
      <trkpt lat="45.59022" lon="4.38348">
        <ele>564.5</ele>
        <time>2017-03-19T08:50:02Z</time>
      </trkpt>
      <trkpt lat="45.59024" lon="4.38352">
        <ele>564.6</ele>
        <time>2017-03-19T08:50:03Z</time>
      </trkpt>
      <trkpt lat="45.59026" lon="4.38357">
        <ele>564.8</ele>
        <time>2017-03-19T08:50:04Z</time>
      </trkpt>
      <trkpt lat="45.59028" lon="4.38361">
        <ele>564.9</ele>
        <time>2017-03-19T08:50:05Z</time>
      </trkpt>
      <trkpt lat="45.5903" lon="4.38366">
        <ele>565</ele>
        <time>2017-03-19T08:50:06Z</time>
      </trkpt>
      <trkpt lat="45.59031" lon="4.38371">
        <ele>565.2</ele>
        <time>2017-03-19T08:50:07Z</time>
      </trkpt>
      <trkpt lat="45.59032" lon="4.38376">
        <ele>565.3</ele>
        <time>2017-03-19T08:50:08Z</time>
      </trkpt>
      <trkpt lat="45.59033" lon="4.3838">
        <ele>565.5</ele>
        <time>2017-03-19T08:50:09Z</time>
      </trkpt>
      <trkpt lat="45.59034" lon="4.38386">
        <ele>565.6</ele>
        <time>2017-03-19T08:50:10Z</time>
      </trkpt>
      <trkpt lat="45.59035" lon="4.38391">
        <ele>565.8</ele>
        <time>2017-03-19T08:50:11Z</time>
      </trkpt>
      <trkpt lat="45.59035" lon="4.38396">
        <ele>565.9</ele>
        <time>2017-03-19T08:50:12Z</time>
      </trkpt>
      <trkpt lat="45.59036" lon="4.38401">
        <ele>566.1</ele>
        <time>2017-03-19T08:50:13Z</time>
      </trkpt>
      <trkpt lat="45.59036" lon="4.38407">
        <ele>566.2</ele>
        <time>2017-03-19T08:50:14Z</time>
      </trkpt>
      <trkpt lat="45.59036" lon="4.38412">
        <ele>566.4</ele>
        <time>2017-03-19T08:50:15Z</time>
      </trkpt>
      <trkpt lat="45.59036" lon="4.38418">
        <ele>566.6</ele>
        <time>2017-03-19T08:50:16Z</time>
      </trkpt>
      <trkpt lat="45.59036" lon="4.38423">
        <ele>566.7</ele>
        <time>2017-03-19T08:50:17Z</time>
      </trkpt>
      <trkpt lat="45.59036" lon="4.38428">
        <ele>566.9</ele>
        <time>2017-03-19T08:50:18Z</time>
      </trkpt>
      <trkpt lat="45.59035" lon="4.38434">
        <ele>567</ele>
        <time>2017-03-19T08:50:19Z</time>
      </trkpt>
      <trkpt lat="45.59035" lon="4.3844">
        <ele>567.2</ele>
        <time>2017-03-19T08:50:20Z</time>
      </trkpt>
      <trkpt lat="45.59035" lon="4.38445">
        <ele>567.3</ele>
        <time>2017-03-19T08:50:21Z</time>
      </trkpt>
      <trkpt lat="45.59036" lon="4.38451">
        <ele>567.5</ele>
        <time>2017-03-19T08:50:22Z</time>
      </trkpt>
      <trkpt lat="45.59036" lon="4.38457">
        <ele>567.6</ele>
        <time>2017-03-19T08:50:23Z</time>
      </trkpt>
      <trkpt lat="45.59036" lon="4.38463">
        <ele>567.7</ele>
        <time>2017-03-19T08:50:24Z</time>
      </trkpt>
      <trkpt lat="45.59036" lon="4.38468">
        <ele>567.8</ele>
        <time>2017-03-19T08:50:25Z</time>
      </trkpt>
      <trkpt lat="45.59037" lon="4.38474">
        <ele>567.9</ele>
        <time>2017-03-19T08:50:26Z</time>
      </trkpt>
      <trkpt lat="45.59037" lon="4.3848">
        <ele>568.1</ele>
        <time>2017-03-19T08:50:27Z</time>
      </trkpt>
      <trkpt lat="45.59037" lon="4.38486">
        <ele>568.2</ele>
        <time>2017-03-19T08:50:28Z</time>
      </trkpt>
      <trkpt lat="45.59038" lon="4.38492">
        <ele>568.3</ele>
        <time>2017-03-19T08:50:29Z</time>
      </trkpt>
      <trkpt lat="45.59039" lon="4.38499">
        <ele>568.4</ele>
        <time>2017-03-19T08:50:30Z</time>
      </trkpt>
      <trkpt lat="45.59039" lon="4.38505">
        <ele>568.5</ele>
        <time>2017-03-19T08:50:31Z</time>
      </trkpt>
      <trkpt lat="45.59039" lon="4.38512">
        <ele>568.7</ele>
        <time>2017-03-19T08:50:32Z</time>
      </trkpt>
      <trkpt lat="45.59038" lon="4.38519">
        <ele>568.9</ele>
        <time>2017-03-19T08:50:33Z</time>
      </trkpt>
      <trkpt lat="45.59038" lon="4.38527">
        <ele>569.1</ele>
        <time>2017-03-19T08:50:34Z</time>
      </trkpt>
      <trkpt lat="45.59038" lon="4.38533">
        <ele>569.3</ele>
        <time>2017-03-19T08:50:35Z</time>
      </trkpt>
      <trkpt lat="45.59037" lon="4.3854">
        <ele>569.6</ele>
        <time>2017-03-19T08:50:36Z</time>
      </trkpt>
      <trkpt lat="45.59036" lon="4.38547">
        <ele>569.8</ele>
        <time>2017-03-19T08:50:37Z</time>
      </trkpt>
      <trkpt lat="45.59036" lon="4.38552">
        <ele>570.1</ele>
        <time>2017-03-19T08:50:38Z</time>
      </trkpt>
      <trkpt lat="45.59035" lon="4.38558">
        <ele>570.3</ele>
        <time>2017-03-19T08:50:39Z</time>
      </trkpt>
      <trkpt lat="45.59034" lon="4.38564">
        <ele>570.5</ele>
        <time>2017-03-19T08:50:40Z</time>
      </trkpt>
      <trkpt lat="45.59034" lon="4.38569">
        <ele>570.7</ele>
        <time>2017-03-19T08:50:41Z</time>
      </trkpt>
      <trkpt lat="45.59034" lon="4.38574">
        <ele>571</ele>
        <time>2017-03-19T08:50:42Z</time>
      </trkpt>
      <trkpt lat="45.59033" lon="4.38579">
        <ele>571.2</ele>
        <time>2017-03-19T08:50:43Z</time>
      </trkpt>
      <trkpt lat="45.59033" lon="4.38585">
        <ele>571.4</ele>
        <time>2017-03-19T08:50:44Z</time>
      </trkpt>
      <trkpt lat="45.59032" lon="4.3859">
        <ele>571.6</ele>
        <time>2017-03-19T08:50:45Z</time>
      </trkpt>
      <trkpt lat="45.59032" lon="4.38596">
        <ele>571.9</ele>
        <time>2017-03-19T08:50:46Z</time>
      </trkpt>
      <trkpt lat="45.59031" lon="4.38602">
        <ele>572.1</ele>
        <time>2017-03-19T08:50:47Z</time>
      </trkpt>
      <trkpt lat="45.59031" lon="4.38608">
        <ele>572.4</ele>
        <time>2017-03-19T08:50:48Z</time>
      </trkpt>
      <trkpt lat="45.59031" lon="4.38614">
        <ele>572.6</ele>
        <time>2017-03-19T08:50:49Z</time>
      </trkpt>
      <trkpt lat="45.5903" lon="4.3862">
        <ele>572.8</ele>
        <time>2017-03-19T08:50:50Z</time>
      </trkpt>
      <trkpt lat="45.5903" lon="4.38625">
        <ele>573.1</ele>
        <time>2017-03-19T08:50:51Z</time>
      </trkpt>
      <trkpt lat="45.59029" lon="4.38631">
        <ele>573.3</ele>
        <time>2017-03-19T08:50:52Z</time>
      </trkpt>
      <trkpt lat="45.59029" lon="4.38635">
        <ele>573.5</ele>
        <time>2017-03-19T08:50:53Z</time>
      </trkpt>
      <trkpt lat="45.59028" lon="4.3864">
        <ele>573.7</ele>
        <time>2017-03-19T08:50:54Z</time>
      </trkpt>
      <trkpt lat="45.59028" lon="4.38644">
        <ele>573.9</ele>
        <time>2017-03-19T08:50:55Z</time>
      </trkpt>
      <trkpt lat="45.59027" lon="4.38649">
        <ele>574.1</ele>
        <time>2017-03-19T08:50:56Z</time>
      </trkpt>
      <trkpt lat="45.59027" lon="4.38654">
        <ele>574.3</ele>
        <time>2017-03-19T08:50:57Z</time>
      </trkpt>
      <trkpt lat="45.59026" lon="4.38659">
        <ele>574.5</ele>
        <time>2017-03-19T08:50:58Z</time>
      </trkpt>
      <trkpt lat="45.59026" lon="4.38664">
        <ele>574.8</ele>
        <time>2017-03-19T08:50:59Z</time>
      </trkpt>
      <trkpt lat="45.59025" lon="4.3867">
        <ele>575</ele>
        <time>2017-03-19T08:51:00Z</time>
      </trkpt>
      <trkpt lat="45.59025" lon="4.38676">
        <ele>575.2</ele>
        <time>2017-03-19T08:51:01Z</time>
      </trkpt>
      <trkpt lat="45.59024" lon="4.38682">
        <ele>575.4</ele>
        <time>2017-03-19T08:51:02Z</time>
      </trkpt>
      <trkpt lat="45.59024" lon="4.38688">
        <ele>575.6</ele>
        <time>2017-03-19T08:51:03Z</time>
      </trkpt>
      <trkpt lat="45.59024" lon="4.38694">
        <ele>575.7</ele>
        <time>2017-03-19T08:51:04Z</time>
      </trkpt>
      <trkpt lat="45.59023" lon="4.387">
        <ele>575.9</ele>
        <time>2017-03-19T08:51:05Z</time>
      </trkpt>
      <trkpt lat="45.59023" lon="4.38706">
        <ele>576</ele>
        <time>2017-03-19T08:51:06Z</time>
      </trkpt>
      <trkpt lat="45.59022" lon="4.38712">
        <ele>576.2</ele>
        <time>2017-03-19T08:51:07Z</time>
      </trkpt>
      <trkpt lat="45.59021" lon="4.38718">
        <ele>576.3</ele>
        <time>2017-03-19T08:51:08Z</time>
      </trkpt>
      <trkpt lat="45.59021" lon="4.38724">
        <ele>576.4</ele>
        <time>2017-03-19T08:51:09Z</time>
      </trkpt>
      <trkpt lat="45.5902" lon="4.3873">
        <ele>576.5</ele>
        <time>2017-03-19T08:51:10Z</time>
      </trkpt>
      <trkpt lat="45.59019" lon="4.38736">
        <ele>576.7</ele>
        <time>2017-03-19T08:51:11Z</time>
      </trkpt>
      <trkpt lat="45.59018" lon="4.38744">
        <ele>576.8</ele>
        <time>2017-03-19T08:51:12Z</time>
      </trkpt>
      <trkpt lat="45.59017" lon="4.3875">
        <ele>577</ele>
        <time>2017-03-19T08:51:13Z</time>
      </trkpt>
      <trkpt lat="45.59016" lon="4.38756">
        <ele>577.2</ele>
        <time>2017-03-19T08:51:14Z</time>
      </trkpt>
      <trkpt lat="45.59015" lon="4.38763">
        <ele>577.4</ele>
        <time>2017-03-19T08:51:15Z</time>
      </trkpt>
      <trkpt lat="45.59014" lon="4.3877">
        <ele>577.6</ele>
        <time>2017-03-19T08:51:16Z</time>
      </trkpt>
      <trkpt lat="45.59013" lon="4.38777">
        <ele>577.8</ele>
        <time>2017-03-19T08:51:17Z</time>
      </trkpt>
      <trkpt lat="45.59012" lon="4.38784">
        <ele>578.1</ele>
        <time>2017-03-19T08:51:18Z</time>
      </trkpt>
      <trkpt lat="45.59011" lon="4.38789">
        <ele>578.3</ele>
        <time>2017-03-19T08:51:19Z</time>
      </trkpt>
      <trkpt lat="45.5901" lon="4.38797">
        <ele>578.5</ele>
        <time>2017-03-19T08:51:20Z</time>
      </trkpt>
      <trkpt lat="45.59009" lon="4.38803">
        <ele>578.8</ele>
        <time>2017-03-19T08:51:21Z</time>
      </trkpt>
      <trkpt lat="45.59008" lon="4.38811">
        <ele>579</ele>
        <time>2017-03-19T08:51:22Z</time>
      </trkpt>
      <trkpt lat="45.59007" lon="4.38818">
        <ele>579.3</ele>
        <time>2017-03-19T08:51:23Z</time>
      </trkpt>
      <trkpt lat="45.59006" lon="4.38824">
        <ele>579.4</ele>
        <time>2017-03-19T08:51:24Z</time>
      </trkpt>
      <trkpt lat="45.59005" lon="4.38831">
        <ele>579.6</ele>
        <time>2017-03-19T08:51:25Z</time>
      </trkpt>
      <trkpt lat="45.59004" lon="4.38838">
        <ele>579.8</ele>
        <time>2017-03-19T08:51:26Z</time>
      </trkpt>
      <trkpt lat="45.59003" lon="4.38845">
        <ele>579.9</ele>
        <time>2017-03-19T08:51:27Z</time>
      </trkpt>
      <trkpt lat="45.59002" lon="4.38853">
        <ele>579.9</ele>
        <time>2017-03-19T08:51:28Z</time>
      </trkpt>
      <trkpt lat="45.59001" lon="4.38859">
        <ele>579.7</ele>
        <time>2017-03-19T08:51:29Z</time>
      </trkpt>
      <trkpt lat="45.59001" lon="4.38867">
        <ele>579.5</ele>
        <time>2017-03-19T08:51:30Z</time>
      </trkpt>
      <trkpt lat="45.59" lon="4.38874">
        <ele>579.3</ele>
        <time>2017-03-19T08:51:31Z</time>
      </trkpt>
      <trkpt lat="45.58999" lon="4.38881">
        <ele>579.2</ele>
        <time>2017-03-19T08:51:32Z</time>
      </trkpt>
      <trkpt lat="45.58998" lon="4.38888">
        <ele>579</ele>
        <time>2017-03-19T08:51:33Z</time>
      </trkpt>
      <trkpt lat="45.58997" lon="4.38894">
        <ele>578.9</ele>
        <time>2017-03-19T08:51:34Z</time>
      </trkpt>
      <trkpt lat="45.58996" lon="4.38902">
        <ele>578.7</ele>
        <time>2017-03-19T08:51:35Z</time>
      </trkpt>
      <trkpt lat="45.58995" lon="4.38909">
        <ele>578.6</ele>
        <time>2017-03-19T08:51:36Z</time>
      </trkpt>
      <trkpt lat="45.58995" lon="4.38916">
        <ele>578.4</ele>
        <time>2017-03-19T08:51:37Z</time>
      </trkpt>
      <trkpt lat="45.58994" lon="4.38923">
        <ele>578.2</ele>
        <time>2017-03-19T08:51:38Z</time>
      </trkpt>
      <trkpt lat="45.58993" lon="4.3893">
        <ele>578</ele>
        <time>2017-03-19T08:51:39Z</time>
      </trkpt>
      <trkpt lat="45.58992" lon="4.38936">
        <ele>577.8</ele>
        <time>2017-03-19T08:51:40Z</time>
      </trkpt>
      <trkpt lat="45.58991" lon="4.38944">
        <ele>577.5</ele>
        <time>2017-03-19T08:51:41Z</time>
      </trkpt>
      <trkpt lat="45.58991" lon="4.38951">
        <ele>577.2</ele>
        <time>2017-03-19T08:51:42Z</time>
      </trkpt>
      <trkpt lat="45.5899" lon="4.38958">
        <ele>577</ele>
        <time>2017-03-19T08:51:43Z</time>
      </trkpt>
      <trkpt lat="45.58988" lon="4.38965">
        <ele>576.7</ele>
        <time>2017-03-19T08:51:44Z</time>
      </trkpt>
      <trkpt lat="45.58987" lon="4.38972">
        <ele>576.4</ele>
        <time>2017-03-19T08:51:45Z</time>
      </trkpt>
      <trkpt lat="45.58986" lon="4.38979">
        <ele>576.1</ele>
        <time>2017-03-19T08:51:46Z</time>
      </trkpt>
      <trkpt lat="45.58985" lon="4.38987">
        <ele>576.2</ele>
        <time>2017-03-19T08:51:47Z</time>
      </trkpt>
      <trkpt lat="45.58984" lon="4.38993">
        <ele>576.3</ele>
        <time>2017-03-19T08:51:48Z</time>
      </trkpt>
      <trkpt lat="45.58983" lon="4.39">
        <ele>576.5</ele>
        <time>2017-03-19T08:51:49Z</time>
      </trkpt>
      <trkpt lat="45.58982" lon="4.39007">
        <ele>576.7</ele>
        <time>2017-03-19T08:51:50Z</time>
      </trkpt>
      <trkpt lat="45.58982" lon="4.39014">
        <ele>576.8</ele>
        <time>2017-03-19T08:51:51Z</time>
      </trkpt>
      <trkpt lat="45.58981" lon="4.39021">
        <ele>577</ele>
        <time>2017-03-19T08:51:52Z</time>
      </trkpt>
      <trkpt lat="45.5898" lon="4.39027">
        <ele>577.1</ele>
        <time>2017-03-19T08:51:53Z</time>
      </trkpt>
      <trkpt lat="45.5898" lon="4.39034">
        <ele>577.3</ele>
        <time>2017-03-19T08:51:54Z</time>
      </trkpt>
      <trkpt lat="45.58979" lon="4.39041">
        <ele>577.4</ele>
        <time>2017-03-19T08:51:55Z</time>
      </trkpt>
      <trkpt lat="45.58978" lon="4.39047">
        <ele>577.6</ele>
        <time>2017-03-19T08:51:56Z</time>
      </trkpt>
      <trkpt lat="45.58977" lon="4.39054">
        <ele>577.7</ele>
        <time>2017-03-19T08:51:57Z</time>
      </trkpt>
      <trkpt lat="45.58976" lon="4.39062">
        <ele>577.9</ele>
        <time>2017-03-19T08:51:58Z</time>
      </trkpt>
      <trkpt lat="45.58975" lon="4.39069">
        <ele>578</ele>
        <time>2017-03-19T08:51:59Z</time>
      </trkpt>
      <trkpt lat="45.58973" lon="4.39075">
        <ele>578.1</ele>
        <time>2017-03-19T08:52:00Z</time>
      </trkpt>
      <trkpt lat="45.58972" lon="4.39083">
        <ele>578.3</ele>
        <time>2017-03-19T08:52:01Z</time>
      </trkpt>
      <trkpt lat="45.5897" lon="4.3909">
        <ele>578.5</ele>
        <time>2017-03-19T08:52:02Z</time>
      </trkpt>
      <trkpt lat="45.58968" lon="4.39097">
        <ele>578.7</ele>
        <time>2017-03-19T08:52:03Z</time>
      </trkpt>
      <trkpt lat="45.58965" lon="4.39102">
        <ele>578.9</ele>
        <time>2017-03-19T08:52:04Z</time>
      </trkpt>
      <trkpt lat="45.58963" lon="4.39109">
        <ele>579.2</ele>
        <time>2017-03-19T08:52:05Z</time>
      </trkpt>
      <trkpt lat="45.58959" lon="4.39117">
        <ele>579.5</ele>
        <time>2017-03-19T08:52:06Z</time>
      </trkpt>
      <trkpt lat="45.58955" lon="4.39122">
        <ele>579.8</ele>
        <time>2017-03-19T08:52:07Z</time>
      </trkpt>
      <trkpt lat="45.58952" lon="4.39128">
        <ele>580.2</ele>
        <time>2017-03-19T08:52:08Z</time>
      </trkpt>
      <trkpt lat="45.58949" lon="4.39135">
        <ele>580.6</ele>
        <time>2017-03-19T08:52:09Z</time>
      </trkpt>
      <trkpt lat="45.58946" lon="4.39141">
        <ele>581</ele>
        <time>2017-03-19T08:52:10Z</time>
      </trkpt>
      <trkpt lat="45.58943" lon="4.39148">
        <ele>581.4</ele>
        <time>2017-03-19T08:52:11Z</time>
      </trkpt>
      <trkpt lat="45.5894" lon="4.39154">
        <ele>581.8</ele>
        <time>2017-03-19T08:52:12Z</time>
      </trkpt>
      <trkpt lat="45.58937" lon="4.3916">
        <ele>582.2</ele>
        <time>2017-03-19T08:52:13Z</time>
      </trkpt>
      <trkpt lat="45.58935" lon="4.39166">
        <ele>582.5</ele>
        <time>2017-03-19T08:52:14Z</time>
      </trkpt>
      <trkpt lat="45.58931" lon="4.39172">
        <ele>582.9</ele>
        <time>2017-03-19T08:52:15Z</time>
      </trkpt>
      <trkpt lat="45.58929" lon="4.39178">
        <ele>583.2</ele>
        <time>2017-03-19T08:52:16Z</time>
      </trkpt>
      <trkpt lat="45.58927" lon="4.39184">
        <ele>583.5</ele>
        <time>2017-03-19T08:52:17Z</time>
      </trkpt>
      <trkpt lat="45.58925" lon="4.39191">
        <ele>583.9</ele>
        <time>2017-03-19T08:52:18Z</time>
      </trkpt>
      <trkpt lat="45.58924" lon="4.39197">
        <ele>584.2</ele>
        <time>2017-03-19T08:52:19Z</time>
      </trkpt>
      <trkpt lat="45.58922" lon="4.39204">
        <ele>584.5</ele>
        <time>2017-03-19T08:52:20Z</time>
      </trkpt>
      <trkpt lat="45.5892" lon="4.3921">
        <ele>584.8</ele>
        <time>2017-03-19T08:52:21Z</time>
      </trkpt>
      <trkpt lat="45.58919" lon="4.39217">
        <ele>585</ele>
        <time>2017-03-19T08:52:22Z</time>
      </trkpt>
      <trkpt lat="45.58918" lon="4.39224">
        <ele>585.3</ele>
        <time>2017-03-19T08:52:23Z</time>
      </trkpt>
      <trkpt lat="45.58918" lon="4.3923">
        <ele>585.5</ele>
        <time>2017-03-19T08:52:24Z</time>
      </trkpt>
      <trkpt lat="45.58918" lon="4.39236">
        <ele>585.7</ele>
        <time>2017-03-19T08:52:25Z</time>
      </trkpt>
      <trkpt lat="45.58919" lon="4.39243">
        <ele>585.9</ele>
        <time>2017-03-19T08:52:26Z</time>
      </trkpt>
      <trkpt lat="45.58918" lon="4.3925">
        <ele>586.1</ele>
        <time>2017-03-19T08:52:27Z</time>
      </trkpt>
      <trkpt lat="45.58918" lon="4.39257">
        <ele>586.3</ele>
        <time>2017-03-19T08:52:28Z</time>
      </trkpt>
      <trkpt lat="45.58918" lon="4.39264">
        <ele>586.4</ele>
        <time>2017-03-19T08:52:29Z</time>
      </trkpt>
      <trkpt lat="45.58918" lon="4.39272">
        <ele>586.6</ele>
        <time>2017-03-19T08:52:30Z</time>
      </trkpt>
      <trkpt lat="45.58917" lon="4.39278">
        <ele>586.8</ele>
        <time>2017-03-19T08:52:31Z</time>
      </trkpt>
      <trkpt lat="45.58917" lon="4.39285">
        <ele>587</ele>
        <time>2017-03-19T08:52:32Z</time>
      </trkpt>
      <trkpt lat="45.58917" lon="4.39292">
        <ele>587.3</ele>
        <time>2017-03-19T08:52:33Z</time>
      </trkpt>
      <trkpt lat="45.58916" lon="4.39299">
        <ele>587.5</ele>
        <time>2017-03-19T08:52:34Z</time>
      </trkpt>
      <trkpt lat="45.58915" lon="4.39306">
        <ele>587.8</ele>
        <time>2017-03-19T08:52:35Z</time>
      </trkpt>
      <trkpt lat="45.58915" lon="4.39312">
        <ele>588</ele>
        <time>2017-03-19T08:52:36Z</time>
      </trkpt>
      <trkpt lat="45.58915" lon="4.39318">
        <ele>588.2</ele>
        <time>2017-03-19T08:52:37Z</time>
      </trkpt>
      <trkpt lat="45.58914" lon="4.39323">
        <ele>588.5</ele>
        <time>2017-03-19T08:52:38Z</time>
      </trkpt>
      <trkpt lat="45.58913" lon="4.39329">
        <ele>588.7</ele>
        <time>2017-03-19T08:52:39Z</time>
      </trkpt>
      <trkpt lat="45.58912" lon="4.39334">
        <ele>588.9</ele>
        <time>2017-03-19T08:52:40Z</time>
      </trkpt>
      <trkpt lat="45.58911" lon="4.39338">
        <ele>589</ele>
        <time>2017-03-19T08:52:41Z</time>
      </trkpt>
      <trkpt lat="45.5891" lon="4.39343">
        <ele>589.1</ele>
        <time>2017-03-19T08:52:42Z</time>
      </trkpt>
      <trkpt lat="45.58909" lon="4.39348">
        <ele>589.1</ele>
        <time>2017-03-19T08:52:43Z</time>
      </trkpt>
      <trkpt lat="45.58909" lon="4.39354">
        <ele>589.1</ele>
        <time>2017-03-19T08:52:44Z</time>
      </trkpt>
      <trkpt lat="45.58909" lon="4.3936">
        <ele>589.2</ele>
        <time>2017-03-19T08:52:45Z</time>
      </trkpt>
      <trkpt lat="45.58909" lon="4.39365">
        <ele>589.2</ele>
        <time>2017-03-19T08:52:46Z</time>
      </trkpt>
      <trkpt lat="45.5891" lon="4.39371">
        <ele>589.3</ele>
        <time>2017-03-19T08:52:47Z</time>
      </trkpt>
      <trkpt lat="45.5891" lon="4.39376">
        <ele>589.3</ele>
        <time>2017-03-19T08:52:48Z</time>
      </trkpt>
      <trkpt lat="45.58911" lon="4.39382">
        <ele>589.4</ele>
        <time>2017-03-19T08:52:49Z</time>
      </trkpt>
      <trkpt lat="45.58912" lon="4.39388">
        <ele>589.4</ele>
        <time>2017-03-19T08:52:50Z</time>
      </trkpt>
      <trkpt lat="45.58913" lon="4.39393">
        <ele>589.5</ele>
        <time>2017-03-19T08:52:51Z</time>
      </trkpt>
      <trkpt lat="45.58913" lon="4.39399">
        <ele>589.5</ele>
        <time>2017-03-19T08:52:52Z</time>
      </trkpt>
      <trkpt lat="45.58914" lon="4.39404">
        <ele>589.6</ele>
        <time>2017-03-19T08:52:53Z</time>
      </trkpt>
      <trkpt lat="45.58914" lon="4.3941">
        <ele>589.7</ele>
        <time>2017-03-19T08:52:54Z</time>
      </trkpt>
      <trkpt lat="45.58915" lon="4.39416">
        <ele>589.8</ele>
        <time>2017-03-19T08:52:55Z</time>
      </trkpt>
      <trkpt lat="45.58916" lon="4.39423">
        <ele>589.8</ele>
        <time>2017-03-19T08:52:56Z</time>
      </trkpt>
      <trkpt lat="45.58917" lon="4.39429">
        <ele>589.9</ele>
        <time>2017-03-19T08:52:57Z</time>
      </trkpt>
      <trkpt lat="45.58917" lon="4.39435">
        <ele>590</ele>
        <time>2017-03-19T08:52:58Z</time>
      </trkpt>
      <trkpt lat="45.58918" lon="4.39441">
        <ele>590.1</ele>
        <time>2017-03-19T08:52:59Z</time>
      </trkpt>
      <trkpt lat="45.58919" lon="4.39447">
        <ele>590.2</ele>
        <time>2017-03-19T08:53:00Z</time>
      </trkpt>
      <trkpt lat="45.58918" lon="4.39453">
        <ele>590.2</ele>
        <time>2017-03-19T08:53:01Z</time>
      </trkpt>
      <trkpt lat="45.58916" lon="4.39459">
        <ele>590.3</ele>
        <time>2017-03-19T08:53:02Z</time>
      </trkpt>
      <trkpt lat="45.58918" lon="4.39466">
        <ele>590.4</ele>
        <time>2017-03-19T08:53:03Z</time>
      </trkpt>
      <trkpt lat="45.58919" lon="4.39472">
        <ele>590.5</ele>
        <time>2017-03-19T08:53:04Z</time>
      </trkpt>
      <trkpt lat="45.5892" lon="4.39478">
        <ele>590.6</ele>
        <time>2017-03-19T08:53:05Z</time>
      </trkpt>
      <trkpt lat="45.58921" lon="4.39484">
        <ele>590.6</ele>
        <time>2017-03-19T08:53:06Z</time>
      </trkpt>
      <trkpt lat="45.58922" lon="4.39491">
        <ele>590.7</ele>
        <time>2017-03-19T08:53:07Z</time>
      </trkpt>
      <trkpt lat="45.58922" lon="4.39496">
        <ele>590.8</ele>
        <time>2017-03-19T08:53:08Z</time>
      </trkpt>
      <trkpt lat="45.58923" lon="4.39502">
        <ele>590.8</ele>
        <time>2017-03-19T08:53:09Z</time>
      </trkpt>
      <trkpt lat="45.58924" lon="4.39508">
        <ele>590.9</ele>
        <time>2017-03-19T08:53:10Z</time>
      </trkpt>
      <trkpt lat="45.58925" lon="4.39513">
        <ele>591</ele>
        <time>2017-03-19T08:53:11Z</time>
      </trkpt>
      <trkpt lat="45.58926" lon="4.39519">
        <ele>591.1</ele>
        <time>2017-03-19T08:53:12Z</time>
      </trkpt>
      <trkpt lat="45.58927" lon="4.39524">
        <ele>591.1</ele>
        <time>2017-03-19T08:53:13Z</time>
      </trkpt>
      <trkpt lat="45.58928" lon="4.39529">
        <ele>591.2</ele>
        <time>2017-03-19T08:53:14Z</time>
      </trkpt>
      <trkpt lat="45.58929" lon="4.39534">
        <ele>591.3</ele>
        <time>2017-03-19T08:53:15Z</time>
      </trkpt>
      <trkpt lat="45.5893" lon="4.39539">
        <ele>591.4</ele>
        <time>2017-03-19T08:53:16Z</time>
      </trkpt>
      <trkpt lat="45.58931" lon="4.39544">
        <ele>591.5</ele>
        <time>2017-03-19T08:53:17Z</time>
      </trkpt>
      <trkpt lat="45.58932" lon="4.3955">
        <ele>591.6</ele>
        <time>2017-03-19T08:53:18Z</time>
      </trkpt>
      <trkpt lat="45.58933" lon="4.39555">
        <ele>591.7</ele>
        <time>2017-03-19T08:53:19Z</time>
      </trkpt>
      <trkpt lat="45.58934" lon="4.3956">
        <ele>591.8</ele>
        <time>2017-03-19T08:53:20Z</time>
      </trkpt>
      <trkpt lat="45.58934" lon="4.39566">
        <ele>592</ele>
        <time>2017-03-19T08:53:21Z</time>
      </trkpt>
      <trkpt lat="45.58935" lon="4.39571">
        <ele>592.1</ele>
        <time>2017-03-19T08:53:22Z</time>
      </trkpt>
      <trkpt lat="45.58935" lon="4.39577">
        <ele>592.2</ele>
        <time>2017-03-19T08:53:23Z</time>
      </trkpt>
      <trkpt lat="45.58935" lon="4.39582">
        <ele>592.3</ele>
        <time>2017-03-19T08:53:24Z</time>
      </trkpt>
      <trkpt lat="45.58936" lon="4.39588">
        <ele>592.5</ele>
        <time>2017-03-19T08:53:25Z</time>
      </trkpt>
      <trkpt lat="45.58937" lon="4.39594">
        <ele>592.6</ele>
        <time>2017-03-19T08:53:26Z</time>
      </trkpt>
      <trkpt lat="45.58938" lon="4.39599">
        <ele>592.8</ele>
        <time>2017-03-19T08:53:27Z</time>
      </trkpt>
      <trkpt lat="45.58938" lon="4.39604">
        <ele>593</ele>
        <time>2017-03-19T08:53:28Z</time>
      </trkpt>
      <trkpt lat="45.58939" lon="4.39609">
        <ele>593.1</ele>
        <time>2017-03-19T08:53:29Z</time>
      </trkpt>
      <trkpt lat="45.5894" lon="4.39613">
        <ele>593.1</ele>
        <time>2017-03-19T08:53:30Z</time>
      </trkpt>
      <trkpt lat="45.5894" lon="4.39618">
        <ele>593.2</ele>
        <time>2017-03-19T08:53:31Z</time>
      </trkpt>
      <trkpt lat="45.58941" lon="4.39623">
        <ele>593.2</ele>
        <time>2017-03-19T08:53:32Z</time>
      </trkpt>
      <trkpt lat="45.58941" lon="4.39628">
        <ele>593.3</ele>
        <time>2017-03-19T08:53:33Z</time>
      </trkpt>
      <trkpt lat="45.58942" lon="4.39632">
        <ele>593.3</ele>
        <time>2017-03-19T08:53:34Z</time>
      </trkpt>
      <trkpt lat="45.58942" lon="4.39637">
        <ele>593.4</ele>
        <time>2017-03-19T08:53:35Z</time>
      </trkpt>
      <trkpt lat="45.58943" lon="4.39642">
        <ele>593.4</ele>
        <time>2017-03-19T08:53:36Z</time>
      </trkpt>
      <trkpt lat="45.58943" lon="4.39647">
        <ele>593.5</ele>
        <time>2017-03-19T08:53:37Z</time>
      </trkpt>
      <trkpt lat="45.58943" lon="4.39652">
        <ele>593.5</ele>
        <time>2017-03-19T08:53:38Z</time>
      </trkpt>
      <trkpt lat="45.58942" lon="4.39657">
        <ele>593.6</ele>
        <time>2017-03-19T08:53:39Z</time>
      </trkpt>
      <trkpt lat="45.58942" lon="4.39662">
        <ele>593.7</ele>
        <time>2017-03-19T08:53:40Z</time>
      </trkpt>
      <trkpt lat="45.58942" lon="4.39667">
        <ele>593.8</ele>
        <time>2017-03-19T08:53:41Z</time>
      </trkpt>
      <trkpt lat="45.58942" lon="4.39672">
        <ele>593.8</ele>
        <time>2017-03-19T08:53:42Z</time>
      </trkpt>
      <trkpt lat="45.58942" lon="4.39677">
        <ele>593.9</ele>
        <time>2017-03-19T08:53:43Z</time>
      </trkpt>
      <trkpt lat="45.58941" lon="4.39682">
        <ele>594</ele>
        <time>2017-03-19T08:53:44Z</time>
      </trkpt>
      <trkpt lat="45.58941" lon="4.39687">
        <ele>594</ele>
        <time>2017-03-19T08:53:45Z</time>
      </trkpt>
      <trkpt lat="45.58941" lon="4.39691">
        <ele>594.1</ele>
        <time>2017-03-19T08:53:46Z</time>
      </trkpt>
      <trkpt lat="45.58942" lon="4.39695">
        <ele>594.1</ele>
        <time>2017-03-19T08:53:47Z</time>
      </trkpt>
      <trkpt lat="45.58947" lon="4.39698">
        <ele>594.3</ele>
        <time>2017-03-19T08:53:49Z</time>
      </trkpt>
      <trkpt lat="45.5895" lon="4.39696">
        <ele>594.4</ele>
        <time>2017-03-19T08:53:50Z</time>
      </trkpt>
      <trkpt lat="45.58953" lon="4.39692">
        <ele>594.5</ele>
        <time>2017-03-19T08:53:51Z</time>
      </trkpt>
      <trkpt lat="45.58957" lon="4.39689">
        <ele>594.6</ele>
        <time>2017-03-19T08:53:52Z</time>
      </trkpt>
      <trkpt lat="45.58961" lon="4.39688">
        <ele>594.7</ele>
        <time>2017-03-19T08:53:53Z</time>
      </trkpt>
      <trkpt lat="45.58965" lon="4.39688">
        <ele>594.8</ele>
        <time>2017-03-19T08:53:54Z</time>
      </trkpt>
      <trkpt lat="45.58969" lon="4.39689">
        <ele>594.9</ele>
        <time>2017-03-19T08:53:55Z</time>
      </trkpt>
      <trkpt lat="45.58973" lon="4.3969">
        <ele>595</ele>
        <time>2017-03-19T08:53:56Z</time>
      </trkpt>
      <trkpt lat="45.58977" lon="4.39692">
        <ele>595.1</ele>
        <time>2017-03-19T08:53:57Z</time>
      </trkpt>
      <trkpt lat="45.58981" lon="4.39694">
        <ele>595.2</ele>
        <time>2017-03-19T08:53:58Z</time>
      </trkpt>
      <trkpt lat="45.58985" lon="4.39696">
        <ele>595.3</ele>
        <time>2017-03-19T08:53:59Z</time>
      </trkpt>
      <trkpt lat="45.58991" lon="4.39698">
        <ele>595.4</ele>
        <time>2017-03-19T08:54:00Z</time>
      </trkpt>
      <trkpt lat="45.58995" lon="4.397">
        <ele>595.5</ele>
        <time>2017-03-19T08:54:01Z</time>
      </trkpt>
      <trkpt lat="45.58999" lon="4.39702">
        <ele>595.6</ele>
        <time>2017-03-19T08:54:02Z</time>
      </trkpt>
      <trkpt lat="45.59003" lon="4.39703">
        <ele>595.7</ele>
        <time>2017-03-19T08:54:03Z</time>
      </trkpt>
      <trkpt lat="45.59007" lon="4.39704">
        <ele>595.8</ele>
        <time>2017-03-19T08:54:04Z</time>
      </trkpt>
      <trkpt lat="45.59011" lon="4.39704">
        <ele>595.8</ele>
        <time>2017-03-19T08:54:05Z</time>
      </trkpt>
      <trkpt lat="45.59016" lon="4.39703">
        <ele>595.9</ele>
        <time>2017-03-19T08:54:06Z</time>
      </trkpt>
      <trkpt lat="45.59021" lon="4.39704">
        <ele>595.9</ele>
        <time>2017-03-19T08:54:07Z</time>
      </trkpt>
      <trkpt lat="45.59027" lon="4.39704">
        <ele>596</ele>
        <time>2017-03-19T08:54:08Z</time>
      </trkpt>
      <trkpt lat="45.59032" lon="4.39704">
        <ele>596</ele>
        <time>2017-03-19T08:54:09Z</time>
      </trkpt>
      <trkpt lat="45.59039" lon="4.39702">
        <ele>596</ele>
        <time>2017-03-19T08:54:10Z</time>
      </trkpt>
      <trkpt lat="45.59045" lon="4.397">
        <ele>596</ele>
        <time>2017-03-19T08:54:11Z</time>
      </trkpt>
      <trkpt lat="45.59053" lon="4.39697">
        <ele>596</ele>
        <time>2017-03-19T08:54:12Z</time>
      </trkpt>
      <trkpt lat="45.5906" lon="4.39696">
        <ele>596</ele>
        <time>2017-03-19T08:54:13Z</time>
      </trkpt>
      <trkpt lat="45.59065" lon="4.39694">
        <ele>595.3</ele>
        <time>2017-03-19T08:54:14Z</time>
      </trkpt>
      <trkpt lat="45.5907" lon="4.39693">
        <ele>594</ele>
        <time>2017-03-19T08:54:15Z</time>
      </trkpt>
      <trkpt lat="45.59077" lon="4.39692">
        <ele>592.6</ele>
        <time>2017-03-19T08:54:16Z</time>
      </trkpt>
      <trkpt lat="45.59084" lon="4.3969">
        <ele>591</ele>
        <time>2017-03-19T08:54:17Z</time>
      </trkpt>
      <trkpt lat="45.59089" lon="4.39687">
        <ele>590.2</ele>
        <time>2017-03-19T08:54:18Z</time>
      </trkpt>
      <trkpt lat="45.59094" lon="4.39687">
        <ele>589.7</ele>
        <time>2017-03-19T08:54:19Z</time>
      </trkpt>
      <trkpt lat="45.59101" lon="4.39685">
        <ele>588.2</ele>
        <time>2017-03-19T08:54:20Z</time>
      </trkpt>
      <trkpt lat="45.59108" lon="4.3968">
        <ele>587.3</ele>
        <time>2017-03-19T08:54:21Z</time>
      </trkpt>
      <trkpt lat="45.59114" lon="4.39677">
        <ele>586.5</ele>
        <time>2017-03-19T08:54:22Z</time>
      </trkpt>
      <trkpt lat="45.5912" lon="4.39674">
        <ele>585.3</ele>
        <time>2017-03-19T08:54:23Z</time>
      </trkpt>
      <trkpt lat="45.59126" lon="4.39673">
        <ele>584</ele>
        <time>2017-03-19T08:54:24Z</time>
      </trkpt>
      <trkpt lat="45.59134" lon="4.39672">
        <ele>582.5</ele>
        <time>2017-03-19T08:54:25Z</time>
      </trkpt>
      <trkpt lat="45.5914" lon="4.39669">
        <ele>580.3</ele>
        <time>2017-03-19T08:54:26Z</time>
      </trkpt>
      <trkpt lat="45.59148" lon="4.39669">
        <ele>579</ele>
        <time>2017-03-19T08:54:27Z</time>
      </trkpt>
      <trkpt lat="45.59153" lon="4.39667">
        <ele>577.3</ele>
        <time>2017-03-19T08:54:28Z</time>
      </trkpt>
      <trkpt lat="45.59159" lon="4.39667">
        <ele>576</ele>
        <time>2017-03-19T08:54:29Z</time>
      </trkpt>
      <trkpt lat="45.59166" lon="4.39664">
        <ele>574.7</ele>
        <time>2017-03-19T08:54:30Z</time>
      </trkpt>
      <trkpt lat="45.59171" lon="4.3966">
        <ele>573.3</ele>
        <time>2017-03-19T08:54:31Z</time>
      </trkpt>
      <trkpt lat="45.59179" lon="4.39659">
        <ele>571.1</ele>
        <time>2017-03-19T08:54:32Z</time>
      </trkpt>
      <trkpt lat="45.59187" lon="4.39658">
        <ele>569.4</ele>
        <time>2017-03-19T08:54:33Z</time>
      </trkpt>
      <trkpt lat="45.59195" lon="4.39656">
        <ele>567.7</ele>
        <time>2017-03-19T08:54:34Z</time>
      </trkpt>
      <trkpt lat="45.59202" lon="4.39656">
        <ele>566.8</ele>
        <time>2017-03-19T08:54:35Z</time>
      </trkpt>
      <trkpt lat="45.59209" lon="4.39653">
        <ele>565.5</ele>
        <time>2017-03-19T08:54:36Z</time>
      </trkpt>
      <trkpt lat="45.59216" lon="4.39652">
        <ele>564.9</ele>
        <time>2017-03-19T08:54:37Z</time>
      </trkpt>
      <trkpt lat="45.59224" lon="4.3965">
        <ele>564.2</ele>
        <time>2017-03-19T08:54:38Z</time>
      </trkpt>
      <trkpt lat="45.59233" lon="4.39647">
        <ele>563.6</ele>
        <time>2017-03-19T08:54:39Z</time>
      </trkpt>
      <trkpt lat="45.59241" lon="4.39646">
        <ele>562.4</ele>
        <time>2017-03-19T08:54:40Z</time>
      </trkpt>
      <trkpt lat="45.59248" lon="4.39644">
        <ele>561.2</ele>
        <time>2017-03-19T08:54:41Z</time>
      </trkpt>
      <trkpt lat="45.59253" lon="4.39642">
        <ele>560.8</ele>
        <time>2017-03-19T08:54:42Z</time>
      </trkpt>
      <trkpt lat="45.59256" lon="4.39639">
        <ele>560.2</ele>
        <time>2017-03-19T08:54:43Z</time>
      </trkpt>
      <trkpt lat="45.59259" lon="4.39635">
        <ele>559.5</ele>
        <time>2017-03-19T08:54:44Z</time>
      </trkpt>
      <trkpt lat="45.59262" lon="4.39632">
        <ele>558.6</ele>
        <time>2017-03-19T08:54:45Z</time>
      </trkpt>
      <trkpt lat="45.59265" lon="4.39627">
        <ele>557.6</ele>
        <time>2017-03-19T08:54:46Z</time>
      </trkpt>
      <trkpt lat="45.59269" lon="4.39619">
        <ele>555.7</ele>
        <time>2017-03-19T08:54:47Z</time>
      </trkpt>
      <trkpt lat="45.59275" lon="4.39612">
        <ele>554.3</ele>
        <time>2017-03-19T08:54:48Z</time>
      </trkpt>
      <trkpt lat="45.5928" lon="4.39605">
        <ele>553</ele>
        <time>2017-03-19T08:54:49Z</time>
      </trkpt>
      <trkpt lat="45.59285" lon="4.39598">
        <ele>551</ele>
        <time>2017-03-19T08:54:50Z</time>
      </trkpt>
      <trkpt lat="45.5929" lon="4.39591">
        <ele>549.4</ele>
        <time>2017-03-19T08:54:51Z</time>
      </trkpt>
      <trkpt lat="45.59296" lon="4.39585">
        <ele>548.1</ele>
        <time>2017-03-19T08:54:52Z</time>
      </trkpt>
      <trkpt lat="45.59299" lon="4.39581">
        <ele>547</ele>
        <time>2017-03-19T08:54:53Z</time>
      </trkpt>
      <trkpt lat="45.59303" lon="4.39577">
        <ele>546.4</ele>
        <time>2017-03-19T08:54:54Z</time>
      </trkpt>
      <trkpt lat="45.59306" lon="4.39574">
        <ele>546.1</ele>
        <time>2017-03-19T08:54:55Z</time>
      </trkpt>
      <trkpt lat="45.59309" lon="4.39571">
        <ele>545.6</ele>
        <time>2017-03-19T08:54:56Z</time>
      </trkpt>
      <trkpt lat="45.59313" lon="4.3957">
        <ele>545.2</ele>
        <time>2017-03-19T08:54:58Z</time>
      </trkpt>
      <trkpt lat="45.59319" lon="4.39571">
        <ele>544.4</ele>
        <time>2017-03-19T08:55:00Z</time>
      </trkpt>
      <trkpt lat="45.59325" lon="4.39572">
        <ele>543.6</ele>
        <time>2017-03-19T08:55:01Z</time>
      </trkpt>
      <trkpt lat="45.5933" lon="4.39573">
        <ele>542.8</ele>
        <time>2017-03-19T08:55:02Z</time>
      </trkpt>
      <trkpt lat="45.59334" lon="4.39575">
        <ele>542.4</ele>
        <time>2017-03-19T08:55:03Z</time>
      </trkpt>
      <trkpt lat="45.59339" lon="4.3958">
        <ele>541.5</ele>
        <time>2017-03-19T08:55:04Z</time>
      </trkpt>
      <trkpt lat="45.59342" lon="4.39584">
        <ele>540.9</ele>
        <time>2017-03-19T08:55:05Z</time>
      </trkpt>
      <trkpt lat="45.59347" lon="4.39587">
        <ele>540.3</ele>
        <time>2017-03-19T08:55:06Z</time>
      </trkpt>
      <trkpt lat="45.59351" lon="4.39589">
        <ele>539.3</ele>
        <time>2017-03-19T08:55:07Z</time>
      </trkpt>
      <trkpt lat="45.59355" lon="4.39592">
        <ele>538.6</ele>
        <time>2017-03-19T08:55:08Z</time>
      </trkpt>
      <trkpt lat="45.59359" lon="4.39594">
        <ele>538.1</ele>
        <time>2017-03-19T08:55:09Z</time>
      </trkpt>
      <trkpt lat="45.59363" lon="4.39596">
        <ele>537.1</ele>
        <time>2017-03-19T08:55:10Z</time>
      </trkpt>
      <trkpt lat="45.59368" lon="4.39598">
        <ele>536.7</ele>
        <time>2017-03-19T08:55:11Z</time>
      </trkpt>
      <trkpt lat="45.59371" lon="4.39601">
        <ele>536.2</ele>
        <time>2017-03-19T08:55:12Z</time>
      </trkpt>
      <trkpt lat="45.59374" lon="4.39603">
        <ele>535.7</ele>
        <time>2017-03-19T08:55:13Z</time>
      </trkpt>
      <trkpt lat="45.59377" lon="4.39606">
        <ele>535.3</ele>
        <time>2017-03-19T08:55:14Z</time>
      </trkpt>
      <trkpt lat="45.59381" lon="4.39608">
        <ele>534.6</ele>
        <time>2017-03-19T08:55:15Z</time>
      </trkpt>
      <trkpt lat="45.59384" lon="4.39609">
        <ele>534.3</ele>
        <time>2017-03-19T08:55:16Z</time>
      </trkpt>
      <trkpt lat="45.59389" lon="4.3961">
        <ele>534</ele>
        <time>2017-03-19T08:55:17Z</time>
      </trkpt>
      <trkpt lat="45.59392" lon="4.39611">
        <ele>533.4</ele>
        <time>2017-03-19T08:55:18Z</time>
      </trkpt>
      <trkpt lat="45.59396" lon="4.39611">
        <ele>533</ele>
        <time>2017-03-19T08:55:19Z</time>
      </trkpt>
      <trkpt lat="45.59399" lon="4.39611">
        <ele>532.5</ele>
        <time>2017-03-19T08:55:20Z</time>
      </trkpt>
      <trkpt lat="45.59404" lon="4.39612">
        <ele>531.7</ele>
        <time>2017-03-19T08:55:22Z</time>
      </trkpt>
      <trkpt lat="45.59408" lon="4.39613">
        <ele>531.2</ele>
        <time>2017-03-19T08:55:24Z</time>
      </trkpt>
      <trkpt lat="45.59411" lon="4.39614">
        <ele>530.9</ele>
        <time>2017-03-19T08:55:26Z</time>
      </trkpt>
      <trkpt lat="45.59415" lon="4.39616">
        <ele>530.6</ele>
        <time>2017-03-19T08:55:28Z</time>
      </trkpt>
      <trkpt lat="45.59419" lon="4.39618">
        <ele>530.3</ele>
        <time>2017-03-19T08:55:30Z</time>
      </trkpt>
      <trkpt lat="45.59423" lon="4.39621">
        <ele>530</ele>
        <time>2017-03-19T08:55:32Z</time>
      </trkpt>
      <trkpt lat="45.59428" lon="4.39623">
        <ele>529.7</ele>
        <time>2017-03-19T08:55:34Z</time>
      </trkpt>
      <trkpt lat="45.59431" lon="4.39625">
        <ele>529.5</ele>
        <time>2017-03-19T08:55:35Z</time>
      </trkpt>
      <trkpt lat="45.59434" lon="4.39627">
        <ele>529.3</ele>
        <time>2017-03-19T08:55:36Z</time>
      </trkpt>
      <trkpt lat="45.59437" lon="4.39628">
        <ele>529.1</ele>
        <time>2017-03-19T08:55:37Z</time>
      </trkpt>
      <trkpt lat="45.59439" lon="4.3963">
        <ele>528.6</ele>
        <time>2017-03-19T08:55:38Z</time>
      </trkpt>
      <trkpt lat="45.59442" lon="4.39631">
        <ele>528.3</ele>
        <time>2017-03-19T08:55:39Z</time>
      </trkpt>
      <trkpt lat="45.59445" lon="4.39633">
        <ele>528</ele>
        <time>2017-03-19T08:55:40Z</time>
      </trkpt>
      <trkpt lat="45.59448" lon="4.39634">
        <ele>527.2</ele>
        <time>2017-03-19T08:55:41Z</time>
      </trkpt>
      <trkpt lat="45.59451" lon="4.39636">
        <ele>526.7</ele>
        <time>2017-03-19T08:55:42Z</time>
      </trkpt>
      <trkpt lat="45.59454" lon="4.39637">
        <ele>526.1</ele>
        <time>2017-03-19T08:55:43Z</time>
      </trkpt>
      <trkpt lat="45.59457" lon="4.39638">
        <ele>524.9</ele>
        <time>2017-03-19T08:55:44Z</time>
      </trkpt>
      <trkpt lat="45.59461" lon="4.39639">
        <ele>524.2</ele>
        <time>2017-03-19T08:55:45Z</time>
      </trkpt>
      <trkpt lat="45.59465" lon="4.3964">
        <ele>523</ele>
        <time>2017-03-19T08:55:46Z</time>
      </trkpt>
      <trkpt lat="45.59468" lon="4.39641">
        <ele>522.4</ele>
        <time>2017-03-19T08:55:47Z</time>
      </trkpt>
      <trkpt lat="45.59471" lon="4.39641">
        <ele>522</ele>
        <time>2017-03-19T08:55:48Z</time>
      </trkpt>
      <trkpt lat="45.59474" lon="4.39642">
        <ele>521.6</ele>
        <time>2017-03-19T08:55:49Z</time>
      </trkpt>
      <trkpt lat="45.59478" lon="4.39642">
        <ele>520.7</ele>
        <time>2017-03-19T08:55:50Z</time>
      </trkpt>
      <trkpt lat="45.59481" lon="4.39642">
        <ele>520.5</ele>
        <time>2017-03-19T08:55:51Z</time>
      </trkpt>
      <trkpt lat="45.59484" lon="4.39643">
        <ele>520.2</ele>
        <time>2017-03-19T08:55:52Z</time>
      </trkpt>
      <trkpt lat="45.59488" lon="4.39643">
        <ele>520</ele>
        <time>2017-03-19T08:55:53Z</time>
      </trkpt>
      <trkpt lat="45.59492" lon="4.39643">
        <ele>519.7</ele>
        <time>2017-03-19T08:55:54Z</time>
      </trkpt>
      <trkpt lat="45.59496" lon="4.39643">
        <ele>519.6</ele>
        <time>2017-03-19T08:55:55Z</time>
      </trkpt>
      <trkpt lat="45.59501" lon="4.39643">
        <ele>519.3</ele>
        <time>2017-03-19T08:55:56Z</time>
      </trkpt>
      <trkpt lat="45.59506" lon="4.39643">
        <ele>518.9</ele>
        <time>2017-03-19T08:55:57Z</time>
      </trkpt>
      <trkpt lat="45.59512" lon="4.39644">
        <ele>518.6</ele>
        <time>2017-03-19T08:55:58Z</time>
      </trkpt>
      <trkpt lat="45.59518" lon="4.39644">
        <ele>517.9</ele>
        <time>2017-03-19T08:55:59Z</time>
      </trkpt>
      <trkpt lat="45.59524" lon="4.39646">
        <ele>517.4</ele>
        <time>2017-03-19T08:56:00Z</time>
      </trkpt>
      <trkpt lat="45.59529" lon="4.39648">
        <ele>516.6</ele>
        <time>2017-03-19T08:56:01Z</time>
      </trkpt>
      <trkpt lat="45.59533" lon="4.3965">
        <ele>516.4</ele>
        <time>2017-03-19T08:56:02Z</time>
      </trkpt>
      <trkpt lat="45.59535" lon="4.39651">
        <ele>515.8</ele>
        <time>2017-03-19T08:56:03Z</time>
      </trkpt>
      <trkpt lat="45.5954" lon="4.39654">
        <ele>515.5</ele>
        <time>2017-03-19T08:56:05Z</time>
      </trkpt>
      <trkpt lat="45.59544" lon="4.39655">
        <ele>515.3</ele>
        <time>2017-03-19T08:56:07Z</time>
      </trkpt>
      <trkpt lat="45.5955" lon="4.39655">
        <ele>515</ele>
        <time>2017-03-19T08:56:09Z</time>
      </trkpt>
      <trkpt lat="45.59553" lon="4.39654">
        <ele>514.9</ele>
        <time>2017-03-19T08:56:10Z</time>
      </trkpt>
      <trkpt lat="45.59556" lon="4.39653">
        <ele>514.7</ele>
        <time>2017-03-19T08:56:11Z</time>
      </trkpt>
      <trkpt lat="45.5956" lon="4.39652">
        <ele>514.4</ele>
        <time>2017-03-19T08:56:12Z</time>
      </trkpt>
      <trkpt lat="45.59565" lon="4.3965">
        <ele>514.7</ele>
        <time>2017-03-19T08:56:13Z</time>
      </trkpt>
      <trkpt lat="45.5957" lon="4.39649">
        <ele>514.3</ele>
        <time>2017-03-19T08:56:14Z</time>
      </trkpt>
      <trkpt lat="45.59574" lon="4.39647">
        <ele>514.1</ele>
        <time>2017-03-19T08:56:15Z</time>
      </trkpt>
      <trkpt lat="45.59576" lon="4.39646">
        <ele>514.3</ele>
        <time>2017-03-19T08:56:16Z</time>
      </trkpt>
      <trkpt lat="45.5958" lon="4.39643">
        <ele>514</ele>
        <time>2017-03-19T08:56:18Z</time>
      </trkpt>
      <trkpt lat="45.59582" lon="4.39638">
        <ele>514</ele>
        <time>2017-03-19T08:56:20Z</time>
      </trkpt>
      <trkpt lat="45.59583" lon="4.39635">
        <ele>514.4</ele>
        <time>2017-03-19T08:56:21Z</time>
      </trkpt>
      <trkpt lat="45.59586" lon="4.39632">
        <ele>514.4</ele>
        <time>2017-03-19T08:56:22Z</time>
      </trkpt>
      <trkpt lat="45.59591" lon="4.39628">
        <ele>514</ele>
        <time>2017-03-19T08:56:24Z</time>
      </trkpt>
      <trkpt lat="45.59594" lon="4.39625">
        <ele>513.6</ele>
        <time>2017-03-19T08:56:25Z</time>
      </trkpt>
      <trkpt lat="45.59598" lon="4.39624">
        <ele>513.5</ele>
        <time>2017-03-19T08:56:27Z</time>
      </trkpt>
      <trkpt lat="45.59601" lon="4.39622">
        <ele>513.1</ele>
        <time>2017-03-19T08:56:32Z</time>
      </trkpt>
      <trkpt lat="45.59603" lon="4.39619">
        <ele>512.8</ele>
        <time>2017-03-19T08:56:38Z</time>
      </trkpt>
      <trkpt lat="45.59606" lon="4.39622">
        <ele>512.3</ele>
        <time>2017-03-19T08:56:53Z</time>
      </trkpt>
      <trkpt lat="45.59606" lon="4.39615">
        <ele>512.4</ele>
        <time>2017-03-19T08:57:11Z</time>
      </trkpt>
      <trkpt lat="45.5961" lon="4.39613">
        <ele>511.9</ele>
        <time>2017-03-19T08:57:14Z</time>
      </trkpt>
      <trkpt lat="45.59614" lon="4.3961">
        <ele>511.4</ele>
        <time>2017-03-19T08:57:16Z</time>
      </trkpt>
      <trkpt lat="45.59617" lon="4.39607">
        <ele>510.3</ele>
        <time>2017-03-19T08:57:18Z</time>
      </trkpt>
      <trkpt lat="45.59622" lon="4.39603">
        <ele>509.9</ele>
        <time>2017-03-19T08:57:20Z</time>
      </trkpt>
      <trkpt lat="45.59625" lon="4.39599">
        <ele>509.3</ele>
        <time>2017-03-19T08:57:22Z</time>
      </trkpt>
      <trkpt lat="45.59628" lon="4.39596">
        <ele>508.8</ele>
        <time>2017-03-19T08:57:24Z</time>
      </trkpt>
      <trkpt lat="45.59632" lon="4.39594">
        <ele>508.4</ele>
        <time>2017-03-19T08:57:26Z</time>
      </trkpt>
      <trkpt lat="45.59636" lon="4.39596">
        <ele>509</ele>
        <time>2017-03-19T08:57:28Z</time>
      </trkpt>
      <trkpt lat="45.59637" lon="4.39599">
        <ele>509</ele>
        <time>2017-03-19T08:57:30Z</time>
      </trkpt>
      <trkpt lat="45.5964" lon="4.39602">
        <ele>509.6</ele>
        <time>2017-03-19T08:57:32Z</time>
      </trkpt>
      <trkpt lat="45.59642" lon="4.39605">
        <ele>510.4</ele>
        <time>2017-03-19T08:57:34Z</time>
      </trkpt>
      <trkpt lat="45.59645" lon="4.3961">
        <ele>511.3</ele>
        <time>2017-03-19T08:57:37Z</time>
      </trkpt>
      <trkpt lat="45.59648" lon="4.39612">
        <ele>512.2</ele>
        <time>2017-03-19T08:57:39Z</time>
      </trkpt>
      <trkpt lat="45.59651" lon="4.39614">
        <ele>512.9</ele>
        <time>2017-03-19T08:57:41Z</time>
      </trkpt>
      <trkpt lat="45.59653" lon="4.39617">
        <ele>513.2</ele>
        <time>2017-03-19T08:57:43Z</time>
      </trkpt>
      <trkpt lat="45.59657" lon="4.3962">
        <ele>514.7</ele>
        <time>2017-03-19T08:57:45Z</time>
      </trkpt>
      <trkpt lat="45.5966" lon="4.39623">
        <ele>515.7</ele>
        <time>2017-03-19T08:57:47Z</time>
      </trkpt>
      <trkpt lat="45.59662" lon="4.39626">
        <ele>516.1</ele>
        <time>2017-03-19T08:57:49Z</time>
      </trkpt>
      <trkpt lat="45.59666" lon="4.3963">
        <ele>517.6</ele>
        <time>2017-03-19T08:57:51Z</time>
      </trkpt>
      <trkpt lat="45.59671" lon="4.39633">
        <ele>518.1</ele>
        <time>2017-03-19T08:57:53Z</time>
      </trkpt>
      <trkpt lat="45.59674" lon="4.39634">
        <ele>518.9</ele>
        <time>2017-03-19T08:57:55Z</time>
      </trkpt>
      <trkpt lat="45.59678" lon="4.39634">
        <ele>520</ele>
        <time>2017-03-19T08:57:57Z</time>
      </trkpt>
      <trkpt lat="45.59681" lon="4.39633">
        <ele>520.2</ele>
        <time>2017-03-19T08:57:59Z</time>
      </trkpt>
      <trkpt lat="45.59685" lon="4.39632">
        <ele>520.7</ele>
        <time>2017-03-19T08:58:02Z</time>
      </trkpt>
      <trkpt lat="45.59688" lon="4.39633">
        <ele>521.1</ele>
        <time>2017-03-19T08:58:04Z</time>
      </trkpt>
      <trkpt lat="45.59684" lon="4.39632">
        <ele>520.6</ele>
        <time>2017-03-19T08:58:42Z</time>
      </trkpt>
      <trkpt lat="45.5968" lon="4.39633">
        <ele>520</ele>
        <time>2017-03-19T08:58:44Z</time>
      </trkpt>
      <trkpt lat="45.59674" lon="4.39632">
        <ele>518.4</ele>
        <time>2017-03-19T08:58:46Z</time>
      </trkpt>
      <trkpt lat="45.5967" lon="4.39629">
        <ele>517.8</ele>
        <time>2017-03-19T08:58:47Z</time>
      </trkpt>
      <trkpt lat="45.59665" lon="4.39625">
        <ele>516.3</ele>
        <time>2017-03-19T08:58:48Z</time>
      </trkpt>
      <trkpt lat="45.59659" lon="4.39619">
        <ele>514.1</ele>
        <time>2017-03-19T08:58:49Z</time>
      </trkpt>
      <trkpt lat="45.59653" lon="4.39614">
        <ele>513</ele>
        <time>2017-03-19T08:58:50Z</time>
      </trkpt>
      <trkpt lat="45.59648" lon="4.3961">
        <ele>511.1</ele>
        <time>2017-03-19T08:58:51Z</time>
      </trkpt>
      <trkpt lat="45.59643" lon="4.39604">
        <ele>509.6</ele>
        <time>2017-03-19T08:58:52Z</time>
      </trkpt>
      <trkpt lat="45.5964" lon="4.39599">
        <ele>508.4</ele>
        <time>2017-03-19T08:58:53Z</time>
      </trkpt>
      <trkpt lat="45.59635" lon="4.39596">
        <ele>507.8</ele>
        <time>2017-03-19T08:58:54Z</time>
      </trkpt>
      <trkpt lat="45.5963" lon="4.39594">
        <ele>507.3</ele>
        <time>2017-03-19T08:58:55Z</time>
      </trkpt>
      <trkpt lat="45.59627" lon="4.39595">
        <ele>507.6</ele>
        <time>2017-03-19T08:58:56Z</time>
      </trkpt>
      <trkpt lat="45.59623" lon="4.39598">
        <ele>507.9</ele>
        <time>2017-03-19T08:58:57Z</time>
      </trkpt>
      <trkpt lat="45.5962" lon="4.39602">
        <ele>508.6</ele>
        <time>2017-03-19T08:58:58Z</time>
      </trkpt>
      <trkpt lat="45.59615" lon="4.39605">
        <ele>509.3</ele>
        <time>2017-03-19T08:58:59Z</time>
      </trkpt>
      <trkpt lat="45.59609" lon="4.3961">
        <ele>510.4</ele>
        <time>2017-03-19T08:59:00Z</time>
      </trkpt>
      <trkpt lat="45.59605" lon="4.39613">
        <ele>511.3</ele>
        <time>2017-03-19T08:59:01Z</time>
      </trkpt>
      <trkpt lat="45.59602" lon="4.39617">
        <ele>511.6</ele>
        <time>2017-03-19T08:59:03Z</time>
      </trkpt>
      <trkpt lat="45.59596" lon="4.39618">
        <ele>512.4</ele>
        <time>2017-03-19T08:59:15Z</time>
      </trkpt>
      <trkpt lat="45.59592" lon="4.39616">
        <ele>512.7</ele>
        <time>2017-03-19T08:59:26Z</time>
      </trkpt>
      <trkpt lat="45.5959" lon="4.3962">
        <ele>513.1</ele>
        <time>2017-03-19T08:59:28Z</time>
      </trkpt>
      <trkpt lat="45.59588" lon="4.39623">
        <ele>512.8</ele>
        <time>2017-03-19T08:59:30Z</time>
      </trkpt>
      <trkpt lat="45.59585" lon="4.39626">
        <ele>512.7</ele>
        <time>2017-03-19T08:59:32Z</time>
      </trkpt>
      <trkpt lat="45.59582" lon="4.39624">
        <ele>513.4</ele>
        <time>2017-03-19T08:59:34Z</time>
      </trkpt>
      <trkpt lat="45.5958" lon="4.39618">
        <ele>513.9</ele>
        <time>2017-03-19T08:59:36Z</time>
      </trkpt>
      <trkpt lat="45.59578" lon="4.3961">
        <ele>514.6</ele>
        <time>2017-03-19T08:59:38Z</time>
      </trkpt>
      <trkpt lat="45.59577" lon="4.39606">
        <ele>514.7</ele>
        <time>2017-03-19T08:59:39Z</time>
      </trkpt>
      <trkpt lat="45.59576" lon="4.39602">
        <ele>514.9</ele>
        <time>2017-03-19T08:59:40Z</time>
      </trkpt>
      <trkpt lat="45.59576" lon="4.39595">
        <ele>514.9</ele>
        <time>2017-03-19T08:59:42Z</time>
      </trkpt>
      <trkpt lat="45.59578" lon="4.39591">
        <ele>515</ele>
        <time>2017-03-19T08:59:43Z</time>
      </trkpt>
      <trkpt lat="45.59579" lon="4.39586">
        <ele>514.4</ele>
        <time>2017-03-19T08:59:44Z</time>
      </trkpt>
      <trkpt lat="45.59585" lon="4.39578">
        <ele>513.1</ele>
        <time>2017-03-19T08:59:45Z</time>
      </trkpt>
      <trkpt lat="45.59588" lon="4.39571">
        <ele>512.3</ele>
        <time>2017-03-19T08:59:46Z</time>
      </trkpt>
      <trkpt lat="45.59591" lon="4.39563">
        <ele>511.6</ele>
        <time>2017-03-19T08:59:47Z</time>
      </trkpt>
      <trkpt lat="45.59594" lon="4.39556">
        <ele>511</ele>
        <time>2017-03-19T08:59:48Z</time>
      </trkpt>
      <trkpt lat="45.59596" lon="4.39551">
        <ele>511.2</ele>
        <time>2017-03-19T08:59:49Z</time>
      </trkpt>
      <trkpt lat="45.596" lon="4.39545">
        <ele>509.9</ele>
        <time>2017-03-19T08:59:50Z</time>
      </trkpt>
      <trkpt lat="45.59605" lon="4.39541">
        <ele>509.4</ele>
        <time>2017-03-19T08:59:51Z</time>
      </trkpt>
      <trkpt lat="45.5961" lon="4.39537">
        <ele>508.3</ele>
        <time>2017-03-19T08:59:52Z</time>
      </trkpt>
      <trkpt lat="45.59613" lon="4.39532">
        <ele>507.9</ele>
        <time>2017-03-19T08:59:54Z</time>
      </trkpt>
      <trkpt lat="45.59616" lon="4.39529">
        <ele>507.4</ele>
        <time>2017-03-19T08:59:55Z</time>
      </trkpt>
      <trkpt lat="45.59618" lon="4.39525">
        <ele>506.9</ele>
        <time>2017-03-19T08:59:57Z</time>
      </trkpt>
      <trkpt lat="45.5962" lon="4.39522">
        <ele>506.8</ele>
        <time>2017-03-19T08:59:58Z</time>
      </trkpt>
      <trkpt lat="45.59622" lon="4.39516">
        <ele>506.7</ele>
        <time>2017-03-19T08:59:59Z</time>
      </trkpt>
      <trkpt lat="45.59624" lon="4.39512">
        <ele>506.5</ele>
        <time>2017-03-19T09:00:00Z</time>
      </trkpt>
      <trkpt lat="45.59626" lon="4.39509">
        <ele>506.5</ele>
        <time>2017-03-19T09:00:01Z</time>
      </trkpt>
      <trkpt lat="45.59628" lon="4.39506">
        <ele>506.3</ele>
        <time>2017-03-19T09:00:03Z</time>
      </trkpt>
      <trkpt lat="45.59632" lon="4.39508">
        <ele>506.1</ele>
        <time>2017-03-19T09:00:05Z</time>
      </trkpt>
      <trkpt lat="45.59634" lon="4.39513">
        <ele>505.9</ele>
        <time>2017-03-19T09:00:07Z</time>
      </trkpt>
      <trkpt lat="45.59635" lon="4.39518">
        <ele>505.7</ele>
        <time>2017-03-19T09:00:08Z</time>
      </trkpt>
      <trkpt lat="45.59635" lon="4.39523">
        <ele>505.6</ele>
        <time>2017-03-19T09:00:09Z</time>
      </trkpt>
      <trkpt lat="45.59635" lon="4.39528">
        <ele>505.4</ele>
        <time>2017-03-19T09:00:10Z</time>
      </trkpt>
      <trkpt lat="45.59635" lon="4.39532">
        <ele>505.3</ele>
        <time>2017-03-19T09:00:11Z</time>
      </trkpt>
      <trkpt lat="45.59636" lon="4.39536">
        <ele>505.3</ele>
        <time>2017-03-19T09:00:12Z</time>
      </trkpt>
      <trkpt lat="45.59637" lon="4.3954">
        <ele>505.2</ele>
        <time>2017-03-19T09:00:13Z</time>
      </trkpt>
      <trkpt lat="45.59638" lon="4.39544">
        <ele>505.2</ele>
        <time>2017-03-19T09:00:14Z</time>
      </trkpt>
      <trkpt lat="45.59641" lon="4.39548">
        <ele>505.1</ele>
        <time>2017-03-19T09:00:15Z</time>
      </trkpt>
      <trkpt lat="45.59644" lon="4.39551">
        <ele>505.1</ele>
        <time>2017-03-19T09:00:16Z</time>
      </trkpt>
      <trkpt lat="45.59647" lon="4.39554">
        <ele>505</ele>
        <time>2017-03-19T09:00:17Z</time>
      </trkpt>
      <trkpt lat="45.59651" lon="4.39557">
        <ele>505</ele>
        <time>2017-03-19T09:00:18Z</time>
      </trkpt>
      <trkpt lat="45.59656" lon="4.39558">
        <ele>504.9</ele>
        <time>2017-03-19T09:00:19Z</time>
      </trkpt>
      <trkpt lat="45.59661" lon="4.39558">
        <ele>504.9</ele>
        <time>2017-03-19T09:00:20Z</time>
      </trkpt>
      <trkpt lat="45.59665" lon="4.39557">
        <ele>504.9</ele>
        <time>2017-03-19T09:00:21Z</time>
      </trkpt>
      <trkpt lat="45.5967" lon="4.39556">
        <ele>504.9</ele>
        <time>2017-03-19T09:00:22Z</time>
      </trkpt>
      <trkpt lat="45.59674" lon="4.39555">
        <ele>504.9</ele>
        <time>2017-03-19T09:00:23Z</time>
      </trkpt>
      <trkpt lat="45.59678" lon="4.39553">
        <ele>504.9</ele>
        <time>2017-03-19T09:00:24Z</time>
      </trkpt>
      <trkpt lat="45.59682" lon="4.39552">
        <ele>504.9</ele>
        <time>2017-03-19T09:00:25Z</time>
      </trkpt>
      <trkpt lat="45.59685" lon="4.3955">
        <ele>504.9</ele>
        <time>2017-03-19T09:00:26Z</time>
      </trkpt>
      <trkpt lat="45.59689" lon="4.39548">
        <ele>505</ele>
        <time>2017-03-19T09:00:27Z</time>
      </trkpt>
      <trkpt lat="45.59693" lon="4.39546">
        <ele>505</ele>
        <time>2017-03-19T09:00:28Z</time>
      </trkpt>
      <trkpt lat="45.59697" lon="4.39544">
        <ele>505.1</ele>
        <time>2017-03-19T09:00:29Z</time>
      </trkpt>
      <trkpt lat="45.597" lon="4.39543">
        <ele>505.2</ele>
        <time>2017-03-19T09:00:30Z</time>
      </trkpt>
      <trkpt lat="45.59705" lon="4.39543">
        <ele>505.5</ele>
        <time>2017-03-19T09:00:31Z</time>
      </trkpt>
      <trkpt lat="45.59709" lon="4.39542">
        <ele>505.8</ele>
        <time>2017-03-19T09:00:32Z</time>
      </trkpt>
      <trkpt lat="45.59714" lon="4.39541">
        <ele>506.2</ele>
        <time>2017-03-19T09:00:33Z</time>
      </trkpt>
      <trkpt lat="45.59719" lon="4.3954">
        <ele>506.5</ele>
        <time>2017-03-19T09:00:34Z</time>
      </trkpt>
      <trkpt lat="45.59723" lon="4.39539">
        <ele>506.6</ele>
        <time>2017-03-19T09:00:35Z</time>
      </trkpt>
      <trkpt lat="45.59727" lon="4.39538">
        <ele>506.8</ele>
        <time>2017-03-19T09:00:36Z</time>
      </trkpt>
      <trkpt lat="45.59731" lon="4.39536">
        <ele>507</ele>
        <time>2017-03-19T09:00:37Z</time>
      </trkpt>
      <trkpt lat="45.59735" lon="4.39534">
        <ele>507.3</ele>
        <time>2017-03-19T09:00:38Z</time>
      </trkpt>
      <trkpt lat="45.5974" lon="4.39533">
        <ele>507.7</ele>
        <time>2017-03-19T09:00:39Z</time>
      </trkpt>
      <trkpt lat="45.59744" lon="4.39531">
        <ele>508</ele>
        <time>2017-03-19T09:00:40Z</time>
      </trkpt>
      <trkpt lat="45.59748" lon="4.39531">
        <ele>508.1</ele>
        <time>2017-03-19T09:00:41Z</time>
      </trkpt>
      <trkpt lat="45.59752" lon="4.39529">
        <ele>508.2</ele>
        <time>2017-03-19T09:00:42Z</time>
      </trkpt>
      <trkpt lat="45.59756" lon="4.39528">
        <ele>508.3</ele>
        <time>2017-03-19T09:00:43Z</time>
      </trkpt>
      <trkpt lat="45.5976" lon="4.39527">
        <ele>508.4</ele>
        <time>2017-03-19T09:00:44Z</time>
      </trkpt>
      <trkpt lat="45.59764" lon="4.39525">
        <ele>508.6</ele>
        <time>2017-03-19T09:00:45Z</time>
      </trkpt>
      <trkpt lat="45.59768" lon="4.39522">
        <ele>508.9</ele>
        <time>2017-03-19T09:00:46Z</time>
      </trkpt>
      <trkpt lat="45.59772" lon="4.3952">
        <ele>509.2</ele>
        <time>2017-03-19T09:00:47Z</time>
      </trkpt>
      <trkpt lat="45.59776" lon="4.39518">
        <ele>509.5</ele>
        <time>2017-03-19T09:00:48Z</time>
      </trkpt>
      <trkpt lat="45.5978" lon="4.39516">
        <ele>509.7</ele>
        <time>2017-03-19T09:00:49Z</time>
      </trkpt>
      <trkpt lat="45.59784" lon="4.39513">
        <ele>509.8</ele>
        <time>2017-03-19T09:00:50Z</time>
      </trkpt>
      <trkpt lat="45.59788" lon="4.39511">
        <ele>510</ele>
        <time>2017-03-19T09:00:51Z</time>
      </trkpt>
      <trkpt lat="45.59791" lon="4.39509">
        <ele>510.2</ele>
        <time>2017-03-19T09:00:52Z</time>
      </trkpt>
      <trkpt lat="45.59794" lon="4.39506">
        <ele>510.4</ele>
        <time>2017-03-19T09:00:53Z</time>
      </trkpt>
      <trkpt lat="45.59798" lon="4.39503">
        <ele>510.7</ele>
        <time>2017-03-19T09:00:54Z</time>
      </trkpt>
      <trkpt lat="45.59801" lon="4.395">
        <ele>511</ele>
        <time>2017-03-19T09:00:55Z</time>
      </trkpt>
      <trkpt lat="45.59804" lon="4.39496">
        <ele>511.2</ele>
        <time>2017-03-19T09:00:56Z</time>
      </trkpt>
      <trkpt lat="45.59808" lon="4.39493">
        <ele>511.4</ele>
        <time>2017-03-19T09:00:57Z</time>
      </trkpt>
      <trkpt lat="45.59811" lon="4.39489">
        <ele>511.5</ele>
        <time>2017-03-19T09:00:58Z</time>
      </trkpt>
      <trkpt lat="45.59814" lon="4.39486">
        <ele>511.6</ele>
        <time>2017-03-19T09:00:59Z</time>
      </trkpt>
      <trkpt lat="45.59817" lon="4.39482">
        <ele>511.7</ele>
        <time>2017-03-19T09:01:00Z</time>
      </trkpt>
      <trkpt lat="45.5982" lon="4.39478">
        <ele>511.8</ele>
        <time>2017-03-19T09:01:01Z</time>
      </trkpt>
      <trkpt lat="45.59823" lon="4.39474">
        <ele>511.9</ele>
        <time>2017-03-19T09:01:02Z</time>
      </trkpt>
      <trkpt lat="45.59826" lon="4.39471">
        <ele>512.1</ele>
        <time>2017-03-19T09:01:03Z</time>
      </trkpt>
      <trkpt lat="45.59829" lon="4.39467">
        <ele>512.4</ele>
        <time>2017-03-19T09:01:04Z</time>
      </trkpt>
      <trkpt lat="45.59832" lon="4.39463">
        <ele>512.7</ele>
        <time>2017-03-19T09:01:05Z</time>
      </trkpt>
      <trkpt lat="45.59835" lon="4.3946">
        <ele>512.9</ele>
        <time>2017-03-19T09:01:06Z</time>
      </trkpt>
      <trkpt lat="45.59839" lon="4.39457">
        <ele>513</ele>
        <time>2017-03-19T09:01:07Z</time>
      </trkpt>
      <trkpt lat="45.59842" lon="4.39454">
        <ele>513.1</ele>
        <time>2017-03-19T09:01:08Z</time>
      </trkpt>
      <trkpt lat="45.59846" lon="4.39451">
        <ele>513.3</ele>
        <time>2017-03-19T09:01:09Z</time>
      </trkpt>
      <trkpt lat="45.5985" lon="4.39449">
        <ele>513.4</ele>
        <time>2017-03-19T09:01:10Z</time>
      </trkpt>
      <trkpt lat="45.59854" lon="4.39448">
        <ele>513.6</ele>
        <time>2017-03-19T09:01:11Z</time>
      </trkpt>
      <trkpt lat="45.59857" lon="4.39447">
        <ele>513.9</ele>
        <time>2017-03-19T09:01:12Z</time>
      </trkpt>
      <trkpt lat="45.59861" lon="4.39447">
        <ele>514.3</ele>
        <time>2017-03-19T09:01:13Z</time>
      </trkpt>
      <trkpt lat="45.59865" lon="4.39447">
        <ele>514.6</ele>
        <time>2017-03-19T09:01:14Z</time>
      </trkpt>
      <trkpt lat="45.59869" lon="4.39447">
        <ele>514.7</ele>
        <time>2017-03-19T09:01:15Z</time>
      </trkpt>
      <trkpt lat="45.59873" lon="4.39448">
        <ele>514.8</ele>
        <time>2017-03-19T09:01:16Z</time>
      </trkpt>
      <trkpt lat="45.59876" lon="4.39449">
        <ele>514.9</ele>
        <time>2017-03-19T09:01:17Z</time>
      </trkpt>
      <trkpt lat="45.59879" lon="4.3945">
        <ele>515</ele>
        <time>2017-03-19T09:01:18Z</time>
      </trkpt>
      <trkpt lat="45.59883" lon="4.39451">
        <ele>515.2</ele>
        <time>2017-03-19T09:01:19Z</time>
      </trkpt>
      <trkpt lat="45.59887" lon="4.39452">
        <ele>515.4</ele>
        <time>2017-03-19T09:01:20Z</time>
      </trkpt>
      <trkpt lat="45.59891" lon="4.39453">
        <ele>515.7</ele>
        <time>2017-03-19T09:01:21Z</time>
      </trkpt>
      <trkpt lat="45.59894" lon="4.39453">
        <ele>516</ele>
        <time>2017-03-19T09:01:22Z</time>
      </trkpt>
      <trkpt lat="45.59898" lon="4.39452">
        <ele>516.4</ele>
        <time>2017-03-19T09:01:23Z</time>
      </trkpt>
      <trkpt lat="45.59902" lon="4.39451">
        <ele>516.5</ele>
        <time>2017-03-19T09:01:24Z</time>
      </trkpt>
      <trkpt lat="45.59906" lon="4.3945">
        <ele>516.6</ele>
        <time>2017-03-19T09:01:25Z</time>
      </trkpt>
      <trkpt lat="45.59909" lon="4.39448">
        <ele>516.7</ele>
        <time>2017-03-19T09:01:26Z</time>
      </trkpt>
      <trkpt lat="45.59913" lon="4.39445">
        <ele>516.9</ele>
        <time>2017-03-19T09:01:27Z</time>
      </trkpt>
      <trkpt lat="45.59916" lon="4.39441">
        <ele>517</ele>
        <time>2017-03-19T09:01:28Z</time>
      </trkpt>
      <trkpt lat="45.59919" lon="4.39438">
        <ele>517.1</ele>
        <time>2017-03-19T09:01:29Z</time>
      </trkpt>
      <trkpt lat="45.59922" lon="4.39434">
        <ele>517.4</ele>
        <time>2017-03-19T09:01:30Z</time>
      </trkpt>
      <trkpt lat="45.59924" lon="4.39431">
        <ele>517.7</ele>
        <time>2017-03-19T09:01:31Z</time>
      </trkpt>
      <trkpt lat="45.59927" lon="4.39427">
        <ele>518</ele>
        <time>2017-03-19T09:01:32Z</time>
      </trkpt>
      <trkpt lat="45.5993" lon="4.39424">
        <ele>518.2</ele>
        <time>2017-03-19T09:01:33Z</time>
      </trkpt>
      <trkpt lat="45.59933" lon="4.39422">
        <ele>518.3</ele>
        <time>2017-03-19T09:01:34Z</time>
      </trkpt>
      <trkpt lat="45.59936" lon="4.39419">
        <ele>518.4</ele>
        <time>2017-03-19T09:01:35Z</time>
      </trkpt>
      <trkpt lat="45.5994" lon="4.39417">
        <ele>518.5</ele>
        <time>2017-03-19T09:01:36Z</time>
      </trkpt>
      <trkpt lat="45.59943" lon="4.39415">
        <ele>518.7</ele>
        <time>2017-03-19T09:01:37Z</time>
      </trkpt>
      <trkpt lat="45.59947" lon="4.39414">
        <ele>518.9</ele>
        <time>2017-03-19T09:01:38Z</time>
      </trkpt>
      <trkpt lat="45.59951" lon="4.39412">
        <ele>519.2</ele>
        <time>2017-03-19T09:01:39Z</time>
      </trkpt>
      <trkpt lat="45.59955" lon="4.39411">
        <ele>519.5</ele>
        <time>2017-03-19T09:01:40Z</time>
      </trkpt>
      <trkpt lat="45.59959" lon="4.39411">
        <ele>519.7</ele>
        <time>2017-03-19T09:01:41Z</time>
      </trkpt>
      <trkpt lat="45.59963" lon="4.3941">
        <ele>519.8</ele>
        <time>2017-03-19T09:01:42Z</time>
      </trkpt>
      <trkpt lat="45.59966" lon="4.3941">
        <ele>519.9</ele>
        <time>2017-03-19T09:01:43Z</time>
      </trkpt>
      <trkpt lat="45.5997" lon="4.39411">
        <ele>520</ele>
        <time>2017-03-19T09:01:44Z</time>
      </trkpt>
      <trkpt lat="45.59974" lon="4.39411">
        <ele>520.1</ele>
        <time>2017-03-19T09:01:45Z</time>
      </trkpt>
      <trkpt lat="45.59977" lon="4.39412">
        <ele>520.2</ele>
        <time>2017-03-19T09:01:46Z</time>
      </trkpt>
      <trkpt lat="45.5998" lon="4.39413">
        <ele>520.3</ele>
        <time>2017-03-19T09:01:47Z</time>
      </trkpt>
      <trkpt lat="45.59983" lon="4.39415">
        <ele>520.4</ele>
        <time>2017-03-19T09:01:48Z</time>
      </trkpt>
      <trkpt lat="45.59986" lon="4.39417">
        <ele>520.4</ele>
        <time>2017-03-19T09:01:49Z</time>
      </trkpt>
      <trkpt lat="45.59989" lon="4.39419">
        <ele>520.6</ele>
        <time>2017-03-19T09:01:50Z</time>
      </trkpt>
      <trkpt lat="45.59991" lon="4.39421">
        <ele>520.9</ele>
        <time>2017-03-19T09:01:51Z</time>
      </trkpt>
      <trkpt lat="45.59994" lon="4.39423">
        <ele>521.1</ele>
        <time>2017-03-19T09:01:52Z</time>
      </trkpt>
      <trkpt lat="45.59997" lon="4.39426">
        <ele>521.3</ele>
        <time>2017-03-19T09:01:53Z</time>
      </trkpt>
      <trkpt lat="45.6" lon="4.39428">
        <ele>521.3</ele>
        <time>2017-03-19T09:01:54Z</time>
      </trkpt>
      <trkpt lat="45.60002" lon="4.39431">
        <ele>521.4</ele>
        <time>2017-03-19T09:01:55Z</time>
      </trkpt>
      <trkpt lat="45.60005" lon="4.39433">
        <ele>521.5</ele>
        <time>2017-03-19T09:01:56Z</time>
      </trkpt>
      <trkpt lat="45.60008" lon="4.39435">
        <ele>521.6</ele>
        <time>2017-03-19T09:01:57Z</time>
      </trkpt>
      <trkpt lat="45.60011" lon="4.39437">
        <ele>521.7</ele>
        <time>2017-03-19T09:01:58Z</time>
      </trkpt>
      <trkpt lat="45.60014" lon="4.39439">
        <ele>521.8</ele>
        <time>2017-03-19T09:01:59Z</time>
      </trkpt>
      <trkpt lat="45.60016" lon="4.39442">
        <ele>521.9</ele>
        <time>2017-03-19T09:02:00Z</time>
      </trkpt>
      <trkpt lat="45.60019" lon="4.39444">
        <ele>522</ele>
        <time>2017-03-19T09:02:01Z</time>
      </trkpt>
      <trkpt lat="45.60021" lon="4.39447">
        <ele>521.9</ele>
        <time>2017-03-19T09:02:02Z</time>
      </trkpt>
      <trkpt lat="45.60024" lon="4.39449">
        <ele>521.9</ele>
        <time>2017-03-19T09:02:03Z</time>
      </trkpt>
      <trkpt lat="45.60026" lon="4.39451">
        <ele>521.9</ele>
        <time>2017-03-19T09:02:04Z</time>
      </trkpt>
      <trkpt lat="45.60029" lon="4.39453">
        <ele>521.8</ele>
        <time>2017-03-19T09:02:05Z</time>
      </trkpt>
      <trkpt lat="45.60032" lon="4.39455">
        <ele>521.8</ele>
        <time>2017-03-19T09:02:06Z</time>
      </trkpt>
      <trkpt lat="45.60035" lon="4.39457">
        <ele>521.7</ele>
        <time>2017-03-19T09:02:07Z</time>
      </trkpt>
      <trkpt lat="45.60038" lon="4.39459">
        <ele>521.7</ele>
        <time>2017-03-19T09:02:08Z</time>
      </trkpt>
      <trkpt lat="45.6004" lon="4.39462">
        <ele>521.7</ele>
        <time>2017-03-19T09:02:09Z</time>
      </trkpt>
      <trkpt lat="45.60043" lon="4.39465">
        <ele>521.7</ele>
        <time>2017-03-19T09:02:10Z</time>
      </trkpt>
      <trkpt lat="45.60046" lon="4.39467">
        <ele>521.7</ele>
        <time>2017-03-19T09:02:11Z</time>
      </trkpt>
      <trkpt lat="45.60049" lon="4.3947">
        <ele>521.7</ele>
        <time>2017-03-19T09:02:12Z</time>
      </trkpt>
      <trkpt lat="45.60052" lon="4.39472">
        <ele>521.7</ele>
        <time>2017-03-19T09:02:13Z</time>
      </trkpt>
      <trkpt lat="45.60055" lon="4.39474">
        <ele>521.7</ele>
        <time>2017-03-19T09:02:14Z</time>
      </trkpt>
      <trkpt lat="45.60058" lon="4.39476">
        <ele>521.7</ele>
        <time>2017-03-19T09:02:15Z</time>
      </trkpt>
      <trkpt lat="45.60061" lon="4.39478">
        <ele>521.7</ele>
        <time>2017-03-19T09:02:16Z</time>
      </trkpt>
      <trkpt lat="45.60064" lon="4.3948">
        <ele>521.8</ele>
        <time>2017-03-19T09:02:17Z</time>
      </trkpt>
      <trkpt lat="45.60067" lon="4.39483">
        <ele>521.8</ele>
        <time>2017-03-19T09:02:18Z</time>
      </trkpt>
      <trkpt lat="45.60071" lon="4.39486">
        <ele>521.8</ele>
        <time>2017-03-19T09:02:19Z</time>
      </trkpt>
      <trkpt lat="45.60074" lon="4.39488">
        <ele>521.9</ele>
        <time>2017-03-19T09:02:20Z</time>
      </trkpt>
      <trkpt lat="45.60077" lon="4.3949">
        <ele>521.9</ele>
        <time>2017-03-19T09:02:21Z</time>
      </trkpt>
      <trkpt lat="45.6008" lon="4.39492">
        <ele>522</ele>
        <time>2017-03-19T09:02:22Z</time>
      </trkpt>
      <trkpt lat="45.60083" lon="4.39493">
        <ele>521.9</ele>
        <time>2017-03-19T09:02:23Z</time>
      </trkpt>
      <trkpt lat="45.60086" lon="4.39494">
        <ele>521.8</ele>
        <time>2017-03-19T09:02:24Z</time>
      </trkpt>
      <trkpt lat="45.60089" lon="4.39495">
        <ele>521.6</ele>
        <time>2017-03-19T09:02:25Z</time>
      </trkpt>
      <trkpt lat="45.60092" lon="4.39494">
        <ele>521.5</ele>
        <time>2017-03-19T09:02:26Z</time>
      </trkpt>
      <trkpt lat="45.60096" lon="4.39493">
        <ele>521.3</ele>
        <time>2017-03-19T09:02:27Z</time>
      </trkpt>
      <trkpt lat="45.60099" lon="4.39491">
        <ele>521.1</ele>
        <time>2017-03-19T09:02:28Z</time>
      </trkpt>
      <trkpt lat="45.60103" lon="4.39489">
        <ele>520.9</ele>
        <time>2017-03-19T09:02:29Z</time>
      </trkpt>
      <trkpt lat="45.60106" lon="4.39487">
        <ele>520.7</ele>
        <time>2017-03-19T09:02:30Z</time>
      </trkpt>
      <trkpt lat="45.6011" lon="4.39484">
        <ele>520.6</ele>
        <time>2017-03-19T09:02:31Z</time>
      </trkpt>
      <trkpt lat="45.60114" lon="4.39482">
        <ele>520.4</ele>
        <time>2017-03-19T09:02:32Z</time>
      </trkpt>
      <trkpt lat="45.60118" lon="4.39479">
        <ele>520.2</ele>
        <time>2017-03-19T09:02:33Z</time>
      </trkpt>
      <trkpt lat="45.60122" lon="4.39477">
        <ele>520</ele>
        <time>2017-03-19T09:02:34Z</time>
      </trkpt>
      <trkpt lat="45.60126" lon="4.39475">
        <ele>519.9</ele>
        <time>2017-03-19T09:02:35Z</time>
      </trkpt>
      <trkpt lat="45.60129" lon="4.39473">
        <ele>519.8</ele>
        <time>2017-03-19T09:02:36Z</time>
      </trkpt>
      <trkpt lat="45.60133" lon="4.39471">
        <ele>519.7</ele>
        <time>2017-03-19T09:02:37Z</time>
      </trkpt>
      <trkpt lat="45.60137" lon="4.39469">
        <ele>519.5</ele>
        <time>2017-03-19T09:02:38Z</time>
      </trkpt>
      <trkpt lat="45.6014" lon="4.39467">
        <ele>519.4</ele>
        <time>2017-03-19T09:02:39Z</time>
      </trkpt>
      <trkpt lat="45.60144" lon="4.39465">
        <ele>519.3</ele>
        <time>2017-03-19T09:02:40Z</time>
      </trkpt>
      <trkpt lat="45.60148" lon="4.39464">
        <ele>519.1</ele>
        <time>2017-03-19T09:02:41Z</time>
      </trkpt>
      <trkpt lat="45.60152" lon="4.39462">
        <ele>519</ele>
        <time>2017-03-19T09:02:42Z</time>
      </trkpt>
      <trkpt lat="45.60155" lon="4.39461">
        <ele>518.8</ele>
        <time>2017-03-19T09:02:43Z</time>
      </trkpt>
      <trkpt lat="45.60158" lon="4.39459">
        <ele>518.7</ele>
        <time>2017-03-19T09:02:44Z</time>
      </trkpt>
      <trkpt lat="45.60162" lon="4.39458">
        <ele>518.6</ele>
        <time>2017-03-19T09:02:45Z</time>
      </trkpt>
      <trkpt lat="45.60165" lon="4.39456">
        <ele>518.4</ele>
        <time>2017-03-19T09:02:46Z</time>
      </trkpt>
      <trkpt lat="45.60169" lon="4.39453">
        <ele>518.2</ele>
        <time>2017-03-19T09:02:47Z</time>
      </trkpt>
      <trkpt lat="45.60171" lon="4.3945">
        <ele>518.1</ele>
        <time>2017-03-19T09:02:48Z</time>
      </trkpt>
      <trkpt lat="45.60176" lon="4.39446">
        <ele>517.9</ele>
        <time>2017-03-19T09:02:49Z</time>
      </trkpt>
      <trkpt lat="45.6018" lon="4.39442">
        <ele>517.7</ele>
        <time>2017-03-19T09:02:50Z</time>
      </trkpt>
      <trkpt lat="45.60184" lon="4.39439">
        <ele>517.5</ele>
        <time>2017-03-19T09:02:51Z</time>
      </trkpt>
      <trkpt lat="45.60188" lon="4.39435">
        <ele>517.4</ele>
        <time>2017-03-19T09:02:52Z</time>
      </trkpt>
      <trkpt lat="45.60193" lon="4.39431">
        <ele>517.2</ele>
        <time>2017-03-19T09:02:53Z</time>
      </trkpt>
      <trkpt lat="45.60197" lon="4.39427">
        <ele>517.1</ele>
        <time>2017-03-19T09:02:54Z</time>
      </trkpt>
      <trkpt lat="45.602" lon="4.39423">
        <ele>516.9</ele>
        <time>2017-03-19T09:02:55Z</time>
      </trkpt>
      <trkpt lat="45.60203" lon="4.39419">
        <ele>516.8</ele>
        <time>2017-03-19T09:02:56Z</time>
      </trkpt>
      <trkpt lat="45.60207" lon="4.39415">
        <ele>516.6</ele>
        <time>2017-03-19T09:02:57Z</time>
      </trkpt>
      <trkpt lat="45.60209" lon="4.3941">
        <ele>516.5</ele>
        <time>2017-03-19T09:02:58Z</time>
      </trkpt>
      <trkpt lat="45.60213" lon="4.39406">
        <ele>516.4</ele>
        <time>2017-03-19T09:02:59Z</time>
      </trkpt>
      <trkpt lat="45.60216" lon="4.39402">
        <ele>516.3</ele>
        <time>2017-03-19T09:03:00Z</time>
      </trkpt>
      <trkpt lat="45.60219" lon="4.39397">
        <ele>516.1</ele>
        <time>2017-03-19T09:03:01Z</time>
      </trkpt>
      <trkpt lat="45.60222" lon="4.39393">
        <ele>516</ele>
        <time>2017-03-19T09:03:02Z</time>
      </trkpt>
      <trkpt lat="45.60225" lon="4.39387">
        <ele>515.9</ele>
        <time>2017-03-19T09:03:03Z</time>
      </trkpt>
      <trkpt lat="45.60228" lon="4.39382">
        <ele>515.8</ele>
        <time>2017-03-19T09:03:04Z</time>
      </trkpt>
      <trkpt lat="45.60231" lon="4.39377">
        <ele>515.7</ele>
        <time>2017-03-19T09:03:05Z</time>
      </trkpt>
      <trkpt lat="45.60236" lon="4.39373">
        <ele>515.6</ele>
        <time>2017-03-19T09:03:06Z</time>
      </trkpt>
      <trkpt lat="45.6024" lon="4.39369">
        <ele>515.5</ele>
        <time>2017-03-19T09:03:07Z</time>
      </trkpt>
      <trkpt lat="45.60245" lon="4.39364">
        <ele>515.3</ele>
        <time>2017-03-19T09:03:08Z</time>
      </trkpt>
      <trkpt lat="45.6025" lon="4.39361">
        <ele>515.2</ele>
        <time>2017-03-19T09:03:09Z</time>
      </trkpt>
      <trkpt lat="45.60254" lon="4.39357">
        <ele>515.1</ele>
        <time>2017-03-19T09:03:10Z</time>
      </trkpt>
      <trkpt lat="45.60258" lon="4.39353">
        <ele>515</ele>
        <time>2017-03-19T09:03:11Z</time>
      </trkpt>
      <trkpt lat="45.60263" lon="4.39349">
        <ele>514.8</ele>
        <time>2017-03-19T09:03:12Z</time>
      </trkpt>
      <trkpt lat="45.60267" lon="4.39345">
        <ele>514.7</ele>
        <time>2017-03-19T09:03:13Z</time>
      </trkpt>
      <trkpt lat="45.60272" lon="4.39341">
        <ele>514.5</ele>
        <time>2017-03-19T09:03:14Z</time>
      </trkpt>
      <trkpt lat="45.60277" lon="4.39337">
        <ele>514.4</ele>
        <time>2017-03-19T09:03:15Z</time>
      </trkpt>
      <trkpt lat="45.6028" lon="4.39334">
        <ele>514.3</ele>
        <time>2017-03-19T09:03:16Z</time>
      </trkpt>
      <trkpt lat="45.60283" lon="4.39327">
        <ele>514.1</ele>
        <time>2017-03-19T09:03:17Z</time>
      </trkpt>
      <trkpt lat="45.60288" lon="4.39322">
        <ele>514</ele>
        <time>2017-03-19T09:03:18Z</time>
      </trkpt>
      <trkpt lat="45.60292" lon="4.39316">
        <ele>513.8</ele>
        <time>2017-03-19T09:03:19Z</time>
      </trkpt>
      <trkpt lat="45.60296" lon="4.39311">
        <ele>513.6</ele>
        <time>2017-03-19T09:03:20Z</time>
      </trkpt>
      <trkpt lat="45.60299" lon="4.39304">
        <ele>513.5</ele>
        <time>2017-03-19T09:03:21Z</time>
      </trkpt>
      <trkpt lat="45.60304" lon="4.39299">
        <ele>513.3</ele>
        <time>2017-03-19T09:03:22Z</time>
      </trkpt>
      <trkpt lat="45.60308" lon="4.39295">
        <ele>513.2</ele>
        <time>2017-03-19T09:03:23Z</time>
      </trkpt>
      <trkpt lat="45.60313" lon="4.3929">
        <ele>513</ele>
        <time>2017-03-19T09:03:24Z</time>
      </trkpt>
      <trkpt lat="45.60318" lon="4.39287">
        <ele>514.1</ele>
        <time>2017-03-19T09:03:25Z</time>
      </trkpt>
      <trkpt lat="45.60323" lon="4.39283">
        <ele>514.2</ele>
        <time>2017-03-19T09:03:26Z</time>
      </trkpt>
      <trkpt lat="45.60327" lon="4.39279">
        <ele>514.9</ele>
        <time>2017-03-19T09:03:27Z</time>
      </trkpt>
      <trkpt lat="45.60332" lon="4.39275">
        <ele>515.1</ele>
        <time>2017-03-19T09:03:28Z</time>
      </trkpt>
      <trkpt lat="45.60336" lon="4.39271">
        <ele>515.5</ele>
        <time>2017-03-19T09:03:29Z</time>
      </trkpt>
      <trkpt lat="45.6034" lon="4.39266">
        <ele>515.4</ele>
        <time>2017-03-19T09:03:30Z</time>
      </trkpt>
      <trkpt lat="45.60344" lon="4.39262">
        <ele>515.5</ele>
        <time>2017-03-19T09:03:31Z</time>
      </trkpt>
      <trkpt lat="45.60348" lon="4.39259">
        <ele>515.3</ele>
        <time>2017-03-19T09:03:32Z</time>
      </trkpt>
      <trkpt lat="45.60352" lon="4.39254">
        <ele>515.2</ele>
        <time>2017-03-19T09:03:33Z</time>
      </trkpt>
      <trkpt lat="45.60356" lon="4.39251">
        <ele>515.2</ele>
        <time>2017-03-19T09:03:34Z</time>
      </trkpt>
      <trkpt lat="45.6036" lon="4.39248">
        <ele>515.9</ele>
        <time>2017-03-19T09:03:35Z</time>
      </trkpt>
      <trkpt lat="45.60365" lon="4.39245">
        <ele>516</ele>
        <time>2017-03-19T09:03:36Z</time>
      </trkpt>
      <trkpt lat="45.60369" lon="4.39243">
        <ele>516.8</ele>
        <time>2017-03-19T09:03:37Z</time>
      </trkpt>
      <trkpt lat="45.60374" lon="4.39242">
        <ele>517.1</ele>
        <time>2017-03-19T09:03:38Z</time>
      </trkpt>
      <trkpt lat="45.60379" lon="4.39241">
        <ele>517.4</ele>
        <time>2017-03-19T09:03:39Z</time>
      </trkpt>
      <trkpt lat="45.60382" lon="4.39241">
        <ele>517.7</ele>
        <time>2017-03-19T09:03:40Z</time>
      </trkpt>
      <trkpt lat="45.60386" lon="4.3924">
        <ele>518.1</ele>
        <time>2017-03-19T09:03:41Z</time>
      </trkpt>
      <trkpt lat="45.6039" lon="4.39238">
        <ele>517.5</ele>
        <time>2017-03-19T09:03:42Z</time>
      </trkpt>
      <trkpt lat="45.60395" lon="4.39236">
        <ele>517.5</ele>
        <time>2017-03-19T09:03:43Z</time>
      </trkpt>
      <trkpt lat="45.60399" lon="4.39235">
        <ele>517.4</ele>
        <time>2017-03-19T09:03:44Z</time>
      </trkpt>
      <trkpt lat="45.60403" lon="4.39233">
        <ele>516.6</ele>
        <time>2017-03-19T09:03:45Z</time>
      </trkpt>
      <trkpt lat="45.60406" lon="4.39234">
        <ele>516.5</ele>
        <time>2017-03-19T09:03:46Z</time>
      </trkpt>
      <trkpt lat="45.6041" lon="4.39236">
        <ele>517.1</ele>
        <time>2017-03-19T09:03:47Z</time>
      </trkpt>
      <trkpt lat="45.60412" lon="4.3924">
        <ele>517.6</ele>
        <time>2017-03-19T09:03:48Z</time>
      </trkpt>
      <trkpt lat="45.60412" lon="4.39248">
        <ele>518.9</ele>
        <time>2017-03-19T09:03:50Z</time>
      </trkpt>
      <trkpt lat="45.6041" lon="4.39254">
        <ele>519.5</ele>
        <time>2017-03-19T09:03:52Z</time>
      </trkpt>
      <trkpt lat="45.60407" lon="4.39259">
        <ele>520.3</ele>
        <time>2017-03-19T09:03:54Z</time>
      </trkpt>
      <trkpt lat="45.60405" lon="4.39264">
        <ele>521.4</ele>
        <time>2017-03-19T09:03:56Z</time>
      </trkpt>
      <trkpt lat="45.60402" lon="4.3927">
        <ele>521.9</ele>
        <time>2017-03-19T09:03:58Z</time>
      </trkpt>
      <trkpt lat="45.604" lon="4.39276">
        <ele>522.2</ele>
        <time>2017-03-19T09:04:00Z</time>
      </trkpt>
      <trkpt lat="45.60398" lon="4.39283">
        <ele>522.5</ele>
        <time>2017-03-19T09:04:02Z</time>
      </trkpt>
      <trkpt lat="45.60396" lon="4.3929">
        <ele>522.7</ele>
        <time>2017-03-19T09:04:04Z</time>
      </trkpt>
      <trkpt lat="45.60395" lon="4.39294">
        <ele>522.9</ele>
        <time>2017-03-19T09:04:05Z</time>
      </trkpt>
      <trkpt lat="45.60393" lon="4.39301">
        <ele>523.2</ele>
        <time>2017-03-19T09:04:07Z</time>
      </trkpt>
      <trkpt lat="45.60393" lon="4.39306">
        <ele>523.3</ele>
        <time>2017-03-19T09:04:08Z</time>
      </trkpt>
      <trkpt lat="45.60392" lon="4.39311">
        <ele>523.3</ele>
        <time>2017-03-19T09:04:09Z</time>
      </trkpt>
      <trkpt lat="45.60391" lon="4.39316">
        <ele>523.4</ele>
        <time>2017-03-19T09:04:10Z</time>
      </trkpt>
      <trkpt lat="45.60389" lon="4.39322">
        <ele>523.4</ele>
        <time>2017-03-19T09:04:11Z</time>
      </trkpt>
      <trkpt lat="45.60388" lon="4.39329">
        <ele>523.3</ele>
        <time>2017-03-19T09:04:12Z</time>
      </trkpt>
      <trkpt lat="45.60387" lon="4.39335">
        <ele>523.3</ele>
        <time>2017-03-19T09:04:13Z</time>
      </trkpt>
      <trkpt lat="45.60386" lon="4.39342">
        <ele>523.4</ele>
        <time>2017-03-19T09:04:14Z</time>
      </trkpt>
      <trkpt lat="45.60386" lon="4.39349">
        <ele>523.3</ele>
        <time>2017-03-19T09:04:15Z</time>
      </trkpt>
      <trkpt lat="45.60385" lon="4.39357">
        <ele>523.3</ele>
        <time>2017-03-19T09:04:16Z</time>
      </trkpt>
      <trkpt lat="45.60384" lon="4.39364">
        <ele>523.2</ele>
        <time>2017-03-19T09:04:17Z</time>
      </trkpt>
      <trkpt lat="45.60383" lon="4.39371">
        <ele>523.1</ele>
        <time>2017-03-19T09:04:18Z</time>
      </trkpt>
      <trkpt lat="45.60383" lon="4.39378">
        <ele>522.9</ele>
        <time>2017-03-19T09:04:19Z</time>
      </trkpt>
      <trkpt lat="45.60381" lon="4.39385">
        <ele>522.9</ele>
        <time>2017-03-19T09:04:20Z</time>
      </trkpt>
      <trkpt lat="45.6038" lon="4.39392">
        <ele>523.2</ele>
        <time>2017-03-19T09:04:21Z</time>
      </trkpt>
      <trkpt lat="45.60379" lon="4.39398">
        <ele>523.5</ele>
        <time>2017-03-19T09:04:22Z</time>
      </trkpt>
      <trkpt lat="45.60379" lon="4.39403">
        <ele>523.8</ele>
        <time>2017-03-19T09:04:23Z</time>
      </trkpt>
      <trkpt lat="45.60377" lon="4.39408">
        <ele>524.1</ele>
        <time>2017-03-19T09:04:24Z</time>
      </trkpt>
      <trkpt lat="45.60376" lon="4.39412">
        <ele>524.7</ele>
        <time>2017-03-19T09:04:25Z</time>
      </trkpt>
      <trkpt lat="45.60375" lon="4.39418">
        <ele>525</ele>
        <time>2017-03-19T09:04:26Z</time>
      </trkpt>
      <trkpt lat="45.60374" lon="4.39422">
        <ele>525.4</ele>
        <time>2017-03-19T09:04:27Z</time>
      </trkpt>
      <trkpt lat="45.60373" lon="4.39426">
        <ele>526</ele>
        <time>2017-03-19T09:04:28Z</time>
      </trkpt>
      <trkpt lat="45.60373" lon="4.39431">
        <ele>526.4</ele>
        <time>2017-03-19T09:04:29Z</time>
      </trkpt>
      <trkpt lat="45.60371" lon="4.39436">
        <ele>526.8</ele>
        <time>2017-03-19T09:04:30Z</time>
      </trkpt>
      <trkpt lat="45.6037" lon="4.3944">
        <ele>527.7</ele>
        <time>2017-03-19T09:04:31Z</time>
      </trkpt>
      <trkpt lat="45.6037" lon="4.39445">
        <ele>528</ele>
        <time>2017-03-19T09:04:32Z</time>
      </trkpt>
      <trkpt lat="45.6037" lon="4.39449">
        <ele>528.4</ele>
        <time>2017-03-19T09:04:33Z</time>
      </trkpt>
      <trkpt lat="45.6037" lon="4.39453">
        <ele>528.4</ele>
        <time>2017-03-19T09:04:34Z</time>
      </trkpt>
      <trkpt lat="45.6037" lon="4.39457">
        <ele>528.7</ele>
        <time>2017-03-19T09:04:35Z</time>
      </trkpt>
      <trkpt lat="45.6037" lon="4.39462">
        <ele>529.1</ele>
        <time>2017-03-19T09:04:36Z</time>
      </trkpt>
      <trkpt lat="45.6037" lon="4.39466">
        <ele>529.5</ele>
        <time>2017-03-19T09:04:37Z</time>
      </trkpt>
      <trkpt lat="45.6037" lon="4.3947">
        <ele>529.5</ele>
        <time>2017-03-19T09:04:38Z</time>
      </trkpt>
      <trkpt lat="45.60369" lon="4.39475">
        <ele>529.7</ele>
        <time>2017-03-19T09:04:39Z</time>
      </trkpt>
      <trkpt lat="45.60369" lon="4.39479">
        <ele>529.9</ele>
        <time>2017-03-19T09:04:40Z</time>
      </trkpt>
      <trkpt lat="45.60369" lon="4.39484">
        <ele>529.9</ele>
        <time>2017-03-19T09:04:41Z</time>
      </trkpt>
      <trkpt lat="45.60369" lon="4.39489">
        <ele>530</ele>
        <time>2017-03-19T09:04:42Z</time>
      </trkpt>
      <trkpt lat="45.60369" lon="4.39493">
        <ele>530</ele>
        <time>2017-03-19T09:04:43Z</time>
      </trkpt>
      <trkpt lat="45.60369" lon="4.39498">
        <ele>530</ele>
        <time>2017-03-19T09:04:44Z</time>
      </trkpt>
      <trkpt lat="45.60369" lon="4.39502">
        <ele>529.9</ele>
        <time>2017-03-19T09:04:45Z</time>
      </trkpt>
      <trkpt lat="45.60368" lon="4.39507">
        <ele>529.9</ele>
        <time>2017-03-19T09:04:46Z</time>
      </trkpt>
      <trkpt lat="45.60368" lon="4.39511">
        <ele>530.3</ele>
        <time>2017-03-19T09:04:47Z</time>
      </trkpt>
      <trkpt lat="45.60367" lon="4.39515">
        <ele>530.3</ele>
        <time>2017-03-19T09:04:48Z</time>
      </trkpt>
      <trkpt lat="45.60366" lon="4.39519">
        <ele>530.4</ele>
        <time>2017-03-19T09:04:49Z</time>
      </trkpt>
      <trkpt lat="45.60366" lon="4.39526">
        <ele>530.4</ele>
        <time>2017-03-19T09:04:51Z</time>
      </trkpt>
      <trkpt lat="45.60369" lon="4.39532">
        <ele>529.9</ele>
        <time>2017-03-19T09:04:53Z</time>
      </trkpt>
      <trkpt lat="45.60373" lon="4.39536">
        <ele>529.4</ele>
        <time>2017-03-19T09:04:54Z</time>
      </trkpt>
      <trkpt lat="45.60379" lon="4.39538">
        <ele>528.2</ele>
        <time>2017-03-19T09:04:55Z</time>
      </trkpt>
      <trkpt lat="45.60382" lon="4.39544">
        <ele>528.2</ele>
        <time>2017-03-19T09:04:56Z</time>
      </trkpt>
      <trkpt lat="45.60387" lon="4.39551">
        <ele>527.8</ele>
        <time>2017-03-19T09:04:57Z</time>
      </trkpt>
      <trkpt lat="45.60391" lon="4.39558">
        <ele>528.4</ele>
        <time>2017-03-19T09:04:58Z</time>
      </trkpt>
      <trkpt lat="45.60396" lon="4.39564">
        <ele>528.1</ele>
        <time>2017-03-19T09:04:59Z</time>
      </trkpt>
      <trkpt lat="45.60402" lon="4.39573">
        <ele>527.7</ele>
        <time>2017-03-19T09:05:00Z</time>
      </trkpt>
      <trkpt lat="45.60406" lon="4.3958">
        <ele>527.7</ele>
        <time>2017-03-19T09:05:01Z</time>
      </trkpt>
      <trkpt lat="45.60411" lon="4.39588">
        <ele>527.1</ele>
        <time>2017-03-19T09:05:02Z</time>
      </trkpt>
      <trkpt lat="45.60415" lon="4.39596">
        <ele>527.8</ele>
        <time>2017-03-19T09:05:03Z</time>
      </trkpt>
      <trkpt lat="45.60419" lon="4.39603">
        <ele>528.2</ele>
        <time>2017-03-19T09:05:04Z</time>
      </trkpt>
      <trkpt lat="45.60422" lon="4.39611">
        <ele>529.2</ele>
        <time>2017-03-19T09:05:05Z</time>
      </trkpt>
      <trkpt lat="45.60425" lon="4.39618">
        <ele>530</ele>
        <time>2017-03-19T09:05:06Z</time>
      </trkpt>
      <trkpt lat="45.60426" lon="4.39624">
        <ele>530.2</ele>
        <time>2017-03-19T09:05:07Z</time>
      </trkpt>
      <trkpt lat="45.60427" lon="4.39631">
        <ele>530.9</ele>
        <time>2017-03-19T09:05:08Z</time>
      </trkpt>
      <trkpt lat="45.60427" lon="4.39637">
        <ele>531.2</ele>
        <time>2017-03-19T09:05:09Z</time>
      </trkpt>
      <trkpt lat="45.60428" lon="4.39642">
        <ele>531.8</ele>
        <time>2017-03-19T09:05:10Z</time>
      </trkpt>
      <trkpt lat="45.60429" lon="4.39648">
        <ele>532</ele>
        <time>2017-03-19T09:05:11Z</time>
      </trkpt>
      <trkpt lat="45.60429" lon="4.39653">
        <ele>532.3</ele>
        <time>2017-03-19T09:05:12Z</time>
      </trkpt>
      <trkpt lat="45.60429" lon="4.39658">
        <ele>532.5</ele>
        <time>2017-03-19T09:05:13Z</time>
      </trkpt>
      <trkpt lat="45.6043" lon="4.39664">
        <ele>532.7</ele>
        <time>2017-03-19T09:05:14Z</time>
      </trkpt>
      <trkpt lat="45.6043" lon="4.39669">
        <ele>532.7</ele>
        <time>2017-03-19T09:05:15Z</time>
      </trkpt>
      <trkpt lat="45.6043" lon="4.39674">
        <ele>532.6</ele>
        <time>2017-03-19T09:05:16Z</time>
      </trkpt>
      <trkpt lat="45.6043" lon="4.39679">
        <ele>532.5</ele>
        <time>2017-03-19T09:05:17Z</time>
      </trkpt>
      <trkpt lat="45.60429" lon="4.39684">
        <ele>532.2</ele>
        <time>2017-03-19T09:05:18Z</time>
      </trkpt>
      <trkpt lat="45.60428" lon="4.3969">
        <ele>531.7</ele>
        <time>2017-03-19T09:05:19Z</time>
      </trkpt>
      <trkpt lat="45.60428" lon="4.39697">
        <ele>531.8</ele>
        <time>2017-03-19T09:05:20Z</time>
      </trkpt>
      <trkpt lat="45.60427" lon="4.39704">
        <ele>531.5</ele>
        <time>2017-03-19T09:05:21Z</time>
      </trkpt>
      <trkpt lat="45.60425" lon="4.3971">
        <ele>531.3</ele>
        <time>2017-03-19T09:05:22Z</time>
      </trkpt>
      <trkpt lat="45.60423" lon="4.39717">
        <ele>531.3</ele>
        <time>2017-03-19T09:05:23Z</time>
      </trkpt>
      <trkpt lat="45.60421" lon="4.39724">
        <ele>531.2</ele>
        <time>2017-03-19T09:05:24Z</time>
      </trkpt>
      <trkpt lat="45.60419" lon="4.39732">
        <ele>531</ele>
        <time>2017-03-19T09:05:25Z</time>
      </trkpt>
      <trkpt lat="45.60417" lon="4.39738">
        <ele>530.5</ele>
        <time>2017-03-19T09:05:26Z</time>
      </trkpt>
      <trkpt lat="45.60415" lon="4.39745">
        <ele>530.3</ele>
        <time>2017-03-19T09:05:27Z</time>
      </trkpt>
      <trkpt lat="45.60413" lon="4.39751">
        <ele>529.7</ele>
        <time>2017-03-19T09:05:28Z</time>
      </trkpt>
      <trkpt lat="45.60412" lon="4.39758">
        <ele>529.7</ele>
        <time>2017-03-19T09:05:29Z</time>
      </trkpt>
      <trkpt lat="45.6041" lon="4.39763">
        <ele>529.3</ele>
        <time>2017-03-19T09:05:30Z</time>
      </trkpt>
      <trkpt lat="45.60408" lon="4.3977">
        <ele>528.9</ele>
        <time>2017-03-19T09:05:31Z</time>
      </trkpt>
      <trkpt lat="45.60406" lon="4.39777">
        <ele>528.6</ele>
        <time>2017-03-19T09:05:32Z</time>
      </trkpt>
      <trkpt lat="45.60404" lon="4.39784">
        <ele>528.3</ele>
        <time>2017-03-19T09:05:33Z</time>
      </trkpt>
      <trkpt lat="45.60402" lon="4.39791">
        <ele>527.8</ele>
        <time>2017-03-19T09:05:34Z</time>
      </trkpt>
      <trkpt lat="45.604" lon="4.39799">
        <ele>527.2</ele>
        <time>2017-03-19T09:05:35Z</time>
      </trkpt>
      <trkpt lat="45.60397" lon="4.39807">
        <ele>526.6</ele>
        <time>2017-03-19T09:05:36Z</time>
      </trkpt>
      <trkpt lat="45.60394" lon="4.39815">
        <ele>525.9</ele>
        <time>2017-03-19T09:05:37Z</time>
      </trkpt>
      <trkpt lat="45.60391" lon="4.39823">
        <ele>525.1</ele>
        <time>2017-03-19T09:05:38Z</time>
      </trkpt>
      <trkpt lat="45.60388" lon="4.39833">
        <ele>524.5</ele>
        <time>2017-03-19T09:05:39Z</time>
      </trkpt>
      <trkpt lat="45.60384" lon="4.39842">
        <ele>524.1</ele>
        <time>2017-03-19T09:05:40Z</time>
      </trkpt>
      <trkpt lat="45.60381" lon="4.39849">
        <ele>523.9</ele>
        <time>2017-03-19T09:05:41Z</time>
      </trkpt>
      <trkpt lat="45.60378" lon="4.39857">
        <ele>524.1</ele>
        <time>2017-03-19T09:05:42Z</time>
      </trkpt>
      <trkpt lat="45.60375" lon="4.39865">
        <ele>524.7</ele>
        <time>2017-03-19T09:05:43Z</time>
      </trkpt>
      <trkpt lat="45.60372" lon="4.3987">
        <ele>524.9</ele>
        <time>2017-03-19T09:05:44Z</time>
      </trkpt>
      <trkpt lat="45.6037" lon="4.39878">
        <ele>525.5</ele>
        <time>2017-03-19T09:05:45Z</time>
      </trkpt>
      <trkpt lat="45.60367" lon="4.39886">
        <ele>525.6</ele>
        <time>2017-03-19T09:05:46Z</time>
      </trkpt>
      <trkpt lat="45.60366" lon="4.39893">
        <ele>525.1</ele>
        <time>2017-03-19T09:05:47Z</time>
      </trkpt>
      <trkpt lat="45.60364" lon="4.39898">
        <ele>525.5</ele>
        <time>2017-03-19T09:05:48Z</time>
      </trkpt>
      <trkpt lat="45.60362" lon="4.39903">
        <ele>525.2</ele>
        <time>2017-03-19T09:05:49Z</time>
      </trkpt>
      <trkpt lat="45.6036" lon="4.39907">
        <ele>525.6</ele>
        <time>2017-03-19T09:05:50Z</time>
      </trkpt>
      <trkpt lat="45.60358" lon="4.39912">
        <ele>525.9</ele>
        <time>2017-03-19T09:05:51Z</time>
      </trkpt>
      <trkpt lat="45.60355" lon="4.39917">
        <ele>526.1</ele>
        <time>2017-03-19T09:05:52Z</time>
      </trkpt>
      <trkpt lat="45.60353" lon="4.39921">
        <ele>525.9</ele>
        <time>2017-03-19T09:05:53Z</time>
      </trkpt>
      <trkpt lat="45.60351" lon="4.39927">
        <ele>525.5</ele>
        <time>2017-03-19T09:05:54Z</time>
      </trkpt>
      <trkpt lat="45.60349" lon="4.39932">
        <ele>525.5</ele>
        <time>2017-03-19T09:05:55Z</time>
      </trkpt>
      <trkpt lat="45.60347" lon="4.39937">
        <ele>525.6</ele>
        <time>2017-03-19T09:05:56Z</time>
      </trkpt>
      <trkpt lat="45.60343" lon="4.39942">
        <ele>525.8</ele>
        <time>2017-03-19T09:05:57Z</time>
      </trkpt>
      <trkpt lat="45.6034" lon="4.39948">
        <ele>525.8</ele>
        <time>2017-03-19T09:05:58Z</time>
      </trkpt>
      <trkpt lat="45.60338" lon="4.39954">
        <ele>526.3</ele>
        <time>2017-03-19T09:05:59Z</time>
      </trkpt>
      <trkpt lat="45.60334" lon="4.39959">
        <ele>526.8</ele>
        <time>2017-03-19T09:06:00Z</time>
      </trkpt>
      <trkpt lat="45.60331" lon="4.39964">
        <ele>527.5</ele>
        <time>2017-03-19T09:06:01Z</time>
      </trkpt>
      <trkpt lat="45.60328" lon="4.3997">
        <ele>528.3</ele>
        <time>2017-03-19T09:06:02Z</time>
      </trkpt>
      <trkpt lat="45.60327" lon="4.39976">
        <ele>528.4</ele>
        <time>2017-03-19T09:06:03Z</time>
      </trkpt>
      <trkpt lat="45.60326" lon="4.39982">
        <ele>529.2</ele>
        <time>2017-03-19T09:06:04Z</time>
      </trkpt>
      <trkpt lat="45.60326" lon="4.39988">
        <ele>529.3</ele>
        <time>2017-03-19T09:06:05Z</time>
      </trkpt>
      <trkpt lat="45.60326" lon="4.39994">
        <ele>529.1</ele>
        <time>2017-03-19T09:06:06Z</time>
      </trkpt>
      <trkpt lat="45.60327" lon="4.39999">
        <ele>529.4</ele>
        <time>2017-03-19T09:06:07Z</time>
      </trkpt>
      <trkpt lat="45.60329" lon="4.40005">
        <ele>529.2</ele>
        <time>2017-03-19T09:06:08Z</time>
      </trkpt>
      <trkpt lat="45.60331" lon="4.4001">
        <ele>529.6</ele>
        <time>2017-03-19T09:06:09Z</time>
      </trkpt>
      <trkpt lat="45.60332" lon="4.40014">
        <ele>529.5</ele>
        <time>2017-03-19T09:06:10Z</time>
      </trkpt>
      <trkpt lat="45.60334" lon="4.4002">
        <ele>530.3</ele>
        <time>2017-03-19T09:06:11Z</time>
      </trkpt>
      <trkpt lat="45.60336" lon="4.40025">
        <ele>530.2</ele>
        <time>2017-03-19T09:06:12Z</time>
      </trkpt>
      <trkpt lat="45.60338" lon="4.4003">
        <ele>530.4</ele>
        <time>2017-03-19T09:06:13Z</time>
      </trkpt>
      <trkpt lat="45.60339" lon="4.40036">
        <ele>530.2</ele>
        <time>2017-03-19T09:06:14Z</time>
      </trkpt>
      <trkpt lat="45.60341" lon="4.40042">
        <ele>530.1</ele>
        <time>2017-03-19T09:06:15Z</time>
      </trkpt>
      <trkpt lat="45.60343" lon="4.40048">
        <ele>530.3</ele>
        <time>2017-03-19T09:06:16Z</time>
      </trkpt>
      <trkpt lat="45.60346" lon="4.40054">
        <ele>529.9</ele>
        <time>2017-03-19T09:06:17Z</time>
      </trkpt>
      <trkpt lat="45.60348" lon="4.4006">
        <ele>529.9</ele>
        <time>2017-03-19T09:06:18Z</time>
      </trkpt>
      <trkpt lat="45.6035" lon="4.40067">
        <ele>530.6</ele>
        <time>2017-03-19T09:06:19Z</time>
      </trkpt>
      <trkpt lat="45.60352" lon="4.40073">
        <ele>530.5</ele>
        <time>2017-03-19T09:06:20Z</time>
      </trkpt>
      <trkpt lat="45.60354" lon="4.4008">
        <ele>530.7</ele>
        <time>2017-03-19T09:06:21Z</time>
      </trkpt>
      <trkpt lat="45.60356" lon="4.40087">
        <ele>530.6</ele>
        <time>2017-03-19T09:06:22Z</time>
      </trkpt>
      <trkpt lat="45.60358" lon="4.40095">
        <ele>530.9</ele>
        <time>2017-03-19T09:06:23Z</time>
      </trkpt>
      <trkpt lat="45.60359" lon="4.40102">
        <ele>530.6</ele>
        <time>2017-03-19T09:06:24Z</time>
      </trkpt>
      <trkpt lat="45.60361" lon="4.40109">
        <ele>530.5</ele>
        <time>2017-03-19T09:06:25Z</time>
      </trkpt>
      <trkpt lat="45.60363" lon="4.40116">
        <ele>529.9</ele>
        <time>2017-03-19T09:06:26Z</time>
      </trkpt>
      <trkpt lat="45.60365" lon="4.40123">
        <ele>529.2</ele>
        <time>2017-03-19T09:06:27Z</time>
      </trkpt>
      <trkpt lat="45.60367" lon="4.4013">
        <ele>529.2</ele>
        <time>2017-03-19T09:06:28Z</time>
      </trkpt>
      <trkpt lat="45.60368" lon="4.40138">
        <ele>528.8</ele>
        <time>2017-03-19T09:06:29Z</time>
      </trkpt>
      <trkpt lat="45.6037" lon="4.40146">
        <ele>529.1</ele>
        <time>2017-03-19T09:06:30Z</time>
      </trkpt>
      <trkpt lat="45.60372" lon="4.40153">
        <ele>529.5</ele>
        <time>2017-03-19T09:06:31Z</time>
      </trkpt>
      <trkpt lat="45.60373" lon="4.4016">
        <ele>529.9</ele>
        <time>2017-03-19T09:06:32Z</time>
      </trkpt>
      <trkpt lat="45.60375" lon="4.40166">
        <ele>530.5</ele>
        <time>2017-03-19T09:06:33Z</time>
      </trkpt>
      <trkpt lat="45.60376" lon="4.40174">
        <ele>530.8</ele>
        <time>2017-03-19T09:06:34Z</time>
      </trkpt>
      <trkpt lat="45.60378" lon="4.4018">
        <ele>531.3</ele>
        <time>2017-03-19T09:06:35Z</time>
      </trkpt>
      <trkpt lat="45.6038" lon="4.40187">
        <ele>531.5</ele>
        <time>2017-03-19T09:06:36Z</time>
      </trkpt>
      <trkpt lat="45.60382" lon="4.40193">
        <ele>532</ele>
        <time>2017-03-19T09:06:37Z</time>
      </trkpt>
      <trkpt lat="45.60383" lon="4.40199">
        <ele>532.1</ele>
        <time>2017-03-19T09:06:38Z</time>
      </trkpt>
      <trkpt lat="45.60385" lon="4.40206">
        <ele>532.5</ele>
        <time>2017-03-19T09:06:39Z</time>
      </trkpt>
      <trkpt lat="45.60386" lon="4.40213">
        <ele>532.7</ele>
        <time>2017-03-19T09:06:40Z</time>
      </trkpt>
      <trkpt lat="45.60387" lon="4.40219">
        <ele>533</ele>
        <time>2017-03-19T09:06:41Z</time>
      </trkpt>
      <trkpt lat="45.60387" lon="4.40226">
        <ele>533.1</ele>
        <time>2017-03-19T09:06:42Z</time>
      </trkpt>
      <trkpt lat="45.60387" lon="4.40232">
        <ele>533.2</ele>
        <time>2017-03-19T09:06:43Z</time>
      </trkpt>
      <trkpt lat="45.60385" lon="4.40237">
        <ele>533.3</ele>
        <time>2017-03-19T09:06:44Z</time>
      </trkpt>
      <trkpt lat="45.60384" lon="4.40241">
        <ele>533.4</ele>
        <time>2017-03-19T09:06:45Z</time>
      </trkpt>
      <trkpt lat="45.60382" lon="4.40247">
        <ele>533.5</ele>
        <time>2017-03-19T09:06:46Z</time>
      </trkpt>
      <trkpt lat="45.6038" lon="4.40251">
        <ele>533.7</ele>
        <time>2017-03-19T09:06:47Z</time>
      </trkpt>
      <trkpt lat="45.60377" lon="4.40255">
        <ele>533.7</ele>
        <time>2017-03-19T09:06:48Z</time>
      </trkpt>
      <trkpt lat="45.60375" lon="4.4026">
        <ele>533.8</ele>
        <time>2017-03-19T09:06:49Z</time>
      </trkpt>
      <trkpt lat="45.60372" lon="4.40263">
        <ele>534</ele>
        <time>2017-03-19T09:06:50Z</time>
      </trkpt>
      <trkpt lat="45.60371" lon="4.40268">
        <ele>534.2</ele>
        <time>2017-03-19T09:06:51Z</time>
      </trkpt>
      <trkpt lat="45.60368" lon="4.40271">
        <ele>534.3</ele>
        <time>2017-03-19T09:06:52Z</time>
      </trkpt>
      <trkpt lat="45.60365" lon="4.40275">
        <ele>534.3</ele>
        <time>2017-03-19T09:06:53Z</time>
      </trkpt>
      <trkpt lat="45.60363" lon="4.40279">
        <ele>534.5</ele>
        <time>2017-03-19T09:06:54Z</time>
      </trkpt>
      <trkpt lat="45.60361" lon="4.40281">
        <ele>534.7</ele>
        <time>2017-03-19T09:06:55Z</time>
      </trkpt>
      <trkpt lat="45.60358" lon="4.40284">
        <ele>534.9</ele>
        <time>2017-03-19T09:06:56Z</time>
      </trkpt>
      <trkpt lat="45.60356" lon="4.40287">
        <ele>535.2</ele>
        <time>2017-03-19T09:06:57Z</time>
      </trkpt>
      <trkpt lat="45.60354" lon="4.4029">
        <ele>535.2</ele>
        <time>2017-03-19T09:06:58Z</time>
      </trkpt>
      <trkpt lat="45.60351" lon="4.40292">
        <ele>535.7</ele>
        <time>2017-03-19T09:06:59Z</time>
      </trkpt>
      <trkpt lat="45.60347" lon="4.40296">
        <ele>536.3</ele>
        <time>2017-03-19T09:07:01Z</time>
      </trkpt>
      <trkpt lat="45.60345" lon="4.40298">
        <ele>536.7</ele>
        <time>2017-03-19T09:07:02Z</time>
      </trkpt>
      <trkpt lat="45.6034" lon="4.40302">
        <ele>537.8</ele>
        <time>2017-03-19T09:07:04Z</time>
      </trkpt>
      <trkpt lat="45.60336" lon="4.40305">
        <ele>538.6</ele>
        <time>2017-03-19T09:07:06Z</time>
      </trkpt>
      <trkpt lat="45.60333" lon="4.40308">
        <ele>539.4</ele>
        <time>2017-03-19T09:07:08Z</time>
      </trkpt>
      <trkpt lat="45.60329" lon="4.40311">
        <ele>539.8</ele>
        <time>2017-03-19T09:07:10Z</time>
      </trkpt>
      <trkpt lat="45.60326" lon="4.40315">
        <ele>540.6</ele>
        <time>2017-03-19T09:07:12Z</time>
      </trkpt>
      <trkpt lat="45.60322" lon="4.40319">
        <ele>541.9</ele>
        <time>2017-03-19T09:07:14Z</time>
      </trkpt>
      <trkpt lat="45.60318" lon="4.40322">
        <ele>542.9</ele>
        <time>2017-03-19T09:07:16Z</time>
      </trkpt>
      <trkpt lat="45.60315" lon="4.40325">
        <ele>543.8</ele>
        <time>2017-03-19T09:07:18Z</time>
      </trkpt>
      <trkpt lat="45.60311" lon="4.40327">
        <ele>544.2</ele>
        <time>2017-03-19T09:07:20Z</time>
      </trkpt>
      <trkpt lat="45.60307" lon="4.40329">
        <ele>545.1</ele>
        <time>2017-03-19T09:07:22Z</time>
      </trkpt>
      <trkpt lat="45.60302" lon="4.4033">
        <ele>545.2</ele>
        <time>2017-03-19T09:07:24Z</time>
      </trkpt>
      <trkpt lat="45.60298" lon="4.40332">
        <ele>545.3</ele>
        <time>2017-03-19T09:07:26Z</time>
      </trkpt>
      <trkpt lat="45.60295" lon="4.40333">
        <ele>545.7</ele>
        <time>2017-03-19T09:07:28Z</time>
      </trkpt>
      <trkpt lat="45.60291" lon="4.40336">
        <ele>545.7</ele>
        <time>2017-03-19T09:07:30Z</time>
      </trkpt>
      <trkpt lat="45.6029" lon="4.40341">
        <ele>546</ele>
        <time>2017-03-19T09:07:32Z</time>
      </trkpt>
      <trkpt lat="45.60289" lon="4.40345">
        <ele>546.3</ele>
        <time>2017-03-19T09:07:34Z</time>
      </trkpt>
      <trkpt lat="45.60288" lon="4.40351">
        <ele>547.1</ele>
        <time>2017-03-19T09:07:36Z</time>
      </trkpt>
      <trkpt lat="45.60287" lon="4.40356">
        <ele>547.4</ele>
        <time>2017-03-19T09:07:38Z</time>
      </trkpt>
      <trkpt lat="45.60287" lon="4.40362">
        <ele>547.7</ele>
        <time>2017-03-19T09:07:40Z</time>
      </trkpt>
      <trkpt lat="45.60286" lon="4.40367">
        <ele>548.1</ele>
        <time>2017-03-19T09:07:42Z</time>
      </trkpt>
      <trkpt lat="45.60286" lon="4.40373">
        <ele>548.8</ele>
        <time>2017-03-19T09:07:44Z</time>
      </trkpt>
      <trkpt lat="45.60285" lon="4.40378">
        <ele>549.2</ele>
        <time>2017-03-19T09:07:46Z</time>
      </trkpt>
      <trkpt lat="45.60284" lon="4.40384">
        <ele>549.6</ele>
        <time>2017-03-19T09:07:48Z</time>
      </trkpt>
      <trkpt lat="45.60283" lon="4.40391">
        <ele>550.7</ele>
        <time>2017-03-19T09:07:50Z</time>
      </trkpt>
      <trkpt lat="45.60283" lon="4.40397">
        <ele>551.1</ele>
        <time>2017-03-19T09:07:52Z</time>
      </trkpt>
      <trkpt lat="45.60282" lon="4.40404">
        <ele>551.9</ele>
        <time>2017-03-19T09:07:54Z</time>
      </trkpt>
      <trkpt lat="45.60281" lon="4.40411">
        <ele>552.6</ele>
        <time>2017-03-19T09:07:56Z</time>
      </trkpt>
      <trkpt lat="45.60281" lon="4.40418">
        <ele>553.1</ele>
        <time>2017-03-19T09:07:58Z</time>
      </trkpt>
      <trkpt lat="45.60279" lon="4.40425">
        <ele>553.4</ele>
        <time>2017-03-19T09:08:00Z</time>
      </trkpt>
      <trkpt lat="45.60279" lon="4.40429">
        <ele>553.7</ele>
        <time>2017-03-19T09:08:01Z</time>
      </trkpt>
      <trkpt lat="45.60279" lon="4.40434">
        <ele>553.9</ele>
        <time>2017-03-19T09:08:02Z</time>
      </trkpt>
      <trkpt lat="45.60278" lon="4.40438">
        <ele>554</ele>
        <time>2017-03-19T09:08:03Z</time>
      </trkpt>
      <trkpt lat="45.60278" lon="4.40442">
        <ele>554.5</ele>
        <time>2017-03-19T09:08:04Z</time>
      </trkpt>
      <trkpt lat="45.60277" lon="4.40447">
        <ele>554.6</ele>
        <time>2017-03-19T09:08:05Z</time>
      </trkpt>
      <trkpt lat="45.60277" lon="4.40452">
        <ele>554.8</ele>
        <time>2017-03-19T09:08:06Z</time>
      </trkpt>
      <trkpt lat="45.60276" lon="4.40457">
        <ele>555</ele>
        <time>2017-03-19T09:08:07Z</time>
      </trkpt>
      <trkpt lat="45.60276" lon="4.40462">
        <ele>555.4</ele>
        <time>2017-03-19T09:08:08Z</time>
      </trkpt>
      <trkpt lat="45.60275" lon="4.40467">
        <ele>555.6</ele>
        <time>2017-03-19T09:08:09Z</time>
      </trkpt>
      <trkpt lat="45.60275" lon="4.40472">
        <ele>556.1</ele>
        <time>2017-03-19T09:08:10Z</time>
      </trkpt>
      <trkpt lat="45.60274" lon="4.40478">
        <ele>556.3</ele>
        <time>2017-03-19T09:08:11Z</time>
      </trkpt>
      <trkpt lat="45.60273" lon="4.40483">
        <ele>556.6</ele>
        <time>2017-03-19T09:08:12Z</time>
      </trkpt>
      <trkpt lat="45.60273" lon="4.40489">
        <ele>556.8</ele>
        <time>2017-03-19T09:08:13Z</time>
      </trkpt>
      <trkpt lat="45.60272" lon="4.40494">
        <ele>557</ele>
        <time>2017-03-19T09:08:14Z</time>
      </trkpt>
      <trkpt lat="45.60272" lon="4.405">
        <ele>557.2</ele>
        <time>2017-03-19T09:08:15Z</time>
      </trkpt>
      <trkpt lat="45.60271" lon="4.40505">
        <ele>557.2</ele>
        <time>2017-03-19T09:08:16Z</time>
      </trkpt>
      <trkpt lat="45.60271" lon="4.40511">
        <ele>557.2</ele>
        <time>2017-03-19T09:08:17Z</time>
      </trkpt>
      <trkpt lat="45.6027" lon="4.40516">
        <ele>557.2</ele>
        <time>2017-03-19T09:08:18Z</time>
      </trkpt>
      <trkpt lat="45.60269" lon="4.4052">
        <ele>557.4</ele>
        <time>2017-03-19T09:08:19Z</time>
      </trkpt>
      <trkpt lat="45.60268" lon="4.40525">
        <ele>557.4</ele>
        <time>2017-03-19T09:08:20Z</time>
      </trkpt>
      <trkpt lat="45.60267" lon="4.40529">
        <ele>557.4</ele>
        <time>2017-03-19T09:08:21Z</time>
      </trkpt>
      <trkpt lat="45.60265" lon="4.40533">
        <ele>557.6</ele>
        <time>2017-03-19T09:08:22Z</time>
      </trkpt>
      <trkpt lat="45.60263" lon="4.40536">
        <ele>557.8</ele>
        <time>2017-03-19T09:08:23Z</time>
      </trkpt>
      <trkpt lat="45.60261" lon="4.40539">
        <ele>558</ele>
        <time>2017-03-19T09:08:24Z</time>
      </trkpt>
      <trkpt lat="45.60259" lon="4.40543">
        <ele>558.2</ele>
        <time>2017-03-19T09:08:25Z</time>
      </trkpt>
      <trkpt lat="45.60258" lon="4.40547">
        <ele>558.4</ele>
        <time>2017-03-19T09:08:26Z</time>
      </trkpt>
      <trkpt lat="45.60257" lon="4.40551">
        <ele>558.7</ele>
        <time>2017-03-19T09:08:27Z</time>
      </trkpt>
      <trkpt lat="45.60257" lon="4.40555">
        <ele>558.9</ele>
        <time>2017-03-19T09:08:28Z</time>
      </trkpt>
      <trkpt lat="45.60258" lon="4.40562">
        <ele>559.5</ele>
        <time>2017-03-19T09:08:30Z</time>
      </trkpt>
      <trkpt lat="45.60259" lon="4.40566">
        <ele>559.9</ele>
        <time>2017-03-19T09:08:31Z</time>
      </trkpt>
      <trkpt lat="45.6026" lon="4.40571">
        <ele>560.3</ele>
        <time>2017-03-19T09:08:32Z</time>
      </trkpt>
      <trkpt lat="45.60261" lon="4.40575">
        <ele>560.8</ele>
        <time>2017-03-19T09:08:33Z</time>
      </trkpt>
      <trkpt lat="45.60262" lon="4.40579">
        <ele>561.2</ele>
        <time>2017-03-19T09:08:34Z</time>
      </trkpt>
      <trkpt lat="45.60262" lon="4.40584">
        <ele>561.6</ele>
        <time>2017-03-19T09:08:35Z</time>
      </trkpt>
      <trkpt lat="45.60263" lon="4.40588">
        <ele>562</ele>
        <time>2017-03-19T09:08:36Z</time>
      </trkpt>
      <trkpt lat="45.60264" lon="4.40593">
        <ele>562.4</ele>
        <time>2017-03-19T09:08:37Z</time>
      </trkpt>
      <trkpt lat="45.60265" lon="4.406">
        <ele>562.9</ele>
        <time>2017-03-19T09:08:39Z</time>
      </trkpt>
      <trkpt lat="45.60265" lon="4.40605">
        <ele>563.2</ele>
        <time>2017-03-19T09:08:40Z</time>
      </trkpt>
      <trkpt lat="45.60264" lon="4.40609">
        <ele>563.4</ele>
        <time>2017-03-19T09:08:41Z</time>
      </trkpt>
      <trkpt lat="45.60264" lon="4.40614">
        <ele>563.5</ele>
        <time>2017-03-19T09:08:42Z</time>
      </trkpt>
      <trkpt lat="45.60263" lon="4.40618">
        <ele>563.8</ele>
        <time>2017-03-19T09:08:43Z</time>
      </trkpt>
      <trkpt lat="45.60261" lon="4.40623">
        <ele>564</ele>
        <time>2017-03-19T09:08:44Z</time>
      </trkpt>
      <trkpt lat="45.6026" lon="4.40627">
        <ele>564.1</ele>
        <time>2017-03-19T09:08:45Z</time>
      </trkpt>
      <trkpt lat="45.60258" lon="4.40631">
        <ele>564.2</ele>
        <time>2017-03-19T09:08:46Z</time>
      </trkpt>
      <trkpt lat="45.60256" lon="4.40636">
        <ele>564.3</ele>
        <time>2017-03-19T09:08:47Z</time>
      </trkpt>
      <trkpt lat="45.60255" lon="4.4064">
        <ele>564.3</ele>
        <time>2017-03-19T09:08:48Z</time>
      </trkpt>
      <trkpt lat="45.60253" lon="4.40644">
        <ele>564.3</ele>
        <time>2017-03-19T09:08:49Z</time>
      </trkpt>
      <trkpt lat="45.60251" lon="4.40648">
        <ele>564.3</ele>
        <time>2017-03-19T09:08:50Z</time>
      </trkpt>
      <trkpt lat="45.6025" lon="4.40652">
        <ele>564.4</ele>
        <time>2017-03-19T09:08:51Z</time>
      </trkpt>
      <trkpt lat="45.60248" lon="4.40656">
        <ele>564.4</ele>
        <time>2017-03-19T09:08:52Z</time>
      </trkpt>
      <trkpt lat="45.60247" lon="4.4066">
        <ele>564.6</ele>
        <time>2017-03-19T09:08:53Z</time>
      </trkpt>
      <trkpt lat="45.60246" lon="4.40664">
        <ele>564.7</ele>
        <time>2017-03-19T09:08:54Z</time>
      </trkpt>
      <trkpt lat="45.60245" lon="4.40667">
        <ele>565</ele>
        <time>2017-03-19T09:08:55Z</time>
      </trkpt>
      <trkpt lat="45.60244" lon="4.40671">
        <ele>565.1</ele>
        <time>2017-03-19T09:08:56Z</time>
      </trkpt>
      <trkpt lat="45.60243" lon="4.40676">
        <ele>565.1</ele>
        <time>2017-03-19T09:08:57Z</time>
      </trkpt>
      <trkpt lat="45.60242" lon="4.4068">
        <ele>565.4</ele>
        <time>2017-03-19T09:08:58Z</time>
      </trkpt>
      <trkpt lat="45.6024" lon="4.40684">
        <ele>565.5</ele>
        <time>2017-03-19T09:08:59Z</time>
      </trkpt>
      <trkpt lat="45.60239" lon="4.40688">
        <ele>565.6</ele>
        <time>2017-03-19T09:09:00Z</time>
      </trkpt>
      <trkpt lat="45.60238" lon="4.40692">
        <ele>565.9</ele>
        <time>2017-03-19T09:09:01Z</time>
      </trkpt>
      <trkpt lat="45.60237" lon="4.40696">
        <ele>566</ele>
        <time>2017-03-19T09:09:02Z</time>
      </trkpt>
      <trkpt lat="45.60237" lon="4.407">
        <ele>566.3</ele>
        <time>2017-03-19T09:09:03Z</time>
      </trkpt>
      <trkpt lat="45.60236" lon="4.40704">
        <ele>566.7</ele>
        <time>2017-03-19T09:09:04Z</time>
      </trkpt>
      <trkpt lat="45.60234" lon="4.40708">
        <ele>567.1</ele>
        <time>2017-03-19T09:09:05Z</time>
      </trkpt>
      <trkpt lat="45.60233" lon="4.40712">
        <ele>567.6</ele>
        <time>2017-03-19T09:09:06Z</time>
      </trkpt>
      <trkpt lat="45.60231" lon="4.40716">
        <ele>568.2</ele>
        <time>2017-03-19T09:09:07Z</time>
      </trkpt>
      <trkpt lat="45.6023" lon="4.4072">
        <ele>568.8</ele>
        <time>2017-03-19T09:09:08Z</time>
      </trkpt>
      <trkpt lat="45.60228" lon="4.40723">
        <ele>568.9</ele>
        <time>2017-03-19T09:09:09Z</time>
      </trkpt>
      <trkpt lat="45.60226" lon="4.40727">
        <ele>569.4</ele>
        <time>2017-03-19T09:09:10Z</time>
      </trkpt>
      <trkpt lat="45.60224" lon="4.40731">
        <ele>569.8</ele>
        <time>2017-03-19T09:09:11Z</time>
      </trkpt>
      <trkpt lat="45.60221" lon="4.40737">
        <ele>570.6</ele>
        <time>2017-03-19T09:09:13Z</time>
      </trkpt>
      <trkpt lat="45.60218" lon="4.40743">
        <ele>571.1</ele>
        <time>2017-03-19T09:09:15Z</time>
      </trkpt>
      <trkpt lat="45.60215" lon="4.40748">
        <ele>571.8</ele>
        <time>2017-03-19T09:09:17Z</time>
      </trkpt>
      <trkpt lat="45.60211" lon="4.40753">
        <ele>572.5</ele>
        <time>2017-03-19T09:09:19Z</time>
      </trkpt>
      <trkpt lat="45.60209" lon="4.40756">
        <ele>572.9</ele>
        <time>2017-03-19T09:09:20Z</time>
      </trkpt>
      <trkpt lat="45.60207" lon="4.40759">
        <ele>573.7</ele>
        <time>2017-03-19T09:09:21Z</time>
      </trkpt>
      <trkpt lat="45.60205" lon="4.40762">
        <ele>574</ele>
        <time>2017-03-19T09:09:22Z</time>
      </trkpt>
      <trkpt lat="45.60204" lon="4.40765">
        <ele>574.6</ele>
        <time>2017-03-19T09:09:23Z</time>
      </trkpt>
      <trkpt lat="45.60202" lon="4.40768">
        <ele>575.3</ele>
        <time>2017-03-19T09:09:24Z</time>
      </trkpt>
      <trkpt lat="45.60201" lon="4.40771">
        <ele>575.8</ele>
        <time>2017-03-19T09:09:25Z</time>
      </trkpt>
      <trkpt lat="45.60198" lon="4.40778">
        <ele>576.5</ele>
        <time>2017-03-19T09:09:27Z</time>
      </trkpt>
      <trkpt lat="45.60196" lon="4.40785">
        <ele>577.3</ele>
        <time>2017-03-19T09:09:29Z</time>
      </trkpt>
      <trkpt lat="45.60196" lon="4.40792">
        <ele>577.7</ele>
        <time>2017-03-19T09:09:31Z</time>
      </trkpt>
      <trkpt lat="45.60196" lon="4.40799">
        <ele>577.9</ele>
        <time>2017-03-19T09:09:33Z</time>
      </trkpt>
      <trkpt lat="45.60195" lon="4.40807">
        <ele>578</ele>
        <time>2017-03-19T09:09:35Z</time>
      </trkpt>
      <trkpt lat="45.60194" lon="4.40813">
        <ele>578</ele>
        <time>2017-03-19T09:09:37Z</time>
      </trkpt>
      <trkpt lat="45.60193" lon="4.40821">
        <ele>578.4</ele>
        <time>2017-03-19T09:09:39Z</time>
      </trkpt>
      <trkpt lat="45.60192" lon="4.40828">
        <ele>578.5</ele>
        <time>2017-03-19T09:09:41Z</time>
      </trkpt>
      <trkpt lat="45.6019" lon="4.40834">
        <ele>578.9</ele>
        <time>2017-03-19T09:09:43Z</time>
      </trkpt>
      <trkpt lat="45.60189" lon="4.40839">
        <ele>579</ele>
        <time>2017-03-19T09:09:45Z</time>
      </trkpt>
      <trkpt lat="45.60188" lon="4.40845">
        <ele>579.6</ele>
        <time>2017-03-19T09:09:47Z</time>
      </trkpt>
      <trkpt lat="45.60187" lon="4.40851">
        <ele>579.7</ele>
        <time>2017-03-19T09:09:49Z</time>
      </trkpt>
      <trkpt lat="45.60186" lon="4.40857">
        <ele>579.9</ele>
        <time>2017-03-19T09:09:51Z</time>
      </trkpt>
      <trkpt lat="45.60186" lon="4.40864">
        <ele>580</ele>
        <time>2017-03-19T09:09:53Z</time>
      </trkpt>
      <trkpt lat="45.60185" lon="4.40871">
        <ele>580.2</ele>
        <time>2017-03-19T09:09:55Z</time>
      </trkpt>
      <trkpt lat="45.60183" lon="4.40877">
        <ele>580.9</ele>
        <time>2017-03-19T09:09:57Z</time>
      </trkpt>
      <trkpt lat="45.6018" lon="4.40882">
        <ele>581.5</ele>
        <time>2017-03-19T09:09:59Z</time>
      </trkpt>
      <trkpt lat="45.60177" lon="4.40887">
        <ele>582</ele>
        <time>2017-03-19T09:10:01Z</time>
      </trkpt>
      <trkpt lat="45.60175" lon="4.40893">
        <ele>582.4</ele>
        <time>2017-03-19T09:10:03Z</time>
      </trkpt>
      <trkpt lat="45.60173" lon="4.409">
        <ele>582.7</ele>
        <time>2017-03-19T09:10:05Z</time>
      </trkpt>
      <trkpt lat="45.60175" lon="4.40907">
        <ele>582</ele>
        <time>2017-03-19T09:10:07Z</time>
      </trkpt>
      <trkpt lat="45.60178" lon="4.40911">
        <ele>581.3</ele>
        <time>2017-03-19T09:10:08Z</time>
      </trkpt>
      <trkpt lat="45.60181" lon="4.40913">
        <ele>580.6</ele>
        <time>2017-03-19T09:10:09Z</time>
      </trkpt>
      <trkpt lat="45.60184" lon="4.40915">
        <ele>580</ele>
        <time>2017-03-19T09:10:10Z</time>
      </trkpt>
      <trkpt lat="45.60186" lon="4.40918">
        <ele>580</ele>
        <time>2017-03-19T09:10:11Z</time>
      </trkpt>
      <trkpt lat="45.60187" lon="4.40922">
        <ele>580</ele>
        <time>2017-03-19T09:10:12Z</time>
      </trkpt>
      <trkpt lat="45.60186" lon="4.40927">
        <ele>580</ele>
        <time>2017-03-19T09:10:13Z</time>
      </trkpt>
      <trkpt lat="45.60184" lon="4.4093">
        <ele>580</ele>
        <time>2017-03-19T09:10:14Z</time>
      </trkpt>
      <trkpt lat="45.60182" lon="4.40933">
        <ele>580</ele>
        <time>2017-03-19T09:10:15Z</time>
      </trkpt>
      <trkpt lat="45.60182" lon="4.40937">
        <ele>580</ele>
        <time>2017-03-19T09:10:16Z</time>
      </trkpt>
      <trkpt lat="45.60184" lon="4.40941">
        <ele>580</ele>
        <time>2017-03-19T09:10:17Z</time>
      </trkpt>
      <trkpt lat="45.60187" lon="4.40942">
        <ele>580</ele>
        <time>2017-03-19T09:10:18Z</time>
      </trkpt>
      <trkpt lat="45.60191" lon="4.40942">
        <ele>580</ele>
        <time>2017-03-19T09:10:19Z</time>
      </trkpt>
      <trkpt lat="45.60195" lon="4.40941">
        <ele>579.6</ele>
        <time>2017-03-19T09:10:21Z</time>
      </trkpt>
      <trkpt lat="45.60199" lon="4.40939">
        <ele>579.3</ele>
        <time>2017-03-19T09:10:23Z</time>
      </trkpt>
      <trkpt lat="45.60202" lon="4.40937">
        <ele>579</ele>
        <time>2017-03-19T09:10:25Z</time>
      </trkpt>
      <trkpt lat="45.60206" lon="4.40932">
        <ele>578.6</ele>
        <time>2017-03-19T09:10:27Z</time>
      </trkpt>
      <trkpt lat="45.60208" lon="4.40929">
        <ele>578.3</ele>
        <time>2017-03-19T09:10:28Z</time>
      </trkpt>
      <trkpt lat="45.6021" lon="4.40926">
        <ele>578.1</ele>
        <time>2017-03-19T09:10:29Z</time>
      </trkpt>
      <trkpt lat="45.60212" lon="4.40923">
        <ele>577.8</ele>
        <time>2017-03-19T09:10:30Z</time>
      </trkpt>
      <trkpt lat="45.60215" lon="4.4092">
        <ele>577.5</ele>
        <time>2017-03-19T09:10:32Z</time>
      </trkpt>
      <trkpt lat="45.60217" lon="4.40922">
        <ele>577.3</ele>
        <time>2017-03-19T09:10:34Z</time>
      </trkpt>
      <trkpt lat="45.60218" lon="4.40926">
        <ele>577.5</ele>
        <time>2017-03-19T09:10:35Z</time>
      </trkpt>
      <trkpt lat="45.60217" lon="4.40931">
        <ele>577.8</ele>
        <time>2017-03-19T09:10:36Z</time>
      </trkpt>
      <trkpt lat="45.60215" lon="4.40935">
        <ele>578.1</ele>
        <time>2017-03-19T09:10:37Z</time>
      </trkpt>
      <trkpt lat="45.60215" lon="4.40938">
        <ele>578.1</ele>
        <time>2017-03-19T09:10:38Z</time>
      </trkpt>
      <trkpt lat="45.60216" lon="4.40942">
        <ele>577.9</ele>
        <time>2017-03-19T09:10:39Z</time>
      </trkpt>
      <trkpt lat="45.60219" lon="4.40945">
        <ele>577.6</ele>
        <time>2017-03-19T09:10:40Z</time>
      </trkpt>
      <trkpt lat="45.60225" lon="4.40944">
        <ele>577.1</ele>
        <time>2017-03-19T09:10:41Z</time>
      </trkpt>
      <trkpt lat="45.60232" lon="4.40946">
        <ele>576.7</ele>
        <time>2017-03-19T09:10:42Z</time>
      </trkpt>
      <trkpt lat="45.60239" lon="4.40949">
        <ele>576.2</ele>
        <time>2017-03-19T09:10:43Z</time>
      </trkpt>
      <trkpt lat="45.60247" lon="4.40953">
        <ele>575.7</ele>
        <time>2017-03-19T09:10:44Z</time>
      </trkpt>
      <trkpt lat="45.60255" lon="4.40955">
        <ele>575.2</ele>
        <time>2017-03-19T09:10:45Z</time>
      </trkpt>
      <trkpt lat="45.60262" lon="4.40959">
        <ele>574.6</ele>
        <time>2017-03-19T09:10:46Z</time>
      </trkpt>
      <trkpt lat="45.6027" lon="4.40963">
        <ele>574.1</ele>
        <time>2017-03-19T09:10:47Z</time>
      </trkpt>
      <trkpt lat="45.60278" lon="4.40967">
        <ele>573.6</ele>
        <time>2017-03-19T09:10:48Z</time>
      </trkpt>
      <trkpt lat="45.60286" lon="4.4097">
        <ele>573</ele>
        <time>2017-03-19T09:10:49Z</time>
      </trkpt>
      <trkpt lat="45.60292" lon="4.40971">
        <ele>572.4</ele>
        <time>2017-03-19T09:10:50Z</time>
      </trkpt>
      <trkpt lat="45.60297" lon="4.40972">
        <ele>572</ele>
        <time>2017-03-19T09:10:51Z</time>
      </trkpt>
      <trkpt lat="45.60301" lon="4.40973">
        <ele>571.5</ele>
        <time>2017-03-19T09:10:53Z</time>
      </trkpt>
      <trkpt lat="45.60304" lon="4.40973">
        <ele>571.3</ele>
        <time>2017-03-19T09:10:54Z</time>
      </trkpt>
      <trkpt lat="45.60309" lon="4.40971">
        <ele>570.5</ele>
        <time>2017-03-19T09:10:56Z</time>
      </trkpt>
      <trkpt lat="45.60312" lon="4.40971">
        <ele>569.9</ele>
        <time>2017-03-19T09:10:57Z</time>
      </trkpt>
      <trkpt lat="45.60317" lon="4.40971">
        <ele>569</ele>
        <time>2017-03-19T09:10:58Z</time>
      </trkpt>
      <trkpt lat="45.60323" lon="4.40972">
        <ele>567.3</ele>
        <time>2017-03-19T09:10:59Z</time>
      </trkpt>
      <trkpt lat="45.60329" lon="4.40976">
        <ele>565.5</ele>
        <time>2017-03-19T09:11:00Z</time>
      </trkpt>
      <trkpt lat="45.60337" lon="4.4098">
        <ele>563.5</ele>
        <time>2017-03-19T09:11:01Z</time>
      </trkpt>
      <trkpt lat="45.60344" lon="4.40985">
        <ele>562.1</ele>
        <time>2017-03-19T09:11:02Z</time>
      </trkpt>
      <trkpt lat="45.60352" lon="4.40991">
        <ele>561.3</ele>
        <time>2017-03-19T09:11:03Z</time>
      </trkpt>
      <trkpt lat="45.60359" lon="4.40996">
        <ele>560.6</ele>
        <time>2017-03-19T09:11:04Z</time>
      </trkpt>
      <trkpt lat="45.60368" lon="4.41002">
        <ele>559.5</ele>
        <time>2017-03-19T09:11:05Z</time>
      </trkpt>
      <trkpt lat="45.60375" lon="4.41009">
        <ele>558</ele>
        <time>2017-03-19T09:11:06Z</time>
      </trkpt>
      <trkpt lat="45.60383" lon="4.41015">
        <ele>557.1</ele>
        <time>2017-03-19T09:11:07Z</time>
      </trkpt>
      <trkpt lat="45.60391" lon="4.41022">
        <ele>556.3</ele>
        <time>2017-03-19T09:11:08Z</time>
      </trkpt>
      <trkpt lat="45.60397" lon="4.41028">
        <ele>556</ele>
        <time>2017-03-19T09:11:09Z</time>
      </trkpt>
      <trkpt lat="45.60404" lon="4.41034">
        <ele>555.7</ele>
        <time>2017-03-19T09:11:10Z</time>
      </trkpt>
      <trkpt lat="45.60411" lon="4.4104">
        <ele>555.3</ele>
        <time>2017-03-19T09:11:11Z</time>
      </trkpt>
      <trkpt lat="45.60417" lon="4.41044">
        <ele>555</ele>
        <time>2017-03-19T09:11:12Z</time>
      </trkpt>
      <trkpt lat="45.60423" lon="4.41046">
        <ele>554.5</ele>
        <time>2017-03-19T09:11:13Z</time>
      </trkpt>
      <trkpt lat="45.60428" lon="4.41047">
        <ele>554.2</ele>
        <time>2017-03-19T09:11:14Z</time>
      </trkpt>
      <trkpt lat="45.60433" lon="4.41046">
        <ele>553.9</ele>
        <time>2017-03-19T09:11:15Z</time>
      </trkpt>
      <trkpt lat="45.60438" lon="4.41043">
        <ele>553.7</ele>
        <time>2017-03-19T09:11:16Z</time>
      </trkpt>
      <trkpt lat="45.60441" lon="4.4104">
        <ele>553.2</ele>
        <time>2017-03-19T09:11:17Z</time>
      </trkpt>
      <trkpt lat="45.60446" lon="4.41037">
        <ele>552.2</ele>
        <time>2017-03-19T09:11:18Z</time>
      </trkpt>
      <trkpt lat="45.6045" lon="4.41034">
        <ele>551.4</ele>
        <time>2017-03-19T09:11:19Z</time>
      </trkpt>
      <trkpt lat="45.60453" lon="4.41033">
        <ele>550.8</ele>
        <time>2017-03-19T09:11:20Z</time>
      </trkpt>
      <trkpt lat="45.60458" lon="4.41033">
        <ele>550.6</ele>
        <time>2017-03-19T09:11:21Z</time>
      </trkpt>
      <trkpt lat="45.60462" lon="4.41031">
        <ele>550.4</ele>
        <time>2017-03-19T09:11:22Z</time>
      </trkpt>
      <trkpt lat="45.60466" lon="4.41031">
        <ele>550.3</ele>
        <time>2017-03-19T09:11:23Z</time>
      </trkpt>
      <trkpt lat="45.60471" lon="4.41031">
        <ele>550.1</ele>
        <time>2017-03-19T09:11:24Z</time>
      </trkpt>
      <trkpt lat="45.60476" lon="4.41031">
        <ele>550</ele>
        <time>2017-03-19T09:11:25Z</time>
      </trkpt>
      <trkpt lat="45.60481" lon="4.41031">
        <ele>549.8</ele>
        <time>2017-03-19T09:11:26Z</time>
      </trkpt>
      <trkpt lat="45.60487" lon="4.41028">
        <ele>549.6</ele>
        <time>2017-03-19T09:11:27Z</time>
      </trkpt>
      <trkpt lat="45.60492" lon="4.41027">
        <ele>549.4</ele>
        <time>2017-03-19T09:11:28Z</time>
      </trkpt>
      <trkpt lat="45.60499" lon="4.41026">
        <ele>549.2</ele>
        <time>2017-03-19T09:11:29Z</time>
      </trkpt>
      <trkpt lat="45.60504" lon="4.41025">
        <ele>549.1</ele>
        <time>2017-03-19T09:11:30Z</time>
      </trkpt>
      <trkpt lat="45.6051" lon="4.41023">
        <ele>549</ele>
        <time>2017-03-19T09:11:31Z</time>
      </trkpt>
      <trkpt lat="45.60514" lon="4.41021">
        <ele>548.9</ele>
        <time>2017-03-19T09:11:32Z</time>
      </trkpt>
      <trkpt lat="45.6052" lon="4.41019">
        <ele>548.7</ele>
        <time>2017-03-19T09:11:33Z</time>
      </trkpt>
      <trkpt lat="45.60526" lon="4.41018">
        <ele>548.6</ele>
        <time>2017-03-19T09:11:34Z</time>
      </trkpt>
      <trkpt lat="45.60531" lon="4.41017">
        <ele>548.4</ele>
        <time>2017-03-19T09:11:35Z</time>
      </trkpt>
      <trkpt lat="45.60537" lon="4.41014">
        <ele>548.3</ele>
        <time>2017-03-19T09:11:36Z</time>
      </trkpt>
      <trkpt lat="45.60542" lon="4.41014">
        <ele>548.1</ele>
        <time>2017-03-19T09:11:37Z</time>
      </trkpt>
      <trkpt lat="45.60547" lon="4.41012">
        <ele>547.9</ele>
        <time>2017-03-19T09:11:38Z</time>
      </trkpt>
      <trkpt lat="45.60552" lon="4.41011">
        <ele>547.7</ele>
        <time>2017-03-19T09:11:39Z</time>
      </trkpt>
      <trkpt lat="45.60558" lon="4.4101">
        <ele>547.4</ele>
        <time>2017-03-19T09:11:40Z</time>
      </trkpt>
      <trkpt lat="45.60563" lon="4.4101">
        <ele>547</ele>
        <time>2017-03-19T09:11:41Z</time>
      </trkpt>
      <trkpt lat="45.60568" lon="4.4101">
        <ele>546.7</ele>
        <time>2017-03-19T09:11:42Z</time>
      </trkpt>
      <trkpt lat="45.60574" lon="4.41009">
        <ele>546.5</ele>
        <time>2017-03-19T09:11:43Z</time>
      </trkpt>
      <trkpt lat="45.60579" lon="4.41008">
        <ele>546.2</ele>
        <time>2017-03-19T09:11:44Z</time>
      </trkpt>
      <trkpt lat="45.60585" lon="4.41008">
        <ele>545.9</ele>
        <time>2017-03-19T09:11:45Z</time>
      </trkpt>
      <trkpt lat="45.60592" lon="4.41007">
        <ele>545.5</ele>
        <time>2017-03-19T09:11:46Z</time>
      </trkpt>
      <trkpt lat="45.60598" lon="4.41007">
        <ele>545.2</ele>
        <time>2017-03-19T09:11:47Z</time>
      </trkpt>
      <trkpt lat="45.60604" lon="4.41008">
        <ele>544.8</ele>
        <time>2017-03-19T09:11:48Z</time>
      </trkpt>
      <trkpt lat="45.60611" lon="4.41007">
        <ele>544.5</ele>
        <time>2017-03-19T09:11:49Z</time>
      </trkpt>
      <trkpt lat="45.60618" lon="4.41006">
        <ele>544.2</ele>
        <time>2017-03-19T09:11:50Z</time>
      </trkpt>
      <trkpt lat="45.60624" lon="4.41005">
        <ele>543.9</ele>
        <time>2017-03-19T09:11:51Z</time>
      </trkpt>
      <trkpt lat="45.60632" lon="4.41003">
        <ele>543.6</ele>
        <time>2017-03-19T09:11:52Z</time>
      </trkpt>
      <trkpt lat="45.60638" lon="4.41002">
        <ele>543.3</ele>
        <time>2017-03-19T09:11:53Z</time>
      </trkpt>
      <trkpt lat="45.60645" lon="4.41001">
        <ele>543</ele>
        <time>2017-03-19T09:11:54Z</time>
      </trkpt>
      <trkpt lat="45.60652" lon="4.40999">
        <ele>542.7</ele>
        <time>2017-03-19T09:11:55Z</time>
      </trkpt>
      <trkpt lat="45.60658" lon="4.40996">
        <ele>542.4</ele>
        <time>2017-03-19T09:11:56Z</time>
      </trkpt>
      <trkpt lat="45.60665" lon="4.40993">
        <ele>542.1</ele>
        <time>2017-03-19T09:11:57Z</time>
      </trkpt>
      <trkpt lat="45.60672" lon="4.40993">
        <ele>542.5</ele>
        <time>2017-03-19T09:11:58Z</time>
      </trkpt>
      <trkpt lat="45.60679" lon="4.40993">
        <ele>542.8</ele>
        <time>2017-03-19T09:11:59Z</time>
      </trkpt>
      <trkpt lat="45.60686" lon="4.40994">
        <ele>543.1</ele>
        <time>2017-03-19T09:12:00Z</time>
      </trkpt>
      <trkpt lat="45.60691" lon="4.40994">
        <ele>543.4</ele>
        <time>2017-03-19T09:12:01Z</time>
      </trkpt>
      <trkpt lat="45.60698" lon="4.40993">
        <ele>543.8</ele>
        <time>2017-03-19T09:12:02Z</time>
      </trkpt>
      <trkpt lat="45.60703" lon="4.40993">
        <ele>544.3</ele>
        <time>2017-03-19T09:12:03Z</time>
      </trkpt>
      <trkpt lat="45.60708" lon="4.40993">
        <ele>544.6</ele>
        <time>2017-03-19T09:12:04Z</time>
      </trkpt>
      <trkpt lat="45.60713" lon="4.40992">
        <ele>545</ele>
        <time>2017-03-19T09:12:05Z</time>
      </trkpt>
      <trkpt lat="45.60719" lon="4.40991">
        <ele>545.4</ele>
        <time>2017-03-19T09:12:06Z</time>
      </trkpt>
      <trkpt lat="45.60724" lon="4.40991">
        <ele>545.6</ele>
        <time>2017-03-19T09:12:07Z</time>
      </trkpt>
      <trkpt lat="45.6073" lon="4.4099">
        <ele>545.8</ele>
        <time>2017-03-19T09:12:08Z</time>
      </trkpt>
      <trkpt lat="45.60735" lon="4.4099">
        <ele>545.9</ele>
        <time>2017-03-19T09:12:09Z</time>
      </trkpt>
      <trkpt lat="45.60741" lon="4.40989">
        <ele>546</ele>
        <time>2017-03-19T09:12:10Z</time>
      </trkpt>
      <trkpt lat="45.60746" lon="4.40988">
        <ele>546.2</ele>
        <time>2017-03-19T09:12:11Z</time>
      </trkpt>
      <trkpt lat="45.60751" lon="4.40988">
        <ele>546.3</ele>
        <time>2017-03-19T09:12:12Z</time>
      </trkpt>
      <trkpt lat="45.60756" lon="4.40988">
        <ele>546.4</ele>
        <time>2017-03-19T09:12:13Z</time>
      </trkpt>
      <trkpt lat="45.60762" lon="4.40989">
        <ele>546.7</ele>
        <time>2017-03-19T09:12:14Z</time>
      </trkpt>
      <trkpt lat="45.60767" lon="4.4099">
        <ele>546.8</ele>
        <time>2017-03-19T09:12:15Z</time>
      </trkpt>
      <trkpt lat="45.60773" lon="4.4099">
        <ele>546.9</ele>
        <time>2017-03-19T09:12:16Z</time>
      </trkpt>
      <trkpt lat="45.60779" lon="4.40991">
        <ele>547</ele>
        <time>2017-03-19T09:12:17Z</time>
      </trkpt>
      <trkpt lat="45.60784" lon="4.40991">
        <ele>547.1</ele>
        <time>2017-03-19T09:12:18Z</time>
      </trkpt>
      <trkpt lat="45.60789" lon="4.40991">
        <ele>547.1</ele>
        <time>2017-03-19T09:12:19Z</time>
      </trkpt>
      <trkpt lat="45.60794" lon="4.40991">
        <ele>547.2</ele>
        <time>2017-03-19T09:12:20Z</time>
      </trkpt>
      <trkpt lat="45.608" lon="4.40991">
        <ele>547.3</ele>
        <time>2017-03-19T09:12:21Z</time>
      </trkpt>
      <trkpt lat="45.60803" lon="4.40993">
        <ele>547.3</ele>
        <time>2017-03-19T09:12:22Z</time>
      </trkpt>
      <trkpt lat="45.60806" lon="4.40994">
        <ele>547.2</ele>
        <time>2017-03-19T09:12:23Z</time>
      </trkpt>
      <trkpt lat="45.6081" lon="4.40994">
        <ele>547.1</ele>
        <time>2017-03-19T09:12:24Z</time>
      </trkpt>
      <trkpt lat="45.60815" lon="4.40993">
        <ele>547</ele>
        <time>2017-03-19T09:12:25Z</time>
      </trkpt>
      <trkpt lat="45.60818" lon="4.40994">
        <ele>547</ele>
        <time>2017-03-19T09:12:26Z</time>
      </trkpt>
      <trkpt lat="45.60822" lon="4.40994">
        <ele>546.9</ele>
        <time>2017-03-19T09:12:27Z</time>
      </trkpt>
      <trkpt lat="45.60828" lon="4.40994">
        <ele>546.7</ele>
        <time>2017-03-19T09:12:28Z</time>
      </trkpt>
      <trkpt lat="45.60832" lon="4.40996">
        <ele>546.5</ele>
        <time>2017-03-19T09:12:29Z</time>
      </trkpt>
      <trkpt lat="45.60838" lon="4.40999">
        <ele>546.4</ele>
        <time>2017-03-19T09:12:30Z</time>
      </trkpt>
      <trkpt lat="45.60844" lon="4.41004">
        <ele>546.2</ele>
        <time>2017-03-19T09:12:31Z</time>
      </trkpt>
      <trkpt lat="45.6085" lon="4.41009">
        <ele>546.1</ele>
        <time>2017-03-19T09:12:32Z</time>
      </trkpt>
      <trkpt lat="45.60857" lon="4.41015">
        <ele>546</ele>
        <time>2017-03-19T09:12:33Z</time>
      </trkpt>
      <trkpt lat="45.60863" lon="4.41021">
        <ele>545.9</ele>
        <time>2017-03-19T09:12:34Z</time>
      </trkpt>
      <trkpt lat="45.60869" lon="4.41029">
        <ele>545.7</ele>
        <time>2017-03-19T09:12:35Z</time>
      </trkpt>
      <trkpt lat="45.60875" lon="4.41037">
        <ele>545.6</ele>
        <time>2017-03-19T09:12:36Z</time>
      </trkpt>
      <trkpt lat="45.6088" lon="4.41046">
        <ele>545.4</ele>
        <time>2017-03-19T09:12:37Z</time>
      </trkpt>
      <trkpt lat="45.60887" lon="4.41055">
        <ele>545.2</ele>
        <time>2017-03-19T09:12:38Z</time>
      </trkpt>
      <trkpt lat="45.60892" lon="4.41065">
        <ele>545.1</ele>
        <time>2017-03-19T09:12:39Z</time>
      </trkpt>
      <trkpt lat="45.60897" lon="4.41075">
        <ele>544.9</ele>
        <time>2017-03-19T09:12:40Z</time>
      </trkpt>
      <trkpt lat="45.60902" lon="4.41086">
        <ele>544.5</ele>
        <time>2017-03-19T09:12:41Z</time>
      </trkpt>
      <trkpt lat="45.60909" lon="4.41096">
        <ele>543.7</ele>
        <time>2017-03-19T09:12:42Z</time>
      </trkpt>
      <trkpt lat="45.60916" lon="4.41106">
        <ele>542.5</ele>
        <time>2017-03-19T09:12:43Z</time>
      </trkpt>
      <trkpt lat="45.60922" lon="4.41114">
        <ele>541.9</ele>
        <time>2017-03-19T09:12:44Z</time>
      </trkpt>
      <trkpt lat="45.60927" lon="4.41122">
        <ele>541.5</ele>
        <time>2017-03-19T09:12:45Z</time>
      </trkpt>
      <trkpt lat="45.60932" lon="4.41128">
        <ele>540.7</ele>
        <time>2017-03-19T09:12:46Z</time>
      </trkpt>
      <trkpt lat="45.60937" lon="4.41133">
        <ele>539.5</ele>
        <time>2017-03-19T09:12:47Z</time>
      </trkpt>
      <trkpt lat="45.60943" lon="4.41136">
        <ele>538.3</ele>
        <time>2017-03-19T09:12:48Z</time>
      </trkpt>
      <trkpt lat="45.60949" lon="4.41139">
        <ele>536.8</ele>
        <time>2017-03-19T09:12:49Z</time>
      </trkpt>
      <trkpt lat="45.60957" lon="4.41143">
        <ele>535.7</ele>
        <time>2017-03-19T09:12:50Z</time>
      </trkpt>
      <trkpt lat="45.60967" lon="4.41146">
        <ele>533.8</ele>
        <time>2017-03-19T09:12:51Z</time>
      </trkpt>
      <trkpt lat="45.60976" lon="4.41149">
        <ele>532.5</ele>
        <time>2017-03-19T09:12:52Z</time>
      </trkpt>
      <trkpt lat="45.60986" lon="4.41152">
        <ele>530.9</ele>
        <time>2017-03-19T09:12:53Z</time>
      </trkpt>
      <trkpt lat="45.60996" lon="4.41155">
        <ele>530.1</ele>
        <time>2017-03-19T09:12:54Z</time>
      </trkpt>
      <trkpt lat="45.61007" lon="4.41157">
        <ele>528.9</ele>
        <time>2017-03-19T09:12:55Z</time>
      </trkpt>
      <trkpt lat="45.61017" lon="4.41159">
        <ele>527.8</ele>
        <time>2017-03-19T09:12:56Z</time>
      </trkpt>
      <trkpt lat="45.61028" lon="4.41159">
        <ele>527.4</ele>
        <time>2017-03-19T09:12:57Z</time>
      </trkpt>
      <trkpt lat="45.61038" lon="4.41161">
        <ele>527.3</ele>
        <time>2017-03-19T09:12:58Z</time>
      </trkpt>
      <trkpt lat="45.61047" lon="4.41162">
        <ele>527.2</ele>
        <time>2017-03-19T09:12:59Z</time>
      </trkpt>
      <trkpt lat="45.61057" lon="4.41164">
        <ele>527.1</ele>
        <time>2017-03-19T09:13:00Z</time>
      </trkpt>
      <trkpt lat="45.61066" lon="4.41167">
        <ele>526.7</ele>
        <time>2017-03-19T09:13:01Z</time>
      </trkpt>
      <trkpt lat="45.61075" lon="4.4117">
        <ele>526.2</ele>
        <time>2017-03-19T09:13:02Z</time>
      </trkpt>
      <trkpt lat="45.61084" lon="4.41172">
        <ele>525.2</ele>
        <time>2017-03-19T09:13:03Z</time>
      </trkpt>
      <trkpt lat="45.61092" lon="4.41175">
        <ele>523.6</ele>
        <time>2017-03-19T09:13:04Z</time>
      </trkpt>
      <trkpt lat="45.61099" lon="4.41179">
        <ele>522.3</ele>
        <time>2017-03-19T09:13:05Z</time>
      </trkpt>
      <trkpt lat="45.61107" lon="4.41184">
        <ele>520.5</ele>
        <time>2017-03-19T09:13:06Z</time>
      </trkpt>
      <trkpt lat="45.61116" lon="4.4119">
        <ele>519.2</ele>
        <time>2017-03-19T09:13:07Z</time>
      </trkpt>
      <trkpt lat="45.61124" lon="4.41196">
        <ele>518.6</ele>
        <time>2017-03-19T09:13:08Z</time>
      </trkpt>
      <trkpt lat="45.61132" lon="4.41201">
        <ele>518.1</ele>
        <time>2017-03-19T09:13:09Z</time>
      </trkpt>
      <trkpt lat="45.61137" lon="4.41203">
        <ele>517.8</ele>
        <time>2017-03-19T09:13:10Z</time>
      </trkpt>
      <trkpt lat="45.61142" lon="4.41205">
        <ele>517.2</ele>
        <time>2017-03-19T09:13:11Z</time>
      </trkpt>
      <trkpt lat="45.61146" lon="4.41205">
        <ele>516.6</ele>
        <time>2017-03-19T09:13:12Z</time>
      </trkpt>
      <trkpt lat="45.61149" lon="4.41208">
        <ele>516.2</ele>
        <time>2017-03-19T09:13:13Z</time>
      </trkpt>
      <trkpt lat="45.61152" lon="4.41212">
        <ele>515.1</ele>
        <time>2017-03-19T09:13:14Z</time>
      </trkpt>
      <trkpt lat="45.61155" lon="4.41217">
        <ele>513.3</ele>
        <time>2017-03-19T09:13:15Z</time>
      </trkpt>
      <trkpt lat="45.61159" lon="4.41222">
        <ele>512.2</ele>
        <time>2017-03-19T09:13:16Z</time>
      </trkpt>
      <trkpt lat="45.61163" lon="4.41229">
        <ele>511.3</ele>
        <time>2017-03-19T09:13:17Z</time>
      </trkpt>
      <trkpt lat="45.61167" lon="4.41235">
        <ele>510.1</ele>
        <time>2017-03-19T09:13:18Z</time>
      </trkpt>
      <trkpt lat="45.6117" lon="4.41241">
        <ele>508.4</ele>
        <time>2017-03-19T09:13:19Z</time>
      </trkpt>
      <trkpt lat="45.61174" lon="4.41248">
        <ele>506.6</ele>
        <time>2017-03-19T09:13:20Z</time>
      </trkpt>
      <trkpt lat="45.61177" lon="4.41252">
        <ele>506.1</ele>
        <time>2017-03-19T09:13:21Z</time>
      </trkpt>
      <trkpt lat="45.61179" lon="4.41255">
        <ele>505.7</ele>
        <time>2017-03-19T09:13:22Z</time>
      </trkpt>
      <trkpt lat="45.61182" lon="4.41257">
        <ele>505.2</ele>
        <time>2017-03-19T09:13:23Z</time>
      </trkpt>
      <trkpt lat="45.61186" lon="4.4126">
        <ele>504.7</ele>
        <time>2017-03-19T09:13:24Z</time>
      </trkpt>
      <trkpt lat="45.61189" lon="4.41262">
        <ele>504.3</ele>
        <time>2017-03-19T09:13:25Z</time>
      </trkpt>
      <trkpt lat="45.61192" lon="4.41264">
        <ele>503.5</ele>
        <time>2017-03-19T09:13:26Z</time>
      </trkpt>
      <trkpt lat="45.61197" lon="4.41267">
        <ele>502.5</ele>
        <time>2017-03-19T09:13:27Z</time>
      </trkpt>
      <trkpt lat="45.61203" lon="4.41271">
        <ele>501.2</ele>
        <time>2017-03-19T09:13:28Z</time>
      </trkpt>
      <trkpt lat="45.61209" lon="4.41275">
        <ele>500.1</ele>
        <time>2017-03-19T09:13:29Z</time>
      </trkpt>
      <trkpt lat="45.61215" lon="4.41279">
        <ele>499.5</ele>
        <time>2017-03-19T09:13:30Z</time>
      </trkpt>
      <trkpt lat="45.6122" lon="4.41282">
        <ele>498.7</ele>
        <time>2017-03-19T09:13:31Z</time>
      </trkpt>
      <trkpt lat="45.61225" lon="4.41284">
        <ele>497.1</ele>
        <time>2017-03-19T09:13:32Z</time>
      </trkpt>
      <trkpt lat="45.61231" lon="4.41286">
        <ele>495.7</ele>
        <time>2017-03-19T09:13:33Z</time>
      </trkpt>
      <trkpt lat="45.61234" lon="4.41288">
        <ele>495.1</ele>
        <time>2017-03-19T09:13:34Z</time>
      </trkpt>
      <trkpt lat="45.61237" lon="4.41291">
        <ele>494.5</ele>
        <time>2017-03-19T09:13:35Z</time>
      </trkpt>
      <trkpt lat="45.61241" lon="4.41294">
        <ele>491.9</ele>
        <time>2017-03-19T09:13:36Z</time>
      </trkpt>
      <trkpt lat="45.61243" lon="4.41297">
        <ele>491.5</ele>
        <time>2017-03-19T09:13:38Z</time>
      </trkpt>
      <trkpt lat="45.61246" lon="4.41299">
        <ele>491.2</ele>
        <time>2017-03-19T09:13:40Z</time>
      </trkpt>
      <trkpt lat="45.6125" lon="4.41302">
        <ele>490.7</ele>
        <time>2017-03-19T09:13:43Z</time>
      </trkpt>
      <trkpt lat="45.61254" lon="4.41305">
        <ele>490.1</ele>
        <time>2017-03-19T09:13:45Z</time>
      </trkpt>
      <trkpt lat="45.61258" lon="4.41308">
        <ele>489.1</ele>
        <time>2017-03-19T09:13:47Z</time>
      </trkpt>
      <trkpt lat="45.61263" lon="4.4131">
        <ele>487.5</ele>
        <time>2017-03-19T09:13:49Z</time>
      </trkpt>
      <trkpt lat="45.61265" lon="4.41311">
        <ele>487.2</ele>
        <time>2017-03-19T09:13:50Z</time>
      </trkpt>
      <trkpt lat="45.61271" lon="4.41313">
        <ele>486.1</ele>
        <time>2017-03-19T09:13:52Z</time>
      </trkpt>
      <trkpt lat="45.61274" lon="4.41315">
        <ele>485.2</ele>
        <time>2017-03-19T09:13:53Z</time>
      </trkpt>
      <trkpt lat="45.61277" lon="4.41316">
        <ele>484.7</ele>
        <time>2017-03-19T09:13:54Z</time>
      </trkpt>
      <trkpt lat="45.6128" lon="4.41318">
        <ele>484</ele>
        <time>2017-03-19T09:13:55Z</time>
      </trkpt>
      <trkpt lat="45.61283" lon="4.4132">
        <ele>483.3</ele>
        <time>2017-03-19T09:13:56Z</time>
      </trkpt>
      <trkpt lat="45.61286" lon="4.41322">
        <ele>482.9</ele>
        <time>2017-03-19T09:13:57Z</time>
      </trkpt>
      <trkpt lat="45.61288" lon="4.41323">
        <ele>482.3</ele>
        <time>2017-03-19T09:13:58Z</time>
      </trkpt>
      <trkpt lat="45.61291" lon="4.41325">
        <ele>481.5</ele>
        <time>2017-03-19T09:13:59Z</time>
      </trkpt>
      <trkpt lat="45.61296" lon="4.41326">
        <ele>480.9</ele>
        <time>2017-03-19T09:14:01Z</time>
      </trkpt>
      <trkpt lat="45.61299" lon="4.41326">
        <ele>480.6</ele>
        <time>2017-03-19T09:14:02Z</time>
      </trkpt>
      <trkpt lat="45.61303" lon="4.41327">
        <ele>480.2</ele>
        <time>2017-03-19T09:14:03Z</time>
      </trkpt>
      <trkpt lat="45.61306" lon="4.41327">
        <ele>479.5</ele>
        <time>2017-03-19T09:14:04Z</time>
      </trkpt>
      <trkpt lat="45.6131" lon="4.41326">
        <ele>478.5</ele>
        <time>2017-03-19T09:14:06Z</time>
      </trkpt>
      <trkpt lat="45.61313" lon="4.41326">
        <ele>478.1</ele>
        <time>2017-03-19T09:14:07Z</time>
      </trkpt>
      <trkpt lat="45.61317" lon="4.41328">
        <ele>477.8</ele>
        <time>2017-03-19T09:14:09Z</time>
      </trkpt>
      <trkpt lat="45.61322" lon="4.41329">
        <ele>476.6</ele>
        <time>2017-03-19T09:14:11Z</time>
      </trkpt>
      <trkpt lat="45.61325" lon="4.41329">
        <ele>476.2</ele>
        <time>2017-03-19T09:14:12Z</time>
      </trkpt>
      <trkpt lat="45.61329" lon="4.41328">
        <ele>475.9</ele>
        <time>2017-03-19T09:14:13Z</time>
      </trkpt>
      <trkpt lat="45.61335" lon="4.41327">
        <ele>475.1</ele>
        <time>2017-03-19T09:14:14Z</time>
      </trkpt>
      <trkpt lat="45.6134" lon="4.41325">
        <ele>473.9</ele>
        <time>2017-03-19T09:14:15Z</time>
      </trkpt>
      <trkpt lat="45.61345" lon="4.41322">
        <ele>473</ele>
        <time>2017-03-19T09:14:16Z</time>
      </trkpt>
      <trkpt lat="45.61349" lon="4.4132">
        <ele>472.4</ele>
        <time>2017-03-19T09:14:17Z</time>
      </trkpt>
      <trkpt lat="45.61353" lon="4.41319">
        <ele>471.9</ele>
        <time>2017-03-19T09:14:18Z</time>
      </trkpt>
      <trkpt lat="45.61357" lon="4.41318">
        <ele>471.6</ele>
        <time>2017-03-19T09:14:19Z</time>
      </trkpt>
      <trkpt lat="45.61362" lon="4.41318">
        <ele>471.3</ele>
        <time>2017-03-19T09:14:20Z</time>
      </trkpt>
      <trkpt lat="45.61368" lon="4.41318">
        <ele>471</ele>
        <time>2017-03-19T09:14:21Z</time>
      </trkpt>
      <trkpt lat="45.61382" lon="4.41318">
        <ele>469.9</ele>
        <time>2017-03-19T09:14:22Z</time>
      </trkpt>
      <trkpt lat="45.61387" lon="4.41318">
        <ele>469.6</ele>
        <time>2017-03-19T09:14:23Z</time>
      </trkpt>
      <trkpt lat="45.61392" lon="4.41319">
        <ele>469.4</ele>
        <time>2017-03-19T09:14:24Z</time>
      </trkpt>
      <trkpt lat="45.61398" lon="4.41319">
        <ele>469</ele>
        <time>2017-03-19T09:14:25Z</time>
      </trkpt>
      <trkpt lat="45.61403" lon="4.41322">
        <ele>468.7</ele>
        <time>2017-03-19T09:14:26Z</time>
      </trkpt>
      <trkpt lat="45.61408" lon="4.41324">
        <ele>468.3</ele>
        <time>2017-03-19T09:14:27Z</time>
      </trkpt>
      <trkpt lat="45.61413" lon="4.41328">
        <ele>467.6</ele>
        <time>2017-03-19T09:14:28Z</time>
      </trkpt>
      <trkpt lat="45.61417" lon="4.41329">
        <ele>467.1</ele>
        <time>2017-03-19T09:14:29Z</time>
      </trkpt>
      <trkpt lat="45.61424" lon="4.4133">
        <ele>466.7</ele>
        <time>2017-03-19T09:14:30Z</time>
      </trkpt>
      <trkpt lat="45.6143" lon="4.41332">
        <ele>466</ele>
        <time>2017-03-19T09:14:31Z</time>
      </trkpt>
      <trkpt lat="45.61435" lon="4.41338">
        <ele>465.3</ele>
        <time>2017-03-19T09:14:32Z</time>
      </trkpt>
      <trkpt lat="45.61442" lon="4.41341">
        <ele>464.9</ele>
        <time>2017-03-19T09:14:33Z</time>
      </trkpt>
      <trkpt lat="45.61448" lon="4.41345">
        <ele>464.7</ele>
        <time>2017-03-19T09:14:34Z</time>
      </trkpt>
      <trkpt lat="45.61453" lon="4.41345">
        <ele>464.6</ele>
        <time>2017-03-19T09:14:35Z</time>
      </trkpt>
      <trkpt lat="45.61459" lon="4.41344">
        <ele>464.5</ele>
        <time>2017-03-19T09:14:36Z</time>
      </trkpt>
      <trkpt lat="45.61464" lon="4.41345">
        <ele>464.5</ele>
        <time>2017-03-19T09:14:38Z</time>
      </trkpt>
      <trkpt lat="45.61467" lon="4.41345">
        <ele>464.4</ele>
        <time>2017-03-19T09:15:03Z</time>
      </trkpt>
      <trkpt lat="45.6147" lon="4.41347">
        <ele>464.4</ele>
        <time>2017-03-19T09:15:09Z</time>
      </trkpt>
      <trkpt lat="45.61473" lon="4.41347">
        <ele>464.3</ele>
        <time>2017-03-19T09:15:19Z</time>
      </trkpt>
      <trkpt lat="45.61477" lon="4.41345">
        <ele>464.3</ele>
        <time>2017-03-19T09:15:22Z</time>
      </trkpt>
      <trkpt lat="45.6148" lon="4.41344">
        <ele>464.2</ele>
        <time>2017-03-19T09:15:28Z</time>
      </trkpt>
      <trkpt lat="45.61483" lon="4.41345">
        <ele>464.2</ele>
        <time>2017-03-19T09:15:36Z</time>
      </trkpt>
      <trkpt lat="45.61485" lon="4.41348">
        <ele>464.2</ele>
        <time>2017-03-19T09:15:38Z</time>
      </trkpt>
      <trkpt lat="45.61488" lon="4.41352">
        <ele>464.2</ele>
        <time>2017-03-19T09:15:40Z</time>
      </trkpt>
      <trkpt lat="45.6149" lon="4.41357">
        <ele>464.4</ele>
        <time>2017-03-19T09:15:42Z</time>
      </trkpt>
      <trkpt lat="45.61493" lon="4.41363">
        <ele>465.2</ele>
        <time>2017-03-19T09:15:44Z</time>
      </trkpt>
      <trkpt lat="45.61494" lon="4.41367">
        <ele>465.4</ele>
        <time>2017-03-19T09:15:45Z</time>
      </trkpt>
      <trkpt lat="45.61495" lon="4.41371">
        <ele>465.5</ele>
        <time>2017-03-19T09:15:46Z</time>
      </trkpt>
      <trkpt lat="45.61496" lon="4.41375">
        <ele>465.6</ele>
        <time>2017-03-19T09:15:47Z</time>
      </trkpt>
      <trkpt lat="45.61497" lon="4.41379">
        <ele>465.7</ele>
        <time>2017-03-19T09:15:48Z</time>
      </trkpt>
      <trkpt lat="45.61499" lon="4.41386">
        <ele>465.8</ele>
        <time>2017-03-19T09:15:50Z</time>
      </trkpt>
      <trkpt lat="45.61499" lon="4.41391">
        <ele>465.8</ele>
        <time>2017-03-19T09:15:51Z</time>
      </trkpt>
      <trkpt lat="45.61501" lon="4.41395">
        <ele>465.9</ele>
        <time>2017-03-19T09:15:52Z</time>
      </trkpt>
      <trkpt lat="45.61502" lon="4.414">
        <ele>465.9</ele>
        <time>2017-03-19T09:15:53Z</time>
      </trkpt>
      <trkpt lat="45.61504" lon="4.41404">
        <ele>466</ele>
        <time>2017-03-19T09:15:54Z</time>
      </trkpt>
      <trkpt lat="45.61507" lon="4.41409">
        <ele>466</ele>
        <time>2017-03-19T09:15:55Z</time>
      </trkpt>
      <trkpt lat="45.61511" lon="4.41412">
        <ele>466</ele>
        <time>2017-03-19T09:15:56Z</time>
      </trkpt>
      <trkpt lat="45.61515" lon="4.41413">
        <ele>466.1</ele>
        <time>2017-03-19T09:15:57Z</time>
      </trkpt>
      <trkpt lat="45.61519" lon="4.41415">
        <ele>466.2</ele>
        <time>2017-03-19T09:15:58Z</time>
      </trkpt>
      <trkpt lat="45.61523" lon="4.41417">
        <ele>466.4</ele>
        <time>2017-03-19T09:15:59Z</time>
      </trkpt>
      <trkpt lat="45.61526" lon="4.41418">
        <ele>466.6</ele>
        <time>2017-03-19T09:16:00Z</time>
      </trkpt>
      <trkpt lat="45.6153" lon="4.41419">
        <ele>466.9</ele>
        <time>2017-03-19T09:16:01Z</time>
      </trkpt>
      <trkpt lat="45.61535" lon="4.4142">
        <ele>467</ele>
        <time>2017-03-19T09:16:03Z</time>
      </trkpt>
      <trkpt lat="45.61538" lon="4.41421">
        <ele>467</ele>
        <time>2017-03-19T09:16:04Z</time>
      </trkpt>
      <trkpt lat="45.61541" lon="4.41424">
        <ele>467</ele>
        <time>2017-03-19T09:16:05Z</time>
      </trkpt>
      <trkpt lat="45.61544" lon="4.41426">
        <ele>467</ele>
        <time>2017-03-19T09:16:06Z</time>
      </trkpt>
      <trkpt lat="45.61547" lon="4.41429">
        <ele>467</ele>
        <time>2017-03-19T09:16:07Z</time>
      </trkpt>
      <trkpt lat="45.61549" lon="4.41433">
        <ele>467</ele>
        <time>2017-03-19T09:16:08Z</time>
      </trkpt>
      <trkpt lat="45.61551" lon="4.41436">
        <ele>467</ele>
        <time>2017-03-19T09:16:09Z</time>
      </trkpt>
      <trkpt lat="45.61554" lon="4.41439">
        <ele>467</ele>
        <time>2017-03-19T09:16:10Z</time>
      </trkpt>
      <trkpt lat="45.61556" lon="4.41443">
        <ele>467</ele>
        <time>2017-03-19T09:16:11Z</time>
      </trkpt>
      <trkpt lat="45.61559" lon="4.41447">
        <ele>467</ele>
        <time>2017-03-19T09:16:12Z</time>
      </trkpt>
      <trkpt lat="45.61561" lon="4.4145">
        <ele>467</ele>
        <time>2017-03-19T09:16:13Z</time>
      </trkpt>
      <trkpt lat="45.61563" lon="4.41453">
        <ele>467</ele>
        <time>2017-03-19T09:16:14Z</time>
      </trkpt>
      <trkpt lat="45.61565" lon="4.41457">
        <ele>467</ele>
        <time>2017-03-19T09:16:15Z</time>
      </trkpt>
      <trkpt lat="45.61567" lon="4.4146">
        <ele>467</ele>
        <time>2017-03-19T09:16:16Z</time>
      </trkpt>
      <trkpt lat="45.61572" lon="4.41464">
        <ele>467</ele>
        <time>2017-03-19T09:16:18Z</time>
      </trkpt>
      <trkpt lat="45.61576" lon="4.41466">
        <ele>467</ele>
        <time>2017-03-19T09:16:19Z</time>
      </trkpt>
      <trkpt lat="45.61581" lon="4.41471">
        <ele>467</ele>
        <time>2017-03-19T09:16:20Z</time>
      </trkpt>
      <trkpt lat="45.61582" lon="4.41477">
        <ele>467</ele>
        <time>2017-03-19T09:16:21Z</time>
      </trkpt>
      <trkpt lat="45.61585" lon="4.41482">
        <ele>466.9</ele>
        <time>2017-03-19T09:16:22Z</time>
      </trkpt>
      <trkpt lat="45.61587" lon="4.41487">
        <ele>466.9</ele>
        <time>2017-03-19T09:16:23Z</time>
      </trkpt>
      <trkpt lat="45.61589" lon="4.41492">
        <ele>466.9</ele>
        <time>2017-03-19T09:16:24Z</time>
      </trkpt>
      <trkpt lat="45.6159" lon="4.415">
        <ele>466.9</ele>
        <time>2017-03-19T09:16:25Z</time>
      </trkpt>
      <trkpt lat="45.61591" lon="4.41505">
        <ele>466.9</ele>
        <time>2017-03-19T09:16:26Z</time>
      </trkpt>
      <trkpt lat="45.61592" lon="4.41512">
        <ele>466.9</ele>
        <time>2017-03-19T09:16:27Z</time>
      </trkpt>
      <trkpt lat="45.61593" lon="4.41518">
        <ele>466.9</ele>
        <time>2017-03-19T09:16:28Z</time>
      </trkpt>
      <trkpt lat="45.61594" lon="4.41525">
        <ele>466.9</ele>
        <time>2017-03-19T09:16:29Z</time>
      </trkpt>
      <trkpt lat="45.61594" lon="4.41533">
        <ele>466.9</ele>
        <time>2017-03-19T09:16:30Z</time>
      </trkpt>
      <trkpt lat="45.61594" lon="4.4154">
        <ele>466.9</ele>
        <time>2017-03-19T09:16:31Z</time>
      </trkpt>
      <trkpt lat="45.61595" lon="4.41546">
        <ele>466.9</ele>
        <time>2017-03-19T09:16:32Z</time>
      </trkpt>
      <trkpt lat="45.61595" lon="4.41552">
        <ele>466.9</ele>
        <time>2017-03-19T09:16:33Z</time>
      </trkpt>
      <trkpt lat="45.61596" lon="4.4156">
        <ele>466.9</ele>
        <time>2017-03-19T09:16:34Z</time>
      </trkpt>
      <trkpt lat="45.61596" lon="4.41566">
        <ele>466.9</ele>
        <time>2017-03-19T09:16:35Z</time>
      </trkpt>
      <trkpt lat="45.61599" lon="4.41573">
        <ele>466.9</ele>
        <time>2017-03-19T09:16:36Z</time>
      </trkpt>
      <trkpt lat="45.61599" lon="4.41581">
        <ele>466.9</ele>
        <time>2017-03-19T09:16:37Z</time>
      </trkpt>
      <trkpt lat="45.616" lon="4.41586">
        <ele>466.9</ele>
        <time>2017-03-19T09:16:38Z</time>
      </trkpt>
      <trkpt lat="45.616" lon="4.41593">
        <ele>466.9</ele>
        <time>2017-03-19T09:16:39Z</time>
      </trkpt>
      <trkpt lat="45.616" lon="4.416">
        <ele>466.9</ele>
        <time>2017-03-19T09:16:40Z</time>
      </trkpt>
      <trkpt lat="45.61599" lon="4.41607">
        <ele>466.9</ele>
        <time>2017-03-19T09:16:41Z</time>
      </trkpt>
      <trkpt lat="45.61599" lon="4.41613">
        <ele>466.9</ele>
        <time>2017-03-19T09:16:42Z</time>
      </trkpt>
      <trkpt lat="45.61601" lon="4.4162">
        <ele>466.9</ele>
        <time>2017-03-19T09:16:43Z</time>
      </trkpt>
      <trkpt lat="45.61601" lon="4.41626">
        <ele>466.9</ele>
        <time>2017-03-19T09:16:44Z</time>
      </trkpt>
      <trkpt lat="45.61602" lon="4.41632">
        <ele>467</ele>
        <time>2017-03-19T09:16:45Z</time>
      </trkpt>
      <trkpt lat="45.61604" lon="4.41638">
        <ele>467</ele>
        <time>2017-03-19T09:16:46Z</time>
      </trkpt>
      <trkpt lat="45.61606" lon="4.41645">
        <ele>467</ele>
        <time>2017-03-19T09:16:47Z</time>
      </trkpt>
      <trkpt lat="45.61608" lon="4.41651">
        <ele>467</ele>
        <time>2017-03-19T09:16:48Z</time>
      </trkpt>
      <trkpt lat="45.6161" lon="4.41658">
        <ele>467</ele>
        <time>2017-03-19T09:16:49Z</time>
      </trkpt>
      <trkpt lat="45.61611" lon="4.41664">
        <ele>467.1</ele>
        <time>2017-03-19T09:16:50Z</time>
      </trkpt>
      <trkpt lat="45.61612" lon="4.41672">
        <ele>467.1</ele>
        <time>2017-03-19T09:16:51Z</time>
      </trkpt>
      <trkpt lat="45.61613" lon="4.41679">
        <ele>467.2</ele>
        <time>2017-03-19T09:16:52Z</time>
      </trkpt>
      <trkpt lat="45.61614" lon="4.41686">
        <ele>467.3</ele>
        <time>2017-03-19T09:16:53Z</time>
      </trkpt>
      <trkpt lat="45.61616" lon="4.41693">
        <ele>467.5</ele>
        <time>2017-03-19T09:16:54Z</time>
      </trkpt>
      <trkpt lat="45.61617" lon="4.41701">
        <ele>467.7</ele>
        <time>2017-03-19T09:16:55Z</time>
      </trkpt>
      <trkpt lat="45.61619" lon="4.41709">
        <ele>468</ele>
        <time>2017-03-19T09:16:56Z</time>
      </trkpt>
      <trkpt lat="45.6162" lon="4.41717">
        <ele>468.2</ele>
        <time>2017-03-19T09:16:57Z</time>
      </trkpt>
      <trkpt lat="45.61621" lon="4.41723">
        <ele>468.4</ele>
        <time>2017-03-19T09:16:58Z</time>
      </trkpt>
      <trkpt lat="45.61623" lon="4.4173">
        <ele>468.4</ele>
        <time>2017-03-19T09:16:59Z</time>
      </trkpt>
      <trkpt lat="45.61624" lon="4.41737">
        <ele>468.5</ele>
        <time>2017-03-19T09:17:00Z</time>
      </trkpt>
      <trkpt lat="45.61625" lon="4.41745">
        <ele>468.6</ele>
        <time>2017-03-19T09:17:01Z</time>
      </trkpt>
      <trkpt lat="45.61627" lon="4.41752">
        <ele>468.6</ele>
        <time>2017-03-19T09:17:02Z</time>
      </trkpt>
      <trkpt lat="45.61628" lon="4.41758">
        <ele>468.7</ele>
        <time>2017-03-19T09:17:03Z</time>
      </trkpt>
      <trkpt lat="45.61629" lon="4.41766">
        <ele>468.7</ele>
        <time>2017-03-19T09:17:04Z</time>
      </trkpt>
      <trkpt lat="45.6163" lon="4.41772">
        <ele>468.8</ele>
        <time>2017-03-19T09:17:05Z</time>
      </trkpt>
      <trkpt lat="45.6163" lon="4.4178">
        <ele>468.9</ele>
        <time>2017-03-19T09:17:06Z</time>
      </trkpt>
      <trkpt lat="45.61631" lon="4.41787">
        <ele>468.9</ele>
        <time>2017-03-19T09:17:07Z</time>
      </trkpt>
      <trkpt lat="45.61631" lon="4.41793">
        <ele>469</ele>
        <time>2017-03-19T09:17:08Z</time>
      </trkpt>
      <trkpt lat="45.61631" lon="4.41801">
        <ele>469</ele>
        <time>2017-03-19T09:17:09Z</time>
      </trkpt>
      <trkpt lat="45.61632" lon="4.41807">
        <ele>469</ele>
        <time>2017-03-19T09:17:10Z</time>
      </trkpt>
      <trkpt lat="45.61632" lon="4.41813">
        <ele>469</ele>
        <time>2017-03-19T09:17:11Z</time>
      </trkpt>
      <trkpt lat="45.61634" lon="4.41819">
        <ele>469</ele>
        <time>2017-03-19T09:17:12Z</time>
      </trkpt>
      <trkpt lat="45.61635" lon="4.41825">
        <ele>469</ele>
        <time>2017-03-19T09:17:13Z</time>
      </trkpt>
      <trkpt lat="45.61637" lon="4.41831">
        <ele>469</ele>
        <time>2017-03-19T09:17:14Z</time>
      </trkpt>
      <trkpt lat="45.6164" lon="4.41839">
        <ele>469</ele>
        <time>2017-03-19T09:17:15Z</time>
      </trkpt>
      <trkpt lat="45.61641" lon="4.41846">
        <ele>469</ele>
        <time>2017-03-19T09:17:16Z</time>
      </trkpt>
      <trkpt lat="45.61643" lon="4.41852">
        <ele>469</ele>
        <time>2017-03-19T09:17:17Z</time>
      </trkpt>
      <trkpt lat="45.61646" lon="4.41858">
        <ele>469</ele>
        <time>2017-03-19T09:17:18Z</time>
      </trkpt>
      <trkpt lat="45.61648" lon="4.41864">
        <ele>469</ele>
        <time>2017-03-19T09:17:19Z</time>
      </trkpt>
      <trkpt lat="45.6165" lon="4.4187">
        <ele>469</ele>
        <time>2017-03-19T09:17:20Z</time>
      </trkpt>
      <trkpt lat="45.61651" lon="4.41875">
        <ele>469</ele>
        <time>2017-03-19T09:17:21Z</time>
      </trkpt>
      <trkpt lat="45.61653" lon="4.4188">
        <ele>469</ele>
        <time>2017-03-19T09:17:22Z</time>
      </trkpt>
      <trkpt lat="45.61655" lon="4.41885">
        <ele>469</ele>
        <time>2017-03-19T09:17:23Z</time>
      </trkpt>
      <trkpt lat="45.61658" lon="4.41894">
        <ele>469</ele>
        <time>2017-03-19T09:17:24Z</time>
      </trkpt>
      <trkpt lat="45.61661" lon="4.41901">
        <ele>469</ele>
        <time>2017-03-19T09:17:25Z</time>
      </trkpt>
      <trkpt lat="45.61664" lon="4.41907">
        <ele>469</ele>
        <time>2017-03-19T09:17:26Z</time>
      </trkpt>
      <trkpt lat="45.61667" lon="4.41913">
        <ele>469</ele>
        <time>2017-03-19T09:17:27Z</time>
      </trkpt>
      <trkpt lat="45.6167" lon="4.41917">
        <ele>469</ele>
        <time>2017-03-19T09:17:28Z</time>
      </trkpt>
      <trkpt lat="45.61675" lon="4.41921">
        <ele>469</ele>
        <time>2017-03-19T09:17:29Z</time>
      </trkpt>
      <trkpt lat="45.61678" lon="4.41926">
        <ele>469</ele>
        <time>2017-03-19T09:17:30Z</time>
      </trkpt>
      <trkpt lat="45.61683" lon="4.41929">
        <ele>469</ele>
        <time>2017-03-19T09:17:31Z</time>
      </trkpt>
      <trkpt lat="45.61689" lon="4.41933">
        <ele>469</ele>
        <time>2017-03-19T09:17:32Z</time>
      </trkpt>
      <trkpt lat="45.61694" lon="4.41937">
        <ele>469</ele>
        <time>2017-03-19T09:17:33Z</time>
      </trkpt>
      <trkpt lat="45.61699" lon="4.41941">
        <ele>469</ele>
        <time>2017-03-19T09:17:34Z</time>
      </trkpt>
      <trkpt lat="45.61703" lon="4.41945">
        <ele>469</ele>
        <time>2017-03-19T09:17:35Z</time>
      </trkpt>
      <trkpt lat="45.61708" lon="4.41948">
        <ele>469</ele>
        <time>2017-03-19T09:17:36Z</time>
      </trkpt>
      <trkpt lat="45.61712" lon="4.41953">
        <ele>469</ele>
        <time>2017-03-19T09:17:37Z</time>
      </trkpt>
      <trkpt lat="45.61718" lon="4.41958">
        <ele>469</ele>
        <time>2017-03-19T09:17:38Z</time>
      </trkpt>
      <trkpt lat="45.61723" lon="4.41962">
        <ele>469</ele>
        <time>2017-03-19T09:17:39Z</time>
      </trkpt>
      <trkpt lat="45.61727" lon="4.41966">
        <ele>469</ele>
        <time>2017-03-19T09:17:40Z</time>
      </trkpt>
      <trkpt lat="45.61731" lon="4.41971">
        <ele>469</ele>
        <time>2017-03-19T09:17:41Z</time>
      </trkpt>
      <trkpt lat="45.61735" lon="4.41975">
        <ele>469</ele>
        <time>2017-03-19T09:17:42Z</time>
      </trkpt>
      <trkpt lat="45.61737" lon="4.41982">
        <ele>469</ele>
        <time>2017-03-19T09:17:43Z</time>
      </trkpt>
      <trkpt lat="45.6174" lon="4.41988">
        <ele>468.9</ele>
        <time>2017-03-19T09:17:44Z</time>
      </trkpt>
      <trkpt lat="45.61741" lon="4.41995">
        <ele>468.9</ele>
        <time>2017-03-19T09:17:45Z</time>
      </trkpt>
      <trkpt lat="45.61743" lon="4.42001">
        <ele>468.8</ele>
        <time>2017-03-19T09:17:46Z</time>
      </trkpt>
      <trkpt lat="45.61744" lon="4.42009">
        <ele>468.8</ele>
        <time>2017-03-19T09:17:47Z</time>
      </trkpt>
      <trkpt lat="45.61746" lon="4.42016">
        <ele>468.8</ele>
        <time>2017-03-19T09:17:48Z</time>
      </trkpt>
      <trkpt lat="45.61748" lon="4.42023">
        <ele>468.7</ele>
        <time>2017-03-19T09:17:49Z</time>
      </trkpt>
      <trkpt lat="45.6175" lon="4.4203">
        <ele>468.7</ele>
        <time>2017-03-19T09:17:50Z</time>
      </trkpt>
      <trkpt lat="45.61752" lon="4.42038">
        <ele>468.7</ele>
        <time>2017-03-19T09:17:51Z</time>
      </trkpt>
      <trkpt lat="45.61754" lon="4.42045">
        <ele>468.7</ele>
        <time>2017-03-19T09:17:52Z</time>
      </trkpt>
      <trkpt lat="45.61757" lon="4.42052">
        <ele>468.6</ele>
        <time>2017-03-19T09:17:53Z</time>
      </trkpt>
      <trkpt lat="45.6176" lon="4.4206">
        <ele>468.6</ele>
        <time>2017-03-19T09:17:54Z</time>
      </trkpt>
      <trkpt lat="45.61762" lon="4.42068">
        <ele>468.6</ele>
        <time>2017-03-19T09:17:55Z</time>
      </trkpt>
      <trkpt lat="45.61764" lon="4.42075">
        <ele>468.5</ele>
        <time>2017-03-19T09:17:56Z</time>
      </trkpt>
      <trkpt lat="45.61767" lon="4.42082">
        <ele>468.5</ele>
        <time>2017-03-19T09:17:57Z</time>
      </trkpt>
      <trkpt lat="45.61769" lon="4.4209">
        <ele>468.5</ele>
        <time>2017-03-19T09:17:58Z</time>
      </trkpt>
      <trkpt lat="45.61772" lon="4.42097">
        <ele>468.4</ele>
        <time>2017-03-19T09:17:59Z</time>
      </trkpt>
      <trkpt lat="45.61775" lon="4.42104">
        <ele>468.4</ele>
        <time>2017-03-19T09:18:00Z</time>
      </trkpt>
      <trkpt lat="45.61777" lon="4.42112">
        <ele>468.3</ele>
        <time>2017-03-19T09:18:01Z</time>
      </trkpt>
      <trkpt lat="45.6178" lon="4.4212">
        <ele>468.3</ele>
        <time>2017-03-19T09:18:02Z</time>
      </trkpt>
      <trkpt lat="45.61782" lon="4.42127">
        <ele>468.3</ele>
        <time>2017-03-19T09:18:03Z</time>
      </trkpt>
      <trkpt lat="45.61785" lon="4.42133">
        <ele>468.3</ele>
        <time>2017-03-19T09:18:04Z</time>
      </trkpt>
      <trkpt lat="45.61787" lon="4.4214">
        <ele>468.2</ele>
        <time>2017-03-19T09:18:05Z</time>
      </trkpt>
      <trkpt lat="45.61789" lon="4.42147">
        <ele>468.2</ele>
        <time>2017-03-19T09:18:06Z</time>
      </trkpt>
      <trkpt lat="45.61791" lon="4.42154">
        <ele>468.2</ele>
        <time>2017-03-19T09:18:07Z</time>
      </trkpt>
      <trkpt lat="45.61793" lon="4.42161">
        <ele>468.2</ele>
        <time>2017-03-19T09:18:08Z</time>
      </trkpt>
      <trkpt lat="45.61795" lon="4.42167">
        <ele>468.1</ele>
        <time>2017-03-19T09:18:09Z</time>
      </trkpt>
      <trkpt lat="45.61797" lon="4.42175">
        <ele>468.1</ele>
        <time>2017-03-19T09:18:10Z</time>
      </trkpt>
      <trkpt lat="45.618" lon="4.42182">
        <ele>468.1</ele>
        <time>2017-03-19T09:18:11Z</time>
      </trkpt>
      <trkpt lat="45.61801" lon="4.42188">
        <ele>468</ele>
        <time>2017-03-19T09:18:12Z</time>
      </trkpt>
      <trkpt lat="45.618" lon="4.42193">
        <ele>468</ele>
        <time>2017-03-19T09:18:13Z</time>
      </trkpt>
      <trkpt lat="45.61797" lon="4.42199">
        <ele>468</ele>
        <time>2017-03-19T09:18:14Z</time>
      </trkpt>
      <trkpt lat="45.61794" lon="4.42203">
        <ele>467.8</ele>
        <time>2017-03-19T09:18:15Z</time>
      </trkpt>
      <trkpt lat="45.61792" lon="4.42207">
        <ele>467.6</ele>
        <time>2017-03-19T09:18:16Z</time>
      </trkpt>
      <trkpt lat="45.61789" lon="4.4221">
        <ele>467.5</ele>
        <time>2017-03-19T09:18:17Z</time>
      </trkpt>
      <trkpt lat="45.61785" lon="4.42214">
        <ele>467.4</ele>
        <time>2017-03-19T09:18:18Z</time>
      </trkpt>
      <trkpt lat="45.61783" lon="4.42218">
        <ele>467.2</ele>
        <time>2017-03-19T09:18:19Z</time>
      </trkpt>
      <trkpt lat="45.61781" lon="4.42222">
        <ele>467.2</ele>
        <time>2017-03-19T09:18:20Z</time>
      </trkpt>
      <trkpt lat="45.61779" lon="4.42226">
        <ele>467.3</ele>
        <time>2017-03-19T09:18:21Z</time>
      </trkpt>
      <trkpt lat="45.61777" lon="4.4223">
        <ele>467.3</ele>
        <time>2017-03-19T09:18:22Z</time>
      </trkpt>
      <trkpt lat="45.61777" lon="4.42234">
        <ele>467.5</ele>
        <time>2017-03-19T09:18:23Z</time>
      </trkpt>
      <trkpt lat="45.61778" lon="4.42241">
        <ele>467.9</ele>
        <time>2017-03-19T09:18:25Z</time>
      </trkpt>
      <trkpt lat="45.61779" lon="4.42245">
        <ele>467.9</ele>
        <time>2017-03-19T09:18:26Z</time>
      </trkpt>
      <trkpt lat="45.61781" lon="4.42249">
        <ele>467.9</ele>
        <time>2017-03-19T09:18:27Z</time>
      </trkpt>
      <trkpt lat="45.61786" lon="4.42253">
        <ele>467.9</ele>
        <time>2017-03-19T09:18:28Z</time>
      </trkpt>
      <trkpt lat="45.61789" lon="4.42258">
        <ele>467.8</ele>
        <time>2017-03-19T09:18:29Z</time>
      </trkpt>
      <trkpt lat="45.61793" lon="4.42262">
        <ele>467.8</ele>
        <time>2017-03-19T09:18:30Z</time>
      </trkpt>
      <trkpt lat="45.61798" lon="4.42267">
        <ele>467.8</ele>
        <time>2017-03-19T09:18:31Z</time>
      </trkpt>
      <trkpt lat="45.61801" lon="4.42272">
        <ele>467.8</ele>
        <time>2017-03-19T09:18:32Z</time>
      </trkpt>
      <trkpt lat="45.61808" lon="4.42271">
        <ele>467.7</ele>
        <time>2017-03-19T09:18:33Z</time>
      </trkpt>
      <trkpt lat="45.61813" lon="4.42273">
        <ele>467.7</ele>
        <time>2017-03-19T09:18:34Z</time>
      </trkpt>
      <trkpt lat="45.61817" lon="4.42273">
        <ele>467.7</ele>
        <time>2017-03-19T09:18:35Z</time>
      </trkpt>
      <trkpt lat="45.61822" lon="4.42272">
        <ele>467.7</ele>
        <time>2017-03-19T09:18:36Z</time>
      </trkpt>
      <trkpt lat="45.61827" lon="4.42273">
        <ele>467.7</ele>
        <time>2017-03-19T09:18:37Z</time>
      </trkpt>
      <trkpt lat="45.61832" lon="4.42272">
        <ele>467.7</ele>
        <time>2017-03-19T09:18:38Z</time>
      </trkpt>
      <trkpt lat="45.61837" lon="4.42273">
        <ele>467.7</ele>
        <time>2017-03-19T09:18:39Z</time>
      </trkpt>
      <trkpt lat="45.61841" lon="4.42273">
        <ele>467.7</ele>
        <time>2017-03-19T09:18:40Z</time>
      </trkpt>
      <trkpt lat="45.61846" lon="4.42273">
        <ele>467.8</ele>
        <time>2017-03-19T09:18:41Z</time>
      </trkpt>
      <trkpt lat="45.61849" lon="4.42274">
        <ele>467.8</ele>
        <time>2017-03-19T09:18:42Z</time>
      </trkpt>
      <trkpt lat="45.61853" lon="4.42276">
        <ele>467.8</ele>
        <time>2017-03-19T09:18:43Z</time>
      </trkpt>
      <trkpt lat="45.61857" lon="4.42276">
        <ele>467.9</ele>
        <time>2017-03-19T09:18:44Z</time>
      </trkpt>
      <trkpt lat="45.61862" lon="4.42279">
        <ele>468</ele>
        <time>2017-03-19T09:18:45Z</time>
      </trkpt>
      <trkpt lat="45.61867" lon="4.4228">
        <ele>468.2</ele>
        <time>2017-03-19T09:18:46Z</time>
      </trkpt>
      <trkpt lat="45.61873" lon="4.42282">
        <ele>468.4</ele>
        <time>2017-03-19T09:18:47Z</time>
      </trkpt>
      <trkpt lat="45.61878" lon="4.42284">
        <ele>468.6</ele>
        <time>2017-03-19T09:18:48Z</time>
      </trkpt>
      <trkpt lat="45.61883" lon="4.42285">
        <ele>468.7</ele>
        <time>2017-03-19T09:18:49Z</time>
      </trkpt>
      <trkpt lat="45.61888" lon="4.42289">
        <ele>468.8</ele>
        <time>2017-03-19T09:18:50Z</time>
      </trkpt>
      <trkpt lat="45.61893" lon="4.42291">
        <ele>468.9</ele>
        <time>2017-03-19T09:18:51Z</time>
      </trkpt>
      <trkpt lat="45.61899" lon="4.42292">
        <ele>469</ele>
        <time>2017-03-19T09:18:52Z</time>
      </trkpt>
      <trkpt lat="45.61903" lon="4.42294">
        <ele>469</ele>
        <time>2017-03-19T09:18:53Z</time>
      </trkpt>
      <trkpt lat="45.61908" lon="4.42295">
        <ele>469</ele>
        <time>2017-03-19T09:18:54Z</time>
      </trkpt>
      <trkpt lat="45.61914" lon="4.42297">
        <ele>469.1</ele>
        <time>2017-03-19T09:18:55Z</time>
      </trkpt>
      <trkpt lat="45.61919" lon="4.42298">
        <ele>469.1</ele>
        <time>2017-03-19T09:18:56Z</time>
      </trkpt>
      <trkpt lat="45.61924" lon="4.423">
        <ele>469.1</ele>
        <time>2017-03-19T09:18:57Z</time>
      </trkpt>
      <trkpt lat="45.61928" lon="4.42301">
        <ele>469.2</ele>
        <time>2017-03-19T09:18:58Z</time>
      </trkpt>
      <trkpt lat="45.61934" lon="4.42302">
        <ele>469.2</ele>
        <time>2017-03-19T09:18:59Z</time>
      </trkpt>
      <trkpt lat="45.6194" lon="4.42302">
        <ele>469.2</ele>
        <time>2017-03-19T09:19:00Z</time>
      </trkpt>
      <trkpt lat="45.61944" lon="4.42303">
        <ele>469.3</ele>
        <time>2017-03-19T09:19:01Z</time>
      </trkpt>
      <trkpt lat="45.6195" lon="4.42303">
        <ele>469.3</ele>
        <time>2017-03-19T09:19:02Z</time>
      </trkpt>
      <trkpt lat="45.61955" lon="4.42304">
        <ele>469.3</ele>
        <time>2017-03-19T09:19:03Z</time>
      </trkpt>
      <trkpt lat="45.6196" lon="4.42304">
        <ele>469.3</ele>
        <time>2017-03-19T09:19:04Z</time>
      </trkpt>
      <trkpt lat="45.61965" lon="4.42305">
        <ele>469.4</ele>
        <time>2017-03-19T09:19:05Z</time>
      </trkpt>
      <trkpt lat="45.61969" lon="4.42306">
        <ele>469.5</ele>
        <time>2017-03-19T09:19:06Z</time>
      </trkpt>
      <trkpt lat="45.61975" lon="4.42306">
        <ele>469.7</ele>
        <time>2017-03-19T09:19:07Z</time>
      </trkpt>
      <trkpt lat="45.6198" lon="4.42307">
        <ele>470.1</ele>
        <time>2017-03-19T09:19:08Z</time>
      </trkpt>
      <trkpt lat="45.61984" lon="4.42306">
        <ele>470.7</ele>
        <time>2017-03-19T09:19:09Z</time>
      </trkpt>
      <trkpt lat="45.61988" lon="4.42303">
        <ele>471.3</ele>
        <time>2017-03-19T09:19:10Z</time>
      </trkpt>
      <trkpt lat="45.61991" lon="4.42299">
        <ele>471.9</ele>
        <time>2017-03-19T09:19:11Z</time>
      </trkpt>
      <trkpt lat="45.61995" lon="4.42296">
        <ele>472.3</ele>
        <time>2017-03-19T09:19:12Z</time>
      </trkpt>
      <trkpt lat="45.61997" lon="4.42292">
        <ele>472.6</ele>
        <time>2017-03-19T09:19:14Z</time>
      </trkpt>
      <trkpt lat="45.62" lon="4.42291">
        <ele>472.8</ele>
        <time>2017-03-19T09:19:15Z</time>
      </trkpt>
      <trkpt lat="45.62003" lon="4.42291">
        <ele>473.1</ele>
        <time>2017-03-19T09:19:17Z</time>
      </trkpt>
      <trkpt lat="45.62006" lon="4.42292">
        <ele>473.3</ele>
        <time>2017-03-19T09:19:18Z</time>
      </trkpt>
      <trkpt lat="45.62009" lon="4.42292">
        <ele>473.5</ele>
        <time>2017-03-19T09:19:19Z</time>
      </trkpt>
      <trkpt lat="45.62012" lon="4.42291">
        <ele>473.6</ele>
        <time>2017-03-19T09:19:20Z</time>
      </trkpt>
      <trkpt lat="45.62015" lon="4.42291">
        <ele>473.8</ele>
        <time>2017-03-19T09:19:21Z</time>
      </trkpt>
      <trkpt lat="45.62018" lon="4.4229">
        <ele>474</ele>
        <time>2017-03-19T09:19:22Z</time>
      </trkpt>
      <trkpt lat="45.62023" lon="4.42288">
        <ele>474.2</ele>
        <time>2017-03-19T09:19:24Z</time>
      </trkpt>
      <trkpt lat="45.62028" lon="4.42284">
        <ele>474.5</ele>
        <time>2017-03-19T09:19:26Z</time>
      </trkpt>
      <trkpt lat="45.62031" lon="4.42282">
        <ele>474.7</ele>
        <time>2017-03-19T09:19:27Z</time>
      </trkpt>
      <trkpt lat="45.62034" lon="4.4228">
        <ele>474.9</ele>
        <time>2017-03-19T09:19:28Z</time>
      </trkpt>
      <trkpt lat="45.62038" lon="4.42278">
        <ele>475</ele>
        <time>2017-03-19T09:19:29Z</time>
      </trkpt>
      <trkpt lat="45.62042" lon="4.42275">
        <ele>475.1</ele>
        <time>2017-03-19T09:19:30Z</time>
      </trkpt>
      <trkpt lat="45.62045" lon="4.42272">
        <ele>475.3</ele>
        <time>2017-03-19T09:19:31Z</time>
      </trkpt>
      <trkpt lat="45.62048" lon="4.4227">
        <ele>475.3</ele>
        <time>2017-03-19T09:19:32Z</time>
      </trkpt>
      <trkpt lat="45.6205" lon="4.42268">
        <ele>475.4</ele>
        <time>2017-03-19T09:19:33Z</time>
      </trkpt>
      <trkpt lat="45.62054" lon="4.42267">
        <ele>475.5</ele>
        <time>2017-03-19T09:19:34Z</time>
      </trkpt>
      <trkpt lat="45.62057" lon="4.42266">
        <ele>475.7</ele>
        <time>2017-03-19T09:19:35Z</time>
      </trkpt>
      <trkpt lat="45.62061" lon="4.42266">
        <ele>475.8</ele>
        <time>2017-03-19T09:19:36Z</time>
      </trkpt>
      <trkpt lat="45.62065" lon="4.42267">
        <ele>476</ele>
        <time>2017-03-19T09:19:37Z</time>
      </trkpt>
      <trkpt lat="45.62069" lon="4.42269">
        <ele>476.2</ele>
        <time>2017-03-19T09:19:38Z</time>
      </trkpt>
      <trkpt lat="45.62072" lon="4.42271">
        <ele>476.3</ele>
        <time>2017-03-19T09:19:39Z</time>
      </trkpt>
      <trkpt lat="45.62075" lon="4.42272">
        <ele>476.5</ele>
        <time>2017-03-19T09:19:40Z</time>
      </trkpt>
      <trkpt lat="45.62079" lon="4.42274">
        <ele>476.6</ele>
        <time>2017-03-19T09:19:41Z</time>
      </trkpt>
      <trkpt lat="45.62082" lon="4.42275">
        <ele>476.8</ele>
        <time>2017-03-19T09:19:42Z</time>
      </trkpt>
      <trkpt lat="45.62086" lon="4.42276">
        <ele>477</ele>
        <time>2017-03-19T09:19:43Z</time>
      </trkpt>
      <trkpt lat="45.62091" lon="4.42277">
        <ele>477.2</ele>
        <time>2017-03-19T09:19:44Z</time>
      </trkpt>
      <trkpt lat="45.62094" lon="4.42278">
        <ele>477.3</ele>
        <time>2017-03-19T09:19:45Z</time>
      </trkpt>
      <trkpt lat="45.62097" lon="4.4228">
        <ele>477.5</ele>
        <time>2017-03-19T09:19:46Z</time>
      </trkpt>
      <trkpt lat="45.621" lon="4.42281">
        <ele>477.6</ele>
        <time>2017-03-19T09:19:47Z</time>
      </trkpt>
      <trkpt lat="45.62104" lon="4.42283">
        <ele>477.8</ele>
        <time>2017-03-19T09:19:48Z</time>
      </trkpt>
      <trkpt lat="45.62107" lon="4.42284">
        <ele>478</ele>
        <time>2017-03-19T09:19:49Z</time>
      </trkpt>
      <trkpt lat="45.62112" lon="4.42285">
        <ele>478.3</ele>
        <time>2017-03-19T09:19:51Z</time>
      </trkpt>
      <trkpt lat="45.62116" lon="4.42287">
        <ele>478.4</ele>
        <time>2017-03-19T09:19:52Z</time>
      </trkpt>
      <trkpt lat="45.62119" lon="4.42288">
        <ele>478.6</ele>
        <time>2017-03-19T09:19:53Z</time>
      </trkpt>
      <trkpt lat="45.62122" lon="4.42289">
        <ele>478.8</ele>
        <time>2017-03-19T09:19:54Z</time>
      </trkpt>
      <trkpt lat="45.62125" lon="4.42291">
        <ele>478.9</ele>
        <time>2017-03-19T09:19:55Z</time>
      </trkpt>
      <trkpt lat="45.62129" lon="4.42292">
        <ele>479</ele>
        <time>2017-03-19T09:19:56Z</time>
      </trkpt>
      <trkpt lat="45.62131" lon="4.42293">
        <ele>479.1</ele>
        <time>2017-03-19T09:19:57Z</time>
      </trkpt>
      <trkpt lat="45.62135" lon="4.42295">
        <ele>479.2</ele>
        <time>2017-03-19T09:19:58Z</time>
      </trkpt>
      <trkpt lat="45.62138" lon="4.42296">
        <ele>479.3</ele>
        <time>2017-03-19T09:19:59Z</time>
      </trkpt>
      <trkpt lat="45.62141" lon="4.42296">
        <ele>479.5</ele>
        <time>2017-03-19T09:20:00Z</time>
      </trkpt>
      <trkpt lat="45.62145" lon="4.42297">
        <ele>479.6</ele>
        <time>2017-03-19T09:20:01Z</time>
      </trkpt>
      <trkpt lat="45.62148" lon="4.42297">
        <ele>479.7</ele>
        <time>2017-03-19T09:20:02Z</time>
      </trkpt>
      <trkpt lat="45.62152" lon="4.42298">
        <ele>479.8</ele>
        <time>2017-03-19T09:20:03Z</time>
      </trkpt>
      <trkpt lat="45.62155" lon="4.42299">
        <ele>479.9</ele>
        <time>2017-03-19T09:20:04Z</time>
      </trkpt>
      <trkpt lat="45.62158" lon="4.42299">
        <ele>480</ele>
        <time>2017-03-19T09:20:05Z</time>
      </trkpt>
      <trkpt lat="45.62164" lon="4.42299">
        <ele>480.2</ele>
        <time>2017-03-19T09:20:07Z</time>
      </trkpt>
      <trkpt lat="45.62167" lon="4.42298">
        <ele>480.4</ele>
        <time>2017-03-19T09:20:08Z</time>
      </trkpt>
      <trkpt lat="45.62171" lon="4.42298">
        <ele>480.5</ele>
        <time>2017-03-19T09:20:09Z</time>
      </trkpt>
      <trkpt lat="45.62175" lon="4.42297">
        <ele>480.5</ele>
        <time>2017-03-19T09:20:10Z</time>
      </trkpt>
      <trkpt lat="45.62178" lon="4.42296">
        <ele>480.5</ele>
        <time>2017-03-19T09:20:11Z</time>
      </trkpt>
      <trkpt lat="45.62181" lon="4.42294">
        <ele>480.6</ele>
        <time>2017-03-19T09:20:12Z</time>
      </trkpt>
      <trkpt lat="45.62183" lon="4.42293">
        <ele>480.6</ele>
        <time>2017-03-19T09:20:13Z</time>
      </trkpt>
      <trkpt lat="45.62186" lon="4.4229">
        <ele>480.6</ele>
        <time>2017-03-19T09:20:14Z</time>
      </trkpt>
      <trkpt lat="45.62189" lon="4.42288">
        <ele>480.7</ele>
        <time>2017-03-19T09:20:15Z</time>
      </trkpt>
      <trkpt lat="45.62192" lon="4.42285">
        <ele>480.7</ele>
        <time>2017-03-19T09:20:16Z</time>
      </trkpt>
      <trkpt lat="45.62194" lon="4.42283">
        <ele>480.8</ele>
        <time>2017-03-19T09:20:17Z</time>
      </trkpt>
      <trkpt lat="45.62197" lon="4.4228">
        <ele>480.8</ele>
        <time>2017-03-19T09:20:18Z</time>
      </trkpt>
      <trkpt lat="45.622" lon="4.42278">
        <ele>480.8</ele>
        <time>2017-03-19T09:20:19Z</time>
      </trkpt>
      <trkpt lat="45.62202" lon="4.42276">
        <ele>480.9</ele>
        <time>2017-03-19T09:20:20Z</time>
      </trkpt>
      <trkpt lat="45.62205" lon="4.42274">
        <ele>480.9</ele>
        <time>2017-03-19T09:20:21Z</time>
      </trkpt>
      <trkpt lat="45.62208" lon="4.42273">
        <ele>480.9</ele>
        <time>2017-03-19T09:20:22Z</time>
      </trkpt>
      <trkpt lat="45.62211" lon="4.42272">
        <ele>480.9</ele>
        <time>2017-03-19T09:20:23Z</time>
      </trkpt>
      <trkpt lat="45.62215" lon="4.42271">
        <ele>480.9</ele>
        <time>2017-03-19T09:20:24Z</time>
      </trkpt>
      <trkpt lat="45.62217" lon="4.4227">
        <ele>480.9</ele>
        <time>2017-03-19T09:20:25Z</time>
      </trkpt>
      <trkpt lat="45.6222" lon="4.4227">
        <ele>480.9</ele>
        <time>2017-03-19T09:20:26Z</time>
      </trkpt>
      <trkpt lat="45.62224" lon="4.42269">
        <ele>480.9</ele>
        <time>2017-03-19T09:20:27Z</time>
      </trkpt>
      <trkpt lat="45.62227" lon="4.42269">
        <ele>480.9</ele>
        <time>2017-03-19T09:20:28Z</time>
      </trkpt>
      <trkpt lat="45.6223" lon="4.42268">
        <ele>480.9</ele>
        <time>2017-03-19T09:20:29Z</time>
      </trkpt>
      <trkpt lat="45.62234" lon="4.42268">
        <ele>480.9</ele>
        <time>2017-03-19T09:20:30Z</time>
      </trkpt>
      <trkpt lat="45.62237" lon="4.42267">
        <ele>480.9</ele>
        <time>2017-03-19T09:20:31Z</time>
      </trkpt>
      <trkpt lat="45.62241" lon="4.42266">
        <ele>480.9</ele>
        <time>2017-03-19T09:20:32Z</time>
      </trkpt>
      <trkpt lat="45.62245" lon="4.42266">
        <ele>480.9</ele>
        <time>2017-03-19T09:20:33Z</time>
      </trkpt>
      <trkpt lat="45.62249" lon="4.42265">
        <ele>480.9</ele>
        <time>2017-03-19T09:20:34Z</time>
      </trkpt>
      <trkpt lat="45.62254" lon="4.42264">
        <ele>480.9</ele>
        <time>2017-03-19T09:20:35Z</time>
      </trkpt>
      <trkpt lat="45.62258" lon="4.42264">
        <ele>480.9</ele>
        <time>2017-03-19T09:20:36Z</time>
      </trkpt>
      <trkpt lat="45.62262" lon="4.42264">
        <ele>480.9</ele>
        <time>2017-03-19T09:20:37Z</time>
      </trkpt>
      <trkpt lat="45.62266" lon="4.42264">
        <ele>480.9</ele>
        <time>2017-03-19T09:20:38Z</time>
      </trkpt>
      <trkpt lat="45.62271" lon="4.42264">
        <ele>480.9</ele>
        <time>2017-03-19T09:20:39Z</time>
      </trkpt>
      <trkpt lat="45.62275" lon="4.42263">
        <ele>480.8</ele>
        <time>2017-03-19T09:20:40Z</time>
      </trkpt>
      <trkpt lat="45.6228" lon="4.42263">
        <ele>480.8</ele>
        <time>2017-03-19T09:20:41Z</time>
      </trkpt>
      <trkpt lat="45.62284" lon="4.42263">
        <ele>480.8</ele>
        <time>2017-03-19T09:20:42Z</time>
      </trkpt>
      <trkpt lat="45.62288" lon="4.42262">
        <ele>480.8</ele>
        <time>2017-03-19T09:20:43Z</time>
      </trkpt>
      <trkpt lat="45.62294" lon="4.42261">
        <ele>480.8</ele>
        <time>2017-03-19T09:20:44Z</time>
      </trkpt>
      <trkpt lat="45.62299" lon="4.42261">
        <ele>480.8</ele>
        <time>2017-03-19T09:20:45Z</time>
      </trkpt>
      <trkpt lat="45.62303" lon="4.42262">
        <ele>480.8</ele>
        <time>2017-03-19T09:20:46Z</time>
      </trkpt>
      <trkpt lat="45.62308" lon="4.42263">
        <ele>480.8</ele>
        <time>2017-03-19T09:20:47Z</time>
      </trkpt>
      <trkpt lat="45.62312" lon="4.42263">
        <ele>480.8</ele>
        <time>2017-03-19T09:20:48Z</time>
      </trkpt>
      <trkpt lat="45.62317" lon="4.42264">
        <ele>480.8</ele>
        <time>2017-03-19T09:20:49Z</time>
      </trkpt>
      <trkpt lat="45.62321" lon="4.42266">
        <ele>480.8</ele>
        <time>2017-03-19T09:20:50Z</time>
      </trkpt>
      <trkpt lat="45.62326" lon="4.42266">
        <ele>480.7</ele>
        <time>2017-03-19T09:20:51Z</time>
      </trkpt>
      <trkpt lat="45.62331" lon="4.42268">
        <ele>480.7</ele>
        <time>2017-03-19T09:20:52Z</time>
      </trkpt>
      <trkpt lat="45.62335" lon="4.42267">
        <ele>480.7</ele>
        <time>2017-03-19T09:20:53Z</time>
      </trkpt>
      <trkpt lat="45.6234" lon="4.42268">
        <ele>480.7</ele>
        <time>2017-03-19T09:20:54Z</time>
      </trkpt>
      <trkpt lat="45.62345" lon="4.42268">
        <ele>480.7</ele>
        <time>2017-03-19T09:20:55Z</time>
      </trkpt>
      <trkpt lat="45.62349" lon="4.42269">
        <ele>480.7</ele>
        <time>2017-03-19T09:20:56Z</time>
      </trkpt>
      <trkpt lat="45.62353" lon="4.4227">
        <ele>480.7</ele>
        <time>2017-03-19T09:20:57Z</time>
      </trkpt>
      <trkpt lat="45.62358" lon="4.42272">
        <ele>480.6</ele>
        <time>2017-03-19T09:20:58Z</time>
      </trkpt>
      <trkpt lat="45.62363" lon="4.42273">
        <ele>480.6</ele>
        <time>2017-03-19T09:20:59Z</time>
      </trkpt>
      <trkpt lat="45.62369" lon="4.42275">
        <ele>480.6</ele>
        <time>2017-03-19T09:21:00Z</time>
      </trkpt>
      <trkpt lat="45.62373" lon="4.42277">
        <ele>480.6</ele>
        <time>2017-03-19T09:21:01Z</time>
      </trkpt>
      <trkpt lat="45.62378" lon="4.42281">
        <ele>480.5</ele>
        <time>2017-03-19T09:21:02Z</time>
      </trkpt>
      <trkpt lat="45.62382" lon="4.42285">
        <ele>480.5</ele>
        <time>2017-03-19T09:21:03Z</time>
      </trkpt>
      <trkpt lat="45.62386" lon="4.42289">
        <ele>480.5</ele>
        <time>2017-03-19T09:21:04Z</time>
      </trkpt>
      <trkpt lat="45.6239" lon="4.42293">
        <ele>480.5</ele>
        <time>2017-03-19T09:21:05Z</time>
      </trkpt>
      <trkpt lat="45.62394" lon="4.42299">
        <ele>480.5</ele>
        <time>2017-03-19T09:21:06Z</time>
      </trkpt>
      <trkpt lat="45.62398" lon="4.42304">
        <ele>480.4</ele>
        <time>2017-03-19T09:21:07Z</time>
      </trkpt>
      <trkpt lat="45.62401" lon="4.42311">
        <ele>480.4</ele>
        <time>2017-03-19T09:21:08Z</time>
      </trkpt>
      <trkpt lat="45.62403" lon="4.42315">
        <ele>480.4</ele>
        <time>2017-03-19T09:21:09Z</time>
      </trkpt>
      <trkpt lat="45.62407" lon="4.4232">
        <ele>480.4</ele>
        <time>2017-03-19T09:21:10Z</time>
      </trkpt>
      <trkpt lat="45.62411" lon="4.42326">
        <ele>480.4</ele>
        <time>2017-03-19T09:21:11Z</time>
      </trkpt>
      <trkpt lat="45.62415" lon="4.42332">
        <ele>480.4</ele>
        <time>2017-03-19T09:21:12Z</time>
      </trkpt>
      <trkpt lat="45.62419" lon="4.42337">
        <ele>480.4</ele>
        <time>2017-03-19T09:21:13Z</time>
      </trkpt>
      <trkpt lat="45.62422" lon="4.42343">
        <ele>480.4</ele>
        <time>2017-03-19T09:21:14Z</time>
      </trkpt>
      <trkpt lat="45.62427" lon="4.42349">
        <ele>480.3</ele>
        <time>2017-03-19T09:21:15Z</time>
      </trkpt>
      <trkpt lat="45.6243" lon="4.42353">
        <ele>480.3</ele>
        <time>2017-03-19T09:21:16Z</time>
      </trkpt>
      <trkpt lat="45.62434" lon="4.42358">
        <ele>480.2</ele>
        <time>2017-03-19T09:21:17Z</time>
      </trkpt>
      <trkpt lat="45.62438" lon="4.42364">
        <ele>480.2</ele>
        <time>2017-03-19T09:21:18Z</time>
      </trkpt>
      <trkpt lat="45.62443" lon="4.42369">
        <ele>480.2</ele>
        <time>2017-03-19T09:21:19Z</time>
      </trkpt>
      <trkpt lat="45.62447" lon="4.42375">
        <ele>480.2</ele>
        <time>2017-03-19T09:21:20Z</time>
      </trkpt>
      <trkpt lat="45.62451" lon="4.4238">
        <ele>480.1</ele>
        <time>2017-03-19T09:21:21Z</time>
      </trkpt>
      <trkpt lat="45.62456" lon="4.42384">
        <ele>480</ele>
        <time>2017-03-19T09:21:22Z</time>
      </trkpt>
      <trkpt lat="45.6246" lon="4.4239">
        <ele>479.9</ele>
        <time>2017-03-19T09:21:23Z</time>
      </trkpt>
      <trkpt lat="45.62464" lon="4.42395">
        <ele>479.8</ele>
        <time>2017-03-19T09:21:24Z</time>
      </trkpt>
      <trkpt lat="45.62469" lon="4.42401">
        <ele>479.7</ele>
        <time>2017-03-19T09:21:25Z</time>
      </trkpt>
      <trkpt lat="45.62473" lon="4.42406">
        <ele>479.6</ele>
        <time>2017-03-19T09:21:26Z</time>
      </trkpt>
      <trkpt lat="45.62477" lon="4.42412">
        <ele>479.3</ele>
        <time>2017-03-19T09:21:27Z</time>
      </trkpt>
      <trkpt lat="45.6248" lon="4.42417">
        <ele>479</ele>
        <time>2017-03-19T09:21:28Z</time>
      </trkpt>
      <trkpt lat="45.62484" lon="4.42424">
        <ele>478.6</ele>
        <time>2017-03-19T09:21:29Z</time>
      </trkpt>
      <trkpt lat="45.62489" lon="4.42431">
        <ele>478.1</ele>
        <time>2017-03-19T09:21:30Z</time>
      </trkpt>
      <trkpt lat="45.6249" lon="4.42439">
        <ele>477.9</ele>
        <time>2017-03-19T09:21:31Z</time>
      </trkpt>
      <trkpt lat="45.62492" lon="4.42448">
        <ele>477.8</ele>
        <time>2017-03-19T09:21:32Z</time>
      </trkpt>
      <trkpt lat="45.62495" lon="4.42457">
        <ele>477.6</ele>
        <time>2017-03-19T09:21:33Z</time>
      </trkpt>
      <trkpt lat="45.62498" lon="4.42465">
        <ele>477.5</ele>
        <time>2017-03-19T09:21:34Z</time>
      </trkpt>
      <trkpt lat="45.62501" lon="4.42474">
        <ele>477.4</ele>
        <time>2017-03-19T09:21:35Z</time>
      </trkpt>
      <trkpt lat="45.62503" lon="4.42484">
        <ele>477.3</ele>
        <time>2017-03-19T09:21:36Z</time>
      </trkpt>
      <trkpt lat="45.62506" lon="4.42494">
        <ele>477.3</ele>
        <time>2017-03-19T09:21:37Z</time>
      </trkpt>
      <trkpt lat="45.62509" lon="4.42503">
        <ele>477.2</ele>
        <time>2017-03-19T09:21:38Z</time>
      </trkpt>
      <trkpt lat="45.62513" lon="4.42514">
        <ele>477.1</ele>
        <time>2017-03-19T09:21:39Z</time>
      </trkpt>
      <trkpt lat="45.62515" lon="4.42523">
        <ele>477.1</ele>
        <time>2017-03-19T09:21:40Z</time>
      </trkpt>
      <trkpt lat="45.62517" lon="4.42534">
        <ele>477.1</ele>
        <time>2017-03-19T09:21:41Z</time>
      </trkpt>
      <trkpt lat="45.62518" lon="4.42545">
        <ele>477.1</ele>
        <time>2017-03-19T09:21:42Z</time>
      </trkpt>
      <trkpt lat="45.62518" lon="4.42555">
        <ele>477.1</ele>
        <time>2017-03-19T09:21:43Z</time>
      </trkpt>
      <trkpt lat="45.62518" lon="4.42564">
        <ele>477.1</ele>
        <time>2017-03-19T09:21:44Z</time>
      </trkpt>
      <trkpt lat="45.62519" lon="4.42574">
        <ele>477.1</ele>
        <time>2017-03-19T09:21:45Z</time>
      </trkpt>
      <trkpt lat="45.6252" lon="4.42582">
        <ele>477.2</ele>
        <time>2017-03-19T09:21:46Z</time>
      </trkpt>
      <trkpt lat="45.6252" lon="4.42591">
        <ele>477.2</ele>
        <time>2017-03-19T09:21:47Z</time>
      </trkpt>
      <trkpt lat="45.6252" lon="4.42599">
        <ele>477.4</ele>
        <time>2017-03-19T09:21:48Z</time>
      </trkpt>
      <trkpt lat="45.62518" lon="4.42605">
        <ele>477.5</ele>
        <time>2017-03-19T09:21:49Z</time>
      </trkpt>
      <trkpt lat="45.62519" lon="4.42613">
        <ele>477.8</ele>
        <time>2017-03-19T09:21:50Z</time>
      </trkpt>
      <trkpt lat="45.6252" lon="4.42621">
        <ele>478</ele>
        <time>2017-03-19T09:21:51Z</time>
      </trkpt>
      <trkpt lat="45.6252" lon="4.42629">
        <ele>478.2</ele>
        <time>2017-03-19T09:21:52Z</time>
      </trkpt>
      <trkpt lat="45.62522" lon="4.42636">
        <ele>478.4</ele>
        <time>2017-03-19T09:21:53Z</time>
      </trkpt>
      <trkpt lat="45.62525" lon="4.42643">
        <ele>478.5</ele>
        <time>2017-03-19T09:21:54Z</time>
      </trkpt>
      <trkpt lat="45.62525" lon="4.42651">
        <ele>478.6</ele>
        <time>2017-03-19T09:21:55Z</time>
      </trkpt>
      <trkpt lat="45.62526" lon="4.42659">
        <ele>478.7</ele>
        <time>2017-03-19T09:21:56Z</time>
      </trkpt>
      <trkpt lat="45.62526" lon="4.42666">
        <ele>478.8</ele>
        <time>2017-03-19T09:21:57Z</time>
      </trkpt>
      <trkpt lat="45.62527" lon="4.42672">
        <ele>478.9</ele>
        <time>2017-03-19T09:21:58Z</time>
      </trkpt>
      <trkpt lat="45.62528" lon="4.4268">
        <ele>479.1</ele>
        <time>2017-03-19T09:21:59Z</time>
      </trkpt>
      <trkpt lat="45.62529" lon="4.42686">
        <ele>479.2</ele>
        <time>2017-03-19T09:22:00Z</time>
      </trkpt>
      <trkpt lat="45.6253" lon="4.42693">
        <ele>479.4</ele>
        <time>2017-03-19T09:22:01Z</time>
      </trkpt>
      <trkpt lat="45.62531" lon="4.42699">
        <ele>479.6</ele>
        <time>2017-03-19T09:22:02Z</time>
      </trkpt>
      <trkpt lat="45.62532" lon="4.42706">
        <ele>479.9</ele>
        <time>2017-03-19T09:22:03Z</time>
      </trkpt>
      <trkpt lat="45.62533" lon="4.42712">
        <ele>480.2</ele>
        <time>2017-03-19T09:22:04Z</time>
      </trkpt>
      <trkpt lat="45.62534" lon="4.42719">
        <ele>480.5</ele>
        <time>2017-03-19T09:22:05Z</time>
      </trkpt>
      <trkpt lat="45.62534" lon="4.42724">
        <ele>480.8</ele>
        <time>2017-03-19T09:22:06Z</time>
      </trkpt>
      <trkpt lat="45.62535" lon="4.42731">
        <ele>481.1</ele>
        <time>2017-03-19T09:22:07Z</time>
      </trkpt>
      <trkpt lat="45.62535" lon="4.42737">
        <ele>481.4</ele>
        <time>2017-03-19T09:22:08Z</time>
      </trkpt>
      <trkpt lat="45.62535" lon="4.42744">
        <ele>481.8</ele>
        <time>2017-03-19T09:22:09Z</time>
      </trkpt>
      <trkpt lat="45.62535" lon="4.42749">
        <ele>482.1</ele>
        <time>2017-03-19T09:22:10Z</time>
      </trkpt>
      <trkpt lat="45.62536" lon="4.42754">
        <ele>482.4</ele>
        <time>2017-03-19T09:22:11Z</time>
      </trkpt>
      <trkpt lat="45.62537" lon="4.42762">
        <ele>482.8</ele>
        <time>2017-03-19T09:22:13Z</time>
      </trkpt>
      <trkpt lat="45.62537" lon="4.42766">
        <ele>483.1</ele>
        <time>2017-03-19T09:22:14Z</time>
      </trkpt>
      <trkpt lat="45.62538" lon="4.42771">
        <ele>483.3</ele>
        <time>2017-03-19T09:22:15Z</time>
      </trkpt>
      <trkpt lat="45.62541" lon="4.42777">
        <ele>483.8</ele>
        <time>2017-03-19T09:22:17Z</time>
      </trkpt>
      <trkpt lat="45.62543" lon="4.42783">
        <ele>484.2</ele>
        <time>2017-03-19T09:22:19Z</time>
      </trkpt>
      <trkpt lat="45.62545" lon="4.42787">
        <ele>484.5</ele>
        <time>2017-03-19T09:22:21Z</time>
      </trkpt>
      <trkpt lat="45.62548" lon="4.4279">
        <ele>484.9</ele>
        <time>2017-03-19T09:22:23Z</time>
      </trkpt>
      <trkpt lat="45.62551" lon="4.42792">
        <ele>485.2</ele>
        <time>2017-03-19T09:22:25Z</time>
      </trkpt>
      <trkpt lat="45.62555" lon="4.42795">
        <ele>485.8</ele>
        <time>2017-03-19T09:22:27Z</time>
      </trkpt>
      <trkpt lat="45.62559" lon="4.42798">
        <ele>486.2</ele>
        <time>2017-03-19T09:22:29Z</time>
      </trkpt>
      <trkpt lat="45.62563" lon="4.428">
        <ele>486.7</ele>
        <time>2017-03-19T09:22:31Z</time>
      </trkpt>
      <trkpt lat="45.62567" lon="4.42804">
        <ele>487.3</ele>
        <time>2017-03-19T09:22:33Z</time>
      </trkpt>
      <trkpt lat="45.6257" lon="4.42806">
        <ele>487.7</ele>
        <time>2017-03-19T09:22:34Z</time>
      </trkpt>
      <trkpt lat="45.62572" lon="4.42809">
        <ele>488.1</ele>
        <time>2017-03-19T09:22:35Z</time>
      </trkpt>
      <trkpt lat="45.62577" lon="4.42813">
        <ele>488.8</ele>
        <time>2017-03-19T09:22:37Z</time>
      </trkpt>
      <trkpt lat="45.62581" lon="4.42817">
        <ele>489.5</ele>
        <time>2017-03-19T09:22:39Z</time>
      </trkpt>
      <trkpt lat="45.62584" lon="4.42822">
        <ele>490.2</ele>
        <time>2017-03-19T09:22:41Z</time>
      </trkpt>
      <trkpt lat="45.62587" lon="4.42828">
        <ele>490.8</ele>
        <time>2017-03-19T09:22:43Z</time>
      </trkpt>
      <trkpt lat="45.62589" lon="4.42834">
        <ele>491.3</ele>
        <time>2017-03-19T09:22:45Z</time>
      </trkpt>
      <trkpt lat="45.62589" lon="4.42838">
        <ele>491.6</ele>
        <time>2017-03-19T09:22:46Z</time>
      </trkpt>
      <trkpt lat="45.6259" lon="4.42845">
        <ele>492.1</ele>
        <time>2017-03-19T09:22:48Z</time>
      </trkpt>
      <trkpt lat="45.62591" lon="4.42849">
        <ele>492.4</ele>
        <time>2017-03-19T09:22:49Z</time>
      </trkpt>
      <trkpt lat="45.62591" lon="4.42857">
        <ele>492.7</ele>
        <time>2017-03-19T09:22:51Z</time>
      </trkpt>
      <trkpt lat="45.62591" lon="4.42864">
        <ele>493.1</ele>
        <time>2017-03-19T09:22:53Z</time>
      </trkpt>
      <trkpt lat="45.6259" lon="4.42871">
        <ele>493.4</ele>
        <time>2017-03-19T09:22:55Z</time>
      </trkpt>
      <trkpt lat="45.6259" lon="4.42878">
        <ele>493.7</ele>
        <time>2017-03-19T09:22:57Z</time>
      </trkpt>
      <trkpt lat="45.62589" lon="4.42885">
        <ele>494</ele>
        <time>2017-03-19T09:22:59Z</time>
      </trkpt>
      <trkpt lat="45.6259" lon="4.42892">
        <ele>494.2</ele>
        <time>2017-03-19T09:23:01Z</time>
      </trkpt>
      <trkpt lat="45.62589" lon="4.42899">
        <ele>494.5</ele>
        <time>2017-03-19T09:23:03Z</time>
      </trkpt>
      <trkpt lat="45.62589" lon="4.42905">
        <ele>494.7</ele>
        <time>2017-03-19T09:23:05Z</time>
      </trkpt>
      <trkpt lat="45.6259" lon="4.42912">
        <ele>495</ele>
        <time>2017-03-19T09:23:07Z</time>
      </trkpt>
      <trkpt lat="45.6259" lon="4.42918">
        <ele>495.2</ele>
        <time>2017-03-19T09:23:09Z</time>
      </trkpt>
      <trkpt lat="45.62591" lon="4.42923">
        <ele>495.3</ele>
        <time>2017-03-19T09:23:11Z</time>
      </trkpt>
      <trkpt lat="45.62591" lon="4.42929">
        <ele>495.5</ele>
        <time>2017-03-19T09:23:13Z</time>
      </trkpt>
      <trkpt lat="45.62591" lon="4.42936">
        <ele>495.8</ele>
        <time>2017-03-19T09:23:15Z</time>
      </trkpt>
      <trkpt lat="45.62591" lon="4.42942">
        <ele>496</ele>
        <time>2017-03-19T09:23:17Z</time>
      </trkpt>
      <trkpt lat="45.62591" lon="4.42949">
        <ele>496.1</ele>
        <time>2017-03-19T09:23:19Z</time>
      </trkpt>
      <trkpt lat="45.62592" lon="4.42956">
        <ele>496.2</ele>
        <time>2017-03-19T09:23:21Z</time>
      </trkpt>
      <trkpt lat="45.62592" lon="4.42963">
        <ele>496.3</ele>
        <time>2017-03-19T09:23:23Z</time>
      </trkpt>
      <trkpt lat="45.62592" lon="4.42968">
        <ele>496.4</ele>
        <time>2017-03-19T09:23:24Z</time>
      </trkpt>
      <trkpt lat="45.62593" lon="4.42975">
        <ele>496.5</ele>
        <time>2017-03-19T09:23:26Z</time>
      </trkpt>
      <trkpt lat="45.62593" lon="4.42982">
        <ele>496.6</ele>
        <time>2017-03-19T09:23:28Z</time>
      </trkpt>
      <trkpt lat="45.62594" lon="4.42986">
        <ele>496.6</ele>
        <time>2017-03-19T09:23:29Z</time>
      </trkpt>
      <trkpt lat="45.62594" lon="4.4299">
        <ele>496.7</ele>
        <time>2017-03-19T09:23:30Z</time>
      </trkpt>
      <trkpt lat="45.62594" lon="4.42994">
        <ele>496.8</ele>
        <time>2017-03-19T09:23:31Z</time>
      </trkpt>
      <trkpt lat="45.62595" lon="4.42999">
        <ele>496.8</ele>
        <time>2017-03-19T09:23:32Z</time>
      </trkpt>
      <trkpt lat="45.62595" lon="4.43003">
        <ele>496.9</ele>
        <time>2017-03-19T09:23:33Z</time>
      </trkpt>
      <trkpt lat="45.62595" lon="4.43007">
        <ele>496.9</ele>
        <time>2017-03-19T09:23:34Z</time>
      </trkpt>
      <trkpt lat="45.62596" lon="4.43012">
        <ele>496.9</ele>
        <time>2017-03-19T09:23:35Z</time>
      </trkpt>
      <trkpt lat="45.62596" lon="4.43016">
        <ele>497</ele>
        <time>2017-03-19T09:23:36Z</time>
      </trkpt>
      <trkpt lat="45.62597" lon="4.4302">
        <ele>497</ele>
        <time>2017-03-19T09:23:37Z</time>
      </trkpt>
      <trkpt lat="45.62597" lon="4.43025">
        <ele>497.1</ele>
        <time>2017-03-19T09:23:38Z</time>
      </trkpt>
      <trkpt lat="45.62598" lon="4.43029">
        <ele>497.1</ele>
        <time>2017-03-19T09:23:39Z</time>
      </trkpt>
      <trkpt lat="45.62598" lon="4.43034">
        <ele>497.2</ele>
        <time>2017-03-19T09:23:40Z</time>
      </trkpt>
      <trkpt lat="45.62599" lon="4.43039">
        <ele>497.2</ele>
        <time>2017-03-19T09:23:41Z</time>
      </trkpt>
      <trkpt lat="45.62599" lon="4.43043">
        <ele>497.3</ele>
        <time>2017-03-19T09:23:42Z</time>
      </trkpt>
      <trkpt lat="45.626" lon="4.43048">
        <ele>497.3</ele>
        <time>2017-03-19T09:23:43Z</time>
      </trkpt>
      <trkpt lat="45.626" lon="4.43053">
        <ele>497.4</ele>
        <time>2017-03-19T09:23:44Z</time>
      </trkpt>
      <trkpt lat="45.62601" lon="4.43058">
        <ele>497.4</ele>
        <time>2017-03-19T09:23:45Z</time>
      </trkpt>
      <trkpt lat="45.62601" lon="4.43063">
        <ele>497.5</ele>
        <time>2017-03-19T09:23:46Z</time>
      </trkpt>
      <trkpt lat="45.62601" lon="4.43068">
        <ele>497.6</ele>
        <time>2017-03-19T09:23:47Z</time>
      </trkpt>
      <trkpt lat="45.62601" lon="4.43073">
        <ele>497.6</ele>
        <time>2017-03-19T09:23:48Z</time>
      </trkpt>
      <trkpt lat="45.62601" lon="4.43078">
        <ele>497.7</ele>
        <time>2017-03-19T09:23:49Z</time>
      </trkpt>
      <trkpt lat="45.62601" lon="4.43084">
        <ele>497.8</ele>
        <time>2017-03-19T09:23:50Z</time>
      </trkpt>
      <trkpt lat="45.62601" lon="4.43089">
        <ele>497.9</ele>
        <time>2017-03-19T09:23:51Z</time>
      </trkpt>
      <trkpt lat="45.626" lon="4.43095">
        <ele>498</ele>
        <time>2017-03-19T09:23:52Z</time>
      </trkpt>
      <trkpt lat="45.626" lon="4.43101">
        <ele>498</ele>
        <time>2017-03-19T09:23:53Z</time>
      </trkpt>
      <trkpt lat="45.626" lon="4.43106">
        <ele>498.1</ele>
        <time>2017-03-19T09:23:54Z</time>
      </trkpt>
      <trkpt lat="45.626" lon="4.43111">
        <ele>498.3</ele>
        <time>2017-03-19T09:23:55Z</time>
      </trkpt>
      <trkpt lat="45.626" lon="4.43117">
        <ele>498.5</ele>
        <time>2017-03-19T09:23:56Z</time>
      </trkpt>
      <trkpt lat="45.62599" lon="4.43122">
        <ele>498.8</ele>
        <time>2017-03-19T09:23:57Z</time>
      </trkpt>
      <trkpt lat="45.62599" lon="4.43126">
        <ele>499</ele>
        <time>2017-03-19T09:23:58Z</time>
      </trkpt>
      <trkpt lat="45.62599" lon="4.4313">
        <ele>499.3</ele>
        <time>2017-03-19T09:23:59Z</time>
      </trkpt>
      <trkpt lat="45.62599" lon="4.43137">
        <ele>499.8</ele>
        <time>2017-03-19T09:24:01Z</time>
      </trkpt>
      <trkpt lat="45.62599" lon="4.43143">
        <ele>500.3</ele>
        <time>2017-03-19T09:24:03Z</time>
      </trkpt>
      <trkpt lat="45.62599" lon="4.43151">
        <ele>501.1</ele>
        <time>2017-03-19T09:24:05Z</time>
      </trkpt>
      <trkpt lat="45.62598" lon="4.43156">
        <ele>501.6</ele>
        <time>2017-03-19T09:24:06Z</time>
      </trkpt>
      <trkpt lat="45.62597" lon="4.43161">
        <ele>502</ele>
        <time>2017-03-19T09:24:07Z</time>
      </trkpt>
      <trkpt lat="45.62596" lon="4.43167">
        <ele>502</ele>
        <time>2017-03-19T09:24:08Z</time>
      </trkpt>
      <trkpt lat="45.62595" lon="4.43172">
        <ele>501.9</ele>
        <time>2017-03-19T09:24:09Z</time>
      </trkpt>
      <trkpt lat="45.62593" lon="4.43177">
        <ele>501.9</ele>
        <time>2017-03-19T09:24:10Z</time>
      </trkpt>
      <trkpt lat="45.62592" lon="4.43182">
        <ele>501.9</ele>
        <time>2017-03-19T09:24:11Z</time>
      </trkpt>
      <trkpt lat="45.6259" lon="4.43187">
        <ele>501.8</ele>
        <time>2017-03-19T09:24:12Z</time>
      </trkpt>
      <trkpt lat="45.62589" lon="4.43192">
        <ele>501.8</ele>
        <time>2017-03-19T09:24:13Z</time>
      </trkpt>
      <trkpt lat="45.62588" lon="4.43197">
        <ele>501.8</ele>
        <time>2017-03-19T09:24:14Z</time>
      </trkpt>
      <trkpt lat="45.62587" lon="4.43202">
        <ele>501.7</ele>
        <time>2017-03-19T09:24:15Z</time>
      </trkpt>
      <trkpt lat="45.62586" lon="4.43207">
        <ele>501.7</ele>
        <time>2017-03-19T09:24:16Z</time>
      </trkpt>
      <trkpt lat="45.62585" lon="4.43212">
        <ele>501.6</ele>
        <time>2017-03-19T09:24:17Z</time>
      </trkpt>
      <trkpt lat="45.62584" lon="4.43216">
        <ele>501.6</ele>
        <time>2017-03-19T09:24:18Z</time>
      </trkpt>
      <trkpt lat="45.62583" lon="4.43221">
        <ele>501.5</ele>
        <time>2017-03-19T09:24:19Z</time>
      </trkpt>
      <trkpt lat="45.62582" lon="4.43226">
        <ele>501.5</ele>
        <time>2017-03-19T09:24:20Z</time>
      </trkpt>
      <trkpt lat="45.6258" lon="4.43231">
        <ele>501.4</ele>
        <time>2017-03-19T09:24:21Z</time>
      </trkpt>
      <trkpt lat="45.62579" lon="4.43236">
        <ele>501.3</ele>
        <time>2017-03-19T09:24:22Z</time>
      </trkpt>
      <trkpt lat="45.62577" lon="4.43242">
        <ele>501.2</ele>
        <time>2017-03-19T09:24:23Z</time>
      </trkpt>
      <trkpt lat="45.62576" lon="4.43247">
        <ele>501.2</ele>
        <time>2017-03-19T09:24:24Z</time>
      </trkpt>
      <trkpt lat="45.62575" lon="4.43253">
        <ele>501.1</ele>
        <time>2017-03-19T09:24:25Z</time>
      </trkpt>
      <trkpt lat="45.62574" lon="4.43259">
        <ele>501</ele>
        <time>2017-03-19T09:24:26Z</time>
      </trkpt>
      <trkpt lat="45.62574" lon="4.43264">
        <ele>500.9</ele>
        <time>2017-03-19T09:24:27Z</time>
      </trkpt>
      <trkpt lat="45.62572" lon="4.4327">
        <ele>500.7</ele>
        <time>2017-03-19T09:24:28Z</time>
      </trkpt>
      <trkpt lat="45.62571" lon="4.43275">
        <ele>500.6</ele>
        <time>2017-03-19T09:24:29Z</time>
      </trkpt>
      <trkpt lat="45.62569" lon="4.43281">
        <ele>500.5</ele>
        <time>2017-03-19T09:24:30Z</time>
      </trkpt>
      <trkpt lat="45.62567" lon="4.43287">
        <ele>500.3</ele>
        <time>2017-03-19T09:24:31Z</time>
      </trkpt>
      <trkpt lat="45.62565" lon="4.43293">
        <ele>500.2</ele>
        <time>2017-03-19T09:24:32Z</time>
      </trkpt>
      <trkpt lat="45.62563" lon="4.433">
        <ele>500</ele>
        <time>2017-03-19T09:24:33Z</time>
      </trkpt>
      <trkpt lat="45.62561" lon="4.43307">
        <ele>499.8</ele>
        <time>2017-03-19T09:24:34Z</time>
      </trkpt>
      <trkpt lat="45.6256" lon="4.43315">
        <ele>499.7</ele>
        <time>2017-03-19T09:24:35Z</time>
      </trkpt>
      <trkpt lat="45.62558" lon="4.43323">
        <ele>499.6</ele>
        <time>2017-03-19T09:24:36Z</time>
      </trkpt>
      <trkpt lat="45.62556" lon="4.43331">
        <ele>499.6</ele>
        <time>2017-03-19T09:24:37Z</time>
      </trkpt>
      <trkpt lat="45.62554" lon="4.43339">
        <ele>499.5</ele>
        <time>2017-03-19T09:24:38Z</time>
      </trkpt>
      <trkpt lat="45.62552" lon="4.43348">
        <ele>499.5</ele>
        <time>2017-03-19T09:24:39Z</time>
      </trkpt>
      <trkpt lat="45.6255" lon="4.43357">
        <ele>499.5</ele>
        <time>2017-03-19T09:24:40Z</time>
      </trkpt>
      <trkpt lat="45.62548" lon="4.43365">
        <ele>499.4</ele>
        <time>2017-03-19T09:24:41Z</time>
      </trkpt>
      <trkpt lat="45.62545" lon="4.43372">
        <ele>499.4</ele>
        <time>2017-03-19T09:24:42Z</time>
      </trkpt>
      <trkpt lat="45.62541" lon="4.4338">
        <ele>499.3</ele>
        <time>2017-03-19T09:24:43Z</time>
      </trkpt>
      <trkpt lat="45.62538" lon="4.43388">
        <ele>499.3</ele>
        <time>2017-03-19T09:24:44Z</time>
      </trkpt>
      <trkpt lat="45.62535" lon="4.43397">
        <ele>499.2</ele>
        <time>2017-03-19T09:24:45Z</time>
      </trkpt>
      <trkpt lat="45.62531" lon="4.43405">
        <ele>499.1</ele>
        <time>2017-03-19T09:24:46Z</time>
      </trkpt>
      <trkpt lat="45.62528" lon="4.43414">
        <ele>499.1</ele>
        <time>2017-03-19T09:24:47Z</time>
      </trkpt>
      <trkpt lat="45.62524" lon="4.43422">
        <ele>499.1</ele>
        <time>2017-03-19T09:24:48Z</time>
      </trkpt>
      <trkpt lat="45.62521" lon="4.4343">
        <ele>499.1</ele>
        <time>2017-03-19T09:24:49Z</time>
      </trkpt>
      <trkpt lat="45.62518" lon="4.43438">
        <ele>499.1</ele>
        <time>2017-03-19T09:24:50Z</time>
      </trkpt>
      <trkpt lat="45.62515" lon="4.43445">
        <ele>499</ele>
        <time>2017-03-19T09:24:51Z</time>
      </trkpt>
      <trkpt lat="45.62513" lon="4.43453">
        <ele>498.9</ele>
        <time>2017-03-19T09:24:52Z</time>
      </trkpt>
      <trkpt lat="45.62508" lon="4.43461">
        <ele>498.6</ele>
        <time>2017-03-19T09:24:53Z</time>
      </trkpt>
      <trkpt lat="45.62505" lon="4.4347">
        <ele>498.1</ele>
        <time>2017-03-19T09:24:54Z</time>
      </trkpt>
      <trkpt lat="45.62502" lon="4.43479">
        <ele>497.5</ele>
        <time>2017-03-19T09:24:55Z</time>
      </trkpt>
      <trkpt lat="45.62498" lon="4.43489">
        <ele>496.9</ele>
        <time>2017-03-19T09:24:56Z</time>
      </trkpt>
      <trkpt lat="45.62493" lon="4.43498">
        <ele>496.3</ele>
        <time>2017-03-19T09:24:57Z</time>
      </trkpt>
      <trkpt lat="45.62488" lon="4.43507">
        <ele>495.8</ele>
        <time>2017-03-19T09:24:58Z</time>
      </trkpt>
      <trkpt lat="45.62484" lon="4.43517">
        <ele>495.2</ele>
        <time>2017-03-19T09:24:59Z</time>
      </trkpt>
      <trkpt lat="45.62479" lon="4.43526">
        <ele>494.8</ele>
        <time>2017-03-19T09:25:00Z</time>
      </trkpt>
      <trkpt lat="45.62475" lon="4.43537">
        <ele>494.4</ele>
        <time>2017-03-19T09:25:01Z</time>
      </trkpt>
      <trkpt lat="45.62471" lon="4.43548">
        <ele>494</ele>
        <time>2017-03-19T09:25:02Z</time>
      </trkpt>
      <trkpt lat="45.62467" lon="4.43559">
        <ele>493.6</ele>
        <time>2017-03-19T09:25:03Z</time>
      </trkpt>
      <trkpt lat="45.62465" lon="4.4357">
        <ele>493.3</ele>
        <time>2017-03-19T09:25:04Z</time>
      </trkpt>
      <trkpt lat="45.62462" lon="4.43582">
        <ele>493</ele>
        <time>2017-03-19T09:25:05Z</time>
      </trkpt>
      <trkpt lat="45.6246" lon="4.43593">
        <ele>492.7</ele>
        <time>2017-03-19T09:25:06Z</time>
      </trkpt>
      <trkpt lat="45.62459" lon="4.43605">
        <ele>492.4</ele>
        <time>2017-03-19T09:25:07Z</time>
      </trkpt>
      <trkpt lat="45.62457" lon="4.43616">
        <ele>492.1</ele>
        <time>2017-03-19T09:25:08Z</time>
      </trkpt>
      <trkpt lat="45.62457" lon="4.43626">
        <ele>491.8</ele>
        <time>2017-03-19T09:25:09Z</time>
      </trkpt>
      <trkpt lat="45.62454" lon="4.43639">
        <ele>491.4</ele>
        <time>2017-03-19T09:25:10Z</time>
      </trkpt>
      <trkpt lat="45.62449" lon="4.4365">
        <ele>491.1</ele>
        <time>2017-03-19T09:25:11Z</time>
      </trkpt>
      <trkpt lat="45.62445" lon="4.43661">
        <ele>490.7</ele>
        <time>2017-03-19T09:25:12Z</time>
      </trkpt>
      <trkpt lat="45.62443" lon="4.43671">
        <ele>490.5</ele>
        <time>2017-03-19T09:25:13Z</time>
      </trkpt>
      <trkpt lat="45.62439" lon="4.43681">
        <ele>490.2</ele>
        <time>2017-03-19T09:25:14Z</time>
      </trkpt>
      <trkpt lat="45.62436" lon="4.43691">
        <ele>490</ele>
        <time>2017-03-19T09:25:15Z</time>
      </trkpt>
      <trkpt lat="45.62433" lon="4.43702">
        <ele>489.8</ele>
        <time>2017-03-19T09:25:16Z</time>
      </trkpt>
      <trkpt lat="45.62431" lon="4.43712">
        <ele>489.7</ele>
        <time>2017-03-19T09:25:17Z</time>
      </trkpt>
      <trkpt lat="45.62429" lon="4.43722">
        <ele>489.7</ele>
        <time>2017-03-19T09:25:18Z</time>
      </trkpt>
      <trkpt lat="45.62427" lon="4.43731">
        <ele>489.6</ele>
        <time>2017-03-19T09:25:19Z</time>
      </trkpt>
      <trkpt lat="45.62425" lon="4.43742">
        <ele>489.6</ele>
        <time>2017-03-19T09:25:20Z</time>
      </trkpt>
      <trkpt lat="45.62423" lon="4.43752">
        <ele>489.6</ele>
        <time>2017-03-19T09:25:21Z</time>
      </trkpt>
      <trkpt lat="45.62421" lon="4.43761">
        <ele>489.6</ele>
        <time>2017-03-19T09:25:22Z</time>
      </trkpt>
      <trkpt lat="45.62418" lon="4.4377">
        <ele>489.6</ele>
        <time>2017-03-19T09:25:23Z</time>
      </trkpt>
      <trkpt lat="45.62416" lon="4.43777">
        <ele>489.6</ele>
        <time>2017-03-19T09:25:24Z</time>
      </trkpt>
      <trkpt lat="45.62414" lon="4.43785">
        <ele>489.7</ele>
        <time>2017-03-19T09:25:25Z</time>
      </trkpt>
      <trkpt lat="45.62412" lon="4.43792">
        <ele>489.8</ele>
        <time>2017-03-19T09:25:26Z</time>
      </trkpt>
      <trkpt lat="45.62411" lon="4.43799">
        <ele>489.8</ele>
        <time>2017-03-19T09:25:27Z</time>
      </trkpt>
      <trkpt lat="45.62409" lon="4.43806">
        <ele>489.9</ele>
        <time>2017-03-19T09:25:28Z</time>
      </trkpt>
      <trkpt lat="45.62407" lon="4.43813">
        <ele>490</ele>
        <time>2017-03-19T09:25:29Z</time>
      </trkpt>
      <trkpt lat="45.62406" lon="4.4382">
        <ele>490.1</ele>
        <time>2017-03-19T09:25:30Z</time>
      </trkpt>
      <trkpt lat="45.62402" lon="4.43828">
        <ele>490.2</ele>
        <time>2017-03-19T09:25:31Z</time>
      </trkpt>
      <trkpt lat="45.62401" lon="4.43836">
        <ele>490.3</ele>
        <time>2017-03-19T09:25:32Z</time>
      </trkpt>
      <trkpt lat="45.62399" lon="4.43844">
        <ele>490.5</ele>
        <time>2017-03-19T09:25:33Z</time>
      </trkpt>
      <trkpt lat="45.62398" lon="4.43851">
        <ele>490.6</ele>
        <time>2017-03-19T09:25:34Z</time>
      </trkpt>
      <trkpt lat="45.62396" lon="4.43859">
        <ele>490.8</ele>
        <time>2017-03-19T09:25:35Z</time>
      </trkpt>
      <trkpt lat="45.62395" lon="4.43866">
        <ele>491</ele>
        <time>2017-03-19T09:25:36Z</time>
      </trkpt>
      <trkpt lat="45.62394" lon="4.43873">
        <ele>491.2</ele>
        <time>2017-03-19T09:25:37Z</time>
      </trkpt>
      <trkpt lat="45.62393" lon="4.4388">
        <ele>491.6</ele>
        <time>2017-03-19T09:25:38Z</time>
      </trkpt>
      <trkpt lat="45.62392" lon="4.43886">
        <ele>492</ele>
        <time>2017-03-19T09:25:39Z</time>
      </trkpt>
      <trkpt lat="45.62391" lon="4.43893">
        <ele>492.4</ele>
        <time>2017-03-19T09:25:40Z</time>
      </trkpt>
      <trkpt lat="45.62391" lon="4.43899">
        <ele>492.8</ele>
        <time>2017-03-19T09:25:41Z</time>
      </trkpt>
      <trkpt lat="45.6239" lon="4.43906">
        <ele>493.3</ele>
        <time>2017-03-19T09:25:42Z</time>
      </trkpt>
      <trkpt lat="45.6239" lon="4.43912">
        <ele>493.7</ele>
        <time>2017-03-19T09:25:43Z</time>
      </trkpt>
      <trkpt lat="45.62389" lon="4.43918">
        <ele>493.9</ele>
        <time>2017-03-19T09:25:44Z</time>
      </trkpt>
      <trkpt lat="45.62389" lon="4.43925">
        <ele>494</ele>
        <time>2017-03-19T09:25:45Z</time>
      </trkpt>
      <trkpt lat="45.62386" lon="4.43933">
        <ele>493.9</ele>
        <time>2017-03-19T09:25:46Z</time>
      </trkpt>
      <trkpt lat="45.62385" lon="4.43942">
        <ele>493.6</ele>
        <time>2017-03-19T09:25:47Z</time>
      </trkpt>
      <trkpt lat="45.62384" lon="4.43951">
        <ele>493.2</ele>
        <time>2017-03-19T09:25:48Z</time>
      </trkpt>
      <trkpt lat="45.62382" lon="4.43963">
        <ele>492.6</ele>
        <time>2017-03-19T09:25:49Z</time>
      </trkpt>
      <trkpt lat="45.62381" lon="4.43973">
        <ele>492</ele>
        <time>2017-03-19T09:25:50Z</time>
      </trkpt>
      <trkpt lat="45.6238" lon="4.43985">
        <ele>491.4</ele>
        <time>2017-03-19T09:25:51Z</time>
      </trkpt>
      <trkpt lat="45.6238" lon="4.43996">
        <ele>491</ele>
        <time>2017-03-19T09:25:52Z</time>
      </trkpt>
      <trkpt lat="45.62381" lon="4.44006">
        <ele>490.6</ele>
        <time>2017-03-19T09:25:53Z</time>
      </trkpt>
      <trkpt lat="45.62382" lon="4.44017">
        <ele>490.4</ele>
        <time>2017-03-19T09:25:54Z</time>
      </trkpt>
      <trkpt lat="45.62385" lon="4.44026">
        <ele>490.3</ele>
        <time>2017-03-19T09:25:55Z</time>
      </trkpt>
      <trkpt lat="45.62387" lon="4.44035">
        <ele>490.2</ele>
        <time>2017-03-19T09:25:56Z</time>
      </trkpt>
      <trkpt lat="45.6239" lon="4.44043">
        <ele>490.2</ele>
        <time>2017-03-19T09:25:57Z</time>
      </trkpt>
      <trkpt lat="45.6239" lon="4.44052">
        <ele>490.3</ele>
        <time>2017-03-19T09:25:58Z</time>
      </trkpt>
      <trkpt lat="45.62391" lon="4.44062">
        <ele>490.4</ele>
        <time>2017-03-19T09:25:59Z</time>
      </trkpt>
      <trkpt lat="45.62392" lon="4.4407">
        <ele>490.6</ele>
        <time>2017-03-19T09:26:00Z</time>
      </trkpt>
      <trkpt lat="45.62393" lon="4.44077">
        <ele>490.7</ele>
        <time>2017-03-19T09:26:01Z</time>
      </trkpt>
      <trkpt lat="45.62393" lon="4.44084">
        <ele>490.8</ele>
        <time>2017-03-19T09:26:02Z</time>
      </trkpt>
      <trkpt lat="45.62394" lon="4.44091">
        <ele>490.9</ele>
        <time>2017-03-19T09:26:03Z</time>
      </trkpt>
      <trkpt lat="45.62395" lon="4.44097">
        <ele>490.9</ele>
        <time>2017-03-19T09:26:04Z</time>
      </trkpt>
      <trkpt lat="45.62396" lon="4.44105">
        <ele>490.9</ele>
        <time>2017-03-19T09:26:05Z</time>
      </trkpt>
      <trkpt lat="45.62397" lon="4.44112">
        <ele>490.8</ele>
        <time>2017-03-19T09:26:06Z</time>
      </trkpt>
      <trkpt lat="45.62398" lon="4.4412">
        <ele>490.6</ele>
        <time>2017-03-19T09:26:07Z</time>
      </trkpt>
      <trkpt lat="45.62397" lon="4.44127">
        <ele>490.5</ele>
        <time>2017-03-19T09:26:08Z</time>
      </trkpt>
      <trkpt lat="45.62397" lon="4.44135">
        <ele>490.3</ele>
        <time>2017-03-19T09:26:09Z</time>
      </trkpt>
      <trkpt lat="45.62399" lon="4.44144">
        <ele>490.1</ele>
        <time>2017-03-19T09:26:10Z</time>
      </trkpt>
      <trkpt lat="45.62398" lon="4.44152">
        <ele>490</ele>
        <time>2017-03-19T09:26:11Z</time>
      </trkpt>
      <trkpt lat="45.62399" lon="4.4416">
        <ele>489.8</ele>
        <time>2017-03-19T09:26:12Z</time>
      </trkpt>
      <trkpt lat="45.62399" lon="4.4417">
        <ele>489.6</ele>
        <time>2017-03-19T09:26:13Z</time>
      </trkpt>
      <trkpt lat="45.624" lon="4.44178">
        <ele>489.5</ele>
        <time>2017-03-19T09:26:14Z</time>
      </trkpt>
      <trkpt lat="45.62398" lon="4.44186">
        <ele>489.4</ele>
        <time>2017-03-19T09:26:15Z</time>
      </trkpt>
      <trkpt lat="45.62396" lon="4.44194">
        <ele>489.4</ele>
        <time>2017-03-19T09:26:16Z</time>
      </trkpt>
      <trkpt lat="45.62395" lon="4.44201">
        <ele>489.3</ele>
        <time>2017-03-19T09:26:17Z</time>
      </trkpt>
      <trkpt lat="45.62393" lon="4.44206">
        <ele>489.3</ele>
        <time>2017-03-19T09:26:18Z</time>
      </trkpt>
      <trkpt lat="45.62391" lon="4.44211">
        <ele>489.3</ele>
        <time>2017-03-19T09:26:19Z</time>
      </trkpt>
      <trkpt lat="45.62388" lon="4.44217">
        <ele>489.3</ele>
        <time>2017-03-19T09:26:20Z</time>
      </trkpt>
      <trkpt lat="45.62387" lon="4.44223">
        <ele>489.3</ele>
        <time>2017-03-19T09:26:21Z</time>
      </trkpt>
      <trkpt lat="45.62384" lon="4.44228">
        <ele>489.3</ele>
        <time>2017-03-19T09:26:22Z</time>
      </trkpt>
      <trkpt lat="45.62382" lon="4.44232">
        <ele>489.3</ele>
        <time>2017-03-19T09:26:23Z</time>
      </trkpt>
      <trkpt lat="45.6238" lon="4.44238">
        <ele>489.4</ele>
        <time>2017-03-19T09:26:24Z</time>
      </trkpt>
      <trkpt lat="45.62377" lon="4.44243">
        <ele>489.5</ele>
        <time>2017-03-19T09:26:25Z</time>
      </trkpt>
      <trkpt lat="45.62374" lon="4.44248">
        <ele>489.6</ele>
        <time>2017-03-19T09:26:26Z</time>
      </trkpt>
      <trkpt lat="45.62372" lon="4.44254">
        <ele>489.6</ele>
        <time>2017-03-19T09:26:27Z</time>
      </trkpt>
      <trkpt lat="45.6237" lon="4.44258">
        <ele>489.7</ele>
        <time>2017-03-19T09:26:28Z</time>
      </trkpt>
      <trkpt lat="45.62368" lon="4.44264">
        <ele>489.8</ele>
        <time>2017-03-19T09:26:29Z</time>
      </trkpt>
      <trkpt lat="45.62364" lon="4.4427">
        <ele>489.8</ele>
        <time>2017-03-19T09:26:30Z</time>
      </trkpt>
      <trkpt lat="45.62362" lon="4.44277">
        <ele>489.9</ele>
        <time>2017-03-19T09:26:31Z</time>
      </trkpt>
      <trkpt lat="45.6236" lon="4.44282">
        <ele>490</ele>
        <time>2017-03-19T09:26:32Z</time>
      </trkpt>
      <trkpt lat="45.62359" lon="4.44286">
        <ele>490</ele>
        <time>2017-03-19T09:26:33Z</time>
      </trkpt>
      <trkpt lat="45.62358" lon="4.44289">
        <ele>490.1</ele>
        <time>2017-03-19T09:26:34Z</time>
      </trkpt>
      <trkpt lat="45.62356" lon="4.44295">
        <ele>490.2</ele>
        <time>2017-03-19T09:26:35Z</time>
      </trkpt>
      <trkpt lat="45.62354" lon="4.44299">
        <ele>490.2</ele>
        <time>2017-03-19T09:26:36Z</time>
      </trkpt>
      <trkpt lat="45.62352" lon="4.44305">
        <ele>490.3</ele>
        <time>2017-03-19T09:26:37Z</time>
      </trkpt>
      <trkpt lat="45.6235" lon="4.44312">
        <ele>490.3</ele>
        <time>2017-03-19T09:26:38Z</time>
      </trkpt>
      <trkpt lat="45.62348" lon="4.44318">
        <ele>490.3</ele>
        <time>2017-03-19T09:26:39Z</time>
      </trkpt>
      <trkpt lat="45.62345" lon="4.44324">
        <ele>490.3</ele>
        <time>2017-03-19T09:26:40Z</time>
      </trkpt>
      <trkpt lat="45.62343" lon="4.44333">
        <ele>490.4</ele>
        <time>2017-03-19T09:26:41Z</time>
      </trkpt>
      <trkpt lat="45.6234" lon="4.4434">
        <ele>490.4</ele>
        <time>2017-03-19T09:26:42Z</time>
      </trkpt>
      <trkpt lat="45.62336" lon="4.44346">
        <ele>490.5</ele>
        <time>2017-03-19T09:26:43Z</time>
      </trkpt>
      <trkpt lat="45.62333" lon="4.44354">
        <ele>490.6</ele>
        <time>2017-03-19T09:26:44Z</time>
      </trkpt>
      <trkpt lat="45.62332" lon="4.44361">
        <ele>490.6</ele>
        <time>2017-03-19T09:26:45Z</time>
      </trkpt>
      <trkpt lat="45.62332" lon="4.44369">
        <ele>490.7</ele>
        <time>2017-03-19T09:26:46Z</time>
      </trkpt>
      <trkpt lat="45.6233" lon="4.44377">
        <ele>490.8</ele>
        <time>2017-03-19T09:26:47Z</time>
      </trkpt>
      <trkpt lat="45.62329" lon="4.44385">
        <ele>490.9</ele>
        <time>2017-03-19T09:26:48Z</time>
      </trkpt>
      <trkpt lat="45.62329" lon="4.44391">
        <ele>490.9</ele>
        <time>2017-03-19T09:26:49Z</time>
      </trkpt>
      <trkpt lat="45.62328" lon="4.44398">
        <ele>491</ele>
        <time>2017-03-19T09:26:50Z</time>
      </trkpt>
      <trkpt lat="45.62328" lon="4.44405">
        <ele>491.1</ele>
        <time>2017-03-19T09:26:51Z</time>
      </trkpt>
      <trkpt lat="45.62327" lon="4.44411">
        <ele>491.3</ele>
        <time>2017-03-19T09:26:52Z</time>
      </trkpt>
      <trkpt lat="45.62327" lon="4.44417">
        <ele>491.5</ele>
        <time>2017-03-19T09:26:53Z</time>
      </trkpt>
      <trkpt lat="45.62328" lon="4.44421">
        <ele>491.7</ele>
        <time>2017-03-19T09:26:54Z</time>
      </trkpt>
      <trkpt lat="45.62329" lon="4.44426">
        <ele>492.1</ele>
        <time>2017-03-19T09:26:55Z</time>
      </trkpt>
      <trkpt lat="45.62328" lon="4.44433">
        <ele>492.7</ele>
        <time>2017-03-19T09:26:57Z</time>
      </trkpt>
      <trkpt lat="45.62326" lon="4.44437">
        <ele>493</ele>
        <time>2017-03-19T09:26:58Z</time>
      </trkpt>
      <trkpt lat="45.62323" lon="4.44441">
        <ele>493</ele>
        <time>2017-03-19T09:26:59Z</time>
      </trkpt>
      <trkpt lat="45.62317" lon="4.44443">
        <ele>493</ele>
        <time>2017-03-19T09:27:00Z</time>
      </trkpt>
      <trkpt lat="45.62316" lon="4.44447">
        <ele>493</ele>
        <time>2017-03-19T09:27:01Z</time>
      </trkpt>
      <trkpt lat="45.62313" lon="4.4445">
        <ele>493</ele>
        <time>2017-03-19T09:27:02Z</time>
      </trkpt>
      <trkpt lat="45.62311" lon="4.44454">
        <ele>493</ele>
        <time>2017-03-19T09:27:03Z</time>
      </trkpt>
      <trkpt lat="45.62308" lon="4.44458">
        <ele>493</ele>
        <time>2017-03-19T09:27:04Z</time>
      </trkpt>
      <trkpt lat="45.62307" lon="4.44462">
        <ele>493</ele>
        <time>2017-03-19T09:27:05Z</time>
      </trkpt>
      <trkpt lat="45.62307" lon="4.4447">
        <ele>493</ele>
        <time>2017-03-19T09:27:07Z</time>
      </trkpt>
      <trkpt lat="45.62308" lon="4.44474">
        <ele>493.1</ele>
        <time>2017-03-19T09:27:08Z</time>
      </trkpt>
      <trkpt lat="45.62311" lon="4.44478">
        <ele>493.2</ele>
        <time>2017-03-19T09:27:09Z</time>
      </trkpt>
      <trkpt lat="45.62313" lon="4.44481">
        <ele>493.3</ele>
        <time>2017-03-19T09:27:10Z</time>
      </trkpt>
      <trkpt lat="45.62316" lon="4.44485">
        <ele>493.4</ele>
        <time>2017-03-19T09:27:11Z</time>
      </trkpt>
      <trkpt lat="45.62318" lon="4.44488">
        <ele>493.5</ele>
        <time>2017-03-19T09:27:12Z</time>
      </trkpt>
      <trkpt lat="45.62321" lon="4.44491">
        <ele>493.6</ele>
        <time>2017-03-19T09:27:13Z</time>
      </trkpt>
      <trkpt lat="45.62323" lon="4.44494">
        <ele>493.7</ele>
        <time>2017-03-19T09:27:14Z</time>
      </trkpt>
      <trkpt lat="45.62326" lon="4.44498">
        <ele>493.8</ele>
        <time>2017-03-19T09:27:15Z</time>
      </trkpt>
      <trkpt lat="45.62328" lon="4.44501">
        <ele>493.9</ele>
        <time>2017-03-19T09:27:16Z</time>
      </trkpt>
      <trkpt lat="45.6233" lon="4.44504">
        <ele>493.9</ele>
        <time>2017-03-19T09:27:17Z</time>
      </trkpt>
      <trkpt lat="45.62332" lon="4.44507">
        <ele>494</ele>
        <time>2017-03-19T09:27:18Z</time>
      </trkpt>
      <trkpt lat="45.62335" lon="4.44511">
        <ele>494.1</ele>
        <time>2017-03-19T09:27:19Z</time>
      </trkpt>
      <trkpt lat="45.62338" lon="4.44514">
        <ele>494.2</ele>
        <time>2017-03-19T09:27:20Z</time>
      </trkpt>
      <trkpt lat="45.62341" lon="4.44517">
        <ele>494.3</ele>
        <time>2017-03-19T09:27:21Z</time>
      </trkpt>
      <trkpt lat="45.62343" lon="4.4452">
        <ele>494.4</ele>
        <time>2017-03-19T09:27:22Z</time>
      </trkpt>
      <trkpt lat="45.62346" lon="4.44524">
        <ele>494.5</ele>
        <time>2017-03-19T09:27:23Z</time>
      </trkpt>
      <trkpt lat="45.62348" lon="4.44527">
        <ele>494.7</ele>
        <time>2017-03-19T09:27:24Z</time>
      </trkpt>
      <trkpt lat="45.62351" lon="4.44531">
        <ele>494.8</ele>
        <time>2017-03-19T09:27:25Z</time>
      </trkpt>
      <trkpt lat="45.62354" lon="4.44534">
        <ele>494.9</ele>
        <time>2017-03-19T09:27:26Z</time>
      </trkpt>
      <trkpt lat="45.62356" lon="4.44538">
        <ele>495.1</ele>
        <time>2017-03-19T09:27:27Z</time>
      </trkpt>
      <trkpt lat="45.62359" lon="4.44541">
        <ele>495.2</ele>
        <time>2017-03-19T09:27:28Z</time>
      </trkpt>
      <trkpt lat="45.62361" lon="4.44545">
        <ele>495.4</ele>
        <time>2017-03-19T09:27:29Z</time>
      </trkpt>
      <trkpt lat="45.62364" lon="4.44549">
        <ele>495.5</ele>
        <time>2017-03-19T09:27:30Z</time>
      </trkpt>
      <trkpt lat="45.62366" lon="4.44552">
        <ele>495.6</ele>
        <time>2017-03-19T09:27:31Z</time>
      </trkpt>
      <trkpt lat="45.62368" lon="4.44556">
        <ele>495.8</ele>
        <time>2017-03-19T09:27:32Z</time>
      </trkpt>
      <trkpt lat="45.62371" lon="4.4456">
        <ele>495.9</ele>
        <time>2017-03-19T09:27:33Z</time>
      </trkpt>
      <trkpt lat="45.62373" lon="4.44564">
        <ele>496.1</ele>
        <time>2017-03-19T09:27:34Z</time>
      </trkpt>
      <trkpt lat="45.62375" lon="4.44568">
        <ele>496.2</ele>
        <time>2017-03-19T09:27:35Z</time>
      </trkpt>
      <trkpt lat="45.62378" lon="4.44571">
        <ele>496.4</ele>
        <time>2017-03-19T09:27:36Z</time>
      </trkpt>
      <trkpt lat="45.6238" lon="4.44574">
        <ele>496.5</ele>
        <time>2017-03-19T09:27:37Z</time>
      </trkpt>
      <trkpt lat="45.62382" lon="4.44577">
        <ele>496.6</ele>
        <time>2017-03-19T09:27:38Z</time>
      </trkpt>
      <trkpt lat="45.62384" lon="4.44581">
        <ele>496.8</ele>
        <time>2017-03-19T09:27:39Z</time>
      </trkpt>
      <trkpt lat="45.62387" lon="4.44585">
        <ele>496.9</ele>
        <time>2017-03-19T09:27:40Z</time>
      </trkpt>
      <trkpt lat="45.62389" lon="4.44588">
        <ele>497.1</ele>
        <time>2017-03-19T09:27:41Z</time>
      </trkpt>
      <trkpt lat="45.62391" lon="4.44592">
        <ele>497.2</ele>
        <time>2017-03-19T09:27:42Z</time>
      </trkpt>
      <trkpt lat="45.62392" lon="4.44596">
        <ele>497.3</ele>
        <time>2017-03-19T09:27:43Z</time>
      </trkpt>
      <trkpt lat="45.62394" lon="4.44601">
        <ele>497.5</ele>
        <time>2017-03-19T09:27:44Z</time>
      </trkpt>
      <trkpt lat="45.62396" lon="4.44605">
        <ele>497.6</ele>
        <time>2017-03-19T09:27:45Z</time>
      </trkpt>
      <trkpt lat="45.62397" lon="4.4461">
        <ele>497.8</ele>
        <time>2017-03-19T09:27:46Z</time>
      </trkpt>
      <trkpt lat="45.62399" lon="4.44614">
        <ele>498</ele>
        <time>2017-03-19T09:27:47Z</time>
      </trkpt>
      <trkpt lat="45.624" lon="4.44619">
        <ele>498.1</ele>
        <time>2017-03-19T09:27:48Z</time>
      </trkpt>
      <trkpt lat="45.62401" lon="4.44623">
        <ele>498.3</ele>
        <time>2017-03-19T09:27:49Z</time>
      </trkpt>
      <trkpt lat="45.62402" lon="4.44628">
        <ele>498.4</ele>
        <time>2017-03-19T09:27:50Z</time>
      </trkpt>
      <trkpt lat="45.62403" lon="4.44633">
        <ele>498.6</ele>
        <time>2017-03-19T09:27:51Z</time>
      </trkpt>
      <trkpt lat="45.62404" lon="4.44637">
        <ele>498.7</ele>
        <time>2017-03-19T09:27:52Z</time>
      </trkpt>
      <trkpt lat="45.62405" lon="4.44642">
        <ele>499</ele>
        <time>2017-03-19T09:27:53Z</time>
      </trkpt>
      <trkpt lat="45.62406" lon="4.44646">
        <ele>499.1</ele>
        <time>2017-03-19T09:27:54Z</time>
      </trkpt>
      <trkpt lat="45.62408" lon="4.44649">
        <ele>499.1</ele>
        <time>2017-03-19T09:27:55Z</time>
      </trkpt>
      <trkpt lat="45.62411" lon="4.44651">
        <ele>499.1</ele>
        <time>2017-03-19T09:27:56Z</time>
      </trkpt>
      <trkpt lat="45.62415" lon="4.44652">
        <ele>499.1</ele>
        <time>2017-03-19T09:27:57Z</time>
      </trkpt>
      <trkpt lat="45.62419" lon="4.44653">
        <ele>499.1</ele>
        <time>2017-03-19T09:27:58Z</time>
      </trkpt>
      <trkpt lat="45.62423" lon="4.44652">
        <ele>499.1</ele>
        <time>2017-03-19T09:27:59Z</time>
      </trkpt>
      <trkpt lat="45.62427" lon="4.44651">
        <ele>499.2</ele>
        <time>2017-03-19T09:28:00Z</time>
      </trkpt>
      <trkpt lat="45.62431" lon="4.44651">
        <ele>499.3</ele>
        <time>2017-03-19T09:28:01Z</time>
      </trkpt>
      <trkpt lat="45.62435" lon="4.4465">
        <ele>499.4</ele>
        <time>2017-03-19T09:28:02Z</time>
      </trkpt>
      <trkpt lat="45.62439" lon="4.4465">
        <ele>499.5</ele>
        <time>2017-03-19T09:28:03Z</time>
      </trkpt>
      <trkpt lat="45.62443" lon="4.4465">
        <ele>499.7</ele>
        <time>2017-03-19T09:28:04Z</time>
      </trkpt>
      <trkpt lat="45.62447" lon="4.4465">
        <ele>499.9</ele>
        <time>2017-03-19T09:28:05Z</time>
      </trkpt>
      <trkpt lat="45.62451" lon="4.4465">
        <ele>500.1</ele>
        <time>2017-03-19T09:28:06Z</time>
      </trkpt>
      <trkpt lat="45.62455" lon="4.44651">
        <ele>500.4</ele>
        <time>2017-03-19T09:28:07Z</time>
      </trkpt>
      <trkpt lat="45.62459" lon="4.44652">
        <ele>500.6</ele>
        <time>2017-03-19T09:28:08Z</time>
      </trkpt>
      <trkpt lat="45.62462" lon="4.44653">
        <ele>500.8</ele>
        <time>2017-03-19T09:28:09Z</time>
      </trkpt>
      <trkpt lat="45.62465" lon="4.44653">
        <ele>501</ele>
        <time>2017-03-19T09:28:10Z</time>
      </trkpt>
      <trkpt lat="45.62468" lon="4.44653">
        <ele>501.1</ele>
        <time>2017-03-19T09:28:11Z</time>
      </trkpt>
      <trkpt lat="45.62472" lon="4.44653">
        <ele>501.3</ele>
        <time>2017-03-19T09:28:12Z</time>
      </trkpt>
      <trkpt lat="45.62475" lon="4.44653">
        <ele>501.4</ele>
        <time>2017-03-19T09:28:13Z</time>
      </trkpt>
      <trkpt lat="45.62478" lon="4.44653">
        <ele>501.5</ele>
        <time>2017-03-19T09:28:14Z</time>
      </trkpt>
      <trkpt lat="45.62481" lon="4.44653">
        <ele>501.6</ele>
        <time>2017-03-19T09:28:15Z</time>
      </trkpt>
      <trkpt lat="45.62486" lon="4.44652">
        <ele>501.7</ele>
        <time>2017-03-19T09:28:17Z</time>
      </trkpt>
      <trkpt lat="45.62489" lon="4.44651">
        <ele>501.8</ele>
        <time>2017-03-19T09:28:18Z</time>
      </trkpt>
      <trkpt lat="45.62493" lon="4.4465">
        <ele>501.9</ele>
        <time>2017-03-19T09:28:19Z</time>
      </trkpt>
      <trkpt lat="45.62496" lon="4.44649">
        <ele>502.1</ele>
        <time>2017-03-19T09:28:20Z</time>
      </trkpt>
      <trkpt lat="45.62499" lon="4.44648">
        <ele>502.2</ele>
        <time>2017-03-19T09:28:21Z</time>
      </trkpt>
      <trkpt lat="45.62502" lon="4.44646">
        <ele>502.3</ele>
        <time>2017-03-19T09:28:22Z</time>
      </trkpt>
      <trkpt lat="45.62506" lon="4.44644">
        <ele>502.4</ele>
        <time>2017-03-19T09:28:23Z</time>
      </trkpt>
      <trkpt lat="45.62509" lon="4.44642">
        <ele>502.6</ele>
        <time>2017-03-19T09:28:24Z</time>
      </trkpt>
      <trkpt lat="45.62512" lon="4.4464">
        <ele>502.8</ele>
        <time>2017-03-19T09:28:25Z</time>
      </trkpt>
      <trkpt lat="45.62516" lon="4.44638">
        <ele>502.9</ele>
        <time>2017-03-19T09:28:26Z</time>
      </trkpt>
      <trkpt lat="45.62519" lon="4.44636">
        <ele>503.1</ele>
        <time>2017-03-19T09:28:27Z</time>
      </trkpt>
      <trkpt lat="45.62522" lon="4.44634">
        <ele>503.2</ele>
        <time>2017-03-19T09:28:28Z</time>
      </trkpt>
      <trkpt lat="45.62525" lon="4.44633">
        <ele>503.4</ele>
        <time>2017-03-19T09:28:29Z</time>
      </trkpt>
      <trkpt lat="45.62528" lon="4.44633">
        <ele>503.5</ele>
        <time>2017-03-19T09:28:30Z</time>
      </trkpt>
      <trkpt lat="45.62532" lon="4.44633">
        <ele>503.7</ele>
        <time>2017-03-19T09:28:31Z</time>
      </trkpt>
      <trkpt lat="45.62534" lon="4.44634">
        <ele>503.8</ele>
        <time>2017-03-19T09:28:32Z</time>
      </trkpt>
      <trkpt lat="45.62539" lon="4.44636">
        <ele>504.2</ele>
        <time>2017-03-19T09:28:34Z</time>
      </trkpt>
      <trkpt lat="45.62543" lon="4.44637">
        <ele>504.4</ele>
        <time>2017-03-19T09:28:35Z</time>
      </trkpt>
      <trkpt lat="45.62547" lon="4.44639">
        <ele>504.6</ele>
        <time>2017-03-19T09:28:36Z</time>
      </trkpt>
      <trkpt lat="45.6255" lon="4.4464">
        <ele>504.8</ele>
        <time>2017-03-19T09:28:37Z</time>
      </trkpt>
      <trkpt lat="45.62554" lon="4.44642">
        <ele>505.1</ele>
        <time>2017-03-19T09:28:38Z</time>
      </trkpt>
      <trkpt lat="45.62557" lon="4.44644">
        <ele>505.3</ele>
        <time>2017-03-19T09:28:39Z</time>
      </trkpt>
      <trkpt lat="45.62559" lon="4.44647">
        <ele>505.5</ele>
        <time>2017-03-19T09:28:40Z</time>
      </trkpt>
      <trkpt lat="45.62562" lon="4.4465">
        <ele>505.7</ele>
        <time>2017-03-19T09:28:41Z</time>
      </trkpt>
      <trkpt lat="45.62565" lon="4.44652">
        <ele>506</ele>
        <time>2017-03-19T09:28:42Z</time>
      </trkpt>
      <trkpt lat="45.62569" lon="4.44654">
        <ele>506.3</ele>
        <time>2017-03-19T09:28:43Z</time>
      </trkpt>
      <trkpt lat="45.62573" lon="4.44657">
        <ele>506.6</ele>
        <time>2017-03-19T09:28:44Z</time>
      </trkpt>
      <trkpt lat="45.62576" lon="4.4466">
        <ele>506.8</ele>
        <time>2017-03-19T09:28:45Z</time>
      </trkpt>
      <trkpt lat="45.62579" lon="4.44663">
        <ele>507.1</ele>
        <time>2017-03-19T09:28:46Z</time>
      </trkpt>
      <trkpt lat="45.62581" lon="4.44666">
        <ele>507.3</ele>
        <time>2017-03-19T09:28:47Z</time>
      </trkpt>
      <trkpt lat="45.62583" lon="4.4467">
        <ele>507.5</ele>
        <time>2017-03-19T09:28:48Z</time>
      </trkpt>
      <trkpt lat="45.62585" lon="4.44674">
        <ele>507.7</ele>
        <time>2017-03-19T09:28:49Z</time>
      </trkpt>
      <trkpt lat="45.62586" lon="4.44678">
        <ele>507.8</ele>
        <time>2017-03-19T09:28:50Z</time>
      </trkpt>
      <trkpt lat="45.62589" lon="4.44682">
        <ele>508</ele>
        <time>2017-03-19T09:28:51Z</time>
      </trkpt>
      <trkpt lat="45.62591" lon="4.44687">
        <ele>508.3</ele>
        <time>2017-03-19T09:28:52Z</time>
      </trkpt>
      <trkpt lat="45.62593" lon="4.44692">
        <ele>508.6</ele>
        <time>2017-03-19T09:28:53Z</time>
      </trkpt>
      <trkpt lat="45.62596" lon="4.44696">
        <ele>509</ele>
        <time>2017-03-19T09:28:54Z</time>
      </trkpt>
      <trkpt lat="45.626" lon="4.447">
        <ele>509.4</ele>
        <time>2017-03-19T09:28:55Z</time>
      </trkpt>
      <trkpt lat="45.62603" lon="4.44704">
        <ele>509.7</ele>
        <time>2017-03-19T09:28:56Z</time>
      </trkpt>
      <trkpt lat="45.62606" lon="4.44707">
        <ele>509.9</ele>
        <time>2017-03-19T09:28:57Z</time>
      </trkpt>
      <trkpt lat="45.6261" lon="4.44709">
        <ele>510.1</ele>
        <time>2017-03-19T09:28:58Z</time>
      </trkpt>
      <trkpt lat="45.62613" lon="4.44711">
        <ele>510.3</ele>
        <time>2017-03-19T09:28:59Z</time>
      </trkpt>
      <trkpt lat="45.62617" lon="4.44714">
        <ele>510.4</ele>
        <time>2017-03-19T09:29:00Z</time>
      </trkpt>
      <trkpt lat="45.6262" lon="4.44717">
        <ele>510.7</ele>
        <time>2017-03-19T09:29:01Z</time>
      </trkpt>
      <trkpt lat="45.62623" lon="4.4472">
        <ele>510.9</ele>
        <time>2017-03-19T09:29:02Z</time>
      </trkpt>
      <trkpt lat="45.62625" lon="4.44724">
        <ele>511.1</ele>
        <time>2017-03-19T09:29:03Z</time>
      </trkpt>
      <trkpt lat="45.62627" lon="4.44727">
        <ele>511.3</ele>
        <time>2017-03-19T09:29:04Z</time>
      </trkpt>
      <trkpt lat="45.62629" lon="4.44731">
        <ele>511.5</ele>
        <time>2017-03-19T09:29:05Z</time>
      </trkpt>
      <trkpt lat="45.6263" lon="4.44735">
        <ele>511.6</ele>
        <time>2017-03-19T09:29:06Z</time>
      </trkpt>
      <trkpt lat="45.62632" lon="4.44739">
        <ele>511.8</ele>
        <time>2017-03-19T09:29:07Z</time>
      </trkpt>
      <trkpt lat="45.62634" lon="4.44744">
        <ele>511.9</ele>
        <time>2017-03-19T09:29:08Z</time>
      </trkpt>
      <trkpt lat="45.62636" lon="4.44749">
        <ele>512.2</ele>
        <time>2017-03-19T09:29:09Z</time>
      </trkpt>
      <trkpt lat="45.62639" lon="4.44753">
        <ele>512.3</ele>
        <time>2017-03-19T09:29:10Z</time>
      </trkpt>
      <trkpt lat="45.62641" lon="4.44756">
        <ele>512.3</ele>
        <time>2017-03-19T09:29:11Z</time>
      </trkpt>
      <trkpt lat="45.62644" lon="4.44759">
        <ele>512.3</ele>
        <time>2017-03-19T09:29:12Z</time>
      </trkpt>
      <trkpt lat="45.62646" lon="4.44762">
        <ele>512.5</ele>
        <time>2017-03-19T09:29:13Z</time>
      </trkpt>
      <trkpt lat="45.62649" lon="4.44766">
        <ele>512.6</ele>
        <time>2017-03-19T09:29:14Z</time>
      </trkpt>
      <trkpt lat="45.62651" lon="4.44769">
        <ele>512.9</ele>
        <time>2017-03-19T09:29:15Z</time>
      </trkpt>
      <trkpt lat="45.62653" lon="4.44772">
        <ele>513.1</ele>
        <time>2017-03-19T09:29:16Z</time>
      </trkpt>
      <trkpt lat="45.62656" lon="4.44778">
        <ele>513.7</ele>
        <time>2017-03-19T09:29:18Z</time>
      </trkpt>
      <trkpt lat="45.62658" lon="4.44781">
        <ele>514.1</ele>
        <time>2017-03-19T09:29:19Z</time>
      </trkpt>
      <trkpt lat="45.6266" lon="4.44785">
        <ele>514.2</ele>
        <time>2017-03-19T09:29:20Z</time>
      </trkpt>
      <trkpt lat="45.62664" lon="4.44791">
        <ele>514.4</ele>
        <time>2017-03-19T09:29:22Z</time>
      </trkpt>
      <trkpt lat="45.62666" lon="4.44794">
        <ele>514.5</ele>
        <time>2017-03-19T09:29:23Z</time>
      </trkpt>
      <trkpt lat="45.62668" lon="4.44797">
        <ele>514.6</ele>
        <time>2017-03-19T09:29:24Z</time>
      </trkpt>
      <trkpt lat="45.62673" lon="4.44801">
        <ele>514.9</ele>
        <time>2017-03-19T09:29:26Z</time>
      </trkpt>
      <trkpt lat="45.62676" lon="4.44803">
        <ele>515.2</ele>
        <time>2017-03-19T09:29:27Z</time>
      </trkpt>
      <trkpt lat="45.62678" lon="4.44806">
        <ele>515.3</ele>
        <time>2017-03-19T09:29:28Z</time>
      </trkpt>
      <trkpt lat="45.62683" lon="4.44811">
        <ele>515.5</ele>
        <time>2017-03-19T09:29:30Z</time>
      </trkpt>
      <trkpt lat="45.62685" lon="4.44814">
        <ele>515.6</ele>
        <time>2017-03-19T09:29:31Z</time>
      </trkpt>
      <trkpt lat="45.6269" lon="4.44816">
        <ele>515.8</ele>
        <time>2017-03-19T09:29:32Z</time>
      </trkpt>
      <trkpt lat="45.62694" lon="4.44817">
        <ele>515.9</ele>
        <time>2017-03-19T09:29:33Z</time>
      </trkpt>
      <trkpt lat="45.62699" lon="4.44817">
        <ele>516.1</ele>
        <time>2017-03-19T09:29:34Z</time>
      </trkpt>
      <trkpt lat="45.62703" lon="4.44819">
        <ele>516.2</ele>
        <time>2017-03-19T09:29:35Z</time>
      </trkpt>
      <trkpt lat="45.62708" lon="4.44821">
        <ele>516.4</ele>
        <time>2017-03-19T09:29:36Z</time>
      </trkpt>
      <trkpt lat="45.62713" lon="4.44824">
        <ele>516.7</ele>
        <time>2017-03-19T09:29:37Z</time>
      </trkpt>
      <trkpt lat="45.62718" lon="4.44825">
        <ele>517</ele>
        <time>2017-03-19T09:29:38Z</time>
      </trkpt>
      <trkpt lat="45.62723" lon="4.44826">
        <ele>517.3</ele>
        <time>2017-03-19T09:29:39Z</time>
      </trkpt>
      <trkpt lat="45.62726" lon="4.44827">
        <ele>517.4</ele>
        <time>2017-03-19T09:29:40Z</time>
      </trkpt>
      <trkpt lat="45.6273" lon="4.44827">
        <ele>517.7</ele>
        <time>2017-03-19T09:29:41Z</time>
      </trkpt>
      <trkpt lat="45.62734" lon="4.44828">
        <ele>517.9</ele>
        <time>2017-03-19T09:29:42Z</time>
      </trkpt>
      <trkpt lat="45.62737" lon="4.44827">
        <ele>518.1</ele>
        <time>2017-03-19T09:29:43Z</time>
      </trkpt>
      <trkpt lat="45.6274" lon="4.44827">
        <ele>518.2</ele>
        <time>2017-03-19T09:29:44Z</time>
      </trkpt>
      <trkpt lat="45.62744" lon="4.44827">
        <ele>518.4</ele>
        <time>2017-03-19T09:29:45Z</time>
      </trkpt>
      <trkpt lat="45.62748" lon="4.44827">
        <ele>518.7</ele>
        <time>2017-03-19T09:29:46Z</time>
      </trkpt>
      <trkpt lat="45.62753" lon="4.44828">
        <ele>518.8</ele>
        <time>2017-03-19T09:29:47Z</time>
      </trkpt>
      <trkpt lat="45.62756" lon="4.44827">
        <ele>519</ele>
        <time>2017-03-19T09:29:48Z</time>
      </trkpt>
      <trkpt lat="45.6276" lon="4.44826">
        <ele>519.2</ele>
        <time>2017-03-19T09:29:49Z</time>
      </trkpt>
      <trkpt lat="45.62764" lon="4.44824">
        <ele>519.3</ele>
        <time>2017-03-19T09:29:50Z</time>
      </trkpt>
      <trkpt lat="45.62768" lon="4.44821">
        <ele>519.5</ele>
        <time>2017-03-19T09:29:51Z</time>
      </trkpt>
      <trkpt lat="45.62772" lon="4.44818">
        <ele>519.6</ele>
        <time>2017-03-19T09:29:52Z</time>
      </trkpt>
      <trkpt lat="45.62776" lon="4.44815">
        <ele>519.8</ele>
        <time>2017-03-19T09:29:53Z</time>
      </trkpt>
      <trkpt lat="45.6278" lon="4.44813">
        <ele>519.9</ele>
        <time>2017-03-19T09:29:54Z</time>
      </trkpt>
      <trkpt lat="45.62784" lon="4.44812">
        <ele>520</ele>
        <time>2017-03-19T09:29:55Z</time>
      </trkpt>
      <trkpt lat="45.62786" lon="4.44811">
        <ele>520.1</ele>
        <time>2017-03-19T09:29:56Z</time>
      </trkpt>
      <trkpt lat="45.62789" lon="4.4481">
        <ele>520.1</ele>
        <time>2017-03-19T09:29:58Z</time>
      </trkpt>
      <trkpt lat="45.62792" lon="4.44808">
        <ele>520.2</ele>
        <time>2017-03-19T09:30:01Z</time>
      </trkpt>
      <trkpt lat="45.62795" lon="4.44807">
        <ele>520.3</ele>
        <time>2017-03-19T09:30:03Z</time>
      </trkpt>
      <trkpt lat="45.62797" lon="4.44803">
        <ele>520.5</ele>
        <time>2017-03-19T09:30:06Z</time>
      </trkpt>
      <trkpt lat="45.628" lon="4.44798">
        <ele>520.6</ele>
        <time>2017-03-19T09:30:08Z</time>
      </trkpt>
      <trkpt lat="45.62804" lon="4.44794">
        <ele>520.8</ele>
        <time>2017-03-19T09:30:10Z</time>
      </trkpt>
      <trkpt lat="45.62807" lon="4.44791">
        <ele>520.9</ele>
        <time>2017-03-19T09:30:11Z</time>
      </trkpt>
      <trkpt lat="45.62812" lon="4.44789">
        <ele>521.1</ele>
        <time>2017-03-19T09:30:13Z</time>
      </trkpt>
      <trkpt lat="45.62814" lon="4.44789">
        <ele>521.2</ele>
        <time>2017-03-19T09:30:14Z</time>
      </trkpt>
      <trkpt lat="45.62817" lon="4.44791">
        <ele>521.4</ele>
        <time>2017-03-19T09:30:15Z</time>
      </trkpt>
      <trkpt lat="45.6282" lon="4.44793">
        <ele>521.6</ele>
        <time>2017-03-19T09:30:16Z</time>
      </trkpt>
      <trkpt lat="45.62823" lon="4.44796">
        <ele>521.8</ele>
        <time>2017-03-19T09:30:17Z</time>
      </trkpt>
      <trkpt lat="45.62826" lon="4.44799">
        <ele>522.1</ele>
        <time>2017-03-19T09:30:18Z</time>
      </trkpt>
      <trkpt lat="45.62829" lon="4.44803">
        <ele>522.5</ele>
        <time>2017-03-19T09:30:19Z</time>
      </trkpt>
      <trkpt lat="45.62832" lon="4.44806">
        <ele>522.8</ele>
        <time>2017-03-19T09:30:20Z</time>
      </trkpt>
      <trkpt lat="45.62834" lon="4.4481">
        <ele>523.1</ele>
        <time>2017-03-19T09:30:21Z</time>
      </trkpt>
      <trkpt lat="45.62836" lon="4.44813">
        <ele>523.4</ele>
        <time>2017-03-19T09:30:22Z</time>
      </trkpt>
      <trkpt lat="45.62837" lon="4.44817">
        <ele>523.7</ele>
        <time>2017-03-19T09:30:23Z</time>
      </trkpt>
      <trkpt lat="45.62838" lon="4.44822">
        <ele>524</ele>
        <time>2017-03-19T09:30:25Z</time>
      </trkpt>
      <trkpt lat="45.62841" lon="4.44826">
        <ele>524.4</ele>
        <time>2017-03-19T09:30:27Z</time>
      </trkpt>
      <trkpt lat="45.62844" lon="4.4483">
        <ele>524.8</ele>
        <time>2017-03-19T09:30:29Z</time>
      </trkpt>
      <trkpt lat="45.62846" lon="4.44834">
        <ele>525.1</ele>
        <time>2017-03-19T09:30:30Z</time>
      </trkpt>
      <trkpt lat="45.62849" lon="4.44839">
        <ele>525.5</ele>
        <time>2017-03-19T09:30:32Z</time>
      </trkpt>
      <trkpt lat="45.62851" lon="4.44845">
        <ele>526</ele>
        <time>2017-03-19T09:30:34Z</time>
      </trkpt>
      <trkpt lat="45.62853" lon="4.44852">
        <ele>526.5</ele>
        <time>2017-03-19T09:30:36Z</time>
      </trkpt>
      <trkpt lat="45.62853" lon="4.44856">
        <ele>526.9</ele>
        <time>2017-03-19T09:30:37Z</time>
      </trkpt>
      <trkpt lat="45.62854" lon="4.4486">
        <ele>527.1</ele>
        <time>2017-03-19T09:30:38Z</time>
      </trkpt>
      <trkpt lat="45.62855" lon="4.44864">
        <ele>527.4</ele>
        <time>2017-03-19T09:30:39Z</time>
      </trkpt>
      <trkpt lat="45.62856" lon="4.44872">
        <ele>527.7</ele>
        <time>2017-03-19T09:30:41Z</time>
      </trkpt>
      <trkpt lat="45.62856" lon="4.44876">
        <ele>527.9</ele>
        <time>2017-03-19T09:30:42Z</time>
      </trkpt>
      <trkpt lat="45.62856" lon="4.4488">
        <ele>528.1</ele>
        <time>2017-03-19T09:30:43Z</time>
      </trkpt>
      <trkpt lat="45.62856" lon="4.44887">
        <ele>528.4</ele>
        <time>2017-03-19T09:30:45Z</time>
      </trkpt>
      <trkpt lat="45.62856" lon="4.44894">
        <ele>528.8</ele>
        <time>2017-03-19T09:30:47Z</time>
      </trkpt>
      <trkpt lat="45.62857" lon="4.44898">
        <ele>529</ele>
        <time>2017-03-19T09:30:48Z</time>
      </trkpt>
      <trkpt lat="45.62859" lon="4.44903">
        <ele>529.2</ele>
        <time>2017-03-19T09:30:49Z</time>
      </trkpt>
      <trkpt lat="45.62861" lon="4.44907">
        <ele>529.4</ele>
        <time>2017-03-19T09:30:50Z</time>
      </trkpt>
      <trkpt lat="45.62862" lon="4.44912">
        <ele>529.7</ele>
        <time>2017-03-19T09:30:51Z</time>
      </trkpt>
      <trkpt lat="45.62864" lon="4.44917">
        <ele>529.9</ele>
        <time>2017-03-19T09:30:52Z</time>
      </trkpt>
      <trkpt lat="45.62865" lon="4.44922">
        <ele>530.2</ele>
        <time>2017-03-19T09:30:53Z</time>
      </trkpt>
      <trkpt lat="45.62866" lon="4.44926">
        <ele>530.5</ele>
        <time>2017-03-19T09:30:54Z</time>
      </trkpt>
      <trkpt lat="45.62867" lon="4.44931">
        <ele>530.7</ele>
        <time>2017-03-19T09:30:55Z</time>
      </trkpt>
      <trkpt lat="45.62867" lon="4.44935">
        <ele>531</ele>
        <time>2017-03-19T09:30:56Z</time>
      </trkpt>
      <trkpt lat="45.62866" lon="4.4494">
        <ele>531.3</ele>
        <time>2017-03-19T09:30:57Z</time>
      </trkpt>
      <trkpt lat="45.62864" lon="4.44944">
        <ele>531.6</ele>
        <time>2017-03-19T09:30:58Z</time>
      </trkpt>
      <trkpt lat="45.62863" lon="4.44948">
        <ele>531.9</ele>
        <time>2017-03-19T09:30:59Z</time>
      </trkpt>
      <trkpt lat="45.62864" lon="4.44953">
        <ele>532.3</ele>
        <time>2017-03-19T09:31:00Z</time>
      </trkpt>
      <trkpt lat="45.62864" lon="4.44959">
        <ele>532.7</ele>
        <time>2017-03-19T09:31:01Z</time>
      </trkpt>
      <trkpt lat="45.62865" lon="4.44964">
        <ele>533.2</ele>
        <time>2017-03-19T09:31:02Z</time>
      </trkpt>
      <trkpt lat="45.62867" lon="4.44969">
        <ele>533.6</ele>
        <time>2017-03-19T09:31:03Z</time>
      </trkpt>
      <trkpt lat="45.62868" lon="4.44975">
        <ele>533.9</ele>
        <time>2017-03-19T09:31:04Z</time>
      </trkpt>
      <trkpt lat="45.6287" lon="4.4498">
        <ele>534.3</ele>
        <time>2017-03-19T09:31:05Z</time>
      </trkpt>
      <trkpt lat="45.62871" lon="4.44985">
        <ele>534.8</ele>
        <time>2017-03-19T09:31:06Z</time>
      </trkpt>
      <trkpt lat="45.62873" lon="4.4499">
        <ele>535</ele>
        <time>2017-03-19T09:31:07Z</time>
      </trkpt>
      <trkpt lat="45.62875" lon="4.44995">
        <ele>535.1</ele>
        <time>2017-03-19T09:31:08Z</time>
      </trkpt>
      <trkpt lat="45.62876" lon="4.45">
        <ele>535.3</ele>
        <time>2017-03-19T09:31:09Z</time>
      </trkpt>
      <trkpt lat="45.62878" lon="4.45005">
        <ele>535.4</ele>
        <time>2017-03-19T09:31:10Z</time>
      </trkpt>
      <trkpt lat="45.6288" lon="4.4501">
        <ele>535.8</ele>
        <time>2017-03-19T09:31:11Z</time>
      </trkpt>
      <trkpt lat="45.62882" lon="4.45016">
        <ele>536</ele>
        <time>2017-03-19T09:31:12Z</time>
      </trkpt>
      <trkpt lat="45.62885" lon="4.45021">
        <ele>536.3</ele>
        <time>2017-03-19T09:31:13Z</time>
      </trkpt>
      <trkpt lat="45.62887" lon="4.45025">
        <ele>536.5</ele>
        <time>2017-03-19T09:31:14Z</time>
      </trkpt>
      <trkpt lat="45.6289" lon="4.4503">
        <ele>536.7</ele>
        <time>2017-03-19T09:31:15Z</time>
      </trkpt>
      <trkpt lat="45.62893" lon="4.45033">
        <ele>536.9</ele>
        <time>2017-03-19T09:31:16Z</time>
      </trkpt>
      <trkpt lat="45.62895" lon="4.45036">
        <ele>536.9</ele>
        <time>2017-03-19T09:31:17Z</time>
      </trkpt>
      <trkpt lat="45.62898" lon="4.4504">
        <ele>537</ele>
        <time>2017-03-19T09:31:18Z</time>
      </trkpt>
      <trkpt lat="45.62901" lon="4.45043">
        <ele>537.2</ele>
        <time>2017-03-19T09:31:19Z</time>
      </trkpt>
      <trkpt lat="45.62905" lon="4.45045">
        <ele>537.3</ele>
        <time>2017-03-19T09:31:20Z</time>
      </trkpt>
      <trkpt lat="45.62908" lon="4.45048">
        <ele>537.4</ele>
        <time>2017-03-19T09:31:21Z</time>
      </trkpt>
      <trkpt lat="45.62911" lon="4.45051">
        <ele>537.5</ele>
        <time>2017-03-19T09:31:22Z</time>
      </trkpt>
      <trkpt lat="45.62915" lon="4.45054">
        <ele>537.6</ele>
        <time>2017-03-19T09:31:23Z</time>
      </trkpt>
      <trkpt lat="45.62918" lon="4.45057">
        <ele>537.6</ele>
        <time>2017-03-19T09:31:24Z</time>
      </trkpt>
      <trkpt lat="45.62921" lon="4.45059">
        <ele>537.7</ele>
        <time>2017-03-19T09:31:25Z</time>
      </trkpt>
      <trkpt lat="45.62924" lon="4.45061">
        <ele>537.7</ele>
        <time>2017-03-19T09:31:26Z</time>
      </trkpt>
      <trkpt lat="45.62926" lon="4.45064">
        <ele>537.8</ele>
        <time>2017-03-19T09:31:27Z</time>
      </trkpt>
      <trkpt lat="45.62929" lon="4.45066">
        <ele>537.9</ele>
        <time>2017-03-19T09:31:28Z</time>
      </trkpt>
      <trkpt lat="45.62932" lon="4.45069">
        <ele>538</ele>
        <time>2017-03-19T09:31:29Z</time>
      </trkpt>
      <trkpt lat="45.62935" lon="4.45072">
        <ele>538.1</ele>
        <time>2017-03-19T09:31:30Z</time>
      </trkpt>
      <trkpt lat="45.62939" lon="4.45075">
        <ele>538.2</ele>
        <time>2017-03-19T09:31:31Z</time>
      </trkpt>
      <trkpt lat="45.62942" lon="4.45078">
        <ele>538.3</ele>
        <time>2017-03-19T09:31:32Z</time>
      </trkpt>
      <trkpt lat="45.62945" lon="4.4508">
        <ele>538.4</ele>
        <time>2017-03-19T09:31:33Z</time>
      </trkpt>
      <trkpt lat="45.62947" lon="4.45083">
        <ele>538.6</ele>
        <time>2017-03-19T09:31:34Z</time>
      </trkpt>
      <trkpt lat="45.6295" lon="4.45085">
        <ele>538.7</ele>
        <time>2017-03-19T09:31:35Z</time>
      </trkpt>
      <trkpt lat="45.62954" lon="4.45089">
        <ele>539</ele>
        <time>2017-03-19T09:31:37Z</time>
      </trkpt>
      <trkpt lat="45.62958" lon="4.45094">
        <ele>539.2</ele>
        <time>2017-03-19T09:31:39Z</time>
      </trkpt>
      <trkpt lat="45.6296" lon="4.45097">
        <ele>539.2</ele>
        <time>2017-03-19T09:31:40Z</time>
      </trkpt>
      <trkpt lat="45.62964" lon="4.45103">
        <ele>539.3</ele>
        <time>2017-03-19T09:31:42Z</time>
      </trkpt>
      <trkpt lat="45.62967" lon="4.45108">
        <ele>539.4</ele>
        <time>2017-03-19T09:31:44Z</time>
      </trkpt>
      <trkpt lat="45.62969" lon="4.45112">
        <ele>539.4</ele>
        <time>2017-03-19T09:31:45Z</time>
      </trkpt>
      <trkpt lat="45.6297" lon="4.45116">
        <ele>539.4</ele>
        <time>2017-03-19T09:31:46Z</time>
      </trkpt>
      <trkpt lat="45.62971" lon="4.45119">
        <ele>539.5</ele>
        <time>2017-03-19T09:31:47Z</time>
      </trkpt>
      <trkpt lat="45.62973" lon="4.45123">
        <ele>539.5</ele>
        <time>2017-03-19T09:31:48Z</time>
      </trkpt>
      <trkpt lat="45.62974" lon="4.45127">
        <ele>539.6</ele>
        <time>2017-03-19T09:31:49Z</time>
      </trkpt>
      <trkpt lat="45.62976" lon="4.45132">
        <ele>539.7</ele>
        <time>2017-03-19T09:31:50Z</time>
      </trkpt>
      <trkpt lat="45.62977" lon="4.45136">
        <ele>539.8</ele>
        <time>2017-03-19T09:31:51Z</time>
      </trkpt>
      <trkpt lat="45.62978" lon="4.4514">
        <ele>539.9</ele>
        <time>2017-03-19T09:31:52Z</time>
      </trkpt>
      <trkpt lat="45.62979" lon="4.45147">
        <ele>540</ele>
        <time>2017-03-19T09:31:54Z</time>
      </trkpt>
      <trkpt lat="45.6298" lon="4.45151">
        <ele>540.1</ele>
        <time>2017-03-19T09:31:55Z</time>
      </trkpt>
      <trkpt lat="45.62981" lon="4.45155">
        <ele>540.2</ele>
        <time>2017-03-19T09:31:56Z</time>
      </trkpt>
      <trkpt lat="45.62984" lon="4.45162">
        <ele>540.4</ele>
        <time>2017-03-19T09:31:58Z</time>
      </trkpt>
      <trkpt lat="45.62987" lon="4.45167">
        <ele>540.6</ele>
        <time>2017-03-19T09:31:59Z</time>
      </trkpt>
      <trkpt lat="45.6299" lon="4.45171">
        <ele>540.9</ele>
        <time>2017-03-19T09:32:00Z</time>
      </trkpt>
      <trkpt lat="45.62993" lon="4.45174">
        <ele>541.2</ele>
        <time>2017-03-19T09:32:01Z</time>
      </trkpt>
      <trkpt lat="45.62995" lon="4.45176">
        <ele>541.4</ele>
        <time>2017-03-19T09:32:02Z</time>
      </trkpt>
      <trkpt lat="45.62999" lon="4.4518">
        <ele>541.7</ele>
        <time>2017-03-19T09:32:03Z</time>
      </trkpt>
      <trkpt lat="45.63002" lon="4.45185">
        <ele>541.9</ele>
        <time>2017-03-19T09:32:04Z</time>
      </trkpt>
      <trkpt lat="45.63006" lon="4.45189">
        <ele>542.2</ele>
        <time>2017-03-19T09:32:05Z</time>
      </trkpt>
      <trkpt lat="45.63009" lon="4.45192">
        <ele>542.3</ele>
        <time>2017-03-19T09:32:06Z</time>
      </trkpt>
      <trkpt lat="45.63012" lon="4.45195">
        <ele>542.4</ele>
        <time>2017-03-19T09:32:07Z</time>
      </trkpt>
      <trkpt lat="45.63015" lon="4.45198">
        <ele>542.5</ele>
        <time>2017-03-19T09:32:08Z</time>
      </trkpt>
      <trkpt lat="45.63019" lon="4.45201">
        <ele>542.7</ele>
        <time>2017-03-19T09:32:09Z</time>
      </trkpt>
      <trkpt lat="45.63023" lon="4.45205">
        <ele>542.9</ele>
        <time>2017-03-19T09:32:10Z</time>
      </trkpt>
      <trkpt lat="45.63026" lon="4.45209">
        <ele>543.1</ele>
        <time>2017-03-19T09:32:11Z</time>
      </trkpt>
      <trkpt lat="45.63029" lon="4.45214">
        <ele>543.3</ele>
        <time>2017-03-19T09:32:12Z</time>
      </trkpt>
      <trkpt lat="45.63032" lon="4.45217">
        <ele>543.5</ele>
        <time>2017-03-19T09:32:13Z</time>
      </trkpt>
      <trkpt lat="45.63035" lon="4.4522">
        <ele>543.7</ele>
        <time>2017-03-19T09:32:14Z</time>
      </trkpt>
      <trkpt lat="45.63037" lon="4.45223">
        <ele>544</ele>
        <time>2017-03-19T09:32:15Z</time>
      </trkpt>
      <trkpt lat="45.63039" lon="4.45226">
        <ele>544.2</ele>
        <time>2017-03-19T09:32:16Z</time>
      </trkpt>
      <trkpt lat="45.63043" lon="4.4523">
        <ele>544.8</ele>
        <time>2017-03-19T09:32:18Z</time>
      </trkpt>
      <trkpt lat="45.63047" lon="4.45233">
        <ele>545.2</ele>
        <time>2017-03-19T09:32:20Z</time>
      </trkpt>
      <trkpt lat="45.6305" lon="4.45236">
        <ele>545.7</ele>
        <time>2017-03-19T09:32:22Z</time>
      </trkpt>
      <trkpt lat="45.63051" lon="4.4524">
        <ele>546.1</ele>
        <time>2017-03-19T09:32:24Z</time>
      </trkpt>
      <trkpt lat="45.63054" lon="4.45243">
        <ele>546.6</ele>
        <time>2017-03-19T09:32:26Z</time>
      </trkpt>
      <trkpt lat="45.63058" lon="4.45245">
        <ele>547</ele>
        <time>2017-03-19T09:32:28Z</time>
      </trkpt>
      <trkpt lat="45.63062" lon="4.45247">
        <ele>547.5</ele>
        <time>2017-03-19T09:32:30Z</time>
      </trkpt>
      <trkpt lat="45.63066" lon="4.45249">
        <ele>547.8</ele>
        <time>2017-03-19T09:32:32Z</time>
      </trkpt>
      <trkpt lat="45.6307" lon="4.45252">
        <ele>548.1</ele>
        <time>2017-03-19T09:32:34Z</time>
      </trkpt>
      <trkpt lat="45.63074" lon="4.45254">
        <ele>548.5</ele>
        <time>2017-03-19T09:32:36Z</time>
      </trkpt>
      <trkpt lat="45.63079" lon="4.45255">
        <ele>549</ele>
        <time>2017-03-19T09:32:38Z</time>
      </trkpt>
      <trkpt lat="45.63083" lon="4.45257">
        <ele>549.6</ele>
        <time>2017-03-19T09:32:40Z</time>
      </trkpt>
      <trkpt lat="45.63087" lon="4.4526">
        <ele>550.3</ele>
        <time>2017-03-19T09:32:42Z</time>
      </trkpt>
      <trkpt lat="45.6309" lon="4.45263">
        <ele>550.8</ele>
        <time>2017-03-19T09:32:44Z</time>
      </trkpt>
      <trkpt lat="45.63092" lon="4.45267">
        <ele>551.2</ele>
        <time>2017-03-19T09:32:46Z</time>
      </trkpt>
      <trkpt lat="45.63095" lon="4.4527">
        <ele>551.8</ele>
        <time>2017-03-19T09:32:48Z</time>
      </trkpt>
      <trkpt lat="45.63098" lon="4.45273">
        <ele>552.5</ele>
        <time>2017-03-19T09:32:50Z</time>
      </trkpt>
      <trkpt lat="45.63102" lon="4.45276">
        <ele>552.8</ele>
        <time>2017-03-19T09:32:52Z</time>
      </trkpt>
      <trkpt lat="45.63107" lon="4.45279">
        <ele>553.5</ele>
        <time>2017-03-19T09:32:54Z</time>
      </trkpt>
      <trkpt lat="45.6311" lon="4.45282">
        <ele>554.2</ele>
        <time>2017-03-19T09:32:56Z</time>
      </trkpt>
      <trkpt lat="45.63114" lon="4.45284">
        <ele>554.6</ele>
        <time>2017-03-19T09:32:58Z</time>
      </trkpt>
      <trkpt lat="45.63117" lon="4.45284">
        <ele>555</ele>
        <time>2017-03-19T09:33:00Z</time>
      </trkpt>
      <trkpt lat="45.63117" lon="4.45288">
        <ele>555.1</ele>
        <time>2017-03-19T09:33:03Z</time>
      </trkpt>
      <trkpt lat="45.63115" lon="4.45294">
        <ele>556.1</ele>
        <time>2017-03-19T09:33:05Z</time>
      </trkpt>
      <trkpt lat="45.63111" lon="4.45298">
        <ele>557.2</ele>
        <time>2017-03-19T09:33:07Z</time>
      </trkpt>
      <trkpt lat="45.63109" lon="4.45302">
        <ele>558</ele>
        <time>2017-03-19T09:33:09Z</time>
      </trkpt>
      <trkpt lat="45.63105" lon="4.45306">
        <ele>559</ele>
        <time>2017-03-19T09:33:11Z</time>
      </trkpt>
      <trkpt lat="45.63102" lon="4.4531">
        <ele>559.7</ele>
        <time>2017-03-19T09:33:13Z</time>
      </trkpt>
      <trkpt lat="45.63099" lon="4.45314">
        <ele>560.5</ele>
        <time>2017-03-19T09:33:15Z</time>
      </trkpt>
      <trkpt lat="45.63095" lon="4.45318">
        <ele>561.3</ele>
        <time>2017-03-19T09:33:17Z</time>
      </trkpt>
      <trkpt lat="45.63092" lon="4.45322">
        <ele>562</ele>
        <time>2017-03-19T09:33:19Z</time>
      </trkpt>
      <trkpt lat="45.6309" lon="4.45326">
        <ele>562.7</ele>
        <time>2017-03-19T09:33:21Z</time>
      </trkpt>
      <trkpt lat="45.63087" lon="4.4533">
        <ele>563.4</ele>
        <time>2017-03-19T09:33:23Z</time>
      </trkpt>
      <trkpt lat="45.63085" lon="4.45334">
        <ele>564.3</ele>
        <time>2017-03-19T09:33:25Z</time>
      </trkpt>
      <trkpt lat="45.63084" lon="4.45338">
        <ele>564.9</ele>
        <time>2017-03-19T09:33:27Z</time>
      </trkpt>
      <trkpt lat="45.63082" lon="4.45341">
        <ele>565.6</ele>
        <time>2017-03-19T09:33:29Z</time>
      </trkpt>
      <trkpt lat="45.63079" lon="4.45345">
        <ele>566.2</ele>
        <time>2017-03-19T09:33:31Z</time>
      </trkpt>
      <trkpt lat="45.63077" lon="4.45349">
        <ele>566.9</ele>
        <time>2017-03-19T09:33:33Z</time>
      </trkpt>
      <trkpt lat="45.63075" lon="4.45353">
        <ele>567.4</ele>
        <time>2017-03-19T09:33:35Z</time>
      </trkpt>
      <trkpt lat="45.63074" lon="4.45358">
        <ele>568</ele>
        <time>2017-03-19T09:33:37Z</time>
      </trkpt>
      <trkpt lat="45.63075" lon="4.45362">
        <ele>568</ele>
        <time>2017-03-19T09:33:39Z</time>
      </trkpt>
      <trkpt lat="45.63077" lon="4.45366">
        <ele>568</ele>
        <time>2017-03-19T09:33:42Z</time>
      </trkpt>
      <trkpt lat="45.6308" lon="4.45369">
        <ele>568</ele>
        <time>2017-03-19T09:33:45Z</time>
      </trkpt>
      <trkpt lat="45.63085" lon="4.45367">
        <ele>568</ele>
        <time>2017-03-19T09:33:47Z</time>
      </trkpt>
      <trkpt lat="45.63087" lon="4.45364">
        <ele>568</ele>
        <time>2017-03-19T09:33:48Z</time>
      </trkpt>
      <trkpt lat="45.63089" lon="4.4536">
        <ele>568</ele>
        <time>2017-03-19T09:33:49Z</time>
      </trkpt>
      <trkpt lat="45.63091" lon="4.45355">
        <ele>568</ele>
        <time>2017-03-19T09:33:50Z</time>
      </trkpt>
      <trkpt lat="45.63093" lon="4.45351">
        <ele>568</ele>
        <time>2017-03-19T09:33:51Z</time>
      </trkpt>
      <trkpt lat="45.63096" lon="4.45348">
        <ele>568</ele>
        <time>2017-03-19T09:33:52Z</time>
      </trkpt>
      <trkpt lat="45.63099" lon="4.45346">
        <ele>568</ele>
        <time>2017-03-19T09:33:53Z</time>
      </trkpt>
      <trkpt lat="45.63102" lon="4.45344">
        <ele>568</ele>
        <time>2017-03-19T09:33:54Z</time>
      </trkpt>
      <trkpt lat="45.63105" lon="4.45344">
        <ele>568</ele>
        <time>2017-03-19T09:33:55Z</time>
      </trkpt>
      <trkpt lat="45.63108" lon="4.45343">
        <ele>568</ele>
        <time>2017-03-19T09:33:56Z</time>
      </trkpt>
      <trkpt lat="45.63112" lon="4.45342">
        <ele>568</ele>
        <time>2017-03-19T09:33:57Z</time>
      </trkpt>
      <trkpt lat="45.63115" lon="4.45342">
        <ele>568</ele>
        <time>2017-03-19T09:33:58Z</time>
      </trkpt>
      <trkpt lat="45.63118" lon="4.45341">
        <ele>568</ele>
        <time>2017-03-19T09:33:59Z</time>
      </trkpt>
      <trkpt lat="45.63121" lon="4.4534">
        <ele>568</ele>
        <time>2017-03-19T09:34:00Z</time>
      </trkpt>
      <trkpt lat="45.63124" lon="4.4534">
        <ele>568</ele>
        <time>2017-03-19T09:34:01Z</time>
      </trkpt>
      <trkpt lat="45.63128" lon="4.4534">
        <ele>568</ele>
        <time>2017-03-19T09:34:03Z</time>
      </trkpt>
      <trkpt lat="45.63127" lon="4.45335">
        <ele>568</ele>
        <time>2017-03-19T09:34:05Z</time>
      </trkpt>
      <trkpt lat="45.63123" lon="4.45334">
        <ele>568</ele>
        <time>2017-03-19T09:34:06Z</time>
      </trkpt>
      <trkpt lat="45.6312" lon="4.45336">
        <ele>568.2</ele>
        <time>2017-03-19T09:34:07Z</time>
      </trkpt>
      <trkpt lat="45.63116" lon="4.45338">
        <ele>568.4</ele>
        <time>2017-03-19T09:34:08Z</time>
      </trkpt>
      <trkpt lat="45.63114" lon="4.45343">
        <ele>568.6</ele>
        <time>2017-03-19T09:34:09Z</time>
      </trkpt>
      <trkpt lat="45.63114" lon="4.45349">
        <ele>568.9</ele>
        <time>2017-03-19T09:34:10Z</time>
      </trkpt>
      <trkpt lat="45.63114" lon="4.45356">
        <ele>569.3</ele>
        <time>2017-03-19T09:34:11Z</time>
      </trkpt>
      <trkpt lat="45.63115" lon="4.45362">
        <ele>569.7</ele>
        <time>2017-03-19T09:34:12Z</time>
      </trkpt>
      <trkpt lat="45.63116" lon="4.45367">
        <ele>570</ele>
        <time>2017-03-19T09:34:13Z</time>
      </trkpt>
      <trkpt lat="45.63116" lon="4.45371">
        <ele>570.2</ele>
        <time>2017-03-19T09:34:14Z</time>
      </trkpt>
      <trkpt lat="45.63117" lon="4.45378">
        <ele>570.7</ele>
        <time>2017-03-19T09:34:16Z</time>
      </trkpt>
      <trkpt lat="45.63119" lon="4.45384">
        <ele>571.4</ele>
        <time>2017-03-19T09:34:18Z</time>
      </trkpt>
      <trkpt lat="45.63121" lon="4.45389">
        <ele>571.9</ele>
        <time>2017-03-19T09:34:20Z</time>
      </trkpt>
      <trkpt lat="45.63124" lon="4.45394">
        <ele>572.4</ele>
        <time>2017-03-19T09:34:22Z</time>
      </trkpt>
      <trkpt lat="45.63126" lon="4.454">
        <ele>573</ele>
        <time>2017-03-19T09:34:24Z</time>
      </trkpt>
      <trkpt lat="45.63127" lon="4.45406">
        <ele>573.7</ele>
        <time>2017-03-19T09:34:26Z</time>
      </trkpt>
      <trkpt lat="45.63128" lon="4.45413">
        <ele>574.2</ele>
        <time>2017-03-19T09:34:28Z</time>
      </trkpt>
      <trkpt lat="45.63128" lon="4.45419">
        <ele>574.4</ele>
        <time>2017-03-19T09:34:30Z</time>
      </trkpt>
      <trkpt lat="45.63129" lon="4.45425">
        <ele>574.6</ele>
        <time>2017-03-19T09:34:32Z</time>
      </trkpt>
      <trkpt lat="45.6313" lon="4.45431">
        <ele>574.9</ele>
        <time>2017-03-19T09:34:35Z</time>
      </trkpt>
      <trkpt lat="45.63133" lon="4.45434">
        <ele>575</ele>
        <time>2017-03-19T09:34:36Z</time>
      </trkpt>
      <trkpt lat="45.63135" lon="4.45436">
        <ele>575</ele>
        <time>2017-03-19T09:34:37Z</time>
      </trkpt>
      <trkpt lat="45.63138" lon="4.45437">
        <ele>575</ele>
        <time>2017-03-19T09:34:38Z</time>
      </trkpt>
      <trkpt lat="45.63142" lon="4.45438">
        <ele>575</ele>
        <time>2017-03-19T09:34:39Z</time>
      </trkpt>
      <trkpt lat="45.63145" lon="4.45438">
        <ele>575</ele>
        <time>2017-03-19T09:34:40Z</time>
      </trkpt>
      <trkpt lat="45.63149" lon="4.45438">
        <ele>575</ele>
        <time>2017-03-19T09:34:41Z</time>
      </trkpt>
      <trkpt lat="45.63153" lon="4.45439">
        <ele>575</ele>
        <time>2017-03-19T09:34:43Z</time>
      </trkpt>
      <trkpt lat="45.63155" lon="4.45441">
        <ele>575</ele>
        <time>2017-03-19T09:34:45Z</time>
      </trkpt>
      <trkpt lat="45.63158" lon="4.45446">
        <ele>575</ele>
        <time>2017-03-19T09:34:47Z</time>
      </trkpt>
      <trkpt lat="45.6316" lon="4.4545">
        <ele>575</ele>
        <time>2017-03-19T09:34:48Z</time>
      </trkpt>
      <trkpt lat="45.63162" lon="4.45454">
        <ele>575</ele>
        <time>2017-03-19T09:34:49Z</time>
      </trkpt>
      <trkpt lat="45.63164" lon="4.45457">
        <ele>576.9</ele>
        <time>2017-03-19T09:34:50Z</time>
      </trkpt>
      <trkpt lat="45.63166" lon="4.45461">
        <ele>581.5</ele>
        <time>2017-03-19T09:34:51Z</time>
      </trkpt>
      <trkpt lat="45.63168" lon="4.45465">
        <ele>586</ele>
        <time>2017-03-19T09:34:52Z</time>
      </trkpt>
      <trkpt lat="45.6317" lon="4.45469">
        <ele>587</ele>
        <time>2017-03-19T09:34:53Z</time>
      </trkpt>
      <trkpt lat="45.63172" lon="4.45472">
        <ele>587</ele>
        <time>2017-03-19T09:34:54Z</time>
      </trkpt>
      <trkpt lat="45.63175" lon="4.45475">
        <ele>587</ele>
        <time>2017-03-19T09:34:55Z</time>
      </trkpt>
      <trkpt lat="45.63177" lon="4.45478">
        <ele>587</ele>
        <time>2017-03-19T09:34:56Z</time>
      </trkpt>
      <trkpt lat="45.6318" lon="4.45481">
        <ele>587</ele>
        <time>2017-03-19T09:34:57Z</time>
      </trkpt>
      <trkpt lat="45.63183" lon="4.45484">
        <ele>587</ele>
        <time>2017-03-19T09:34:58Z</time>
      </trkpt>
      <trkpt lat="45.63186" lon="4.45486">
        <ele>587</ele>
        <time>2017-03-19T09:34:59Z</time>
      </trkpt>
      <trkpt lat="45.63189" lon="4.45487">
        <ele>587</ele>
        <time>2017-03-19T09:35:00Z</time>
      </trkpt>
      <trkpt lat="45.63191" lon="4.45489">
        <ele>587</ele>
        <time>2017-03-19T09:35:01Z</time>
      </trkpt>
      <trkpt lat="45.63196" lon="4.45492">
        <ele>587</ele>
        <time>2017-03-19T09:35:03Z</time>
      </trkpt>
      <trkpt lat="45.63199" lon="4.45494">
        <ele>587</ele>
        <time>2017-03-19T09:35:04Z</time>
      </trkpt>
      <trkpt lat="45.63201" lon="4.45495">
        <ele>587</ele>
        <time>2017-03-19T09:35:05Z</time>
      </trkpt>
      <trkpt lat="45.63205" lon="4.45497">
        <ele>587</ele>
        <time>2017-03-19T09:35:07Z</time>
      </trkpt>
      <trkpt lat="45.63209" lon="4.45498">
        <ele>587</ele>
        <time>2017-03-19T09:35:09Z</time>
      </trkpt>
      <trkpt lat="45.63212" lon="4.45499">
        <ele>587.2</ele>
        <time>2017-03-19T09:35:10Z</time>
      </trkpt>
      <trkpt lat="45.63215" lon="4.455">
        <ele>587.4</ele>
        <time>2017-03-19T09:35:11Z</time>
      </trkpt>
      <trkpt lat="45.63218" lon="4.45501">
        <ele>587.5</ele>
        <time>2017-03-19T09:35:12Z</time>
      </trkpt>
      <trkpt lat="45.63221" lon="4.45502">
        <ele>587.7</ele>
        <time>2017-03-19T09:35:13Z</time>
      </trkpt>
      <trkpt lat="45.63223" lon="4.45504">
        <ele>587.9</ele>
        <time>2017-03-19T09:35:14Z</time>
      </trkpt>
      <trkpt lat="45.63226" lon="4.45505">
        <ele>588</ele>
        <time>2017-03-19T09:35:15Z</time>
      </trkpt>
      <trkpt lat="45.63231" lon="4.45508">
        <ele>588</ele>
        <time>2017-03-19T09:35:17Z</time>
      </trkpt>
      <trkpt lat="45.63234" lon="4.45509">
        <ele>588</ele>
        <time>2017-03-19T09:35:18Z</time>
      </trkpt>
      <trkpt lat="45.63237" lon="4.45511">
        <ele>588.3</ele>
        <time>2017-03-19T09:35:19Z</time>
      </trkpt>
      <trkpt lat="45.6324" lon="4.45512">
        <ele>588.6</ele>
        <time>2017-03-19T09:35:20Z</time>
      </trkpt>
      <trkpt lat="45.63243" lon="4.45514">
        <ele>589</ele>
        <time>2017-03-19T09:35:21Z</time>
      </trkpt>
      <trkpt lat="45.63246" lon="4.45515">
        <ele>589.3</ele>
        <time>2017-03-19T09:35:22Z</time>
      </trkpt>
      <trkpt lat="45.63249" lon="4.45516">
        <ele>589.7</ele>
        <time>2017-03-19T09:35:23Z</time>
      </trkpt>
      <trkpt lat="45.63252" lon="4.45517">
        <ele>590</ele>
        <time>2017-03-19T09:35:24Z</time>
      </trkpt>
      <trkpt lat="45.63254" lon="4.45519">
        <ele>590.3</ele>
        <time>2017-03-19T09:35:25Z</time>
      </trkpt>
      <trkpt lat="45.63258" lon="4.4552">
        <ele>590.6</ele>
        <time>2017-03-19T09:35:26Z</time>
      </trkpt>
      <trkpt lat="45.63262" lon="4.45522">
        <ele>591</ele>
        <time>2017-03-19T09:35:27Z</time>
      </trkpt>
      <trkpt lat="45.63267" lon="4.45523">
        <ele>591.4</ele>
        <time>2017-03-19T09:35:28Z</time>
      </trkpt>
      <trkpt lat="45.6327" lon="4.45523">
        <ele>591.7</ele>
        <time>2017-03-19T09:35:29Z</time>
      </trkpt>
      <trkpt lat="45.63275" lon="4.45524">
        <ele>592</ele>
        <time>2017-03-19T09:35:31Z</time>
      </trkpt>
      <trkpt lat="45.63277" lon="4.45524">
        <ele>592.2</ele>
        <time>2017-03-19T09:35:33Z</time>
      </trkpt>
      <trkpt lat="45.63281" lon="4.45522">
        <ele>592.6</ele>
        <time>2017-03-19T09:35:35Z</time>
      </trkpt>
      <trkpt lat="45.63283" lon="4.45517">
        <ele>593.3</ele>
        <time>2017-03-19T09:35:37Z</time>
      </trkpt>
      <trkpt lat="45.63284" lon="4.4551">
        <ele>593.6</ele>
        <time>2017-03-19T09:35:39Z</time>
      </trkpt>
      <trkpt lat="45.63284" lon="4.45506">
        <ele>593.8</ele>
        <time>2017-03-19T09:35:40Z</time>
      </trkpt>
      <trkpt lat="45.63284" lon="4.45499">
        <ele>594.1</ele>
        <time>2017-03-19T09:35:42Z</time>
      </trkpt>
      <trkpt lat="45.63283" lon="4.45492">
        <ele>594.4</ele>
        <time>2017-03-19T09:35:44Z</time>
      </trkpt>
      <trkpt lat="45.63281" lon="4.45486">
        <ele>594.8</ele>
        <time>2017-03-19T09:35:46Z</time>
      </trkpt>
      <trkpt lat="45.63277" lon="4.45481">
        <ele>595</ele>
        <time>2017-03-19T09:35:48Z</time>
      </trkpt>
      <trkpt lat="45.63273" lon="4.45478">
        <ele>595</ele>
        <time>2017-03-19T09:35:50Z</time>
      </trkpt>
      <trkpt lat="45.63268" lon="4.45474">
        <ele>595</ele>
        <time>2017-03-19T09:35:52Z</time>
      </trkpt>
      <trkpt lat="45.63266" lon="4.45472">
        <ele>594.9</ele>
        <time>2017-03-19T09:35:53Z</time>
      </trkpt>
      <trkpt lat="45.63263" lon="4.45471">
        <ele>594.1</ele>
        <time>2017-03-19T09:35:54Z</time>
      </trkpt>
      <trkpt lat="45.63259" lon="4.4547">
        <ele>593.1</ele>
        <time>2017-03-19T09:35:55Z</time>
      </trkpt>
      <trkpt lat="45.63256" lon="4.45468">
        <ele>592.1</ele>
        <time>2017-03-19T09:35:56Z</time>
      </trkpt>
      <trkpt lat="45.63253" lon="4.45466">
        <ele>591.2</ele>
        <time>2017-03-19T09:35:57Z</time>
      </trkpt>
      <trkpt lat="45.6325" lon="4.45464">
        <ele>590.4</ele>
        <time>2017-03-19T09:35:58Z</time>
      </trkpt>
      <trkpt lat="45.63245" lon="4.45463">
        <ele>588.8</ele>
        <time>2017-03-19T09:36:00Z</time>
      </trkpt>
      <trkpt lat="45.63242" lon="4.45462">
        <ele>587.9</ele>
        <time>2017-03-19T09:36:01Z</time>
      </trkpt>
      <trkpt lat="45.63238" lon="4.45461">
        <ele>587.1</ele>
        <time>2017-03-19T09:36:02Z</time>
      </trkpt>
      <trkpt lat="45.63235" lon="4.45457">
        <ele>587</ele>
        <time>2017-03-19T09:36:04Z</time>
      </trkpt>
      <trkpt lat="45.63234" lon="4.45451">
        <ele>587</ele>
        <time>2017-03-19T09:36:06Z</time>
      </trkpt>
      <trkpt lat="45.63231" lon="4.45448">
        <ele>587</ele>
        <time>2017-03-19T09:36:08Z</time>
      </trkpt>
      <trkpt lat="45.63228" lon="4.45446">
        <ele>587</ele>
        <time>2017-03-19T09:36:10Z</time>
      </trkpt>
      <trkpt lat="45.63224" lon="4.45446">
        <ele>587</ele>
        <time>2017-03-19T09:36:12Z</time>
      </trkpt>
      <trkpt lat="45.63221" lon="4.45447">
        <ele>587</ele>
        <time>2017-03-19T09:36:13Z</time>
      </trkpt>
      <trkpt lat="45.63215" lon="4.4544">
        <ele>587</ele>
        <time>2017-03-19T09:36:14Z</time>
      </trkpt>
      <trkpt lat="45.63207" lon="4.45438">
        <ele>587</ele>
        <time>2017-03-19T09:36:15Z</time>
      </trkpt>
      <trkpt lat="45.63202" lon="4.45436">
        <ele>587</ele>
        <time>2017-03-19T09:36:16Z</time>
      </trkpt>
      <trkpt lat="45.63196" lon="4.45435">
        <ele>587</ele>
        <time>2017-03-19T09:36:17Z</time>
      </trkpt>
      <trkpt lat="45.63195" lon="4.4542">
        <ele>583.2</ele>
        <time>2017-03-19T09:36:18Z</time>
      </trkpt>
      <trkpt lat="45.63194" lon="4.45411">
        <ele>581</ele>
        <time>2017-03-19T09:36:19Z</time>
      </trkpt>
      <trkpt lat="45.63192" lon="4.45404">
        <ele>579.2</ele>
        <time>2017-03-19T09:36:20Z</time>
      </trkpt>
      <trkpt lat="45.63189" lon="4.45396">
        <ele>577</ele>
        <time>2017-03-19T09:36:21Z</time>
      </trkpt>
      <trkpt lat="45.63192" lon="4.45387">
        <ele>577</ele>
        <time>2017-03-19T09:36:22Z</time>
      </trkpt>
      <trkpt lat="45.63193" lon="4.45376">
        <ele>575.2</ele>
        <time>2017-03-19T09:36:23Z</time>
      </trkpt>
      <trkpt lat="45.63192" lon="4.45365">
        <ele>571.2</ele>
        <time>2017-03-19T09:36:24Z</time>
      </trkpt>
      <trkpt lat="45.63195" lon="4.45354">
        <ele>569.2</ele>
        <time>2017-03-19T09:36:25Z</time>
      </trkpt>
      <trkpt lat="45.63198" lon="4.45344">
        <ele>567</ele>
        <time>2017-03-19T09:36:26Z</time>
      </trkpt>
      <trkpt lat="45.63203" lon="4.45335">
        <ele>565.5</ele>
        <time>2017-03-19T09:36:27Z</time>
      </trkpt>
      <trkpt lat="45.63208" lon="4.45326">
        <ele>562.5</ele>
        <time>2017-03-19T09:36:28Z</time>
      </trkpt>
      <trkpt lat="45.63212" lon="4.45319">
        <ele>560.4</ele>
        <time>2017-03-19T09:36:29Z</time>
      </trkpt>
      <trkpt lat="45.63214" lon="4.45313">
        <ele>558.9</ele>
        <time>2017-03-19T09:36:30Z</time>
      </trkpt>
      <trkpt lat="45.63215" lon="4.45309">
        <ele>558</ele>
        <time>2017-03-19T09:36:31Z</time>
      </trkpt>
      <trkpt lat="45.63213" lon="4.45303">
        <ele>557.4</ele>
        <time>2017-03-19T09:36:32Z</time>
      </trkpt>
      <trkpt lat="45.6321" lon="4.45299">
        <ele>556.2</ele>
        <time>2017-03-19T09:36:33Z</time>
      </trkpt>
      <trkpt lat="45.63204" lon="4.45298">
        <ele>555.7</ele>
        <time>2017-03-19T09:36:34Z</time>
      </trkpt>
      <trkpt lat="45.63201" lon="4.45306">
        <ele>556.8</ele>
        <time>2017-03-19T09:36:35Z</time>
      </trkpt>
      <trkpt lat="45.63195" lon="4.45311">
        <ele>557.1</ele>
        <time>2017-03-19T09:36:36Z</time>
      </trkpt>
      <trkpt lat="45.63192" lon="4.45317">
        <ele>557.2</ele>
        <time>2017-03-19T09:36:37Z</time>
      </trkpt>
      <trkpt lat="45.63189" lon="4.45321">
        <ele>557.5</ele>
        <time>2017-03-19T09:36:38Z</time>
      </trkpt>
      <trkpt lat="45.63187" lon="4.45324">
        <ele>557.8</ele>
        <time>2017-03-19T09:36:39Z</time>
      </trkpt>
      <trkpt lat="45.63183" lon="4.45324">
        <ele>557.9</ele>
        <time>2017-03-19T09:36:41Z</time>
      </trkpt>
      <trkpt lat="45.63184" lon="4.45318">
        <ele>558</ele>
        <time>2017-03-19T09:36:43Z</time>
      </trkpt>
      <trkpt lat="45.63184" lon="4.45314">
        <ele>558</ele>
        <time>2017-03-19T09:36:44Z</time>
      </trkpt>
      <trkpt lat="45.63186" lon="4.45308">
        <ele>558</ele>
        <time>2017-03-19T09:36:46Z</time>
      </trkpt>
      <trkpt lat="45.63188" lon="4.45305">
        <ele>558</ele>
        <time>2017-03-19T09:36:47Z</time>
      </trkpt>
      <trkpt lat="45.63191" lon="4.45302">
        <ele>558</ele>
        <time>2017-03-19T09:36:48Z</time>
      </trkpt>
      <trkpt lat="45.63193" lon="4.45298">
        <ele>558</ele>
        <time>2017-03-19T09:36:49Z</time>
      </trkpt>
      <trkpt lat="45.63196" lon="4.45294">
        <ele>558</ele>
        <time>2017-03-19T09:36:50Z</time>
      </trkpt>
      <trkpt lat="45.63199" lon="4.45289">
        <ele>558</ele>
        <time>2017-03-19T09:36:51Z</time>
      </trkpt>
      <trkpt lat="45.63203" lon="4.45284">
        <ele>558</ele>
        <time>2017-03-19T09:36:52Z</time>
      </trkpt>
      <trkpt lat="45.63208" lon="4.4528">
        <ele>558</ele>
        <time>2017-03-19T09:36:53Z</time>
      </trkpt>
      <trkpt lat="45.63211" lon="4.45275">
        <ele>558</ele>
        <time>2017-03-19T09:36:54Z</time>
      </trkpt>
      <trkpt lat="45.63215" lon="4.4527">
        <ele>558</ele>
        <time>2017-03-19T09:36:55Z</time>
      </trkpt>
      <trkpt lat="45.63221" lon="4.45266">
        <ele>558</ele>
        <time>2017-03-19T09:36:56Z</time>
      </trkpt>
      <trkpt lat="45.63226" lon="4.45263">
        <ele>558</ele>
        <time>2017-03-19T09:36:57Z</time>
      </trkpt>
      <trkpt lat="45.63231" lon="4.45261">
        <ele>558</ele>
        <time>2017-03-19T09:36:58Z</time>
      </trkpt>
      <trkpt lat="45.63236" lon="4.45259">
        <ele>558</ele>
        <time>2017-03-19T09:36:59Z</time>
      </trkpt>
      <trkpt lat="45.63244" lon="4.45257">
        <ele>558</ele>
        <time>2017-03-19T09:37:00Z</time>
      </trkpt>
      <trkpt lat="45.63249" lon="4.45255">
        <ele>557.8</ele>
        <time>2017-03-19T09:37:01Z</time>
      </trkpt>
      <trkpt lat="45.63254" lon="4.4525">
        <ele>557.6</ele>
        <time>2017-03-19T09:37:02Z</time>
      </trkpt>
      <trkpt lat="45.6326" lon="4.45244">
        <ele>557.4</ele>
        <time>2017-03-19T09:37:03Z</time>
      </trkpt>
      <trkpt lat="45.63265" lon="4.45238">
        <ele>557.3</ele>
        <time>2017-03-19T09:37:04Z</time>
      </trkpt>
      <trkpt lat="45.63269" lon="4.45232">
        <ele>557.1</ele>
        <time>2017-03-19T09:37:05Z</time>
      </trkpt>
      <trkpt lat="45.63274" lon="4.45224">
        <ele>557</ele>
        <time>2017-03-19T09:37:06Z</time>
      </trkpt>
      <trkpt lat="45.63278" lon="4.45216">
        <ele>557</ele>
        <time>2017-03-19T09:37:07Z</time>
      </trkpt>
      <trkpt lat="45.63282" lon="4.45209">
        <ele>557</ele>
        <time>2017-03-19T09:37:08Z</time>
      </trkpt>
      <trkpt lat="45.63285" lon="4.452">
        <ele>557</ele>
        <time>2017-03-19T09:37:09Z</time>
      </trkpt>
      <trkpt lat="45.63288" lon="4.45192">
        <ele>557</ele>
        <time>2017-03-19T09:37:10Z</time>
      </trkpt>
      <trkpt lat="45.6329" lon="4.45184">
        <ele>557</ele>
        <time>2017-03-19T09:37:11Z</time>
      </trkpt>
      <trkpt lat="45.63292" lon="4.45175">
        <ele>557</ele>
        <time>2017-03-19T09:37:12Z</time>
      </trkpt>
      <trkpt lat="45.63294" lon="4.45166">
        <ele>557.3</ele>
        <time>2017-03-19T09:37:13Z</time>
      </trkpt>
      <trkpt lat="45.63294" lon="4.45158">
        <ele>557.9</ele>
        <time>2017-03-19T09:37:14Z</time>
      </trkpt>
      <trkpt lat="45.63294" lon="4.45151">
        <ele>558.4</ele>
        <time>2017-03-19T09:37:15Z</time>
      </trkpt>
      <trkpt lat="45.63294" lon="4.45143">
        <ele>558.9</ele>
        <time>2017-03-19T09:37:16Z</time>
      </trkpt>
      <trkpt lat="45.63293" lon="4.45137">
        <ele>559.4</ele>
        <time>2017-03-19T09:37:17Z</time>
      </trkpt>
      <trkpt lat="45.63292" lon="4.4513">
        <ele>559.9</ele>
        <time>2017-03-19T09:37:18Z</time>
      </trkpt>
      <trkpt lat="45.6329" lon="4.45123">
        <ele>560.7</ele>
        <time>2017-03-19T09:37:19Z</time>
      </trkpt>
      <trkpt lat="45.63289" lon="4.45117">
        <ele>561.6</ele>
        <time>2017-03-19T09:37:20Z</time>
      </trkpt>
      <trkpt lat="45.63288" lon="4.4511">
        <ele>562.6</ele>
        <time>2017-03-19T09:37:21Z</time>
      </trkpt>
      <trkpt lat="45.63287" lon="4.45103">
        <ele>563.7</ele>
        <time>2017-03-19T09:37:22Z</time>
      </trkpt>
      <trkpt lat="45.63286" lon="4.45096">
        <ele>564.9</ele>
        <time>2017-03-19T09:37:23Z</time>
      </trkpt>
      <trkpt lat="45.63284" lon="4.4509">
        <ele>566.1</ele>
        <time>2017-03-19T09:37:24Z</time>
      </trkpt>
      <trkpt lat="45.63282" lon="4.45084">
        <ele>567.4</ele>
        <time>2017-03-19T09:37:25Z</time>
      </trkpt>
      <trkpt lat="45.6328" lon="4.45078">
        <ele>568.8</ele>
        <time>2017-03-19T09:37:26Z</time>
      </trkpt>
      <trkpt lat="45.63278" lon="4.45073">
        <ele>570.2</ele>
        <time>2017-03-19T09:37:27Z</time>
      </trkpt>
      <trkpt lat="45.63276" lon="4.45067">
        <ele>571.6</ele>
        <time>2017-03-19T09:37:28Z</time>
      </trkpt>
      <trkpt lat="45.63273" lon="4.45061">
        <ele>573.3</ele>
        <time>2017-03-19T09:37:29Z</time>
      </trkpt>
      <trkpt lat="45.63269" lon="4.45055">
        <ele>574</ele>
        <time>2017-03-19T09:37:30Z</time>
      </trkpt>
      <trkpt lat="45.63266" lon="4.45049">
        <ele>574</ele>
        <time>2017-03-19T09:37:31Z</time>
      </trkpt>
      <trkpt lat="45.63261" lon="4.45046">
        <ele>574</ele>
        <time>2017-03-19T09:37:32Z</time>
      </trkpt>
      <trkpt lat="45.63258" lon="4.45042">
        <ele>574</ele>
        <time>2017-03-19T09:37:33Z</time>
      </trkpt>
      <trkpt lat="45.63254" lon="4.45038">
        <ele>574</ele>
        <time>2017-03-19T09:37:34Z</time>
      </trkpt>
      <trkpt lat="45.6325" lon="4.45033">
        <ele>574</ele>
        <time>2017-03-19T09:37:35Z</time>
      </trkpt>
      <trkpt lat="45.63247" lon="4.45028">
        <ele>574</ele>
        <time>2017-03-19T09:37:36Z</time>
      </trkpt>
      <trkpt lat="45.63243" lon="4.45024">
        <ele>574</ele>
        <time>2017-03-19T09:37:37Z</time>
      </trkpt>
      <trkpt lat="45.63239" lon="4.4502">
        <ele>574</ele>
        <time>2017-03-19T09:37:38Z</time>
      </trkpt>
      <trkpt lat="45.63235" lon="4.45017">
        <ele>574</ele>
        <time>2017-03-19T09:37:39Z</time>
      </trkpt>
      <trkpt lat="45.63231" lon="4.45014">
        <ele>574</ele>
        <time>2017-03-19T09:37:40Z</time>
      </trkpt>
      <trkpt lat="45.63227" lon="4.45011">
        <ele>573.9</ele>
        <time>2017-03-19T09:37:41Z</time>
      </trkpt>
      <trkpt lat="45.63223" lon="4.45007">
        <ele>573.9</ele>
        <time>2017-03-19T09:37:42Z</time>
      </trkpt>
      <trkpt lat="45.63219" lon="4.45004">
        <ele>573.9</ele>
        <time>2017-03-19T09:37:43Z</time>
      </trkpt>
      <trkpt lat="45.63215" lon="4.45">
        <ele>573.9</ele>
        <time>2017-03-19T09:37:44Z</time>
      </trkpt>
      <trkpt lat="45.63208" lon="4.44997">
        <ele>573.9</ele>
        <time>2017-03-19T09:37:45Z</time>
      </trkpt>
      <trkpt lat="45.63203" lon="4.44993">
        <ele>573.9</ele>
        <time>2017-03-19T09:37:46Z</time>
      </trkpt>
      <trkpt lat="45.63197" lon="4.4499">
        <ele>573.9</ele>
        <time>2017-03-19T09:37:47Z</time>
      </trkpt>
      <trkpt lat="45.63191" lon="4.44986">
        <ele>573.9</ele>
        <time>2017-03-19T09:37:48Z</time>
      </trkpt>
      <trkpt lat="45.63188" lon="4.44983">
        <ele>574</ele>
        <time>2017-03-19T09:37:49Z</time>
      </trkpt>
      <trkpt lat="45.63183" lon="4.4498">
        <ele>574</ele>
        <time>2017-03-19T09:37:50Z</time>
      </trkpt>
      <trkpt lat="45.63177" lon="4.44974">
        <ele>574.1</ele>
        <time>2017-03-19T09:37:51Z</time>
      </trkpt>
      <trkpt lat="45.63173" lon="4.4497">
        <ele>574.1</ele>
        <time>2017-03-19T09:37:52Z</time>
      </trkpt>
      <trkpt lat="45.63168" lon="4.44966">
        <ele>574.1</ele>
        <time>2017-03-19T09:37:53Z</time>
      </trkpt>
      <trkpt lat="45.63164" lon="4.4496">
        <ele>574.1</ele>
        <time>2017-03-19T09:37:54Z</time>
      </trkpt>
      <trkpt lat="45.63159" lon="4.44954">
        <ele>574.2</ele>
        <time>2017-03-19T09:37:55Z</time>
      </trkpt>
      <trkpt lat="45.63155" lon="4.44948">
        <ele>574.2</ele>
        <time>2017-03-19T09:37:56Z</time>
      </trkpt>
      <trkpt lat="45.63151" lon="4.44943">
        <ele>574.2</ele>
        <time>2017-03-19T09:37:57Z</time>
      </trkpt>
      <trkpt lat="45.63148" lon="4.44936">
        <ele>574.2</ele>
        <time>2017-03-19T09:37:58Z</time>
      </trkpt>
      <trkpt lat="45.63146" lon="4.44929">
        <ele>574.2</ele>
        <time>2017-03-19T09:37:59Z</time>
      </trkpt>
      <trkpt lat="45.63143" lon="4.44923">
        <ele>574.2</ele>
        <time>2017-03-19T09:38:00Z</time>
      </trkpt>
      <trkpt lat="45.63139" lon="4.44917">
        <ele>574.2</ele>
        <time>2017-03-19T09:38:01Z</time>
      </trkpt>
      <trkpt lat="45.63137" lon="4.4491">
        <ele>574.2</ele>
        <time>2017-03-19T09:38:02Z</time>
      </trkpt>
      <trkpt lat="45.63134" lon="4.44904">
        <ele>574.1</ele>
        <time>2017-03-19T09:38:03Z</time>
      </trkpt>
      <trkpt lat="45.63131" lon="4.44898">
        <ele>574.1</ele>
        <time>2017-03-19T09:38:04Z</time>
      </trkpt>
      <trkpt lat="45.63127" lon="4.44893">
        <ele>574.1</ele>
        <time>2017-03-19T09:38:05Z</time>
      </trkpt>
      <trkpt lat="45.63123" lon="4.44887">
        <ele>574.1</ele>
        <time>2017-03-19T09:38:06Z</time>
      </trkpt>
      <trkpt lat="45.6312" lon="4.4488">
        <ele>574.1</ele>
        <time>2017-03-19T09:38:07Z</time>
      </trkpt>
      <trkpt lat="45.63117" lon="4.44874">
        <ele>574</ele>
        <time>2017-03-19T09:38:08Z</time>
      </trkpt>
      <trkpt lat="45.63113" lon="4.44869">
        <ele>574</ele>
        <time>2017-03-19T09:38:09Z</time>
      </trkpt>
      <trkpt lat="45.63109" lon="4.44864">
        <ele>574</ele>
        <time>2017-03-19T09:38:10Z</time>
      </trkpt>
      <trkpt lat="45.63105" lon="4.44859">
        <ele>574</ele>
        <time>2017-03-19T09:38:11Z</time>
      </trkpt>
      <trkpt lat="45.63102" lon="4.44853">
        <ele>574</ele>
        <time>2017-03-19T09:38:12Z</time>
      </trkpt>
      <trkpt lat="45.631" lon="4.44847">
        <ele>574</ele>
        <time>2017-03-19T09:38:13Z</time>
      </trkpt>
      <trkpt lat="45.63096" lon="4.44842">
        <ele>574</ele>
        <time>2017-03-19T09:38:14Z</time>
      </trkpt>
      <trkpt lat="45.63093" lon="4.44837">
        <ele>574</ele>
        <time>2017-03-19T09:38:15Z</time>
      </trkpt>
      <trkpt lat="45.63088" lon="4.44833">
        <ele>574</ele>
        <time>2017-03-19T09:38:16Z</time>
      </trkpt>
      <trkpt lat="45.63084" lon="4.4483">
        <ele>574</ele>
        <time>2017-03-19T09:38:17Z</time>
      </trkpt>
      <trkpt lat="45.63081" lon="4.44825">
        <ele>574</ele>
        <time>2017-03-19T09:38:18Z</time>
      </trkpt>
      <trkpt lat="45.63079" lon="4.4482">
        <ele>574.1</ele>
        <time>2017-03-19T09:38:19Z</time>
      </trkpt>
      <trkpt lat="45.63076" lon="4.44815">
        <ele>574.2</ele>
        <time>2017-03-19T09:38:20Z</time>
      </trkpt>
      <trkpt lat="45.63072" lon="4.44811">
        <ele>574.4</ele>
        <time>2017-03-19T09:38:21Z</time>
      </trkpt>
      <trkpt lat="45.63069" lon="4.44806">
        <ele>574.5</ele>
        <time>2017-03-19T09:38:22Z</time>
      </trkpt>
      <trkpt lat="45.63066" lon="4.448">
        <ele>574.7</ele>
        <time>2017-03-19T09:38:23Z</time>
      </trkpt>
      <trkpt lat="45.63062" lon="4.44795">
        <ele>574.8</ele>
        <time>2017-03-19T09:38:24Z</time>
      </trkpt>
      <trkpt lat="45.63059" lon="4.4479">
        <ele>575</ele>
        <time>2017-03-19T09:38:25Z</time>
      </trkpt>
      <trkpt lat="45.63056" lon="4.44784">
        <ele>575.2</ele>
        <time>2017-03-19T09:38:26Z</time>
      </trkpt>
      <trkpt lat="45.63052" lon="4.44778">
        <ele>575.3</ele>
        <time>2017-03-19T09:38:27Z</time>
      </trkpt>
      <trkpt lat="45.63048" lon="4.44774">
        <ele>575.5</ele>
        <time>2017-03-19T09:38:28Z</time>
      </trkpt>
      <trkpt lat="45.63045" lon="4.44768">
        <ele>575.7</ele>
        <time>2017-03-19T09:38:29Z</time>
      </trkpt>
      <trkpt lat="45.63041" lon="4.44764">
        <ele>575.8</ele>
        <time>2017-03-19T09:38:30Z</time>
      </trkpt>
      <trkpt lat="45.63037" lon="4.4476">
        <ele>576</ele>
        <time>2017-03-19T09:38:31Z</time>
      </trkpt>
      <trkpt lat="45.63033" lon="4.44755">
        <ele>576.2</ele>
        <time>2017-03-19T09:38:32Z</time>
      </trkpt>
      <trkpt lat="45.63028" lon="4.44751">
        <ele>576.3</ele>
        <time>2017-03-19T09:38:33Z</time>
      </trkpt>
      <trkpt lat="45.63023" lon="4.44748">
        <ele>576.5</ele>
        <time>2017-03-19T09:38:34Z</time>
      </trkpt>
      <trkpt lat="45.63019" lon="4.44745">
        <ele>576.7</ele>
        <time>2017-03-19T09:38:35Z</time>
      </trkpt>
      <trkpt lat="45.63016" lon="4.4474">
        <ele>576.9</ele>
        <time>2017-03-19T09:38:36Z</time>
      </trkpt>
      <trkpt lat="45.63011" lon="4.44737">
        <ele>577</ele>
        <time>2017-03-19T09:38:37Z</time>
      </trkpt>
      <trkpt lat="45.63007" lon="4.44733">
        <ele>577.2</ele>
        <time>2017-03-19T09:38:38Z</time>
      </trkpt>
      <trkpt lat="45.63003" lon="4.4473">
        <ele>577.3</ele>
        <time>2017-03-19T09:38:39Z</time>
      </trkpt>
      <trkpt lat="45.62999" lon="4.44727">
        <ele>577.5</ele>
        <time>2017-03-19T09:38:40Z</time>
      </trkpt>
      <trkpt lat="45.62996" lon="4.44724">
        <ele>577.6</ele>
        <time>2017-03-19T09:38:41Z</time>
      </trkpt>
      <trkpt lat="45.6299" lon="4.44723">
        <ele>577.8</ele>
        <time>2017-03-19T09:38:42Z</time>
      </trkpt>
      <trkpt lat="45.62985" lon="4.4472">
        <ele>578</ele>
        <time>2017-03-19T09:38:43Z</time>
      </trkpt>
      <trkpt lat="45.6298" lon="4.44717">
        <ele>578.2</ele>
        <time>2017-03-19T09:38:44Z</time>
      </trkpt>
      <trkpt lat="45.62976" lon="4.44714">
        <ele>578.4</ele>
        <time>2017-03-19T09:38:45Z</time>
      </trkpt>
      <trkpt lat="45.62972" lon="4.4471">
        <ele>578.5</ele>
        <time>2017-03-19T09:38:46Z</time>
      </trkpt>
      <trkpt lat="45.62967" lon="4.44707">
        <ele>578.7</ele>
        <time>2017-03-19T09:38:47Z</time>
      </trkpt>
      <trkpt lat="45.62962" lon="4.44703">
        <ele>578.9</ele>
        <time>2017-03-19T09:38:48Z</time>
      </trkpt>
      <trkpt lat="45.62958" lon="4.44699">
        <ele>579</ele>
        <time>2017-03-19T09:38:49Z</time>
      </trkpt>
      <trkpt lat="45.62954" lon="4.44694">
        <ele>578.9</ele>
        <time>2017-03-19T09:38:50Z</time>
      </trkpt>
      <trkpt lat="45.62951" lon="4.44688">
        <ele>578.9</ele>
        <time>2017-03-19T09:38:51Z</time>
      </trkpt>
      <trkpt lat="45.62947" lon="4.44684">
        <ele>578.8</ele>
        <time>2017-03-19T09:38:52Z</time>
      </trkpt>
      <trkpt lat="45.62943" lon="4.44678">
        <ele>578.8</ele>
        <time>2017-03-19T09:38:53Z</time>
      </trkpt>
      <trkpt lat="45.62939" lon="4.44672">
        <ele>578.8</ele>
        <time>2017-03-19T09:38:54Z</time>
      </trkpt>
      <trkpt lat="45.62936" lon="4.44666">
        <ele>578.7</ele>
        <time>2017-03-19T09:38:55Z</time>
      </trkpt>
      <trkpt lat="45.62931" lon="4.44661">
        <ele>578.7</ele>
        <time>2017-03-19T09:38:56Z</time>
      </trkpt>
      <trkpt lat="45.62927" lon="4.44656">
        <ele>578.6</ele>
        <time>2017-03-19T09:38:57Z</time>
      </trkpt>
      <trkpt lat="45.62922" lon="4.44651">
        <ele>578.5</ele>
        <time>2017-03-19T09:38:58Z</time>
      </trkpt>
      <trkpt lat="45.62918" lon="4.44645">
        <ele>578.4</ele>
        <time>2017-03-19T09:38:59Z</time>
      </trkpt>
      <trkpt lat="45.62913" lon="4.44639">
        <ele>578.3</ele>
        <time>2017-03-19T09:39:00Z</time>
      </trkpt>
      <trkpt lat="45.62909" lon="4.44634">
        <ele>578.2</ele>
        <time>2017-03-19T09:39:01Z</time>
      </trkpt>
      <trkpt lat="45.62905" lon="4.44628">
        <ele>578.1</ele>
        <time>2017-03-19T09:39:02Z</time>
      </trkpt>
      <trkpt lat="45.62901" lon="4.44623">
        <ele>578</ele>
        <time>2017-03-19T09:39:03Z</time>
      </trkpt>
      <trkpt lat="45.62899" lon="4.44618">
        <ele>578</ele>
        <time>2017-03-19T09:39:04Z</time>
      </trkpt>
      <trkpt lat="45.62895" lon="4.44613">
        <ele>577.9</ele>
        <time>2017-03-19T09:39:05Z</time>
      </trkpt>
      <trkpt lat="45.62891" lon="4.44606">
        <ele>577.8</ele>
        <time>2017-03-19T09:39:06Z</time>
      </trkpt>
      <trkpt lat="45.62887" lon="4.446">
        <ele>577.5</ele>
        <time>2017-03-19T09:39:07Z</time>
      </trkpt>
      <trkpt lat="45.62882" lon="4.44594">
        <ele>577.3</ele>
        <time>2017-03-19T09:39:08Z</time>
      </trkpt>
      <trkpt lat="45.62877" lon="4.44586">
        <ele>577</ele>
        <time>2017-03-19T09:39:09Z</time>
      </trkpt>
      <trkpt lat="45.62875" lon="4.44577">
        <ele>576.7</ele>
        <time>2017-03-19T09:39:10Z</time>
      </trkpt>
      <trkpt lat="45.62872" lon="4.44571">
        <ele>576.5</ele>
        <time>2017-03-19T09:39:11Z</time>
      </trkpt>
      <trkpt lat="45.62869" lon="4.44563">
        <ele>576.1</ele>
        <time>2017-03-19T09:39:12Z</time>
      </trkpt>
      <trkpt lat="45.62866" lon="4.44554">
        <ele>575.4</ele>
        <time>2017-03-19T09:39:13Z</time>
      </trkpt>
      <trkpt lat="45.62864" lon="4.44544">
        <ele>575</ele>
        <time>2017-03-19T09:39:14Z</time>
      </trkpt>
      <trkpt lat="45.62862" lon="4.44536">
        <ele>574.6</ele>
        <time>2017-03-19T09:39:15Z</time>
      </trkpt>
      <trkpt lat="45.62861" lon="4.44526">
        <ele>574.2</ele>
        <time>2017-03-19T09:39:16Z</time>
      </trkpt>
      <trkpt lat="45.6286" lon="4.44516">
        <ele>573.8</ele>
        <time>2017-03-19T09:39:17Z</time>
      </trkpt>
      <trkpt lat="45.6286" lon="4.44506">
        <ele>573.4</ele>
        <time>2017-03-19T09:39:18Z</time>
      </trkpt>
      <trkpt lat="45.62859" lon="4.44496">
        <ele>573</ele>
        <time>2017-03-19T09:39:19Z</time>
      </trkpt>
      <trkpt lat="45.62858" lon="4.44486">
        <ele>572.5</ele>
        <time>2017-03-19T09:39:20Z</time>
      </trkpt>
      <trkpt lat="45.62859" lon="4.44475">
        <ele>572</ele>
        <time>2017-03-19T09:39:21Z</time>
      </trkpt>
      <trkpt lat="45.6286" lon="4.44465">
        <ele>571.6</ele>
        <time>2017-03-19T09:39:22Z</time>
      </trkpt>
      <trkpt lat="45.6286" lon="4.44455">
        <ele>571.2</ele>
        <time>2017-03-19T09:39:23Z</time>
      </trkpt>
      <trkpt lat="45.62861" lon="4.44446">
        <ele>570.7</ele>
        <time>2017-03-19T09:39:24Z</time>
      </trkpt>
      <trkpt lat="45.62861" lon="4.44435">
        <ele>570.1</ele>
        <time>2017-03-19T09:39:25Z</time>
      </trkpt>
      <trkpt lat="45.62862" lon="4.44424">
        <ele>569.6</ele>
        <time>2017-03-19T09:39:26Z</time>
      </trkpt>
      <trkpt lat="45.62864" lon="4.44413">
        <ele>569</ele>
        <time>2017-03-19T09:39:27Z</time>
      </trkpt>
      <trkpt lat="45.62868" lon="4.44404">
        <ele>568.5</ele>
        <time>2017-03-19T09:39:28Z</time>
      </trkpt>
      <trkpt lat="45.62872" lon="4.44395">
        <ele>567.9</ele>
        <time>2017-03-19T09:39:29Z</time>
      </trkpt>
      <trkpt lat="45.62876" lon="4.44385">
        <ele>567.5</ele>
        <time>2017-03-19T09:39:30Z</time>
      </trkpt>
      <trkpt lat="45.62882" lon="4.44376">
        <ele>566.9</ele>
        <time>2017-03-19T09:39:31Z</time>
      </trkpt>
      <trkpt lat="45.62886" lon="4.44367">
        <ele>566.4</ele>
        <time>2017-03-19T09:39:32Z</time>
      </trkpt>
      <trkpt lat="45.62891" lon="4.44358">
        <ele>565.9</ele>
        <time>2017-03-19T09:39:33Z</time>
      </trkpt>
      <trkpt lat="45.62895" lon="4.4435">
        <ele>565.1</ele>
        <time>2017-03-19T09:39:34Z</time>
      </trkpt>
      <trkpt lat="45.629" lon="4.44341">
        <ele>564.1</ele>
        <time>2017-03-19T09:39:35Z</time>
      </trkpt>
      <trkpt lat="45.62905" lon="4.44332">
        <ele>563.3</ele>
        <time>2017-03-19T09:39:36Z</time>
      </trkpt>
      <trkpt lat="45.62909" lon="4.44323">
        <ele>562.7</ele>
        <time>2017-03-19T09:39:37Z</time>
      </trkpt>
      <trkpt lat="45.62914" lon="4.44314">
        <ele>562.2</ele>
        <time>2017-03-19T09:39:38Z</time>
      </trkpt>
      <trkpt lat="45.62918" lon="4.44305">
        <ele>561.7</ele>
        <time>2017-03-19T09:39:39Z</time>
      </trkpt>
      <trkpt lat="45.62923" lon="4.44296">
        <ele>561.3</ele>
        <time>2017-03-19T09:39:40Z</time>
      </trkpt>
      <trkpt lat="45.62927" lon="4.44287">
        <ele>560.8</ele>
        <time>2017-03-19T09:39:41Z</time>
      </trkpt>
      <trkpt lat="45.62932" lon="4.44279">
        <ele>560.4</ele>
        <time>2017-03-19T09:39:42Z</time>
      </trkpt>
      <trkpt lat="45.62936" lon="4.4427">
        <ele>559.9</ele>
        <time>2017-03-19T09:39:43Z</time>
      </trkpt>
      <trkpt lat="45.6294" lon="4.4426">
        <ele>559.3</ele>
        <time>2017-03-19T09:39:44Z</time>
      </trkpt>
      <trkpt lat="45.62944" lon="4.44252">
        <ele>558.8</ele>
        <time>2017-03-19T09:39:45Z</time>
      </trkpt>
      <trkpt lat="45.62948" lon="4.44243">
        <ele>558.3</ele>
        <time>2017-03-19T09:39:46Z</time>
      </trkpt>
      <trkpt lat="45.62953" lon="4.44234">
        <ele>557.7</ele>
        <time>2017-03-19T09:39:47Z</time>
      </trkpt>
      <trkpt lat="45.62959" lon="4.44225">
        <ele>557.1</ele>
        <time>2017-03-19T09:39:48Z</time>
      </trkpt>
      <trkpt lat="45.62965" lon="4.44217">
        <ele>556.6</ele>
        <time>2017-03-19T09:39:49Z</time>
      </trkpt>
      <trkpt lat="45.62973" lon="4.44209">
        <ele>556</ele>
        <time>2017-03-19T09:39:50Z</time>
      </trkpt>
      <trkpt lat="45.62981" lon="4.44203">
        <ele>555.4</ele>
        <time>2017-03-19T09:39:51Z</time>
      </trkpt>
      <trkpt lat="45.62988" lon="4.44198">
        <ele>555</ele>
        <time>2017-03-19T09:39:52Z</time>
      </trkpt>
      <trkpt lat="45.62996" lon="4.44193">
        <ele>554.5</ele>
        <time>2017-03-19T09:39:53Z</time>
      </trkpt>
      <trkpt lat="45.63004" lon="4.44189">
        <ele>554.1</ele>
        <time>2017-03-19T09:39:54Z</time>
      </trkpt>
      <trkpt lat="45.63012" lon="4.44186">
        <ele>553.6</ele>
        <time>2017-03-19T09:39:55Z</time>
      </trkpt>
      <trkpt lat="45.6302" lon="4.44182">
        <ele>553.2</ele>
        <time>2017-03-19T09:39:56Z</time>
      </trkpt>
      <trkpt lat="45.63026" lon="4.44179">
        <ele>552.8</ele>
        <time>2017-03-19T09:39:57Z</time>
      </trkpt>
      <trkpt lat="45.63033" lon="4.44176">
        <ele>552.3</ele>
        <time>2017-03-19T09:39:58Z</time>
      </trkpt>
      <trkpt lat="45.63042" lon="4.44172">
        <ele>551.7</ele>
        <time>2017-03-19T09:39:59Z</time>
      </trkpt>
      <trkpt lat="45.63048" lon="4.44169">
        <ele>551.2</ele>
        <time>2017-03-19T09:40:00Z</time>
      </trkpt>
      <trkpt lat="45.63055" lon="4.44166">
        <ele>551.6</ele>
        <time>2017-03-19T09:40:01Z</time>
      </trkpt>
      <trkpt lat="45.63062" lon="4.44161">
        <ele>553.3</ele>
        <time>2017-03-19T09:40:02Z</time>
      </trkpt>
      <trkpt lat="45.63068" lon="4.44156">
        <ele>555</ele>
        <time>2017-03-19T09:40:03Z</time>
      </trkpt>
      <trkpt lat="45.63073" lon="4.44151">
        <ele>556.5</ele>
        <time>2017-03-19T09:40:04Z</time>
      </trkpt>
      <trkpt lat="45.63078" lon="4.44145">
        <ele>558.6</ele>
        <time>2017-03-19T09:40:05Z</time>
      </trkpt>
      <trkpt lat="45.63082" lon="4.44138">
        <ele>559.9</ele>
        <time>2017-03-19T09:40:06Z</time>
      </trkpt>
      <trkpt lat="45.63086" lon="4.44133">
        <ele>560.9</ele>
        <time>2017-03-19T09:40:07Z</time>
      </trkpt>
      <trkpt lat="45.6309" lon="4.44127">
        <ele>561.9</ele>
        <time>2017-03-19T09:40:08Z</time>
      </trkpt>
      <trkpt lat="45.63093" lon="4.44121">
        <ele>562.8</ele>
        <time>2017-03-19T09:40:09Z</time>
      </trkpt>
      <trkpt lat="45.63096" lon="4.44115">
        <ele>563.8</ele>
        <time>2017-03-19T09:40:10Z</time>
      </trkpt>
      <trkpt lat="45.63099" lon="4.4411">
        <ele>564</ele>
        <time>2017-03-19T09:40:11Z</time>
      </trkpt>
      <trkpt lat="45.63101" lon="4.44104">
        <ele>564</ele>
        <time>2017-03-19T09:40:12Z</time>
      </trkpt>
      <trkpt lat="45.63104" lon="4.44097">
        <ele>564</ele>
        <time>2017-03-19T09:40:13Z</time>
      </trkpt>
      <trkpt lat="45.63106" lon="4.4409">
        <ele>564</ele>
        <time>2017-03-19T09:40:14Z</time>
      </trkpt>
      <trkpt lat="45.63107" lon="4.44083">
        <ele>564</ele>
        <time>2017-03-19T09:40:15Z</time>
      </trkpt>
      <trkpt lat="45.63108" lon="4.44076">
        <ele>564.1</ele>
        <time>2017-03-19T09:40:16Z</time>
      </trkpt>
      <trkpt lat="45.63109" lon="4.44068">
        <ele>564.1</ele>
        <time>2017-03-19T09:40:17Z</time>
      </trkpt>
      <trkpt lat="45.63111" lon="4.4406">
        <ele>564.1</ele>
        <time>2017-03-19T09:40:18Z</time>
      </trkpt>
      <trkpt lat="45.63112" lon="4.44053">
        <ele>564.1</ele>
        <time>2017-03-19T09:40:19Z</time>
      </trkpt>
      <trkpt lat="45.63112" lon="4.44045">
        <ele>564.1</ele>
        <time>2017-03-19T09:40:20Z</time>
      </trkpt>
      <trkpt lat="45.63112" lon="4.44036">
        <ele>564.2</ele>
        <time>2017-03-19T09:40:21Z</time>
      </trkpt>
      <trkpt lat="45.63111" lon="4.44028">
        <ele>564.2</ele>
        <time>2017-03-19T09:40:22Z</time>
      </trkpt>
      <trkpt lat="45.63111" lon="4.4402">
        <ele>564.2</ele>
        <time>2017-03-19T09:40:23Z</time>
      </trkpt>
      <trkpt lat="45.6311" lon="4.44012">
        <ele>564.3</ele>
        <time>2017-03-19T09:40:24Z</time>
      </trkpt>
      <trkpt lat="45.6311" lon="4.44003">
        <ele>564.3</ele>
        <time>2017-03-19T09:40:25Z</time>
      </trkpt>
      <trkpt lat="45.63111" lon="4.43995">
        <ele>564.4</ele>
        <time>2017-03-19T09:40:26Z</time>
      </trkpt>
      <trkpt lat="45.6311" lon="4.43986">
        <ele>564.4</ele>
        <time>2017-03-19T09:40:27Z</time>
      </trkpt>
      <trkpt lat="45.63109" lon="4.43979">
        <ele>564.5</ele>
        <time>2017-03-19T09:40:28Z</time>
      </trkpt>
      <trkpt lat="45.63109" lon="4.4397">
        <ele>564.5</ele>
        <time>2017-03-19T09:40:29Z</time>
      </trkpt>
      <trkpt lat="45.63109" lon="4.43961">
        <ele>564.6</ele>
        <time>2017-03-19T09:40:30Z</time>
      </trkpt>
      <trkpt lat="45.63109" lon="4.43953">
        <ele>564.6</ele>
        <time>2017-03-19T09:40:31Z</time>
      </trkpt>
      <trkpt lat="45.63109" lon="4.43944">
        <ele>564.7</ele>
        <time>2017-03-19T09:40:32Z</time>
      </trkpt>
      <trkpt lat="45.63108" lon="4.43935">
        <ele>564.7</ele>
        <time>2017-03-19T09:40:33Z</time>
      </trkpt>
      <trkpt lat="45.63108" lon="4.43926">
        <ele>564.8</ele>
        <time>2017-03-19T09:40:34Z</time>
      </trkpt>
      <trkpt lat="45.63108" lon="4.43917">
        <ele>564.8</ele>
        <time>2017-03-19T09:40:35Z</time>
      </trkpt>
      <trkpt lat="45.63108" lon="4.43909">
        <ele>564.8</ele>
        <time>2017-03-19T09:40:36Z</time>
      </trkpt>
      <trkpt lat="45.63107" lon="4.43901">
        <ele>564.9</ele>
        <time>2017-03-19T09:40:37Z</time>
      </trkpt>
      <trkpt lat="45.63107" lon="4.43892">
        <ele>564.9</ele>
        <time>2017-03-19T09:40:38Z</time>
      </trkpt>
      <trkpt lat="45.63107" lon="4.43884">
        <ele>564.9</ele>
        <time>2017-03-19T09:40:39Z</time>
      </trkpt>
      <trkpt lat="45.63107" lon="4.43875">
        <ele>564.9</ele>
        <time>2017-03-19T09:40:40Z</time>
      </trkpt>
      <trkpt lat="45.63107" lon="4.43866">
        <ele>565</ele>
        <time>2017-03-19T09:40:41Z</time>
      </trkpt>
      <trkpt lat="45.63107" lon="4.43857">
        <ele>565</ele>
        <time>2017-03-19T09:40:42Z</time>
      </trkpt>
      <trkpt lat="45.63107" lon="4.43849">
        <ele>565</ele>
        <time>2017-03-19T09:40:43Z</time>
      </trkpt>
      <trkpt lat="45.63106" lon="4.43841">
        <ele>565</ele>
        <time>2017-03-19T09:40:44Z</time>
      </trkpt>
      <trkpt lat="45.63106" lon="4.43832">
        <ele>565</ele>
        <time>2017-03-19T09:40:45Z</time>
      </trkpt>
      <trkpt lat="45.63106" lon="4.43823">
        <ele>565</ele>
        <time>2017-03-19T09:40:46Z</time>
      </trkpt>
      <trkpt lat="45.63105" lon="4.43815">
        <ele>565</ele>
        <time>2017-03-19T09:40:47Z</time>
      </trkpt>
      <trkpt lat="45.63104" lon="4.43806">
        <ele>565</ele>
        <time>2017-03-19T09:40:48Z</time>
      </trkpt>
      <trkpt lat="45.63104" lon="4.43797">
        <ele>565</ele>
        <time>2017-03-19T09:40:49Z</time>
      </trkpt>
      <trkpt lat="45.63104" lon="4.43788">
        <ele>565</ele>
        <time>2017-03-19T09:40:50Z</time>
      </trkpt>
      <trkpt lat="45.63103" lon="4.43779">
        <ele>565</ele>
        <time>2017-03-19T09:40:51Z</time>
      </trkpt>
      <trkpt lat="45.63103" lon="4.4377">
        <ele>564.9</ele>
        <time>2017-03-19T09:40:52Z</time>
      </trkpt>
      <trkpt lat="45.63103" lon="4.4376">
        <ele>564.9</ele>
        <time>2017-03-19T09:40:53Z</time>
      </trkpt>
      <trkpt lat="45.63102" lon="4.43752">
        <ele>564.9</ele>
        <time>2017-03-19T09:40:54Z</time>
      </trkpt>
      <trkpt lat="45.63102" lon="4.43742">
        <ele>564.8</ele>
        <time>2017-03-19T09:40:55Z</time>
      </trkpt>
      <trkpt lat="45.63101" lon="4.43733">
        <ele>564.7</ele>
        <time>2017-03-19T09:40:56Z</time>
      </trkpt>
      <trkpt lat="45.63101" lon="4.43724">
        <ele>564.7</ele>
        <time>2017-03-19T09:40:57Z</time>
      </trkpt>
      <trkpt lat="45.631" lon="4.43714">
        <ele>564.6</ele>
        <time>2017-03-19T09:40:58Z</time>
      </trkpt>
      <trkpt lat="45.631" lon="4.43704">
        <ele>564.5</ele>
        <time>2017-03-19T09:40:59Z</time>
      </trkpt>
      <trkpt lat="45.631" lon="4.43695">
        <ele>564.5</ele>
        <time>2017-03-19T09:41:00Z</time>
      </trkpt>
      <trkpt lat="45.63099" lon="4.43686">
        <ele>564.4</ele>
        <time>2017-03-19T09:41:01Z</time>
      </trkpt>
      <trkpt lat="45.63099" lon="4.43677">
        <ele>564.3</ele>
        <time>2017-03-19T09:41:02Z</time>
      </trkpt>
      <trkpt lat="45.631" lon="4.43668">
        <ele>564.2</ele>
        <time>2017-03-19T09:41:03Z</time>
      </trkpt>
      <trkpt lat="45.63101" lon="4.43659">
        <ele>564</ele>
        <time>2017-03-19T09:41:04Z</time>
      </trkpt>
      <trkpt lat="45.63103" lon="4.43651">
        <ele>563.9</ele>
        <time>2017-03-19T09:41:05Z</time>
      </trkpt>
      <trkpt lat="45.63103" lon="4.43642">
        <ele>563.8</ele>
        <time>2017-03-19T09:41:06Z</time>
      </trkpt>
      <trkpt lat="45.63104" lon="4.43632">
        <ele>563.7</ele>
        <time>2017-03-19T09:41:07Z</time>
      </trkpt>
      <trkpt lat="45.63105" lon="4.43622">
        <ele>563.6</ele>
        <time>2017-03-19T09:41:08Z</time>
      </trkpt>
      <trkpt lat="45.63106" lon="4.43612">
        <ele>563.5</ele>
        <time>2017-03-19T09:41:09Z</time>
      </trkpt>
      <trkpt lat="45.63107" lon="4.43603">
        <ele>563.4</ele>
        <time>2017-03-19T09:41:10Z</time>
      </trkpt>
      <trkpt lat="45.63108" lon="4.43593">
        <ele>563.3</ele>
        <time>2017-03-19T09:41:11Z</time>
      </trkpt>
      <trkpt lat="45.6311" lon="4.43584">
        <ele>563.2</ele>
        <time>2017-03-19T09:41:12Z</time>
      </trkpt>
      <trkpt lat="45.63111" lon="4.43575">
        <ele>563.1</ele>
        <time>2017-03-19T09:41:13Z</time>
      </trkpt>
      <trkpt lat="45.63112" lon="4.43564">
        <ele>562.6</ele>
        <time>2017-03-19T09:41:14Z</time>
      </trkpt>
      <trkpt lat="45.63114" lon="4.43554">
        <ele>562.2</ele>
        <time>2017-03-19T09:41:15Z</time>
      </trkpt>
      <trkpt lat="45.63115" lon="4.43544">
        <ele>561.9</ele>
        <time>2017-03-19T09:41:16Z</time>
      </trkpt>
      <trkpt lat="45.63117" lon="4.43534">
        <ele>561.7</ele>
        <time>2017-03-19T09:41:17Z</time>
      </trkpt>
      <trkpt lat="45.63118" lon="4.43525">
        <ele>561.5</ele>
        <time>2017-03-19T09:41:18Z</time>
      </trkpt>
      <trkpt lat="45.6312" lon="4.43516">
        <ele>561.2</ele>
        <time>2017-03-19T09:41:19Z</time>
      </trkpt>
      <trkpt lat="45.63122" lon="4.43506">
        <ele>561</ele>
        <time>2017-03-19T09:41:20Z</time>
      </trkpt>
      <trkpt lat="45.63124" lon="4.43497">
        <ele>560.7</ele>
        <time>2017-03-19T09:41:21Z</time>
      </trkpt>
      <trkpt lat="45.63126" lon="4.43487">
        <ele>560.1</ele>
        <time>2017-03-19T09:41:22Z</time>
      </trkpt>
      <trkpt lat="45.63127" lon="4.43477">
        <ele>559.5</ele>
        <time>2017-03-19T09:41:23Z</time>
      </trkpt>
      <trkpt lat="45.6313" lon="4.43468">
        <ele>559.1</ele>
        <time>2017-03-19T09:41:24Z</time>
      </trkpt>
      <trkpt lat="45.63132" lon="4.43458">
        <ele>558.9</ele>
        <time>2017-03-19T09:41:25Z</time>
      </trkpt>
      <trkpt lat="45.63134" lon="4.43449">
        <ele>558.8</ele>
        <time>2017-03-19T09:41:26Z</time>
      </trkpt>
      <trkpt lat="45.63135" lon="4.43439">
        <ele>558.6</ele>
        <time>2017-03-19T09:41:27Z</time>
      </trkpt>
      <trkpt lat="45.63137" lon="4.43429">
        <ele>558.5</ele>
        <time>2017-03-19T09:41:28Z</time>
      </trkpt>
      <trkpt lat="45.63139" lon="4.43419">
        <ele>558.4</ele>
        <time>2017-03-19T09:41:29Z</time>
      </trkpt>
      <trkpt lat="45.6314" lon="4.4341">
        <ele>558.1</ele>
        <time>2017-03-19T09:41:30Z</time>
      </trkpt>
      <trkpt lat="45.63141" lon="4.43401">
        <ele>557.7</ele>
        <time>2017-03-19T09:41:31Z</time>
      </trkpt>
      <trkpt lat="45.63143" lon="4.43393">
        <ele>557.2</ele>
        <time>2017-03-19T09:41:32Z</time>
      </trkpt>
      <trkpt lat="45.63144" lon="4.43383">
        <ele>556.6</ele>
        <time>2017-03-19T09:41:33Z</time>
      </trkpt>
      <trkpt lat="45.63147" lon="4.43374">
        <ele>556.4</ele>
        <time>2017-03-19T09:41:34Z</time>
      </trkpt>
      <trkpt lat="45.6315" lon="4.43365">
        <ele>556.2</ele>
        <time>2017-03-19T09:41:35Z</time>
      </trkpt>
      <trkpt lat="45.63152" lon="4.43355">
        <ele>556</ele>
        <time>2017-03-19T09:41:36Z</time>
      </trkpt>
      <trkpt lat="45.63152" lon="4.43346">
        <ele>555.8</ele>
        <time>2017-03-19T09:41:37Z</time>
      </trkpt>
      <trkpt lat="45.63154" lon="4.43337">
        <ele>555.7</ele>
        <time>2017-03-19T09:41:38Z</time>
      </trkpt>
      <trkpt lat="45.63155" lon="4.43327">
        <ele>555.5</ele>
        <time>2017-03-19T09:41:39Z</time>
      </trkpt>
      <trkpt lat="45.63156" lon="4.43317">
        <ele>555.4</ele>
        <time>2017-03-19T09:41:40Z</time>
      </trkpt>
      <trkpt lat="45.63157" lon="4.43308">
        <ele>555.1</ele>
        <time>2017-03-19T09:41:41Z</time>
      </trkpt>
      <trkpt lat="45.63159" lon="4.43298">
        <ele>554.5</ele>
        <time>2017-03-19T09:41:42Z</time>
      </trkpt>
      <trkpt lat="45.6316" lon="4.43288">
        <ele>554.1</ele>
        <time>2017-03-19T09:41:43Z</time>
      </trkpt>
      <trkpt lat="45.63161" lon="4.43278">
        <ele>553.8</ele>
        <time>2017-03-19T09:41:44Z</time>
      </trkpt>
      <trkpt lat="45.63162" lon="4.43268">
        <ele>553.6</ele>
        <time>2017-03-19T09:41:45Z</time>
      </trkpt>
      <trkpt lat="45.63161" lon="4.43258">
        <ele>553.5</ele>
        <time>2017-03-19T09:41:46Z</time>
      </trkpt>
      <trkpt lat="45.63161" lon="4.43248">
        <ele>553.3</ele>
        <time>2017-03-19T09:41:47Z</time>
      </trkpt>
      <trkpt lat="45.63161" lon="4.43237">
        <ele>553.1</ele>
        <time>2017-03-19T09:41:48Z</time>
      </trkpt>
      <trkpt lat="45.63162" lon="4.43227">
        <ele>553</ele>
        <time>2017-03-19T09:41:49Z</time>
      </trkpt>
      <trkpt lat="45.63161" lon="4.43217">
        <ele>552.7</ele>
        <time>2017-03-19T09:41:50Z</time>
      </trkpt>
      <trkpt lat="45.63161" lon="4.43206">
        <ele>552.5</ele>
        <time>2017-03-19T09:41:51Z</time>
      </trkpt>
      <trkpt lat="45.63162" lon="4.43197">
        <ele>552.2</ele>
        <time>2017-03-19T09:41:52Z</time>
      </trkpt>
      <trkpt lat="45.63162" lon="4.43186">
        <ele>551.7</ele>
        <time>2017-03-19T09:41:53Z</time>
      </trkpt>
      <trkpt lat="45.63162" lon="4.43176">
        <ele>551.2</ele>
        <time>2017-03-19T09:41:54Z</time>
      </trkpt>
      <trkpt lat="45.63161" lon="4.43166">
        <ele>551.1</ele>
        <time>2017-03-19T09:41:55Z</time>
      </trkpt>
      <trkpt lat="45.63161" lon="4.43156">
        <ele>550.9</ele>
        <time>2017-03-19T09:41:56Z</time>
      </trkpt>
      <trkpt lat="45.63161" lon="4.43146">
        <ele>550.7</ele>
        <time>2017-03-19T09:41:57Z</time>
      </trkpt>
      <trkpt lat="45.63161" lon="4.43135">
        <ele>550.6</ele>
        <time>2017-03-19T09:41:58Z</time>
      </trkpt>
      <trkpt lat="45.63161" lon="4.43125">
        <ele>550.4</ele>
        <time>2017-03-19T09:41:59Z</time>
      </trkpt>
      <trkpt lat="45.63161" lon="4.43114">
        <ele>550.1</ele>
        <time>2017-03-19T09:42:00Z</time>
      </trkpt>
      <trkpt lat="45.63161" lon="4.43105">
        <ele>549.7</ele>
        <time>2017-03-19T09:42:01Z</time>
      </trkpt>
      <trkpt lat="45.63162" lon="4.43096">
        <ele>549.2</ele>
        <time>2017-03-19T09:42:02Z</time>
      </trkpt>
      <trkpt lat="45.63164" lon="4.43088">
        <ele>548.7</ele>
        <time>2017-03-19T09:42:03Z</time>
      </trkpt>
      <trkpt lat="45.63168" lon="4.43084">
        <ele>548.5</ele>
        <time>2017-03-19T09:42:04Z</time>
      </trkpt>
      <trkpt lat="45.63171" lon="4.43082">
        <ele>548.4</ele>
        <time>2017-03-19T09:42:05Z</time>
      </trkpt>
      <trkpt lat="45.63174" lon="4.43081">
        <ele>548.5</ele>
        <time>2017-03-19T09:42:06Z</time>
      </trkpt>
      <trkpt lat="45.63178" lon="4.4308">
        <ele>548.8</ele>
        <time>2017-03-19T09:42:07Z</time>
      </trkpt>
      <trkpt lat="45.63182" lon="4.4308">
        <ele>548.9</ele>
        <time>2017-03-19T09:42:08Z</time>
      </trkpt>
      <trkpt lat="45.63187" lon="4.43079">
        <ele>549.1</ele>
        <time>2017-03-19T09:42:09Z</time>
      </trkpt>
      <trkpt lat="45.6319" lon="4.43078">
        <ele>549.5</ele>
        <time>2017-03-19T09:42:10Z</time>
      </trkpt>
      <trkpt lat="45.63194" lon="4.43078">
        <ele>549.7</ele>
        <time>2017-03-19T09:42:11Z</time>
      </trkpt>
      <trkpt lat="45.63198" lon="4.43076">
        <ele>549.9</ele>
        <time>2017-03-19T09:42:12Z</time>
      </trkpt>
      <trkpt lat="45.63203" lon="4.43074">
        <ele>550.4</ele>
        <time>2017-03-19T09:42:13Z</time>
      </trkpt>
      <trkpt lat="45.63208" lon="4.43075">
        <ele>550.7</ele>
        <time>2017-03-19T09:42:14Z</time>
      </trkpt>
      <trkpt lat="45.63213" lon="4.43074">
        <ele>551.2</ele>
        <time>2017-03-19T09:42:15Z</time>
      </trkpt>
      <trkpt lat="45.63217" lon="4.43073">
        <ele>551.7</ele>
        <time>2017-03-19T09:42:16Z</time>
      </trkpt>
      <trkpt lat="45.63221" lon="4.43071">
        <ele>551.9</ele>
        <time>2017-03-19T09:42:17Z</time>
      </trkpt>
      <trkpt lat="45.63225" lon="4.43068">
        <ele>552.2</ele>
        <time>2017-03-19T09:42:18Z</time>
      </trkpt>
      <trkpt lat="45.6323" lon="4.43065">
        <ele>552.7</ele>
        <time>2017-03-19T09:42:19Z</time>
      </trkpt>
      <trkpt lat="45.63234" lon="4.43061">
        <ele>553</ele>
        <time>2017-03-19T09:42:20Z</time>
      </trkpt>
      <trkpt lat="45.63238" lon="4.43058">
        <ele>553.4</ele>
        <time>2017-03-19T09:42:21Z</time>
      </trkpt>
      <trkpt lat="45.63243" lon="4.43054">
        <ele>553.6</ele>
        <time>2017-03-19T09:42:22Z</time>
      </trkpt>
      <trkpt lat="45.63247" lon="4.4305">
        <ele>553.7</ele>
        <time>2017-03-19T09:42:23Z</time>
      </trkpt>
      <trkpt lat="45.63251" lon="4.43046">
        <ele>553.7</ele>
        <time>2017-03-19T09:42:24Z</time>
      </trkpt>
      <trkpt lat="45.63255" lon="4.43043">
        <ele>553.5</ele>
        <time>2017-03-19T09:42:25Z</time>
      </trkpt>
      <trkpt lat="45.6326" lon="4.43042">
        <ele>552.9</ele>
        <time>2017-03-19T09:42:26Z</time>
      </trkpt>
      <trkpt lat="45.63265" lon="4.43044">
        <ele>552.1</ele>
        <time>2017-03-19T09:42:27Z</time>
      </trkpt>
      <trkpt lat="45.63269" lon="4.43048">
        <ele>551.9</ele>
        <time>2017-03-19T09:42:28Z</time>
      </trkpt>
      <trkpt lat="45.63273" lon="4.43053">
        <ele>551.7</ele>
        <time>2017-03-19T09:42:29Z</time>
      </trkpt>
      <trkpt lat="45.63277" lon="4.43059">
        <ele>551.2</ele>
        <time>2017-03-19T09:42:30Z</time>
      </trkpt>
      <trkpt lat="45.63282" lon="4.43064">
        <ele>551</ele>
        <time>2017-03-19T09:42:31Z</time>
      </trkpt>
      <trkpt lat="45.63288" lon="4.43068">
        <ele>550.5</ele>
        <time>2017-03-19T09:42:32Z</time>
      </trkpt>
      <trkpt lat="45.63296" lon="4.43071">
        <ele>549.8</ele>
        <time>2017-03-19T09:42:33Z</time>
      </trkpt>
      <trkpt lat="45.63305" lon="4.43072">
        <ele>548.9</ele>
        <time>2017-03-19T09:42:34Z</time>
      </trkpt>
      <trkpt lat="45.63312" lon="4.43072">
        <ele>548.4</ele>
        <time>2017-03-19T09:42:35Z</time>
      </trkpt>
      <trkpt lat="45.6332" lon="4.43071">
        <ele>547.7</ele>
        <time>2017-03-19T09:42:36Z</time>
      </trkpt>
      <trkpt lat="45.63328" lon="4.43069">
        <ele>546.7</ele>
        <time>2017-03-19T09:42:37Z</time>
      </trkpt>
      <trkpt lat="45.63336" lon="4.43068">
        <ele>546.6</ele>
        <time>2017-03-19T09:42:38Z</time>
      </trkpt>
      <trkpt lat="45.63344" lon="4.4307">
        <ele>546.2</ele>
        <time>2017-03-19T09:42:39Z</time>
      </trkpt>
      <trkpt lat="45.6335" lon="4.43074">
        <ele>546.1</ele>
        <time>2017-03-19T09:42:40Z</time>
      </trkpt>
      <trkpt lat="45.63354" lon="4.43082">
        <ele>546.4</ele>
        <time>2017-03-19T09:42:41Z</time>
      </trkpt>
      <trkpt lat="45.63356" lon="4.43092">
        <ele>546.6</ele>
        <time>2017-03-19T09:42:42Z</time>
      </trkpt>
      <trkpt lat="45.63357" lon="4.43101">
        <ele>547</ele>
        <time>2017-03-19T09:42:43Z</time>
      </trkpt>
      <trkpt lat="45.63356" lon="4.43108">
        <ele>547.4</ele>
        <time>2017-03-19T09:42:44Z</time>
      </trkpt>
      <trkpt lat="45.63355" lon="4.43112">
        <ele>547.6</ele>
        <time>2017-03-19T09:42:45Z</time>
      </trkpt>
      <trkpt lat="45.63357" lon="4.43108">
        <ele>547.5</ele>
        <time>2017-03-19T09:42:51Z</time>
      </trkpt>
      <trkpt lat="45.63358" lon="4.43102">
        <ele>547.2</ele>
        <time>2017-03-19T09:42:53Z</time>
      </trkpt>
      <trkpt lat="45.63359" lon="4.43095">
        <ele>546.9</ele>
        <time>2017-03-19T09:42:55Z</time>
      </trkpt>
      <trkpt lat="45.63359" lon="4.4309">
        <ele>546.8</ele>
        <time>2017-03-19T09:42:57Z</time>
      </trkpt>
      <trkpt lat="45.63361" lon="4.43086">
        <ele>546.5</ele>
        <time>2017-03-19T09:42:59Z</time>
      </trkpt>
      <trkpt lat="45.63365" lon="4.43081">
        <ele>546.2</ele>
        <time>2017-03-19T09:43:01Z</time>
      </trkpt>
      <trkpt lat="45.63367" lon="4.43078">
        <ele>546.1</ele>
        <time>2017-03-19T09:43:02Z</time>
      </trkpt>
      <trkpt lat="45.63369" lon="4.43073">
        <ele>545.8</ele>
        <time>2017-03-19T09:43:03Z</time>
      </trkpt>
      <trkpt lat="45.6337" lon="4.43068">
        <ele>545.5</ele>
        <time>2017-03-19T09:43:04Z</time>
      </trkpt>
      <trkpt lat="45.63371" lon="4.43061">
        <ele>545.4</ele>
        <time>2017-03-19T09:43:05Z</time>
      </trkpt>
      <trkpt lat="45.6337" lon="4.43055">
        <ele>545.5</ele>
        <time>2017-03-19T09:43:06Z</time>
      </trkpt>
      <trkpt lat="45.63369" lon="4.4305">
        <ele>545.7</ele>
        <time>2017-03-19T09:43:07Z</time>
      </trkpt>
      <trkpt lat="45.63367" lon="4.43046">
        <ele>545.7</ele>
        <time>2017-03-19T09:43:08Z</time>
      </trkpt>
      <trkpt lat="45.63366" lon="4.43042">
        <ele>545.8</ele>
        <time>2017-03-19T09:43:09Z</time>
      </trkpt>
      <trkpt lat="45.63365" lon="4.43038">
        <ele>545.8</ele>
        <time>2017-03-19T09:43:10Z</time>
      </trkpt>
      <trkpt lat="45.63364" lon="4.43032">
        <ele>545.4</ele>
        <time>2017-03-19T09:43:12Z</time>
      </trkpt>
      <trkpt lat="45.63366" lon="4.43027">
        <ele>545.2</ele>
        <time>2017-03-19T09:43:14Z</time>
      </trkpt>
      <trkpt lat="45.6337" lon="4.43022">
        <ele>544.9</ele>
        <time>2017-03-19T09:43:16Z</time>
      </trkpt>
      <trkpt lat="45.63373" lon="4.43019">
        <ele>544.7</ele>
        <time>2017-03-19T09:43:17Z</time>
      </trkpt>
      <trkpt lat="45.63376" lon="4.43016">
        <ele>544.8</ele>
        <time>2017-03-19T09:43:18Z</time>
      </trkpt>
      <trkpt lat="45.63379" lon="4.43013">
        <ele>544.7</ele>
        <time>2017-03-19T09:43:19Z</time>
      </trkpt>
      <trkpt lat="45.63382" lon="4.4301">
        <ele>544.7</ele>
        <time>2017-03-19T09:43:20Z</time>
      </trkpt>
      <trkpt lat="45.63384" lon="4.43008">
        <ele>544.8</ele>
        <time>2017-03-19T09:43:21Z</time>
      </trkpt>
      <trkpt lat="45.63387" lon="4.43005">
        <ele>544.8</ele>
        <time>2017-03-19T09:43:22Z</time>
      </trkpt>
      <trkpt lat="45.6339" lon="4.43">
        <ele>544.9</ele>
        <time>2017-03-19T09:43:24Z</time>
      </trkpt>
      <trkpt lat="45.63393" lon="4.42996">
        <ele>545</ele>
        <time>2017-03-19T09:43:26Z</time>
      </trkpt>
      <trkpt lat="45.63396" lon="4.42991">
        <ele>545.2</ele>
        <time>2017-03-19T09:43:28Z</time>
      </trkpt>
      <trkpt lat="45.63399" lon="4.42985">
        <ele>545.4</ele>
        <time>2017-03-19T09:43:30Z</time>
      </trkpt>
      <trkpt lat="45.63399" lon="4.42979">
        <ele>545.3</ele>
        <time>2017-03-19T09:43:32Z</time>
      </trkpt>
      <trkpt lat="45.63399" lon="4.42973">
        <ele>545.4</ele>
        <time>2017-03-19T09:43:34Z</time>
      </trkpt>
      <trkpt lat="45.63399" lon="4.42968">
        <ele>545.6</ele>
        <time>2017-03-19T09:43:36Z</time>
      </trkpt>
      <trkpt lat="45.634" lon="4.42962">
        <ele>545.9</ele>
        <time>2017-03-19T09:43:38Z</time>
      </trkpt>
      <trkpt lat="45.634" lon="4.42956">
        <ele>546.7</ele>
        <time>2017-03-19T09:43:40Z</time>
      </trkpt>
      <trkpt lat="45.63401" lon="4.42949">
        <ele>547.2</ele>
        <time>2017-03-19T09:43:42Z</time>
      </trkpt>
      <trkpt lat="45.63401" lon="4.42943">
        <ele>547.3</ele>
        <time>2017-03-19T09:43:44Z</time>
      </trkpt>
      <trkpt lat="45.634" lon="4.42937">
        <ele>547.5</ele>
        <time>2017-03-19T09:43:46Z</time>
      </trkpt>
      <trkpt lat="45.63398" lon="4.42929">
        <ele>547.1</ele>
        <time>2017-03-19T09:43:48Z</time>
      </trkpt>
      <trkpt lat="45.63398" lon="4.42923">
        <ele>547.1</ele>
        <time>2017-03-19T09:43:50Z</time>
      </trkpt>
      <trkpt lat="45.63397" lon="4.42918">
        <ele>547.1</ele>
        <time>2017-03-19T09:43:51Z</time>
      </trkpt>
      <trkpt lat="45.63396" lon="4.42913">
        <ele>546.7</ele>
        <time>2017-03-19T09:43:52Z</time>
      </trkpt>
      <trkpt lat="45.63395" lon="4.42908">
        <ele>546.7</ele>
        <time>2017-03-19T09:43:53Z</time>
      </trkpt>
      <trkpt lat="45.63393" lon="4.42904">
        <ele>546.3</ele>
        <time>2017-03-19T09:43:54Z</time>
      </trkpt>
      <trkpt lat="45.63392" lon="4.429">
        <ele>546.4</ele>
        <time>2017-03-19T09:43:55Z</time>
      </trkpt>
      <trkpt lat="45.6339" lon="4.42896">
        <ele>546.1</ele>
        <time>2017-03-19T09:43:56Z</time>
      </trkpt>
      <trkpt lat="45.63387" lon="4.42892">
        <ele>546</ele>
        <time>2017-03-19T09:43:57Z</time>
      </trkpt>
      <trkpt lat="45.63385" lon="4.42888">
        <ele>546.1</ele>
        <time>2017-03-19T09:43:58Z</time>
      </trkpt>
      <trkpt lat="45.63382" lon="4.42883">
        <ele>546</ele>
        <time>2017-03-19T09:43:59Z</time>
      </trkpt>
      <trkpt lat="45.6338" lon="4.42879">
        <ele>545.9</ele>
        <time>2017-03-19T09:44:00Z</time>
      </trkpt>
      <trkpt lat="45.63379" lon="4.42874">
        <ele>545.7</ele>
        <time>2017-03-19T09:44:01Z</time>
      </trkpt>
      <trkpt lat="45.63377" lon="4.42869">
        <ele>545.9</ele>
        <time>2017-03-19T09:44:02Z</time>
      </trkpt>
      <trkpt lat="45.63375" lon="4.42865">
        <ele>545.4</ele>
        <time>2017-03-19T09:44:03Z</time>
      </trkpt>
      <trkpt lat="45.63373" lon="4.42862">
        <ele>545.4</ele>
        <time>2017-03-19T09:44:04Z</time>
      </trkpt>
      <trkpt lat="45.6337" lon="4.42858">
        <ele>544.8</ele>
        <time>2017-03-19T09:44:05Z</time>
      </trkpt>
      <trkpt lat="45.63367" lon="4.42854">
        <ele>543.5</ele>
        <time>2017-03-19T09:44:06Z</time>
      </trkpt>
      <trkpt lat="45.63364" lon="4.42851">
        <ele>542.8</ele>
        <time>2017-03-19T09:44:07Z</time>
      </trkpt>
      <trkpt lat="45.6336" lon="4.42847">
        <ele>542.2</ele>
        <time>2017-03-19T09:44:08Z</time>
      </trkpt>
      <trkpt lat="45.63354" lon="4.42841">
        <ele>540.9</ele>
        <time>2017-03-19T09:44:09Z</time>
      </trkpt>
      <trkpt lat="45.63349" lon="4.42838">
        <ele>540.3</ele>
        <time>2017-03-19T09:44:10Z</time>
      </trkpt>
      <trkpt lat="45.63344" lon="4.42836">
        <ele>539.2</ele>
        <time>2017-03-19T09:44:11Z</time>
      </trkpt>
      <trkpt lat="45.6334" lon="4.42835">
        <ele>538.8</ele>
        <time>2017-03-19T09:44:12Z</time>
      </trkpt>
      <trkpt lat="45.63337" lon="4.42835">
        <ele>538.4</ele>
        <time>2017-03-19T09:44:13Z</time>
      </trkpt>
      <trkpt lat="45.63334" lon="4.4283">
        <ele>538</ele>
        <time>2017-03-19T09:44:15Z</time>
      </trkpt>
      <trkpt lat="45.63331" lon="4.42824">
        <ele>537.7</ele>
        <time>2017-03-19T09:44:17Z</time>
      </trkpt>
      <trkpt lat="45.63329" lon="4.42819">
        <ele>537.4</ele>
        <time>2017-03-19T09:44:19Z</time>
      </trkpt>
      <trkpt lat="45.63328" lon="4.42814">
        <ele>537.1</ele>
        <time>2017-03-19T09:44:20Z</time>
      </trkpt>
      <trkpt lat="45.63326" lon="4.42809">
        <ele>536.6</ele>
        <time>2017-03-19T09:44:21Z</time>
      </trkpt>
      <trkpt lat="45.63325" lon="4.42803">
        <ele>536.2</ele>
        <time>2017-03-19T09:44:22Z</time>
      </trkpt>
      <trkpt lat="45.63324" lon="4.42798">
        <ele>535.9</ele>
        <time>2017-03-19T09:44:23Z</time>
      </trkpt>
      <trkpt lat="45.63324" lon="4.42793">
        <ele>535.6</ele>
        <time>2017-03-19T09:44:24Z</time>
      </trkpt>
      <trkpt lat="45.63323" lon="4.42788">
        <ele>535.4</ele>
        <time>2017-03-19T09:44:25Z</time>
      </trkpt>
      <trkpt lat="45.63321" lon="4.42781">
        <ele>535.4</ele>
        <time>2017-03-19T09:44:26Z</time>
      </trkpt>
      <trkpt lat="45.6332" lon="4.42775">
        <ele>535.4</ele>
        <time>2017-03-19T09:44:27Z</time>
      </trkpt>
      <trkpt lat="45.63319" lon="4.42768">
        <ele>535.6</ele>
        <time>2017-03-19T09:44:28Z</time>
      </trkpt>
      <trkpt lat="45.63318" lon="4.42763">
        <ele>535.7</ele>
        <time>2017-03-19T09:44:29Z</time>
      </trkpt>
      <trkpt lat="45.63316" lon="4.42759">
        <ele>535.9</ele>
        <time>2017-03-19T09:44:30Z</time>
      </trkpt>
      <trkpt lat="45.63312" lon="4.42758">
        <ele>536.1</ele>
        <time>2017-03-19T09:44:32Z</time>
      </trkpt>
      <trkpt lat="45.63309" lon="4.42761">
        <ele>535.9</ele>
        <time>2017-03-19T09:44:33Z</time>
      </trkpt>
      <trkpt lat="45.63307" lon="4.42772">
        <ele>535.5</ele>
        <time>2017-03-19T09:44:34Z</time>
      </trkpt>
      <trkpt lat="45.63307" lon="4.42778">
        <ele>535.4</ele>
        <time>2017-03-19T09:44:35Z</time>
      </trkpt>
      <trkpt lat="45.63308" lon="4.42784">
        <ele>535.4</ele>
        <time>2017-03-19T09:44:36Z</time>
      </trkpt>
      <trkpt lat="45.63309" lon="4.42792">
        <ele>536.1</ele>
        <time>2017-03-19T09:44:37Z</time>
      </trkpt>
      <trkpt lat="45.63311" lon="4.42802">
        <ele>537.2</ele>
        <time>2017-03-19T09:44:38Z</time>
      </trkpt>
      <trkpt lat="45.63313" lon="4.42812">
        <ele>538</ele>
        <time>2017-03-19T09:44:39Z</time>
      </trkpt>
      <trkpt lat="45.6331" lon="4.42822">
        <ele>539.1</ele>
        <time>2017-03-19T09:44:40Z</time>
      </trkpt>
      <trkpt lat="45.6331" lon="4.42831">
        <ele>539.3</ele>
        <time>2017-03-19T09:44:41Z</time>
      </trkpt>
      <trkpt lat="45.63311" lon="4.42838">
        <ele>539.6</ele>
        <time>2017-03-19T09:44:42Z</time>
      </trkpt>
      <trkpt lat="45.63303" lon="4.42838">
        <ele>540.6</ele>
        <time>2017-03-19T09:44:43Z</time>
      </trkpt>
      <trkpt lat="45.63298" lon="4.4284">
        <ele>541.3</ele>
        <time>2017-03-19T09:44:44Z</time>
      </trkpt>
      <trkpt lat="45.63295" lon="4.42838">
        <ele>541.3</ele>
        <time>2017-03-19T09:44:45Z</time>
      </trkpt>
      <trkpt lat="45.63293" lon="4.42834">
        <ele>541.4</ele>
        <time>2017-03-19T09:44:46Z</time>
      </trkpt>
      <trkpt lat="45.63292" lon="4.42829">
        <ele>540.7</ele>
        <time>2017-03-19T09:44:47Z</time>
      </trkpt>
      <trkpt lat="45.63291" lon="4.42824">
        <ele>540.6</ele>
        <time>2017-03-19T09:44:48Z</time>
      </trkpt>
      <trkpt lat="45.63288" lon="4.42818">
        <ele>539.7</ele>
        <time>2017-03-19T09:44:49Z</time>
      </trkpt>
      <trkpt lat="45.63284" lon="4.42811">
        <ele>539.6</ele>
        <time>2017-03-19T09:44:50Z</time>
      </trkpt>
      <trkpt lat="45.63284" lon="4.42807">
        <ele>539</ele>
        <time>2017-03-19T09:44:51Z</time>
      </trkpt>
      <trkpt lat="45.63285" lon="4.428">
        <ele>538.6</ele>
        <time>2017-03-19T09:44:52Z</time>
      </trkpt>
      <trkpt lat="45.63282" lon="4.42797">
        <ele>539</ele>
        <time>2017-03-19T09:44:53Z</time>
      </trkpt>
      <trkpt lat="45.63283" lon="4.42788">
        <ele>538.4</ele>
        <time>2017-03-19T09:44:54Z</time>
      </trkpt>
      <trkpt lat="45.63281" lon="4.42781">
        <ele>539.5</ele>
        <time>2017-03-19T09:44:55Z</time>
      </trkpt>
      <trkpt lat="45.63281" lon="4.42773">
        <ele>539.8</ele>
        <time>2017-03-19T09:44:56Z</time>
      </trkpt>
      <trkpt lat="45.63282" lon="4.42763">
        <ele>539.7</ele>
        <time>2017-03-19T09:44:57Z</time>
      </trkpt>
      <trkpt lat="45.63283" lon="4.42757">
        <ele>538.7</ele>
        <time>2017-03-19T09:44:58Z</time>
      </trkpt>
      <trkpt lat="45.63284" lon="4.42749">
        <ele>538.3</ele>
        <time>2017-03-19T09:44:59Z</time>
      </trkpt>
      <trkpt lat="45.63286" lon="4.42743">
        <ele>537.3</ele>
        <time>2017-03-19T09:45:00Z</time>
      </trkpt>
      <trkpt lat="45.63287" lon="4.42738">
        <ele>536.9</ele>
        <time>2017-03-19T09:45:01Z</time>
      </trkpt>
      <trkpt lat="45.63289" lon="4.42734">
        <ele>535.7</ele>
        <time>2017-03-19T09:45:02Z</time>
      </trkpt>
      <trkpt lat="45.6329" lon="4.42729">
        <ele>535.2</ele>
        <time>2017-03-19T09:45:03Z</time>
      </trkpt>
      <trkpt lat="45.6329" lon="4.42723">
        <ele>534.3</ele>
        <time>2017-03-19T09:45:04Z</time>
      </trkpt>
      <trkpt lat="45.63289" lon="4.42716">
        <ele>533.8</ele>
        <time>2017-03-19T09:45:05Z</time>
      </trkpt>
      <trkpt lat="45.63289" lon="4.42713">
        <ele>534.1</ele>
        <time>2017-03-19T09:45:06Z</time>
      </trkpt>
      <trkpt lat="45.63286" lon="4.42707">
        <ele>533.6</ele>
        <time>2017-03-19T09:45:07Z</time>
      </trkpt>
      <trkpt lat="45.63285" lon="4.42699">
        <ele>533.6</ele>
        <time>2017-03-19T09:45:09Z</time>
      </trkpt>
      <trkpt lat="45.63283" lon="4.42696">
        <ele>533.3</ele>
        <time>2017-03-19T09:45:10Z</time>
      </trkpt>
      <trkpt lat="45.6328" lon="4.4269">
        <ele>533.8</ele>
        <time>2017-03-19T09:45:12Z</time>
      </trkpt>
      <trkpt lat="45.63276" lon="4.42686">
        <ele>535</ele>
        <time>2017-03-19T09:45:14Z</time>
      </trkpt>
      <trkpt lat="45.63273" lon="4.4268">
        <ele>535.5</ele>
        <time>2017-03-19T09:45:16Z</time>
      </trkpt>
      <trkpt lat="45.63271" lon="4.42676">
        <ele>535.3</ele>
        <time>2017-03-19T09:45:17Z</time>
      </trkpt>
      <trkpt lat="45.63269" lon="4.42671">
        <ele>535.6</ele>
        <time>2017-03-19T09:45:18Z</time>
      </trkpt>
      <trkpt lat="45.63267" lon="4.42667">
        <ele>535.9</ele>
        <time>2017-03-19T09:45:19Z</time>
      </trkpt>
      <trkpt lat="45.63264" lon="4.42663">
        <ele>536</ele>
        <time>2017-03-19T09:45:20Z</time>
      </trkpt>
      <trkpt lat="45.63262" lon="4.42659">
        <ele>535.8</ele>
        <time>2017-03-19T09:45:21Z</time>
      </trkpt>
      <trkpt lat="45.6326" lon="4.42656">
        <ele>535.7</ele>
        <time>2017-03-19T09:45:22Z</time>
      </trkpt>
      <trkpt lat="45.63257" lon="4.42652">
        <ele>535.5</ele>
        <time>2017-03-19T09:45:23Z</time>
      </trkpt>
      <trkpt lat="45.63254" lon="4.42648">
        <ele>535.3</ele>
        <time>2017-03-19T09:45:24Z</time>
      </trkpt>
      <trkpt lat="45.63251" lon="4.42645">
        <ele>534.9</ele>
        <time>2017-03-19T09:45:25Z</time>
      </trkpt>
      <trkpt lat="45.63247" lon="4.42641">
        <ele>534.6</ele>
        <time>2017-03-19T09:45:26Z</time>
      </trkpt>
      <trkpt lat="45.63239" lon="4.42635">
        <ele>535</ele>
        <time>2017-03-19T09:45:27Z</time>
      </trkpt>
      <trkpt lat="45.63236" lon="4.42631">
        <ele>534.7</ele>
        <time>2017-03-19T09:45:28Z</time>
      </trkpt>
      <trkpt lat="45.63232" lon="4.42624">
        <ele>533.8</ele>
        <time>2017-03-19T09:45:29Z</time>
      </trkpt>
      <trkpt lat="45.63228" lon="4.42618">
        <ele>533.7</ele>
        <time>2017-03-19T09:45:30Z</time>
      </trkpt>
      <trkpt lat="45.63225" lon="4.42607">
        <ele>532.7</ele>
        <time>2017-03-19T09:45:31Z</time>
      </trkpt>
      <trkpt lat="45.63224" lon="4.42601">
        <ele>532</ele>
        <time>2017-03-19T09:45:32Z</time>
      </trkpt>
      <trkpt lat="45.63221" lon="4.42595">
        <ele>531.8</ele>
        <time>2017-03-19T09:45:33Z</time>
      </trkpt>
      <trkpt lat="45.63218" lon="4.4259">
        <ele>531.1</ele>
        <time>2017-03-19T09:45:34Z</time>
      </trkpt>
      <trkpt lat="45.63213" lon="4.42585">
        <ele>531.5</ele>
        <time>2017-03-19T09:45:35Z</time>
      </trkpt>
      <trkpt lat="45.63211" lon="4.42581">
        <ele>530.8</ele>
        <time>2017-03-19T09:45:36Z</time>
      </trkpt>
      <trkpt lat="45.63207" lon="4.42578">
        <ele>531.8</ele>
        <time>2017-03-19T09:45:37Z</time>
      </trkpt>
      <trkpt lat="45.63203" lon="4.42573">
        <ele>531.1</ele>
        <time>2017-03-19T09:45:38Z</time>
      </trkpt>
      <trkpt lat="45.63199" lon="4.42568">
        <ele>531</ele>
        <time>2017-03-19T09:45:39Z</time>
      </trkpt>
      <trkpt lat="45.63198" lon="4.42561">
        <ele>530.9</ele>
        <time>2017-03-19T09:45:40Z</time>
      </trkpt>
      <trkpt lat="45.63196" lon="4.42555">
        <ele>529.7</ele>
        <time>2017-03-19T09:45:41Z</time>
      </trkpt>
      <trkpt lat="45.63192" lon="4.42548">
        <ele>530.4</ele>
        <time>2017-03-19T09:45:42Z</time>
      </trkpt>
      <trkpt lat="45.63188" lon="4.42541">
        <ele>530.1</ele>
        <time>2017-03-19T09:45:43Z</time>
      </trkpt>
      <trkpt lat="45.63183" lon="4.42536">
        <ele>531.1</ele>
        <time>2017-03-19T09:45:44Z</time>
      </trkpt>
      <trkpt lat="45.63182" lon="4.4253">
        <ele>530.6</ele>
        <time>2017-03-19T09:45:45Z</time>
      </trkpt>
      <trkpt lat="45.6318" lon="4.42521">
        <ele>530.9</ele>
        <time>2017-03-19T09:45:46Z</time>
      </trkpt>
      <trkpt lat="45.63178" lon="4.42512">
        <ele>530.4</ele>
        <time>2017-03-19T09:45:47Z</time>
      </trkpt>
      <trkpt lat="45.63177" lon="4.42502">
        <ele>530.3</ele>
        <time>2017-03-19T09:45:48Z</time>
      </trkpt>
      <trkpt lat="45.63175" lon="4.42492">
        <ele>529.7</ele>
        <time>2017-03-19T09:45:49Z</time>
      </trkpt>
      <trkpt lat="45.63173" lon="4.42484">
        <ele>529.3</ele>
        <time>2017-03-19T09:45:50Z</time>
      </trkpt>
      <trkpt lat="45.63172" lon="4.42477">
        <ele>528.5</ele>
        <time>2017-03-19T09:45:51Z</time>
      </trkpt>
      <trkpt lat="45.63172" lon="4.4247">
        <ele>528</ele>
        <time>2017-03-19T09:45:52Z</time>
      </trkpt>
      <trkpt lat="45.63169" lon="4.42462">
        <ele>527.4</ele>
        <time>2017-03-19T09:45:54Z</time>
      </trkpt>
      <trkpt lat="45.63168" lon="4.42455">
        <ele>526.6</ele>
        <time>2017-03-19T09:45:55Z</time>
      </trkpt>
      <trkpt lat="45.63166" lon="4.42446">
        <ele>525.9</ele>
        <time>2017-03-19T09:45:56Z</time>
      </trkpt>
      <trkpt lat="45.63164" lon="4.42437">
        <ele>525.4</ele>
        <time>2017-03-19T09:45:57Z</time>
      </trkpt>
      <trkpt lat="45.63161" lon="4.42429">
        <ele>524.9</ele>
        <time>2017-03-19T09:45:58Z</time>
      </trkpt>
      <trkpt lat="45.63158" lon="4.4242">
        <ele>524.5</ele>
        <time>2017-03-19T09:45:59Z</time>
      </trkpt>
      <trkpt lat="45.63157" lon="4.42411">
        <ele>524.3</ele>
        <time>2017-03-19T09:46:00Z</time>
      </trkpt>
      <trkpt lat="45.63153" lon="4.42403">
        <ele>524.1</ele>
        <time>2017-03-19T09:46:01Z</time>
      </trkpt>
      <trkpt lat="45.63152" lon="4.42395">
        <ele>523.7</ele>
        <time>2017-03-19T09:46:02Z</time>
      </trkpt>
      <trkpt lat="45.6315" lon="4.42388">
        <ele>523.5</ele>
        <time>2017-03-19T09:46:03Z</time>
      </trkpt>
      <trkpt lat="45.63151" lon="4.42379">
        <ele>522.6</ele>
        <time>2017-03-19T09:46:04Z</time>
      </trkpt>
      <trkpt lat="45.63152" lon="4.42372">
        <ele>522.1</ele>
        <time>2017-03-19T09:46:05Z</time>
      </trkpt>
      <trkpt lat="45.63151" lon="4.42365">
        <ele>521.3</ele>
        <time>2017-03-19T09:46:06Z</time>
      </trkpt>
      <trkpt lat="45.6315" lon="4.42358">
        <ele>521</ele>
        <time>2017-03-19T09:46:07Z</time>
      </trkpt>
      <trkpt lat="45.6315" lon="4.4235">
        <ele>520.1</ele>
        <time>2017-03-19T09:46:08Z</time>
      </trkpt>
      <trkpt lat="45.63147" lon="4.42342">
        <ele>519.9</ele>
        <time>2017-03-19T09:46:09Z</time>
      </trkpt>
      <trkpt lat="45.63145" lon="4.42336">
        <ele>519.9</ele>
        <time>2017-03-19T09:46:10Z</time>
      </trkpt>
      <trkpt lat="45.63144" lon="4.42328">
        <ele>519.8</ele>
        <time>2017-03-19T09:46:11Z</time>
      </trkpt>
      <trkpt lat="45.63143" lon="4.4232">
        <ele>519.8</ele>
        <time>2017-03-19T09:46:12Z</time>
      </trkpt>
      <trkpt lat="45.63143" lon="4.42312">
        <ele>519.8</ele>
        <time>2017-03-19T09:46:13Z</time>
      </trkpt>
      <trkpt lat="45.63143" lon="4.42304">
        <ele>519.8</ele>
        <time>2017-03-19T09:46:14Z</time>
      </trkpt>
      <trkpt lat="45.63142" lon="4.42295">
        <ele>519.8</ele>
        <time>2017-03-19T09:46:15Z</time>
      </trkpt>
      <trkpt lat="45.63141" lon="4.42287">
        <ele>519.8</ele>
        <time>2017-03-19T09:46:16Z</time>
      </trkpt>
      <trkpt lat="45.63141" lon="4.4228">
        <ele>519.8</ele>
        <time>2017-03-19T09:46:17Z</time>
      </trkpt>
      <trkpt lat="45.63139" lon="4.4227">
        <ele>519.8</ele>
        <time>2017-03-19T09:46:18Z</time>
      </trkpt>
      <trkpt lat="45.63138" lon="4.42262">
        <ele>519.8</ele>
        <time>2017-03-19T09:46:19Z</time>
      </trkpt>
      <trkpt lat="45.63137" lon="4.42255">
        <ele>519.8</ele>
        <time>2017-03-19T09:46:20Z</time>
      </trkpt>
      <trkpt lat="45.63137" lon="4.42247">
        <ele>519.9</ele>
        <time>2017-03-19T09:46:21Z</time>
      </trkpt>
      <trkpt lat="45.63136" lon="4.42239">
        <ele>520</ele>
        <time>2017-03-19T09:46:22Z</time>
      </trkpt>
      <trkpt lat="45.63136" lon="4.42231">
        <ele>520</ele>
        <time>2017-03-19T09:46:23Z</time>
      </trkpt>
      <trkpt lat="45.63134" lon="4.42223">
        <ele>520</ele>
        <time>2017-03-19T09:46:24Z</time>
      </trkpt>
      <trkpt lat="45.63132" lon="4.42216">
        <ele>520</ele>
        <time>2017-03-19T09:46:25Z</time>
      </trkpt>
      <trkpt lat="45.63132" lon="4.4221">
        <ele>520</ele>
        <time>2017-03-19T09:46:26Z</time>
      </trkpt>
      <trkpt lat="45.63132" lon="4.42204">
        <ele>520.6</ele>
        <time>2017-03-19T09:46:27Z</time>
      </trkpt>
      <trkpt lat="45.63133" lon="4.42198">
        <ele>521.2</ele>
        <time>2017-03-19T09:46:28Z</time>
      </trkpt>
      <trkpt lat="45.63134" lon="4.42192">
        <ele>521.8</ele>
        <time>2017-03-19T09:46:29Z</time>
      </trkpt>
      <trkpt lat="45.63134" lon="4.42185">
        <ele>522.5</ele>
        <time>2017-03-19T09:46:30Z</time>
      </trkpt>
      <trkpt lat="45.63135" lon="4.42179">
        <ele>523.2</ele>
        <time>2017-03-19T09:46:31Z</time>
      </trkpt>
      <trkpt lat="45.63135" lon="4.42172">
        <ele>523.9</ele>
        <time>2017-03-19T09:46:32Z</time>
      </trkpt>
      <trkpt lat="45.63135" lon="4.42166">
        <ele>524.5</ele>
        <time>2017-03-19T09:46:33Z</time>
      </trkpt>
      <trkpt lat="45.63135" lon="4.42159">
        <ele>525.3</ele>
        <time>2017-03-19T09:46:34Z</time>
      </trkpt>
      <trkpt lat="45.63134" lon="4.42152">
        <ele>526</ele>
        <time>2017-03-19T09:46:35Z</time>
      </trkpt>
      <trkpt lat="45.63134" lon="4.42146">
        <ele>526.7</ele>
        <time>2017-03-19T09:46:36Z</time>
      </trkpt>
      <trkpt lat="45.63134" lon="4.4214">
        <ele>527.4</ele>
        <time>2017-03-19T09:46:37Z</time>
      </trkpt>
      <trkpt lat="45.63133" lon="4.42134">
        <ele>528.1</ele>
        <time>2017-03-19T09:46:38Z</time>
      </trkpt>
      <trkpt lat="45.63132" lon="4.4213">
        <ele>528.6</ele>
        <time>2017-03-19T09:46:39Z</time>
      </trkpt>
      <trkpt lat="45.63131" lon="4.42126">
        <ele>529.1</ele>
        <time>2017-03-19T09:46:40Z</time>
      </trkpt>
      <trkpt lat="45.63129" lon="4.42122">
        <ele>529.6</ele>
        <time>2017-03-19T09:46:42Z</time>
      </trkpt>
      <trkpt lat="45.63129" lon="4.42117">
        <ele>530.2</ele>
        <time>2017-03-19T09:46:45Z</time>
      </trkpt>
      <trkpt lat="45.6313" lon="4.42112">
        <ele>530.8</ele>
        <time>2017-03-19T09:46:48Z</time>
      </trkpt>
      <trkpt lat="45.6313" lon="4.42107">
        <ele>531.1</ele>
        <time>2017-03-19T09:46:50Z</time>
      </trkpt>
      <trkpt lat="45.63129" lon="4.42102">
        <ele>531.4</ele>
        <time>2017-03-19T09:46:52Z</time>
      </trkpt>
      <trkpt lat="45.6313" lon="4.42097">
        <ele>531.7</ele>
        <time>2017-03-19T09:46:54Z</time>
      </trkpt>
      <trkpt lat="45.63131" lon="4.42091">
        <ele>531.9</ele>
        <time>2017-03-19T09:46:56Z</time>
      </trkpt>
      <trkpt lat="45.63131" lon="4.42086">
        <ele>532.2</ele>
        <time>2017-03-19T09:46:58Z</time>
      </trkpt>
      <trkpt lat="45.6313" lon="4.42081">
        <ele>532.4</ele>
        <time>2017-03-19T09:47:00Z</time>
      </trkpt>
      <trkpt lat="45.6313" lon="4.42076">
        <ele>532.7</ele>
        <time>2017-03-19T09:47:02Z</time>
      </trkpt>
      <trkpt lat="45.6313" lon="4.42071">
        <ele>532.9</ele>
        <time>2017-03-19T09:47:04Z</time>
      </trkpt>
      <trkpt lat="45.6313" lon="4.42065">
        <ele>533.2</ele>
        <time>2017-03-19T09:47:06Z</time>
      </trkpt>
      <trkpt lat="45.6313" lon="4.42059">
        <ele>533.5</ele>
        <time>2017-03-19T09:47:08Z</time>
      </trkpt>
      <trkpt lat="45.6313" lon="4.42053">
        <ele>533.8</ele>
        <time>2017-03-19T09:47:10Z</time>
      </trkpt>
      <trkpt lat="45.6313" lon="4.42048">
        <ele>534</ele>
        <time>2017-03-19T09:47:12Z</time>
      </trkpt>
      <trkpt lat="45.6313" lon="4.42043">
        <ele>534.2</ele>
        <time>2017-03-19T09:47:14Z</time>
      </trkpt>
      <trkpt lat="45.6313" lon="4.42038">
        <ele>534.5</ele>
        <time>2017-03-19T09:47:16Z</time>
      </trkpt>
      <trkpt lat="45.6313" lon="4.42032">
        <ele>534.8</ele>
        <time>2017-03-19T09:47:18Z</time>
      </trkpt>
      <trkpt lat="45.6313" lon="4.42026">
        <ele>535</ele>
        <time>2017-03-19T09:47:20Z</time>
      </trkpt>
      <trkpt lat="45.6313" lon="4.42022">
        <ele>535.2</ele>
        <time>2017-03-19T09:47:22Z</time>
      </trkpt>
      <trkpt lat="45.6313" lon="4.42017">
        <ele>535.5</ele>
        <time>2017-03-19T09:47:24Z</time>
      </trkpt>
      <trkpt lat="45.6313" lon="4.42012">
        <ele>535.7</ele>
        <time>2017-03-19T09:47:26Z</time>
      </trkpt>
      <trkpt lat="45.6313" lon="4.42007">
        <ele>535.9</ele>
        <time>2017-03-19T09:47:28Z</time>
      </trkpt>
      <trkpt lat="45.6313" lon="4.42002">
        <ele>536.1</ele>
        <time>2017-03-19T09:47:30Z</time>
      </trkpt>
      <trkpt lat="45.6313" lon="4.41997">
        <ele>536.4</ele>
        <time>2017-03-19T09:47:32Z</time>
      </trkpt>
      <trkpt lat="45.6313" lon="4.41992">
        <ele>536.6</ele>
        <time>2017-03-19T09:47:34Z</time>
      </trkpt>
      <trkpt lat="45.63129" lon="4.41987">
        <ele>536.8</ele>
        <time>2017-03-19T09:47:36Z</time>
      </trkpt>
      <trkpt lat="45.63129" lon="4.41982">
        <ele>537.1</ele>
        <time>2017-03-19T09:47:38Z</time>
      </trkpt>
      <trkpt lat="45.63128" lon="4.41977">
        <ele>537.3</ele>
        <time>2017-03-19T09:47:40Z</time>
      </trkpt>
      <trkpt lat="45.63128" lon="4.41972">
        <ele>537.5</ele>
        <time>2017-03-19T09:47:42Z</time>
      </trkpt>
      <trkpt lat="45.63128" lon="4.41966">
        <ele>537.8</ele>
        <time>2017-03-19T09:47:44Z</time>
      </trkpt>
      <trkpt lat="45.63129" lon="4.41961">
        <ele>538</ele>
        <time>2017-03-19T09:47:46Z</time>
      </trkpt>
      <trkpt lat="45.6313" lon="4.41955">
        <ele>538.6</ele>
        <time>2017-03-19T09:47:48Z</time>
      </trkpt>
      <trkpt lat="45.63131" lon="4.41949">
        <ele>539.2</ele>
        <time>2017-03-19T09:47:50Z</time>
      </trkpt>
      <trkpt lat="45.63132" lon="4.41944">
        <ele>539.4</ele>
        <time>2017-03-19T09:47:52Z</time>
      </trkpt>
      <trkpt lat="45.63135" lon="4.41939">
        <ele>539.9</ele>
        <time>2017-03-19T09:47:54Z</time>
      </trkpt>
      <trkpt lat="45.63138" lon="4.41935">
        <ele>540.4</ele>
        <time>2017-03-19T09:47:56Z</time>
      </trkpt>
      <trkpt lat="45.63142" lon="4.41932">
        <ele>541.2</ele>
        <time>2017-03-19T09:47:58Z</time>
      </trkpt>
      <trkpt lat="45.63147" lon="4.41931">
        <ele>541.5</ele>
        <time>2017-03-19T09:48:00Z</time>
      </trkpt>
      <trkpt lat="45.63151" lon="4.4193">
        <ele>542.1</ele>
        <time>2017-03-19T09:48:02Z</time>
      </trkpt>
      <trkpt lat="45.63155" lon="4.41929">
        <ele>542.5</ele>
        <time>2017-03-19T09:48:04Z</time>
      </trkpt>
      <trkpt lat="45.63159" lon="4.41929">
        <ele>542.7</ele>
        <time>2017-03-19T09:48:06Z</time>
      </trkpt>
      <trkpt lat="45.63163" lon="4.4193">
        <ele>542.8</ele>
        <time>2017-03-19T09:48:08Z</time>
      </trkpt>
      <trkpt lat="45.63167" lon="4.41929">
        <ele>543.1</ele>
        <time>2017-03-19T09:48:10Z</time>
      </trkpt>
      <trkpt lat="45.63171" lon="4.41927">
        <ele>543.1</ele>
        <time>2017-03-19T09:48:12Z</time>
      </trkpt>
      <trkpt lat="45.63176" lon="4.41925">
        <ele>543.2</ele>
        <time>2017-03-19T09:48:14Z</time>
      </trkpt>
      <trkpt lat="45.6318" lon="4.41923">
        <ele>543.2</ele>
        <time>2017-03-19T09:48:16Z</time>
      </trkpt>
      <trkpt lat="45.63184" lon="4.41922">
        <ele>543.3</ele>
        <time>2017-03-19T09:48:18Z</time>
      </trkpt>
      <trkpt lat="45.63189" lon="4.41921">
        <ele>543.3</ele>
        <time>2017-03-19T09:48:20Z</time>
      </trkpt>
      <trkpt lat="45.63194" lon="4.41919">
        <ele>543.5</ele>
        <time>2017-03-19T09:48:22Z</time>
      </trkpt>
      <trkpt lat="45.63197" lon="4.41919">
        <ele>543.6</ele>
        <time>2017-03-19T09:48:23Z</time>
      </trkpt>
      <trkpt lat="45.632" lon="4.41918">
        <ele>543.8</ele>
        <time>2017-03-19T09:48:24Z</time>
      </trkpt>
      <trkpt lat="45.63203" lon="4.41917">
        <ele>544.1</ele>
        <time>2017-03-19T09:48:25Z</time>
      </trkpt>
      <trkpt lat="45.63206" lon="4.41917">
        <ele>544.5</ele>
        <time>2017-03-19T09:48:26Z</time>
      </trkpt>
      <trkpt lat="45.63209" lon="4.41916">
        <ele>544.9</ele>
        <time>2017-03-19T09:48:27Z</time>
      </trkpt>
      <trkpt lat="45.63212" lon="4.41916">
        <ele>545.3</ele>
        <time>2017-03-19T09:48:28Z</time>
      </trkpt>
      <trkpt lat="45.63215" lon="4.41916">
        <ele>545.7</ele>
        <time>2017-03-19T09:48:29Z</time>
      </trkpt>
      <trkpt lat="45.63218" lon="4.41915">
        <ele>546.1</ele>
        <time>2017-03-19T09:48:30Z</time>
      </trkpt>
      <trkpt lat="45.63223" lon="4.41914">
        <ele>546.8</ele>
        <time>2017-03-19T09:48:32Z</time>
      </trkpt>
      <trkpt lat="45.63226" lon="4.41913">
        <ele>547.2</ele>
        <time>2017-03-19T09:48:33Z</time>
      </trkpt>
      <trkpt lat="45.63229" lon="4.41912">
        <ele>547.5</ele>
        <time>2017-03-19T09:48:34Z</time>
      </trkpt>
      <trkpt lat="45.63232" lon="4.41911">
        <ele>547.8</ele>
        <time>2017-03-19T09:48:35Z</time>
      </trkpt>
      <trkpt lat="45.63235" lon="4.41911">
        <ele>547.8</ele>
        <time>2017-03-19T09:48:36Z</time>
      </trkpt>
      <trkpt lat="45.63238" lon="4.4191">
        <ele>548.2</ele>
        <time>2017-03-19T09:48:37Z</time>
      </trkpt>
      <trkpt lat="45.63241" lon="4.4191">
        <ele>548.6</ele>
        <time>2017-03-19T09:48:38Z</time>
      </trkpt>
      <trkpt lat="45.63244" lon="4.41909">
        <ele>549.3</ele>
        <time>2017-03-19T09:48:39Z</time>
      </trkpt>
      <trkpt lat="45.63247" lon="4.41908">
        <ele>549.6</ele>
        <time>2017-03-19T09:48:40Z</time>
      </trkpt>
      <trkpt lat="45.6325" lon="4.41907">
        <ele>549.9</ele>
        <time>2017-03-19T09:48:41Z</time>
      </trkpt>
      <trkpt lat="45.63253" lon="4.41905">
        <ele>550.3</ele>
        <time>2017-03-19T09:48:42Z</time>
      </trkpt>
      <trkpt lat="45.63256" lon="4.41904">
        <ele>550.7</ele>
        <time>2017-03-19T09:48:43Z</time>
      </trkpt>
      <trkpt lat="45.63259" lon="4.41903">
        <ele>551.1</ele>
        <time>2017-03-19T09:48:44Z</time>
      </trkpt>
      <trkpt lat="45.63262" lon="4.41902">
        <ele>551.5</ele>
        <time>2017-03-19T09:48:45Z</time>
      </trkpt>
      <trkpt lat="45.63265" lon="4.41901">
        <ele>551.9</ele>
        <time>2017-03-19T09:48:46Z</time>
      </trkpt>
      <trkpt lat="45.63267" lon="4.419">
        <ele>552</ele>
        <time>2017-03-19T09:48:47Z</time>
      </trkpt>
      <trkpt lat="45.6327" lon="4.41899">
        <ele>552.3</ele>
        <time>2017-03-19T09:48:48Z</time>
      </trkpt>
      <trkpt lat="45.63273" lon="4.41897">
        <ele>552.7</ele>
        <time>2017-03-19T09:48:49Z</time>
      </trkpt>
      <trkpt lat="45.63278" lon="4.41895">
        <ele>553.2</ele>
        <time>2017-03-19T09:48:51Z</time>
      </trkpt>
      <trkpt lat="45.63282" lon="4.41893">
        <ele>553.5</ele>
        <time>2017-03-19T09:48:53Z</time>
      </trkpt>
      <trkpt lat="45.63286" lon="4.41892">
        <ele>554.3</ele>
        <time>2017-03-19T09:48:55Z</time>
      </trkpt>
      <trkpt lat="45.6329" lon="4.41891">
        <ele>554.7</ele>
        <time>2017-03-19T09:48:57Z</time>
      </trkpt>
      <trkpt lat="45.63294" lon="4.41891">
        <ele>554.7</ele>
        <time>2017-03-19T09:48:59Z</time>
      </trkpt>
      <trkpt lat="45.63298" lon="4.41891">
        <ele>555.8</ele>
        <time>2017-03-19T09:49:01Z</time>
      </trkpt>
      <trkpt lat="45.63302" lon="4.41893">
        <ele>556.1</ele>
        <time>2017-03-19T09:49:03Z</time>
      </trkpt>
      <trkpt lat="45.63306" lon="4.41895">
        <ele>556.4</ele>
        <time>2017-03-19T09:49:05Z</time>
      </trkpt>
      <trkpt lat="45.6331" lon="4.41897">
        <ele>557.3</ele>
        <time>2017-03-19T09:49:07Z</time>
      </trkpt>
      <trkpt lat="45.63314" lon="4.41901">
        <ele>558</ele>
        <time>2017-03-19T09:49:09Z</time>
      </trkpt>
      <trkpt lat="45.63317" lon="4.41904">
        <ele>558.5</ele>
        <time>2017-03-19T09:49:11Z</time>
      </trkpt>
      <trkpt lat="45.63321" lon="4.41907">
        <ele>558.8</ele>
        <time>2017-03-19T09:49:13Z</time>
      </trkpt>
      <trkpt lat="45.63324" lon="4.41909">
        <ele>559.2</ele>
        <time>2017-03-19T09:49:15Z</time>
      </trkpt>
      <trkpt lat="45.63328" lon="4.41912">
        <ele>559.5</ele>
        <time>2017-03-19T09:49:17Z</time>
      </trkpt>
      <trkpt lat="45.63331" lon="4.41914">
        <ele>560.1</ele>
        <time>2017-03-19T09:49:19Z</time>
      </trkpt>
      <trkpt lat="45.63334" lon="4.41917">
        <ele>560.5</ele>
        <time>2017-03-19T09:49:21Z</time>
      </trkpt>
      <trkpt lat="45.63337" lon="4.41919">
        <ele>560.9</ele>
        <time>2017-03-19T09:49:23Z</time>
      </trkpt>
      <trkpt lat="45.63341" lon="4.41922">
        <ele>561.5</ele>
        <time>2017-03-19T09:49:25Z</time>
      </trkpt>
      <trkpt lat="45.63345" lon="4.41924">
        <ele>562</ele>
        <time>2017-03-19T09:49:27Z</time>
      </trkpt>
      <trkpt lat="45.63349" lon="4.41926">
        <ele>562.7</ele>
        <time>2017-03-19T09:49:29Z</time>
      </trkpt>
      <trkpt lat="45.63352" lon="4.41929">
        <ele>563.8</ele>
        <time>2017-03-19T09:49:31Z</time>
      </trkpt>
      <trkpt lat="45.63356" lon="4.41931">
        <ele>564.5</ele>
        <time>2017-03-19T09:49:33Z</time>
      </trkpt>
      <trkpt lat="45.63359" lon="4.41932">
        <ele>564.9</ele>
        <time>2017-03-19T09:49:35Z</time>
      </trkpt>
      <trkpt lat="45.63363" lon="4.41934">
        <ele>565.4</ele>
        <time>2017-03-19T09:49:37Z</time>
      </trkpt>
      <trkpt lat="45.63367" lon="4.41936">
        <ele>566.1</ele>
        <time>2017-03-19T09:49:39Z</time>
      </trkpt>
      <trkpt lat="45.6337" lon="4.41939">
        <ele>566.5</ele>
        <time>2017-03-19T09:49:41Z</time>
      </trkpt>
      <trkpt lat="45.63373" lon="4.41941">
        <ele>566.9</ele>
        <time>2017-03-19T09:49:43Z</time>
      </trkpt>
      <trkpt lat="45.63376" lon="4.41943">
        <ele>567.3</ele>
        <time>2017-03-19T09:49:45Z</time>
      </trkpt>
      <trkpt lat="45.6338" lon="4.41945">
        <ele>567.7</ele>
        <time>2017-03-19T09:49:47Z</time>
      </trkpt>
      <trkpt lat="45.63383" lon="4.41948">
        <ele>568.2</ele>
        <time>2017-03-19T09:49:49Z</time>
      </trkpt>
      <trkpt lat="45.63386" lon="4.4195">
        <ele>568.5</ele>
        <time>2017-03-19T09:49:51Z</time>
      </trkpt>
      <trkpt lat="45.6339" lon="4.41952">
        <ele>569</ele>
        <time>2017-03-19T09:49:53Z</time>
      </trkpt>
      <trkpt lat="45.63394" lon="4.41954">
        <ele>569.7</ele>
        <time>2017-03-19T09:49:55Z</time>
      </trkpt>
      <trkpt lat="45.63398" lon="4.41954">
        <ele>570.1</ele>
        <time>2017-03-19T09:49:57Z</time>
      </trkpt>
      <trkpt lat="45.63403" lon="4.41954">
        <ele>570.8</ele>
        <time>2017-03-19T09:49:59Z</time>
      </trkpt>
      <trkpt lat="45.63407" lon="4.41954">
        <ele>571.2</ele>
        <time>2017-03-19T09:50:01Z</time>
      </trkpt>
      <trkpt lat="45.63411" lon="4.41954">
        <ele>571.5</ele>
        <time>2017-03-19T09:50:03Z</time>
      </trkpt>
      <trkpt lat="45.63416" lon="4.41954">
        <ele>572</ele>
        <time>2017-03-19T09:50:05Z</time>
      </trkpt>
      <trkpt lat="45.6342" lon="4.41954">
        <ele>572.2</ele>
        <time>2017-03-19T09:50:07Z</time>
      </trkpt>
      <trkpt lat="45.63424" lon="4.41953">
        <ele>572.5</ele>
        <time>2017-03-19T09:50:09Z</time>
      </trkpt>
      <trkpt lat="45.63428" lon="4.41952">
        <ele>572.7</ele>
        <time>2017-03-19T09:50:11Z</time>
      </trkpt>
      <trkpt lat="45.63432" lon="4.41951">
        <ele>572.8</ele>
        <time>2017-03-19T09:50:13Z</time>
      </trkpt>
      <trkpt lat="45.63436" lon="4.4195">
        <ele>572.9</ele>
        <time>2017-03-19T09:50:15Z</time>
      </trkpt>
      <trkpt lat="45.63441" lon="4.4195">
        <ele>573</ele>
        <time>2017-03-19T09:50:17Z</time>
      </trkpt>
      <trkpt lat="45.63445" lon="4.41949">
        <ele>573.1</ele>
        <time>2017-03-19T09:50:19Z</time>
      </trkpt>
      <trkpt lat="45.6345" lon="4.41947">
        <ele>573.2</ele>
        <time>2017-03-19T09:50:21Z</time>
      </trkpt>
      <trkpt lat="45.63454" lon="4.41946">
        <ele>573.2</ele>
        <time>2017-03-19T09:50:23Z</time>
      </trkpt>
      <trkpt lat="45.63459" lon="4.41946">
        <ele>573.4</ele>
        <time>2017-03-19T09:50:25Z</time>
      </trkpt>
      <trkpt lat="45.63464" lon="4.41946">
        <ele>573.7</ele>
        <time>2017-03-19T09:50:27Z</time>
      </trkpt>
      <trkpt lat="45.63469" lon="4.41947">
        <ele>574</ele>
        <time>2017-03-19T09:50:29Z</time>
      </trkpt>
      <trkpt lat="45.63472" lon="4.41948">
        <ele>574.1</ele>
        <time>2017-03-19T09:50:30Z</time>
      </trkpt>
      <trkpt lat="45.63476" lon="4.41949">
        <ele>574.2</ele>
        <time>2017-03-19T09:50:32Z</time>
      </trkpt>
      <trkpt lat="45.63482" lon="4.4195">
        <ele>574.4</ele>
        <time>2017-03-19T09:50:34Z</time>
      </trkpt>
      <trkpt lat="45.63487" lon="4.41952">
        <ele>574.7</ele>
        <time>2017-03-19T09:50:36Z</time>
      </trkpt>
      <trkpt lat="45.6349" lon="4.41952">
        <ele>574.7</ele>
        <time>2017-03-19T09:50:37Z</time>
      </trkpt>
      <trkpt lat="45.63495" lon="4.41953">
        <ele>574.9</ele>
        <time>2017-03-19T09:50:39Z</time>
      </trkpt>
      <trkpt lat="45.63498" lon="4.41954">
        <ele>574.9</ele>
        <time>2017-03-19T09:50:40Z</time>
      </trkpt>
      <trkpt lat="45.63501" lon="4.41955">
        <ele>575</ele>
        <time>2017-03-19T09:50:41Z</time>
      </trkpt>
      <trkpt lat="45.63504" lon="4.41955">
        <ele>575</ele>
        <time>2017-03-19T09:50:42Z</time>
      </trkpt>
      <trkpt lat="45.63507" lon="4.41956">
        <ele>575.2</ele>
        <time>2017-03-19T09:50:43Z</time>
      </trkpt>
      <trkpt lat="45.63509" lon="4.41956">
        <ele>575.3</ele>
        <time>2017-03-19T09:50:44Z</time>
      </trkpt>
      <trkpt lat="45.63512" lon="4.41956">
        <ele>575.5</ele>
        <time>2017-03-19T09:50:45Z</time>
      </trkpt>
      <trkpt lat="45.63515" lon="4.41956">
        <ele>575.7</ele>
        <time>2017-03-19T09:50:46Z</time>
      </trkpt>
      <trkpt lat="45.63518" lon="4.41956">
        <ele>575.9</ele>
        <time>2017-03-19T09:50:47Z</time>
      </trkpt>
      <trkpt lat="45.63521" lon="4.41956">
        <ele>576.1</ele>
        <time>2017-03-19T09:50:48Z</time>
      </trkpt>
      <trkpt lat="45.63524" lon="4.41956">
        <ele>576.4</ele>
        <time>2017-03-19T09:50:49Z</time>
      </trkpt>
      <trkpt lat="45.63527" lon="4.41956">
        <ele>576.7</ele>
        <time>2017-03-19T09:50:50Z</time>
      </trkpt>
      <trkpt lat="45.63529" lon="4.41956">
        <ele>576.9</ele>
        <time>2017-03-19T09:50:51Z</time>
      </trkpt>
      <trkpt lat="45.63532" lon="4.41957">
        <ele>577.3</ele>
        <time>2017-03-19T09:50:52Z</time>
      </trkpt>
      <trkpt lat="45.63535" lon="4.41957">
        <ele>577.6</ele>
        <time>2017-03-19T09:50:53Z</time>
      </trkpt>
      <trkpt lat="45.6354" lon="4.41956">
        <ele>578</ele>
        <time>2017-03-19T09:50:55Z</time>
      </trkpt>
      <trkpt lat="45.63543" lon="4.41956">
        <ele>578.4</ele>
        <time>2017-03-19T09:50:56Z</time>
      </trkpt>
      <trkpt lat="45.63546" lon="4.41956">
        <ele>578.8</ele>
        <time>2017-03-19T09:50:57Z</time>
      </trkpt>
      <trkpt lat="45.63549" lon="4.41955">
        <ele>579.2</ele>
        <time>2017-03-19T09:50:58Z</time>
      </trkpt>
      <trkpt lat="45.63552" lon="4.41955">
        <ele>579.3</ele>
        <time>2017-03-19T09:50:59Z</time>
      </trkpt>
      <trkpt lat="45.63555" lon="4.41954">
        <ele>579.7</ele>
        <time>2017-03-19T09:51:00Z</time>
      </trkpt>
      <trkpt lat="45.63558" lon="4.41954">
        <ele>580</ele>
        <time>2017-03-19T09:51:01Z</time>
      </trkpt>
      <trkpt lat="45.6356" lon="4.41954">
        <ele>580.3</ele>
        <time>2017-03-19T09:51:02Z</time>
      </trkpt>
      <trkpt lat="45.63563" lon="4.41953">
        <ele>580.7</ele>
        <time>2017-03-19T09:51:03Z</time>
      </trkpt>
      <trkpt lat="45.63566" lon="4.41953">
        <ele>581</ele>
        <time>2017-03-19T09:51:04Z</time>
      </trkpt>
      <trkpt lat="45.63569" lon="4.41952">
        <ele>581.4</ele>
        <time>2017-03-19T09:51:05Z</time>
      </trkpt>
      <trkpt lat="45.63574" lon="4.41952">
        <ele>582</ele>
        <time>2017-03-19T09:51:07Z</time>
      </trkpt>
      <trkpt lat="45.63579" lon="4.41952">
        <ele>582.3</ele>
        <time>2017-03-19T09:51:09Z</time>
      </trkpt>
      <trkpt lat="45.63582" lon="4.41951">
        <ele>582.6</ele>
        <time>2017-03-19T09:51:10Z</time>
      </trkpt>
      <trkpt lat="45.63585" lon="4.41951">
        <ele>582.8</ele>
        <time>2017-03-19T09:51:11Z</time>
      </trkpt>
      <trkpt lat="45.63588" lon="4.41951">
        <ele>583</ele>
        <time>2017-03-19T09:51:12Z</time>
      </trkpt>
      <trkpt lat="45.63591" lon="4.41951">
        <ele>583.2</ele>
        <time>2017-03-19T09:51:13Z</time>
      </trkpt>
      <trkpt lat="45.63594" lon="4.41951">
        <ele>583.4</ele>
        <time>2017-03-19T09:51:14Z</time>
      </trkpt>
      <trkpt lat="45.63597" lon="4.41951">
        <ele>583.7</ele>
        <time>2017-03-19T09:51:15Z</time>
      </trkpt>
      <trkpt lat="45.63599" lon="4.41951">
        <ele>584.1</ele>
        <time>2017-03-19T09:51:16Z</time>
      </trkpt>
      <trkpt lat="45.63602" lon="4.41951">
        <ele>584.5</ele>
        <time>2017-03-19T09:51:17Z</time>
      </trkpt>
      <trkpt lat="45.63608" lon="4.41951">
        <ele>585.3</ele>
        <time>2017-03-19T09:51:19Z</time>
      </trkpt>
      <trkpt lat="45.63611" lon="4.41951">
        <ele>585.8</ele>
        <time>2017-03-19T09:51:20Z</time>
      </trkpt>
      <trkpt lat="45.63613" lon="4.41951">
        <ele>586.4</ele>
        <time>2017-03-19T09:51:21Z</time>
      </trkpt>
      <trkpt lat="45.63619" lon="4.41951">
        <ele>587.8</ele>
        <time>2017-03-19T09:51:23Z</time>
      </trkpt>
      <trkpt lat="45.63622" lon="4.41951">
        <ele>588.6</ele>
        <time>2017-03-19T09:51:24Z</time>
      </trkpt>
      <trkpt lat="45.63625" lon="4.41951">
        <ele>588.6</ele>
        <time>2017-03-19T09:51:25Z</time>
      </trkpt>
      <trkpt lat="45.63628" lon="4.41951">
        <ele>589.4</ele>
        <time>2017-03-19T09:51:26Z</time>
      </trkpt>
      <trkpt lat="45.6363" lon="4.41951">
        <ele>590.3</ele>
        <time>2017-03-19T09:51:27Z</time>
      </trkpt>
      <trkpt lat="45.63633" lon="4.41951">
        <ele>591.1</ele>
        <time>2017-03-19T09:51:28Z</time>
      </trkpt>
      <trkpt lat="45.63636" lon="4.41952">
        <ele>591.8</ele>
        <time>2017-03-19T09:51:29Z</time>
      </trkpt>
      <trkpt lat="45.63639" lon="4.41952">
        <ele>592.5</ele>
        <time>2017-03-19T09:51:30Z</time>
      </trkpt>
      <trkpt lat="45.63642" lon="4.41951">
        <ele>593.1</ele>
        <time>2017-03-19T09:51:31Z</time>
      </trkpt>
      <trkpt lat="45.63645" lon="4.41951">
        <ele>593.7</ele>
        <time>2017-03-19T09:51:32Z</time>
      </trkpt>
      <trkpt lat="45.63648" lon="4.41952">
        <ele>594.3</ele>
        <time>2017-03-19T09:51:33Z</time>
      </trkpt>
      <trkpt lat="45.63651" lon="4.41952">
        <ele>594.8</ele>
        <time>2017-03-19T09:51:34Z</time>
      </trkpt>
      <trkpt lat="45.63654" lon="4.41952">
        <ele>595.3</ele>
        <time>2017-03-19T09:51:35Z</time>
      </trkpt>
      <trkpt lat="45.63657" lon="4.41952">
        <ele>595.7</ele>
        <time>2017-03-19T09:51:36Z</time>
      </trkpt>
      <trkpt lat="45.63662" lon="4.41951">
        <ele>596.3</ele>
        <time>2017-03-19T09:51:38Z</time>
      </trkpt>
      <trkpt lat="45.63666" lon="4.41951">
        <ele>596.5</ele>
        <time>2017-03-19T09:51:40Z</time>
      </trkpt>
      <trkpt lat="45.6367" lon="4.41951">
        <ele>596.8</ele>
        <time>2017-03-19T09:51:42Z</time>
      </trkpt>
      <trkpt lat="45.63674" lon="4.41951">
        <ele>597</ele>
        <time>2017-03-19T09:51:44Z</time>
      </trkpt>
      <trkpt lat="45.63677" lon="4.41951">
        <ele>597.1</ele>
        <time>2017-03-19T09:51:46Z</time>
      </trkpt>
      <trkpt lat="45.63681" lon="4.41951">
        <ele>597.7</ele>
        <time>2017-03-19T09:51:48Z</time>
      </trkpt>
      <trkpt lat="45.63685" lon="4.41951">
        <ele>598</ele>
        <time>2017-03-19T09:51:50Z</time>
      </trkpt>
      <trkpt lat="45.63689" lon="4.4195">
        <ele>598.1</ele>
        <time>2017-03-19T09:51:52Z</time>
      </trkpt>
      <trkpt lat="45.63693" lon="4.4195">
        <ele>598.1</ele>
        <time>2017-03-19T09:51:54Z</time>
      </trkpt>
      <trkpt lat="45.63697" lon="4.41949">
        <ele>598.2</ele>
        <time>2017-03-19T09:51:56Z</time>
      </trkpt>
      <trkpt lat="45.63701" lon="4.41949">
        <ele>598.3</ele>
        <time>2017-03-19T09:51:58Z</time>
      </trkpt>
      <trkpt lat="45.63705" lon="4.4195">
        <ele>598.5</ele>
        <time>2017-03-19T09:52:00Z</time>
      </trkpt>
      <trkpt lat="45.63709" lon="4.41949">
        <ele>598.7</ele>
        <time>2017-03-19T09:52:02Z</time>
      </trkpt>
      <trkpt lat="45.63713" lon="4.41949">
        <ele>599.3</ele>
        <time>2017-03-19T09:52:04Z</time>
      </trkpt>
      <trkpt lat="45.63716" lon="4.41948">
        <ele>599.7</ele>
        <time>2017-03-19T09:52:06Z</time>
      </trkpt>
      <trkpt lat="45.6372" lon="4.41948">
        <ele>600.1</ele>
        <time>2017-03-19T09:52:08Z</time>
      </trkpt>
      <trkpt lat="45.63724" lon="4.41948">
        <ele>600.6</ele>
        <time>2017-03-19T09:52:10Z</time>
      </trkpt>
      <trkpt lat="45.63727" lon="4.41947">
        <ele>601.6</ele>
        <time>2017-03-19T09:52:12Z</time>
      </trkpt>
      <trkpt lat="45.6373" lon="4.41943">
        <ele>601.5</ele>
        <time>2017-03-19T09:52:14Z</time>
      </trkpt>
      <trkpt lat="45.63731" lon="4.41938">
        <ele>602</ele>
        <time>2017-03-19T09:52:16Z</time>
      </trkpt>
      <trkpt lat="45.63731" lon="4.41931">
        <ele>602.1</ele>
        <time>2017-03-19T09:52:18Z</time>
      </trkpt>
      <trkpt lat="45.63731" lon="4.41924">
        <ele>602.1</ele>
        <time>2017-03-19T09:52:20Z</time>
      </trkpt>
      <trkpt lat="45.63731" lon="4.4192">
        <ele>602.2</ele>
        <time>2017-03-19T09:52:21Z</time>
      </trkpt>
      <trkpt lat="45.63731" lon="4.41916">
        <ele>602.2</ele>
        <time>2017-03-19T09:52:22Z</time>
      </trkpt>
      <trkpt lat="45.6373" lon="4.41911">
        <ele>602.3</ele>
        <time>2017-03-19T09:52:23Z</time>
      </trkpt>
      <trkpt lat="45.63729" lon="4.41907">
        <ele>601.8</ele>
        <time>2017-03-19T09:52:24Z</time>
      </trkpt>
      <trkpt lat="45.63729" lon="4.41903">
        <ele>602</ele>
        <time>2017-03-19T09:52:25Z</time>
      </trkpt>
      <trkpt lat="45.63729" lon="4.41898">
        <ele>602.1</ele>
        <time>2017-03-19T09:52:26Z</time>
      </trkpt>
      <trkpt lat="45.63729" lon="4.41893">
        <ele>602.3</ele>
        <time>2017-03-19T09:52:27Z</time>
      </trkpt>
      <trkpt lat="45.63729" lon="4.41888">
        <ele>602.5</ele>
        <time>2017-03-19T09:52:28Z</time>
      </trkpt>
      <trkpt lat="45.63729" lon="4.41883">
        <ele>602.7</ele>
        <time>2017-03-19T09:52:29Z</time>
      </trkpt>
      <trkpt lat="45.63729" lon="4.41879">
        <ele>603</ele>
        <time>2017-03-19T09:52:30Z</time>
      </trkpt>
      <trkpt lat="45.63729" lon="4.41874">
        <ele>603.2</ele>
        <time>2017-03-19T09:52:31Z</time>
      </trkpt>
      <trkpt lat="45.63729" lon="4.4187">
        <ele>603.4</ele>
        <time>2017-03-19T09:52:32Z</time>
      </trkpt>
      <trkpt lat="45.6373" lon="4.41865">
        <ele>603.9</ele>
        <time>2017-03-19T09:52:33Z</time>
      </trkpt>
      <trkpt lat="45.63731" lon="4.41862">
        <ele>604</ele>
        <time>2017-03-19T09:52:34Z</time>
      </trkpt>
      <trkpt lat="45.63732" lon="4.41857">
        <ele>604</ele>
        <time>2017-03-19T09:52:35Z</time>
      </trkpt>
      <trkpt lat="45.63733" lon="4.41853">
        <ele>603.9</ele>
        <time>2017-03-19T09:52:36Z</time>
      </trkpt>
      <trkpt lat="45.63734" lon="4.41849">
        <ele>604.1</ele>
        <time>2017-03-19T09:52:37Z</time>
      </trkpt>
      <trkpt lat="45.63735" lon="4.41845">
        <ele>603.9</ele>
        <time>2017-03-19T09:52:38Z</time>
      </trkpt>
      <trkpt lat="45.63737" lon="4.41841">
        <ele>604.2</ele>
        <time>2017-03-19T09:52:39Z</time>
      </trkpt>
      <trkpt lat="45.6374" lon="4.41836">
        <ele>604.5</ele>
        <time>2017-03-19T09:52:41Z</time>
      </trkpt>
      <trkpt lat="45.63744" lon="4.41832">
        <ele>604.9</ele>
        <time>2017-03-19T09:52:43Z</time>
      </trkpt>
      <trkpt lat="45.63748" lon="4.41828">
        <ele>605.8</ele>
        <time>2017-03-19T09:52:45Z</time>
      </trkpt>
      <trkpt lat="45.63752" lon="4.41824">
        <ele>606.4</ele>
        <time>2017-03-19T09:52:47Z</time>
      </trkpt>
      <trkpt lat="45.63755" lon="4.4182">
        <ele>606.9</ele>
        <time>2017-03-19T09:52:49Z</time>
      </trkpt>
      <trkpt lat="45.63759" lon="4.41816">
        <ele>607.5</ele>
        <time>2017-03-19T09:52:51Z</time>
      </trkpt>
      <trkpt lat="45.63763" lon="4.41813">
        <ele>608.8</ele>
        <time>2017-03-19T09:52:53Z</time>
      </trkpt>
      <trkpt lat="45.63766" lon="4.41809">
        <ele>609.3</ele>
        <time>2017-03-19T09:52:55Z</time>
      </trkpt>
      <trkpt lat="45.6377" lon="4.41806">
        <ele>609.2</ele>
        <time>2017-03-19T09:52:57Z</time>
      </trkpt>
      <trkpt lat="45.63774" lon="4.41802">
        <ele>609.1</ele>
        <time>2017-03-19T09:52:59Z</time>
      </trkpt>
      <trkpt lat="45.63777" lon="4.41798">
        <ele>608.8</ele>
        <time>2017-03-19T09:53:01Z</time>
      </trkpt>
      <trkpt lat="45.6378" lon="4.41793">
        <ele>608.5</ele>
        <time>2017-03-19T09:53:03Z</time>
      </trkpt>
      <trkpt lat="45.63784" lon="4.41788">
        <ele>608.7</ele>
        <time>2017-03-19T09:53:05Z</time>
      </trkpt>
      <trkpt lat="45.63786" lon="4.41786">
        <ele>608.9</ele>
        <time>2017-03-19T09:53:06Z</time>
      </trkpt>
      <trkpt lat="45.63788" lon="4.41784">
        <ele>609.4</ele>
        <time>2017-03-19T09:53:07Z</time>
      </trkpt>
      <trkpt lat="45.63791" lon="4.41782">
        <ele>609.8</ele>
        <time>2017-03-19T09:53:08Z</time>
      </trkpt>
      <trkpt lat="45.63793" lon="4.41779">
        <ele>610.2</ele>
        <time>2017-03-19T09:53:09Z</time>
      </trkpt>
      <trkpt lat="45.63796" lon="4.41777">
        <ele>610.2</ele>
        <time>2017-03-19T09:53:10Z</time>
      </trkpt>
      <trkpt lat="45.63799" lon="4.41774">
        <ele>610.3</ele>
        <time>2017-03-19T09:53:11Z</time>
      </trkpt>
      <trkpt lat="45.63803" lon="4.41771">
        <ele>610.2</ele>
        <time>2017-03-19T09:53:12Z</time>
      </trkpt>
      <trkpt lat="45.63806" lon="4.41769">
        <ele>610.2</ele>
        <time>2017-03-19T09:53:13Z</time>
      </trkpt>
      <trkpt lat="45.63809" lon="4.41765">
        <ele>610.5</ele>
        <time>2017-03-19T09:53:14Z</time>
      </trkpt>
      <trkpt lat="45.63813" lon="4.41762">
        <ele>610.9</ele>
        <time>2017-03-19T09:53:15Z</time>
      </trkpt>
      <trkpt lat="45.63816" lon="4.41757">
        <ele>610.6</ele>
        <time>2017-03-19T09:53:16Z</time>
      </trkpt>
      <trkpt lat="45.6382" lon="4.41752">
        <ele>610.2</ele>
        <time>2017-03-19T09:53:17Z</time>
      </trkpt>
      <trkpt lat="45.63823" lon="4.41746">
        <ele>609.8</ele>
        <time>2017-03-19T09:53:18Z</time>
      </trkpt>
      <trkpt lat="45.63825" lon="4.4174">
        <ele>609.5</ele>
        <time>2017-03-19T09:53:19Z</time>
      </trkpt>
      <trkpt lat="45.63828" lon="4.41734">
        <ele>609.1</ele>
        <time>2017-03-19T09:53:20Z</time>
      </trkpt>
      <trkpt lat="45.63831" lon="4.41728">
        <ele>608.9</ele>
        <time>2017-03-19T09:53:21Z</time>
      </trkpt>
      <trkpt lat="45.63834" lon="4.41721">
        <ele>608.8</ele>
        <time>2017-03-19T09:53:22Z</time>
      </trkpt>
      <trkpt lat="45.63838" lon="4.41715">
        <ele>608.8</ele>
        <time>2017-03-19T09:53:23Z</time>
      </trkpt>
      <trkpt lat="45.63841" lon="4.41709">
        <ele>608.8</ele>
        <time>2017-03-19T09:53:24Z</time>
      </trkpt>
      <trkpt lat="45.63845" lon="4.41704">
        <ele>609</ele>
        <time>2017-03-19T09:53:25Z</time>
      </trkpt>
      <trkpt lat="45.63849" lon="4.417">
        <ele>609</ele>
        <time>2017-03-19T09:53:26Z</time>
      </trkpt>
      <trkpt lat="45.63853" lon="4.41697">
        <ele>608.9</ele>
        <time>2017-03-19T09:53:27Z</time>
      </trkpt>
      <trkpt lat="45.63857" lon="4.41693">
        <ele>608.8</ele>
        <time>2017-03-19T09:53:28Z</time>
      </trkpt>
      <trkpt lat="45.6386" lon="4.41689">
        <ele>608.6</ele>
        <time>2017-03-19T09:53:29Z</time>
      </trkpt>
      <trkpt lat="45.63864" lon="4.41686">
        <ele>608.5</ele>
        <time>2017-03-19T09:53:30Z</time>
      </trkpt>
      <trkpt lat="45.63866" lon="4.41683">
        <ele>608.5</ele>
        <time>2017-03-19T09:53:31Z</time>
      </trkpt>
      <trkpt lat="45.63872" lon="4.41679">
        <ele>608.6</ele>
        <time>2017-03-19T09:53:33Z</time>
      </trkpt>
      <trkpt lat="45.63875" lon="4.41675">
        <ele>608.8</ele>
        <time>2017-03-19T09:53:34Z</time>
      </trkpt>
      <trkpt lat="45.63877" lon="4.41673">
        <ele>609</ele>
        <time>2017-03-19T09:53:35Z</time>
      </trkpt>
      <trkpt lat="45.63881" lon="4.4167">
        <ele>609.3</ele>
        <time>2017-03-19T09:53:36Z</time>
      </trkpt>
      <trkpt lat="45.63884" lon="4.41667">
        <ele>609.6</ele>
        <time>2017-03-19T09:53:37Z</time>
      </trkpt>
      <trkpt lat="45.63887" lon="4.41665">
        <ele>609.7</ele>
        <time>2017-03-19T09:53:38Z</time>
      </trkpt>
      <trkpt lat="45.63891" lon="4.41664">
        <ele>609.9</ele>
        <time>2017-03-19T09:53:39Z</time>
      </trkpt>
      <trkpt lat="45.63894" lon="4.41662">
        <ele>610</ele>
        <time>2017-03-19T09:53:40Z</time>
      </trkpt>
      <trkpt lat="45.63897" lon="4.41661">
        <ele>610</ele>
        <time>2017-03-19T09:53:41Z</time>
      </trkpt>
      <trkpt lat="45.639" lon="4.41659">
        <ele>610.1</ele>
        <time>2017-03-19T09:53:42Z</time>
      </trkpt>
      <trkpt lat="45.63903" lon="4.41658">
        <ele>610.2</ele>
        <time>2017-03-19T09:53:43Z</time>
      </trkpt>
      <trkpt lat="45.63907" lon="4.41656">
        <ele>610.2</ele>
        <time>2017-03-19T09:53:44Z</time>
      </trkpt>
      <trkpt lat="45.63909" lon="4.41655">
        <ele>610.3</ele>
        <time>2017-03-19T09:53:45Z</time>
      </trkpt>
      <trkpt lat="45.63914" lon="4.41652">
        <ele>610.1</ele>
        <time>2017-03-19T09:53:47Z</time>
      </trkpt>
      <trkpt lat="45.63917" lon="4.4165">
        <ele>610.1</ele>
        <time>2017-03-19T09:53:48Z</time>
      </trkpt>
      <trkpt lat="45.63919" lon="4.41647">
        <ele>610</ele>
        <time>2017-03-19T09:53:49Z</time>
      </trkpt>
      <trkpt lat="45.63921" lon="4.41644">
        <ele>610</ele>
        <time>2017-03-19T09:53:50Z</time>
      </trkpt>
      <trkpt lat="45.63922" lon="4.4164">
        <ele>610.1</ele>
        <time>2017-03-19T09:53:51Z</time>
      </trkpt>
      <trkpt lat="45.63923" lon="4.41636">
        <ele>610.3</ele>
        <time>2017-03-19T09:53:52Z</time>
      </trkpt>
      <trkpt lat="45.63924" lon="4.41631">
        <ele>610.5</ele>
        <time>2017-03-19T09:53:53Z</time>
      </trkpt>
      <trkpt lat="45.63925" lon="4.41627">
        <ele>610.8</ele>
        <time>2017-03-19T09:53:54Z</time>
      </trkpt>
      <trkpt lat="45.63925" lon="4.41622">
        <ele>611.2</ele>
        <time>2017-03-19T09:53:55Z</time>
      </trkpt>
      <trkpt lat="45.63926" lon="4.41618">
        <ele>611.6</ele>
        <time>2017-03-19T09:53:56Z</time>
      </trkpt>
      <trkpt lat="45.63926" lon="4.41614">
        <ele>612.1</ele>
        <time>2017-03-19T09:53:57Z</time>
      </trkpt>
      <trkpt lat="45.63926" lon="4.41609">
        <ele>612.5</ele>
        <time>2017-03-19T09:53:58Z</time>
      </trkpt>
      <trkpt lat="45.63926" lon="4.41605">
        <ele>612.8</ele>
        <time>2017-03-19T09:53:59Z</time>
      </trkpt>
      <trkpt lat="45.63926" lon="4.41601">
        <ele>613</ele>
        <time>2017-03-19T09:54:00Z</time>
      </trkpt>
      <trkpt lat="45.63927" lon="4.41597">
        <ele>613.4</ele>
        <time>2017-03-19T09:54:01Z</time>
      </trkpt>
      <trkpt lat="45.63927" lon="4.41593">
        <ele>613.9</ele>
        <time>2017-03-19T09:54:02Z</time>
      </trkpt>
      <trkpt lat="45.63928" lon="4.41589">
        <ele>614.3</ele>
        <time>2017-03-19T09:54:03Z</time>
      </trkpt>
      <trkpt lat="45.63929" lon="4.41585">
        <ele>614.8</ele>
        <time>2017-03-19T09:54:04Z</time>
      </trkpt>
      <trkpt lat="45.6393" lon="4.41581">
        <ele>615</ele>
        <time>2017-03-19T09:54:05Z</time>
      </trkpt>
      <trkpt lat="45.63931" lon="4.41576">
        <ele>615.3</ele>
        <time>2017-03-19T09:54:06Z</time>
      </trkpt>
      <trkpt lat="45.63931" lon="4.41572">
        <ele>615.5</ele>
        <time>2017-03-19T09:54:07Z</time>
      </trkpt>
      <trkpt lat="45.63932" lon="4.41568">
        <ele>615.8</ele>
        <time>2017-03-19T09:54:08Z</time>
      </trkpt>
      <trkpt lat="45.63933" lon="4.41563">
        <ele>616</ele>
        <time>2017-03-19T09:54:09Z</time>
      </trkpt>
      <trkpt lat="45.63933" lon="4.41559">
        <ele>616.2</ele>
        <time>2017-03-19T09:54:10Z</time>
      </trkpt>
      <trkpt lat="45.63933" lon="4.41554">
        <ele>616.3</ele>
        <time>2017-03-19T09:54:11Z</time>
      </trkpt>
      <trkpt lat="45.63934" lon="4.41549">
        <ele>616.5</ele>
        <time>2017-03-19T09:54:12Z</time>
      </trkpt>
      <trkpt lat="45.63934" lon="4.41545">
        <ele>616.6</ele>
        <time>2017-03-19T09:54:13Z</time>
      </trkpt>
      <trkpt lat="45.63934" lon="4.4154">
        <ele>616.7</ele>
        <time>2017-03-19T09:54:14Z</time>
      </trkpt>
      <trkpt lat="45.63934" lon="4.41535">
        <ele>616.9</ele>
        <time>2017-03-19T09:54:15Z</time>
      </trkpt>
      <trkpt lat="45.63934" lon="4.41529">
        <ele>616.7</ele>
        <time>2017-03-19T09:54:16Z</time>
      </trkpt>
      <trkpt lat="45.63934" lon="4.41524">
        <ele>616.5</ele>
        <time>2017-03-19T09:54:17Z</time>
      </trkpt>
      <trkpt lat="45.63935" lon="4.41518">
        <ele>616.2</ele>
        <time>2017-03-19T09:54:18Z</time>
      </trkpt>
      <trkpt lat="45.63935" lon="4.41513">
        <ele>615.9</ele>
        <time>2017-03-19T09:54:19Z</time>
      </trkpt>
      <trkpt lat="45.63935" lon="4.41507">
        <ele>615.5</ele>
        <time>2017-03-19T09:54:20Z</time>
      </trkpt>
      <trkpt lat="45.63935" lon="4.41501">
        <ele>615.2</ele>
        <time>2017-03-19T09:54:21Z</time>
      </trkpt>
      <trkpt lat="45.63936" lon="4.41495">
        <ele>614.8</ele>
        <time>2017-03-19T09:54:22Z</time>
      </trkpt>
      <trkpt lat="45.63936" lon="4.41489">
        <ele>614.6</ele>
        <time>2017-03-19T09:54:23Z</time>
      </trkpt>
      <trkpt lat="45.63937" lon="4.41483">
        <ele>614.5</ele>
        <time>2017-03-19T09:54:24Z</time>
      </trkpt>
      <trkpt lat="45.63938" lon="4.41478">
        <ele>614.1</ele>
        <time>2017-03-19T09:54:25Z</time>
      </trkpt>
      <trkpt lat="45.63939" lon="4.41472">
        <ele>613.7</ele>
        <time>2017-03-19T09:54:26Z</time>
      </trkpt>
      <trkpt lat="45.6394" lon="4.41466">
        <ele>613.2</ele>
        <time>2017-03-19T09:54:27Z</time>
      </trkpt>
      <trkpt lat="45.63941" lon="4.4146">
        <ele>612.6</ele>
        <time>2017-03-19T09:54:28Z</time>
      </trkpt>
      <trkpt lat="45.63943" lon="4.41453">
        <ele>611.8</ele>
        <time>2017-03-19T09:54:29Z</time>
      </trkpt>
      <trkpt lat="45.63945" lon="4.41445">
        <ele>611</ele>
        <time>2017-03-19T09:54:30Z</time>
      </trkpt>
      <trkpt lat="45.63948" lon="4.41438">
        <ele>611</ele>
        <time>2017-03-19T09:54:31Z</time>
      </trkpt>
      <trkpt lat="45.63952" lon="4.4143">
        <ele>611.4</ele>
        <time>2017-03-19T09:54:32Z</time>
      </trkpt>
      <trkpt lat="45.63957" lon="4.41423">
        <ele>611.8</ele>
        <time>2017-03-19T09:54:33Z</time>
      </trkpt>
      <trkpt lat="45.63963" lon="4.41418">
        <ele>612.3</ele>
        <time>2017-03-19T09:54:34Z</time>
      </trkpt>
      <trkpt lat="45.63969" lon="4.41414">
        <ele>612.2</ele>
        <time>2017-03-19T09:54:35Z</time>
      </trkpt>
      <trkpt lat="45.63975" lon="4.41409">
        <ele>612.2</ele>
        <time>2017-03-19T09:54:36Z</time>
      </trkpt>
      <trkpt lat="45.63981" lon="4.41404">
        <ele>612.2</ele>
        <time>2017-03-19T09:54:37Z</time>
      </trkpt>
      <trkpt lat="45.63987" lon="4.414">
        <ele>612.4</ele>
        <time>2017-03-19T09:54:38Z</time>
      </trkpt>
      <trkpt lat="45.63993" lon="4.41395">
        <ele>612.7</ele>
        <time>2017-03-19T09:54:39Z</time>
      </trkpt>
      <trkpt lat="45.63998" lon="4.4139">
        <ele>612.9</ele>
        <time>2017-03-19T09:54:40Z</time>
      </trkpt>
      <trkpt lat="45.64003" lon="4.41384">
        <ele>612.6</ele>
        <time>2017-03-19T09:54:41Z</time>
      </trkpt>
      <trkpt lat="45.64008" lon="4.41378">
        <ele>612.3</ele>
        <time>2017-03-19T09:54:42Z</time>
      </trkpt>
      <trkpt lat="45.64012" lon="4.41374">
        <ele>612.5</ele>
        <time>2017-03-19T09:54:43Z</time>
      </trkpt>
      <trkpt lat="45.64015" lon="4.4137">
        <ele>612.2</ele>
        <time>2017-03-19T09:54:44Z</time>
      </trkpt>
      <trkpt lat="45.64018" lon="4.41366">
        <ele>612.1</ele>
        <time>2017-03-19T09:54:45Z</time>
      </trkpt>
      <trkpt lat="45.64021" lon="4.41361">
        <ele>612</ele>
        <time>2017-03-19T09:54:46Z</time>
      </trkpt>
      <trkpt lat="45.64025" lon="4.41356">
        <ele>611.9</ele>
        <time>2017-03-19T09:54:47Z</time>
      </trkpt>
      <trkpt lat="45.64027" lon="4.41349">
        <ele>611.3</ele>
        <time>2017-03-19T09:54:48Z</time>
      </trkpt>
      <trkpt lat="45.6403" lon="4.41342">
        <ele>611.4</ele>
        <time>2017-03-19T09:54:49Z</time>
      </trkpt>
      <trkpt lat="45.64033" lon="4.41335">
        <ele>611.4</ele>
        <time>2017-03-19T09:54:50Z</time>
      </trkpt>
      <trkpt lat="45.64035" lon="4.41327">
        <ele>610.7</ele>
        <time>2017-03-19T09:54:51Z</time>
      </trkpt>
      <trkpt lat="45.64037" lon="4.41318">
        <ele>610.7</ele>
        <time>2017-03-19T09:54:52Z</time>
      </trkpt>
      <trkpt lat="45.6404" lon="4.4131">
        <ele>610.5</ele>
        <time>2017-03-19T09:54:53Z</time>
      </trkpt>
      <trkpt lat="45.64042" lon="4.41302">
        <ele>609.4</ele>
        <time>2017-03-19T09:54:54Z</time>
      </trkpt>
      <trkpt lat="45.64043" lon="4.41293">
        <ele>609.1</ele>
        <time>2017-03-19T09:54:55Z</time>
      </trkpt>
      <trkpt lat="45.64044" lon="4.41284">
        <ele>608</ele>
        <time>2017-03-19T09:54:56Z</time>
      </trkpt>
      <trkpt lat="45.64046" lon="4.41277">
        <ele>608.5</ele>
        <time>2017-03-19T09:54:57Z</time>
      </trkpt>
      <trkpt lat="45.64044" lon="4.41273">
        <ele>606.9</ele>
        <time>2017-03-19T09:54:59Z</time>
      </trkpt>
      <trkpt lat="45.64043" lon="4.41264">
        <ele>606.2</ele>
        <time>2017-03-19T09:55:01Z</time>
      </trkpt>
      <trkpt lat="45.64043" lon="4.41257">
        <ele>605.8</ele>
        <time>2017-03-19T09:55:02Z</time>
      </trkpt>
      <trkpt lat="45.64042" lon="4.41251">
        <ele>605.3</ele>
        <time>2017-03-19T09:55:03Z</time>
      </trkpt>
      <trkpt lat="45.64043" lon="4.41245">
        <ele>605.1</ele>
        <time>2017-03-19T09:55:04Z</time>
      </trkpt>
      <trkpt lat="45.64045" lon="4.4124">
        <ele>604.7</ele>
        <time>2017-03-19T09:55:05Z</time>
      </trkpt>
      <trkpt lat="45.64046" lon="4.41234">
        <ele>604.8</ele>
        <time>2017-03-19T09:55:06Z</time>
      </trkpt>
      <trkpt lat="45.64048" lon="4.41228">
        <ele>603.9</ele>
        <time>2017-03-19T09:55:07Z</time>
      </trkpt>
      <trkpt lat="45.64049" lon="4.4122">
        <ele>603.4</ele>
        <time>2017-03-19T09:55:08Z</time>
      </trkpt>
      <trkpt lat="45.64051" lon="4.41213">
        <ele>602.5</ele>
        <time>2017-03-19T09:55:09Z</time>
      </trkpt>
      <trkpt lat="45.64052" lon="4.41204">
        <ele>601.1</ele>
        <time>2017-03-19T09:55:10Z</time>
      </trkpt>
      <trkpt lat="45.64054" lon="4.41196">
        <ele>600.8</ele>
        <time>2017-03-19T09:55:11Z</time>
      </trkpt>
      <trkpt lat="45.64055" lon="4.41187">
        <ele>599</ele>
        <time>2017-03-19T09:55:12Z</time>
      </trkpt>
      <trkpt lat="45.64058" lon="4.41178">
        <ele>597.9</ele>
        <time>2017-03-19T09:55:13Z</time>
      </trkpt>
      <trkpt lat="45.64059" lon="4.41169">
        <ele>596.7</ele>
        <time>2017-03-19T09:55:14Z</time>
      </trkpt>
      <trkpt lat="45.64058" lon="4.41164">
        <ele>596.1</ele>
        <time>2017-03-19T09:55:15Z</time>
      </trkpt>
      <trkpt lat="45.64062" lon="4.41154">
        <ele>595.2</ele>
        <time>2017-03-19T09:55:17Z</time>
      </trkpt>
      <trkpt lat="45.64065" lon="4.41148">
        <ele>594.9</ele>
        <time>2017-03-19T09:55:18Z</time>
      </trkpt>
      <trkpt lat="45.64068" lon="4.41144">
        <ele>594</ele>
        <time>2017-03-19T09:55:19Z</time>
      </trkpt>
      <trkpt lat="45.64069" lon="4.41139">
        <ele>593.3</ele>
        <time>2017-03-19T09:55:20Z</time>
      </trkpt>
      <trkpt lat="45.64069" lon="4.41134">
        <ele>592.4</ele>
        <time>2017-03-19T09:55:21Z</time>
      </trkpt>
      <trkpt lat="45.64067" lon="4.41127">
        <ele>590</ele>
        <time>2017-03-19T09:55:22Z</time>
      </trkpt>
      <trkpt lat="45.64062" lon="4.41123">
        <ele>588.9</ele>
        <time>2017-03-19T09:55:23Z</time>
      </trkpt>
      <trkpt lat="45.64057" lon="4.4112">
        <ele>587.1</ele>
        <time>2017-03-19T09:55:24Z</time>
      </trkpt>
      <trkpt lat="45.64052" lon="4.41117">
        <ele>585</ele>
        <time>2017-03-19T09:55:25Z</time>
      </trkpt>
      <trkpt lat="45.64047" lon="4.41116">
        <ele>583.9</ele>
        <time>2017-03-19T09:55:26Z</time>
      </trkpt>
      <trkpt lat="45.6404" lon="4.41113">
        <ele>581.6</ele>
        <time>2017-03-19T09:55:27Z</time>
      </trkpt>
      <trkpt lat="45.64035" lon="4.4111">
        <ele>580.4</ele>
        <time>2017-03-19T09:55:28Z</time>
      </trkpt>
      <trkpt lat="45.64032" lon="4.41107">
        <ele>579</ele>
        <time>2017-03-19T09:55:29Z</time>
      </trkpt>
      <trkpt lat="45.64029" lon="4.41105">
        <ele>577.8</ele>
        <time>2017-03-19T09:55:30Z</time>
      </trkpt>
      <trkpt lat="45.64026" lon="4.41105">
        <ele>577.3</ele>
        <time>2017-03-19T09:55:31Z</time>
      </trkpt>
      <trkpt lat="45.64022" lon="4.41104">
        <ele>576.9</ele>
        <time>2017-03-19T09:55:32Z</time>
      </trkpt>
      <trkpt lat="45.64018" lon="4.41103">
        <ele>576</ele>
        <time>2017-03-19T09:55:33Z</time>
      </trkpt>
      <trkpt lat="45.64013" lon="4.411">
        <ele>574.9</ele>
        <time>2017-03-19T09:55:35Z</time>
      </trkpt>
      <trkpt lat="45.64008" lon="4.41096">
        <ele>573.4</ele>
        <time>2017-03-19T09:55:37Z</time>
      </trkpt>
      <trkpt lat="45.64003" lon="4.41095">
        <ele>572.9</ele>
        <time>2017-03-19T09:55:39Z</time>
      </trkpt>
      <trkpt lat="45.64" lon="4.41096">
        <ele>572.1</ele>
        <time>2017-03-19T09:55:40Z</time>
      </trkpt>
      <trkpt lat="45.63997" lon="4.41096">
        <ele>571.6</ele>
        <time>2017-03-19T09:55:41Z</time>
      </trkpt>
      <trkpt lat="45.63994" lon="4.41097">
        <ele>571.6</ele>
        <time>2017-03-19T09:55:42Z</time>
      </trkpt>
      <trkpt lat="45.63991" lon="4.41095">
        <ele>570.5</ele>
        <time>2017-03-19T09:55:43Z</time>
      </trkpt>
      <trkpt lat="45.63989" lon="4.41092">
        <ele>570.1</ele>
        <time>2017-03-19T09:55:44Z</time>
      </trkpt>
      <trkpt lat="45.63989" lon="4.41088">
        <ele>569.6</ele>
        <time>2017-03-19T09:55:45Z</time>
      </trkpt>
      <trkpt lat="45.6399" lon="4.41084">
        <ele>569.2</ele>
        <time>2017-03-19T09:55:46Z</time>
      </trkpt>
      <trkpt lat="45.63993" lon="4.4108">
        <ele>569.6</ele>
        <time>2017-03-19T09:55:47Z</time>
      </trkpt>
      <trkpt lat="45.63996" lon="4.41078">
        <ele>569.5</ele>
        <time>2017-03-19T09:55:48Z</time>
      </trkpt>
      <trkpt lat="45.63999" lon="4.41078">
        <ele>569.9</ele>
        <time>2017-03-19T09:55:49Z</time>
      </trkpt>
      <trkpt lat="45.64004" lon="4.41077">
        <ele>570.4</ele>
        <time>2017-03-19T09:55:51Z</time>
      </trkpt>
      <trkpt lat="45.64007" lon="4.41076">
        <ele>570.7</ele>
        <time>2017-03-19T09:55:53Z</time>
      </trkpt>
      <trkpt lat="45.6401" lon="4.41075">
        <ele>570.2</ele>
        <time>2017-03-19T09:55:55Z</time>
      </trkpt>
      <trkpt lat="45.64012" lon="4.41074">
        <ele>570.4</ele>
        <time>2017-03-19T09:55:56Z</time>
      </trkpt>
      <trkpt lat="45.64017" lon="4.41073">
        <ele>570.6</ele>
        <time>2017-03-19T09:55:58Z</time>
      </trkpt>
      <trkpt lat="45.64021" lon="4.4107">
        <ele>570</ele>
        <time>2017-03-19T09:56:00Z</time>
      </trkpt>
      <trkpt lat="45.64026" lon="4.41067">
        <ele>570.2</ele>
        <time>2017-03-19T09:56:02Z</time>
      </trkpt>
      <trkpt lat="45.64028" lon="4.41066">
        <ele>569.3</ele>
        <time>2017-03-19T09:56:03Z</time>
      </trkpt>
      <trkpt lat="45.64031" lon="4.41064">
        <ele>569.5</ele>
        <time>2017-03-19T09:56:04Z</time>
      </trkpt>
      <trkpt lat="45.64034" lon="4.41063">
        <ele>569.8</ele>
        <time>2017-03-19T09:56:05Z</time>
      </trkpt>
      <trkpt lat="45.64037" lon="4.41061">
        <ele>569.2</ele>
        <time>2017-03-19T09:56:06Z</time>
      </trkpt>
      <trkpt lat="45.6404" lon="4.41059">
        <ele>569.6</ele>
        <time>2017-03-19T09:56:07Z</time>
      </trkpt>
      <trkpt lat="45.64043" lon="4.41055">
        <ele>569.3</ele>
        <time>2017-03-19T09:56:08Z</time>
      </trkpt>
      <trkpt lat="45.64046" lon="4.41051">
        <ele>569.1</ele>
        <time>2017-03-19T09:56:09Z</time>
      </trkpt>
      <trkpt lat="45.64049" lon="4.41047">
        <ele>568.8</ele>
        <time>2017-03-19T09:56:10Z</time>
      </trkpt>
      <trkpt lat="45.6405" lon="4.41042">
        <ele>568.2</ele>
        <time>2017-03-19T09:56:11Z</time>
      </trkpt>
      <trkpt lat="45.64052" lon="4.41038">
        <ele>568</ele>
        <time>2017-03-19T09:56:12Z</time>
      </trkpt>
      <trkpt lat="45.64052" lon="4.4103">
        <ele>567.4</ele>
        <time>2017-03-19T09:56:14Z</time>
      </trkpt>
      <trkpt lat="45.64051" lon="4.41026">
        <ele>567.3</ele>
        <time>2017-03-19T09:56:15Z</time>
      </trkpt>
      <trkpt lat="45.64049" lon="4.41023">
        <ele>567.2</ele>
        <time>2017-03-19T09:56:16Z</time>
      </trkpt>
      <trkpt lat="45.64046" lon="4.4102">
        <ele>567.1</ele>
        <time>2017-03-19T09:56:17Z</time>
      </trkpt>
      <trkpt lat="45.64043" lon="4.41018">
        <ele>567</ele>
        <time>2017-03-19T09:56:18Z</time>
      </trkpt>
      <trkpt lat="45.64039" lon="4.41017">
        <ele>566.8</ele>
        <time>2017-03-19T09:56:19Z</time>
      </trkpt>
      <trkpt lat="45.64037" lon="4.41016">
        <ele>566.5</ele>
        <time>2017-03-19T09:56:20Z</time>
      </trkpt>
      <trkpt lat="45.64034" lon="4.41015">
        <ele>566.4</ele>
        <time>2017-03-19T09:56:21Z</time>
      </trkpt>
      <trkpt lat="45.64029" lon="4.41012">
        <ele>565.6</ele>
        <time>2017-03-19T09:56:23Z</time>
      </trkpt>
      <trkpt lat="45.64026" lon="4.41011">
        <ele>565.2</ele>
        <time>2017-03-19T09:56:24Z</time>
      </trkpt>
      <trkpt lat="45.64024" lon="4.4101">
        <ele>564.7</ele>
        <time>2017-03-19T09:56:25Z</time>
      </trkpt>
      <trkpt lat="45.64021" lon="4.41008">
        <ele>564.7</ele>
        <time>2017-03-19T09:56:26Z</time>
      </trkpt>
      <trkpt lat="45.64016" lon="4.41004">
        <ele>563.5</ele>
        <time>2017-03-19T09:56:28Z</time>
      </trkpt>
      <trkpt lat="45.64013" lon="4.41002">
        <ele>562.8</ele>
        <time>2017-03-19T09:56:29Z</time>
      </trkpt>
      <trkpt lat="45.6401" lon="4.40999">
        <ele>562.1</ele>
        <time>2017-03-19T09:56:30Z</time>
      </trkpt>
      <trkpt lat="45.64007" lon="4.40996">
        <ele>561.4</ele>
        <time>2017-03-19T09:56:31Z</time>
      </trkpt>
      <trkpt lat="45.64004" lon="4.40992">
        <ele>560.9</ele>
        <time>2017-03-19T09:56:32Z</time>
      </trkpt>
      <trkpt lat="45.64001" lon="4.40989">
        <ele>560.5</ele>
        <time>2017-03-19T09:56:33Z</time>
      </trkpt>
      <trkpt lat="45.63997" lon="4.40985">
        <ele>560.2</ele>
        <time>2017-03-19T09:56:34Z</time>
      </trkpt>
      <trkpt lat="45.63994" lon="4.40981">
        <ele>559.8</ele>
        <time>2017-03-19T09:56:35Z</time>
      </trkpt>
      <trkpt lat="45.63992" lon="4.40978">
        <ele>559.6</ele>
        <time>2017-03-19T09:56:36Z</time>
      </trkpt>
      <trkpt lat="45.63989" lon="4.40974">
        <ele>559.4</ele>
        <time>2017-03-19T09:56:37Z</time>
      </trkpt>
      <trkpt lat="45.63986" lon="4.40971">
        <ele>559.3</ele>
        <time>2017-03-19T09:56:38Z</time>
      </trkpt>
      <trkpt lat="45.63984" lon="4.40967">
        <ele>559.2</ele>
        <time>2017-03-19T09:56:39Z</time>
      </trkpt>
      <trkpt lat="45.63981" lon="4.40963">
        <ele>559.2</ele>
        <time>2017-03-19T09:56:40Z</time>
      </trkpt>
      <trkpt lat="45.63978" lon="4.4096">
        <ele>558.9</ele>
        <time>2017-03-19T09:56:41Z</time>
      </trkpt>
      <trkpt lat="45.63975" lon="4.40956">
        <ele>559</ele>
        <time>2017-03-19T09:56:42Z</time>
      </trkpt>
      <trkpt lat="45.63971" lon="4.40953">
        <ele>559.1</ele>
        <time>2017-03-19T09:56:43Z</time>
      </trkpt>
      <trkpt lat="45.63968" lon="4.4095">
        <ele>559.2</ele>
        <time>2017-03-19T09:56:44Z</time>
      </trkpt>
      <trkpt lat="45.63964" lon="4.40947">
        <ele>558.8</ele>
        <time>2017-03-19T09:56:45Z</time>
      </trkpt>
      <trkpt lat="45.6396" lon="4.40945">
        <ele>558.4</ele>
        <time>2017-03-19T09:56:46Z</time>
      </trkpt>
      <trkpt lat="45.63956" lon="4.40944">
        <ele>558</ele>
        <time>2017-03-19T09:56:47Z</time>
      </trkpt>
      <trkpt lat="45.63952" lon="4.40942">
        <ele>557.6</ele>
        <time>2017-03-19T09:56:48Z</time>
      </trkpt>
      <trkpt lat="45.63949" lon="4.40941">
        <ele>557.8</ele>
        <time>2017-03-19T09:56:49Z</time>
      </trkpt>
      <trkpt lat="45.63945" lon="4.4094">
        <ele>557.4</ele>
        <time>2017-03-19T09:56:50Z</time>
      </trkpt>
      <trkpt lat="45.63941" lon="4.40939">
        <ele>557.1</ele>
        <time>2017-03-19T09:56:51Z</time>
      </trkpt>
      <trkpt lat="45.63937" lon="4.40937">
        <ele>557.7</ele>
        <time>2017-03-19T09:56:52Z</time>
      </trkpt>
      <trkpt lat="45.63934" lon="4.40936">
        <ele>557.5</ele>
        <time>2017-03-19T09:56:53Z</time>
      </trkpt>
      <trkpt lat="45.63931" lon="4.40934">
        <ele>558.1</ele>
        <time>2017-03-19T09:56:54Z</time>
      </trkpt>
      <trkpt lat="45.63928" lon="4.4093">
        <ele>557.9</ele>
        <time>2017-03-19T09:56:55Z</time>
      </trkpt>
      <trkpt lat="45.63926" lon="4.40926">
        <ele>558.5</ele>
        <time>2017-03-19T09:56:56Z</time>
      </trkpt>
      <trkpt lat="45.63925" lon="4.40922">
        <ele>559.1</ele>
        <time>2017-03-19T09:56:57Z</time>
      </trkpt>
      <trkpt lat="45.63923" lon="4.40917">
        <ele>559.8</ele>
        <time>2017-03-19T09:56:58Z</time>
      </trkpt>
      <trkpt lat="45.63922" lon="4.40913">
        <ele>560.2</ele>
        <time>2017-03-19T09:56:59Z</time>
      </trkpt>
      <trkpt lat="45.6392" lon="4.40909">
        <ele>560.9</ele>
        <time>2017-03-19T09:57:00Z</time>
      </trkpt>
      <trkpt lat="45.63919" lon="4.40905">
        <ele>561.3</ele>
        <time>2017-03-19T09:57:01Z</time>
      </trkpt>
      <trkpt lat="45.63917" lon="4.40899">
        <ele>562</ele>
        <time>2017-03-19T09:57:03Z</time>
      </trkpt>
      <trkpt lat="45.63915" lon="4.40893">
        <ele>562.8</ele>
        <time>2017-03-19T09:57:05Z</time>
      </trkpt>
      <trkpt lat="45.63913" lon="4.40887">
        <ele>563.3</ele>
        <time>2017-03-19T09:57:07Z</time>
      </trkpt>
      <trkpt lat="45.63912" lon="4.40881">
        <ele>563.9</ele>
        <time>2017-03-19T09:57:09Z</time>
      </trkpt>
      <trkpt lat="45.6391" lon="4.40876">
        <ele>564.4</ele>
        <time>2017-03-19T09:57:11Z</time>
      </trkpt>
      <trkpt lat="45.63909" lon="4.40871">
        <ele>564.7</ele>
        <time>2017-03-19T09:57:13Z</time>
      </trkpt>
      <trkpt lat="45.63907" lon="4.40866">
        <ele>565.3</ele>
        <time>2017-03-19T09:57:15Z</time>
      </trkpt>
      <trkpt lat="45.63907" lon="4.40861">
        <ele>566.2</ele>
        <time>2017-03-19T09:57:17Z</time>
      </trkpt>
      <trkpt lat="45.63906" lon="4.40855">
        <ele>566.8</ele>
        <time>2017-03-19T09:57:19Z</time>
      </trkpt>
      <trkpt lat="45.63906" lon="4.40849">
        <ele>567.4</ele>
        <time>2017-03-19T09:57:21Z</time>
      </trkpt>
      <trkpt lat="45.63904" lon="4.40843">
        <ele>568.7</ele>
        <time>2017-03-19T09:57:23Z</time>
      </trkpt>
      <trkpt lat="45.63903" lon="4.40838">
        <ele>568.9</ele>
        <time>2017-03-19T09:57:25Z</time>
      </trkpt>
      <trkpt lat="45.63902" lon="4.40832">
        <ele>569.3</ele>
        <time>2017-03-19T09:57:27Z</time>
      </trkpt>
      <trkpt lat="45.63901" lon="4.40826">
        <ele>569.6</ele>
        <time>2017-03-19T09:57:29Z</time>
      </trkpt>
      <trkpt lat="45.639" lon="4.4082">
        <ele>569.8</ele>
        <time>2017-03-19T09:57:31Z</time>
      </trkpt>
      <trkpt lat="45.63899" lon="4.40815">
        <ele>570.1</ele>
        <time>2017-03-19T09:57:33Z</time>
      </trkpt>
      <trkpt lat="45.63899" lon="4.40809">
        <ele>570.5</ele>
        <time>2017-03-19T09:57:35Z</time>
      </trkpt>
      <trkpt lat="45.639" lon="4.40804">
        <ele>570.6</ele>
        <time>2017-03-19T09:57:37Z</time>
      </trkpt>
      <trkpt lat="45.63899" lon="4.40798">
        <ele>570.9</ele>
        <time>2017-03-19T09:57:39Z</time>
      </trkpt>
      <trkpt lat="45.639" lon="4.40792">
        <ele>571.6</ele>
        <time>2017-03-19T09:57:41Z</time>
      </trkpt>
      <trkpt lat="45.639" lon="4.40785">
        <ele>572</ele>
        <time>2017-03-19T09:57:43Z</time>
      </trkpt>
      <trkpt lat="45.63901" lon="4.40778">
        <ele>572.2</ele>
        <time>2017-03-19T09:57:45Z</time>
      </trkpt>
      <trkpt lat="45.63902" lon="4.40771">
        <ele>572.4</ele>
        <time>2017-03-19T09:57:47Z</time>
      </trkpt>
      <trkpt lat="45.63903" lon="4.40764">
        <ele>572.8</ele>
        <time>2017-03-19T09:57:49Z</time>
      </trkpt>
      <trkpt lat="45.63903" lon="4.40758">
        <ele>573</ele>
        <time>2017-03-19T09:57:51Z</time>
      </trkpt>
      <trkpt lat="45.63904" lon="4.40753">
        <ele>573.2</ele>
        <time>2017-03-19T09:57:53Z</time>
      </trkpt>
      <trkpt lat="45.63905" lon="4.40748">
        <ele>573.4</ele>
        <time>2017-03-19T09:57:55Z</time>
      </trkpt>
      <trkpt lat="45.63905" lon="4.40741">
        <ele>573.4</ele>
        <time>2017-03-19T09:57:57Z</time>
      </trkpt>
      <trkpt lat="45.63905" lon="4.40733">
        <ele>573.5</ele>
        <time>2017-03-19T09:57:59Z</time>
      </trkpt>
      <trkpt lat="45.63904" lon="4.40728">
        <ele>573.7</ele>
        <time>2017-03-19T09:58:00Z</time>
      </trkpt>
      <trkpt lat="45.63903" lon="4.40723">
        <ele>573.8</ele>
        <time>2017-03-19T09:58:01Z</time>
      </trkpt>
      <trkpt lat="45.63902" lon="4.40719">
        <ele>573.7</ele>
        <time>2017-03-19T09:58:02Z</time>
      </trkpt>
      <trkpt lat="45.639" lon="4.40715">
        <ele>573.7</ele>
        <time>2017-03-19T09:58:03Z</time>
      </trkpt>
      <trkpt lat="45.63898" lon="4.40711">
        <ele>574</ele>
        <time>2017-03-19T09:58:04Z</time>
      </trkpt>
      <trkpt lat="45.63895" lon="4.40708">
        <ele>574.1</ele>
        <time>2017-03-19T09:58:05Z</time>
      </trkpt>
      <trkpt lat="45.63893" lon="4.40704">
        <ele>574.3</ele>
        <time>2017-03-19T09:58:06Z</time>
      </trkpt>
      <trkpt lat="45.6389" lon="4.40701">
        <ele>574.4</ele>
        <time>2017-03-19T09:58:07Z</time>
      </trkpt>
      <trkpt lat="45.63888" lon="4.40698">
        <ele>574.6</ele>
        <time>2017-03-19T09:58:08Z</time>
      </trkpt>
      <trkpt lat="45.63885" lon="4.40695">
        <ele>574.8</ele>
        <time>2017-03-19T09:58:09Z</time>
      </trkpt>
      <trkpt lat="45.63883" lon="4.40692">
        <ele>574.9</ele>
        <time>2017-03-19T09:58:10Z</time>
      </trkpt>
      <trkpt lat="45.6388" lon="4.4069">
        <ele>575.1</ele>
        <time>2017-03-19T09:58:11Z</time>
      </trkpt>
      <trkpt lat="45.63878" lon="4.40687">
        <ele>575.2</ele>
        <time>2017-03-19T09:58:12Z</time>
      </trkpt>
      <trkpt lat="45.63875" lon="4.40684">
        <ele>575.5</ele>
        <time>2017-03-19T09:58:13Z</time>
      </trkpt>
      <trkpt lat="45.63873" lon="4.40681">
        <ele>575.7</ele>
        <time>2017-03-19T09:58:14Z</time>
      </trkpt>
      <trkpt lat="45.63872" lon="4.40677">
        <ele>576</ele>
        <time>2017-03-19T09:58:15Z</time>
      </trkpt>
      <trkpt lat="45.6387" lon="4.40674">
        <ele>576.2</ele>
        <time>2017-03-19T09:58:16Z</time>
      </trkpt>
      <trkpt lat="45.63868" lon="4.4067">
        <ele>576.6</ele>
        <time>2017-03-19T09:58:17Z</time>
      </trkpt>
      <trkpt lat="45.63867" lon="4.40667">
        <ele>577.1</ele>
        <time>2017-03-19T09:58:18Z</time>
      </trkpt>
      <trkpt lat="45.63866" lon="4.40663">
        <ele>577.4</ele>
        <time>2017-03-19T09:58:19Z</time>
      </trkpt>
      <trkpt lat="45.63865" lon="4.40659">
        <ele>577.6</ele>
        <time>2017-03-19T09:58:20Z</time>
      </trkpt>
      <trkpt lat="45.63865" lon="4.40655">
        <ele>577.8</ele>
        <time>2017-03-19T09:58:21Z</time>
      </trkpt>
      <trkpt lat="45.63867" lon="4.40648">
        <ele>578</ele>
        <time>2017-03-19T09:58:23Z</time>
      </trkpt>
      <trkpt lat="45.63867" lon="4.40642">
        <ele>578</ele>
        <time>2017-03-19T09:58:25Z</time>
      </trkpt>
      <trkpt lat="45.63865" lon="4.40635">
        <ele>578</ele>
        <time>2017-03-19T09:58:27Z</time>
      </trkpt>
      <trkpt lat="45.63863" lon="4.40633">
        <ele>578</ele>
        <time>2017-03-19T09:58:28Z</time>
      </trkpt>
      <trkpt lat="45.63861" lon="4.4063">
        <ele>578</ele>
        <time>2017-03-19T09:58:29Z</time>
      </trkpt>
      <trkpt lat="45.63858" lon="4.40627">
        <ele>577.9</ele>
        <time>2017-03-19T09:58:30Z</time>
      </trkpt>
      <trkpt lat="45.63856" lon="4.40624">
        <ele>577.8</ele>
        <time>2017-03-19T09:58:31Z</time>
      </trkpt>
      <trkpt lat="45.63852" lon="4.4062">
        <ele>577.5</ele>
        <time>2017-03-19T09:58:32Z</time>
      </trkpt>
      <trkpt lat="45.63849" lon="4.40616">
        <ele>577.1</ele>
        <time>2017-03-19T09:58:33Z</time>
      </trkpt>
      <trkpt lat="45.63845" lon="4.40611">
        <ele>576.8</ele>
        <time>2017-03-19T09:58:34Z</time>
      </trkpt>
      <trkpt lat="45.6384" lon="4.40606">
        <ele>576.4</ele>
        <time>2017-03-19T09:58:35Z</time>
      </trkpt>
      <trkpt lat="45.63835" lon="4.406">
        <ele>575.8</ele>
        <time>2017-03-19T09:58:36Z</time>
      </trkpt>
      <trkpt lat="45.6383" lon="4.40593">
        <ele>575.5</ele>
        <time>2017-03-19T09:58:37Z</time>
      </trkpt>
      <trkpt lat="45.63825" lon="4.40586">
        <ele>575</ele>
        <time>2017-03-19T09:58:38Z</time>
      </trkpt>
      <trkpt lat="45.63821" lon="4.40578">
        <ele>574.4</ele>
        <time>2017-03-19T09:58:39Z</time>
      </trkpt>
      <trkpt lat="45.63819" lon="4.40568">
        <ele>574.1</ele>
        <time>2017-03-19T09:58:40Z</time>
      </trkpt>
      <trkpt lat="45.63817" lon="4.40558">
        <ele>573.8</ele>
        <time>2017-03-19T09:58:41Z</time>
      </trkpt>
      <trkpt lat="45.63816" lon="4.40548">
        <ele>574.1</ele>
        <time>2017-03-19T09:58:42Z</time>
      </trkpt>
      <trkpt lat="45.63816" lon="4.40538">
        <ele>574.2</ele>
        <time>2017-03-19T09:58:43Z</time>
      </trkpt>
      <trkpt lat="45.63815" lon="4.40528">
        <ele>574.4</ele>
        <time>2017-03-19T09:58:44Z</time>
      </trkpt>
      <trkpt lat="45.63812" lon="4.40518">
        <ele>574.7</ele>
        <time>2017-03-19T09:58:45Z</time>
      </trkpt>
      <trkpt lat="45.63808" lon="4.40509">
        <ele>574.9</ele>
        <time>2017-03-19T09:58:46Z</time>
      </trkpt>
      <trkpt lat="45.63802" lon="4.40502">
        <ele>574.5</ele>
        <time>2017-03-19T09:58:47Z</time>
      </trkpt>
      <trkpt lat="45.63796" lon="4.40496">
        <ele>573.9</ele>
        <time>2017-03-19T09:58:48Z</time>
      </trkpt>
      <trkpt lat="45.6379" lon="4.40491">
        <ele>573.1</ele>
        <time>2017-03-19T09:58:49Z</time>
      </trkpt>
      <trkpt lat="45.63784" lon="4.40485">
        <ele>572.5</ele>
        <time>2017-03-19T09:58:50Z</time>
      </trkpt>
      <trkpt lat="45.6378" lon="4.40479">
        <ele>572.4</ele>
        <time>2017-03-19T09:58:51Z</time>
      </trkpt>
      <trkpt lat="45.63779" lon="4.40472">
        <ele>572.9</ele>
        <time>2017-03-19T09:58:52Z</time>
      </trkpt>
      <trkpt lat="45.63779" lon="4.40465">
        <ele>573.6</ele>
        <time>2017-03-19T09:58:53Z</time>
      </trkpt>
      <trkpt lat="45.6378" lon="4.40458">
        <ele>574.2</ele>
        <time>2017-03-19T09:58:54Z</time>
      </trkpt>
      <trkpt lat="45.63781" lon="4.40452">
        <ele>574.9</ele>
        <time>2017-03-19T09:58:55Z</time>
      </trkpt>
      <trkpt lat="45.63781" lon="4.40447">
        <ele>575.2</ele>
        <time>2017-03-19T09:58:56Z</time>
      </trkpt>
      <trkpt lat="45.63781" lon="4.40441">
        <ele>575.6</ele>
        <time>2017-03-19T09:58:57Z</time>
      </trkpt>
      <trkpt lat="45.63782" lon="4.40436">
        <ele>575.8</ele>
        <time>2017-03-19T09:58:58Z</time>
      </trkpt>
      <trkpt lat="45.63783" lon="4.4043">
        <ele>576</ele>
        <time>2017-03-19T09:58:59Z</time>
      </trkpt>
      <trkpt lat="45.63784" lon="4.40424">
        <ele>576</ele>
        <time>2017-03-19T09:59:00Z</time>
      </trkpt>
      <trkpt lat="45.63785" lon="4.40419">
        <ele>576</ele>
        <time>2017-03-19T09:59:01Z</time>
      </trkpt>
      <trkpt lat="45.63787" lon="4.40414">
        <ele>576</ele>
        <time>2017-03-19T09:59:02Z</time>
      </trkpt>
      <trkpt lat="45.63789" lon="4.40408">
        <ele>576.1</ele>
        <time>2017-03-19T09:59:03Z</time>
      </trkpt>
      <trkpt lat="45.63791" lon="4.40403">
        <ele>576.3</ele>
        <time>2017-03-19T09:59:04Z</time>
      </trkpt>
      <trkpt lat="45.63792" lon="4.40397">
        <ele>576.5</ele>
        <time>2017-03-19T09:59:05Z</time>
      </trkpt>
      <trkpt lat="45.63793" lon="4.40392">
        <ele>576.7</ele>
        <time>2017-03-19T09:59:06Z</time>
      </trkpt>
      <trkpt lat="45.63793" lon="4.40386">
        <ele>576.9</ele>
        <time>2017-03-19T09:59:07Z</time>
      </trkpt>
      <trkpt lat="45.63794" lon="4.4038">
        <ele>577.2</ele>
        <time>2017-03-19T09:59:08Z</time>
      </trkpt>
      <trkpt lat="45.63795" lon="4.40374">
        <ele>577.5</ele>
        <time>2017-03-19T09:59:09Z</time>
      </trkpt>
      <trkpt lat="45.63795" lon="4.40368">
        <ele>577.9</ele>
        <time>2017-03-19T09:59:10Z</time>
      </trkpt>
      <trkpt lat="45.63795" lon="4.40362">
        <ele>578.3</ele>
        <time>2017-03-19T09:59:11Z</time>
      </trkpt>
      <trkpt lat="45.63796" lon="4.40356">
        <ele>578.7</ele>
        <time>2017-03-19T09:59:12Z</time>
      </trkpt>
      <trkpt lat="45.63797" lon="4.4035">
        <ele>579</ele>
        <time>2017-03-19T09:59:13Z</time>
      </trkpt>
      <trkpt lat="45.63798" lon="4.40344">
        <ele>579.4</ele>
        <time>2017-03-19T09:59:14Z</time>
      </trkpt>
      <trkpt lat="45.63799" lon="4.40337">
        <ele>579.7</ele>
        <time>2017-03-19T09:59:15Z</time>
      </trkpt>
      <trkpt lat="45.63801" lon="4.40331">
        <ele>580</ele>
        <time>2017-03-19T09:59:16Z</time>
      </trkpt>
      <trkpt lat="45.63805" lon="4.40326">
        <ele>580</ele>
        <time>2017-03-19T09:59:17Z</time>
      </trkpt>
      <trkpt lat="45.63807" lon="4.40321">
        <ele>580</ele>
        <time>2017-03-19T09:59:18Z</time>
      </trkpt>
      <trkpt lat="45.6381" lon="4.40315">
        <ele>580.1</ele>
        <time>2017-03-19T09:59:19Z</time>
      </trkpt>
      <trkpt lat="45.63813" lon="4.4031">
        <ele>580.4</ele>
        <time>2017-03-19T09:59:20Z</time>
      </trkpt>
      <trkpt lat="45.63815" lon="4.40304">
        <ele>580.8</ele>
        <time>2017-03-19T09:59:21Z</time>
      </trkpt>
      <trkpt lat="45.63818" lon="4.40299">
        <ele>581.3</ele>
        <time>2017-03-19T09:59:22Z</time>
      </trkpt>
      <trkpt lat="45.63821" lon="4.40294">
        <ele>581.8</ele>
        <time>2017-03-19T09:59:23Z</time>
      </trkpt>
      <trkpt lat="45.63824" lon="4.40287">
        <ele>582.1</ele>
        <time>2017-03-19T09:59:24Z</time>
      </trkpt>
      <trkpt lat="45.63826" lon="4.40282">
        <ele>582.3</ele>
        <time>2017-03-19T09:59:25Z</time>
      </trkpt>
      <trkpt lat="45.63829" lon="4.40277">
        <ele>582.5</ele>
        <time>2017-03-19T09:59:26Z</time>
      </trkpt>
      <trkpt lat="45.63831" lon="4.40272">
        <ele>582.7</ele>
        <time>2017-03-19T09:59:27Z</time>
      </trkpt>
      <trkpt lat="45.63834" lon="4.40267">
        <ele>582.8</ele>
        <time>2017-03-19T09:59:28Z</time>
      </trkpt>
      <trkpt lat="45.63837" lon="4.40263">
        <ele>582.9</ele>
        <time>2017-03-19T09:59:29Z</time>
      </trkpt>
      <trkpt lat="45.6384" lon="4.40258">
        <ele>583</ele>
        <time>2017-03-19T09:59:30Z</time>
      </trkpt>
      <trkpt lat="45.63844" lon="4.40253">
        <ele>583.1</ele>
        <time>2017-03-19T09:59:31Z</time>
      </trkpt>
      <trkpt lat="45.63847" lon="4.40248">
        <ele>583.3</ele>
        <time>2017-03-19T09:59:32Z</time>
      </trkpt>
      <trkpt lat="45.6385" lon="4.40243">
        <ele>583.5</ele>
        <time>2017-03-19T09:59:33Z</time>
      </trkpt>
      <trkpt lat="45.63854" lon="4.40237">
        <ele>583.5</ele>
        <time>2017-03-19T09:59:34Z</time>
      </trkpt>
      <trkpt lat="45.63858" lon="4.40232">
        <ele>583.5</ele>
        <time>2017-03-19T09:59:35Z</time>
      </trkpt>
      <trkpt lat="45.6386" lon="4.40226">
        <ele>583.5</ele>
        <time>2017-03-19T09:59:36Z</time>
      </trkpt>
      <trkpt lat="45.63862" lon="4.40221">
        <ele>583.4</ele>
        <time>2017-03-19T09:59:37Z</time>
      </trkpt>
      <trkpt lat="45.63865" lon="4.40215">
        <ele>583.3</ele>
        <time>2017-03-19T09:59:38Z</time>
      </trkpt>
      <trkpt lat="45.63868" lon="4.4021">
        <ele>583.2</ele>
        <time>2017-03-19T09:59:39Z</time>
      </trkpt>
      <trkpt lat="45.6387" lon="4.40203">
        <ele>583.1</ele>
        <time>2017-03-19T09:59:40Z</time>
      </trkpt>
      <trkpt lat="45.63873" lon="4.40198">
        <ele>583.1</ele>
        <time>2017-03-19T09:59:41Z</time>
      </trkpt>
      <trkpt lat="45.63875" lon="4.40192">
        <ele>583</ele>
        <time>2017-03-19T09:59:42Z</time>
      </trkpt>
      <trkpt lat="45.63877" lon="4.40187">
        <ele>583.1</ele>
        <time>2017-03-19T09:59:43Z</time>
      </trkpt>
      <trkpt lat="45.63877" lon="4.40182">
        <ele>583.3</ele>
        <time>2017-03-19T09:59:44Z</time>
      </trkpt>
      <trkpt lat="45.63879" lon="4.40177">
        <ele>583.4</ele>
        <time>2017-03-19T09:59:45Z</time>
      </trkpt>
      <trkpt lat="45.6388" lon="4.40173">
        <ele>583.5</ele>
        <time>2017-03-19T09:59:46Z</time>
      </trkpt>
      <trkpt lat="45.63879" lon="4.40167">
        <ele>584</ele>
        <time>2017-03-19T09:59:47Z</time>
      </trkpt>
      <trkpt lat="45.6388" lon="4.40159">
        <ele>584.8</ele>
        <time>2017-03-19T09:59:49Z</time>
      </trkpt>
      <trkpt lat="45.6388" lon="4.40154">
        <ele>585.3</ele>
        <time>2017-03-19T09:59:50Z</time>
      </trkpt>
      <trkpt lat="45.63879" lon="4.4015">
        <ele>585.8</ele>
        <time>2017-03-19T09:59:51Z</time>
      </trkpt>
      <trkpt lat="45.63879" lon="4.40144">
        <ele>586.5</ele>
        <time>2017-03-19T09:59:52Z</time>
      </trkpt>
      <trkpt lat="45.63879" lon="4.4014">
        <ele>586.9</ele>
        <time>2017-03-19T09:59:53Z</time>
      </trkpt>
      <trkpt lat="45.63878" lon="4.40136">
        <ele>587.4</ele>
        <time>2017-03-19T09:59:54Z</time>
      </trkpt>
      <trkpt lat="45.63877" lon="4.40129">
        <ele>588.2</ele>
        <time>2017-03-19T09:59:56Z</time>
      </trkpt>
      <trkpt lat="45.63876" lon="4.40122">
        <ele>588.8</ele>
        <time>2017-03-19T09:59:58Z</time>
      </trkpt>
      <trkpt lat="45.63876" lon="4.40116">
        <ele>589.5</ele>
        <time>2017-03-19T10:00:00Z</time>
      </trkpt>
      <trkpt lat="45.63877" lon="4.40109">
        <ele>590.1</ele>
        <time>2017-03-19T10:00:02Z</time>
      </trkpt>
      <trkpt lat="45.63877" lon="4.40103">
        <ele>590.8</ele>
        <time>2017-03-19T10:00:04Z</time>
      </trkpt>
      <trkpt lat="45.63878" lon="4.40097">
        <ele>591.6</ele>
        <time>2017-03-19T10:00:06Z</time>
      </trkpt>
      <trkpt lat="45.63878" lon="4.40091">
        <ele>592.3</ele>
        <time>2017-03-19T10:00:08Z</time>
      </trkpt>
      <trkpt lat="45.63876" lon="4.40084">
        <ele>593.1</ele>
        <time>2017-03-19T10:00:10Z</time>
      </trkpt>
      <trkpt lat="45.63876" lon="4.40078">
        <ele>593.6</ele>
        <time>2017-03-19T10:00:12Z</time>
      </trkpt>
      <trkpt lat="45.63877" lon="4.40073">
        <ele>594.2</ele>
        <time>2017-03-19T10:00:14Z</time>
      </trkpt>
      <trkpt lat="45.63878" lon="4.40067">
        <ele>594.7</ele>
        <time>2017-03-19T10:00:16Z</time>
      </trkpt>
      <trkpt lat="45.63878" lon="4.40062">
        <ele>595.2</ele>
        <time>2017-03-19T10:00:18Z</time>
      </trkpt>
      <trkpt lat="45.63877" lon="4.40056">
        <ele>595.7</ele>
        <time>2017-03-19T10:00:20Z</time>
      </trkpt>
      <trkpt lat="45.63876" lon="4.40051">
        <ele>596.3</ele>
        <time>2017-03-19T10:00:22Z</time>
      </trkpt>
      <trkpt lat="45.63876" lon="4.40045">
        <ele>596.9</ele>
        <time>2017-03-19T10:00:24Z</time>
      </trkpt>
      <trkpt lat="45.63876" lon="4.40039">
        <ele>597.4</ele>
        <time>2017-03-19T10:00:26Z</time>
      </trkpt>
      <trkpt lat="45.63876" lon="4.40034">
        <ele>597.9</ele>
        <time>2017-03-19T10:00:28Z</time>
      </trkpt>
      <trkpt lat="45.63878" lon="4.40029">
        <ele>598.2</ele>
        <time>2017-03-19T10:00:31Z</time>
      </trkpt>
      <trkpt lat="45.6388" lon="4.40024">
        <ele>598.4</ele>
        <time>2017-03-19T10:00:33Z</time>
      </trkpt>
      <trkpt lat="45.63882" lon="4.40019">
        <ele>598.6</ele>
        <time>2017-03-19T10:00:35Z</time>
      </trkpt>
      <trkpt lat="45.63883" lon="4.40013">
        <ele>598.6</ele>
        <time>2017-03-19T10:00:37Z</time>
      </trkpt>
      <trkpt lat="45.63884" lon="4.40007">
        <ele>598.5</ele>
        <time>2017-03-19T10:00:39Z</time>
      </trkpt>
      <trkpt lat="45.63886" lon="4.40002">
        <ele>598.5</ele>
        <time>2017-03-19T10:00:41Z</time>
      </trkpt>
      <trkpt lat="45.63888" lon="4.39996">
        <ele>598.4</ele>
        <time>2017-03-19T10:00:43Z</time>
      </trkpt>
      <trkpt lat="45.63891" lon="4.39991">
        <ele>598.5</ele>
        <time>2017-03-19T10:00:45Z</time>
      </trkpt>
      <trkpt lat="45.63893" lon="4.39986">
        <ele>598.7</ele>
        <time>2017-03-19T10:00:47Z</time>
      </trkpt>
      <trkpt lat="45.63895" lon="4.3998">
        <ele>599.1</ele>
        <time>2017-03-19T10:00:49Z</time>
      </trkpt>
      <trkpt lat="45.63897" lon="4.39976">
        <ele>599.6</ele>
        <time>2017-03-19T10:00:51Z</time>
      </trkpt>
      <trkpt lat="45.63899" lon="4.39971">
        <ele>600.2</ele>
        <time>2017-03-19T10:00:53Z</time>
      </trkpt>
      <trkpt lat="45.639" lon="4.39967">
        <ele>600.3</ele>
        <time>2017-03-19T10:00:55Z</time>
      </trkpt>
      <trkpt lat="45.63901" lon="4.39961">
        <ele>600.6</ele>
        <time>2017-03-19T10:00:58Z</time>
      </trkpt>
      <trkpt lat="45.63902" lon="4.39957">
        <ele>600.7</ele>
        <time>2017-03-19T10:01:00Z</time>
      </trkpt>
      <trkpt lat="45.63903" lon="4.39953">
        <ele>600.9</ele>
        <time>2017-03-19T10:01:02Z</time>
      </trkpt>
      <trkpt lat="45.63905" lon="4.39949">
        <ele>601</ele>
        <time>2017-03-19T10:01:04Z</time>
      </trkpt>
      <trkpt lat="45.63907" lon="4.39945">
        <ele>601.2</ele>
        <time>2017-03-19T10:01:06Z</time>
      </trkpt>
      <trkpt lat="45.63908" lon="4.39939">
        <ele>601.5</ele>
        <time>2017-03-19T10:01:08Z</time>
      </trkpt>
      <trkpt lat="45.6391" lon="4.39933">
        <ele>601.8</ele>
        <time>2017-03-19T10:01:10Z</time>
      </trkpt>
      <trkpt lat="45.63912" lon="4.39927">
        <ele>602.1</ele>
        <time>2017-03-19T10:01:12Z</time>
      </trkpt>
      <trkpt lat="45.63914" lon="4.39924">
        <ele>602.3</ele>
        <time>2017-03-19T10:01:13Z</time>
      </trkpt>
      <trkpt lat="45.63916" lon="4.39917">
        <ele>602.8</ele>
        <time>2017-03-19T10:01:15Z</time>
      </trkpt>
      <trkpt lat="45.63918" lon="4.39914">
        <ele>603</ele>
        <time>2017-03-19T10:01:16Z</time>
      </trkpt>
      <trkpt lat="45.63919" lon="4.3991">
        <ele>603.3</ele>
        <time>2017-03-19T10:01:17Z</time>
      </trkpt>
      <trkpt lat="45.6392" lon="4.39906">
        <ele>603.6</ele>
        <time>2017-03-19T10:01:18Z</time>
      </trkpt>
      <trkpt lat="45.6392" lon="4.39903">
        <ele>603.9</ele>
        <time>2017-03-19T10:01:19Z</time>
      </trkpt>
      <trkpt lat="45.63921" lon="4.39897">
        <ele>604.4</ele>
        <time>2017-03-19T10:01:21Z</time>
      </trkpt>
      <trkpt lat="45.63923" lon="4.3989">
        <ele>605</ele>
        <time>2017-03-19T10:01:23Z</time>
      </trkpt>
      <trkpt lat="45.63923" lon="4.39886">
        <ele>605.4</ele>
        <time>2017-03-19T10:01:24Z</time>
      </trkpt>
      <trkpt lat="45.63924" lon="4.39882">
        <ele>606</ele>
        <time>2017-03-19T10:01:25Z</time>
      </trkpt>
      <trkpt lat="45.63924" lon="4.39876">
        <ele>607.1</ele>
        <time>2017-03-19T10:01:27Z</time>
      </trkpt>
      <trkpt lat="45.63922" lon="4.39869">
        <ele>608.2</ele>
        <time>2017-03-19T10:01:29Z</time>
      </trkpt>
      <trkpt lat="45.63919" lon="4.39863">
        <ele>608.8</ele>
        <time>2017-03-19T10:01:31Z</time>
      </trkpt>
      <trkpt lat="45.63916" lon="4.39858">
        <ele>609.8</ele>
        <time>2017-03-19T10:01:33Z</time>
      </trkpt>
      <trkpt lat="45.63914" lon="4.39855">
        <ele>610.5</ele>
        <time>2017-03-19T10:01:34Z</time>
      </trkpt>
      <trkpt lat="45.63911" lon="4.3985">
        <ele>611.4</ele>
        <time>2017-03-19T10:01:36Z</time>
      </trkpt>
      <trkpt lat="45.63909" lon="4.39844">
        <ele>612.3</ele>
        <time>2017-03-19T10:01:38Z</time>
      </trkpt>
      <trkpt lat="45.63906" lon="4.39838">
        <ele>612.8</ele>
        <time>2017-03-19T10:01:40Z</time>
      </trkpt>
      <trkpt lat="45.63902" lon="4.39833">
        <ele>613</ele>
        <time>2017-03-19T10:01:42Z</time>
      </trkpt>
      <trkpt lat="45.63899" lon="4.39829">
        <ele>612.9</ele>
        <time>2017-03-19T10:01:44Z</time>
      </trkpt>
      <trkpt lat="45.63895" lon="4.39823">
        <ele>613.1</ele>
        <time>2017-03-19T10:01:46Z</time>
      </trkpt>
      <trkpt lat="45.63893" lon="4.3982">
        <ele>613.3</ele>
        <time>2017-03-19T10:01:47Z</time>
      </trkpt>
      <trkpt lat="45.6389" lon="4.39814">
        <ele>613.5</ele>
        <time>2017-03-19T10:01:49Z</time>
      </trkpt>
      <trkpt lat="45.63889" lon="4.3981">
        <ele>613.7</ele>
        <time>2017-03-19T10:01:50Z</time>
      </trkpt>
      <trkpt lat="45.63888" lon="4.39806">
        <ele>614.1</ele>
        <time>2017-03-19T10:01:51Z</time>
      </trkpt>
      <trkpt lat="45.63887" lon="4.39802">
        <ele>614.5</ele>
        <time>2017-03-19T10:01:52Z</time>
      </trkpt>
      <trkpt lat="45.63885" lon="4.39798">
        <ele>614.9</ele>
        <time>2017-03-19T10:01:53Z</time>
      </trkpt>
      <trkpt lat="45.63884" lon="4.39794">
        <ele>615.1</ele>
        <time>2017-03-19T10:01:54Z</time>
      </trkpt>
      <trkpt lat="45.63882" lon="4.39791">
        <ele>615.3</ele>
        <time>2017-03-19T10:01:55Z</time>
      </trkpt>
      <trkpt lat="45.63881" lon="4.39787">
        <ele>615.4</ele>
        <time>2017-03-19T10:01:56Z</time>
      </trkpt>
      <trkpt lat="45.6388" lon="4.39779">
        <ele>615.5</ele>
        <time>2017-03-19T10:01:58Z</time>
      </trkpt>
      <trkpt lat="45.6388" lon="4.39776">
        <ele>615.6</ele>
        <time>2017-03-19T10:01:59Z</time>
      </trkpt>
      <trkpt lat="45.63879" lon="4.39771">
        <ele>615.7</ele>
        <time>2017-03-19T10:02:00Z</time>
      </trkpt>
      <trkpt lat="45.63878" lon="4.39767">
        <ele>615.7</ele>
        <time>2017-03-19T10:02:01Z</time>
      </trkpt>
      <trkpt lat="45.63876" lon="4.39763">
        <ele>615.8</ele>
        <time>2017-03-19T10:02:02Z</time>
      </trkpt>
      <trkpt lat="45.63875" lon="4.39759">
        <ele>615.9</ele>
        <time>2017-03-19T10:02:03Z</time>
      </trkpt>
      <trkpt lat="45.63874" lon="4.39755">
        <ele>616.1</ele>
        <time>2017-03-19T10:02:04Z</time>
      </trkpt>
      <trkpt lat="45.63873" lon="4.39751">
        <ele>616.2</ele>
        <time>2017-03-19T10:02:05Z</time>
      </trkpt>
      <trkpt lat="45.63872" lon="4.39747">
        <ele>616.2</ele>
        <time>2017-03-19T10:02:06Z</time>
      </trkpt>
      <trkpt lat="45.63871" lon="4.39743">
        <ele>616.3</ele>
        <time>2017-03-19T10:02:07Z</time>
      </trkpt>
      <trkpt lat="45.6387" lon="4.39739">
        <ele>616.4</ele>
        <time>2017-03-19T10:02:08Z</time>
      </trkpt>
      <trkpt lat="45.63869" lon="4.39734">
        <ele>616.5</ele>
        <time>2017-03-19T10:02:09Z</time>
      </trkpt>
      <trkpt lat="45.63868" lon="4.3973">
        <ele>616.6</ele>
        <time>2017-03-19T10:02:10Z</time>
      </trkpt>
      <trkpt lat="45.63867" lon="4.39725">
        <ele>616.7</ele>
        <time>2017-03-19T10:02:11Z</time>
      </trkpt>
      <trkpt lat="45.63866" lon="4.39721">
        <ele>616.7</ele>
        <time>2017-03-19T10:02:12Z</time>
      </trkpt>
      <trkpt lat="45.63866" lon="4.39716">
        <ele>616.8</ele>
        <time>2017-03-19T10:02:13Z</time>
      </trkpt>
      <trkpt lat="45.63865" lon="4.39711">
        <ele>616.9</ele>
        <time>2017-03-19T10:02:14Z</time>
      </trkpt>
      <trkpt lat="45.63864" lon="4.39707">
        <ele>617.1</ele>
        <time>2017-03-19T10:02:15Z</time>
      </trkpt>
      <trkpt lat="45.63863" lon="4.39702">
        <ele>617.2</ele>
        <time>2017-03-19T10:02:16Z</time>
      </trkpt>
      <trkpt lat="45.63863" lon="4.39697">
        <ele>617.4</ele>
        <time>2017-03-19T10:02:17Z</time>
      </trkpt>
      <trkpt lat="45.63862" lon="4.39692">
        <ele>617.6</ele>
        <time>2017-03-19T10:02:18Z</time>
      </trkpt>
      <trkpt lat="45.63861" lon="4.39687">
        <ele>617.7</ele>
        <time>2017-03-19T10:02:19Z</time>
      </trkpt>
      <trkpt lat="45.63861" lon="4.39682">
        <ele>617.9</ele>
        <time>2017-03-19T10:02:20Z</time>
      </trkpt>
      <trkpt lat="45.6386" lon="4.39677">
        <ele>618</ele>
        <time>2017-03-19T10:02:21Z</time>
      </trkpt>
      <trkpt lat="45.63858" lon="4.39671">
        <ele>617.9</ele>
        <time>2017-03-19T10:02:22Z</time>
      </trkpt>
      <trkpt lat="45.63857" lon="4.39666">
        <ele>617.9</ele>
        <time>2017-03-19T10:02:23Z</time>
      </trkpt>
      <trkpt lat="45.63856" lon="4.39661">
        <ele>617.9</ele>
        <time>2017-03-19T10:02:24Z</time>
      </trkpt>
      <trkpt lat="45.63855" lon="4.39655">
        <ele>617.8</ele>
        <time>2017-03-19T10:02:25Z</time>
      </trkpt>
      <trkpt lat="45.63853" lon="4.3965">
        <ele>617.8</ele>
        <time>2017-03-19T10:02:26Z</time>
      </trkpt>
      <trkpt lat="45.63851" lon="4.39645">
        <ele>617.9</ele>
        <time>2017-03-19T10:02:27Z</time>
      </trkpt>
      <trkpt lat="45.6385" lon="4.3964">
        <ele>617.9</ele>
        <time>2017-03-19T10:02:28Z</time>
      </trkpt>
      <trkpt lat="45.63848" lon="4.39635">
        <ele>618</ele>
        <time>2017-03-19T10:02:29Z</time>
      </trkpt>
      <trkpt lat="45.63846" lon="4.3963">
        <ele>618</ele>
        <time>2017-03-19T10:02:30Z</time>
      </trkpt>
      <trkpt lat="45.63845" lon="4.39625">
        <ele>618</ele>
        <time>2017-03-19T10:02:31Z</time>
      </trkpt>
      <trkpt lat="45.63844" lon="4.3962">
        <ele>618.1</ele>
        <time>2017-03-19T10:02:32Z</time>
      </trkpt>
      <trkpt lat="45.63842" lon="4.39616">
        <ele>618.4</ele>
        <time>2017-03-19T10:02:33Z</time>
      </trkpt>
      <trkpt lat="45.63841" lon="4.39612">
        <ele>618.7</ele>
        <time>2017-03-19T10:02:34Z</time>
      </trkpt>
      <trkpt lat="45.6384" lon="4.39607">
        <ele>619.1</ele>
        <time>2017-03-19T10:02:35Z</time>
      </trkpt>
      <trkpt lat="45.63839" lon="4.39602">
        <ele>619.6</ele>
        <time>2017-03-19T10:02:36Z</time>
      </trkpt>
      <trkpt lat="45.63838" lon="4.39597">
        <ele>620.2</ele>
        <time>2017-03-19T10:02:37Z</time>
      </trkpt>
      <trkpt lat="45.63837" lon="4.39592">
        <ele>620.8</ele>
        <time>2017-03-19T10:02:38Z</time>
      </trkpt>
      <trkpt lat="45.63836" lon="4.39587">
        <ele>621.5</ele>
        <time>2017-03-19T10:02:39Z</time>
      </trkpt>
      <trkpt lat="45.63835" lon="4.39582">
        <ele>622</ele>
        <time>2017-03-19T10:02:40Z</time>
      </trkpt>
      <trkpt lat="45.63834" lon="4.39577">
        <ele>622.4</ele>
        <time>2017-03-19T10:02:41Z</time>
      </trkpt>
      <trkpt lat="45.63833" lon="4.39572">
        <ele>622.9</ele>
        <time>2017-03-19T10:02:42Z</time>
      </trkpt>
      <trkpt lat="45.63833" lon="4.39566">
        <ele>623.3</ele>
        <time>2017-03-19T10:02:43Z</time>
      </trkpt>
      <trkpt lat="45.63832" lon="4.39562">
        <ele>623.7</ele>
        <time>2017-03-19T10:02:44Z</time>
      </trkpt>
      <trkpt lat="45.63831" lon="4.39557">
        <ele>624.1</ele>
        <time>2017-03-19T10:02:45Z</time>
      </trkpt>
      <trkpt lat="45.6383" lon="4.39552">
        <ele>624.7</ele>
        <time>2017-03-19T10:02:46Z</time>
      </trkpt>
      <trkpt lat="45.63827" lon="4.39548">
        <ele>625.4</ele>
        <time>2017-03-19T10:02:47Z</time>
      </trkpt>
      <trkpt lat="45.63824" lon="4.39545">
        <ele>626</ele>
        <time>2017-03-19T10:02:48Z</time>
      </trkpt>
      <trkpt lat="45.63821" lon="4.39542">
        <ele>626</ele>
        <time>2017-03-19T10:02:49Z</time>
      </trkpt>
      <trkpt lat="45.63818" lon="4.39539">
        <ele>626.5</ele>
        <time>2017-03-19T10:02:50Z</time>
      </trkpt>
      <trkpt lat="45.63815" lon="4.39535">
        <ele>626.8</ele>
        <time>2017-03-19T10:02:51Z</time>
      </trkpt>
      <trkpt lat="45.63813" lon="4.3953">
        <ele>627.1</ele>
        <time>2017-03-19T10:02:52Z</time>
      </trkpt>
      <trkpt lat="45.63812" lon="4.39525">
        <ele>627.4</ele>
        <time>2017-03-19T10:02:53Z</time>
      </trkpt>
      <trkpt lat="45.63812" lon="4.3952">
        <ele>627.5</ele>
        <time>2017-03-19T10:02:54Z</time>
      </trkpt>
      <trkpt lat="45.63812" lon="4.39515">
        <ele>627.6</ele>
        <time>2017-03-19T10:02:55Z</time>
      </trkpt>
      <trkpt lat="45.63813" lon="4.3951">
        <ele>627.6</ele>
        <time>2017-03-19T10:02:56Z</time>
      </trkpt>
      <trkpt lat="45.63813" lon="4.39505">
        <ele>627.5</ele>
        <time>2017-03-19T10:02:57Z</time>
      </trkpt>
      <trkpt lat="45.63813" lon="4.395">
        <ele>627.5</ele>
        <time>2017-03-19T10:02:58Z</time>
      </trkpt>
      <trkpt lat="45.63812" lon="4.39494">
        <ele>627.3</ele>
        <time>2017-03-19T10:02:59Z</time>
      </trkpt>
      <trkpt lat="45.63812" lon="4.39488">
        <ele>627.1</ele>
        <time>2017-03-19T10:03:00Z</time>
      </trkpt>
      <trkpt lat="45.63812" lon="4.39483">
        <ele>627</ele>
        <time>2017-03-19T10:03:01Z</time>
      </trkpt>
      <trkpt lat="45.63812" lon="4.39478">
        <ele>627</ele>
        <time>2017-03-19T10:03:02Z</time>
      </trkpt>
      <trkpt lat="45.63812" lon="4.39471">
        <ele>627</ele>
        <time>2017-03-19T10:03:04Z</time>
      </trkpt>
      <trkpt lat="45.63812" lon="4.39465">
        <ele>627</ele>
        <time>2017-03-19T10:03:06Z</time>
      </trkpt>
      <trkpt lat="45.63813" lon="4.39459">
        <ele>627</ele>
        <time>2017-03-19T10:03:08Z</time>
      </trkpt>
      <trkpt lat="45.63814" lon="4.39451">
        <ele>627</ele>
        <time>2017-03-19T10:03:10Z</time>
      </trkpt>
      <trkpt lat="45.63815" lon="4.39447">
        <ele>627</ele>
        <time>2017-03-19T10:03:11Z</time>
      </trkpt>
      <trkpt lat="45.63817" lon="4.3944">
        <ele>627</ele>
        <time>2017-03-19T10:03:13Z</time>
      </trkpt>
      <trkpt lat="45.63818" lon="4.39436">
        <ele>627</ele>
        <time>2017-03-19T10:03:14Z</time>
      </trkpt>
      <trkpt lat="45.63819" lon="4.39432">
        <ele>627</ele>
        <time>2017-03-19T10:03:15Z</time>
      </trkpt>
      <trkpt lat="45.6382" lon="4.39427">
        <ele>627.1</ele>
        <time>2017-03-19T10:03:16Z</time>
      </trkpt>
      <trkpt lat="45.63821" lon="4.39423">
        <ele>627.1</ele>
        <time>2017-03-19T10:03:17Z</time>
      </trkpt>
      <trkpt lat="45.63821" lon="4.39418">
        <ele>627.2</ele>
        <time>2017-03-19T10:03:18Z</time>
      </trkpt>
      <trkpt lat="45.63822" lon="4.39413">
        <ele>627.3</ele>
        <time>2017-03-19T10:03:19Z</time>
      </trkpt>
      <trkpt lat="45.63823" lon="4.39409">
        <ele>627.3</ele>
        <time>2017-03-19T10:03:20Z</time>
      </trkpt>
      <trkpt lat="45.63824" lon="4.39404">
        <ele>627.4</ele>
        <time>2017-03-19T10:03:21Z</time>
      </trkpt>
      <trkpt lat="45.63826" lon="4.39399">
        <ele>627.5</ele>
        <time>2017-03-19T10:03:22Z</time>
      </trkpt>
      <trkpt lat="45.63826" lon="4.39395">
        <ele>627.6</ele>
        <time>2017-03-19T10:03:23Z</time>
      </trkpt>
      <trkpt lat="45.63827" lon="4.39389">
        <ele>627.7</ele>
        <time>2017-03-19T10:03:24Z</time>
      </trkpt>
      <trkpt lat="45.63828" lon="4.39383">
        <ele>627.8</ele>
        <time>2017-03-19T10:03:25Z</time>
      </trkpt>
      <trkpt lat="45.6383" lon="4.39377">
        <ele>627.9</ele>
        <time>2017-03-19T10:03:26Z</time>
      </trkpt>
      <trkpt lat="45.63831" lon="4.39371">
        <ele>628</ele>
        <time>2017-03-19T10:03:27Z</time>
      </trkpt>
      <trkpt lat="45.63832" lon="4.39365">
        <ele>627.6</ele>
        <time>2017-03-19T10:03:28Z</time>
      </trkpt>
      <trkpt lat="45.63832" lon="4.39359">
        <ele>627.2</ele>
        <time>2017-03-19T10:03:29Z</time>
      </trkpt>
      <trkpt lat="45.63833" lon="4.39354">
        <ele>626.8</ele>
        <time>2017-03-19T10:03:30Z</time>
      </trkpt>
      <trkpt lat="45.63833" lon="4.39348">
        <ele>626.4</ele>
        <time>2017-03-19T10:03:31Z</time>
      </trkpt>
      <trkpt lat="45.63834" lon="4.39343">
        <ele>626</ele>
        <time>2017-03-19T10:03:32Z</time>
      </trkpt>
      <trkpt lat="45.63834" lon="4.39338">
        <ele>625.7</ele>
        <time>2017-03-19T10:03:33Z</time>
      </trkpt>
      <trkpt lat="45.63835" lon="4.39334">
        <ele>625.3</ele>
        <time>2017-03-19T10:03:34Z</time>
      </trkpt>
      <trkpt lat="45.63835" lon="4.39329">
        <ele>625</ele>
        <time>2017-03-19T10:03:35Z</time>
      </trkpt>
      <trkpt lat="45.63835" lon="4.39325">
        <ele>624.7</ele>
        <time>2017-03-19T10:03:36Z</time>
      </trkpt>
      <trkpt lat="45.63833" lon="4.39322">
        <ele>624.3</ele>
        <time>2017-03-19T10:03:38Z</time>
      </trkpt>
      <trkpt lat="45.6383" lon="4.39319">
        <ele>624</ele>
        <time>2017-03-19T10:03:39Z</time>
      </trkpt>
      <trkpt lat="45.63828" lon="4.39315">
        <ele>624</ele>
        <time>2017-03-19T10:03:40Z</time>
      </trkpt>
      <trkpt lat="45.63824" lon="4.39312">
        <ele>624</ele>
        <time>2017-03-19T10:03:41Z</time>
      </trkpt>
      <trkpt lat="45.63821" lon="4.39308">
        <ele>624</ele>
        <time>2017-03-19T10:03:42Z</time>
      </trkpt>
      <trkpt lat="45.63818" lon="4.39305">
        <ele>624.1</ele>
        <time>2017-03-19T10:03:43Z</time>
      </trkpt>
      <trkpt lat="45.63815" lon="4.39301">
        <ele>624.3</ele>
        <time>2017-03-19T10:03:44Z</time>
      </trkpt>
      <trkpt lat="45.63812" lon="4.39297">
        <ele>624.6</ele>
        <time>2017-03-19T10:03:45Z</time>
      </trkpt>
      <trkpt lat="45.63808" lon="4.39293">
        <ele>624.8</ele>
        <time>2017-03-19T10:03:46Z</time>
      </trkpt>
      <trkpt lat="45.63804" lon="4.3929">
        <ele>625</ele>
        <time>2017-03-19T10:03:47Z</time>
      </trkpt>
      <trkpt lat="45.63799" lon="4.39287">
        <ele>625</ele>
        <time>2017-03-19T10:03:48Z</time>
      </trkpt>
      <trkpt lat="45.63795" lon="4.39284">
        <ele>625.1</ele>
        <time>2017-03-19T10:03:49Z</time>
      </trkpt>
      <trkpt lat="45.6379" lon="4.39281">
        <ele>625.1</ele>
        <time>2017-03-19T10:03:50Z</time>
      </trkpt>
      <trkpt lat="45.63786" lon="4.39279">
        <ele>625.2</ele>
        <time>2017-03-19T10:03:51Z</time>
      </trkpt>
      <trkpt lat="45.63783" lon="4.39277">
        <ele>625.3</ele>
        <time>2017-03-19T10:03:52Z</time>
      </trkpt>
      <trkpt lat="45.63779" lon="4.39274">
        <ele>625.4</ele>
        <time>2017-03-19T10:03:53Z</time>
      </trkpt>
      <trkpt lat="45.63776" lon="4.3927">
        <ele>625.5</ele>
        <time>2017-03-19T10:03:54Z</time>
      </trkpt>
      <trkpt lat="45.63773" lon="4.39267">
        <ele>625.6</ele>
        <time>2017-03-19T10:03:55Z</time>
      </trkpt>
      <trkpt lat="45.6377" lon="4.39264">
        <ele>625.8</ele>
        <time>2017-03-19T10:03:56Z</time>
      </trkpt>
      <trkpt lat="45.63768" lon="4.39261">
        <ele>626</ele>
        <time>2017-03-19T10:03:57Z</time>
      </trkpt>
      <trkpt lat="45.63766" lon="4.39256">
        <ele>626</ele>
        <time>2017-03-19T10:03:58Z</time>
      </trkpt>
      <trkpt lat="45.63765" lon="4.3925">
        <ele>626</ele>
        <time>2017-03-19T10:03:59Z</time>
      </trkpt>
      <trkpt lat="45.63765" lon="4.39244">
        <ele>626</ele>
        <time>2017-03-19T10:04:00Z</time>
      </trkpt>
      <trkpt lat="45.63765" lon="4.39241">
        <ele>626</ele>
        <time>2017-03-19T10:04:01Z</time>
      </trkpt>
      <trkpt lat="45.63767" lon="4.39236">
        <ele>626</ele>
        <time>2017-03-19T10:04:02Z</time>
      </trkpt>
      <trkpt lat="45.6377" lon="4.3923">
        <ele>626</ele>
        <time>2017-03-19T10:04:03Z</time>
      </trkpt>
      <trkpt lat="45.63774" lon="4.39225">
        <ele>626</ele>
        <time>2017-03-19T10:04:04Z</time>
      </trkpt>
      <trkpt lat="45.63777" lon="4.39219">
        <ele>625.7</ele>
        <time>2017-03-19T10:04:05Z</time>
      </trkpt>
      <trkpt lat="45.63781" lon="4.39214">
        <ele>625.4</ele>
        <time>2017-03-19T10:04:06Z</time>
      </trkpt>
      <trkpt lat="45.63784" lon="4.39209">
        <ele>625.3</ele>
        <time>2017-03-19T10:04:07Z</time>
      </trkpt>
      <trkpt lat="45.63787" lon="4.39203">
        <ele>625.1</ele>
        <time>2017-03-19T10:04:08Z</time>
      </trkpt>
      <trkpt lat="45.6379" lon="4.39198">
        <ele>624.9</ele>
        <time>2017-03-19T10:04:09Z</time>
      </trkpt>
      <trkpt lat="45.63792" lon="4.39192">
        <ele>624.8</ele>
        <time>2017-03-19T10:04:10Z</time>
      </trkpt>
      <trkpt lat="45.63794" lon="4.39187">
        <ele>624.6</ele>
        <time>2017-03-19T10:04:11Z</time>
      </trkpt>
      <trkpt lat="45.63794" lon="4.39182">
        <ele>624.5</ele>
        <time>2017-03-19T10:04:12Z</time>
      </trkpt>
      <trkpt lat="45.63793" lon="4.39177">
        <ele>624.4</ele>
        <time>2017-03-19T10:04:13Z</time>
      </trkpt>
      <trkpt lat="45.63791" lon="4.39171">
        <ele>624.3</ele>
        <time>2017-03-19T10:04:14Z</time>
      </trkpt>
      <trkpt lat="45.6379" lon="4.39165">
        <ele>624.1</ele>
        <time>2017-03-19T10:04:15Z</time>
      </trkpt>
      <trkpt lat="45.63789" lon="4.39158">
        <ele>624</ele>
        <time>2017-03-19T10:04:16Z</time>
      </trkpt>
      <trkpt lat="45.63788" lon="4.39152">
        <ele>624</ele>
        <time>2017-03-19T10:04:17Z</time>
      </trkpt>
      <trkpt lat="45.63788" lon="4.39146">
        <ele>624</ele>
        <time>2017-03-19T10:04:18Z</time>
      </trkpt>
      <trkpt lat="45.63787" lon="4.39141">
        <ele>624</ele>
        <time>2017-03-19T10:04:19Z</time>
      </trkpt>
      <trkpt lat="45.63786" lon="4.39136">
        <ele>624</ele>
        <time>2017-03-19T10:04:20Z</time>
      </trkpt>
      <trkpt lat="45.63786" lon="4.3913">
        <ele>624</ele>
        <time>2017-03-19T10:04:21Z</time>
      </trkpt>
      <trkpt lat="45.63785" lon="4.39123">
        <ele>624</ele>
        <time>2017-03-19T10:04:22Z</time>
      </trkpt>
      <trkpt lat="45.63784" lon="4.39117">
        <ele>624</ele>
        <time>2017-03-19T10:04:23Z</time>
      </trkpt>
      <trkpt lat="45.63785" lon="4.39113">
        <ele>624</ele>
        <time>2017-03-19T10:04:24Z</time>
      </trkpt>
      <trkpt lat="45.63786" lon="4.39109">
        <ele>624</ele>
        <time>2017-03-19T10:04:25Z</time>
      </trkpt>
      <trkpt lat="45.63784" lon="4.39103">
        <ele>624</ele>
        <time>2017-03-19T10:04:27Z</time>
      </trkpt>
      <trkpt lat="45.63779" lon="4.39101">
        <ele>623.8</ele>
        <time>2017-03-19T10:04:29Z</time>
      </trkpt>
      <trkpt lat="45.63775" lon="4.39099">
        <ele>623.6</ele>
        <time>2017-03-19T10:04:31Z</time>
      </trkpt>
      <trkpt lat="45.63772" lon="4.39098">
        <ele>623.3</ele>
        <time>2017-03-19T10:04:35Z</time>
      </trkpt>
      <trkpt lat="45.63773" lon="4.39093">
        <ele>623.1</ele>
        <time>2017-03-19T10:04:38Z</time>
      </trkpt>
      <trkpt lat="45.63777" lon="4.39089">
        <ele>621.6</ele>
        <time>2017-03-19T10:04:40Z</time>
      </trkpt>
      <trkpt lat="45.63784" lon="4.39084">
        <ele>622</ele>
        <time>2017-03-19T10:04:47Z</time>
      </trkpt>
      <trkpt lat="45.63787" lon="4.39076">
        <ele>622.4</ele>
        <time>2017-03-19T10:04:53Z</time>
      </trkpt>
      <trkpt lat="45.63788" lon="4.39072">
        <ele>622.6</ele>
        <time>2017-03-19T10:04:56Z</time>
      </trkpt>
      <trkpt lat="45.6379" lon="4.39078">
        <ele>622.9</ele>
        <time>2017-03-19T10:05:03Z</time>
      </trkpt>
      <trkpt lat="45.63791" lon="4.39083">
        <ele>623.1</ele>
        <time>2017-03-19T10:06:26Z</time>
      </trkpt>
      <trkpt lat="45.63795" lon="4.39088">
        <ele>623.4</ele>
        <time>2017-03-19T10:06:28Z</time>
      </trkpt>
      <trkpt lat="45.63799" lon="4.39094">
        <ele>623.7</ele>
        <time>2017-03-19T10:06:30Z</time>
      </trkpt>
      <trkpt lat="45.63801" lon="4.39096">
        <ele>624</ele>
        <time>2017-03-19T10:06:31Z</time>
      </trkpt>
      <trkpt lat="45.63805" lon="4.39098">
        <ele>624</ele>
        <time>2017-03-19T10:06:33Z</time>
      </trkpt>
      <trkpt lat="45.63809" lon="4.39094">
        <ele>624</ele>
        <time>2017-03-19T10:06:36Z</time>
      </trkpt>
      <trkpt lat="45.63813" lon="4.39091">
        <ele>624</ele>
        <time>2017-03-19T10:06:37Z</time>
      </trkpt>
      <trkpt lat="45.63817" lon="4.39086">
        <ele>624</ele>
        <time>2017-03-19T10:06:43Z</time>
      </trkpt>
      <trkpt lat="45.63819" lon="4.39082">
        <ele>619</ele>
        <time>2017-03-19T10:06:46Z</time>
      </trkpt>
      <trkpt lat="45.63822" lon="4.39079">
        <ele>618.8</ele>
        <time>2017-03-19T10:06:48Z</time>
      </trkpt>
      <trkpt lat="45.63825" lon="4.39076">
        <ele>618.6</ele>
        <time>2017-03-19T10:06:49Z</time>
      </trkpt>
      <trkpt lat="45.63829" lon="4.39073">
        <ele>618.3</ele>
        <time>2017-03-19T10:06:50Z</time>
      </trkpt>
      <trkpt lat="45.63833" lon="4.39071">
        <ele>618.1</ele>
        <time>2017-03-19T10:06:51Z</time>
      </trkpt>
      <trkpt lat="45.63836" lon="4.39069">
        <ele>617.9</ele>
        <time>2017-03-19T10:06:52Z</time>
      </trkpt>
      <trkpt lat="45.63838" lon="4.39066">
        <ele>617.7</ele>
        <time>2017-03-19T10:06:54Z</time>
      </trkpt>
      <trkpt lat="45.63838" lon="4.3906">
        <ele>617.4</ele>
        <time>2017-03-19T10:06:57Z</time>
      </trkpt>
      <trkpt lat="45.63835" lon="4.39053">
        <ele>617.5</ele>
        <time>2017-03-19T10:06:59Z</time>
      </trkpt>
      <trkpt lat="45.63833" lon="4.3905">
        <ele>617.6</ele>
        <time>2017-03-19T10:07:00Z</time>
      </trkpt>
      <trkpt lat="45.63831" lon="4.39046">
        <ele>617.8</ele>
        <time>2017-03-19T10:07:01Z</time>
      </trkpt>
      <trkpt lat="45.63829" lon="4.39042">
        <ele>617.9</ele>
        <time>2017-03-19T10:07:02Z</time>
      </trkpt>
      <trkpt lat="45.63828" lon="4.39037">
        <ele>617.9</ele>
        <time>2017-03-19T10:07:03Z</time>
      </trkpt>
      <trkpt lat="45.63826" lon="4.39032">
        <ele>617.8</ele>
        <time>2017-03-19T10:07:04Z</time>
      </trkpt>
      <trkpt lat="45.63825" lon="4.39026">
        <ele>617.9</ele>
        <time>2017-03-19T10:07:05Z</time>
      </trkpt>
      <trkpt lat="45.63827" lon="4.39015">
        <ele>617.9</ele>
        <time>2017-03-19T10:07:06Z</time>
      </trkpt>
      <trkpt lat="45.63826" lon="4.39008">
        <ele>617.8</ele>
        <time>2017-03-19T10:07:07Z</time>
      </trkpt>
      <trkpt lat="45.63826" lon="4.39003">
        <ele>617.8</ele>
        <time>2017-03-19T10:07:08Z</time>
      </trkpt>
      <trkpt lat="45.63825" lon="4.38996">
        <ele>617.6</ele>
        <time>2017-03-19T10:07:09Z</time>
      </trkpt>
      <trkpt lat="45.63824" lon="4.38989">
        <ele>617.5</ele>
        <time>2017-03-19T10:07:10Z</time>
      </trkpt>
      <trkpt lat="45.63823" lon="4.38982">
        <ele>617.4</ele>
        <time>2017-03-19T10:07:11Z</time>
      </trkpt>
      <trkpt lat="45.63821" lon="4.38975">
        <ele>617.2</ele>
        <time>2017-03-19T10:07:12Z</time>
      </trkpt>
      <trkpt lat="45.63819" lon="4.38968">
        <ele>617</ele>
        <time>2017-03-19T10:07:13Z</time>
      </trkpt>
      <trkpt lat="45.63816" lon="4.38961">
        <ele>617</ele>
        <time>2017-03-19T10:07:14Z</time>
      </trkpt>
      <trkpt lat="45.63815" lon="4.38955">
        <ele>617.1</ele>
        <time>2017-03-19T10:07:15Z</time>
      </trkpt>
      <trkpt lat="45.63813" lon="4.38947">
        <ele>617.1</ele>
        <time>2017-03-19T10:07:16Z</time>
      </trkpt>
      <trkpt lat="45.6381" lon="4.3894">
        <ele>617.1</ele>
        <time>2017-03-19T10:07:17Z</time>
      </trkpt>
      <trkpt lat="45.63806" lon="4.38934">
        <ele>617</ele>
        <time>2017-03-19T10:07:18Z</time>
      </trkpt>
      <trkpt lat="45.63805" lon="4.38929">
        <ele>617</ele>
        <time>2017-03-19T10:07:19Z</time>
      </trkpt>
      <trkpt lat="45.63801" lon="4.38919">
        <ele>615.9</ele>
        <time>2017-03-19T10:07:21Z</time>
      </trkpt>
      <trkpt lat="45.63801" lon="4.38912">
        <ele>615</ele>
        <time>2017-03-19T10:07:22Z</time>
      </trkpt>
      <trkpt lat="45.63798" lon="4.38905">
        <ele>615</ele>
        <time>2017-03-19T10:07:23Z</time>
      </trkpt>
      <trkpt lat="45.63797" lon="4.389">
        <ele>615</ele>
        <time>2017-03-19T10:07:24Z</time>
      </trkpt>
      <trkpt lat="45.63795" lon="4.38894">
        <ele>615</ele>
        <time>2017-03-19T10:07:25Z</time>
      </trkpt>
      <trkpt lat="45.63793" lon="4.38889">
        <ele>615</ele>
        <time>2017-03-19T10:07:26Z</time>
      </trkpt>
      <trkpt lat="45.63791" lon="4.38884">
        <ele>615</ele>
        <time>2017-03-19T10:07:27Z</time>
      </trkpt>
      <trkpt lat="45.63789" lon="4.38879">
        <ele>615</ele>
        <time>2017-03-19T10:07:28Z</time>
      </trkpt>
      <trkpt lat="45.63786" lon="4.38874">
        <ele>614.5</ele>
        <time>2017-03-19T10:07:29Z</time>
      </trkpt>
      <trkpt lat="45.63785" lon="4.38869">
        <ele>613.9</ele>
        <time>2017-03-19T10:07:30Z</time>
      </trkpt>
      <trkpt lat="45.63784" lon="4.38864">
        <ele>613.6</ele>
        <time>2017-03-19T10:07:31Z</time>
      </trkpt>
      <trkpt lat="45.63782" lon="4.38858">
        <ele>613.2</ele>
        <time>2017-03-19T10:07:32Z</time>
      </trkpt>
      <trkpt lat="45.63779" lon="4.38853">
        <ele>612.8</ele>
        <time>2017-03-19T10:07:33Z</time>
      </trkpt>
      <trkpt lat="45.63777" lon="4.38849">
        <ele>612.5</ele>
        <time>2017-03-19T10:07:34Z</time>
      </trkpt>
      <trkpt lat="45.63774" lon="4.38845">
        <ele>612.1</ele>
        <time>2017-03-19T10:07:35Z</time>
      </trkpt>
      <trkpt lat="45.6377" lon="4.38841">
        <ele>611.7</ele>
        <time>2017-03-19T10:07:36Z</time>
      </trkpt>
      <trkpt lat="45.63767" lon="4.38838">
        <ele>611.4</ele>
        <time>2017-03-19T10:07:37Z</time>
      </trkpt>
      <trkpt lat="45.63759" lon="4.38836">
        <ele>610.8</ele>
        <time>2017-03-19T10:07:38Z</time>
      </trkpt>
      <trkpt lat="45.63754" lon="4.38832">
        <ele>610.3</ele>
        <time>2017-03-19T10:07:39Z</time>
      </trkpt>
      <trkpt lat="45.63749" lon="4.3883">
        <ele>609.9</ele>
        <time>2017-03-19T10:07:40Z</time>
      </trkpt>
      <trkpt lat="45.63743" lon="4.38828">
        <ele>609.4</ele>
        <time>2017-03-19T10:07:41Z</time>
      </trkpt>
      <trkpt lat="45.63737" lon="4.38826">
        <ele>609</ele>
        <time>2017-03-19T10:07:42Z</time>
      </trkpt>
      <trkpt lat="45.63735" lon="4.38821">
        <ele>609</ele>
        <time>2017-03-19T10:07:43Z</time>
      </trkpt>
      <trkpt lat="45.63733" lon="4.38817">
        <ele>609</ele>
        <time>2017-03-19T10:07:44Z</time>
      </trkpt>
      <trkpt lat="45.63736" lon="4.38811">
        <ele>609</ele>
        <time>2017-03-19T10:07:46Z</time>
      </trkpt>
      <trkpt lat="45.63737" lon="4.38808">
        <ele>609</ele>
        <time>2017-03-19T10:07:47Z</time>
      </trkpt>
      <trkpt lat="45.63739" lon="4.38803">
        <ele>608.9</ele>
        <time>2017-03-19T10:07:48Z</time>
      </trkpt>
      <trkpt lat="45.6374" lon="4.38798">
        <ele>608.8</ele>
        <time>2017-03-19T10:07:49Z</time>
      </trkpt>
      <trkpt lat="45.63742" lon="4.38793">
        <ele>608.5</ele>
        <time>2017-03-19T10:07:50Z</time>
      </trkpt>
      <trkpt lat="45.63744" lon="4.38788">
        <ele>608.2</ele>
        <time>2017-03-19T10:07:51Z</time>
      </trkpt>
      <trkpt lat="45.63746" lon="4.38784">
        <ele>608</ele>
        <time>2017-03-19T10:07:52Z</time>
      </trkpt>
      <trkpt lat="45.63748" lon="4.38779">
        <ele>607.9</ele>
        <time>2017-03-19T10:07:53Z</time>
      </trkpt>
      <trkpt lat="45.63748" lon="4.38773">
        <ele>607.8</ele>
        <time>2017-03-19T10:07:54Z</time>
      </trkpt>
      <trkpt lat="45.63748" lon="4.38767">
        <ele>607.8</ele>
        <time>2017-03-19T10:07:55Z</time>
      </trkpt>
      <trkpt lat="45.63748" lon="4.38763">
        <ele>607.8</ele>
        <time>2017-03-19T10:07:56Z</time>
      </trkpt>
      <trkpt lat="45.63749" lon="4.3876">
        <ele>607.8</ele>
        <time>2017-03-19T10:07:58Z</time>
      </trkpt>
      <trkpt lat="45.63751" lon="4.38757">
        <ele>607.7</ele>
        <time>2017-03-19T10:08:00Z</time>
      </trkpt>
      <trkpt lat="45.63748" lon="4.38756">
        <ele>607.8</ele>
        <time>2017-03-19T10:08:04Z</time>
      </trkpt>
      <trkpt lat="45.63743" lon="4.38764">
        <ele>607.8</ele>
        <time>2017-03-19T10:08:07Z</time>
      </trkpt>
    </trkseg>
  </trk>
</gpx>